<?xml version="1.0" encoding="UTF-8" standalone="no" ?>
<gpx xmlns="http://www.topografix.com/GPX/1/1" xmlns:xsi="http://www.w3.org/2001/XMLSchema-instance" xsi:schemaLocation="http://www.topografix.com/GPX/1/1 http://www.topografix.com/GPX/1/1/gpx.xsd" version="1.1" creator="VisuGPX - https://www.visugpx.com">
  <metadata>
    <name>Bramafan - Puy de Naouri</name>
    <desc><![CDATA[Bramafan - Courmes - Naouri - Col de Vence
Relevé terrain
Rando ASCVTT du 25/01/2025]]></desc>
  </metadata>
  <trk>
    <name><![CDATA[2025-01-25_094356--Bramafan]]></name>
    <extensions>
      <line xmlns="http://www.topografix.com/GPX/gpx_style/0/2">
        <width>7</width>
      </line>
    </extensions>
    <trkseg>
      <trkpt lat="43.76277" lon="6.98752">
        <ele>476.4</ele>
        <time>2025-01-25T08:43:56.000Z</time>
      </trkpt>
      <trkpt lat="43.76277" lon="6.98753">
        <ele>476.4</ele>
        <time>2025-01-25T08:43:57.000Z</time>
      </trkpt>
      <trkpt lat="43.76277" lon="6.98753">
        <ele>476.5</ele>
        <time>2025-01-25T08:43:58.000Z</time>
      </trkpt>
      <trkpt lat="43.76277" lon="6.98754">
        <ele>476.5</ele>
        <time>2025-01-25T08:44:00.000Z</time>
      </trkpt>
      <trkpt lat="43.76276" lon="6.98754">
        <ele>476.5</ele>
        <time>2025-01-25T08:44:01.000Z</time>
      </trkpt>
      <trkpt lat="43.76276" lon="6.98754">
        <ele>476.5</ele>
        <time>2025-01-25T08:44:02.000Z</time>
      </trkpt>
      <trkpt lat="43.76277" lon="6.9875">
        <ele>477.2</ele>
        <time>2025-01-25T08:44:22.000Z</time>
      </trkpt>
      <trkpt lat="43.76277" lon="6.9875">
        <ele>477</ele>
        <time>2025-01-25T08:44:24.000Z</time>
      </trkpt>
      <trkpt lat="43.76277" lon="6.9875">
        <ele>477</ele>
        <time>2025-01-25T08:44:29.000Z</time>
      </trkpt>
      <trkpt lat="43.76277" lon="6.9875">
        <ele>477</ele>
        <time>2025-01-25T08:44:29.000Z</time>
      </trkpt>
      <trkpt lat="43.76277" lon="6.9875">
        <ele>477.2</ele>
        <time>2025-01-25T08:44:30.000Z</time>
      </trkpt>
      <trkpt lat="43.76277" lon="6.9875">
        <ele>477.1</ele>
        <time>2025-01-25T08:44:31.000Z</time>
      </trkpt>
      <trkpt lat="43.76278" lon="6.9875">
        <ele>477</ele>
        <time>2025-01-25T08:44:32.000Z</time>
      </trkpt>
      <trkpt lat="43.76278" lon="6.9875">
        <ele>476.9</ele>
        <time>2025-01-25T08:44:33.000Z</time>
      </trkpt>
      <trkpt lat="43.76279" lon="6.98751">
        <ele>476.7</ele>
        <time>2025-01-25T08:44:40.000Z</time>
      </trkpt>
      <trkpt lat="43.76279" lon="6.98751">
        <ele>476.7</ele>
        <time>2025-01-25T08:44:41.000Z</time>
      </trkpt>
      <trkpt lat="43.76279" lon="6.98751">
        <ele>476.7</ele>
        <time>2025-01-25T08:44:42.000Z</time>
      </trkpt>
      <trkpt lat="43.7628" lon="6.98752">
        <ele>476.7</ele>
        <time>2025-01-25T08:44:43.000Z</time>
      </trkpt>
      <trkpt lat="43.7628" lon="6.98752">
        <ele>476.7</ele>
        <time>2025-01-25T08:44:44.000Z</time>
      </trkpt>
      <trkpt lat="43.76276" lon="6.98758">
        <ele>476.6</ele>
        <time>2025-01-25T08:44:57.000Z</time>
      </trkpt>
      <trkpt lat="43.76271" lon="6.9876">
        <ele>476.6</ele>
        <time>2025-01-25T08:45:01.000Z</time>
      </trkpt>
      <trkpt lat="43.76266" lon="6.98761">
        <ele>476.5</ele>
        <time>2025-01-25T08:45:04.000Z</time>
      </trkpt>
      <trkpt lat="43.76262" lon="6.98764">
        <ele>476.4</ele>
        <time>2025-01-25T08:45:06.000Z</time>
      </trkpt>
      <trkpt lat="43.76258" lon="6.98768">
        <ele>476.3</ele>
        <time>2025-01-25T08:45:08.000Z</time>
      </trkpt>
      <trkpt lat="43.76252" lon="6.98771">
        <ele>476.2</ele>
        <time>2025-01-25T08:45:10.000Z</time>
      </trkpt>
      <trkpt lat="43.76247" lon="6.98774">
        <ele>476</ele>
        <time>2025-01-25T08:45:12.000Z</time>
      </trkpt>
      <trkpt lat="43.7624" lon="6.98776">
        <ele>475.9</ele>
        <time>2025-01-25T08:45:14.000Z</time>
      </trkpt>
      <trkpt lat="43.76233" lon="6.9878">
        <ele>475.8</ele>
        <time>2025-01-25T08:45:16.000Z</time>
      </trkpt>
      <trkpt lat="43.76225" lon="6.98783">
        <ele>475.7</ele>
        <time>2025-01-25T08:45:18.000Z</time>
      </trkpt>
      <trkpt lat="43.76217" lon="6.98787">
        <ele>475.5</ele>
        <time>2025-01-25T08:45:20.000Z</time>
      </trkpt>
      <trkpt lat="43.76211" lon="6.9879">
        <ele>475.3</ele>
        <time>2025-01-25T08:45:22.000Z</time>
      </trkpt>
      <trkpt lat="43.76204" lon="6.98793">
        <ele>475.2</ele>
        <time>2025-01-25T08:45:24.000Z</time>
      </trkpt>
      <trkpt lat="43.76197" lon="6.98796">
        <ele>475</ele>
        <time>2025-01-25T08:45:26.000Z</time>
      </trkpt>
      <trkpt lat="43.7619" lon="6.98802">
        <ele>474.8</ele>
        <time>2025-01-25T08:45:28.000Z</time>
      </trkpt>
      <trkpt lat="43.76183" lon="6.98811">
        <ele>474.5</ele>
        <time>2025-01-25T08:45:30.000Z</time>
      </trkpt>
      <trkpt lat="43.76179" lon="6.98815">
        <ele>474.3</ele>
        <time>2025-01-25T08:45:31.000Z</time>
      </trkpt>
      <trkpt lat="43.76174" lon="6.98824">
        <ele>474</ele>
        <time>2025-01-25T08:45:33.000Z</time>
      </trkpt>
      <trkpt lat="43.76169" lon="6.98829">
        <ele>473.7</ele>
        <time>2025-01-25T08:45:35.000Z</time>
      </trkpt>
      <trkpt lat="43.76165" lon="6.98834">
        <ele>473.4</ele>
        <time>2025-01-25T08:45:37.000Z</time>
      </trkpt>
      <trkpt lat="43.76161" lon="6.98841">
        <ele>473.2</ele>
        <time>2025-01-25T08:45:39.000Z</time>
      </trkpt>
      <trkpt lat="43.76156" lon="6.98848">
        <ele>472.9</ele>
        <time>2025-01-25T08:45:41.000Z</time>
      </trkpt>
      <trkpt lat="43.76152" lon="6.98857">
        <ele>472.7</ele>
        <time>2025-01-25T08:45:43.000Z</time>
      </trkpt>
      <trkpt lat="43.76147" lon="6.98864">
        <ele>472.3</ele>
        <time>2025-01-25T08:45:45.000Z</time>
      </trkpt>
      <trkpt lat="43.76141" lon="6.98874">
        <ele>472</ele>
        <time>2025-01-25T08:45:47.000Z</time>
      </trkpt>
      <trkpt lat="43.76138" lon="6.98881">
        <ele>471.8</ele>
        <time>2025-01-25T08:45:48.000Z</time>
      </trkpt>
      <trkpt lat="43.76137" lon="6.98891">
        <ele>471.5</ele>
        <time>2025-01-25T08:45:50.000Z</time>
      </trkpt>
      <trkpt lat="43.76141" lon="6.98898">
        <ele>471.3</ele>
        <time>2025-01-25T08:45:52.000Z</time>
      </trkpt>
      <trkpt lat="43.76143" lon="6.98903">
        <ele>471.2</ele>
        <time>2025-01-25T08:45:54.000Z</time>
      </trkpt>
      <trkpt lat="43.76143" lon="6.98911">
        <ele>471.2</ele>
        <time>2025-01-25T08:45:56.000Z</time>
      </trkpt>
      <trkpt lat="43.76145" lon="6.98918">
        <ele>471.1</ele>
        <time>2025-01-25T08:45:58.000Z</time>
      </trkpt>
      <trkpt lat="43.76146" lon="6.98926">
        <ele>471.2</ele>
        <time>2025-01-25T08:46:00.000Z</time>
      </trkpt>
      <trkpt lat="43.76145" lon="6.98932">
        <ele>471.2</ele>
        <time>2025-01-25T08:46:01.000Z</time>
      </trkpt>
      <trkpt lat="43.76145" lon="6.98941">
        <ele>471.2</ele>
        <time>2025-01-25T08:46:03.000Z</time>
      </trkpt>
      <trkpt lat="43.76145" lon="6.98948">
        <ele>471.3</ele>
        <time>2025-01-25T08:46:05.000Z</time>
      </trkpt>
      <trkpt lat="43.76144" lon="6.98955">
        <ele>471.4</ele>
        <time>2025-01-25T08:46:07.000Z</time>
      </trkpt>
      <trkpt lat="43.76142" lon="6.98962">
        <ele>471.6</ele>
        <time>2025-01-25T08:46:10.000Z</time>
      </trkpt>
      <trkpt lat="43.76138" lon="6.98968">
        <ele>471.8</ele>
        <time>2025-01-25T08:46:12.000Z</time>
      </trkpt>
      <trkpt lat="43.76136" lon="6.98974">
        <ele>471.9</ele>
        <time>2025-01-25T08:46:14.000Z</time>
      </trkpt>
      <trkpt lat="43.76134" lon="6.98979">
        <ele>472.2</ele>
        <time>2025-01-25T08:46:16.000Z</time>
      </trkpt>
      <trkpt lat="43.76132" lon="6.98988">
        <ele>472.5</ele>
        <time>2025-01-25T08:46:19.000Z</time>
      </trkpt>
      <trkpt lat="43.76132" lon="6.98996">
        <ele>472.8</ele>
        <time>2025-01-25T08:46:21.000Z</time>
      </trkpt>
      <trkpt lat="43.7613" lon="6.99005">
        <ele>473.1</ele>
        <time>2025-01-25T08:46:23.000Z</time>
      </trkpt>
      <trkpt lat="43.76128" lon="6.99013">
        <ele>473.4</ele>
        <time>2025-01-25T08:46:25.000Z</time>
      </trkpt>
      <trkpt lat="43.76127" lon="6.99019">
        <ele>473.7</ele>
        <time>2025-01-25T08:46:27.000Z</time>
      </trkpt>
      <trkpt lat="43.76123" lon="6.99027">
        <ele>474.2</ele>
        <time>2025-01-25T08:46:30.000Z</time>
      </trkpt>
      <trkpt lat="43.7612" lon="6.99036">
        <ele>474.6</ele>
        <time>2025-01-25T08:46:33.000Z</time>
      </trkpt>
      <trkpt lat="43.76117" lon="6.99042">
        <ele>474.8</ele>
        <time>2025-01-25T08:46:35.000Z</time>
      </trkpt>
      <trkpt lat="43.76115" lon="6.99048">
        <ele>475.1</ele>
        <time>2025-01-25T08:46:37.000Z</time>
      </trkpt>
      <trkpt lat="43.76113" lon="6.99055">
        <ele>475.3</ele>
        <time>2025-01-25T08:46:39.000Z</time>
      </trkpt>
      <trkpt lat="43.76111" lon="6.99062">
        <ele>475.6</ele>
        <time>2025-01-25T08:46:41.000Z</time>
      </trkpt>
      <trkpt lat="43.7611" lon="6.9907">
        <ele>475.9</ele>
        <time>2025-01-25T08:46:43.000Z</time>
      </trkpt>
      <trkpt lat="43.76107" lon="6.99078">
        <ele>476.2</ele>
        <time>2025-01-25T08:46:45.000Z</time>
      </trkpt>
      <trkpt lat="43.76104" lon="6.99086">
        <ele>476.5</ele>
        <time>2025-01-25T08:46:48.000Z</time>
      </trkpt>
      <trkpt lat="43.761" lon="6.99093">
        <ele>476.9</ele>
        <time>2025-01-25T08:46:51.000Z</time>
      </trkpt>
      <trkpt lat="43.76097" lon="6.99099">
        <ele>477.3</ele>
        <time>2025-01-25T08:46:54.000Z</time>
      </trkpt>
      <trkpt lat="43.76093" lon="6.99105">
        <ele>477.9</ele>
        <time>2025-01-25T08:46:58.000Z</time>
      </trkpt>
      <trkpt lat="43.76088" lon="6.99111">
        <ele>478.3</ele>
        <time>2025-01-25T08:47:01.000Z</time>
      </trkpt>
      <trkpt lat="43.76085" lon="6.99115">
        <ele>478.6</ele>
        <time>2025-01-25T08:47:03.000Z</time>
      </trkpt>
      <trkpt lat="43.76081" lon="6.99119">
        <ele>478.8</ele>
        <time>2025-01-25T08:47:05.000Z</time>
      </trkpt>
      <trkpt lat="43.76077" lon="6.99125">
        <ele>479</ele>
        <time>2025-01-25T08:47:07.000Z</time>
      </trkpt>
      <trkpt lat="43.76072" lon="6.99131">
        <ele>479.2</ele>
        <time>2025-01-25T08:47:09.000Z</time>
      </trkpt>
      <trkpt lat="43.76069" lon="6.99136">
        <ele>479.5</ele>
        <time>2025-01-25T08:47:11.000Z</time>
      </trkpt>
      <trkpt lat="43.76063" lon="6.99141">
        <ele>479.9</ele>
        <time>2025-01-25T08:47:14.000Z</time>
      </trkpt>
      <trkpt lat="43.76058" lon="6.99145">
        <ele>480.1</ele>
        <time>2025-01-25T08:47:16.000Z</time>
      </trkpt>
      <trkpt lat="43.76052" lon="6.99146">
        <ele>480.3</ele>
        <time>2025-01-25T08:47:19.000Z</time>
      </trkpt>
      <trkpt lat="43.76047" lon="6.99148">
        <ele>480.5</ele>
        <time>2025-01-25T08:47:21.000Z</time>
      </trkpt>
      <trkpt lat="43.76042" lon="6.99147">
        <ele>480.6</ele>
        <time>2025-01-25T08:47:23.000Z</time>
      </trkpt>
      <trkpt lat="43.76037" lon="6.9914">
        <ele>481.1</ele>
        <time>2025-01-25T08:47:26.000Z</time>
      </trkpt>
      <trkpt lat="43.76033" lon="6.99136">
        <ele>481.3</ele>
        <time>2025-01-25T08:47:28.000Z</time>
      </trkpt>
      <trkpt lat="43.76028" lon="6.99133">
        <ele>481.6</ele>
        <time>2025-01-25T08:47:30.000Z</time>
      </trkpt>
      <trkpt lat="43.75988" lon="6.99139">
        <ele>481.9</ele>
        <time>2025-01-25T08:47:47.000Z</time>
      </trkpt>
      <trkpt lat="43.75983" lon="6.99134">
        <ele>483</ele>
        <time>2025-01-25T08:47:50.000Z</time>
      </trkpt>
      <trkpt lat="43.75948" lon="6.99152">
        <ele>483.5</ele>
        <time>2025-01-25T08:48:05.000Z</time>
      </trkpt>
      <trkpt lat="43.75944" lon="6.99156">
        <ele>484.7</ele>
        <time>2025-01-25T08:48:07.000Z</time>
      </trkpt>
      <trkpt lat="43.75939" lon="6.9916">
        <ele>485.6</ele>
        <time>2025-01-25T08:48:09.000Z</time>
      </trkpt>
      <trkpt lat="43.75935" lon="6.99163">
        <ele>486.4</ele>
        <time>2025-01-25T08:48:11.000Z</time>
      </trkpt>
      <trkpt lat="43.7593" lon="6.99164">
        <ele>486.8</ele>
        <time>2025-01-25T08:48:13.000Z</time>
      </trkpt>
      <trkpt lat="43.75921" lon="6.99161">
        <ele>487.3</ele>
        <time>2025-01-25T08:48:17.000Z</time>
      </trkpt>
      <trkpt lat="43.75917" lon="6.9916">
        <ele>487.6</ele>
        <time>2025-01-25T08:48:19.000Z</time>
      </trkpt>
      <trkpt lat="43.75911" lon="6.99159">
        <ele>488</ele>
        <time>2025-01-25T08:48:22.000Z</time>
      </trkpt>
      <trkpt lat="43.75909" lon="6.99165">
        <ele>488.3</ele>
        <time>2025-01-25T08:48:25.000Z</time>
      </trkpt>
      <trkpt lat="43.75903" lon="6.9917">
        <ele>488.7</ele>
        <time>2025-01-25T08:48:29.000Z</time>
      </trkpt>
      <trkpt lat="43.75898" lon="6.99169">
        <ele>489</ele>
        <time>2025-01-25T08:48:32.000Z</time>
      </trkpt>
      <trkpt lat="43.75827" lon="6.99162">
        <ele>489.6</ele>
        <time>2025-01-25T08:48:55.000Z</time>
      </trkpt>
      <trkpt lat="43.75819" lon="6.99164">
        <ele>490.6</ele>
        <time>2025-01-25T08:48:57.000Z</time>
      </trkpt>
      <trkpt lat="43.75814" lon="6.99163">
        <ele>491.5</ele>
        <time>2025-01-25T08:48:59.000Z</time>
      </trkpt>
      <trkpt lat="43.75809" lon="6.99164">
        <ele>492.3</ele>
        <time>2025-01-25T08:49:01.000Z</time>
      </trkpt>
      <trkpt lat="43.75802" lon="6.99163">
        <ele>493.1</ele>
        <time>2025-01-25T08:49:04.000Z</time>
      </trkpt>
      <trkpt lat="43.75797" lon="6.99161">
        <ele>493.5</ele>
        <time>2025-01-25T08:49:06.000Z</time>
      </trkpt>
      <trkpt lat="43.75792" lon="6.9916">
        <ele>493.9</ele>
        <time>2025-01-25T08:49:08.000Z</time>
      </trkpt>
      <trkpt lat="43.75786" lon="6.99156">
        <ele>494.3</ele>
        <time>2025-01-25T08:49:11.000Z</time>
      </trkpt>
      <trkpt lat="43.75781" lon="6.99153">
        <ele>494.5</ele>
        <time>2025-01-25T08:49:13.000Z</time>
      </trkpt>
      <trkpt lat="43.75775" lon="6.99151">
        <ele>494.8</ele>
        <time>2025-01-25T08:49:16.000Z</time>
      </trkpt>
      <trkpt lat="43.7577" lon="6.99148">
        <ele>495.1</ele>
        <time>2025-01-25T08:49:18.000Z</time>
      </trkpt>
      <trkpt lat="43.75764" lon="6.99144">
        <ele>495.6</ele>
        <time>2025-01-25T08:49:21.000Z</time>
      </trkpt>
      <trkpt lat="43.75759" lon="6.99143">
        <ele>495.9</ele>
        <time>2025-01-25T08:49:23.000Z</time>
      </trkpt>
      <trkpt lat="43.75753" lon="6.99143">
        <ele>496.2</ele>
        <time>2025-01-25T08:49:25.000Z</time>
      </trkpt>
      <trkpt lat="43.75746" lon="6.99141">
        <ele>496.4</ele>
        <time>2025-01-25T08:49:27.000Z</time>
      </trkpt>
      <trkpt lat="43.75734" lon="6.99141">
        <ele>496.7</ele>
        <time>2025-01-25T08:49:32.000Z</time>
      </trkpt>
      <trkpt lat="43.75729" lon="6.99146">
        <ele>497.1</ele>
        <time>2025-01-25T08:49:34.000Z</time>
      </trkpt>
      <trkpt lat="43.75725" lon="6.99153">
        <ele>497.4</ele>
        <time>2025-01-25T08:49:36.000Z</time>
      </trkpt>
      <trkpt lat="43.7572" lon="6.99156">
        <ele>497.7</ele>
        <time>2025-01-25T08:49:38.000Z</time>
      </trkpt>
      <trkpt lat="43.75716" lon="6.99158">
        <ele>498</ele>
        <time>2025-01-25T08:49:40.000Z</time>
      </trkpt>
      <trkpt lat="43.75712" lon="6.99165">
        <ele>498.3</ele>
        <time>2025-01-25T08:49:43.000Z</time>
      </trkpt>
      <trkpt lat="43.75701" lon="6.99174">
        <ele>498.6</ele>
        <time>2025-01-25T08:49:48.000Z</time>
      </trkpt>
      <trkpt lat="43.75697" lon="6.99179">
        <ele>499</ele>
        <time>2025-01-25T08:49:51.000Z</time>
      </trkpt>
      <trkpt lat="43.75692" lon="6.9918">
        <ele>499.3</ele>
        <time>2025-01-25T08:49:53.000Z</time>
      </trkpt>
      <trkpt lat="43.75684" lon="6.99179">
        <ele>499.6</ele>
        <time>2025-01-25T08:49:55.000Z</time>
      </trkpt>
      <trkpt lat="43.75679" lon="6.99181">
        <ele>499.9</ele>
        <time>2025-01-25T08:49:57.000Z</time>
      </trkpt>
      <trkpt lat="43.75674" lon="6.99181">
        <ele>500.1</ele>
        <time>2025-01-25T08:49:59.000Z</time>
      </trkpt>
      <trkpt lat="43.7567" lon="6.99186">
        <ele>500.5</ele>
        <time>2025-01-25T08:50:02.000Z</time>
      </trkpt>
      <trkpt lat="43.75663" lon="6.99185">
        <ele>501</ele>
        <time>2025-01-25T08:50:06.000Z</time>
      </trkpt>
      <trkpt lat="43.75658" lon="6.99185">
        <ele>501.2</ele>
        <time>2025-01-25T08:50:08.000Z</time>
      </trkpt>
      <trkpt lat="43.75653" lon="6.99186">
        <ele>501.4</ele>
        <time>2025-01-25T08:50:10.000Z</time>
      </trkpt>
      <trkpt lat="43.75646" lon="6.99189">
        <ele>501.7</ele>
        <time>2025-01-25T08:50:13.000Z</time>
      </trkpt>
      <trkpt lat="43.75642" lon="6.99192">
        <ele>501.9</ele>
        <time>2025-01-25T08:50:15.000Z</time>
      </trkpt>
      <trkpt lat="43.75636" lon="6.99194">
        <ele>502.1</ele>
        <time>2025-01-25T08:50:17.000Z</time>
      </trkpt>
      <trkpt lat="43.75631" lon="6.99197">
        <ele>502.3</ele>
        <time>2025-01-25T08:50:19.000Z</time>
      </trkpt>
      <trkpt lat="43.75626" lon="6.99201">
        <ele>502.6</ele>
        <time>2025-01-25T08:50:21.000Z</time>
      </trkpt>
      <trkpt lat="43.75622" lon="6.99204">
        <ele>502.8</ele>
        <time>2025-01-25T08:50:23.000Z</time>
      </trkpt>
      <trkpt lat="43.75617" lon="6.99207">
        <ele>503</ele>
        <time>2025-01-25T08:50:25.000Z</time>
      </trkpt>
      <trkpt lat="43.75613" lon="6.99214">
        <ele>503.4</ele>
        <time>2025-01-25T08:50:28.000Z</time>
      </trkpt>
      <trkpt lat="43.75608" lon="6.99219">
        <ele>503.7</ele>
        <time>2025-01-25T08:50:31.000Z</time>
      </trkpt>
      <trkpt lat="43.75605" lon="6.99225">
        <ele>504</ele>
        <time>2025-01-25T08:50:33.000Z</time>
      </trkpt>
      <trkpt lat="43.75601" lon="6.99231">
        <ele>504.3</ele>
        <time>2025-01-25T08:50:35.000Z</time>
      </trkpt>
      <trkpt lat="43.75597" lon="6.99236">
        <ele>504.6</ele>
        <time>2025-01-25T08:50:38.000Z</time>
      </trkpt>
      <trkpt lat="43.75594" lon="6.99241">
        <ele>504.9</ele>
        <time>2025-01-25T08:50:40.000Z</time>
      </trkpt>
      <trkpt lat="43.75589" lon="6.99247">
        <ele>505.2</ele>
        <time>2025-01-25T08:50:43.000Z</time>
      </trkpt>
      <trkpt lat="43.75586" lon="6.99252">
        <ele>505.5</ele>
        <time>2025-01-25T08:50:45.000Z</time>
      </trkpt>
      <trkpt lat="43.75582" lon="6.99256">
        <ele>505.7</ele>
        <time>2025-01-25T08:50:47.000Z</time>
      </trkpt>
      <trkpt lat="43.75577" lon="6.99259">
        <ele>505.9</ele>
        <time>2025-01-25T08:50:49.000Z</time>
      </trkpt>
      <trkpt lat="43.75572" lon="6.99267">
        <ele>506.2</ele>
        <time>2025-01-25T08:50:51.000Z</time>
      </trkpt>
      <trkpt lat="43.75568" lon="6.99271">
        <ele>506.3</ele>
        <time>2025-01-25T08:50:53.000Z</time>
      </trkpt>
      <trkpt lat="43.75564" lon="6.99276">
        <ele>506.6</ele>
        <time>2025-01-25T08:50:55.000Z</time>
      </trkpt>
      <trkpt lat="43.7556" lon="6.9928">
        <ele>506.8</ele>
        <time>2025-01-25T08:50:57.000Z</time>
      </trkpt>
      <trkpt lat="43.75557" lon="6.99283">
        <ele>507.1</ele>
        <time>2025-01-25T08:50:59.000Z</time>
      </trkpt>
      <trkpt lat="43.75553" lon="6.99287">
        <ele>507.3</ele>
        <time>2025-01-25T08:51:01.000Z</time>
      </trkpt>
      <trkpt lat="43.75548" lon="6.9929">
        <ele>507.5</ele>
        <time>2025-01-25T08:51:03.000Z</time>
      </trkpt>
      <trkpt lat="43.75544" lon="6.99294">
        <ele>507.7</ele>
        <time>2025-01-25T08:51:05.000Z</time>
      </trkpt>
      <trkpt lat="43.75528" lon="6.99305">
        <ele>507.9</ele>
        <time>2025-01-25T08:51:12.000Z</time>
      </trkpt>
      <trkpt lat="43.75522" lon="6.99308">
        <ele>508.4</ele>
        <time>2025-01-25T08:51:15.000Z</time>
      </trkpt>
      <trkpt lat="43.75518" lon="6.99312">
        <ele>508.9</ele>
        <time>2025-01-25T08:51:18.000Z</time>
      </trkpt>
      <trkpt lat="43.75514" lon="6.99319">
        <ele>509.3</ele>
        <time>2025-01-25T08:51:21.000Z</time>
      </trkpt>
      <trkpt lat="43.75511" lon="6.99325">
        <ele>509.5</ele>
        <time>2025-01-25T08:51:23.000Z</time>
      </trkpt>
      <trkpt lat="43.75505" lon="6.99328">
        <ele>509.9</ele>
        <time>2025-01-25T08:51:26.000Z</time>
      </trkpt>
      <trkpt lat="43.755" lon="6.99333">
        <ele>510.3</ele>
        <time>2025-01-25T08:51:29.000Z</time>
      </trkpt>
      <trkpt lat="43.75498" lon="6.99343">
        <ele>510.6</ele>
        <time>2025-01-25T08:51:32.000Z</time>
      </trkpt>
      <trkpt lat="43.75496" lon="6.99352">
        <ele>510.9</ele>
        <time>2025-01-25T08:51:35.000Z</time>
      </trkpt>
      <trkpt lat="43.75494" lon="6.99359">
        <ele>511.4</ele>
        <time>2025-01-25T08:51:39.000Z</time>
      </trkpt>
      <trkpt lat="43.75495" lon="6.99366">
        <ele>511.6</ele>
        <time>2025-01-25T08:51:41.000Z</time>
      </trkpt>
      <trkpt lat="43.75492" lon="6.99374">
        <ele>511.9</ele>
        <time>2025-01-25T08:51:44.000Z</time>
      </trkpt>
      <trkpt lat="43.7549" lon="6.99381">
        <ele>512.2</ele>
        <time>2025-01-25T08:51:47.000Z</time>
      </trkpt>
      <trkpt lat="43.75486" lon="6.99387">
        <ele>512.6</ele>
        <time>2025-01-25T08:51:50.000Z</time>
      </trkpt>
      <trkpt lat="43.75482" lon="6.99392">
        <ele>513</ele>
        <time>2025-01-25T08:51:53.000Z</time>
      </trkpt>
      <trkpt lat="43.75478" lon="6.99398">
        <ele>513.3</ele>
        <time>2025-01-25T08:51:56.000Z</time>
      </trkpt>
      <trkpt lat="43.75474" lon="6.99406">
        <ele>513.6</ele>
        <time>2025-01-25T08:51:59.000Z</time>
      </trkpt>
      <trkpt lat="43.75471" lon="6.99414">
        <ele>513.9</ele>
        <time>2025-01-25T08:52:02.000Z</time>
      </trkpt>
      <trkpt lat="43.75472" lon="6.99425">
        <ele>514.2</ele>
        <time>2025-01-25T08:52:05.000Z</time>
      </trkpt>
      <trkpt lat="43.75474" lon="6.99432">
        <ele>514.3</ele>
        <time>2025-01-25T08:52:07.000Z</time>
      </trkpt>
      <trkpt lat="43.75477" lon="6.99441">
        <ele>514.5</ele>
        <time>2025-01-25T08:52:09.000Z</time>
      </trkpt>
      <trkpt lat="43.75479" lon="6.99449">
        <ele>514.7</ele>
        <time>2025-01-25T08:52:11.000Z</time>
      </trkpt>
      <trkpt lat="43.75481" lon="6.99456">
        <ele>514.8</ele>
        <time>2025-01-25T08:52:13.000Z</time>
      </trkpt>
      <trkpt lat="43.75484" lon="6.99462">
        <ele>515</ele>
        <time>2025-01-25T08:52:15.000Z</time>
      </trkpt>
      <trkpt lat="43.75486" lon="6.99469">
        <ele>515.1</ele>
        <time>2025-01-25T08:52:17.000Z</time>
      </trkpt>
      <trkpt lat="43.75487" lon="6.99476">
        <ele>515.2</ele>
        <time>2025-01-25T08:52:19.000Z</time>
      </trkpt>
      <trkpt lat="43.75485" lon="6.99483">
        <ele>515.3</ele>
        <time>2025-01-25T08:52:21.000Z</time>
      </trkpt>
      <trkpt lat="43.75482" lon="6.99491">
        <ele>515.5</ele>
        <time>2025-01-25T08:52:24.000Z</time>
      </trkpt>
      <trkpt lat="43.75478" lon="6.99496">
        <ele>515.6</ele>
        <time>2025-01-25T08:52:27.000Z</time>
      </trkpt>
      <trkpt lat="43.75473" lon="6.99502">
        <ele>515.9</ele>
        <time>2025-01-25T08:52:30.000Z</time>
      </trkpt>
      <trkpt lat="43.75467" lon="6.99505">
        <ele>516.3</ele>
        <time>2025-01-25T08:52:33.000Z</time>
      </trkpt>
      <trkpt lat="43.75461" lon="6.99506">
        <ele>516.6</ele>
        <time>2025-01-25T08:52:36.000Z</time>
      </trkpt>
      <trkpt lat="43.75455" lon="6.99506">
        <ele>517</ele>
        <time>2025-01-25T08:52:39.000Z</time>
      </trkpt>
      <trkpt lat="43.7545" lon="6.99505">
        <ele>517.6</ele>
        <time>2025-01-25T08:52:42.000Z</time>
      </trkpt>
      <trkpt lat="43.75443" lon="6.99506">
        <ele>518.1</ele>
        <time>2025-01-25T08:52:45.000Z</time>
      </trkpt>
      <trkpt lat="43.75438" lon="6.99509">
        <ele>518.7</ele>
        <time>2025-01-25T08:52:48.000Z</time>
      </trkpt>
      <trkpt lat="43.75433" lon="6.99512">
        <ele>519.1</ele>
        <time>2025-01-25T08:52:50.000Z</time>
      </trkpt>
      <trkpt lat="43.75428" lon="6.99514">
        <ele>519.4</ele>
        <time>2025-01-25T08:52:52.000Z</time>
      </trkpt>
      <trkpt lat="43.75424" lon="6.99516">
        <ele>519.7</ele>
        <time>2025-01-25T08:52:54.000Z</time>
      </trkpt>
      <trkpt lat="43.7542" lon="6.99519">
        <ele>520</ele>
        <time>2025-01-25T08:52:56.000Z</time>
      </trkpt>
      <trkpt lat="43.75415" lon="6.99521">
        <ele>520.4</ele>
        <time>2025-01-25T08:52:58.000Z</time>
      </trkpt>
      <trkpt lat="43.75408" lon="6.99524">
        <ele>520.7</ele>
        <time>2025-01-25T08:53:01.000Z</time>
      </trkpt>
      <trkpt lat="43.75403" lon="6.99526">
        <ele>521</ele>
        <time>2025-01-25T08:53:03.000Z</time>
      </trkpt>
      <trkpt lat="43.75398" lon="6.99527">
        <ele>521.2</ele>
        <time>2025-01-25T08:53:05.000Z</time>
      </trkpt>
      <trkpt lat="43.75394" lon="6.9953">
        <ele>521.4</ele>
        <time>2025-01-25T08:53:07.000Z</time>
      </trkpt>
      <trkpt lat="43.75389" lon="6.99532">
        <ele>521.6</ele>
        <time>2025-01-25T08:53:09.000Z</time>
      </trkpt>
      <trkpt lat="43.75384" lon="6.99534">
        <ele>521.8</ele>
        <time>2025-01-25T08:53:11.000Z</time>
      </trkpt>
      <trkpt lat="43.75379" lon="6.99536">
        <ele>522</ele>
        <time>2025-01-25T08:53:13.000Z</time>
      </trkpt>
      <trkpt lat="43.75374" lon="6.99536">
        <ele>522.2</ele>
        <time>2025-01-25T08:53:15.000Z</time>
      </trkpt>
      <trkpt lat="43.7537" lon="6.99538">
        <ele>522.5</ele>
        <time>2025-01-25T08:53:17.000Z</time>
      </trkpt>
      <trkpt lat="43.75366" lon="6.99542">
        <ele>522.7</ele>
        <time>2025-01-25T08:53:19.000Z</time>
      </trkpt>
      <trkpt lat="43.75362" lon="6.99549">
        <ele>523</ele>
        <time>2025-01-25T08:53:22.000Z</time>
      </trkpt>
      <trkpt lat="43.75358" lon="6.99555">
        <ele>523.3</ele>
        <time>2025-01-25T08:53:24.000Z</time>
      </trkpt>
      <trkpt lat="43.75355" lon="6.9956">
        <ele>523.5</ele>
        <time>2025-01-25T08:53:26.000Z</time>
      </trkpt>
      <trkpt lat="43.75352" lon="6.99564">
        <ele>523.7</ele>
        <time>2025-01-25T08:53:28.000Z</time>
      </trkpt>
      <trkpt lat="43.75348" lon="6.99572">
        <ele>524.1</ele>
        <time>2025-01-25T08:53:31.000Z</time>
      </trkpt>
      <trkpt lat="43.75344" lon="6.99578">
        <ele>524.4</ele>
        <time>2025-01-25T08:53:34.000Z</time>
      </trkpt>
      <trkpt lat="43.75339" lon="6.99582">
        <ele>524.8</ele>
        <time>2025-01-25T08:53:37.000Z</time>
      </trkpt>
      <trkpt lat="43.75334" lon="6.99583">
        <ele>525.3</ele>
        <time>2025-01-25T08:53:40.000Z</time>
      </trkpt>
      <trkpt lat="43.7533" lon="6.99589">
        <ele>525.5</ele>
        <time>2025-01-25T08:53:42.000Z</time>
      </trkpt>
      <trkpt lat="43.75326" lon="6.99594">
        <ele>525.7</ele>
        <time>2025-01-25T08:53:44.000Z</time>
      </trkpt>
      <trkpt lat="43.75322" lon="6.99598">
        <ele>525.9</ele>
        <time>2025-01-25T08:53:46.000Z</time>
      </trkpt>
      <trkpt lat="43.75316" lon="6.996">
        <ele>526.1</ele>
        <time>2025-01-25T08:53:48.000Z</time>
      </trkpt>
      <trkpt lat="43.75311" lon="6.99602">
        <ele>526.3</ele>
        <time>2025-01-25T08:53:50.000Z</time>
      </trkpt>
      <trkpt lat="43.75306" lon="6.99606">
        <ele>526.5</ele>
        <time>2025-01-25T08:53:52.000Z</time>
      </trkpt>
      <trkpt lat="43.75302" lon="6.99611">
        <ele>526.8</ele>
        <time>2025-01-25T08:53:54.000Z</time>
      </trkpt>
      <trkpt lat="43.75298" lon="6.99615">
        <ele>527</ele>
        <time>2025-01-25T08:53:56.000Z</time>
      </trkpt>
      <trkpt lat="43.75295" lon="6.99622">
        <ele>527.2</ele>
        <time>2025-01-25T08:53:58.000Z</time>
      </trkpt>
      <trkpt lat="43.75294" lon="6.99627">
        <ele>527.4</ele>
        <time>2025-01-25T08:54:00.000Z</time>
      </trkpt>
      <trkpt lat="43.75295" lon="6.99634">
        <ele>527.4</ele>
        <time>2025-01-25T08:54:01.000Z</time>
      </trkpt>
      <trkpt lat="43.75291" lon="6.99639">
        <ele>527.6</ele>
        <time>2025-01-25T08:54:03.000Z</time>
      </trkpt>
      <trkpt lat="43.75289" lon="6.99648">
        <ele>527.9</ele>
        <time>2025-01-25T08:54:06.000Z</time>
      </trkpt>
      <trkpt lat="43.75287" lon="6.99656">
        <ele>528.3</ele>
        <time>2025-01-25T08:54:09.000Z</time>
      </trkpt>
      <trkpt lat="43.75284" lon="6.99664">
        <ele>528.6</ele>
        <time>2025-01-25T08:54:12.000Z</time>
      </trkpt>
      <trkpt lat="43.75282" lon="6.99671">
        <ele>528.9</ele>
        <time>2025-01-25T08:54:15.000Z</time>
      </trkpt>
      <trkpt lat="43.7528" lon="6.99679">
        <ele>529.3</ele>
        <time>2025-01-25T08:54:18.000Z</time>
      </trkpt>
      <trkpt lat="43.75279" lon="6.99688">
        <ele>529.5</ele>
        <time>2025-01-25T08:54:21.000Z</time>
      </trkpt>
      <trkpt lat="43.75278" lon="6.99696">
        <ele>529.7</ele>
        <time>2025-01-25T08:54:23.000Z</time>
      </trkpt>
      <trkpt lat="43.75276" lon="6.99703">
        <ele>530</ele>
        <time>2025-01-25T08:54:25.000Z</time>
      </trkpt>
      <trkpt lat="43.75274" lon="6.99711">
        <ele>530.3</ele>
        <time>2025-01-25T08:54:28.000Z</time>
      </trkpt>
      <trkpt lat="43.7527" lon="6.99718">
        <ele>530.7</ele>
        <time>2025-01-25T08:54:31.000Z</time>
      </trkpt>
      <trkpt lat="43.75266" lon="6.99725">
        <ele>531.1</ele>
        <time>2025-01-25T08:54:34.000Z</time>
      </trkpt>
      <trkpt lat="43.75263" lon="6.99732">
        <ele>531.5</ele>
        <time>2025-01-25T08:54:37.000Z</time>
      </trkpt>
      <trkpt lat="43.75259" lon="6.99737">
        <ele>531.8</ele>
        <time>2025-01-25T08:54:40.000Z</time>
      </trkpt>
      <trkpt lat="43.75255" lon="6.99742">
        <ele>532</ele>
        <time>2025-01-25T08:54:42.000Z</time>
      </trkpt>
      <trkpt lat="43.75251" lon="6.99747">
        <ele>532.4</ele>
        <time>2025-01-25T08:54:45.000Z</time>
      </trkpt>
      <trkpt lat="43.75247" lon="6.99754">
        <ele>532.7</ele>
        <time>2025-01-25T08:54:48.000Z</time>
      </trkpt>
      <trkpt lat="43.75244" lon="6.9976">
        <ele>532.9</ele>
        <time>2025-01-25T08:54:50.000Z</time>
      </trkpt>
      <trkpt lat="43.75243" lon="6.99767">
        <ele>533.1</ele>
        <time>2025-01-25T08:54:52.000Z</time>
      </trkpt>
      <trkpt lat="43.75242" lon="6.99774">
        <ele>533.4</ele>
        <time>2025-01-25T08:54:55.000Z</time>
      </trkpt>
      <trkpt lat="43.7524" lon="6.99781">
        <ele>533.6</ele>
        <time>2025-01-25T08:54:57.000Z</time>
      </trkpt>
      <trkpt lat="43.75239" lon="6.99789">
        <ele>533.9</ele>
        <time>2025-01-25T08:54:59.000Z</time>
      </trkpt>
      <trkpt lat="43.75235" lon="6.99794">
        <ele>534.1</ele>
        <time>2025-01-25T08:55:01.000Z</time>
      </trkpt>
      <trkpt lat="43.75232" lon="6.99802">
        <ele>534.4</ele>
        <time>2025-01-25T08:55:04.000Z</time>
      </trkpt>
      <trkpt lat="43.75228" lon="6.99808">
        <ele>534.8</ele>
        <time>2025-01-25T08:55:07.000Z</time>
      </trkpt>
      <trkpt lat="43.75226" lon="6.99815">
        <ele>535.2</ele>
        <time>2025-01-25T08:55:10.000Z</time>
      </trkpt>
      <trkpt lat="43.75225" lon="6.99825">
        <ele>535.5</ele>
        <time>2025-01-25T08:55:13.000Z</time>
      </trkpt>
      <trkpt lat="43.75224" lon="6.99832">
        <ele>535.7</ele>
        <time>2025-01-25T08:55:15.000Z</time>
      </trkpt>
      <trkpt lat="43.75222" lon="6.99838">
        <ele>535.9</ele>
        <time>2025-01-25T08:55:17.000Z</time>
      </trkpt>
      <trkpt lat="43.75222" lon="6.99847">
        <ele>536.2</ele>
        <time>2025-01-25T08:55:20.000Z</time>
      </trkpt>
      <trkpt lat="43.75221" lon="6.99854">
        <ele>536.3</ele>
        <time>2025-01-25T08:55:22.000Z</time>
      </trkpt>
      <trkpt lat="43.75221" lon="6.99861">
        <ele>536.6</ele>
        <time>2025-01-25T08:55:24.000Z</time>
      </trkpt>
      <trkpt lat="43.75221" lon="6.99869">
        <ele>536.9</ele>
        <time>2025-01-25T08:55:27.000Z</time>
      </trkpt>
      <trkpt lat="43.75219" lon="6.99877">
        <ele>537.2</ele>
        <time>2025-01-25T08:55:30.000Z</time>
      </trkpt>
      <trkpt lat="43.7522" lon="6.99884">
        <ele>537.5</ele>
        <time>2025-01-25T08:55:32.000Z</time>
      </trkpt>
      <trkpt lat="43.75219" lon="6.99891">
        <ele>537.7</ele>
        <time>2025-01-25T08:55:34.000Z</time>
      </trkpt>
      <trkpt lat="43.75221" lon="6.999">
        <ele>538</ele>
        <time>2025-01-25T08:55:36.000Z</time>
      </trkpt>
      <trkpt lat="43.75223" lon="6.99906">
        <ele>538.2</ele>
        <time>2025-01-25T08:55:38.000Z</time>
      </trkpt>
      <trkpt lat="43.75226" lon="6.99911">
        <ele>538.4</ele>
        <time>2025-01-25T08:55:40.000Z</time>
      </trkpt>
      <trkpt lat="43.75231" lon="6.99917">
        <ele>538.8</ele>
        <time>2025-01-25T08:55:43.000Z</time>
      </trkpt>
      <trkpt lat="43.75233" lon="6.99923">
        <ele>539.1</ele>
        <time>2025-01-25T08:55:46.000Z</time>
      </trkpt>
      <trkpt lat="43.75238" lon="6.99926">
        <ele>539.3</ele>
        <time>2025-01-25T08:55:49.000Z</time>
      </trkpt>
      <trkpt lat="43.75244" lon="6.99931">
        <ele>539.5</ele>
        <time>2025-01-25T08:55:52.000Z</time>
      </trkpt>
      <trkpt lat="43.75247" lon="6.99936">
        <ele>539.7</ele>
        <time>2025-01-25T08:55:54.000Z</time>
      </trkpt>
      <trkpt lat="43.75252" lon="6.99942">
        <ele>539.9</ele>
        <time>2025-01-25T08:55:56.000Z</time>
      </trkpt>
      <trkpt lat="43.75255" lon="6.99946">
        <ele>540.1</ele>
        <time>2025-01-25T08:55:58.000Z</time>
      </trkpt>
      <trkpt lat="43.75259" lon="6.99949">
        <ele>540.5</ele>
        <time>2025-01-25T08:56:01.000Z</time>
      </trkpt>
      <trkpt lat="43.75264" lon="6.99952">
        <ele>540.9</ele>
        <time>2025-01-25T08:56:05.000Z</time>
      </trkpt>
      <trkpt lat="43.75269" lon="6.99956">
        <ele>541.1</ele>
        <time>2025-01-25T08:56:07.000Z</time>
      </trkpt>
      <trkpt lat="43.75273" lon="6.99957">
        <ele>541.3</ele>
        <time>2025-01-25T08:56:09.000Z</time>
      </trkpt>
      <trkpt lat="43.75279" lon="6.99961">
        <ele>541.7</ele>
        <time>2025-01-25T08:56:12.000Z</time>
      </trkpt>
      <trkpt lat="43.75284" lon="6.99963">
        <ele>541.9</ele>
        <time>2025-01-25T08:56:14.000Z</time>
      </trkpt>
      <trkpt lat="43.7529" lon="6.99967">
        <ele>542.1</ele>
        <time>2025-01-25T08:56:16.000Z</time>
      </trkpt>
      <trkpt lat="43.75296" lon="6.99971">
        <ele>542.5</ele>
        <time>2025-01-25T08:56:19.000Z</time>
      </trkpt>
      <trkpt lat="43.75301" lon="6.99977">
        <ele>542.8</ele>
        <time>2025-01-25T08:56:22.000Z</time>
      </trkpt>
      <trkpt lat="43.75306" lon="6.99982">
        <ele>543.2</ele>
        <time>2025-01-25T08:56:25.000Z</time>
      </trkpt>
      <trkpt lat="43.7531" lon="6.99987">
        <ele>543.6</ele>
        <time>2025-01-25T08:56:28.000Z</time>
      </trkpt>
      <trkpt lat="43.75317" lon="6.9999">
        <ele>544</ele>
        <time>2025-01-25T08:56:31.000Z</time>
      </trkpt>
      <trkpt lat="43.75321" lon="6.99991">
        <ele>544.4</ele>
        <time>2025-01-25T08:56:34.000Z</time>
      </trkpt>
      <trkpt lat="43.75327" lon="6.99995">
        <ele>544.9</ele>
        <time>2025-01-25T08:56:38.000Z</time>
      </trkpt>
      <trkpt lat="43.75332" lon="6.99995">
        <ele>545.2</ele>
        <time>2025-01-25T08:56:40.000Z</time>
      </trkpt>
      <trkpt lat="43.75337" lon="6.99995">
        <ele>545.4</ele>
        <time>2025-01-25T08:56:42.000Z</time>
      </trkpt>
      <trkpt lat="43.75342" lon="6.99995">
        <ele>545.6</ele>
        <time>2025-01-25T08:56:44.000Z</time>
      </trkpt>
      <trkpt lat="43.75348" lon="6.99993">
        <ele>545.9</ele>
        <time>2025-01-25T08:56:47.000Z</time>
      </trkpt>
      <trkpt lat="43.75353" lon="6.99993">
        <ele>546.1</ele>
        <time>2025-01-25T08:56:49.000Z</time>
      </trkpt>
      <trkpt lat="43.75358" lon="6.99994">
        <ele>546.3</ele>
        <time>2025-01-25T08:56:51.000Z</time>
      </trkpt>
      <trkpt lat="43.75364" lon="6.99996">
        <ele>546.6</ele>
        <time>2025-01-25T08:56:54.000Z</time>
      </trkpt>
      <trkpt lat="43.7537" lon="6.99998">
        <ele>546.9</ele>
        <time>2025-01-25T08:56:56.000Z</time>
      </trkpt>
      <trkpt lat="43.75376" lon="7.00001">
        <ele>547.1</ele>
        <time>2025-01-25T08:56:58.000Z</time>
      </trkpt>
      <trkpt lat="43.7538" lon="7.00004">
        <ele>547.3</ele>
        <time>2025-01-25T08:57:00.000Z</time>
      </trkpt>
      <trkpt lat="43.75384" lon="7.00008">
        <ele>547.5</ele>
        <time>2025-01-25T08:57:02.000Z</time>
      </trkpt>
      <trkpt lat="43.75388" lon="7.00012">
        <ele>547.8</ele>
        <time>2025-01-25T08:57:04.000Z</time>
      </trkpt>
      <trkpt lat="43.75391" lon="7.00017">
        <ele>548.1</ele>
        <time>2025-01-25T08:57:06.000Z</time>
      </trkpt>
      <trkpt lat="43.75395" lon="7.00025">
        <ele>548.4</ele>
        <time>2025-01-25T08:57:09.000Z</time>
      </trkpt>
      <trkpt lat="43.75396" lon="7.00031">
        <ele>548.7</ele>
        <time>2025-01-25T08:57:11.000Z</time>
      </trkpt>
      <trkpt lat="43.75397" lon="7.0004">
        <ele>549</ele>
        <time>2025-01-25T08:57:14.000Z</time>
      </trkpt>
      <trkpt lat="43.75396" lon="7.00048">
        <ele>549.4</ele>
        <time>2025-01-25T08:57:17.000Z</time>
      </trkpt>
      <trkpt lat="43.75396" lon="7.00055">
        <ele>549.7</ele>
        <time>2025-01-25T08:57:20.000Z</time>
      </trkpt>
      <trkpt lat="43.75395" lon="7.00062">
        <ele>549.9</ele>
        <time>2025-01-25T08:57:23.000Z</time>
      </trkpt>
      <trkpt lat="43.75394" lon="7.00069">
        <ele>550.3</ele>
        <time>2025-01-25T08:57:26.000Z</time>
      </trkpt>
      <trkpt lat="43.75394" lon="7.00076">
        <ele>550.7</ele>
        <time>2025-01-25T08:57:29.000Z</time>
      </trkpt>
      <trkpt lat="43.75394" lon="7.00085">
        <ele>551.1</ele>
        <time>2025-01-25T08:57:32.000Z</time>
      </trkpt>
      <trkpt lat="43.75394" lon="7.00092">
        <ele>551.3</ele>
        <time>2025-01-25T08:57:34.000Z</time>
      </trkpt>
      <trkpt lat="43.75395" lon="7.001">
        <ele>551.6</ele>
        <time>2025-01-25T08:57:36.000Z</time>
      </trkpt>
      <trkpt lat="43.75394" lon="7.00107">
        <ele>551.8</ele>
        <time>2025-01-25T08:57:38.000Z</time>
      </trkpt>
      <trkpt lat="43.75393" lon="7.00113">
        <ele>552</ele>
        <time>2025-01-25T08:57:40.000Z</time>
      </trkpt>
      <trkpt lat="43.75393" lon="7.00122">
        <ele>552.3</ele>
        <time>2025-01-25T08:57:43.000Z</time>
      </trkpt>
      <trkpt lat="43.75394" lon="7.00129">
        <ele>552.5</ele>
        <time>2025-01-25T08:57:45.000Z</time>
      </trkpt>
      <trkpt lat="43.75395" lon="7.00136">
        <ele>552.7</ele>
        <time>2025-01-25T08:57:47.000Z</time>
      </trkpt>
      <trkpt lat="43.75395" lon="7.00142">
        <ele>552.9</ele>
        <time>2025-01-25T08:57:49.000Z</time>
      </trkpt>
      <trkpt lat="43.75397" lon="7.0015">
        <ele>553.3</ele>
        <time>2025-01-25T08:57:52.000Z</time>
      </trkpt>
      <trkpt lat="43.75399" lon="7.00158">
        <ele>553.6</ele>
        <time>2025-01-25T08:57:55.000Z</time>
      </trkpt>
      <trkpt lat="43.754" lon="7.00164">
        <ele>553.8</ele>
        <time>2025-01-25T08:57:57.000Z</time>
      </trkpt>
      <trkpt lat="43.75402" lon="7.00171">
        <ele>554</ele>
        <time>2025-01-25T08:57:59.000Z</time>
      </trkpt>
      <trkpt lat="43.75403" lon="7.00177">
        <ele>554.2</ele>
        <time>2025-01-25T08:58:01.000Z</time>
      </trkpt>
      <trkpt lat="43.75408" lon="7.00184">
        <ele>554.6</ele>
        <time>2025-01-25T08:58:04.000Z</time>
      </trkpt>
      <trkpt lat="43.75411" lon="7.00188">
        <ele>554.9</ele>
        <time>2025-01-25T08:58:06.000Z</time>
      </trkpt>
      <trkpt lat="43.75415" lon="7.00195">
        <ele>555.3</ele>
        <time>2025-01-25T08:58:09.000Z</time>
      </trkpt>
      <trkpt lat="43.75418" lon="7.00202">
        <ele>555.6</ele>
        <time>2025-01-25T08:58:12.000Z</time>
      </trkpt>
      <trkpt lat="43.75423" lon="7.00206">
        <ele>555.8</ele>
        <time>2025-01-25T08:58:14.000Z</time>
      </trkpt>
      <trkpt lat="43.75428" lon="7.00209">
        <ele>556</ele>
        <time>2025-01-25T08:58:16.000Z</time>
      </trkpt>
      <trkpt lat="43.75431" lon="7.00214">
        <ele>556.2</ele>
        <time>2025-01-25T08:58:18.000Z</time>
      </trkpt>
      <trkpt lat="43.75434" lon="7.00219">
        <ele>556.5</ele>
        <time>2025-01-25T08:58:20.000Z</time>
      </trkpt>
      <trkpt lat="43.75437" lon="7.00225">
        <ele>556.8</ele>
        <time>2025-01-25T08:58:23.000Z</time>
      </trkpt>
      <trkpt lat="43.75439" lon="7.00232">
        <ele>557.2</ele>
        <time>2025-01-25T08:58:26.000Z</time>
      </trkpt>
      <trkpt lat="43.7544" lon="7.00241">
        <ele>557.5</ele>
        <time>2025-01-25T08:58:29.000Z</time>
      </trkpt>
      <trkpt lat="43.7544" lon="7.0025">
        <ele>557.8</ele>
        <time>2025-01-25T08:58:32.000Z</time>
      </trkpt>
      <trkpt lat="43.75438" lon="7.00256">
        <ele>557.9</ele>
        <time>2025-01-25T08:58:34.000Z</time>
      </trkpt>
      <trkpt lat="43.75435" lon="7.00263">
        <ele>558.3</ele>
        <time>2025-01-25T08:58:38.000Z</time>
      </trkpt>
      <trkpt lat="43.75432" lon="7.0027">
        <ele>558.7</ele>
        <time>2025-01-25T08:58:42.000Z</time>
      </trkpt>
      <trkpt lat="43.75429" lon="7.00276">
        <ele>559</ele>
        <time>2025-01-25T08:58:44.000Z</time>
      </trkpt>
      <trkpt lat="43.75425" lon="7.0028">
        <ele>559.3</ele>
        <time>2025-01-25T08:58:46.000Z</time>
      </trkpt>
      <trkpt lat="43.7542" lon="7.00286">
        <ele>559.7</ele>
        <time>2025-01-25T08:58:49.000Z</time>
      </trkpt>
      <trkpt lat="43.75416" lon="7.00292">
        <ele>560</ele>
        <time>2025-01-25T08:58:52.000Z</time>
      </trkpt>
      <trkpt lat="43.75413" lon="7.003">
        <ele>560.2</ele>
        <time>2025-01-25T08:58:54.000Z</time>
      </trkpt>
      <trkpt lat="43.7541" lon="7.00306">
        <ele>560.5</ele>
        <time>2025-01-25T08:58:56.000Z</time>
      </trkpt>
      <trkpt lat="43.75408" lon="7.00312">
        <ele>560.7</ele>
        <time>2025-01-25T08:58:58.000Z</time>
      </trkpt>
      <trkpt lat="43.75406" lon="7.00319">
        <ele>561</ele>
        <time>2025-01-25T08:59:01.000Z</time>
      </trkpt>
      <trkpt lat="43.75406" lon="7.00328">
        <ele>561.3</ele>
        <time>2025-01-25T08:59:04.000Z</time>
      </trkpt>
      <trkpt lat="43.75404" lon="7.00334">
        <ele>561.5</ele>
        <time>2025-01-25T08:59:06.000Z</time>
      </trkpt>
      <trkpt lat="43.75402" lon="7.00342">
        <ele>561.8</ele>
        <time>2025-01-25T08:59:09.000Z</time>
      </trkpt>
      <trkpt lat="43.754" lon="7.00349">
        <ele>562.1</ele>
        <time>2025-01-25T08:59:12.000Z</time>
      </trkpt>
      <trkpt lat="43.75395" lon="7.00356">
        <ele>562.3</ele>
        <time>2025-01-25T08:59:14.000Z</time>
      </trkpt>
      <trkpt lat="43.75393" lon="7.00362">
        <ele>562.4</ele>
        <time>2025-01-25T08:59:16.000Z</time>
      </trkpt>
      <trkpt lat="43.7539" lon="7.00369">
        <ele>562.6</ele>
        <time>2025-01-25T08:59:18.000Z</time>
      </trkpt>
      <trkpt lat="43.75387" lon="7.00374">
        <ele>562.8</ele>
        <time>2025-01-25T08:59:20.000Z</time>
      </trkpt>
      <trkpt lat="43.75384" lon="7.0038">
        <ele>563</ele>
        <time>2025-01-25T08:59:22.000Z</time>
      </trkpt>
      <trkpt lat="43.75381" lon="7.00384">
        <ele>563.1</ele>
        <time>2025-01-25T08:59:24.000Z</time>
      </trkpt>
      <trkpt lat="43.75377" lon="7.0039">
        <ele>563.3</ele>
        <time>2025-01-25T08:59:26.000Z</time>
      </trkpt>
      <trkpt lat="43.75374" lon="7.00398">
        <ele>563.6</ele>
        <time>2025-01-25T08:59:29.000Z</time>
      </trkpt>
      <trkpt lat="43.75373" lon="7.00404">
        <ele>563.8</ele>
        <time>2025-01-25T08:59:31.000Z</time>
      </trkpt>
      <trkpt lat="43.75371" lon="7.00412">
        <ele>564.2</ele>
        <time>2025-01-25T08:59:34.000Z</time>
      </trkpt>
      <trkpt lat="43.75368" lon="7.00418">
        <ele>564.3</ele>
        <time>2025-01-25T08:59:36.000Z</time>
      </trkpt>
      <trkpt lat="43.75366" lon="7.00425">
        <ele>564.5</ele>
        <time>2025-01-25T08:59:38.000Z</time>
      </trkpt>
      <trkpt lat="43.75363" lon="7.00432">
        <ele>564.7</ele>
        <time>2025-01-25T08:59:40.000Z</time>
      </trkpt>
      <trkpt lat="43.7536" lon="7.00438">
        <ele>564.9</ele>
        <time>2025-01-25T08:59:42.000Z</time>
      </trkpt>
      <trkpt lat="43.75359" lon="7.00445">
        <ele>565.2</ele>
        <time>2025-01-25T08:59:44.000Z</time>
      </trkpt>
      <trkpt lat="43.75356" lon="7.00451">
        <ele>565.4</ele>
        <time>2025-01-25T08:59:46.000Z</time>
      </trkpt>
      <trkpt lat="43.75354" lon="7.00457">
        <ele>565.6</ele>
        <time>2025-01-25T08:59:48.000Z</time>
      </trkpt>
      <trkpt lat="43.75352" lon="7.00462">
        <ele>565.9</ele>
        <time>2025-01-25T08:59:50.000Z</time>
      </trkpt>
      <trkpt lat="43.75349" lon="7.00468">
        <ele>566.2</ele>
        <time>2025-01-25T08:59:53.000Z</time>
      </trkpt>
      <trkpt lat="43.75347" lon="7.00474">
        <ele>566.4</ele>
        <time>2025-01-25T08:59:55.000Z</time>
      </trkpt>
      <trkpt lat="43.75344" lon="7.0048">
        <ele>566.7</ele>
        <time>2025-01-25T08:59:57.000Z</time>
      </trkpt>
      <trkpt lat="43.7534" lon="7.00488">
        <ele>567.1</ele>
        <time>2025-01-25T09:00:00.000Z</time>
      </trkpt>
      <trkpt lat="43.75336" lon="7.00496">
        <ele>567.4</ele>
        <time>2025-01-25T09:00:03.000Z</time>
      </trkpt>
      <trkpt lat="43.75334" lon="7.00502">
        <ele>567.5</ele>
        <time>2025-01-25T09:00:05.000Z</time>
      </trkpt>
      <trkpt lat="43.7533" lon="7.00507">
        <ele>567.7</ele>
        <time>2025-01-25T09:00:07.000Z</time>
      </trkpt>
      <trkpt lat="43.75327" lon="7.00514">
        <ele>567.8</ele>
        <time>2025-01-25T09:00:09.000Z</time>
      </trkpt>
      <trkpt lat="43.75323" lon="7.00519">
        <ele>568</ele>
        <time>2025-01-25T09:00:11.000Z</time>
      </trkpt>
      <trkpt lat="43.7532" lon="7.00523">
        <ele>568.2</ele>
        <time>2025-01-25T09:00:13.000Z</time>
      </trkpt>
      <trkpt lat="43.75318" lon="7.00529">
        <ele>568.3</ele>
        <time>2025-01-25T09:00:15.000Z</time>
      </trkpt>
      <trkpt lat="43.75314" lon="7.00536">
        <ele>568.6</ele>
        <time>2025-01-25T09:00:18.000Z</time>
      </trkpt>
      <trkpt lat="43.75311" lon="7.00543">
        <ele>569</ele>
        <time>2025-01-25T09:00:21.000Z</time>
      </trkpt>
      <trkpt lat="43.75307" lon="7.0055">
        <ele>569.3</ele>
        <time>2025-01-25T09:00:24.000Z</time>
      </trkpt>
      <trkpt lat="43.75303" lon="7.00557">
        <ele>569.6</ele>
        <time>2025-01-25T09:00:27.000Z</time>
      </trkpt>
      <trkpt lat="43.75299" lon="7.00563">
        <ele>569.9</ele>
        <time>2025-01-25T09:00:30.000Z</time>
      </trkpt>
      <trkpt lat="43.75294" lon="7.00569">
        <ele>570.2</ele>
        <time>2025-01-25T09:00:33.000Z</time>
      </trkpt>
      <trkpt lat="43.7529" lon="7.00573">
        <ele>570.5</ele>
        <time>2025-01-25T09:00:35.000Z</time>
      </trkpt>
      <trkpt lat="43.75285" lon="7.00577">
        <ele>570.8</ele>
        <time>2025-01-25T09:00:38.000Z</time>
      </trkpt>
      <trkpt lat="43.75279" lon="7.00579">
        <ele>571.2</ele>
        <time>2025-01-25T09:00:41.000Z</time>
      </trkpt>
      <trkpt lat="43.75273" lon="7.00582">
        <ele>571.5</ele>
        <time>2025-01-25T09:00:44.000Z</time>
      </trkpt>
      <trkpt lat="43.75268" lon="7.00584">
        <ele>571.7</ele>
        <time>2025-01-25T09:00:46.000Z</time>
      </trkpt>
      <trkpt lat="43.75263" lon="7.00585">
        <ele>571.9</ele>
        <time>2025-01-25T09:00:48.000Z</time>
      </trkpt>
      <trkpt lat="43.75258" lon="7.00589">
        <ele>572.3</ele>
        <time>2025-01-25T09:00:51.000Z</time>
      </trkpt>
      <trkpt lat="43.75253" lon="7.00593">
        <ele>572.6</ele>
        <time>2025-01-25T09:00:54.000Z</time>
      </trkpt>
      <trkpt lat="43.75247" lon="7.00596">
        <ele>573</ele>
        <time>2025-01-25T09:00:57.000Z</time>
      </trkpt>
      <trkpt lat="43.75242" lon="7.00598">
        <ele>573.4</ele>
        <time>2025-01-25T09:01:00.000Z</time>
      </trkpt>
      <trkpt lat="43.75237" lon="7.00599">
        <ele>573.8</ele>
        <time>2025-01-25T09:01:04.000Z</time>
      </trkpt>
      <trkpt lat="43.75232" lon="7.00601">
        <ele>574.1</ele>
        <time>2025-01-25T09:01:07.000Z</time>
      </trkpt>
      <trkpt lat="43.75226" lon="7.00605">
        <ele>574.3</ele>
        <time>2025-01-25T09:01:09.000Z</time>
      </trkpt>
      <trkpt lat="43.75221" lon="7.0061">
        <ele>574.5</ele>
        <time>2025-01-25T09:01:11.000Z</time>
      </trkpt>
      <trkpt lat="43.75217" lon="7.00613">
        <ele>574.7</ele>
        <time>2025-01-25T09:01:13.000Z</time>
      </trkpt>
      <trkpt lat="43.75212" lon="7.00616">
        <ele>574.9</ele>
        <time>2025-01-25T09:01:15.000Z</time>
      </trkpt>
      <trkpt lat="43.75207" lon="7.0062">
        <ele>575.2</ele>
        <time>2025-01-25T09:01:17.000Z</time>
      </trkpt>
      <trkpt lat="43.75203" lon="7.00623">
        <ele>575.4</ele>
        <time>2025-01-25T09:01:19.000Z</time>
      </trkpt>
      <trkpt lat="43.75199" lon="7.00625">
        <ele>575.6</ele>
        <time>2025-01-25T09:01:21.000Z</time>
      </trkpt>
      <trkpt lat="43.75195" lon="7.00628">
        <ele>575.8</ele>
        <time>2025-01-25T09:01:23.000Z</time>
      </trkpt>
      <trkpt lat="43.75189" lon="7.00631">
        <ele>576.1</ele>
        <time>2025-01-25T09:01:26.000Z</time>
      </trkpt>
      <trkpt lat="43.75183" lon="7.00631">
        <ele>576.3</ele>
        <time>2025-01-25T09:01:28.000Z</time>
      </trkpt>
      <trkpt lat="43.75179" lon="7.00634">
        <ele>576.6</ele>
        <time>2025-01-25T09:01:31.000Z</time>
      </trkpt>
      <trkpt lat="43.75173" lon="7.00638">
        <ele>577</ele>
        <time>2025-01-25T09:01:34.000Z</time>
      </trkpt>
      <trkpt lat="43.75166" lon="7.0064">
        <ele>577.3</ele>
        <time>2025-01-25T09:01:37.000Z</time>
      </trkpt>
      <trkpt lat="43.75162" lon="7.00642">
        <ele>577.5</ele>
        <time>2025-01-25T09:01:39.000Z</time>
      </trkpt>
      <trkpt lat="43.75155" lon="7.00644">
        <ele>577.9</ele>
        <time>2025-01-25T09:01:42.000Z</time>
      </trkpt>
      <trkpt lat="43.7515" lon="7.00647">
        <ele>578.2</ele>
        <time>2025-01-25T09:01:45.000Z</time>
      </trkpt>
      <trkpt lat="43.75143" lon="7.00648">
        <ele>578.6</ele>
        <time>2025-01-25T09:01:48.000Z</time>
      </trkpt>
      <trkpt lat="43.75139" lon="7.00651">
        <ele>578.9</ele>
        <time>2025-01-25T09:01:50.000Z</time>
      </trkpt>
      <trkpt lat="43.75134" lon="7.00653">
        <ele>579.1</ele>
        <time>2025-01-25T09:01:52.000Z</time>
      </trkpt>
      <trkpt lat="43.75128" lon="7.00656">
        <ele>579.4</ele>
        <time>2025-01-25T09:01:55.000Z</time>
      </trkpt>
      <trkpt lat="43.75124" lon="7.00661">
        <ele>579.8</ele>
        <time>2025-01-25T09:01:58.000Z</time>
      </trkpt>
      <trkpt lat="43.75119" lon="7.00664">
        <ele>580</ele>
        <time>2025-01-25T09:02:00.000Z</time>
      </trkpt>
      <trkpt lat="43.75114" lon="7.0067">
        <ele>580.4</ele>
        <time>2025-01-25T09:02:03.000Z</time>
      </trkpt>
      <trkpt lat="43.75108" lon="7.00674">
        <ele>580.8</ele>
        <time>2025-01-25T09:02:06.000Z</time>
      </trkpt>
      <trkpt lat="43.75103" lon="7.00674">
        <ele>581.1</ele>
        <time>2025-01-25T09:02:08.000Z</time>
      </trkpt>
      <trkpt lat="43.75096" lon="7.00676">
        <ele>581.4</ele>
        <time>2025-01-25T09:02:11.000Z</time>
      </trkpt>
      <trkpt lat="43.7509" lon="7.00679">
        <ele>581.7</ele>
        <time>2025-01-25T09:02:14.000Z</time>
      </trkpt>
      <trkpt lat="43.75084" lon="7.00679">
        <ele>581.9</ele>
        <time>2025-01-25T09:02:16.000Z</time>
      </trkpt>
      <trkpt lat="43.75079" lon="7.00682">
        <ele>582.2</ele>
        <time>2025-01-25T09:02:19.000Z</time>
      </trkpt>
      <trkpt lat="43.75074" lon="7.00681">
        <ele>582.4</ele>
        <time>2025-01-25T09:02:21.000Z</time>
      </trkpt>
      <trkpt lat="43.75068" lon="7.0068">
        <ele>582.7</ele>
        <time>2025-01-25T09:02:24.000Z</time>
      </trkpt>
      <trkpt lat="43.75061" lon="7.0068">
        <ele>583</ele>
        <time>2025-01-25T09:02:27.000Z</time>
      </trkpt>
      <trkpt lat="43.75057" lon="7.0068">
        <ele>583.2</ele>
        <time>2025-01-25T09:02:29.000Z</time>
      </trkpt>
      <trkpt lat="43.75052" lon="7.0068">
        <ele>583.4</ele>
        <time>2025-01-25T09:02:31.000Z</time>
      </trkpt>
      <trkpt lat="43.75047" lon="7.00681">
        <ele>583.7</ele>
        <time>2025-01-25T09:02:34.000Z</time>
      </trkpt>
      <trkpt lat="43.75042" lon="7.00683">
        <ele>584.2</ele>
        <time>2025-01-25T09:02:38.000Z</time>
      </trkpt>
      <trkpt lat="43.75036" lon="7.00685">
        <ele>584.4</ele>
        <time>2025-01-25T09:02:41.000Z</time>
      </trkpt>
      <trkpt lat="43.7503" lon="7.00684">
        <ele>584.8</ele>
        <time>2025-01-25T09:02:44.000Z</time>
      </trkpt>
      <trkpt lat="43.75025" lon="7.00688">
        <ele>585.2</ele>
        <time>2025-01-25T09:02:47.000Z</time>
      </trkpt>
      <trkpt lat="43.75021" lon="7.00692">
        <ele>585.4</ele>
        <time>2025-01-25T09:02:49.000Z</time>
      </trkpt>
      <trkpt lat="43.75018" lon="7.00698">
        <ele>585.7</ele>
        <time>2025-01-25T09:02:52.000Z</time>
      </trkpt>
      <trkpt lat="43.75013" lon="7.00701">
        <ele>586.1</ele>
        <time>2025-01-25T09:02:55.000Z</time>
      </trkpt>
      <trkpt lat="43.75007" lon="7.00702">
        <ele>586.4</ele>
        <time>2025-01-25T09:02:58.000Z</time>
      </trkpt>
      <trkpt lat="43.75001" lon="7.00701">
        <ele>586.8</ele>
        <time>2025-01-25T09:03:01.000Z</time>
      </trkpt>
      <trkpt lat="43.74995" lon="7.00703">
        <ele>587.1</ele>
        <time>2025-01-25T09:03:04.000Z</time>
      </trkpt>
      <trkpt lat="43.7499" lon="7.00706">
        <ele>587.4</ele>
        <time>2025-01-25T09:03:07.000Z</time>
      </trkpt>
      <trkpt lat="43.74985" lon="7.00707">
        <ele>587.6</ele>
        <time>2025-01-25T09:03:09.000Z</time>
      </trkpt>
      <trkpt lat="43.7498" lon="7.00708">
        <ele>587.7</ele>
        <time>2025-01-25T09:03:11.000Z</time>
      </trkpt>
      <trkpt lat="43.74975" lon="7.00709">
        <ele>587.9</ele>
        <time>2025-01-25T09:03:13.000Z</time>
      </trkpt>
      <trkpt lat="43.74969" lon="7.0071">
        <ele>588.1</ele>
        <time>2025-01-25T09:03:15.000Z</time>
      </trkpt>
      <trkpt lat="43.74963" lon="7.0071">
        <ele>588.4</ele>
        <time>2025-01-25T09:03:17.000Z</time>
      </trkpt>
      <trkpt lat="43.74958" lon="7.00709">
        <ele>588.6</ele>
        <time>2025-01-25T09:03:19.000Z</time>
      </trkpt>
      <trkpt lat="43.74954" lon="7.00707">
        <ele>588.9</ele>
        <time>2025-01-25T09:03:21.000Z</time>
      </trkpt>
      <trkpt lat="43.74948" lon="7.00704">
        <ele>589.2</ele>
        <time>2025-01-25T09:03:24.000Z</time>
      </trkpt>
      <trkpt lat="43.74944" lon="7.00702">
        <ele>589.4</ele>
        <time>2025-01-25T09:03:26.000Z</time>
      </trkpt>
      <trkpt lat="43.74938" lon="7.007">
        <ele>589.7</ele>
        <time>2025-01-25T09:03:29.000Z</time>
      </trkpt>
      <trkpt lat="43.74931" lon="7.007">
        <ele>589.9</ele>
        <time>2025-01-25T09:03:32.000Z</time>
      </trkpt>
      <trkpt lat="43.74925" lon="7.00704">
        <ele>590.2</ele>
        <time>2025-01-25T09:03:35.000Z</time>
      </trkpt>
      <trkpt lat="43.7492" lon="7.00708">
        <ele>590.5</ele>
        <time>2025-01-25T09:03:38.000Z</time>
      </trkpt>
      <trkpt lat="43.74916" lon="7.00713">
        <ele>590.8</ele>
        <time>2025-01-25T09:03:41.000Z</time>
      </trkpt>
      <trkpt lat="43.74912" lon="7.00717">
        <ele>591</ele>
        <time>2025-01-25T09:03:44.000Z</time>
      </trkpt>
      <trkpt lat="43.74907" lon="7.00721">
        <ele>591.4</ele>
        <time>2025-01-25T09:03:47.000Z</time>
      </trkpt>
      <trkpt lat="43.74901" lon="7.00724">
        <ele>591.6</ele>
        <time>2025-01-25T09:03:50.000Z</time>
      </trkpt>
      <trkpt lat="43.74897" lon="7.00724">
        <ele>591.7</ele>
        <time>2025-01-25T09:03:52.000Z</time>
      </trkpt>
      <trkpt lat="43.74891" lon="7.00725">
        <ele>592</ele>
        <time>2025-01-25T09:03:55.000Z</time>
      </trkpt>
      <trkpt lat="43.74886" lon="7.00723">
        <ele>592.2</ele>
        <time>2025-01-25T09:03:58.000Z</time>
      </trkpt>
      <trkpt lat="43.7488" lon="7.00725">
        <ele>592.5</ele>
        <time>2025-01-25T09:04:01.000Z</time>
      </trkpt>
      <trkpt lat="43.74876" lon="7.00732">
        <ele>592.8</ele>
        <time>2025-01-25T09:04:05.000Z</time>
      </trkpt>
      <trkpt lat="43.74873" lon="7.00737">
        <ele>593</ele>
        <time>2025-01-25T09:04:07.000Z</time>
      </trkpt>
      <trkpt lat="43.74868" lon="7.00741">
        <ele>593.2</ele>
        <time>2025-01-25T09:04:09.000Z</time>
      </trkpt>
      <trkpt lat="43.74865" lon="7.00745">
        <ele>593.4</ele>
        <time>2025-01-25T09:04:11.000Z</time>
      </trkpt>
      <trkpt lat="43.74861" lon="7.00749">
        <ele>593.6</ele>
        <time>2025-01-25T09:04:14.000Z</time>
      </trkpt>
      <trkpt lat="43.74856" lon="7.00755">
        <ele>593.9</ele>
        <time>2025-01-25T09:04:17.000Z</time>
      </trkpt>
      <trkpt lat="43.74851" lon="7.0076">
        <ele>594.2</ele>
        <time>2025-01-25T09:04:20.000Z</time>
      </trkpt>
      <trkpt lat="43.74852" lon="7.00766">
        <ele>594.5</ele>
        <time>2025-01-25T09:04:22.000Z</time>
      </trkpt>
      <trkpt lat="43.74854" lon="7.00775">
        <ele>594.7</ele>
        <time>2025-01-25T09:04:25.000Z</time>
      </trkpt>
      <trkpt lat="43.74856" lon="7.00783">
        <ele>594.9</ele>
        <time>2025-01-25T09:04:28.000Z</time>
      </trkpt>
      <trkpt lat="43.74859" lon="7.00789">
        <ele>595</ele>
        <time>2025-01-25T09:04:30.000Z</time>
      </trkpt>
      <trkpt lat="43.7486" lon="7.00795">
        <ele>595.1</ele>
        <time>2025-01-25T09:04:32.000Z</time>
      </trkpt>
      <trkpt lat="43.74859" lon="7.00802">
        <ele>595.3</ele>
        <time>2025-01-25T09:04:35.000Z</time>
      </trkpt>
      <trkpt lat="43.74856" lon="7.00808">
        <ele>595.4</ele>
        <time>2025-01-25T09:04:37.000Z</time>
      </trkpt>
      <trkpt lat="43.74852" lon="7.00815">
        <ele>595.6</ele>
        <time>2025-01-25T09:04:40.000Z</time>
      </trkpt>
      <trkpt lat="43.74848" lon="7.00819">
        <ele>595.8</ele>
        <time>2025-01-25T09:04:43.000Z</time>
      </trkpt>
      <trkpt lat="43.74841" lon="7.00821">
        <ele>596.1</ele>
        <time>2025-01-25T09:04:46.000Z</time>
      </trkpt>
      <trkpt lat="43.74837" lon="7.00821">
        <ele>596.3</ele>
        <time>2025-01-25T09:04:48.000Z</time>
      </trkpt>
      <trkpt lat="43.74832" lon="7.00822">
        <ele>596.5</ele>
        <time>2025-01-25T09:04:50.000Z</time>
      </trkpt>
      <trkpt lat="43.74826" lon="7.00824">
        <ele>596.7</ele>
        <time>2025-01-25T09:04:53.000Z</time>
      </trkpt>
      <trkpt lat="43.74819" lon="7.00827">
        <ele>597</ele>
        <time>2025-01-25T09:04:56.000Z</time>
      </trkpt>
      <trkpt lat="43.74814" lon="7.00829">
        <ele>597.1</ele>
        <time>2025-01-25T09:04:58.000Z</time>
      </trkpt>
      <trkpt lat="43.74809" lon="7.00831">
        <ele>597.4</ele>
        <time>2025-01-25T09:05:00.000Z</time>
      </trkpt>
      <trkpt lat="43.74805" lon="7.00833">
        <ele>597.6</ele>
        <time>2025-01-25T09:05:02.000Z</time>
      </trkpt>
      <trkpt lat="43.748" lon="7.00832">
        <ele>597.8</ele>
        <time>2025-01-25T09:05:04.000Z</time>
      </trkpt>
      <trkpt lat="43.74794" lon="7.00829">
        <ele>598</ele>
        <time>2025-01-25T09:05:07.000Z</time>
      </trkpt>
      <trkpt lat="43.74789" lon="7.00828">
        <ele>598.2</ele>
        <time>2025-01-25T09:05:09.000Z</time>
      </trkpt>
      <trkpt lat="43.74783" lon="7.00826">
        <ele>598.5</ele>
        <time>2025-01-25T09:05:12.000Z</time>
      </trkpt>
      <trkpt lat="43.74778" lon="7.00823">
        <ele>598.7</ele>
        <time>2025-01-25T09:05:14.000Z</time>
      </trkpt>
      <trkpt lat="43.74772" lon="7.00822">
        <ele>598.9</ele>
        <time>2025-01-25T09:05:16.000Z</time>
      </trkpt>
      <trkpt lat="43.74766" lon="7.00821">
        <ele>599</ele>
        <time>2025-01-25T09:05:18.000Z</time>
      </trkpt>
      <trkpt lat="43.74762" lon="7.00821">
        <ele>599.2</ele>
        <time>2025-01-25T09:05:20.000Z</time>
      </trkpt>
      <trkpt lat="43.74757" lon="7.00823">
        <ele>599.4</ele>
        <time>2025-01-25T09:05:22.000Z</time>
      </trkpt>
      <trkpt lat="43.74751" lon="7.00828">
        <ele>599.7</ele>
        <time>2025-01-25T09:05:25.000Z</time>
      </trkpt>
      <trkpt lat="43.74746" lon="7.00831">
        <ele>600</ele>
        <time>2025-01-25T09:05:28.000Z</time>
      </trkpt>
      <trkpt lat="43.74742" lon="7.00835">
        <ele>600.2</ele>
        <time>2025-01-25T09:05:30.000Z</time>
      </trkpt>
      <trkpt lat="43.74738" lon="7.0084">
        <ele>600.6</ele>
        <time>2025-01-25T09:05:33.000Z</time>
      </trkpt>
      <trkpt lat="43.74736" lon="7.00846">
        <ele>601</ele>
        <time>2025-01-25T09:05:36.000Z</time>
      </trkpt>
      <trkpt lat="43.74731" lon="7.00848">
        <ele>601.2</ele>
        <time>2025-01-25T09:05:38.000Z</time>
      </trkpt>
      <trkpt lat="43.74726" lon="7.00853">
        <ele>601.6</ele>
        <time>2025-01-25T09:05:41.000Z</time>
      </trkpt>
      <trkpt lat="43.74722" lon="7.00856">
        <ele>601.8</ele>
        <time>2025-01-25T09:05:43.000Z</time>
      </trkpt>
      <trkpt lat="43.74718" lon="7.0086">
        <ele>602.1</ele>
        <time>2025-01-25T09:05:45.000Z</time>
      </trkpt>
      <trkpt lat="43.74712" lon="7.00865">
        <ele>602.4</ele>
        <time>2025-01-25T09:05:48.000Z</time>
      </trkpt>
      <trkpt lat="43.74708" lon="7.00868">
        <ele>602.7</ele>
        <time>2025-01-25T09:05:50.000Z</time>
      </trkpt>
      <trkpt lat="43.74703" lon="7.00871">
        <ele>602.9</ele>
        <time>2025-01-25T09:05:52.000Z</time>
      </trkpt>
      <trkpt lat="43.74698" lon="7.00874">
        <ele>603.3</ele>
        <time>2025-01-25T09:05:55.000Z</time>
      </trkpt>
      <trkpt lat="43.74695" lon="7.00879">
        <ele>603.7</ele>
        <time>2025-01-25T09:05:58.000Z</time>
      </trkpt>
      <trkpt lat="43.7469" lon="7.00885">
        <ele>604.1</ele>
        <time>2025-01-25T09:06:01.000Z</time>
      </trkpt>
      <trkpt lat="43.74686" lon="7.00888">
        <ele>604.3</ele>
        <time>2025-01-25T09:06:03.000Z</time>
      </trkpt>
      <trkpt lat="43.74682" lon="7.0089">
        <ele>604.6</ele>
        <time>2025-01-25T09:06:05.000Z</time>
      </trkpt>
      <trkpt lat="43.74677" lon="7.00894">
        <ele>604.8</ele>
        <time>2025-01-25T09:06:07.000Z</time>
      </trkpt>
      <trkpt lat="43.74673" lon="7.00898">
        <ele>605.2</ele>
        <time>2025-01-25T09:06:10.000Z</time>
      </trkpt>
      <trkpt lat="43.74669" lon="7.00904">
        <ele>605.5</ele>
        <time>2025-01-25T09:06:13.000Z</time>
      </trkpt>
      <trkpt lat="43.74665" lon="7.00909">
        <ele>605.9</ele>
        <time>2025-01-25T09:06:16.000Z</time>
      </trkpt>
      <trkpt lat="43.74661" lon="7.00914">
        <ele>606.2</ele>
        <time>2025-01-25T09:06:19.000Z</time>
      </trkpt>
      <trkpt lat="43.74657" lon="7.00918">
        <ele>606.5</ele>
        <time>2025-01-25T09:06:22.000Z</time>
      </trkpt>
      <trkpt lat="43.74652" lon="7.00924">
        <ele>606.8</ele>
        <time>2025-01-25T09:06:25.000Z</time>
      </trkpt>
      <trkpt lat="43.74647" lon="7.00928">
        <ele>607.2</ele>
        <time>2025-01-25T09:06:28.000Z</time>
      </trkpt>
      <trkpt lat="43.74642" lon="7.00932">
        <ele>607.5</ele>
        <time>2025-01-25T09:06:31.000Z</time>
      </trkpt>
      <trkpt lat="43.74636" lon="7.00934">
        <ele>607.9</ele>
        <time>2025-01-25T09:06:34.000Z</time>
      </trkpt>
      <trkpt lat="43.74632" lon="7.00937">
        <ele>608.1</ele>
        <time>2025-01-25T09:06:36.000Z</time>
      </trkpt>
      <trkpt lat="43.74628" lon="7.00939">
        <ele>608.5</ele>
        <time>2025-01-25T09:06:39.000Z</time>
      </trkpt>
      <trkpt lat="43.74623" lon="7.00943">
        <ele>608.9</ele>
        <time>2025-01-25T09:06:42.000Z</time>
      </trkpt>
      <trkpt lat="43.74617" lon="7.00948">
        <ele>609.2</ele>
        <time>2025-01-25T09:06:45.000Z</time>
      </trkpt>
      <trkpt lat="43.74612" lon="7.00952">
        <ele>609.6</ele>
        <time>2025-01-25T09:06:48.000Z</time>
      </trkpt>
      <trkpt lat="43.74606" lon="7.00956">
        <ele>609.8</ele>
        <time>2025-01-25T09:06:50.000Z</time>
      </trkpt>
      <trkpt lat="43.74601" lon="7.00958">
        <ele>610.1</ele>
        <time>2025-01-25T09:06:52.000Z</time>
      </trkpt>
      <trkpt lat="43.74596" lon="7.00959">
        <ele>610.3</ele>
        <time>2025-01-25T09:06:54.000Z</time>
      </trkpt>
      <trkpt lat="43.74591" lon="7.0096">
        <ele>610.6</ele>
        <time>2025-01-25T09:06:56.000Z</time>
      </trkpt>
      <trkpt lat="43.74585" lon="7.00962">
        <ele>610.9</ele>
        <time>2025-01-25T09:06:59.000Z</time>
      </trkpt>
      <trkpt lat="43.74579" lon="7.00963">
        <ele>611.2</ele>
        <time>2025-01-25T09:07:02.000Z</time>
      </trkpt>
      <trkpt lat="43.74574" lon="7.00962">
        <ele>611.5</ele>
        <time>2025-01-25T09:07:05.000Z</time>
      </trkpt>
      <trkpt lat="43.74568" lon="7.0096">
        <ele>611.9</ele>
        <time>2025-01-25T09:07:08.000Z</time>
      </trkpt>
      <trkpt lat="43.74562" lon="7.00957">
        <ele>612.2</ele>
        <time>2025-01-25T09:07:11.000Z</time>
      </trkpt>
      <trkpt lat="43.74557" lon="7.00954">
        <ele>612.6</ele>
        <time>2025-01-25T09:07:14.000Z</time>
      </trkpt>
      <trkpt lat="43.74552" lon="7.0095">
        <ele>613</ele>
        <time>2025-01-25T09:07:17.000Z</time>
      </trkpt>
      <trkpt lat="43.74547" lon="7.00946">
        <ele>613.4</ele>
        <time>2025-01-25T09:07:20.000Z</time>
      </trkpt>
      <trkpt lat="43.74541" lon="7.00942">
        <ele>613.8</ele>
        <time>2025-01-25T09:07:23.000Z</time>
      </trkpt>
      <trkpt lat="43.74537" lon="7.00939">
        <ele>614.1</ele>
        <time>2025-01-25T09:07:26.000Z</time>
      </trkpt>
      <trkpt lat="43.74531" lon="7.00935">
        <ele>614.6</ele>
        <time>2025-01-25T09:07:29.000Z</time>
      </trkpt>
      <trkpt lat="43.74528" lon="7.00931">
        <ele>614.8</ele>
        <time>2025-01-25T09:07:31.000Z</time>
      </trkpt>
      <trkpt lat="43.74523" lon="7.00928">
        <ele>615.1</ele>
        <time>2025-01-25T09:07:33.000Z</time>
      </trkpt>
      <trkpt lat="43.74519" lon="7.00924">
        <ele>615.5</ele>
        <time>2025-01-25T09:07:36.000Z</time>
      </trkpt>
      <trkpt lat="43.74515" lon="7.00923">
        <ele>615.8</ele>
        <time>2025-01-25T09:07:38.000Z</time>
      </trkpt>
      <trkpt lat="43.7451" lon="7.00919">
        <ele>616.2</ele>
        <time>2025-01-25T09:07:41.000Z</time>
      </trkpt>
      <trkpt lat="43.74505" lon="7.00915">
        <ele>616.6</ele>
        <time>2025-01-25T09:07:44.000Z</time>
      </trkpt>
      <trkpt lat="43.745" lon="7.00915">
        <ele>616.8</ele>
        <time>2025-01-25T09:07:46.000Z</time>
      </trkpt>
      <trkpt lat="43.74494" lon="7.00915">
        <ele>617.2</ele>
        <time>2025-01-25T09:07:49.000Z</time>
      </trkpt>
      <trkpt lat="43.74487" lon="7.00914">
        <ele>617.5</ele>
        <time>2025-01-25T09:07:52.000Z</time>
      </trkpt>
      <trkpt lat="43.74482" lon="7.00912">
        <ele>617.7</ele>
        <time>2025-01-25T09:07:54.000Z</time>
      </trkpt>
      <trkpt lat="43.74477" lon="7.0091">
        <ele>617.9</ele>
        <time>2025-01-25T09:07:57.000Z</time>
      </trkpt>
      <trkpt lat="43.74472" lon="7.0091">
        <ele>618.2</ele>
        <time>2025-01-25T09:08:00.000Z</time>
      </trkpt>
      <trkpt lat="43.74465" lon="7.00909">
        <ele>618.6</ele>
        <time>2025-01-25T09:08:03.000Z</time>
      </trkpt>
      <trkpt lat="43.74459" lon="7.0091">
        <ele>618.8</ele>
        <time>2025-01-25T09:08:05.000Z</time>
      </trkpt>
      <trkpt lat="43.74455" lon="7.00911">
        <ele>619</ele>
        <time>2025-01-25T09:08:07.000Z</time>
      </trkpt>
      <trkpt lat="43.74449" lon="7.00912">
        <ele>619.4</ele>
        <time>2025-01-25T09:08:10.000Z</time>
      </trkpt>
      <trkpt lat="43.74443" lon="7.00912">
        <ele>619.7</ele>
        <time>2025-01-25T09:08:13.000Z</time>
      </trkpt>
      <trkpt lat="43.74438" lon="7.00913">
        <ele>620.2</ele>
        <time>2025-01-25T09:08:16.000Z</time>
      </trkpt>
      <trkpt lat="43.74432" lon="7.0091">
        <ele>620.6</ele>
        <time>2025-01-25T09:08:19.000Z</time>
      </trkpt>
      <trkpt lat="43.74425" lon="7.00908">
        <ele>621.1</ele>
        <time>2025-01-25T09:08:22.000Z</time>
      </trkpt>
      <trkpt lat="43.7442" lon="7.00907">
        <ele>621.5</ele>
        <time>2025-01-25T09:08:25.000Z</time>
      </trkpt>
      <trkpt lat="43.74415" lon="7.00908">
        <ele>621.8</ele>
        <time>2025-01-25T09:08:28.000Z</time>
      </trkpt>
      <trkpt lat="43.74411" lon="7.00911">
        <ele>622.3</ele>
        <time>2025-01-25T09:08:32.000Z</time>
      </trkpt>
      <trkpt lat="43.74411" lon="7.00918">
        <ele>622.7</ele>
        <time>2025-01-25T09:08:36.000Z</time>
      </trkpt>
      <trkpt lat="43.74413" lon="7.00918">
        <ele>623.2</ele>
        <time>2025-01-25T09:08:41.000Z</time>
      </trkpt>
      <trkpt lat="43.74413" lon="7.00918">
        <ele>623.2</ele>
        <time>2025-01-25T09:08:42.000Z</time>
      </trkpt>
      <trkpt lat="43.74413" lon="7.00918">
        <ele>623.3</ele>
        <time>2025-01-25T09:08:43.000Z</time>
      </trkpt>
      <trkpt lat="43.74413" lon="7.00924">
        <ele>623.9</ele>
        <time>2025-01-25T09:09:12.000Z</time>
      </trkpt>
      <trkpt lat="43.74409" lon="7.00919">
        <ele>623.9</ele>
        <time>2025-01-25T09:09:47.000Z</time>
      </trkpt>
      <trkpt lat="43.74404" lon="7.0092">
        <ele>623.9</ele>
        <time>2025-01-25T09:09:54.000Z</time>
      </trkpt>
      <trkpt lat="43.74407" lon="7.00925">
        <ele>623.9</ele>
        <time>2025-01-25T09:10:12.000Z</time>
      </trkpt>
      <trkpt lat="43.74409" lon="7.00925">
        <ele>623.9</ele>
        <time>2025-01-25T09:10:35.000Z</time>
      </trkpt>
      <trkpt lat="43.74408" lon="7.00919">
        <ele>623.8</ele>
        <time>2025-01-25T09:10:39.000Z</time>
      </trkpt>
      <trkpt lat="43.74409" lon="7.00917">
        <ele>623.8</ele>
        <time>2025-01-25T09:10:43.000Z</time>
      </trkpt>
      <trkpt lat="43.7441" lon="7.00916">
        <ele>623.8</ele>
        <time>2025-01-25T09:10:44.000Z</time>
      </trkpt>
      <trkpt lat="43.7441" lon="7.00915">
        <ele>623.8</ele>
        <time>2025-01-25T09:10:45.000Z</time>
      </trkpt>
      <trkpt lat="43.7441" lon="7.00915">
        <ele>623.8</ele>
        <time>2025-01-25T09:10:46.000Z</time>
      </trkpt>
      <trkpt lat="43.7441" lon="7.00915">
        <ele>623.7</ele>
        <time>2025-01-25T09:10:47.000Z</time>
      </trkpt>
      <trkpt lat="43.74406" lon="7.0091">
        <ele>623.5</ele>
        <time>2025-01-25T09:10:58.000Z</time>
      </trkpt>
      <trkpt lat="43.74402" lon="7.00906">
        <ele>623.4</ele>
        <time>2025-01-25T09:11:01.000Z</time>
      </trkpt>
      <trkpt lat="43.74397" lon="7.00905">
        <ele>623.4</ele>
        <time>2025-01-25T09:11:04.000Z</time>
      </trkpt>
      <trkpt lat="43.74392" lon="7.00908">
        <ele>623.5</ele>
        <time>2025-01-25T09:11:08.000Z</time>
      </trkpt>
      <trkpt lat="43.74387" lon="7.0091">
        <ele>623.9</ele>
        <time>2025-01-25T09:11:13.000Z</time>
      </trkpt>
      <trkpt lat="43.74387" lon="7.00917">
        <ele>624.8</ele>
        <time>2025-01-25T09:11:19.000Z</time>
      </trkpt>
      <trkpt lat="43.74387" lon="7.00924">
        <ele>625.7</ele>
        <time>2025-01-25T09:11:24.000Z</time>
      </trkpt>
      <trkpt lat="43.74385" lon="7.0093">
        <ele>626.9</ele>
        <time>2025-01-25T09:11:30.000Z</time>
      </trkpt>
      <trkpt lat="43.74385" lon="7.00931">
        <ele>627</ele>
        <time>2025-01-25T09:11:31.000Z</time>
      </trkpt>
      <trkpt lat="43.74385" lon="7.00932">
        <ele>627.1</ele>
        <time>2025-01-25T09:11:32.000Z</time>
      </trkpt>
      <trkpt lat="43.74385" lon="7.00934">
        <ele>627.3</ele>
        <time>2025-01-25T09:11:33.000Z</time>
      </trkpt>
      <trkpt lat="43.74384" lon="7.0094">
        <ele>628.5</ele>
        <time>2025-01-25T09:11:49.000Z</time>
      </trkpt>
      <trkpt lat="43.7438" lon="7.00945">
        <ele>628.9</ele>
        <time>2025-01-25T09:11:56.000Z</time>
      </trkpt>
      <trkpt lat="43.74377" lon="7.00951">
        <ele>629.8</ele>
        <time>2025-01-25T09:12:03.000Z</time>
      </trkpt>
      <trkpt lat="43.74372" lon="7.00955">
        <ele>630.5</ele>
        <time>2025-01-25T09:12:08.000Z</time>
      </trkpt>
      <trkpt lat="43.74369" lon="7.0096">
        <ele>630.9</ele>
        <time>2025-01-25T09:12:11.000Z</time>
      </trkpt>
      <trkpt lat="43.74366" lon="7.00966">
        <ele>631.5</ele>
        <time>2025-01-25T09:12:14.000Z</time>
      </trkpt>
      <trkpt lat="43.74366" lon="7.00974">
        <ele>632.3</ele>
        <time>2025-01-25T09:12:18.000Z</time>
      </trkpt>
      <trkpt lat="43.74362" lon="7.00977">
        <ele>633.5</ele>
        <time>2025-01-25T09:12:24.000Z</time>
      </trkpt>
      <trkpt lat="43.74359" lon="7.00982">
        <ele>634.3</ele>
        <time>2025-01-25T09:12:28.000Z</time>
      </trkpt>
      <trkpt lat="43.74353" lon="7.00983">
        <ele>635.1</ele>
        <time>2025-01-25T09:12:32.000Z</time>
      </trkpt>
      <trkpt lat="43.74349" lon="7.00986">
        <ele>635.9</ele>
        <time>2025-01-25T09:12:36.000Z</time>
      </trkpt>
      <trkpt lat="43.74345" lon="7.0099">
        <ele>636.8</ele>
        <time>2025-01-25T09:12:41.000Z</time>
      </trkpt>
      <trkpt lat="43.74341" lon="7.00994">
        <ele>637.7</ele>
        <time>2025-01-25T09:12:47.000Z</time>
      </trkpt>
      <trkpt lat="43.74338" lon="7.00998">
        <ele>638.8</ele>
        <time>2025-01-25T09:12:55.000Z</time>
      </trkpt>
      <trkpt lat="43.74335" lon="7.01003">
        <ele>639.4</ele>
        <time>2025-01-25T09:13:00.000Z</time>
      </trkpt>
      <trkpt lat="43.7433" lon="7.01005">
        <ele>640.5</ele>
        <time>2025-01-25T09:13:06.000Z</time>
      </trkpt>
      <trkpt lat="43.74326" lon="7.01008">
        <ele>641.5</ele>
        <time>2025-01-25T09:13:11.000Z</time>
      </trkpt>
      <trkpt lat="43.74322" lon="7.01014">
        <ele>642.8</ele>
        <time>2025-01-25T09:13:18.000Z</time>
      </trkpt>
      <trkpt lat="43.7432" lon="7.01021">
        <ele>643.6</ele>
        <time>2025-01-25T09:13:22.000Z</time>
      </trkpt>
      <trkpt lat="43.74316" lon="7.01026">
        <ele>644.5</ele>
        <time>2025-01-25T09:13:26.000Z</time>
      </trkpt>
      <trkpt lat="43.74313" lon="7.01033">
        <ele>645.5</ele>
        <time>2025-01-25T09:13:30.000Z</time>
      </trkpt>
      <trkpt lat="43.7431" lon="7.01038">
        <ele>646.6</ele>
        <time>2025-01-25T09:13:34.000Z</time>
      </trkpt>
      <trkpt lat="43.74306" lon="7.01041">
        <ele>647.6</ele>
        <time>2025-01-25T09:13:38.000Z</time>
      </trkpt>
      <trkpt lat="43.74303" lon="7.01046">
        <ele>648.8</ele>
        <time>2025-01-25T09:13:43.000Z</time>
      </trkpt>
      <trkpt lat="43.74299" lon="7.01051">
        <ele>650.1</ele>
        <time>2025-01-25T09:13:49.000Z</time>
      </trkpt>
      <trkpt lat="43.74294" lon="7.01054">
        <ele>652</ele>
        <time>2025-01-25T09:13:59.000Z</time>
      </trkpt>
      <trkpt lat="43.7429" lon="7.01059">
        <ele>652.6</ele>
        <time>2025-01-25T09:14:03.000Z</time>
      </trkpt>
      <trkpt lat="43.74285" lon="7.01062">
        <ele>653.6</ele>
        <time>2025-01-25T09:14:08.000Z</time>
      </trkpt>
      <trkpt lat="43.74281" lon="7.01066">
        <ele>654.7</ele>
        <time>2025-01-25T09:14:14.000Z</time>
      </trkpt>
      <trkpt lat="43.74277" lon="7.01071">
        <ele>655.7</ele>
        <time>2025-01-25T09:14:20.000Z</time>
      </trkpt>
      <trkpt lat="43.74274" lon="7.01078">
        <ele>656.4</ele>
        <time>2025-01-25T09:14:25.000Z</time>
      </trkpt>
      <trkpt lat="43.74272" lon="7.01084">
        <ele>656.9</ele>
        <time>2025-01-25T09:14:28.000Z</time>
      </trkpt>
      <trkpt lat="43.74271" lon="7.01092">
        <ele>657.5</ele>
        <time>2025-01-25T09:14:32.000Z</time>
      </trkpt>
      <trkpt lat="43.7427" lon="7.01099">
        <ele>658</ele>
        <time>2025-01-25T09:14:36.000Z</time>
      </trkpt>
      <trkpt lat="43.74269" lon="7.01106">
        <ele>658.9</ele>
        <time>2025-01-25T09:14:42.000Z</time>
      </trkpt>
      <trkpt lat="43.74265" lon="7.0111">
        <ele>659.7</ele>
        <time>2025-01-25T09:14:48.000Z</time>
      </trkpt>
      <trkpt lat="43.74261" lon="7.01113">
        <ele>660.3</ele>
        <time>2025-01-25T09:14:53.000Z</time>
      </trkpt>
      <trkpt lat="43.74257" lon="7.01118">
        <ele>661.5</ele>
        <time>2025-01-25T09:14:59.000Z</time>
      </trkpt>
      <trkpt lat="43.74252" lon="7.01121">
        <ele>662.3</ele>
        <time>2025-01-25T09:15:04.000Z</time>
      </trkpt>
      <trkpt lat="43.74247" lon="7.01122">
        <ele>662.9</ele>
        <time>2025-01-25T09:15:08.000Z</time>
      </trkpt>
      <trkpt lat="43.74243" lon="7.01125">
        <ele>663.5</ele>
        <time>2025-01-25T09:15:14.000Z</time>
      </trkpt>
      <trkpt lat="43.74238" lon="7.01127">
        <ele>664.1</ele>
        <time>2025-01-25T09:15:19.000Z</time>
      </trkpt>
      <trkpt lat="43.74233" lon="7.0113">
        <ele>664.6</ele>
        <time>2025-01-25T09:15:23.000Z</time>
      </trkpt>
      <trkpt lat="43.74228" lon="7.01133">
        <ele>665.2</ele>
        <time>2025-01-25T09:15:27.000Z</time>
      </trkpt>
      <trkpt lat="43.74223" lon="7.01135">
        <ele>666</ele>
        <time>2025-01-25T09:15:32.000Z</time>
      </trkpt>
      <trkpt lat="43.74219" lon="7.01136">
        <ele>666.6</ele>
        <time>2025-01-25T09:15:36.000Z</time>
      </trkpt>
      <trkpt lat="43.74214" lon="7.01138">
        <ele>667.5</ele>
        <time>2025-01-25T09:15:41.000Z</time>
      </trkpt>
      <trkpt lat="43.74209" lon="7.0114">
        <ele>669</ele>
        <time>2025-01-25T09:15:48.000Z</time>
      </trkpt>
      <trkpt lat="43.74204" lon="7.01141">
        <ele>670.1</ele>
        <time>2025-01-25T09:15:54.000Z</time>
      </trkpt>
      <trkpt lat="43.742" lon="7.01145">
        <ele>671.3</ele>
        <time>2025-01-25T09:16:00.000Z</time>
      </trkpt>
      <trkpt lat="43.74196" lon="7.0115">
        <ele>672.1</ele>
        <time>2025-01-25T09:16:04.000Z</time>
      </trkpt>
      <trkpt lat="43.74192" lon="7.01155">
        <ele>672.8</ele>
        <time>2025-01-25T09:16:07.000Z</time>
      </trkpt>
      <trkpt lat="43.74187" lon="7.01159">
        <ele>673.7</ele>
        <time>2025-01-25T09:16:11.000Z</time>
      </trkpt>
      <trkpt lat="43.74183" lon="7.01162">
        <ele>674.3</ele>
        <time>2025-01-25T09:16:14.000Z</time>
      </trkpt>
      <trkpt lat="43.74179" lon="7.01165">
        <ele>675.2</ele>
        <time>2025-01-25T09:16:19.000Z</time>
      </trkpt>
      <trkpt lat="43.74176" lon="7.01171">
        <ele>675.8</ele>
        <time>2025-01-25T09:16:24.000Z</time>
      </trkpt>
      <trkpt lat="43.74172" lon="7.01176">
        <ele>676.6</ele>
        <time>2025-01-25T09:16:29.000Z</time>
      </trkpt>
      <trkpt lat="43.74167" lon="7.01179">
        <ele>677.7</ele>
        <time>2025-01-25T09:16:35.000Z</time>
      </trkpt>
      <trkpt lat="43.74164" lon="7.01184">
        <ele>678.5</ele>
        <time>2025-01-25T09:16:40.000Z</time>
      </trkpt>
      <trkpt lat="43.74159" lon="7.01187">
        <ele>679.6</ele>
        <time>2025-01-25T09:16:45.000Z</time>
      </trkpt>
      <trkpt lat="43.74156" lon="7.01192">
        <ele>680.9</ele>
        <time>2025-01-25T09:16:50.000Z</time>
      </trkpt>
      <trkpt lat="43.74153" lon="7.01197">
        <ele>681.8</ele>
        <time>2025-01-25T09:16:54.000Z</time>
      </trkpt>
      <trkpt lat="43.74148" lon="7.01201">
        <ele>683.3</ele>
        <time>2025-01-25T09:16:59.000Z</time>
      </trkpt>
      <trkpt lat="43.74144" lon="7.01204">
        <ele>684.8</ele>
        <time>2025-01-25T09:17:04.000Z</time>
      </trkpt>
      <trkpt lat="43.74139" lon="7.01204">
        <ele>685.5</ele>
        <time>2025-01-25T09:17:07.000Z</time>
      </trkpt>
      <trkpt lat="43.74134" lon="7.01201">
        <ele>686.2</ele>
        <time>2025-01-25T09:17:13.000Z</time>
      </trkpt>
      <trkpt lat="43.7413" lon="7.01194">
        <ele>686.6</ele>
        <time>2025-01-25T09:17:19.000Z</time>
      </trkpt>
      <trkpt lat="43.74127" lon="7.01188">
        <ele>686.8</ele>
        <time>2025-01-25T09:17:24.000Z</time>
      </trkpt>
      <trkpt lat="43.74125" lon="7.01181">
        <ele>687.1</ele>
        <time>2025-01-25T09:17:29.000Z</time>
      </trkpt>
      <trkpt lat="43.74122" lon="7.01174">
        <ele>687.6</ele>
        <time>2025-01-25T09:17:34.000Z</time>
      </trkpt>
      <trkpt lat="43.74118" lon="7.0117">
        <ele>688.5</ele>
        <time>2025-01-25T09:17:39.000Z</time>
      </trkpt>
      <trkpt lat="43.74114" lon="7.01174">
        <ele>689.6</ele>
        <time>2025-01-25T09:17:45.000Z</time>
      </trkpt>
      <trkpt lat="43.74112" lon="7.0118">
        <ele>690.3</ele>
        <time>2025-01-25T09:17:50.000Z</time>
      </trkpt>
      <trkpt lat="43.74112" lon="7.01189">
        <ele>690.9</ele>
        <time>2025-01-25T09:17:55.000Z</time>
      </trkpt>
      <trkpt lat="43.74112" lon="7.01195">
        <ele>691.2</ele>
        <time>2025-01-25T09:17:58.000Z</time>
      </trkpt>
      <trkpt lat="43.74112" lon="7.01203">
        <ele>691.9</ele>
        <time>2025-01-25T09:18:03.000Z</time>
      </trkpt>
      <trkpt lat="43.74112" lon="7.01209">
        <ele>692.4</ele>
        <time>2025-01-25T09:18:07.000Z</time>
      </trkpt>
      <trkpt lat="43.74113" lon="7.01217">
        <ele>692.9</ele>
        <time>2025-01-25T09:18:11.000Z</time>
      </trkpt>
      <trkpt lat="43.74115" lon="7.01224">
        <ele>693.5</ele>
        <time>2025-01-25T09:18:15.000Z</time>
      </trkpt>
      <trkpt lat="43.74119" lon="7.01229">
        <ele>694.2</ele>
        <time>2025-01-25T09:18:20.000Z</time>
      </trkpt>
      <trkpt lat="43.74123" lon="7.01232">
        <ele>694.6</ele>
        <time>2025-01-25T09:18:24.000Z</time>
      </trkpt>
      <trkpt lat="43.74127" lon="7.01236">
        <ele>695.2</ele>
        <time>2025-01-25T09:18:28.000Z</time>
      </trkpt>
      <trkpt lat="43.74131" lon="7.0124">
        <ele>695.7</ele>
        <time>2025-01-25T09:18:32.000Z</time>
      </trkpt>
      <trkpt lat="43.74135" lon="7.01245">
        <ele>696.7</ele>
        <time>2025-01-25T09:18:39.000Z</time>
      </trkpt>
      <trkpt lat="43.74138" lon="7.01249">
        <ele>697.1</ele>
        <time>2025-01-25T09:18:43.000Z</time>
      </trkpt>
      <trkpt lat="43.74143" lon="7.01253">
        <ele>697.5</ele>
        <time>2025-01-25T09:18:47.000Z</time>
      </trkpt>
      <trkpt lat="43.74148" lon="7.01258">
        <ele>697.7</ele>
        <time>2025-01-25T09:18:50.000Z</time>
      </trkpt>
      <trkpt lat="43.74152" lon="7.01262">
        <ele>698</ele>
        <time>2025-01-25T09:18:53.000Z</time>
      </trkpt>
      <trkpt lat="43.74156" lon="7.01266">
        <ele>698.4</ele>
        <time>2025-01-25T09:18:57.000Z</time>
      </trkpt>
      <trkpt lat="43.74161" lon="7.0127">
        <ele>699</ele>
        <time>2025-01-25T09:19:02.000Z</time>
      </trkpt>
      <trkpt lat="43.74165" lon="7.01272">
        <ele>700.2</ele>
        <time>2025-01-25T09:19:08.000Z</time>
      </trkpt>
      <trkpt lat="43.74168" lon="7.01277">
        <ele>701.2</ele>
        <time>2025-01-25T09:19:13.000Z</time>
      </trkpt>
      <trkpt lat="43.74168" lon="7.01284">
        <ele>702.4</ele>
        <time>2025-01-25T09:19:19.000Z</time>
      </trkpt>
      <trkpt lat="43.74163" lon="7.01287">
        <ele>703.5</ele>
        <time>2025-01-25T09:19:25.000Z</time>
      </trkpt>
      <trkpt lat="43.74158" lon="7.0129">
        <ele>704.5</ele>
        <time>2025-01-25T09:19:30.000Z</time>
      </trkpt>
      <trkpt lat="43.74153" lon="7.0129">
        <ele>705.1</ele>
        <time>2025-01-25T09:19:33.000Z</time>
      </trkpt>
      <trkpt lat="43.74149" lon="7.01292">
        <ele>705.4</ele>
        <time>2025-01-25T09:19:37.000Z</time>
      </trkpt>
      <trkpt lat="43.74144" lon="7.01292">
        <ele>705.9</ele>
        <time>2025-01-25T09:19:41.000Z</time>
      </trkpt>
      <trkpt lat="43.74139" lon="7.01292">
        <ele>706.4</ele>
        <time>2025-01-25T09:19:46.000Z</time>
      </trkpt>
      <trkpt lat="43.74134" lon="7.01294">
        <ele>706.9</ele>
        <time>2025-01-25T09:19:50.000Z</time>
      </trkpt>
      <trkpt lat="43.7413" lon="7.01294">
        <ele>707.9</ele>
        <time>2025-01-25T09:19:55.000Z</time>
      </trkpt>
      <trkpt lat="43.74123" lon="7.01295">
        <ele>709.2</ele>
        <time>2025-01-25T09:20:00.000Z</time>
      </trkpt>
      <trkpt lat="43.74117" lon="7.01294">
        <ele>710.2</ele>
        <time>2025-01-25T09:20:04.000Z</time>
      </trkpt>
      <trkpt lat="43.74112" lon="7.01293">
        <ele>710.9</ele>
        <time>2025-01-25T09:20:07.000Z</time>
      </trkpt>
      <trkpt lat="43.74106" lon="7.0129">
        <ele>711.3</ele>
        <time>2025-01-25T09:20:11.000Z</time>
      </trkpt>
      <trkpt lat="43.74099" lon="7.01288">
        <ele>711.5</ele>
        <time>2025-01-25T09:20:14.000Z</time>
      </trkpt>
      <trkpt lat="43.74094" lon="7.01283">
        <ele>711.5</ele>
        <time>2025-01-25T09:20:17.000Z</time>
      </trkpt>
      <trkpt lat="43.7409" lon="7.01279">
        <ele>711.5</ele>
        <time>2025-01-25T09:20:19.000Z</time>
      </trkpt>
      <trkpt lat="43.74085" lon="7.01276">
        <ele>711.3</ele>
        <time>2025-01-25T09:20:21.000Z</time>
      </trkpt>
      <trkpt lat="43.74079" lon="7.01273">
        <ele>711.2</ele>
        <time>2025-01-25T09:20:23.000Z</time>
      </trkpt>
      <trkpt lat="43.74073" lon="7.01272">
        <ele>711.2</ele>
        <time>2025-01-25T09:20:25.000Z</time>
      </trkpt>
      <trkpt lat="43.74067" lon="7.01269">
        <ele>711.2</ele>
        <time>2025-01-25T09:20:28.000Z</time>
      </trkpt>
      <trkpt lat="43.74061" lon="7.01267">
        <ele>711.2</ele>
        <time>2025-01-25T09:20:32.000Z</time>
      </trkpt>
      <trkpt lat="43.74057" lon="7.01264">
        <ele>711.2</ele>
        <time>2025-01-25T09:20:35.000Z</time>
      </trkpt>
      <trkpt lat="43.74051" lon="7.01261">
        <ele>711.3</ele>
        <time>2025-01-25T09:20:38.000Z</time>
      </trkpt>
      <trkpt lat="43.74046" lon="7.01257">
        <ele>711.4</ele>
        <time>2025-01-25T09:20:41.000Z</time>
      </trkpt>
      <trkpt lat="43.7404" lon="7.01256">
        <ele>711.7</ele>
        <time>2025-01-25T09:20:44.000Z</time>
      </trkpt>
      <trkpt lat="43.74035" lon="7.01258">
        <ele>711.9</ele>
        <time>2025-01-25T09:20:46.000Z</time>
      </trkpt>
      <trkpt lat="43.74032" lon="7.01258">
        <ele>712.9</ele>
        <time>2025-01-25T09:20:56.000Z</time>
      </trkpt>
      <trkpt lat="43.74032" lon="7.01258">
        <ele>713</ele>
        <time>2025-01-25T09:20:57.000Z</time>
      </trkpt>
      <trkpt lat="43.74032" lon="7.01258">
        <ele>713</ele>
        <time>2025-01-25T09:20:58.000Z</time>
      </trkpt>
      <trkpt lat="43.74032" lon="7.01256">
        <ele>713.4</ele>
        <time>2025-01-25T09:21:51.000Z</time>
      </trkpt>
      <trkpt lat="43.74032" lon="7.01256">
        <ele>713.4</ele>
        <time>2025-01-25T09:21:52.000Z</time>
      </trkpt>
      <trkpt lat="43.74032" lon="7.01256">
        <ele>713.4</ele>
        <time>2025-01-25T09:21:53.000Z</time>
      </trkpt>
      <trkpt lat="43.74032" lon="7.01256">
        <ele>713.4</ele>
        <time>2025-01-25T09:21:54.000Z</time>
      </trkpt>
      <trkpt lat="43.74032" lon="7.01256">
        <ele>713.4</ele>
        <time>2025-01-25T09:21:55.000Z</time>
      </trkpt>
      <trkpt lat="43.74031" lon="7.01256">
        <ele>713</ele>
        <time>2025-01-25T09:24:28.000Z</time>
      </trkpt>
      <trkpt lat="43.74031" lon="7.01256">
        <ele>713</ele>
        <time>2025-01-25T09:24:29.000Z</time>
      </trkpt>
      <trkpt lat="43.74031" lon="7.01256">
        <ele>713</ele>
        <time>2025-01-25T09:24:30.000Z</time>
      </trkpt>
      <trkpt lat="43.74031" lon="7.01256">
        <ele>713</ele>
        <time>2025-01-25T09:24:34.000Z</time>
      </trkpt>
      <trkpt lat="43.74031" lon="7.01256">
        <ele>713</ele>
        <time>2025-01-25T09:24:35.000Z</time>
      </trkpt>
      <trkpt lat="43.74031" lon="7.01256">
        <ele>713.1</ele>
        <time>2025-01-25T09:24:40.000Z</time>
      </trkpt>
      <trkpt lat="43.74031" lon="7.01256">
        <ele>713.1</ele>
        <time>2025-01-25T09:24:41.000Z</time>
      </trkpt>
      <trkpt lat="43.74031" lon="7.01256">
        <ele>713.1</ele>
        <time>2025-01-25T09:24:42.000Z</time>
      </trkpt>
      <trkpt lat="43.74031" lon="7.01256">
        <ele>713.1</ele>
        <time>2025-01-25T09:24:43.000Z</time>
      </trkpt>
      <trkpt lat="43.74031" lon="7.01256">
        <ele>713.1</ele>
        <time>2025-01-25T09:24:44.000Z</time>
      </trkpt>
      <trkpt lat="43.74031" lon="7.01256">
        <ele>713.1</ele>
        <time>2025-01-25T09:24:45.000Z</time>
      </trkpt>
      <trkpt lat="43.7403" lon="7.01255">
        <ele>713.1</ele>
        <time>2025-01-25T09:24:46.000Z</time>
      </trkpt>
      <trkpt lat="43.74029" lon="7.01256">
        <ele>713.1</ele>
        <time>2025-01-25T09:24:47.000Z</time>
      </trkpt>
      <trkpt lat="43.74028" lon="7.01256">
        <ele>713.1</ele>
        <time>2025-01-25T09:24:48.000Z</time>
      </trkpt>
      <trkpt lat="43.74024" lon="7.01259">
        <ele>713.2</ele>
        <time>2025-01-25T09:24:52.000Z</time>
      </trkpt>
      <trkpt lat="43.7402" lon="7.01262">
        <ele>713.2</ele>
        <time>2025-01-25T09:24:55.000Z</time>
      </trkpt>
      <trkpt lat="43.74014" lon="7.01266">
        <ele>713.4</ele>
        <time>2025-01-25T09:24:59.000Z</time>
      </trkpt>
      <trkpt lat="43.7401" lon="7.01269">
        <ele>713.7</ele>
        <time>2025-01-25T09:25:02.000Z</time>
      </trkpt>
      <trkpt lat="43.74006" lon="7.01274">
        <ele>713.9</ele>
        <time>2025-01-25T09:25:05.000Z</time>
      </trkpt>
      <trkpt lat="43.74002" lon="7.01277">
        <ele>714.3</ele>
        <time>2025-01-25T09:25:08.000Z</time>
      </trkpt>
      <trkpt lat="43.73997" lon="7.01281">
        <ele>714.8</ele>
        <time>2025-01-25T09:25:12.000Z</time>
      </trkpt>
      <trkpt lat="43.73992" lon="7.01284">
        <ele>715.3</ele>
        <time>2025-01-25T09:25:16.000Z</time>
      </trkpt>
      <trkpt lat="43.73987" lon="7.01288">
        <ele>715.4</ele>
        <time>2025-01-25T09:25:20.000Z</time>
      </trkpt>
      <trkpt lat="43.73982" lon="7.0129">
        <ele>715.8</ele>
        <time>2025-01-25T09:25:24.000Z</time>
      </trkpt>
      <trkpt lat="43.73976" lon="7.01289">
        <ele>716.3</ele>
        <time>2025-01-25T09:25:28.000Z</time>
      </trkpt>
      <trkpt lat="43.73971" lon="7.01286">
        <ele>716.7</ele>
        <time>2025-01-25T09:25:31.000Z</time>
      </trkpt>
      <trkpt lat="43.73966" lon="7.01285">
        <ele>717.2</ele>
        <time>2025-01-25T09:25:34.000Z</time>
      </trkpt>
      <trkpt lat="43.7396" lon="7.01285">
        <ele>718.6</ele>
        <time>2025-01-25T09:25:40.000Z</time>
      </trkpt>
      <trkpt lat="43.73956" lon="7.01286">
        <ele>719.8</ele>
        <time>2025-01-25T09:25:45.000Z</time>
      </trkpt>
      <trkpt lat="43.73951" lon="7.0129">
        <ele>720.9</ele>
        <time>2025-01-25T09:25:50.000Z</time>
      </trkpt>
      <trkpt lat="43.73947" lon="7.01295">
        <ele>721.9</ele>
        <time>2025-01-25T09:25:54.000Z</time>
      </trkpt>
      <trkpt lat="43.73943" lon="7.01298">
        <ele>722.7</ele>
        <time>2025-01-25T09:25:58.000Z</time>
      </trkpt>
      <trkpt lat="43.73938" lon="7.013">
        <ele>723.6</ele>
        <time>2025-01-25T09:26:03.000Z</time>
      </trkpt>
      <trkpt lat="43.73933" lon="7.01301">
        <ele>724.3</ele>
        <time>2025-01-25T09:26:07.000Z</time>
      </trkpt>
      <trkpt lat="43.73928" lon="7.01301">
        <ele>725.2</ele>
        <time>2025-01-25T09:26:12.000Z</time>
      </trkpt>
      <trkpt lat="43.73923" lon="7.01303">
        <ele>726.4</ele>
        <time>2025-01-25T09:26:19.000Z</time>
      </trkpt>
      <trkpt lat="43.73918" lon="7.01304">
        <ele>727</ele>
        <time>2025-01-25T09:26:22.000Z</time>
      </trkpt>
      <trkpt lat="43.73913" lon="7.01305">
        <ele>727.4</ele>
        <time>2025-01-25T09:26:26.000Z</time>
      </trkpt>
      <trkpt lat="43.73909" lon="7.01308">
        <ele>727.7</ele>
        <time>2025-01-25T09:26:30.000Z</time>
      </trkpt>
      <trkpt lat="43.73904" lon="7.0131">
        <ele>728.1</ele>
        <time>2025-01-25T09:26:34.000Z</time>
      </trkpt>
      <trkpt lat="43.73899" lon="7.0131">
        <ele>728.5</ele>
        <time>2025-01-25T09:26:38.000Z</time>
      </trkpt>
      <trkpt lat="43.73894" lon="7.01309">
        <ele>728.9</ele>
        <time>2025-01-25T09:26:41.000Z</time>
      </trkpt>
      <trkpt lat="43.7389" lon="7.01309">
        <ele>729.3</ele>
        <time>2025-01-25T09:26:45.000Z</time>
      </trkpt>
      <trkpt lat="43.73884" lon="7.01309">
        <ele>730</ele>
        <time>2025-01-25T09:26:49.000Z</time>
      </trkpt>
      <trkpt lat="43.73879" lon="7.01311">
        <ele>731</ele>
        <time>2025-01-25T09:26:53.000Z</time>
      </trkpt>
      <trkpt lat="43.73875" lon="7.01314">
        <ele>732.3</ele>
        <time>2025-01-25T09:26:57.000Z</time>
      </trkpt>
      <trkpt lat="43.7387" lon="7.01316">
        <ele>733.7</ele>
        <time>2025-01-25T09:27:01.000Z</time>
      </trkpt>
      <trkpt lat="43.73865" lon="7.0132">
        <ele>735.2</ele>
        <time>2025-01-25T09:27:06.000Z</time>
      </trkpt>
      <trkpt lat="43.73861" lon="7.01323">
        <ele>736.4</ele>
        <time>2025-01-25T09:27:11.000Z</time>
      </trkpt>
      <trkpt lat="43.73855" lon="7.01325">
        <ele>737.6</ele>
        <time>2025-01-25T09:27:16.000Z</time>
      </trkpt>
      <trkpt lat="43.73849" lon="7.01327">
        <ele>738.7</ele>
        <time>2025-01-25T09:27:20.000Z</time>
      </trkpt>
      <trkpt lat="43.73844" lon="7.01331">
        <ele>739.4</ele>
        <time>2025-01-25T09:27:24.000Z</time>
      </trkpt>
      <trkpt lat="43.73839" lon="7.01335">
        <ele>740.1</ele>
        <time>2025-01-25T09:27:28.000Z</time>
      </trkpt>
      <trkpt lat="43.73835" lon="7.01338">
        <ele>740.8</ele>
        <time>2025-01-25T09:27:33.000Z</time>
      </trkpt>
      <trkpt lat="43.73832" lon="7.01343">
        <ele>741.4</ele>
        <time>2025-01-25T09:27:38.000Z</time>
      </trkpt>
      <trkpt lat="43.73828" lon="7.0135">
        <ele>741.7</ele>
        <time>2025-01-25T09:27:41.000Z</time>
      </trkpt>
      <trkpt lat="43.73824" lon="7.01356">
        <ele>741.9</ele>
        <time>2025-01-25T09:27:44.000Z</time>
      </trkpt>
      <trkpt lat="43.73821" lon="7.01362">
        <ele>742.3</ele>
        <time>2025-01-25T09:27:48.000Z</time>
      </trkpt>
      <trkpt lat="43.73819" lon="7.01369">
        <ele>742.9</ele>
        <time>2025-01-25T09:27:53.000Z</time>
      </trkpt>
      <trkpt lat="43.73819" lon="7.01375">
        <ele>743.5</ele>
        <time>2025-01-25T09:27:58.000Z</time>
      </trkpt>
      <trkpt lat="43.73819" lon="7.01382">
        <ele>744.2</ele>
        <time>2025-01-25T09:28:02.000Z</time>
      </trkpt>
      <trkpt lat="43.73821" lon="7.01389">
        <ele>745.1</ele>
        <time>2025-01-25T09:28:06.000Z</time>
      </trkpt>
      <trkpt lat="43.73821" lon="7.01397">
        <ele>745.9</ele>
        <time>2025-01-25T09:28:10.000Z</time>
      </trkpt>
      <trkpt lat="43.7382" lon="7.01404">
        <ele>747.1</ele>
        <time>2025-01-25T09:28:15.000Z</time>
      </trkpt>
      <trkpt lat="43.73818" lon="7.0141">
        <ele>748.2</ele>
        <time>2025-01-25T09:28:20.000Z</time>
      </trkpt>
      <trkpt lat="43.73815" lon="7.01416">
        <ele>749.4</ele>
        <time>2025-01-25T09:28:26.000Z</time>
      </trkpt>
      <trkpt lat="43.73812" lon="7.0142">
        <ele>750</ele>
        <time>2025-01-25T09:28:30.000Z</time>
      </trkpt>
      <trkpt lat="43.73807" lon="7.01425">
        <ele>750.9</ele>
        <time>2025-01-25T09:28:35.000Z</time>
      </trkpt>
      <trkpt lat="43.73804" lon="7.0143">
        <ele>751.6</ele>
        <time>2025-01-25T09:28:40.000Z</time>
      </trkpt>
      <trkpt lat="43.73802" lon="7.01436">
        <ele>752.4</ele>
        <time>2025-01-25T09:28:44.000Z</time>
      </trkpt>
      <trkpt lat="43.738" lon="7.01443">
        <ele>753.7</ele>
        <time>2025-01-25T09:28:50.000Z</time>
      </trkpt>
      <trkpt lat="43.73799" lon="7.0145">
        <ele>755</ele>
        <time>2025-01-25T09:28:56.000Z</time>
      </trkpt>
      <trkpt lat="43.73799" lon="7.01456">
        <ele>755.7</ele>
        <time>2025-01-25T09:29:00.000Z</time>
      </trkpt>
      <trkpt lat="43.738" lon="7.01463">
        <ele>756.8</ele>
        <time>2025-01-25T09:29:05.000Z</time>
      </trkpt>
      <trkpt lat="43.73797" lon="7.01468">
        <ele>757.8</ele>
        <time>2025-01-25T09:29:11.000Z</time>
      </trkpt>
      <trkpt lat="43.73793" lon="7.01469">
        <ele>758.3</ele>
        <time>2025-01-25T09:29:15.000Z</time>
      </trkpt>
      <trkpt lat="43.73788" lon="7.01467">
        <ele>759.2</ele>
        <time>2025-01-25T09:29:22.000Z</time>
      </trkpt>
      <trkpt lat="43.73784" lon="7.01463">
        <ele>759.6</ele>
        <time>2025-01-25T09:29:25.000Z</time>
      </trkpt>
      <trkpt lat="43.73779" lon="7.0146">
        <ele>759.8</ele>
        <time>2025-01-25T09:29:28.000Z</time>
      </trkpt>
      <trkpt lat="43.73775" lon="7.01458">
        <ele>760</ele>
        <time>2025-01-25T09:29:32.000Z</time>
      </trkpt>
      <trkpt lat="43.7377" lon="7.01456">
        <ele>760.3</ele>
        <time>2025-01-25T09:29:36.000Z</time>
      </trkpt>
      <trkpt lat="43.73764" lon="7.01456">
        <ele>760.6</ele>
        <time>2025-01-25T09:29:40.000Z</time>
      </trkpt>
      <trkpt lat="43.73759" lon="7.01455">
        <ele>760.8</ele>
        <time>2025-01-25T09:29:43.000Z</time>
      </trkpt>
      <trkpt lat="43.73755" lon="7.01452">
        <ele>761</ele>
        <time>2025-01-25T09:29:46.000Z</time>
      </trkpt>
      <trkpt lat="43.7375" lon="7.0145">
        <ele>761.2</ele>
        <time>2025-01-25T09:29:49.000Z</time>
      </trkpt>
      <trkpt lat="43.73744" lon="7.01447">
        <ele>761.6</ele>
        <time>2025-01-25T09:29:53.000Z</time>
      </trkpt>
      <trkpt lat="43.73739" lon="7.01444">
        <ele>762</ele>
        <time>2025-01-25T09:29:57.000Z</time>
      </trkpt>
      <trkpt lat="43.73735" lon="7.01441">
        <ele>762.4</ele>
        <time>2025-01-25T09:30:01.000Z</time>
      </trkpt>
      <trkpt lat="43.7373" lon="7.01438">
        <ele>762.7</ele>
        <time>2025-01-25T09:30:05.000Z</time>
      </trkpt>
      <trkpt lat="43.73725" lon="7.01435">
        <ele>763.1</ele>
        <time>2025-01-25T09:30:09.000Z</time>
      </trkpt>
      <trkpt lat="43.7372" lon="7.01432">
        <ele>763.5</ele>
        <time>2025-01-25T09:30:13.000Z</time>
      </trkpt>
      <trkpt lat="43.73715" lon="7.01434">
        <ele>763.9</ele>
        <time>2025-01-25T09:30:16.000Z</time>
      </trkpt>
      <trkpt lat="43.7371" lon="7.01437">
        <ele>764.7</ele>
        <time>2025-01-25T09:30:21.000Z</time>
      </trkpt>
      <trkpt lat="43.73707" lon="7.01442">
        <ele>765.4</ele>
        <time>2025-01-25T09:30:24.000Z</time>
      </trkpt>
      <trkpt lat="43.73704" lon="7.01447">
        <ele>766.3</ele>
        <time>2025-01-25T09:30:28.000Z</time>
      </trkpt>
      <trkpt lat="43.73699" lon="7.01448">
        <ele>767</ele>
        <time>2025-01-25T09:30:32.000Z</time>
      </trkpt>
      <trkpt lat="43.73694" lon="7.01449">
        <ele>767.9</ele>
        <time>2025-01-25T09:30:36.000Z</time>
      </trkpt>
      <trkpt lat="43.7369" lon="7.01454">
        <ele>769</ele>
        <time>2025-01-25T09:30:40.000Z</time>
      </trkpt>
      <trkpt lat="43.73686" lon="7.01457">
        <ele>770.1</ele>
        <time>2025-01-25T09:30:44.000Z</time>
      </trkpt>
      <trkpt lat="43.73682" lon="7.01461">
        <ele>771.6</ele>
        <time>2025-01-25T09:30:50.000Z</time>
      </trkpt>
      <trkpt lat="43.73679" lon="7.01465">
        <ele>772.5</ele>
        <time>2025-01-25T09:30:54.000Z</time>
      </trkpt>
      <trkpt lat="43.73674" lon="7.01468">
        <ele>773.6</ele>
        <time>2025-01-25T09:30:59.000Z</time>
      </trkpt>
      <trkpt lat="43.73668" lon="7.0147">
        <ele>774.5</ele>
        <time>2025-01-25T09:31:03.000Z</time>
      </trkpt>
      <trkpt lat="43.73663" lon="7.01471">
        <ele>775</ele>
        <time>2025-01-25T09:31:07.000Z</time>
      </trkpt>
      <trkpt lat="43.73658" lon="7.01472">
        <ele>775.4</ele>
        <time>2025-01-25T09:31:12.000Z</time>
      </trkpt>
      <trkpt lat="43.73654" lon="7.01474">
        <ele>775.5</ele>
        <time>2025-01-25T09:31:15.000Z</time>
      </trkpt>
      <trkpt lat="43.73654" lon="7.01474">
        <ele>775.6</ele>
        <time>2025-01-25T09:31:16.000Z</time>
      </trkpt>
      <trkpt lat="43.73654" lon="7.01475">
        <ele>775.6</ele>
        <time>2025-01-25T09:31:17.000Z</time>
      </trkpt>
      <trkpt lat="43.73654" lon="7.01477">
        <ele>775.8</ele>
        <time>2025-01-25T09:31:35.000Z</time>
      </trkpt>
      <trkpt lat="43.73654" lon="7.01477">
        <ele>775.8</ele>
        <time>2025-01-25T09:31:36.000Z</time>
      </trkpt>
      <trkpt lat="43.73654" lon="7.01477">
        <ele>775.8</ele>
        <time>2025-01-25T09:31:37.000Z</time>
      </trkpt>
      <trkpt lat="43.73654" lon="7.01477">
        <ele>775.7</ele>
        <time>2025-01-25T09:31:38.000Z</time>
      </trkpt>
      <trkpt lat="43.73654" lon="7.01477">
        <ele>775.7</ele>
        <time>2025-01-25T09:31:39.000Z</time>
      </trkpt>
      <trkpt lat="43.73653" lon="7.01477">
        <ele>775.7</ele>
        <time>2025-01-25T09:32:04.000Z</time>
      </trkpt>
      <trkpt lat="43.73652" lon="7.01477">
        <ele>775.7</ele>
        <time>2025-01-25T09:32:05.000Z</time>
      </trkpt>
      <trkpt lat="43.73647" lon="7.01478">
        <ele>775.6</ele>
        <time>2025-01-25T09:32:10.000Z</time>
      </trkpt>
      <trkpt lat="43.73643" lon="7.01474">
        <ele>775.6</ele>
        <time>2025-01-25T09:32:14.000Z</time>
      </trkpt>
      <trkpt lat="43.73639" lon="7.01468">
        <ele>775.8</ele>
        <time>2025-01-25T09:32:19.000Z</time>
      </trkpt>
      <trkpt lat="43.73635" lon="7.01464">
        <ele>776.1</ele>
        <time>2025-01-25T09:32:23.000Z</time>
      </trkpt>
      <trkpt lat="43.7363" lon="7.01461">
        <ele>776.9</ele>
        <time>2025-01-25T09:32:28.000Z</time>
      </trkpt>
      <trkpt lat="43.73625" lon="7.01459">
        <ele>777.9</ele>
        <time>2025-01-25T09:32:32.000Z</time>
      </trkpt>
      <trkpt lat="43.7362" lon="7.01458">
        <ele>779.1</ele>
        <time>2025-01-25T09:32:37.000Z</time>
      </trkpt>
      <trkpt lat="43.73615" lon="7.01457">
        <ele>779.7</ele>
        <time>2025-01-25T09:32:40.000Z</time>
      </trkpt>
      <trkpt lat="43.7361" lon="7.01457">
        <ele>780.2</ele>
        <time>2025-01-25T09:32:44.000Z</time>
      </trkpt>
      <trkpt lat="43.73606" lon="7.01459">
        <ele>780.5</ele>
        <time>2025-01-25T09:32:47.000Z</time>
      </trkpt>
      <trkpt lat="43.73601" lon="7.01462">
        <ele>780.8</ele>
        <time>2025-01-25T09:32:51.000Z</time>
      </trkpt>
      <trkpt lat="43.73596" lon="7.01465">
        <ele>781.3</ele>
        <time>2025-01-25T09:32:55.000Z</time>
      </trkpt>
      <trkpt lat="43.73592" lon="7.01468">
        <ele>782.2</ele>
        <time>2025-01-25T09:33:00.000Z</time>
      </trkpt>
      <trkpt lat="43.73587" lon="7.01471">
        <ele>782.8</ele>
        <time>2025-01-25T09:33:04.000Z</time>
      </trkpt>
      <trkpt lat="43.73582" lon="7.01471">
        <ele>783.4</ele>
        <time>2025-01-25T09:33:08.000Z</time>
      </trkpt>
      <trkpt lat="43.73577" lon="7.01469">
        <ele>783.6</ele>
        <time>2025-01-25T09:33:11.000Z</time>
      </trkpt>
      <trkpt lat="43.73571" lon="7.01466">
        <ele>783.7</ele>
        <time>2025-01-25T09:33:14.000Z</time>
      </trkpt>
      <trkpt lat="43.73566" lon="7.01463">
        <ele>783.8</ele>
        <time>2025-01-25T09:33:17.000Z</time>
      </trkpt>
      <trkpt lat="43.73561" lon="7.01461">
        <ele>784</ele>
        <time>2025-01-25T09:33:21.000Z</time>
      </trkpt>
      <trkpt lat="43.73557" lon="7.0146">
        <ele>784.2</ele>
        <time>2025-01-25T09:33:24.000Z</time>
      </trkpt>
      <trkpt lat="43.73551" lon="7.01463">
        <ele>784.6</ele>
        <time>2025-01-25T09:33:28.000Z</time>
      </trkpt>
      <trkpt lat="43.73545" lon="7.01465">
        <ele>785</ele>
        <time>2025-01-25T09:33:31.000Z</time>
      </trkpt>
      <trkpt lat="43.73541" lon="7.01468">
        <ele>785.5</ele>
        <time>2025-01-25T09:33:34.000Z</time>
      </trkpt>
      <trkpt lat="43.73536" lon="7.01471">
        <ele>786.7</ele>
        <time>2025-01-25T09:33:40.000Z</time>
      </trkpt>
      <trkpt lat="43.73531" lon="7.01472">
        <ele>787.5</ele>
        <time>2025-01-25T09:33:44.000Z</time>
      </trkpt>
      <trkpt lat="43.73526" lon="7.01473">
        <ele>788.1</ele>
        <time>2025-01-25T09:33:48.000Z</time>
      </trkpt>
      <trkpt lat="43.73521" lon="7.01473">
        <ele>788.7</ele>
        <time>2025-01-25T09:33:52.000Z</time>
      </trkpt>
      <trkpt lat="43.73517" lon="7.01473">
        <ele>789.5</ele>
        <time>2025-01-25T09:33:57.000Z</time>
      </trkpt>
      <trkpt lat="43.73512" lon="7.01475">
        <ele>790.1</ele>
        <time>2025-01-25T09:34:00.000Z</time>
      </trkpt>
      <trkpt lat="43.73507" lon="7.01475">
        <ele>790.8</ele>
        <time>2025-01-25T09:34:04.000Z</time>
      </trkpt>
      <trkpt lat="43.73502" lon="7.01473">
        <ele>791.5</ele>
        <time>2025-01-25T09:34:08.000Z</time>
      </trkpt>
      <trkpt lat="43.73498" lon="7.01471">
        <ele>791.9</ele>
        <time>2025-01-25T09:34:11.000Z</time>
      </trkpt>
      <trkpt lat="43.73494" lon="7.01467">
        <ele>792.3</ele>
        <time>2025-01-25T09:34:15.000Z</time>
      </trkpt>
      <trkpt lat="43.73489" lon="7.01463">
        <ele>792.6</ele>
        <time>2025-01-25T09:34:19.000Z</time>
      </trkpt>
      <trkpt lat="43.73484" lon="7.01461">
        <ele>793</ele>
        <time>2025-01-25T09:34:23.000Z</time>
      </trkpt>
      <trkpt lat="43.73479" lon="7.01458">
        <ele>793.5</ele>
        <time>2025-01-25T09:34:27.000Z</time>
      </trkpt>
      <trkpt lat="43.73475" lon="7.01455">
        <ele>794.8</ele>
        <time>2025-01-25T09:34:32.000Z</time>
      </trkpt>
      <trkpt lat="43.73469" lon="7.01452">
        <ele>796</ele>
        <time>2025-01-25T09:34:36.000Z</time>
      </trkpt>
      <trkpt lat="43.73464" lon="7.01447">
        <ele>796.6</ele>
        <time>2025-01-25T09:34:40.000Z</time>
      </trkpt>
      <trkpt lat="43.73461" lon="7.01441">
        <ele>797</ele>
        <time>2025-01-25T09:34:43.000Z</time>
      </trkpt>
      <trkpt lat="43.73461" lon="7.01433">
        <ele>797.4</ele>
        <time>2025-01-25T09:34:48.000Z</time>
      </trkpt>
      <trkpt lat="43.73458" lon="7.01427">
        <ele>797.8</ele>
        <time>2025-01-25T09:34:53.000Z</time>
      </trkpt>
      <trkpt lat="43.73458" lon="7.01421">
        <ele>798.2</ele>
        <time>2025-01-25T09:34:57.000Z</time>
      </trkpt>
      <trkpt lat="43.73457" lon="7.01413">
        <ele>798.3</ele>
        <time>2025-01-25T09:35:01.000Z</time>
      </trkpt>
      <trkpt lat="43.73457" lon="7.01404">
        <ele>798.3</ele>
        <time>2025-01-25T09:35:04.000Z</time>
      </trkpt>
      <trkpt lat="43.73458" lon="7.01398">
        <ele>798.2</ele>
        <time>2025-01-25T09:35:07.000Z</time>
      </trkpt>
      <trkpt lat="43.73458" lon="7.0139">
        <ele>798.2</ele>
        <time>2025-01-25T09:35:11.000Z</time>
      </trkpt>
      <trkpt lat="43.73461" lon="7.01382">
        <ele>798.3</ele>
        <time>2025-01-25T09:35:15.000Z</time>
      </trkpt>
      <trkpt lat="43.73465" lon="7.01377">
        <ele>798.3</ele>
        <time>2025-01-25T09:35:18.000Z</time>
      </trkpt>
      <trkpt lat="43.7347" lon="7.01371">
        <ele>798.4</ele>
        <time>2025-01-25T09:35:21.000Z</time>
      </trkpt>
      <trkpt lat="43.73474" lon="7.01367">
        <ele>798.4</ele>
        <time>2025-01-25T09:35:23.000Z</time>
      </trkpt>
      <trkpt lat="43.73479" lon="7.01365">
        <ele>798.5</ele>
        <time>2025-01-25T09:35:26.000Z</time>
      </trkpt>
      <trkpt lat="43.73484" lon="7.0136">
        <ele>798.5</ele>
        <time>2025-01-25T09:35:29.000Z</time>
      </trkpt>
      <trkpt lat="43.73488" lon="7.01354">
        <ele>798.6</ele>
        <time>2025-01-25T09:35:32.000Z</time>
      </trkpt>
      <trkpt lat="43.73492" lon="7.01349">
        <ele>798.9</ele>
        <time>2025-01-25T09:35:36.000Z</time>
      </trkpt>
      <trkpt lat="43.73496" lon="7.01345">
        <ele>799.1</ele>
        <time>2025-01-25T09:35:39.000Z</time>
      </trkpt>
      <trkpt lat="43.73501" lon="7.01342">
        <ele>799.2</ele>
        <time>2025-01-25T09:35:41.000Z</time>
      </trkpt>
      <trkpt lat="43.73507" lon="7.01337">
        <ele>799.2</ele>
        <time>2025-01-25T09:35:43.000Z</time>
      </trkpt>
      <trkpt lat="43.73511" lon="7.01333">
        <ele>799.2</ele>
        <time>2025-01-25T09:35:44.000Z</time>
      </trkpt>
      <trkpt lat="43.73515" lon="7.01329">
        <ele>799.2</ele>
        <time>2025-01-25T09:35:45.000Z</time>
      </trkpt>
      <trkpt lat="43.73521" lon="7.01319">
        <ele>799</ele>
        <time>2025-01-25T09:35:47.000Z</time>
      </trkpt>
      <trkpt lat="43.73523" lon="7.01309">
        <ele>798.9</ele>
        <time>2025-01-25T09:35:49.000Z</time>
      </trkpt>
      <trkpt lat="43.73522" lon="7.01299">
        <ele>799</ele>
        <time>2025-01-25T09:35:52.000Z</time>
      </trkpt>
      <trkpt lat="43.73519" lon="7.01294">
        <ele>799.2</ele>
        <time>2025-01-25T09:35:56.000Z</time>
      </trkpt>
      <trkpt lat="43.73514" lon="7.01292">
        <ele>799.7</ele>
        <time>2025-01-25T09:36:00.000Z</time>
      </trkpt>
      <trkpt lat="43.7351" lon="7.01287">
        <ele>800.3</ele>
        <time>2025-01-25T09:36:04.000Z</time>
      </trkpt>
      <trkpt lat="43.73507" lon="7.01283">
        <ele>801</ele>
        <time>2025-01-25T09:36:08.000Z</time>
      </trkpt>
      <trkpt lat="43.73502" lon="7.01279">
        <ele>801.7</ele>
        <time>2025-01-25T09:36:12.000Z</time>
      </trkpt>
      <trkpt lat="43.73497" lon="7.01275">
        <ele>802.4</ele>
        <time>2025-01-25T09:36:16.000Z</time>
      </trkpt>
      <trkpt lat="43.73493" lon="7.01271">
        <ele>803.4</ele>
        <time>2025-01-25T09:36:21.000Z</time>
      </trkpt>
      <trkpt lat="43.73489" lon="7.01268">
        <ele>804.2</ele>
        <time>2025-01-25T09:36:27.000Z</time>
      </trkpt>
      <trkpt lat="43.73488" lon="7.01267">
        <ele>804.2</ele>
        <time>2025-01-25T09:36:28.000Z</time>
      </trkpt>
      <trkpt lat="43.73488" lon="7.01267">
        <ele>804.3</ele>
        <time>2025-01-25T09:36:29.000Z</time>
      </trkpt>
      <trkpt lat="43.73487" lon="7.01268">
        <ele>804.4</ele>
        <time>2025-01-25T09:36:30.000Z</time>
      </trkpt>
      <trkpt lat="43.73487" lon="7.01268">
        <ele>804.5</ele>
        <time>2025-01-25T09:36:33.000Z</time>
      </trkpt>
      <trkpt lat="43.73487" lon="7.01267">
        <ele>804.5</ele>
        <time>2025-01-25T09:36:34.000Z</time>
      </trkpt>
      <trkpt lat="43.73483" lon="7.01264">
        <ele>804.8</ele>
        <time>2025-01-25T09:36:43.000Z</time>
      </trkpt>
      <trkpt lat="43.73479" lon="7.01257">
        <ele>804.9</ele>
        <time>2025-01-25T09:36:48.000Z</time>
      </trkpt>
      <trkpt lat="43.73475" lon="7.01253">
        <ele>804.9</ele>
        <time>2025-01-25T09:36:50.000Z</time>
      </trkpt>
      <trkpt lat="43.73472" lon="7.01246">
        <ele>804.9</ele>
        <time>2025-01-25T09:36:53.000Z</time>
      </trkpt>
      <trkpt lat="43.73468" lon="7.01241">
        <ele>805</ele>
        <time>2025-01-25T09:36:56.000Z</time>
      </trkpt>
      <trkpt lat="43.73465" lon="7.01235">
        <ele>805.2</ele>
        <time>2025-01-25T09:36:59.000Z</time>
      </trkpt>
      <trkpt lat="43.73462" lon="7.01229">
        <ele>805.5</ele>
        <time>2025-01-25T09:37:02.000Z</time>
      </trkpt>
      <trkpt lat="43.73458" lon="7.01224">
        <ele>806</ele>
        <time>2025-01-25T09:37:05.000Z</time>
      </trkpt>
      <trkpt lat="43.73456" lon="7.01218">
        <ele>806.4</ele>
        <time>2025-01-25T09:37:08.000Z</time>
      </trkpt>
      <trkpt lat="43.73452" lon="7.01211">
        <ele>806.9</ele>
        <time>2025-01-25T09:37:11.000Z</time>
      </trkpt>
      <trkpt lat="43.7345" lon="7.01203">
        <ele>807.5</ele>
        <time>2025-01-25T09:37:14.000Z</time>
      </trkpt>
      <trkpt lat="43.73446" lon="7.01196">
        <ele>808.3</ele>
        <time>2025-01-25T09:37:17.000Z</time>
      </trkpt>
      <trkpt lat="43.73445" lon="7.01188">
        <ele>809.1</ele>
        <time>2025-01-25T09:37:20.000Z</time>
      </trkpt>
      <trkpt lat="43.73444" lon="7.01179">
        <ele>809.9</ele>
        <time>2025-01-25T09:37:23.000Z</time>
      </trkpt>
      <trkpt lat="43.73439" lon="7.01174">
        <ele>810.4</ele>
        <time>2025-01-25T09:37:27.000Z</time>
      </trkpt>
      <trkpt lat="43.73435" lon="7.01167">
        <ele>810.5</ele>
        <time>2025-01-25T09:37:30.000Z</time>
      </trkpt>
      <trkpt lat="43.73433" lon="7.0116">
        <ele>810.5</ele>
        <time>2025-01-25T09:37:33.000Z</time>
      </trkpt>
      <trkpt lat="43.73431" lon="7.01153">
        <ele>810.6</ele>
        <time>2025-01-25T09:37:36.000Z</time>
      </trkpt>
      <trkpt lat="43.73428" lon="7.01147">
        <ele>810.8</ele>
        <time>2025-01-25T09:37:39.000Z</time>
      </trkpt>
      <trkpt lat="43.73423" lon="7.01146">
        <ele>811</ele>
        <time>2025-01-25T09:37:41.000Z</time>
      </trkpt>
      <trkpt lat="43.73417" lon="7.01144">
        <ele>811.3</ele>
        <time>2025-01-25T09:37:44.000Z</time>
      </trkpt>
      <trkpt lat="43.73413" lon="7.01142">
        <ele>811.5</ele>
        <time>2025-01-25T09:37:47.000Z</time>
      </trkpt>
      <trkpt lat="43.73407" lon="7.01141">
        <ele>812.1</ele>
        <time>2025-01-25T09:37:51.000Z</time>
      </trkpt>
      <trkpt lat="43.73403" lon="7.01141">
        <ele>812.5</ele>
        <time>2025-01-25T09:37:54.000Z</time>
      </trkpt>
      <trkpt lat="43.73399" lon="7.01146">
        <ele>813.4</ele>
        <time>2025-01-25T09:37:59.000Z</time>
      </trkpt>
      <trkpt lat="43.73395" lon="7.0115">
        <ele>814.2</ele>
        <time>2025-01-25T09:38:03.000Z</time>
      </trkpt>
      <trkpt lat="43.73392" lon="7.01155">
        <ele>814.8</ele>
        <time>2025-01-25T09:38:06.000Z</time>
      </trkpt>
      <trkpt lat="43.73388" lon="7.0116">
        <ele>815.1</ele>
        <time>2025-01-25T09:38:09.000Z</time>
      </trkpt>
      <trkpt lat="43.73384" lon="7.01164">
        <ele>815.2</ele>
        <time>2025-01-25T09:38:12.000Z</time>
      </trkpt>
      <trkpt lat="43.7338" lon="7.01168">
        <ele>815.3</ele>
        <time>2025-01-25T09:38:14.000Z</time>
      </trkpt>
      <trkpt lat="43.73375" lon="7.01173">
        <ele>815.3</ele>
        <time>2025-01-25T09:38:17.000Z</time>
      </trkpt>
      <trkpt lat="43.73371" lon="7.01177">
        <ele>815.4</ele>
        <time>2025-01-25T09:38:20.000Z</time>
      </trkpt>
      <trkpt lat="43.73365" lon="7.0118">
        <ele>815.7</ele>
        <time>2025-01-25T09:38:23.000Z</time>
      </trkpt>
      <trkpt lat="43.7336" lon="7.01182">
        <ele>815.9</ele>
        <time>2025-01-25T09:38:27.000Z</time>
      </trkpt>
      <trkpt lat="43.73355" lon="7.01183">
        <ele>816.2</ele>
        <time>2025-01-25T09:38:30.000Z</time>
      </trkpt>
      <trkpt lat="43.73352" lon="7.01187">
        <ele>816.6</ele>
        <time>2025-01-25T09:38:33.000Z</time>
      </trkpt>
      <trkpt lat="43.73352" lon="7.01194">
        <ele>817.1</ele>
        <time>2025-01-25T09:38:38.000Z</time>
      </trkpt>
      <trkpt lat="43.73352" lon="7.012">
        <ele>817.6</ele>
        <time>2025-01-25T09:38:43.000Z</time>
      </trkpt>
      <trkpt lat="43.73351" lon="7.01206">
        <ele>818.1</ele>
        <time>2025-01-25T09:38:46.000Z</time>
      </trkpt>
      <trkpt lat="43.73353" lon="7.01212">
        <ele>818.7</ele>
        <time>2025-01-25T09:38:49.000Z</time>
      </trkpt>
      <trkpt lat="43.73357" lon="7.01217">
        <ele>819.3</ele>
        <time>2025-01-25T09:38:52.000Z</time>
      </trkpt>
      <trkpt lat="43.73359" lon="7.01224">
        <ele>819.7</ele>
        <time>2025-01-25T09:38:55.000Z</time>
      </trkpt>
      <trkpt lat="43.73358" lon="7.01231">
        <ele>820.1</ele>
        <time>2025-01-25T09:38:59.000Z</time>
      </trkpt>
      <trkpt lat="43.73356" lon="7.01239">
        <ele>820.3</ele>
        <time>2025-01-25T09:39:03.000Z</time>
      </trkpt>
      <trkpt lat="43.73353" lon="7.01246">
        <ele>820.4</ele>
        <time>2025-01-25T09:39:06.000Z</time>
      </trkpt>
      <trkpt lat="43.7335" lon="7.01251">
        <ele>820.4</ele>
        <time>2025-01-25T09:39:08.000Z</time>
      </trkpt>
      <trkpt lat="43.73345" lon="7.01256">
        <ele>820.5</ele>
        <time>2025-01-25T09:39:11.000Z</time>
      </trkpt>
      <trkpt lat="43.73341" lon="7.01262">
        <ele>820.6</ele>
        <time>2025-01-25T09:39:15.000Z</time>
      </trkpt>
      <trkpt lat="43.73336" lon="7.01265">
        <ele>820.9</ele>
        <time>2025-01-25T09:39:19.000Z</time>
      </trkpt>
      <trkpt lat="43.73331" lon="7.01268">
        <ele>821.3</ele>
        <time>2025-01-25T09:39:23.000Z</time>
      </trkpt>
      <trkpt lat="43.73326" lon="7.01272">
        <ele>821.9</ele>
        <time>2025-01-25T09:39:29.000Z</time>
      </trkpt>
      <trkpt lat="43.73322" lon="7.01276">
        <ele>822.2</ele>
        <time>2025-01-25T09:39:32.000Z</time>
      </trkpt>
      <trkpt lat="43.73318" lon="7.0128">
        <ele>822.6</ele>
        <time>2025-01-25T09:39:37.000Z</time>
      </trkpt>
      <trkpt lat="43.73314" lon="7.01283">
        <ele>822.8</ele>
        <time>2025-01-25T09:39:41.000Z</time>
      </trkpt>
      <trkpt lat="43.7331" lon="7.01287">
        <ele>822.9</ele>
        <time>2025-01-25T09:39:43.000Z</time>
      </trkpt>
      <trkpt lat="43.73306" lon="7.01291">
        <ele>823.1</ele>
        <time>2025-01-25T09:39:45.000Z</time>
      </trkpt>
      <trkpt lat="43.73302" lon="7.01296">
        <ele>823.3</ele>
        <time>2025-01-25T09:39:48.000Z</time>
      </trkpt>
      <trkpt lat="43.73299" lon="7.01301">
        <ele>823.5</ele>
        <time>2025-01-25T09:39:51.000Z</time>
      </trkpt>
      <trkpt lat="43.73296" lon="7.01309">
        <ele>823.6</ele>
        <time>2025-01-25T09:39:54.000Z</time>
      </trkpt>
      <trkpt lat="43.73291" lon="7.01311">
        <ele>823.7</ele>
        <time>2025-01-25T09:39:58.000Z</time>
      </trkpt>
      <trkpt lat="43.73286" lon="7.01312">
        <ele>823.9</ele>
        <time>2025-01-25T09:40:01.000Z</time>
      </trkpt>
      <trkpt lat="43.73282" lon="7.01315">
        <ele>824.3</ele>
        <time>2025-01-25T09:40:04.000Z</time>
      </trkpt>
      <trkpt lat="43.73278" lon="7.01318">
        <ele>825</ele>
        <time>2025-01-25T09:40:08.000Z</time>
      </trkpt>
      <trkpt lat="43.73273" lon="7.0132">
        <ele>826</ele>
        <time>2025-01-25T09:40:13.000Z</time>
      </trkpt>
      <trkpt lat="43.73268" lon="7.01324">
        <ele>827.1</ele>
        <time>2025-01-25T09:40:18.000Z</time>
      </trkpt>
      <trkpt lat="43.73264" lon="7.01328">
        <ele>828</ele>
        <time>2025-01-25T09:40:22.000Z</time>
      </trkpt>
      <trkpt lat="43.73259" lon="7.01334">
        <ele>829.2</ele>
        <time>2025-01-25T09:40:28.000Z</time>
      </trkpt>
      <trkpt lat="43.73255" lon="7.01339">
        <ele>829.6</ele>
        <time>2025-01-25T09:40:32.000Z</time>
      </trkpt>
      <trkpt lat="43.73253" lon="7.01346">
        <ele>830.2</ele>
        <time>2025-01-25T09:40:38.000Z</time>
      </trkpt>
      <trkpt lat="43.73252" lon="7.01352">
        <ele>830.7</ele>
        <time>2025-01-25T09:40:41.000Z</time>
      </trkpt>
      <trkpt lat="43.73249" lon="7.0136">
        <ele>831</ele>
        <time>2025-01-25T09:40:43.000Z</time>
      </trkpt>
      <trkpt lat="43.73248" lon="7.01366">
        <ele>831.5</ele>
        <time>2025-01-25T09:40:46.000Z</time>
      </trkpt>
      <trkpt lat="43.7325" lon="7.01373">
        <ele>832.4</ele>
        <time>2025-01-25T09:40:51.000Z</time>
      </trkpt>
      <trkpt lat="43.73251" lon="7.0138">
        <ele>833</ele>
        <time>2025-01-25T09:40:55.000Z</time>
      </trkpt>
      <trkpt lat="43.73252" lon="7.01387">
        <ele>833.6</ele>
        <time>2025-01-25T09:40:59.000Z</time>
      </trkpt>
      <trkpt lat="43.7325" lon="7.01394">
        <ele>834.1</ele>
        <time>2025-01-25T09:41:02.000Z</time>
      </trkpt>
      <trkpt lat="43.73252" lon="7.014">
        <ele>834.7</ele>
        <time>2025-01-25T09:41:06.000Z</time>
      </trkpt>
      <trkpt lat="43.73255" lon="7.01407">
        <ele>835.3</ele>
        <time>2025-01-25T09:41:10.000Z</time>
      </trkpt>
      <trkpt lat="43.7326" lon="7.01412">
        <ele>836</ele>
        <time>2025-01-25T09:41:15.000Z</time>
      </trkpt>
      <trkpt lat="43.73262" lon="7.01418">
        <ele>836.5</ele>
        <time>2025-01-25T09:41:19.000Z</time>
      </trkpt>
      <trkpt lat="43.73265" lon="7.01424">
        <ele>837.3</ele>
        <time>2025-01-25T09:41:24.000Z</time>
      </trkpt>
      <trkpt lat="43.73269" lon="7.01428">
        <ele>838.1</ele>
        <time>2025-01-25T09:41:30.000Z</time>
      </trkpt>
      <trkpt lat="43.73274" lon="7.01433">
        <ele>838.2</ele>
        <time>2025-01-25T09:41:33.000Z</time>
      </trkpt>
      <trkpt lat="43.73279" lon="7.01438">
        <ele>838.2</ele>
        <time>2025-01-25T09:41:36.000Z</time>
      </trkpt>
      <trkpt lat="43.73283" lon="7.01444">
        <ele>838.3</ele>
        <time>2025-01-25T09:41:39.000Z</time>
      </trkpt>
      <trkpt lat="43.73288" lon="7.0145">
        <ele>838.4</ele>
        <time>2025-01-25T09:41:42.000Z</time>
      </trkpt>
      <trkpt lat="43.7329" lon="7.01458">
        <ele>838.6</ele>
        <time>2025-01-25T09:41:45.000Z</time>
      </trkpt>
      <trkpt lat="43.73294" lon="7.01464">
        <ele>838.7</ele>
        <time>2025-01-25T09:41:48.000Z</time>
      </trkpt>
      <trkpt lat="43.73299" lon="7.01468">
        <ele>838.8</ele>
        <time>2025-01-25T09:41:51.000Z</time>
      </trkpt>
      <trkpt lat="43.73304" lon="7.01472">
        <ele>838.9</ele>
        <time>2025-01-25T09:41:54.000Z</time>
      </trkpt>
      <trkpt lat="43.73308" lon="7.01476">
        <ele>838.9</ele>
        <time>2025-01-25T09:41:56.000Z</time>
      </trkpt>
      <trkpt lat="43.73313" lon="7.01481">
        <ele>838.9</ele>
        <time>2025-01-25T09:41:58.000Z</time>
      </trkpt>
      <trkpt lat="43.73318" lon="7.01488">
        <ele>838.8</ele>
        <time>2025-01-25T09:42:00.000Z</time>
      </trkpt>
      <trkpt lat="43.73323" lon="7.01494">
        <ele>838.7</ele>
        <time>2025-01-25T09:42:02.000Z</time>
      </trkpt>
      <trkpt lat="43.73327" lon="7.015">
        <ele>838.7</ele>
        <time>2025-01-25T09:42:04.000Z</time>
      </trkpt>
      <trkpt lat="43.73331" lon="7.01505">
        <ele>838.6</ele>
        <time>2025-01-25T09:42:06.000Z</time>
      </trkpt>
      <trkpt lat="43.73335" lon="7.01511">
        <ele>838.4</ele>
        <time>2025-01-25T09:42:08.000Z</time>
      </trkpt>
      <trkpt lat="43.7334" lon="7.01518">
        <ele>838</ele>
        <time>2025-01-25T09:42:10.000Z</time>
      </trkpt>
      <trkpt lat="43.73344" lon="7.01525">
        <ele>837.6</ele>
        <time>2025-01-25T09:42:12.000Z</time>
      </trkpt>
      <trkpt lat="43.73349" lon="7.01531">
        <ele>837.3</ele>
        <time>2025-01-25T09:42:14.000Z</time>
      </trkpt>
      <trkpt lat="43.73354" lon="7.01536">
        <ele>836.9</ele>
        <time>2025-01-25T09:42:16.000Z</time>
      </trkpt>
      <trkpt lat="43.73359" lon="7.01541">
        <ele>836.6</ele>
        <time>2025-01-25T09:42:18.000Z</time>
      </trkpt>
      <trkpt lat="43.73364" lon="7.01546">
        <ele>836.4</ele>
        <time>2025-01-25T09:42:20.000Z</time>
      </trkpt>
      <trkpt lat="43.73369" lon="7.01551">
        <ele>836.4</ele>
        <time>2025-01-25T09:42:22.000Z</time>
      </trkpt>
      <trkpt lat="43.73373" lon="7.01556">
        <ele>836.4</ele>
        <time>2025-01-25T09:42:24.000Z</time>
      </trkpt>
      <trkpt lat="43.73378" lon="7.01559">
        <ele>836.3</ele>
        <time>2025-01-25T09:42:26.000Z</time>
      </trkpt>
      <trkpt lat="43.73384" lon="7.01563">
        <ele>836.4</ele>
        <time>2025-01-25T09:42:28.000Z</time>
      </trkpt>
      <trkpt lat="43.73388" lon="7.01567">
        <ele>836.4</ele>
        <time>2025-01-25T09:42:30.000Z</time>
      </trkpt>
      <trkpt lat="43.73393" lon="7.01571">
        <ele>836.4</ele>
        <time>2025-01-25T09:42:32.000Z</time>
      </trkpt>
      <trkpt lat="43.73398" lon="7.01575">
        <ele>836.5</ele>
        <time>2025-01-25T09:42:35.000Z</time>
      </trkpt>
      <trkpt lat="43.73404" lon="7.01581">
        <ele>836.5</ele>
        <time>2025-01-25T09:42:38.000Z</time>
      </trkpt>
      <trkpt lat="43.73409" lon="7.01584">
        <ele>836.4</ele>
        <time>2025-01-25T09:42:40.000Z</time>
      </trkpt>
      <trkpt lat="43.73414" lon="7.01589">
        <ele>836.4</ele>
        <time>2025-01-25T09:42:42.000Z</time>
      </trkpt>
      <trkpt lat="43.73421" lon="7.01595">
        <ele>836.3</ele>
        <time>2025-01-25T09:42:44.000Z</time>
      </trkpt>
      <trkpt lat="43.73428" lon="7.01599">
        <ele>836.2</ele>
        <time>2025-01-25T09:42:46.000Z</time>
      </trkpt>
      <trkpt lat="43.73434" lon="7.01602">
        <ele>836.1</ele>
        <time>2025-01-25T09:42:48.000Z</time>
      </trkpt>
      <trkpt lat="43.73439" lon="7.01605">
        <ele>835.9</ele>
        <time>2025-01-25T09:42:50.000Z</time>
      </trkpt>
      <trkpt lat="43.73445" lon="7.01608">
        <ele>835.7</ele>
        <time>2025-01-25T09:42:52.000Z</time>
      </trkpt>
      <trkpt lat="43.7345" lon="7.01612">
        <ele>835.6</ele>
        <time>2025-01-25T09:42:54.000Z</time>
      </trkpt>
      <trkpt lat="43.73456" lon="7.01617">
        <ele>835.5</ele>
        <time>2025-01-25T09:42:56.000Z</time>
      </trkpt>
      <trkpt lat="43.73464" lon="7.01622">
        <ele>835.6</ele>
        <time>2025-01-25T09:42:58.000Z</time>
      </trkpt>
      <trkpt lat="43.7347" lon="7.01627">
        <ele>835.6</ele>
        <time>2025-01-25T09:43:00.000Z</time>
      </trkpt>
      <trkpt lat="43.73477" lon="7.01632">
        <ele>835.6</ele>
        <time>2025-01-25T09:43:02.000Z</time>
      </trkpt>
      <trkpt lat="43.73482" lon="7.01638">
        <ele>835.6</ele>
        <time>2025-01-25T09:43:04.000Z</time>
      </trkpt>
      <trkpt lat="43.73487" lon="7.01645">
        <ele>835.7</ele>
        <time>2025-01-25T09:43:06.000Z</time>
      </trkpt>
      <trkpt lat="43.73492" lon="7.0165">
        <ele>835.7</ele>
        <time>2025-01-25T09:43:08.000Z</time>
      </trkpt>
      <trkpt lat="43.73497" lon="7.01655">
        <ele>835.8</ele>
        <time>2025-01-25T09:43:10.000Z</time>
      </trkpt>
      <trkpt lat="43.73502" lon="7.01661">
        <ele>835.8</ele>
        <time>2025-01-25T09:43:12.000Z</time>
      </trkpt>
      <trkpt lat="43.73505" lon="7.01666">
        <ele>836</ele>
        <time>2025-01-25T09:43:14.000Z</time>
      </trkpt>
      <trkpt lat="43.73509" lon="7.01672">
        <ele>836.2</ele>
        <time>2025-01-25T09:43:17.000Z</time>
      </trkpt>
      <trkpt lat="43.73513" lon="7.01679">
        <ele>836.5</ele>
        <time>2025-01-25T09:43:20.000Z</time>
      </trkpt>
      <trkpt lat="43.73516" lon="7.01685">
        <ele>836.9</ele>
        <time>2025-01-25T09:43:23.000Z</time>
      </trkpt>
      <trkpt lat="43.7352" lon="7.0169">
        <ele>837.3</ele>
        <time>2025-01-25T09:43:26.000Z</time>
      </trkpt>
      <trkpt lat="43.73526" lon="7.01695">
        <ele>837.6</ele>
        <time>2025-01-25T09:43:29.000Z</time>
      </trkpt>
      <trkpt lat="43.73529" lon="7.01702">
        <ele>837.7</ele>
        <time>2025-01-25T09:43:32.000Z</time>
      </trkpt>
      <trkpt lat="43.7353" lon="7.01711">
        <ele>837.6</ele>
        <time>2025-01-25T09:43:34.000Z</time>
      </trkpt>
      <trkpt lat="43.73531" lon="7.01721">
        <ele>837.5</ele>
        <time>2025-01-25T09:43:36.000Z</time>
      </trkpt>
      <trkpt lat="43.73532" lon="7.01733">
        <ele>837.1</ele>
        <time>2025-01-25T09:43:38.000Z</time>
      </trkpt>
      <trkpt lat="43.73532" lon="7.01744">
        <ele>836.6</ele>
        <time>2025-01-25T09:43:40.000Z</time>
      </trkpt>
      <trkpt lat="43.73533" lon="7.01751">
        <ele>836.4</ele>
        <time>2025-01-25T09:43:41.000Z</time>
      </trkpt>
      <trkpt lat="43.73534" lon="7.01757">
        <ele>836.1</ele>
        <time>2025-01-25T09:43:42.000Z</time>
      </trkpt>
      <trkpt lat="43.73539" lon="7.01767">
        <ele>835.4</ele>
        <time>2025-01-25T09:43:44.000Z</time>
      </trkpt>
      <trkpt lat="43.73542" lon="7.01771">
        <ele>834.9</ele>
        <time>2025-01-25T09:43:45.000Z</time>
      </trkpt>
      <trkpt lat="43.73546" lon="7.01775">
        <ele>834.4</ele>
        <time>2025-01-25T09:43:46.000Z</time>
      </trkpt>
      <trkpt lat="43.73551" lon="7.0178">
        <ele>834</ele>
        <time>2025-01-25T09:43:47.000Z</time>
      </trkpt>
      <trkpt lat="43.73555" lon="7.01783">
        <ele>833.7</ele>
        <time>2025-01-25T09:43:48.000Z</time>
      </trkpt>
      <trkpt lat="43.73559" lon="7.01786">
        <ele>833.4</ele>
        <time>2025-01-25T09:43:51.000Z</time>
      </trkpt>
      <trkpt lat="43.73562" lon="7.01787">
        <ele>833.4</ele>
        <time>2025-01-25T09:43:53.000Z</time>
      </trkpt>
      <trkpt lat="43.73563" lon="7.01787">
        <ele>833.3</ele>
        <time>2025-01-25T09:43:54.000Z</time>
      </trkpt>
      <trkpt lat="43.73564" lon="7.01787">
        <ele>833.3</ele>
        <time>2025-01-25T09:43:55.000Z</time>
      </trkpt>
      <trkpt lat="43.73566" lon="7.0179">
        <ele>833.3</ele>
        <time>2025-01-25T09:44:01.000Z</time>
      </trkpt>
      <trkpt lat="43.73566" lon="7.0179">
        <ele>833.3</ele>
        <time>2025-01-25T09:44:02.000Z</time>
      </trkpt>
      <trkpt lat="43.73566" lon="7.0179">
        <ele>833.2</ele>
        <time>2025-01-25T09:44:03.000Z</time>
      </trkpt>
      <trkpt lat="43.73566" lon="7.0179">
        <ele>833.2</ele>
        <time>2025-01-25T09:44:04.000Z</time>
      </trkpt>
      <trkpt lat="43.73567" lon="7.01791">
        <ele>833.2</ele>
        <time>2025-01-25T09:44:05.000Z</time>
      </trkpt>
      <trkpt lat="43.73569" lon="7.01794">
        <ele>833</ele>
        <time>2025-01-25T09:44:21.000Z</time>
      </trkpt>
      <trkpt lat="43.7357" lon="7.01794">
        <ele>833</ele>
        <time>2025-01-25T09:44:22.000Z</time>
      </trkpt>
      <trkpt lat="43.7357" lon="7.01794">
        <ele>833</ele>
        <time>2025-01-25T09:44:29.000Z</time>
      </trkpt>
      <trkpt lat="43.73571" lon="7.01793">
        <ele>833</ele>
        <time>2025-01-25T09:44:30.000Z</time>
      </trkpt>
      <trkpt lat="43.73568" lon="7.01788">
        <ele>833</ele>
        <time>2025-01-25T09:44:43.000Z</time>
      </trkpt>
      <trkpt lat="43.73567" lon="7.01788">
        <ele>833</ele>
        <time>2025-01-25T09:44:45.000Z</time>
      </trkpt>
      <trkpt lat="43.73567" lon="7.01788">
        <ele>833</ele>
        <time>2025-01-25T09:44:46.000Z</time>
      </trkpt>
      <trkpt lat="43.73567" lon="7.01788">
        <ele>833</ele>
        <time>2025-01-25T09:44:47.000Z</time>
      </trkpt>
      <trkpt lat="43.73567" lon="7.01788">
        <ele>833</ele>
        <time>2025-01-25T09:44:48.000Z</time>
      </trkpt>
      <trkpt lat="43.73567" lon="7.01788">
        <ele>833</ele>
        <time>2025-01-25T09:44:49.000Z</time>
      </trkpt>
      <trkpt lat="43.73567" lon="7.01789">
        <ele>833</ele>
        <time>2025-01-25T09:44:50.000Z</time>
      </trkpt>
      <trkpt lat="43.73567" lon="7.01789">
        <ele>833</ele>
        <time>2025-01-25T09:44:51.000Z</time>
      </trkpt>
      <trkpt lat="43.73567" lon="7.01789">
        <ele>833</ele>
        <time>2025-01-25T09:44:52.000Z</time>
      </trkpt>
      <trkpt lat="43.73567" lon="7.01789">
        <ele>833</ele>
        <time>2025-01-25T09:44:53.000Z</time>
      </trkpt>
      <trkpt lat="43.73568" lon="7.01789">
        <ele>832.9</ele>
        <time>2025-01-25T09:44:54.000Z</time>
      </trkpt>
      <trkpt lat="43.73569" lon="7.0179">
        <ele>832.9</ele>
        <time>2025-01-25T09:44:58.000Z</time>
      </trkpt>
      <trkpt lat="43.73568" lon="7.01791">
        <ele>832.9</ele>
        <time>2025-01-25T09:44:59.000Z</time>
      </trkpt>
      <trkpt lat="43.7357" lon="7.01792">
        <ele>832.9</ele>
        <time>2025-01-25T09:45:10.000Z</time>
      </trkpt>
      <trkpt lat="43.7357" lon="7.01792">
        <ele>832.9</ele>
        <time>2025-01-25T09:45:11.000Z</time>
      </trkpt>
      <trkpt lat="43.7357" lon="7.01792">
        <ele>832.9</ele>
        <time>2025-01-25T09:45:12.000Z</time>
      </trkpt>
      <trkpt lat="43.7357" lon="7.01791">
        <ele>832.9</ele>
        <time>2025-01-25T09:45:13.000Z</time>
      </trkpt>
      <trkpt lat="43.73571" lon="7.01791">
        <ele>833</ele>
        <time>2025-01-25T09:45:14.000Z</time>
      </trkpt>
      <trkpt lat="43.73571" lon="7.01791">
        <ele>833</ele>
        <time>2025-01-25T09:45:15.000Z</time>
      </trkpt>
      <trkpt lat="43.73575" lon="7.01787">
        <ele>833</ele>
        <time>2025-01-25T09:45:35.000Z</time>
      </trkpt>
      <trkpt lat="43.73575" lon="7.01787">
        <ele>833</ele>
        <time>2025-01-25T09:45:36.000Z</time>
      </trkpt>
      <trkpt lat="43.73576" lon="7.01787">
        <ele>833</ele>
        <time>2025-01-25T09:45:37.000Z</time>
      </trkpt>
      <trkpt lat="43.73578" lon="7.01786">
        <ele>833</ele>
        <time>2025-01-25T09:45:46.000Z</time>
      </trkpt>
      <trkpt lat="43.73578" lon="7.01786">
        <ele>833</ele>
        <time>2025-01-25T09:45:47.000Z</time>
      </trkpt>
      <trkpt lat="43.7358" lon="7.01786">
        <ele>833</ele>
        <time>2025-01-25T09:46:04.000Z</time>
      </trkpt>
      <trkpt lat="43.7358" lon="7.01786">
        <ele>833</ele>
        <time>2025-01-25T09:46:05.000Z</time>
      </trkpt>
      <trkpt lat="43.7358" lon="7.01786">
        <ele>833</ele>
        <time>2025-01-25T09:46:08.000Z</time>
      </trkpt>
      <trkpt lat="43.7358" lon="7.01786">
        <ele>833</ele>
        <time>2025-01-25T09:46:09.000Z</time>
      </trkpt>
      <trkpt lat="43.7358" lon="7.01786">
        <ele>833</ele>
        <time>2025-01-25T09:46:31.000Z</time>
      </trkpt>
      <trkpt lat="43.73579" lon="7.01785">
        <ele>833</ele>
        <time>2025-01-25T09:46:32.000Z</time>
      </trkpt>
      <trkpt lat="43.73579" lon="7.01785">
        <ele>833</ele>
        <time>2025-01-25T09:46:33.000Z</time>
      </trkpt>
      <trkpt lat="43.73579" lon="7.01785">
        <ele>833</ele>
        <time>2025-01-25T09:46:34.000Z</time>
      </trkpt>
      <trkpt lat="43.73579" lon="7.01786">
        <ele>833</ele>
        <time>2025-01-25T09:46:35.000Z</time>
      </trkpt>
      <trkpt lat="43.73577" lon="7.01788">
        <ele>833.1</ele>
        <time>2025-01-25T09:47:33.000Z</time>
      </trkpt>
      <trkpt lat="43.73577" lon="7.01788">
        <ele>833.1</ele>
        <time>2025-01-25T09:47:34.000Z</time>
      </trkpt>
      <trkpt lat="43.73577" lon="7.01788">
        <ele>833.1</ele>
        <time>2025-01-25T09:47:35.000Z</time>
      </trkpt>
      <trkpt lat="43.73577" lon="7.01788">
        <ele>833.1</ele>
        <time>2025-01-25T09:47:36.000Z</time>
      </trkpt>
      <trkpt lat="43.73577" lon="7.01788">
        <ele>833.1</ele>
        <time>2025-01-25T09:47:37.000Z</time>
      </trkpt>
      <trkpt lat="43.73577" lon="7.01788">
        <ele>833.1</ele>
        <time>2025-01-25T09:47:38.000Z</time>
      </trkpt>
      <trkpt lat="43.73576" lon="7.01788">
        <ele>833.1</ele>
        <time>2025-01-25T09:47:46.000Z</time>
      </trkpt>
      <trkpt lat="43.73576" lon="7.01787">
        <ele>833.1</ele>
        <time>2025-01-25T09:47:47.000Z</time>
      </trkpt>
      <trkpt lat="43.73576" lon="7.01787">
        <ele>833.1</ele>
        <time>2025-01-25T09:47:48.000Z</time>
      </trkpt>
      <trkpt lat="43.73576" lon="7.01787">
        <ele>833.2</ele>
        <time>2025-01-25T09:47:49.000Z</time>
      </trkpt>
      <trkpt lat="43.73576" lon="7.01787">
        <ele>833.2</ele>
        <time>2025-01-25T09:47:50.000Z</time>
      </trkpt>
      <trkpt lat="43.73578" lon="7.01794">
        <ele>833.2</ele>
        <time>2025-01-25T09:48:53.000Z</time>
      </trkpt>
      <trkpt lat="43.73578" lon="7.01794">
        <ele>833.2</ele>
        <time>2025-01-25T09:49:11.000Z</time>
      </trkpt>
      <trkpt lat="43.73578" lon="7.01794">
        <ele>833.2</ele>
        <time>2025-01-25T09:49:12.000Z</time>
      </trkpt>
      <trkpt lat="43.73577" lon="7.01794">
        <ele>833.2</ele>
        <time>2025-01-25T09:49:16.000Z</time>
      </trkpt>
      <trkpt lat="43.73577" lon="7.01794">
        <ele>833.2</ele>
        <time>2025-01-25T09:49:17.000Z</time>
      </trkpt>
      <trkpt lat="43.73577" lon="7.01794">
        <ele>833.2</ele>
        <time>2025-01-25T09:49:18.000Z</time>
      </trkpt>
      <trkpt lat="43.73576" lon="7.01793">
        <ele>833.2</ele>
        <time>2025-01-25T09:49:19.000Z</time>
      </trkpt>
      <trkpt lat="43.73576" lon="7.01793">
        <ele>833.2</ele>
        <time>2025-01-25T09:49:20.000Z</time>
      </trkpt>
      <trkpt lat="43.73576" lon="7.01793">
        <ele>833.2</ele>
        <time>2025-01-25T09:49:21.000Z</time>
      </trkpt>
      <trkpt lat="43.73576" lon="7.01793">
        <ele>833.2</ele>
        <time>2025-01-25T09:49:22.000Z</time>
      </trkpt>
      <trkpt lat="43.73576" lon="7.01793">
        <ele>833.2</ele>
        <time>2025-01-25T09:49:23.000Z</time>
      </trkpt>
      <trkpt lat="43.73577" lon="7.01792">
        <ele>833.2</ele>
        <time>2025-01-25T09:49:28.000Z</time>
      </trkpt>
      <trkpt lat="43.73578" lon="7.01791">
        <ele>833.2</ele>
        <time>2025-01-25T09:49:29.000Z</time>
      </trkpt>
      <trkpt lat="43.73582" lon="7.01786">
        <ele>833.1</ele>
        <time>2025-01-25T09:49:34.000Z</time>
      </trkpt>
      <trkpt lat="43.73585" lon="7.0178">
        <ele>833.1</ele>
        <time>2025-01-25T09:49:37.000Z</time>
      </trkpt>
      <trkpt lat="43.73588" lon="7.01774">
        <ele>833.1</ele>
        <time>2025-01-25T09:49:40.000Z</time>
      </trkpt>
      <trkpt lat="43.73593" lon="7.01773">
        <ele>833.1</ele>
        <time>2025-01-25T09:49:44.000Z</time>
      </trkpt>
      <trkpt lat="43.73598" lon="7.01775">
        <ele>833.1</ele>
        <time>2025-01-25T09:49:48.000Z</time>
      </trkpt>
      <trkpt lat="43.73603" lon="7.01777">
        <ele>833.1</ele>
        <time>2025-01-25T09:49:51.000Z</time>
      </trkpt>
      <trkpt lat="43.7361" lon="7.0178">
        <ele>833.2</ele>
        <time>2025-01-25T09:49:54.000Z</time>
      </trkpt>
      <trkpt lat="43.73614" lon="7.0178">
        <ele>833.2</ele>
        <time>2025-01-25T09:49:56.000Z</time>
      </trkpt>
      <trkpt lat="43.73618" lon="7.01784">
        <ele>833.2</ele>
        <time>2025-01-25T09:49:59.000Z</time>
      </trkpt>
      <trkpt lat="43.73624" lon="7.01788">
        <ele>833.2</ele>
        <time>2025-01-25T09:50:02.000Z</time>
      </trkpt>
      <trkpt lat="43.73629" lon="7.01792">
        <ele>833.2</ele>
        <time>2025-01-25T09:50:04.000Z</time>
      </trkpt>
      <trkpt lat="43.73636" lon="7.01795">
        <ele>833</ele>
        <time>2025-01-25T09:50:06.000Z</time>
      </trkpt>
      <trkpt lat="43.7364" lon="7.01796">
        <ele>833</ele>
        <time>2025-01-25T09:50:07.000Z</time>
      </trkpt>
      <trkpt lat="43.73645" lon="7.01797">
        <ele>832.9</ele>
        <time>2025-01-25T09:50:08.000Z</time>
      </trkpt>
      <trkpt lat="43.73653" lon="7.01797">
        <ele>832.8</ele>
        <time>2025-01-25T09:50:10.000Z</time>
      </trkpt>
      <trkpt lat="43.73661" lon="7.01797">
        <ele>832.7</ele>
        <time>2025-01-25T09:50:12.000Z</time>
      </trkpt>
      <trkpt lat="43.73668" lon="7.01797">
        <ele>832.5</ele>
        <time>2025-01-25T09:50:14.000Z</time>
      </trkpt>
      <trkpt lat="43.73677" lon="7.01797">
        <ele>832.4</ele>
        <time>2025-01-25T09:50:16.000Z</time>
      </trkpt>
      <trkpt lat="43.73681" lon="7.01797">
        <ele>832.3</ele>
        <time>2025-01-25T09:50:17.000Z</time>
      </trkpt>
      <trkpt lat="43.73686" lon="7.01796">
        <ele>832.2</ele>
        <time>2025-01-25T09:50:18.000Z</time>
      </trkpt>
      <trkpt lat="43.73691" lon="7.01796">
        <ele>832.2</ele>
        <time>2025-01-25T09:50:19.000Z</time>
      </trkpt>
      <trkpt lat="43.73698" lon="7.01794">
        <ele>832.3</ele>
        <time>2025-01-25T09:50:21.000Z</time>
      </trkpt>
      <trkpt lat="43.73705" lon="7.01792">
        <ele>832.3</ele>
        <time>2025-01-25T09:50:23.000Z</time>
      </trkpt>
      <trkpt lat="43.7371" lon="7.01791">
        <ele>832.4</ele>
        <time>2025-01-25T09:50:25.000Z</time>
      </trkpt>
      <trkpt lat="43.73715" lon="7.0179">
        <ele>832.5</ele>
        <time>2025-01-25T09:50:27.000Z</time>
      </trkpt>
      <trkpt lat="43.73722" lon="7.0179">
        <ele>832.6</ele>
        <time>2025-01-25T09:50:29.000Z</time>
      </trkpt>
      <trkpt lat="43.73729" lon="7.0179">
        <ele>832.8</ele>
        <time>2025-01-25T09:50:31.000Z</time>
      </trkpt>
      <trkpt lat="43.73736" lon="7.01792">
        <ele>833</ele>
        <time>2025-01-25T09:50:33.000Z</time>
      </trkpt>
      <trkpt lat="43.73742" lon="7.01793">
        <ele>833.1</ele>
        <time>2025-01-25T09:50:35.000Z</time>
      </trkpt>
      <trkpt lat="43.73748" lon="7.01793">
        <ele>833.3</ele>
        <time>2025-01-25T09:50:37.000Z</time>
      </trkpt>
      <trkpt lat="43.73753" lon="7.01792">
        <ele>833.6</ele>
        <time>2025-01-25T09:50:39.000Z</time>
      </trkpt>
      <trkpt lat="43.73758" lon="7.01792">
        <ele>833.9</ele>
        <time>2025-01-25T09:50:41.000Z</time>
      </trkpt>
      <trkpt lat="43.73763" lon="7.0179">
        <ele>834.3</ele>
        <time>2025-01-25T09:50:43.000Z</time>
      </trkpt>
      <trkpt lat="43.73768" lon="7.0179">
        <ele>834.6</ele>
        <time>2025-01-25T09:50:45.000Z</time>
      </trkpt>
      <trkpt lat="43.73773" lon="7.0179">
        <ele>835</ele>
        <time>2025-01-25T09:50:47.000Z</time>
      </trkpt>
      <trkpt lat="43.73778" lon="7.0179">
        <ele>835.2</ele>
        <time>2025-01-25T09:50:49.000Z</time>
      </trkpt>
      <trkpt lat="43.73784" lon="7.01789">
        <ele>835.5</ele>
        <time>2025-01-25T09:50:51.000Z</time>
      </trkpt>
      <trkpt lat="43.7379" lon="7.0179">
        <ele>835.6</ele>
        <time>2025-01-25T09:50:53.000Z</time>
      </trkpt>
      <trkpt lat="43.73795" lon="7.0179">
        <ele>835.5</ele>
        <time>2025-01-25T09:50:55.000Z</time>
      </trkpt>
      <trkpt lat="43.73801" lon="7.01789">
        <ele>835.5</ele>
        <time>2025-01-25T09:50:57.000Z</time>
      </trkpt>
      <trkpt lat="43.73807" lon="7.01786">
        <ele>835.7</ele>
        <time>2025-01-25T09:51:00.000Z</time>
      </trkpt>
      <trkpt lat="43.73813" lon="7.01782">
        <ele>835.8</ele>
        <time>2025-01-25T09:51:03.000Z</time>
      </trkpt>
      <trkpt lat="43.73819" lon="7.01782">
        <ele>835.8</ele>
        <time>2025-01-25T09:51:05.000Z</time>
      </trkpt>
      <trkpt lat="43.73825" lon="7.01782">
        <ele>835.8</ele>
        <time>2025-01-25T09:51:07.000Z</time>
      </trkpt>
      <trkpt lat="43.7383" lon="7.01783">
        <ele>835.9</ele>
        <time>2025-01-25T09:51:09.000Z</time>
      </trkpt>
      <trkpt lat="43.73836" lon="7.01783">
        <ele>835.9</ele>
        <time>2025-01-25T09:51:11.000Z</time>
      </trkpt>
      <trkpt lat="43.73841" lon="7.01783">
        <ele>836</ele>
        <time>2025-01-25T09:51:13.000Z</time>
      </trkpt>
      <trkpt lat="43.73847" lon="7.01782">
        <ele>836.1</ele>
        <time>2025-01-25T09:51:15.000Z</time>
      </trkpt>
      <trkpt lat="43.73852" lon="7.01782">
        <ele>836.1</ele>
        <time>2025-01-25T09:51:17.000Z</time>
      </trkpt>
      <trkpt lat="43.73858" lon="7.01782">
        <ele>836.2</ele>
        <time>2025-01-25T09:51:19.000Z</time>
      </trkpt>
      <trkpt lat="43.73862" lon="7.01782">
        <ele>836.3</ele>
        <time>2025-01-25T09:51:21.000Z</time>
      </trkpt>
      <trkpt lat="43.73867" lon="7.01782">
        <ele>836.4</ele>
        <time>2025-01-25T09:51:23.000Z</time>
      </trkpt>
      <trkpt lat="43.73873" lon="7.01784">
        <ele>836.7</ele>
        <time>2025-01-25T09:51:26.000Z</time>
      </trkpt>
      <trkpt lat="43.73879" lon="7.01783">
        <ele>837.2</ele>
        <time>2025-01-25T09:51:29.000Z</time>
      </trkpt>
      <trkpt lat="43.73883" lon="7.01779">
        <ele>837.7</ele>
        <time>2025-01-25T09:51:32.000Z</time>
      </trkpt>
      <trkpt lat="43.73889" lon="7.01777">
        <ele>838.8</ele>
        <time>2025-01-25T09:51:36.000Z</time>
      </trkpt>
      <trkpt lat="43.73893" lon="7.01775">
        <ele>839.5</ele>
        <time>2025-01-25T09:51:39.000Z</time>
      </trkpt>
      <trkpt lat="43.73899" lon="7.01776">
        <ele>840.3</ele>
        <time>2025-01-25T09:51:43.000Z</time>
      </trkpt>
      <trkpt lat="43.73903" lon="7.01776">
        <ele>841.1</ele>
        <time>2025-01-25T09:51:47.000Z</time>
      </trkpt>
      <trkpt lat="43.73908" lon="7.01775">
        <ele>841.8</ele>
        <time>2025-01-25T09:51:51.000Z</time>
      </trkpt>
      <trkpt lat="43.73913" lon="7.01773">
        <ele>842.3</ele>
        <time>2025-01-25T09:51:54.000Z</time>
      </trkpt>
      <trkpt lat="43.7392" lon="7.01772">
        <ele>842.9</ele>
        <time>2025-01-25T09:51:57.000Z</time>
      </trkpt>
      <trkpt lat="43.73925" lon="7.01773">
        <ele>843.4</ele>
        <time>2025-01-25T09:52:00.000Z</time>
      </trkpt>
      <trkpt lat="43.7393" lon="7.01773">
        <ele>843.7</ele>
        <time>2025-01-25T09:52:03.000Z</time>
      </trkpt>
      <trkpt lat="43.73936" lon="7.01772">
        <ele>844.1</ele>
        <time>2025-01-25T09:52:07.000Z</time>
      </trkpt>
      <trkpt lat="43.73942" lon="7.01772">
        <ele>844.3</ele>
        <time>2025-01-25T09:52:10.000Z</time>
      </trkpt>
      <trkpt lat="43.73947" lon="7.01774">
        <ele>844.4</ele>
        <time>2025-01-25T09:52:13.000Z</time>
      </trkpt>
      <trkpt lat="43.73953" lon="7.01776">
        <ele>844.6</ele>
        <time>2025-01-25T09:52:16.000Z</time>
      </trkpt>
      <trkpt lat="43.73957" lon="7.01777">
        <ele>844.6</ele>
        <time>2025-01-25T09:52:18.000Z</time>
      </trkpt>
      <trkpt lat="43.73964" lon="7.01778">
        <ele>844.8</ele>
        <time>2025-01-25T09:52:21.000Z</time>
      </trkpt>
      <trkpt lat="43.73969" lon="7.01779">
        <ele>844.9</ele>
        <time>2025-01-25T09:52:24.000Z</time>
      </trkpt>
      <trkpt lat="43.73974" lon="7.0178">
        <ele>845</ele>
        <time>2025-01-25T09:52:26.000Z</time>
      </trkpt>
      <trkpt lat="43.73981" lon="7.01782">
        <ele>845.2</ele>
        <time>2025-01-25T09:52:29.000Z</time>
      </trkpt>
      <trkpt lat="43.73986" lon="7.01784">
        <ele>845.3</ele>
        <time>2025-01-25T09:52:32.000Z</time>
      </trkpt>
      <trkpt lat="43.73992" lon="7.01786">
        <ele>845.5</ele>
        <time>2025-01-25T09:52:35.000Z</time>
      </trkpt>
      <trkpt lat="43.73998" lon="7.01788">
        <ele>845.7</ele>
        <time>2025-01-25T09:52:38.000Z</time>
      </trkpt>
      <trkpt lat="43.74003" lon="7.01788">
        <ele>845.9</ele>
        <time>2025-01-25T09:52:40.000Z</time>
      </trkpt>
      <trkpt lat="43.74008" lon="7.0179">
        <ele>846.1</ele>
        <time>2025-01-25T09:52:42.000Z</time>
      </trkpt>
      <trkpt lat="43.74014" lon="7.01791">
        <ele>846.3</ele>
        <time>2025-01-25T09:52:45.000Z</time>
      </trkpt>
      <trkpt lat="43.7402" lon="7.01791">
        <ele>846.7</ele>
        <time>2025-01-25T09:52:48.000Z</time>
      </trkpt>
      <trkpt lat="43.74025" lon="7.01792">
        <ele>847</ele>
        <time>2025-01-25T09:52:51.000Z</time>
      </trkpt>
      <trkpt lat="43.7403" lon="7.01792">
        <ele>847.4</ele>
        <time>2025-01-25T09:52:54.000Z</time>
      </trkpt>
      <trkpt lat="43.74035" lon="7.01794">
        <ele>848.1</ele>
        <time>2025-01-25T09:52:58.000Z</time>
      </trkpt>
      <trkpt lat="43.74041" lon="7.01796">
        <ele>848.5</ele>
        <time>2025-01-25T09:53:01.000Z</time>
      </trkpt>
      <trkpt lat="43.74046" lon="7.01799">
        <ele>848.8</ele>
        <time>2025-01-25T09:53:04.000Z</time>
      </trkpt>
      <trkpt lat="43.74051" lon="7.01801">
        <ele>849.3</ele>
        <time>2025-01-25T09:53:07.000Z</time>
      </trkpt>
      <trkpt lat="43.74056" lon="7.01802">
        <ele>849.5</ele>
        <time>2025-01-25T09:53:10.000Z</time>
      </trkpt>
      <trkpt lat="43.74062" lon="7.01803">
        <ele>849.8</ele>
        <time>2025-01-25T09:53:13.000Z</time>
      </trkpt>
      <trkpt lat="43.74068" lon="7.01803">
        <ele>849.9</ele>
        <time>2025-01-25T09:53:16.000Z</time>
      </trkpt>
      <trkpt lat="43.74075" lon="7.01803">
        <ele>850</ele>
        <time>2025-01-25T09:53:19.000Z</time>
      </trkpt>
      <trkpt lat="43.7408" lon="7.01804">
        <ele>850.1</ele>
        <time>2025-01-25T09:53:22.000Z</time>
      </trkpt>
      <trkpt lat="43.74085" lon="7.01807">
        <ele>850.3</ele>
        <time>2025-01-25T09:53:25.000Z</time>
      </trkpt>
      <trkpt lat="43.74091" lon="7.0181">
        <ele>850.4</ele>
        <time>2025-01-25T09:53:28.000Z</time>
      </trkpt>
      <trkpt lat="43.74095" lon="7.01811">
        <ele>850.5</ele>
        <time>2025-01-25T09:53:30.000Z</time>
      </trkpt>
      <trkpt lat="43.74101" lon="7.01815">
        <ele>850.6</ele>
        <time>2025-01-25T09:53:33.000Z</time>
      </trkpt>
      <trkpt lat="43.74107" lon="7.01815">
        <ele>850.7</ele>
        <time>2025-01-25T09:53:36.000Z</time>
      </trkpt>
      <trkpt lat="43.74112" lon="7.01816">
        <ele>850.9</ele>
        <time>2025-01-25T09:53:39.000Z</time>
      </trkpt>
      <trkpt lat="43.74118" lon="7.01817">
        <ele>851.1</ele>
        <time>2025-01-25T09:53:42.000Z</time>
      </trkpt>
      <trkpt lat="43.74123" lon="7.01818">
        <ele>851.3</ele>
        <time>2025-01-25T09:53:46.000Z</time>
      </trkpt>
      <trkpt lat="43.74129" lon="7.01817">
        <ele>851.6</ele>
        <time>2025-01-25T09:53:50.000Z</time>
      </trkpt>
      <trkpt lat="43.74134" lon="7.01816">
        <ele>851.8</ele>
        <time>2025-01-25T09:53:53.000Z</time>
      </trkpt>
      <trkpt lat="43.74139" lon="7.01816">
        <ele>852</ele>
        <time>2025-01-25T09:53:55.000Z</time>
      </trkpt>
      <trkpt lat="43.74144" lon="7.01813">
        <ele>852.3</ele>
        <time>2025-01-25T09:53:57.000Z</time>
      </trkpt>
      <trkpt lat="43.7415" lon="7.01813">
        <ele>852.6</ele>
        <time>2025-01-25T09:54:00.000Z</time>
      </trkpt>
      <trkpt lat="43.74156" lon="7.01812">
        <ele>852.8</ele>
        <time>2025-01-25T09:54:02.000Z</time>
      </trkpt>
      <trkpt lat="43.74162" lon="7.01809">
        <ele>853</ele>
        <time>2025-01-25T09:54:04.000Z</time>
      </trkpt>
      <trkpt lat="43.74168" lon="7.01807">
        <ele>853.3</ele>
        <time>2025-01-25T09:54:06.000Z</time>
      </trkpt>
      <trkpt lat="43.74173" lon="7.01804">
        <ele>853.5</ele>
        <time>2025-01-25T09:54:08.000Z</time>
      </trkpt>
      <trkpt lat="43.74178" lon="7.01802">
        <ele>853.9</ele>
        <time>2025-01-25T09:54:10.000Z</time>
      </trkpt>
      <trkpt lat="43.74183" lon="7.018">
        <ele>854.2</ele>
        <time>2025-01-25T09:54:12.000Z</time>
      </trkpt>
      <trkpt lat="43.74188" lon="7.01799">
        <ele>854.6</ele>
        <time>2025-01-25T09:54:14.000Z</time>
      </trkpt>
      <trkpt lat="43.74194" lon="7.01797">
        <ele>854.9</ele>
        <time>2025-01-25T09:54:17.000Z</time>
      </trkpt>
      <trkpt lat="43.74198" lon="7.01795">
        <ele>855.1</ele>
        <time>2025-01-25T09:54:19.000Z</time>
      </trkpt>
      <trkpt lat="43.74204" lon="7.01792">
        <ele>855.5</ele>
        <time>2025-01-25T09:54:22.000Z</time>
      </trkpt>
      <trkpt lat="43.7421" lon="7.01792">
        <ele>856.1</ele>
        <time>2025-01-25T09:54:25.000Z</time>
      </trkpt>
      <trkpt lat="43.74216" lon="7.0179">
        <ele>856.7</ele>
        <time>2025-01-25T09:54:29.000Z</time>
      </trkpt>
      <trkpt lat="43.74222" lon="7.01788">
        <ele>857.2</ele>
        <time>2025-01-25T09:54:32.000Z</time>
      </trkpt>
      <trkpt lat="43.74227" lon="7.01786">
        <ele>857.7</ele>
        <time>2025-01-25T09:54:35.000Z</time>
      </trkpt>
      <trkpt lat="43.74233" lon="7.01785">
        <ele>858.2</ele>
        <time>2025-01-25T09:54:38.000Z</time>
      </trkpt>
      <trkpt lat="43.74238" lon="7.01783">
        <ele>858.7</ele>
        <time>2025-01-25T09:54:41.000Z</time>
      </trkpt>
      <trkpt lat="43.74243" lon="7.01781">
        <ele>859.2</ele>
        <time>2025-01-25T09:54:44.000Z</time>
      </trkpt>
      <trkpt lat="43.74247" lon="7.01779">
        <ele>859.8</ele>
        <time>2025-01-25T09:54:47.000Z</time>
      </trkpt>
      <trkpt lat="43.74253" lon="7.01778">
        <ele>860.4</ele>
        <time>2025-01-25T09:54:51.000Z</time>
      </trkpt>
      <trkpt lat="43.74258" lon="7.01776">
        <ele>860.5</ele>
        <time>2025-01-25T09:54:53.000Z</time>
      </trkpt>
      <trkpt lat="43.74265" lon="7.01774">
        <ele>860.7</ele>
        <time>2025-01-25T09:54:55.000Z</time>
      </trkpt>
      <trkpt lat="43.7427" lon="7.01774">
        <ele>860.8</ele>
        <time>2025-01-25T09:54:57.000Z</time>
      </trkpt>
      <trkpt lat="43.74275" lon="7.01773">
        <ele>861</ele>
        <time>2025-01-25T09:55:00.000Z</time>
      </trkpt>
      <trkpt lat="43.74281" lon="7.01771">
        <ele>861.2</ele>
        <time>2025-01-25T09:55:03.000Z</time>
      </trkpt>
      <trkpt lat="43.74287" lon="7.0177">
        <ele>861.3</ele>
        <time>2025-01-25T09:55:06.000Z</time>
      </trkpt>
      <trkpt lat="43.74292" lon="7.01768">
        <ele>861.5</ele>
        <time>2025-01-25T09:55:08.000Z</time>
      </trkpt>
      <trkpt lat="43.74297" lon="7.01765">
        <ele>861.6</ele>
        <time>2025-01-25T09:55:10.000Z</time>
      </trkpt>
      <trkpt lat="43.74303" lon="7.01761">
        <ele>861.7</ele>
        <time>2025-01-25T09:55:12.000Z</time>
      </trkpt>
      <trkpt lat="43.74308" lon="7.01758">
        <ele>861.8</ele>
        <time>2025-01-25T09:55:14.000Z</time>
      </trkpt>
      <trkpt lat="43.74314" lon="7.01755">
        <ele>861.9</ele>
        <time>2025-01-25T09:55:16.000Z</time>
      </trkpt>
      <trkpt lat="43.7432" lon="7.01753">
        <ele>862</ele>
        <time>2025-01-25T09:55:18.000Z</time>
      </trkpt>
      <trkpt lat="43.74325" lon="7.01754">
        <ele>862.1</ele>
        <time>2025-01-25T09:55:20.000Z</time>
      </trkpt>
      <trkpt lat="43.7433" lon="7.01752">
        <ele>862.1</ele>
        <time>2025-01-25T09:55:22.000Z</time>
      </trkpt>
      <trkpt lat="43.74335" lon="7.01749">
        <ele>862.2</ele>
        <time>2025-01-25T09:55:24.000Z</time>
      </trkpt>
      <trkpt lat="43.7434" lon="7.01746">
        <ele>862.3</ele>
        <time>2025-01-25T09:55:26.000Z</time>
      </trkpt>
      <trkpt lat="43.74344" lon="7.01742">
        <ele>862.5</ele>
        <time>2025-01-25T09:55:28.000Z</time>
      </trkpt>
      <trkpt lat="43.74349" lon="7.01739">
        <ele>862.8</ele>
        <time>2025-01-25T09:55:30.000Z</time>
      </trkpt>
      <trkpt lat="43.74354" lon="7.01737">
        <ele>863</ele>
        <time>2025-01-25T09:55:32.000Z</time>
      </trkpt>
      <trkpt lat="43.74359" lon="7.01734">
        <ele>863.3</ele>
        <time>2025-01-25T09:55:34.000Z</time>
      </trkpt>
      <trkpt lat="43.74364" lon="7.0173">
        <ele>863.9</ele>
        <time>2025-01-25T09:55:37.000Z</time>
      </trkpt>
      <trkpt lat="43.7437" lon="7.01727">
        <ele>864.3</ele>
        <time>2025-01-25T09:55:40.000Z</time>
      </trkpt>
      <trkpt lat="43.74374" lon="7.01723">
        <ele>864.7</ele>
        <time>2025-01-25T09:55:42.000Z</time>
      </trkpt>
      <trkpt lat="43.74379" lon="7.01719">
        <ele>865.1</ele>
        <time>2025-01-25T09:55:45.000Z</time>
      </trkpt>
      <trkpt lat="43.74385" lon="7.01715">
        <ele>865.4</ele>
        <time>2025-01-25T09:55:48.000Z</time>
      </trkpt>
      <trkpt lat="43.74389" lon="7.0171">
        <ele>865.6</ele>
        <time>2025-01-25T09:55:51.000Z</time>
      </trkpt>
      <trkpt lat="43.74395" lon="7.01706">
        <ele>865.8</ele>
        <time>2025-01-25T09:55:54.000Z</time>
      </trkpt>
      <trkpt lat="43.74399" lon="7.01702">
        <ele>866</ele>
        <time>2025-01-25T09:55:56.000Z</time>
      </trkpt>
      <trkpt lat="43.74405" lon="7.01698">
        <ele>866.2</ele>
        <time>2025-01-25T09:55:58.000Z</time>
      </trkpt>
      <trkpt lat="43.74411" lon="7.01695">
        <ele>866.2</ele>
        <time>2025-01-25T09:56:00.000Z</time>
      </trkpt>
      <trkpt lat="43.74415" lon="7.01692">
        <ele>866.3</ele>
        <time>2025-01-25T09:56:02.000Z</time>
      </trkpt>
      <trkpt lat="43.7442" lon="7.01689">
        <ele>866.5</ele>
        <time>2025-01-25T09:56:04.000Z</time>
      </trkpt>
      <trkpt lat="43.74423" lon="7.01683">
        <ele>866.7</ele>
        <time>2025-01-25T09:56:06.000Z</time>
      </trkpt>
      <trkpt lat="43.74428" lon="7.0168">
        <ele>867</ele>
        <time>2025-01-25T09:56:08.000Z</time>
      </trkpt>
      <trkpt lat="43.74433" lon="7.01675">
        <ele>867.3</ele>
        <time>2025-01-25T09:56:10.000Z</time>
      </trkpt>
      <trkpt lat="43.7444" lon="7.01668">
        <ele>867.6</ele>
        <time>2025-01-25T09:56:12.000Z</time>
      </trkpt>
      <trkpt lat="43.74444" lon="7.01664">
        <ele>867.9</ele>
        <time>2025-01-25T09:56:14.000Z</time>
      </trkpt>
      <trkpt lat="43.74449" lon="7.0166">
        <ele>868</ele>
        <time>2025-01-25T09:56:16.000Z</time>
      </trkpt>
      <trkpt lat="43.74453" lon="7.01654">
        <ele>868.1</ele>
        <time>2025-01-25T09:56:18.000Z</time>
      </trkpt>
      <trkpt lat="43.74458" lon="7.0165">
        <ele>868.2</ele>
        <time>2025-01-25T09:56:20.000Z</time>
      </trkpt>
      <trkpt lat="43.74463" lon="7.01647">
        <ele>868.2</ele>
        <time>2025-01-25T09:56:22.000Z</time>
      </trkpt>
      <trkpt lat="43.74468" lon="7.01641">
        <ele>868.3</ele>
        <time>2025-01-25T09:56:26.000Z</time>
      </trkpt>
      <trkpt lat="43.74472" lon="7.01637">
        <ele>868.2</ele>
        <time>2025-01-25T09:56:28.000Z</time>
      </trkpt>
      <trkpt lat="43.74476" lon="7.01632">
        <ele>868.3</ele>
        <time>2025-01-25T09:56:30.000Z</time>
      </trkpt>
      <trkpt lat="43.74481" lon="7.01628">
        <ele>868.4</ele>
        <time>2025-01-25T09:56:32.000Z</time>
      </trkpt>
      <trkpt lat="43.74486" lon="7.01624">
        <ele>868.5</ele>
        <time>2025-01-25T09:56:34.000Z</time>
      </trkpt>
      <trkpt lat="43.74491" lon="7.0162">
        <ele>868.7</ele>
        <time>2025-01-25T09:56:37.000Z</time>
      </trkpt>
      <trkpt lat="43.74495" lon="7.01615">
        <ele>869.1</ele>
        <time>2025-01-25T09:56:40.000Z</time>
      </trkpt>
      <trkpt lat="43.745" lon="7.0161">
        <ele>869.6</ele>
        <time>2025-01-25T09:56:43.000Z</time>
      </trkpt>
      <trkpt lat="43.74505" lon="7.01605">
        <ele>870.3</ele>
        <time>2025-01-25T09:56:46.000Z</time>
      </trkpt>
      <trkpt lat="43.7451" lon="7.01599">
        <ele>871</ele>
        <time>2025-01-25T09:56:49.000Z</time>
      </trkpt>
      <trkpt lat="43.74514" lon="7.01594">
        <ele>871.3</ele>
        <time>2025-01-25T09:56:51.000Z</time>
      </trkpt>
      <trkpt lat="43.74518" lon="7.01588">
        <ele>871.5</ele>
        <time>2025-01-25T09:56:53.000Z</time>
      </trkpt>
      <trkpt lat="43.74523" lon="7.01582">
        <ele>871.7</ele>
        <time>2025-01-25T09:56:55.000Z</time>
      </trkpt>
      <trkpt lat="43.74528" lon="7.01576">
        <ele>871.9</ele>
        <time>2025-01-25T09:56:57.000Z</time>
      </trkpt>
      <trkpt lat="43.74531" lon="7.01571">
        <ele>872</ele>
        <time>2025-01-25T09:56:59.000Z</time>
      </trkpt>
      <trkpt lat="43.74536" lon="7.01565">
        <ele>872.3</ele>
        <time>2025-01-25T09:57:02.000Z</time>
      </trkpt>
      <trkpt lat="43.74541" lon="7.01563">
        <ele>872.5</ele>
        <time>2025-01-25T09:57:04.000Z</time>
      </trkpt>
      <trkpt lat="43.74546" lon="7.0156">
        <ele>872.7</ele>
        <time>2025-01-25T09:57:07.000Z</time>
      </trkpt>
      <trkpt lat="43.74552" lon="7.01554">
        <ele>873</ele>
        <time>2025-01-25T09:57:10.000Z</time>
      </trkpt>
      <trkpt lat="43.74557" lon="7.01554">
        <ele>873.2</ele>
        <time>2025-01-25T09:57:13.000Z</time>
      </trkpt>
      <trkpt lat="43.74564" lon="7.01553">
        <ele>873.5</ele>
        <time>2025-01-25T09:57:16.000Z</time>
      </trkpt>
      <trkpt lat="43.74569" lon="7.01548">
        <ele>873.7</ele>
        <time>2025-01-25T09:57:18.000Z</time>
      </trkpt>
      <trkpt lat="43.74575" lon="7.01545">
        <ele>873.8</ele>
        <time>2025-01-25T09:57:20.000Z</time>
      </trkpt>
      <trkpt lat="43.74579" lon="7.01543">
        <ele>874</ele>
        <time>2025-01-25T09:57:22.000Z</time>
      </trkpt>
      <trkpt lat="43.74585" lon="7.01542">
        <ele>874.2</ele>
        <time>2025-01-25T09:57:24.000Z</time>
      </trkpt>
      <trkpt lat="43.74591" lon="7.0154">
        <ele>874.4</ele>
        <time>2025-01-25T09:57:27.000Z</time>
      </trkpt>
      <trkpt lat="43.74596" lon="7.01539">
        <ele>874.6</ele>
        <time>2025-01-25T09:57:29.000Z</time>
      </trkpt>
      <trkpt lat="43.74602" lon="7.01539">
        <ele>875</ele>
        <time>2025-01-25T09:57:32.000Z</time>
      </trkpt>
      <trkpt lat="43.74606" lon="7.01541">
        <ele>875.4</ele>
        <time>2025-01-25T09:57:35.000Z</time>
      </trkpt>
      <trkpt lat="43.74612" lon="7.01541">
        <ele>876</ele>
        <time>2025-01-25T09:57:38.000Z</time>
      </trkpt>
      <trkpt lat="43.74616" lon="7.0154">
        <ele>876.3</ele>
        <time>2025-01-25T09:57:40.000Z</time>
      </trkpt>
      <trkpt lat="43.74621" lon="7.01538">
        <ele>876.4</ele>
        <time>2025-01-25T09:57:42.000Z</time>
      </trkpt>
      <trkpt lat="43.74626" lon="7.01537">
        <ele>876.7</ele>
        <time>2025-01-25T09:57:44.000Z</time>
      </trkpt>
      <trkpt lat="43.74632" lon="7.01535">
        <ele>877.1</ele>
        <time>2025-01-25T09:57:49.000Z</time>
      </trkpt>
      <trkpt lat="43.74632" lon="7.01533">
        <ele>877.3</ele>
        <time>2025-01-25T09:57:53.000Z</time>
      </trkpt>
      <trkpt lat="43.74632" lon="7.01531">
        <ele>877.3</ele>
        <time>2025-01-25T09:57:54.000Z</time>
      </trkpt>
      <trkpt lat="43.74631" lon="7.0153">
        <ele>877.3</ele>
        <time>2025-01-25T09:57:55.000Z</time>
      </trkpt>
      <trkpt lat="43.74631" lon="7.01528">
        <ele>877.5</ele>
        <time>2025-01-25T09:58:06.000Z</time>
      </trkpt>
      <trkpt lat="43.74631" lon="7.01528">
        <ele>877.5</ele>
        <time>2025-01-25T09:58:07.000Z</time>
      </trkpt>
      <trkpt lat="43.7463" lon="7.01528">
        <ele>877.5</ele>
        <time>2025-01-25T09:58:08.000Z</time>
      </trkpt>
      <trkpt lat="43.74629" lon="7.01528">
        <ele>877.5</ele>
        <time>2025-01-25T09:58:09.000Z</time>
      </trkpt>
      <trkpt lat="43.74629" lon="7.01527">
        <ele>877.5</ele>
        <time>2025-01-25T09:58:10.000Z</time>
      </trkpt>
      <trkpt lat="43.74634" lon="7.01525">
        <ele>877.6</ele>
        <time>2025-01-25T09:58:31.000Z</time>
      </trkpt>
      <trkpt lat="43.74636" lon="7.01522">
        <ele>877.6</ele>
        <time>2025-01-25T09:58:51.000Z</time>
      </trkpt>
      <trkpt lat="43.74637" lon="7.01522">
        <ele>877.6</ele>
        <time>2025-01-25T09:58:52.000Z</time>
      </trkpt>
      <trkpt lat="43.74638" lon="7.01521">
        <ele>877.6</ele>
        <time>2025-01-25T09:58:53.000Z</time>
      </trkpt>
      <trkpt lat="43.74643" lon="7.01519">
        <ele>877.6</ele>
        <time>2025-01-25T09:58:57.000Z</time>
      </trkpt>
      <trkpt lat="43.74648" lon="7.01516">
        <ele>877.7</ele>
        <time>2025-01-25T09:59:00.000Z</time>
      </trkpt>
      <trkpt lat="43.74653" lon="7.01514">
        <ele>877.8</ele>
        <time>2025-01-25T09:59:03.000Z</time>
      </trkpt>
      <trkpt lat="43.74659" lon="7.01509">
        <ele>878</ele>
        <time>2025-01-25T09:59:06.000Z</time>
      </trkpt>
      <trkpt lat="43.74663" lon="7.01506">
        <ele>878.3</ele>
        <time>2025-01-25T09:59:09.000Z</time>
      </trkpt>
      <trkpt lat="43.74667" lon="7.01502">
        <ele>878.6</ele>
        <time>2025-01-25T09:59:11.000Z</time>
      </trkpt>
      <trkpt lat="43.74671" lon="7.01496">
        <ele>879.2</ele>
        <time>2025-01-25T09:59:14.000Z</time>
      </trkpt>
      <trkpt lat="43.74675" lon="7.01493">
        <ele>879.7</ele>
        <time>2025-01-25T09:59:16.000Z</time>
      </trkpt>
      <trkpt lat="43.74679" lon="7.01489">
        <ele>880.3</ele>
        <time>2025-01-25T09:59:18.000Z</time>
      </trkpt>
      <trkpt lat="43.74682" lon="7.01485">
        <ele>880.8</ele>
        <time>2025-01-25T09:59:21.000Z</time>
      </trkpt>
      <trkpt lat="43.74687" lon="7.01479">
        <ele>881.4</ele>
        <time>2025-01-25T09:59:24.000Z</time>
      </trkpt>
      <trkpt lat="43.74691" lon="7.01475">
        <ele>881.7</ele>
        <time>2025-01-25T09:59:27.000Z</time>
      </trkpt>
      <trkpt lat="43.74694" lon="7.0147">
        <ele>882</ele>
        <time>2025-01-25T09:59:30.000Z</time>
      </trkpt>
      <trkpt lat="43.74697" lon="7.01463">
        <ele>882.4</ele>
        <time>2025-01-25T09:59:34.000Z</time>
      </trkpt>
      <trkpt lat="43.74699" lon="7.01456">
        <ele>882.8</ele>
        <time>2025-01-25T09:59:38.000Z</time>
      </trkpt>
      <trkpt lat="43.74702" lon="7.01451">
        <ele>883.2</ele>
        <time>2025-01-25T09:59:41.000Z</time>
      </trkpt>
      <trkpt lat="43.74706" lon="7.01445">
        <ele>883.8</ele>
        <time>2025-01-25T09:59:44.000Z</time>
      </trkpt>
      <trkpt lat="43.7471" lon="7.01438">
        <ele>884.4</ele>
        <time>2025-01-25T09:59:47.000Z</time>
      </trkpt>
      <trkpt lat="43.74713" lon="7.01432">
        <ele>885</ele>
        <time>2025-01-25T09:59:50.000Z</time>
      </trkpt>
      <trkpt lat="43.74716" lon="7.01425">
        <ele>885.5</ele>
        <time>2025-01-25T09:59:54.000Z</time>
      </trkpt>
      <trkpt lat="43.74719" lon="7.01419">
        <ele>886</ele>
        <time>2025-01-25T09:59:58.000Z</time>
      </trkpt>
      <trkpt lat="43.74723" lon="7.01413">
        <ele>886.4</ele>
        <time>2025-01-25T10:00:01.000Z</time>
      </trkpt>
      <trkpt lat="43.74728" lon="7.01407">
        <ele>886.5</ele>
        <time>2025-01-25T10:00:04.000Z</time>
      </trkpt>
      <trkpt lat="43.74732" lon="7.01403">
        <ele>886.6</ele>
        <time>2025-01-25T10:00:06.000Z</time>
      </trkpt>
      <trkpt lat="43.74738" lon="7.014">
        <ele>886.7</ele>
        <time>2025-01-25T10:00:09.000Z</time>
      </trkpt>
      <trkpt lat="43.74744" lon="7.01403">
        <ele>886.6</ele>
        <time>2025-01-25T10:00:11.000Z</time>
      </trkpt>
      <trkpt lat="43.74749" lon="7.01406">
        <ele>886.6</ele>
        <time>2025-01-25T10:00:13.000Z</time>
      </trkpt>
      <trkpt lat="43.74753" lon="7.01411">
        <ele>886.5</ele>
        <time>2025-01-25T10:00:15.000Z</time>
      </trkpt>
      <trkpt lat="43.74757" lon="7.01416">
        <ele>886.5</ele>
        <time>2025-01-25T10:00:17.000Z</time>
      </trkpt>
      <trkpt lat="43.74762" lon="7.01423">
        <ele>886.4</ele>
        <time>2025-01-25T10:00:19.000Z</time>
      </trkpt>
      <trkpt lat="43.74767" lon="7.0143">
        <ele>886.5</ele>
        <time>2025-01-25T10:00:21.000Z</time>
      </trkpt>
      <trkpt lat="43.74771" lon="7.01437">
        <ele>886.5</ele>
        <time>2025-01-25T10:00:23.000Z</time>
      </trkpt>
      <trkpt lat="43.74775" lon="7.01444">
        <ele>886.5</ele>
        <time>2025-01-25T10:00:25.000Z</time>
      </trkpt>
      <trkpt lat="43.74778" lon="7.01449">
        <ele>886.6</ele>
        <time>2025-01-25T10:00:27.000Z</time>
      </trkpt>
      <trkpt lat="43.74783" lon="7.01454">
        <ele>886.7</ele>
        <time>2025-01-25T10:00:30.000Z</time>
      </trkpt>
      <trkpt lat="43.74788" lon="7.01458">
        <ele>887</ele>
        <time>2025-01-25T10:00:33.000Z</time>
      </trkpt>
      <trkpt lat="43.74793" lon="7.01461">
        <ele>887.4</ele>
        <time>2025-01-25T10:00:36.000Z</time>
      </trkpt>
      <trkpt lat="43.74798" lon="7.01466">
        <ele>887.9</ele>
        <time>2025-01-25T10:00:39.000Z</time>
      </trkpt>
      <trkpt lat="43.74803" lon="7.0147">
        <ele>888</ele>
        <time>2025-01-25T10:00:41.000Z</time>
      </trkpt>
      <trkpt lat="43.74807" lon="7.01478">
        <ele>888.1</ele>
        <time>2025-01-25T10:00:43.000Z</time>
      </trkpt>
      <trkpt lat="43.7481" lon="7.01484">
        <ele>888.2</ele>
        <time>2025-01-25T10:00:45.000Z</time>
      </trkpt>
      <trkpt lat="43.74814" lon="7.0149">
        <ele>888.3</ele>
        <time>2025-01-25T10:00:48.000Z</time>
      </trkpt>
      <trkpt lat="43.74818" lon="7.01495">
        <ele>888.3</ele>
        <time>2025-01-25T10:00:50.000Z</time>
      </trkpt>
      <trkpt lat="43.74821" lon="7.01499">
        <ele>888.2</ele>
        <time>2025-01-25T10:00:52.000Z</time>
      </trkpt>
      <trkpt lat="43.74825" lon="7.01504">
        <ele>888.2</ele>
        <time>2025-01-25T10:00:54.000Z</time>
      </trkpt>
      <trkpt lat="43.74828" lon="7.01509">
        <ele>888.1</ele>
        <time>2025-01-25T10:00:56.000Z</time>
      </trkpt>
      <trkpt lat="43.74832" lon="7.01515">
        <ele>888.1</ele>
        <time>2025-01-25T10:00:58.000Z</time>
      </trkpt>
      <trkpt lat="43.74835" lon="7.01521">
        <ele>888.2</ele>
        <time>2025-01-25T10:01:00.000Z</time>
      </trkpt>
      <trkpt lat="43.74839" lon="7.01527">
        <ele>888.2</ele>
        <time>2025-01-25T10:01:02.000Z</time>
      </trkpt>
      <trkpt lat="43.74842" lon="7.01533">
        <ele>888.3</ele>
        <time>2025-01-25T10:01:05.000Z</time>
      </trkpt>
      <trkpt lat="43.74845" lon="7.01538">
        <ele>888.4</ele>
        <time>2025-01-25T10:01:08.000Z</time>
      </trkpt>
      <trkpt lat="43.74849" lon="7.01544">
        <ele>888.8</ele>
        <time>2025-01-25T10:01:12.000Z</time>
      </trkpt>
      <trkpt lat="43.74852" lon="7.01548">
        <ele>889.3</ele>
        <time>2025-01-25T10:01:16.000Z</time>
      </trkpt>
      <trkpt lat="43.74857" lon="7.01553">
        <ele>890</ele>
        <time>2025-01-25T10:01:20.000Z</time>
      </trkpt>
      <trkpt lat="43.74863" lon="7.01557">
        <ele>890.6</ele>
        <time>2025-01-25T10:01:24.000Z</time>
      </trkpt>
      <trkpt lat="43.74867" lon="7.0156">
        <ele>891.1</ele>
        <time>2025-01-25T10:01:27.000Z</time>
      </trkpt>
      <trkpt lat="43.74871" lon="7.01564">
        <ele>891.7</ele>
        <time>2025-01-25T10:01:30.000Z</time>
      </trkpt>
      <trkpt lat="43.74875" lon="7.01567">
        <ele>892.2</ele>
        <time>2025-01-25T10:01:33.000Z</time>
      </trkpt>
      <trkpt lat="43.7488" lon="7.01569">
        <ele>893.1</ele>
        <time>2025-01-25T10:01:39.000Z</time>
      </trkpt>
      <trkpt lat="43.74885" lon="7.01571">
        <ele>893.4</ele>
        <time>2025-01-25T10:01:42.000Z</time>
      </trkpt>
      <trkpt lat="43.74891" lon="7.01574">
        <ele>893.7</ele>
        <time>2025-01-25T10:01:46.000Z</time>
      </trkpt>
      <trkpt lat="43.74895" lon="7.01576">
        <ele>893.9</ele>
        <time>2025-01-25T10:01:49.000Z</time>
      </trkpt>
      <trkpt lat="43.749" lon="7.01578">
        <ele>894.2</ele>
        <time>2025-01-25T10:01:52.000Z</time>
      </trkpt>
      <trkpt lat="43.74904" lon="7.0158">
        <ele>894.6</ele>
        <time>2025-01-25T10:01:55.000Z</time>
      </trkpt>
      <trkpt lat="43.74909" lon="7.01582">
        <ele>895.1</ele>
        <time>2025-01-25T10:01:58.000Z</time>
      </trkpt>
      <trkpt lat="43.74914" lon="7.01584">
        <ele>895.6</ele>
        <time>2025-01-25T10:02:01.000Z</time>
      </trkpt>
      <trkpt lat="43.74918" lon="7.01586">
        <ele>896.4</ele>
        <time>2025-01-25T10:02:05.000Z</time>
      </trkpt>
      <trkpt lat="43.74923" lon="7.01588">
        <ele>897.3</ele>
        <time>2025-01-25T10:02:10.000Z</time>
      </trkpt>
      <trkpt lat="43.74926" lon="7.01586">
        <ele>898.1</ele>
        <time>2025-01-25T10:02:21.000Z</time>
      </trkpt>
      <trkpt lat="43.74926" lon="7.01587">
        <ele>898.1</ele>
        <time>2025-01-25T10:02:22.000Z</time>
      </trkpt>
      <trkpt lat="43.74926" lon="7.01587">
        <ele>898.2</ele>
        <time>2025-01-25T10:02:26.000Z</time>
      </trkpt>
      <trkpt lat="43.74926" lon="7.01587">
        <ele>898.2</ele>
        <time>2025-01-25T10:02:27.000Z</time>
      </trkpt>
      <trkpt lat="43.74926" lon="7.01587">
        <ele>898.2</ele>
        <time>2025-01-25T10:02:28.000Z</time>
      </trkpt>
      <trkpt lat="43.74926" lon="7.01587">
        <ele>898.3</ele>
        <time>2025-01-25T10:02:29.000Z</time>
      </trkpt>
      <trkpt lat="43.74926" lon="7.01586">
        <ele>898.3</ele>
        <time>2025-01-25T10:02:30.000Z</time>
      </trkpt>
      <trkpt lat="43.74926" lon="7.01586">
        <ele>898.3</ele>
        <time>2025-01-25T10:02:31.000Z</time>
      </trkpt>
      <trkpt lat="43.74926" lon="7.01586">
        <ele>898.3</ele>
        <time>2025-01-25T10:02:32.000Z</time>
      </trkpt>
      <trkpt lat="43.74926" lon="7.01586">
        <ele>898.3</ele>
        <time>2025-01-25T10:02:33.000Z</time>
      </trkpt>
      <trkpt lat="43.74926" lon="7.01586">
        <ele>898.3</ele>
        <time>2025-01-25T10:02:34.000Z</time>
      </trkpt>
      <trkpt lat="43.74926" lon="7.01586">
        <ele>898.4</ele>
        <time>2025-01-25T10:02:35.000Z</time>
      </trkpt>
      <trkpt lat="43.74926" lon="7.01586">
        <ele>898.4</ele>
        <time>2025-01-25T10:02:41.000Z</time>
      </trkpt>
      <trkpt lat="43.74926" lon="7.01587">
        <ele>898.5</ele>
        <time>2025-01-25T10:02:42.000Z</time>
      </trkpt>
      <trkpt lat="43.7493" lon="7.01589">
        <ele>898.6</ele>
        <time>2025-01-25T10:02:46.000Z</time>
      </trkpt>
      <trkpt lat="43.74936" lon="7.01591">
        <ele>899.1</ele>
        <time>2025-01-25T10:02:50.000Z</time>
      </trkpt>
      <trkpt lat="43.7494" lon="7.01596">
        <ele>900.1</ele>
        <time>2025-01-25T10:02:54.000Z</time>
      </trkpt>
      <trkpt lat="43.74946" lon="7.01599">
        <ele>900.9</ele>
        <time>2025-01-25T10:02:57.000Z</time>
      </trkpt>
      <trkpt lat="43.7495" lon="7.01601">
        <ele>902</ele>
        <time>2025-01-25T10:03:00.000Z</time>
      </trkpt>
      <trkpt lat="43.74955" lon="7.01603">
        <ele>903.5</ele>
        <time>2025-01-25T10:03:04.000Z</time>
      </trkpt>
      <trkpt lat="43.74956" lon="7.01603">
        <ele>904.6</ele>
        <time>2025-01-25T10:03:11.000Z</time>
      </trkpt>
      <trkpt lat="43.74957" lon="7.01603">
        <ele>904.7</ele>
        <time>2025-01-25T10:03:12.000Z</time>
      </trkpt>
      <trkpt lat="43.74957" lon="7.01604">
        <ele>904.7</ele>
        <time>2025-01-25T10:03:13.000Z</time>
      </trkpt>
      <trkpt lat="43.74958" lon="7.01605">
        <ele>904.8</ele>
        <time>2025-01-25T10:03:14.000Z</time>
      </trkpt>
      <trkpt lat="43.74958" lon="7.01606">
        <ele>904.9</ele>
        <time>2025-01-25T10:03:15.000Z</time>
      </trkpt>
      <trkpt lat="43.74962" lon="7.0161">
        <ele>905.5</ele>
        <time>2025-01-25T10:03:21.000Z</time>
      </trkpt>
      <trkpt lat="43.74967" lon="7.01611">
        <ele>906.1</ele>
        <time>2025-01-25T10:03:28.000Z</time>
      </trkpt>
      <trkpt lat="43.74972" lon="7.01612">
        <ele>907.1</ele>
        <time>2025-01-25T10:03:35.000Z</time>
      </trkpt>
      <trkpt lat="43.74978" lon="7.01612">
        <ele>907.9</ele>
        <time>2025-01-25T10:03:41.000Z</time>
      </trkpt>
      <trkpt lat="43.74982" lon="7.01615">
        <ele>909.5</ele>
        <time>2025-01-25T10:03:52.000Z</time>
      </trkpt>
      <trkpt lat="43.74987" lon="7.01617">
        <ele>910.1</ele>
        <time>2025-01-25T10:03:56.000Z</time>
      </trkpt>
      <trkpt lat="43.74991" lon="7.01617">
        <ele>910.5</ele>
        <time>2025-01-25T10:04:00.000Z</time>
      </trkpt>
      <trkpt lat="43.74996" lon="7.01619">
        <ele>911.3</ele>
        <time>2025-01-25T10:04:05.000Z</time>
      </trkpt>
      <trkpt lat="43.75002" lon="7.0162">
        <ele>912.4</ele>
        <time>2025-01-25T10:04:11.000Z</time>
      </trkpt>
      <trkpt lat="43.75007" lon="7.01622">
        <ele>913.1</ele>
        <time>2025-01-25T10:04:16.000Z</time>
      </trkpt>
      <trkpt lat="43.75011" lon="7.01623">
        <ele>914</ele>
        <time>2025-01-25T10:04:22.000Z</time>
      </trkpt>
      <trkpt lat="43.75016" lon="7.01623">
        <ele>915.2</ele>
        <time>2025-01-25T10:04:33.000Z</time>
      </trkpt>
      <trkpt lat="43.75021" lon="7.01625">
        <ele>915.4</ele>
        <time>2025-01-25T10:04:36.000Z</time>
      </trkpt>
      <trkpt lat="43.75026" lon="7.01626">
        <ele>915.8</ele>
        <time>2025-01-25T10:04:40.000Z</time>
      </trkpt>
      <trkpt lat="43.75032" lon="7.01627">
        <ele>916.2</ele>
        <time>2025-01-25T10:04:43.000Z</time>
      </trkpt>
      <trkpt lat="43.75037" lon="7.01628">
        <ele>916.6</ele>
        <time>2025-01-25T10:04:46.000Z</time>
      </trkpt>
      <trkpt lat="43.75042" lon="7.0163">
        <ele>917.2</ele>
        <time>2025-01-25T10:04:50.000Z</time>
      </trkpt>
      <trkpt lat="43.75047" lon="7.01631">
        <ele>918</ele>
        <time>2025-01-25T10:04:55.000Z</time>
      </trkpt>
      <trkpt lat="43.75052" lon="7.01634">
        <ele>918.6</ele>
        <time>2025-01-25T10:04:58.000Z</time>
      </trkpt>
      <trkpt lat="43.75057" lon="7.01634">
        <ele>919.6</ele>
        <time>2025-01-25T10:05:02.000Z</time>
      </trkpt>
      <trkpt lat="43.75062" lon="7.01634">
        <ele>920.3</ele>
        <time>2025-01-25T10:05:05.000Z</time>
      </trkpt>
      <trkpt lat="43.75067" lon="7.01634">
        <ele>921.2</ele>
        <time>2025-01-25T10:05:09.000Z</time>
      </trkpt>
      <trkpt lat="43.75072" lon="7.01634">
        <ele>922.9</ele>
        <time>2025-01-25T10:05:15.000Z</time>
      </trkpt>
      <trkpt lat="43.75076" lon="7.01638">
        <ele>924.4</ele>
        <time>2025-01-25T10:05:24.000Z</time>
      </trkpt>
      <trkpt lat="43.75078" lon="7.0164">
        <ele>925.1</ele>
        <time>2025-01-25T10:05:31.000Z</time>
      </trkpt>
      <trkpt lat="43.75078" lon="7.0164">
        <ele>925.1</ele>
        <time>2025-01-25T10:05:32.000Z</time>
      </trkpt>
      <trkpt lat="43.75078" lon="7.01641">
        <ele>925.2</ele>
        <time>2025-01-25T10:05:33.000Z</time>
      </trkpt>
      <trkpt lat="43.7508" lon="7.01641">
        <ele>925.4</ele>
        <time>2025-01-25T10:06:26.000Z</time>
      </trkpt>
      <trkpt lat="43.75081" lon="7.01641">
        <ele>925.4</ele>
        <time>2025-01-25T10:06:27.000Z</time>
      </trkpt>
      <trkpt lat="43.75082" lon="7.01642">
        <ele>925.4</ele>
        <time>2025-01-25T10:06:28.000Z</time>
      </trkpt>
      <trkpt lat="43.75088" lon="7.0164">
        <ele>925.6</ele>
        <time>2025-01-25T10:06:34.000Z</time>
      </trkpt>
      <trkpt lat="43.75092" lon="7.01637">
        <ele>926.3</ele>
        <time>2025-01-25T10:06:40.000Z</time>
      </trkpt>
      <trkpt lat="43.75095" lon="7.01632">
        <ele>927.7</ele>
        <time>2025-01-25T10:06:47.000Z</time>
      </trkpt>
      <trkpt lat="43.75096" lon="7.01625">
        <ele>929</ele>
        <time>2025-01-25T10:06:51.000Z</time>
      </trkpt>
      <trkpt lat="43.751" lon="7.01621">
        <ele>930.3</ele>
        <time>2025-01-25T10:06:57.000Z</time>
      </trkpt>
      <trkpt lat="43.751" lon="7.01621">
        <ele>931</ele>
        <time>2025-01-25T10:07:04.000Z</time>
      </trkpt>
      <trkpt lat="43.751" lon="7.01621">
        <ele>931.1</ele>
        <time>2025-01-25T10:07:05.000Z</time>
      </trkpt>
      <trkpt lat="43.75101" lon="7.01617">
        <ele>931.2</ele>
        <time>2025-01-25T10:08:00.000Z</time>
      </trkpt>
      <trkpt lat="43.75101" lon="7.01616">
        <ele>931.2</ele>
        <time>2025-01-25T10:08:01.000Z</time>
      </trkpt>
      <trkpt lat="43.75102" lon="7.01615">
        <ele>931.2</ele>
        <time>2025-01-25T10:08:02.000Z</time>
      </trkpt>
      <trkpt lat="43.75103" lon="7.01612">
        <ele>931.3</ele>
        <time>2025-01-25T10:08:11.000Z</time>
      </trkpt>
      <trkpt lat="43.75103" lon="7.01612">
        <ele>931.3</ele>
        <time>2025-01-25T10:08:12.000Z</time>
      </trkpt>
      <trkpt lat="43.75106" lon="7.01607">
        <ele>931.3</ele>
        <time>2025-01-25T10:08:27.000Z</time>
      </trkpt>
      <trkpt lat="43.75106" lon="7.01607">
        <ele>931.4</ele>
        <time>2025-01-25T10:08:36.000Z</time>
      </trkpt>
      <trkpt lat="43.75106" lon="7.01607">
        <ele>931.4</ele>
        <time>2025-01-25T10:08:37.000Z</time>
      </trkpt>
      <trkpt lat="43.75106" lon="7.01607">
        <ele>931.4</ele>
        <time>2025-01-25T10:08:38.000Z</time>
      </trkpt>
      <trkpt lat="43.75106" lon="7.01607">
        <ele>931.4</ele>
        <time>2025-01-25T10:08:39.000Z</time>
      </trkpt>
      <trkpt lat="43.75106" lon="7.01607">
        <ele>931.4</ele>
        <time>2025-01-25T10:08:40.000Z</time>
      </trkpt>
      <trkpt lat="43.75106" lon="7.01607">
        <ele>931.5</ele>
        <time>2025-01-25T10:08:49.000Z</time>
      </trkpt>
      <trkpt lat="43.75106" lon="7.01606">
        <ele>931.5</ele>
        <time>2025-01-25T10:08:50.000Z</time>
      </trkpt>
      <trkpt lat="43.75106" lon="7.01606">
        <ele>931.5</ele>
        <time>2025-01-25T10:08:51.000Z</time>
      </trkpt>
      <trkpt lat="43.75107" lon="7.01606">
        <ele>931.5</ele>
        <time>2025-01-25T10:08:52.000Z</time>
      </trkpt>
      <trkpt lat="43.75107" lon="7.01606">
        <ele>931.5</ele>
        <time>2025-01-25T10:08:53.000Z</time>
      </trkpt>
      <trkpt lat="43.75108" lon="7.01606">
        <ele>931.5</ele>
        <time>2025-01-25T10:08:54.000Z</time>
      </trkpt>
      <trkpt lat="43.75109" lon="7.01605">
        <ele>931.5</ele>
        <time>2025-01-25T10:08:55.000Z</time>
      </trkpt>
      <trkpt lat="43.75111" lon="7.01607">
        <ele>931.5</ele>
        <time>2025-01-25T10:09:06.000Z</time>
      </trkpt>
      <trkpt lat="43.7511" lon="7.01607">
        <ele>931.5</ele>
        <time>2025-01-25T10:09:07.000Z</time>
      </trkpt>
      <trkpt lat="43.7511" lon="7.01607">
        <ele>931.5</ele>
        <time>2025-01-25T10:09:10.000Z</time>
      </trkpt>
      <trkpt lat="43.75111" lon="7.01607">
        <ele>931.5</ele>
        <time>2025-01-25T10:09:11.000Z</time>
      </trkpt>
      <trkpt lat="43.75111" lon="7.01607">
        <ele>931.5</ele>
        <time>2025-01-25T10:09:12.000Z</time>
      </trkpt>
      <trkpt lat="43.75111" lon="7.01607">
        <ele>931.5</ele>
        <time>2025-01-25T10:09:13.000Z</time>
      </trkpt>
      <trkpt lat="43.75111" lon="7.01607">
        <ele>931.5</ele>
        <time>2025-01-25T10:09:14.000Z</time>
      </trkpt>
      <trkpt lat="43.75111" lon="7.01607">
        <ele>931.5</ele>
        <time>2025-01-25T10:09:15.000Z</time>
      </trkpt>
      <trkpt lat="43.75112" lon="7.01608">
        <ele>931.5</ele>
        <time>2025-01-25T10:09:16.000Z</time>
      </trkpt>
      <trkpt lat="43.75113" lon="7.01609">
        <ele>931.5</ele>
        <time>2025-01-25T10:09:17.000Z</time>
      </trkpt>
      <trkpt lat="43.75114" lon="7.01609">
        <ele>931.5</ele>
        <time>2025-01-25T10:09:18.000Z</time>
      </trkpt>
      <trkpt lat="43.7512" lon="7.01612">
        <ele>931.5</ele>
        <time>2025-01-25T10:09:22.000Z</time>
      </trkpt>
      <trkpt lat="43.75126" lon="7.01614">
        <ele>931.5</ele>
        <time>2025-01-25T10:09:24.000Z</time>
      </trkpt>
      <trkpt lat="43.75131" lon="7.01617">
        <ele>931.5</ele>
        <time>2025-01-25T10:09:26.000Z</time>
      </trkpt>
      <trkpt lat="43.75137" lon="7.01621">
        <ele>931.5</ele>
        <time>2025-01-25T10:09:28.000Z</time>
      </trkpt>
      <trkpt lat="43.75144" lon="7.01623">
        <ele>931.5</ele>
        <time>2025-01-25T10:09:30.000Z</time>
      </trkpt>
      <trkpt lat="43.7515" lon="7.01627">
        <ele>931.5</ele>
        <time>2025-01-25T10:09:32.000Z</time>
      </trkpt>
      <trkpt lat="43.75157" lon="7.01629">
        <ele>931.5</ele>
        <time>2025-01-25T10:09:34.000Z</time>
      </trkpt>
      <trkpt lat="43.75163" lon="7.01633">
        <ele>931.5</ele>
        <time>2025-01-25T10:09:36.000Z</time>
      </trkpt>
      <trkpt lat="43.75169" lon="7.01639">
        <ele>931.4</ele>
        <time>2025-01-25T10:09:38.000Z</time>
      </trkpt>
      <trkpt lat="43.75175" lon="7.01644">
        <ele>931.4</ele>
        <time>2025-01-25T10:09:40.000Z</time>
      </trkpt>
      <trkpt lat="43.75181" lon="7.01648">
        <ele>931.4</ele>
        <time>2025-01-25T10:09:42.000Z</time>
      </trkpt>
      <trkpt lat="43.75187" lon="7.01654">
        <ele>931.4</ele>
        <time>2025-01-25T10:09:44.000Z</time>
      </trkpt>
      <trkpt lat="43.75192" lon="7.01661">
        <ele>931.4</ele>
        <time>2025-01-25T10:09:46.000Z</time>
      </trkpt>
      <trkpt lat="43.75196" lon="7.01667">
        <ele>931.4</ele>
        <time>2025-01-25T10:09:48.000Z</time>
      </trkpt>
      <trkpt lat="43.752" lon="7.01673">
        <ele>931.4</ele>
        <time>2025-01-25T10:09:50.000Z</time>
      </trkpt>
      <trkpt lat="43.75206" lon="7.01679">
        <ele>931.4</ele>
        <time>2025-01-25T10:09:52.000Z</time>
      </trkpt>
      <trkpt lat="43.75212" lon="7.01684">
        <ele>931.4</ele>
        <time>2025-01-25T10:09:54.000Z</time>
      </trkpt>
      <trkpt lat="43.75218" lon="7.01689">
        <ele>931.4</ele>
        <time>2025-01-25T10:09:56.000Z</time>
      </trkpt>
      <trkpt lat="43.75223" lon="7.01694">
        <ele>931.5</ele>
        <time>2025-01-25T10:09:58.000Z</time>
      </trkpt>
      <trkpt lat="43.75228" lon="7.017">
        <ele>931.5</ele>
        <time>2025-01-25T10:10:00.000Z</time>
      </trkpt>
      <trkpt lat="43.75234" lon="7.01705">
        <ele>931.5</ele>
        <time>2025-01-25T10:10:02.000Z</time>
      </trkpt>
      <trkpt lat="43.75241" lon="7.01711">
        <ele>931.5</ele>
        <time>2025-01-25T10:10:04.000Z</time>
      </trkpt>
      <trkpt lat="43.75248" lon="7.01715">
        <ele>931.5</ele>
        <time>2025-01-25T10:10:06.000Z</time>
      </trkpt>
      <trkpt lat="43.75255" lon="7.0172">
        <ele>931.6</ele>
        <time>2025-01-25T10:10:08.000Z</time>
      </trkpt>
      <trkpt lat="43.75262" lon="7.01725">
        <ele>931.6</ele>
        <time>2025-01-25T10:10:10.000Z</time>
      </trkpt>
      <trkpt lat="43.75268" lon="7.0173">
        <ele>931.5</ele>
        <time>2025-01-25T10:10:12.000Z</time>
      </trkpt>
      <trkpt lat="43.75273" lon="7.01734">
        <ele>931.8</ele>
        <time>2025-01-25T10:10:14.000Z</time>
      </trkpt>
      <trkpt lat="43.75277" lon="7.01738">
        <ele>932.4</ele>
        <time>2025-01-25T10:10:16.000Z</time>
      </trkpt>
      <trkpt lat="43.75281" lon="7.01742">
        <ele>932.7</ele>
        <time>2025-01-25T10:10:18.000Z</time>
      </trkpt>
      <trkpt lat="43.75285" lon="7.01746">
        <ele>932.8</ele>
        <time>2025-01-25T10:10:20.000Z</time>
      </trkpt>
      <trkpt lat="43.7529" lon="7.0175">
        <ele>932.9</ele>
        <time>2025-01-25T10:10:22.000Z</time>
      </trkpt>
      <trkpt lat="43.75295" lon="7.01754">
        <ele>933.3</ele>
        <time>2025-01-25T10:10:25.000Z</time>
      </trkpt>
      <trkpt lat="43.75302" lon="7.01757">
        <ele>933.8</ele>
        <time>2025-01-25T10:10:28.000Z</time>
      </trkpt>
      <trkpt lat="43.75307" lon="7.01762">
        <ele>934.2</ele>
        <time>2025-01-25T10:10:31.000Z</time>
      </trkpt>
      <trkpt lat="43.75312" lon="7.01766">
        <ele>934.7</ele>
        <time>2025-01-25T10:10:34.000Z</time>
      </trkpt>
      <trkpt lat="43.75317" lon="7.01769">
        <ele>935.2</ele>
        <time>2025-01-25T10:10:37.000Z</time>
      </trkpt>
      <trkpt lat="43.75323" lon="7.01772">
        <ele>935.7</ele>
        <time>2025-01-25T10:10:40.000Z</time>
      </trkpt>
      <trkpt lat="43.75328" lon="7.01776">
        <ele>936.4</ele>
        <time>2025-01-25T10:10:43.000Z</time>
      </trkpt>
      <trkpt lat="43.75332" lon="7.0178">
        <ele>937.3</ele>
        <time>2025-01-25T10:10:46.000Z</time>
      </trkpt>
      <trkpt lat="43.75335" lon="7.01786">
        <ele>938</ele>
        <time>2025-01-25T10:10:49.000Z</time>
      </trkpt>
      <trkpt lat="43.75337" lon="7.01791">
        <ele>938.5</ele>
        <time>2025-01-25T10:10:52.000Z</time>
      </trkpt>
      <trkpt lat="43.75339" lon="7.01798">
        <ele>939.1</ele>
        <time>2025-01-25T10:10:56.000Z</time>
      </trkpt>
      <trkpt lat="43.7534" lon="7.01804">
        <ele>939.8</ele>
        <time>2025-01-25T10:11:00.000Z</time>
      </trkpt>
      <trkpt lat="43.75343" lon="7.01809">
        <ele>940.5</ele>
        <time>2025-01-25T10:11:04.000Z</time>
      </trkpt>
      <trkpt lat="43.75347" lon="7.01815">
        <ele>941.2</ele>
        <time>2025-01-25T10:11:08.000Z</time>
      </trkpt>
      <trkpt lat="43.75349" lon="7.01821">
        <ele>941.8</ele>
        <time>2025-01-25T10:11:11.000Z</time>
      </trkpt>
      <trkpt lat="43.75352" lon="7.01825">
        <ele>942.3</ele>
        <time>2025-01-25T10:11:14.000Z</time>
      </trkpt>
      <trkpt lat="43.75356" lon="7.01829">
        <ele>942.7</ele>
        <time>2025-01-25T10:11:17.000Z</time>
      </trkpt>
      <trkpt lat="43.75359" lon="7.01836">
        <ele>943.2</ele>
        <time>2025-01-25T10:11:21.000Z</time>
      </trkpt>
      <trkpt lat="43.75357" lon="7.01842">
        <ele>943.8</ele>
        <time>2025-01-25T10:11:28.000Z</time>
      </trkpt>
      <trkpt lat="43.75354" lon="7.01847">
        <ele>944</ele>
        <time>2025-01-25T10:11:32.000Z</time>
      </trkpt>
      <trkpt lat="43.75351" lon="7.01852">
        <ele>944.1</ele>
        <time>2025-01-25T10:11:35.000Z</time>
      </trkpt>
      <trkpt lat="43.7535" lon="7.01859">
        <ele>944.2</ele>
        <time>2025-01-25T10:11:38.000Z</time>
      </trkpt>
      <trkpt lat="43.75349" lon="7.01866">
        <ele>944.2</ele>
        <time>2025-01-25T10:11:40.000Z</time>
      </trkpt>
      <trkpt lat="43.75348" lon="7.01872">
        <ele>944.2</ele>
        <time>2025-01-25T10:11:42.000Z</time>
      </trkpt>
      <trkpt lat="43.75347" lon="7.01879">
        <ele>944.1</ele>
        <time>2025-01-25T10:11:44.000Z</time>
      </trkpt>
      <trkpt lat="43.75346" lon="7.01887">
        <ele>944</ele>
        <time>2025-01-25T10:11:46.000Z</time>
      </trkpt>
      <trkpt lat="43.75346" lon="7.01897">
        <ele>943.9</ele>
        <time>2025-01-25T10:11:48.000Z</time>
      </trkpt>
      <trkpt lat="43.75345" lon="7.01908">
        <ele>943.7</ele>
        <time>2025-01-25T10:11:50.000Z</time>
      </trkpt>
      <trkpt lat="43.75343" lon="7.01917">
        <ele>943.5</ele>
        <time>2025-01-25T10:11:52.000Z</time>
      </trkpt>
      <trkpt lat="43.7534" lon="7.01925">
        <ele>943.3</ele>
        <time>2025-01-25T10:11:54.000Z</time>
      </trkpt>
      <trkpt lat="43.75338" lon="7.01934">
        <ele>943.1</ele>
        <time>2025-01-25T10:11:56.000Z</time>
      </trkpt>
      <trkpt lat="43.75337" lon="7.01942">
        <ele>943</ele>
        <time>2025-01-25T10:11:58.000Z</time>
      </trkpt>
      <trkpt lat="43.75337" lon="7.01951">
        <ele>942.9</ele>
        <time>2025-01-25T10:12:00.000Z</time>
      </trkpt>
      <trkpt lat="43.75337" lon="7.01959">
        <ele>942.7</ele>
        <time>2025-01-25T10:12:02.000Z</time>
      </trkpt>
      <trkpt lat="43.75338" lon="7.01966">
        <ele>942.6</ele>
        <time>2025-01-25T10:12:04.000Z</time>
      </trkpt>
      <trkpt lat="43.75338" lon="7.01974">
        <ele>942.6</ele>
        <time>2025-01-25T10:12:06.000Z</time>
      </trkpt>
      <trkpt lat="43.75339" lon="7.01981">
        <ele>942.5</ele>
        <time>2025-01-25T10:12:08.000Z</time>
      </trkpt>
      <trkpt lat="43.7534" lon="7.01989">
        <ele>942.4</ele>
        <time>2025-01-25T10:12:10.000Z</time>
      </trkpt>
      <trkpt lat="43.7534" lon="7.01998">
        <ele>942.3</ele>
        <time>2025-01-25T10:12:12.000Z</time>
      </trkpt>
      <trkpt lat="43.75341" lon="7.02007">
        <ele>942.2</ele>
        <time>2025-01-25T10:12:14.000Z</time>
      </trkpt>
      <trkpt lat="43.75341" lon="7.02016">
        <ele>942</ele>
        <time>2025-01-25T10:12:16.000Z</time>
      </trkpt>
      <trkpt lat="43.75341" lon="7.02024">
        <ele>942</ele>
        <time>2025-01-25T10:12:18.000Z</time>
      </trkpt>
      <trkpt lat="43.75342" lon="7.02034">
        <ele>941.8</ele>
        <time>2025-01-25T10:12:20.000Z</time>
      </trkpt>
      <trkpt lat="43.75342" lon="7.02043">
        <ele>941.7</ele>
        <time>2025-01-25T10:12:22.000Z</time>
      </trkpt>
      <trkpt lat="43.75343" lon="7.02053">
        <ele>941.6</ele>
        <time>2025-01-25T10:12:24.000Z</time>
      </trkpt>
      <trkpt lat="43.75344" lon="7.02061">
        <ele>941.4</ele>
        <time>2025-01-25T10:12:26.000Z</time>
      </trkpt>
      <trkpt lat="43.75345" lon="7.0207">
        <ele>941.3</ele>
        <time>2025-01-25T10:12:28.000Z</time>
      </trkpt>
      <trkpt lat="43.75346" lon="7.02078">
        <ele>941.2</ele>
        <time>2025-01-25T10:12:30.000Z</time>
      </trkpt>
      <trkpt lat="43.75348" lon="7.02087">
        <ele>941.1</ele>
        <time>2025-01-25T10:12:32.000Z</time>
      </trkpt>
      <trkpt lat="43.75349" lon="7.02095">
        <ele>941</ele>
        <time>2025-01-25T10:12:34.000Z</time>
      </trkpt>
      <trkpt lat="43.75349" lon="7.02104">
        <ele>941</ele>
        <time>2025-01-25T10:12:36.000Z</time>
      </trkpt>
      <trkpt lat="43.75351" lon="7.02113">
        <ele>940.9</ele>
        <time>2025-01-25T10:12:38.000Z</time>
      </trkpt>
      <trkpt lat="43.75351" lon="7.02122">
        <ele>940.8</ele>
        <time>2025-01-25T10:12:40.000Z</time>
      </trkpt>
      <trkpt lat="43.75351" lon="7.0213">
        <ele>940.8</ele>
        <time>2025-01-25T10:12:42.000Z</time>
      </trkpt>
      <trkpt lat="43.75349" lon="7.02138">
        <ele>940.8</ele>
        <time>2025-01-25T10:12:44.000Z</time>
      </trkpt>
      <trkpt lat="43.75347" lon="7.02146">
        <ele>940.8</ele>
        <time>2025-01-25T10:12:46.000Z</time>
      </trkpt>
      <trkpt lat="43.75346" lon="7.02153">
        <ele>940.8</ele>
        <time>2025-01-25T10:12:48.000Z</time>
      </trkpt>
      <trkpt lat="43.75344" lon="7.02161">
        <ele>940.9</ele>
        <time>2025-01-25T10:12:50.000Z</time>
      </trkpt>
      <trkpt lat="43.75342" lon="7.02169">
        <ele>940.9</ele>
        <time>2025-01-25T10:12:52.000Z</time>
      </trkpt>
      <trkpt lat="43.75341" lon="7.02177">
        <ele>941</ele>
        <time>2025-01-25T10:12:54.000Z</time>
      </trkpt>
      <trkpt lat="43.7534" lon="7.02184">
        <ele>941.1</ele>
        <time>2025-01-25T10:12:56.000Z</time>
      </trkpt>
      <trkpt lat="43.75339" lon="7.02191">
        <ele>941.2</ele>
        <time>2025-01-25T10:12:58.000Z</time>
      </trkpt>
      <trkpt lat="43.75338" lon="7.02199">
        <ele>941.8</ele>
        <time>2025-01-25T10:13:06.000Z</time>
      </trkpt>
      <trkpt lat="43.75338" lon="7.02209">
        <ele>942.2</ele>
        <time>2025-01-25T10:13:09.000Z</time>
      </trkpt>
      <trkpt lat="43.75339" lon="7.02217">
        <ele>942.3</ele>
        <time>2025-01-25T10:13:11.000Z</time>
      </trkpt>
      <trkpt lat="43.7534" lon="7.02224">
        <ele>942.4</ele>
        <time>2025-01-25T10:13:13.000Z</time>
      </trkpt>
      <trkpt lat="43.75341" lon="7.02231">
        <ele>942.5</ele>
        <time>2025-01-25T10:13:15.000Z</time>
      </trkpt>
      <trkpt lat="43.75344" lon="7.02238">
        <ele>942.6</ele>
        <time>2025-01-25T10:13:17.000Z</time>
      </trkpt>
      <trkpt lat="43.7535" lon="7.02242">
        <ele>942.7</ele>
        <time>2025-01-25T10:13:19.000Z</time>
      </trkpt>
      <trkpt lat="43.75355" lon="7.02245">
        <ele>942.8</ele>
        <time>2025-01-25T10:13:21.000Z</time>
      </trkpt>
      <trkpt lat="43.7536" lon="7.02248">
        <ele>942.9</ele>
        <time>2025-01-25T10:13:23.000Z</time>
      </trkpt>
      <trkpt lat="43.75365" lon="7.02252">
        <ele>943</ele>
        <time>2025-01-25T10:13:25.000Z</time>
      </trkpt>
      <trkpt lat="43.75369" lon="7.02258">
        <ele>943</ele>
        <time>2025-01-25T10:13:27.000Z</time>
      </trkpt>
      <trkpt lat="43.75371" lon="7.02265">
        <ele>943.1</ele>
        <time>2025-01-25T10:13:29.000Z</time>
      </trkpt>
      <trkpt lat="43.75374" lon="7.02271">
        <ele>943.2</ele>
        <time>2025-01-25T10:13:31.000Z</time>
      </trkpt>
      <trkpt lat="43.75375" lon="7.02278">
        <ele>943.3</ele>
        <time>2025-01-25T10:13:33.000Z</time>
      </trkpt>
      <trkpt lat="43.75377" lon="7.02284">
        <ele>943.4</ele>
        <time>2025-01-25T10:13:35.000Z</time>
      </trkpt>
      <trkpt lat="43.75379" lon="7.0229">
        <ele>943.5</ele>
        <time>2025-01-25T10:13:37.000Z</time>
      </trkpt>
      <trkpt lat="43.75382" lon="7.02296">
        <ele>943.6</ele>
        <time>2025-01-25T10:13:39.000Z</time>
      </trkpt>
      <trkpt lat="43.75385" lon="7.02304">
        <ele>943.8</ele>
        <time>2025-01-25T10:13:42.000Z</time>
      </trkpt>
      <trkpt lat="43.75388" lon="7.0231">
        <ele>944</ele>
        <time>2025-01-25T10:13:44.000Z</time>
      </trkpt>
      <trkpt lat="43.75391" lon="7.02317">
        <ele>944.2</ele>
        <time>2025-01-25T10:13:46.000Z</time>
      </trkpt>
      <trkpt lat="43.75394" lon="7.02324">
        <ele>944.3</ele>
        <time>2025-01-25T10:13:48.000Z</time>
      </trkpt>
      <trkpt lat="43.75395" lon="7.02331">
        <ele>944.4</ele>
        <time>2025-01-25T10:13:50.000Z</time>
      </trkpt>
      <trkpt lat="43.75398" lon="7.02338">
        <ele>944.5</ele>
        <time>2025-01-25T10:13:52.000Z</time>
      </trkpt>
      <trkpt lat="43.75401" lon="7.02344">
        <ele>944.6</ele>
        <time>2025-01-25T10:13:54.000Z</time>
      </trkpt>
      <trkpt lat="43.75405" lon="7.02349">
        <ele>944.7</ele>
        <time>2025-01-25T10:13:56.000Z</time>
      </trkpt>
      <trkpt lat="43.7541" lon="7.02353">
        <ele>944.8</ele>
        <time>2025-01-25T10:13:58.000Z</time>
      </trkpt>
      <trkpt lat="43.75413" lon="7.02357">
        <ele>944.8</ele>
        <time>2025-01-25T10:14:00.000Z</time>
      </trkpt>
      <trkpt lat="43.75417" lon="7.02364">
        <ele>945</ele>
        <time>2025-01-25T10:14:03.000Z</time>
      </trkpt>
      <trkpt lat="43.75422" lon="7.02371">
        <ele>945</ele>
        <time>2025-01-25T10:14:06.000Z</time>
      </trkpt>
      <trkpt lat="43.75424" lon="7.02376">
        <ele>945.1</ele>
        <time>2025-01-25T10:14:08.000Z</time>
      </trkpt>
      <trkpt lat="43.75427" lon="7.02383">
        <ele>945.2</ele>
        <time>2025-01-25T10:14:11.000Z</time>
      </trkpt>
      <trkpt lat="43.75428" lon="7.02385">
        <ele>945.5</ele>
        <time>2025-01-25T10:14:16.000Z</time>
      </trkpt>
      <trkpt lat="43.75428" lon="7.02385">
        <ele>945.5</ele>
        <time>2025-01-25T10:14:17.000Z</time>
      </trkpt>
      <trkpt lat="43.7543" lon="7.02387">
        <ele>946</ele>
        <time>2025-01-25T10:14:41.000Z</time>
      </trkpt>
      <trkpt lat="43.7543" lon="7.02388">
        <ele>946</ele>
        <time>2025-01-25T10:14:42.000Z</time>
      </trkpt>
      <trkpt lat="43.75431" lon="7.02388">
        <ele>946.1</ele>
        <time>2025-01-25T10:14:48.000Z</time>
      </trkpt>
      <trkpt lat="43.75431" lon="7.02388">
        <ele>946.1</ele>
        <time>2025-01-25T10:14:49.000Z</time>
      </trkpt>
      <trkpt lat="43.75431" lon="7.02389">
        <ele>946.2</ele>
        <time>2025-01-25T10:14:50.000Z</time>
      </trkpt>
      <trkpt lat="43.75432" lon="7.0239">
        <ele>946.2</ele>
        <time>2025-01-25T10:14:51.000Z</time>
      </trkpt>
      <trkpt lat="43.75433" lon="7.0239">
        <ele>946.2</ele>
        <time>2025-01-25T10:14:52.000Z</time>
      </trkpt>
      <trkpt lat="43.75434" lon="7.02391">
        <ele>946.2</ele>
        <time>2025-01-25T10:14:58.000Z</time>
      </trkpt>
      <trkpt lat="43.75434" lon="7.02391">
        <ele>946.2</ele>
        <time>2025-01-25T10:14:59.000Z</time>
      </trkpt>
      <trkpt lat="43.75435" lon="7.02393">
        <ele>946.3</ele>
        <time>2025-01-25T10:16:01.000Z</time>
      </trkpt>
      <trkpt lat="43.75436" lon="7.02395">
        <ele>946.3</ele>
        <time>2025-01-25T10:16:02.000Z</time>
      </trkpt>
      <trkpt lat="43.75439" lon="7.02399">
        <ele>946.3</ele>
        <time>2025-01-25T10:16:05.000Z</time>
      </trkpt>
      <trkpt lat="43.75441" lon="7.02402">
        <ele>946.3</ele>
        <time>2025-01-25T10:16:11.000Z</time>
      </trkpt>
      <trkpt lat="43.75441" lon="7.02402">
        <ele>946.3</ele>
        <time>2025-01-25T10:16:12.000Z</time>
      </trkpt>
      <trkpt lat="43.75441" lon="7.02402">
        <ele>946.3</ele>
        <time>2025-01-25T10:16:13.000Z</time>
      </trkpt>
      <trkpt lat="43.75441" lon="7.02402">
        <ele>946.3</ele>
        <time>2025-01-25T10:16:14.000Z</time>
      </trkpt>
      <trkpt lat="43.75441" lon="7.02402">
        <ele>946.3</ele>
        <time>2025-01-25T10:16:15.000Z</time>
      </trkpt>
      <trkpt lat="43.75441" lon="7.02403">
        <ele>946.3</ele>
        <time>2025-01-25T10:16:16.000Z</time>
      </trkpt>
      <trkpt lat="43.75441" lon="7.02403">
        <ele>946.3</ele>
        <time>2025-01-25T10:16:17.000Z</time>
      </trkpt>
      <trkpt lat="43.75441" lon="7.02403">
        <ele>946.3</ele>
        <time>2025-01-25T10:16:23.000Z</time>
      </trkpt>
      <trkpt lat="43.75441" lon="7.02403">
        <ele>946.3</ele>
        <time>2025-01-25T10:16:24.000Z</time>
      </trkpt>
      <trkpt lat="43.75441" lon="7.02403">
        <ele>946.3</ele>
        <time>2025-01-25T10:16:25.000Z</time>
      </trkpt>
      <trkpt lat="43.75441" lon="7.02403">
        <ele>946.2</ele>
        <time>2025-01-25T10:16:26.000Z</time>
      </trkpt>
      <trkpt lat="43.75441" lon="7.02403">
        <ele>946.2</ele>
        <time>2025-01-25T10:16:27.000Z</time>
      </trkpt>
      <trkpt lat="43.75443" lon="7.02405">
        <ele>946.2</ele>
        <time>2025-01-25T10:16:48.000Z</time>
      </trkpt>
      <trkpt lat="43.75443" lon="7.02405">
        <ele>946.2</ele>
        <time>2025-01-25T10:16:49.000Z</time>
      </trkpt>
      <trkpt lat="43.75447" lon="7.0241">
        <ele>946.3</ele>
        <time>2025-01-25T10:16:55.000Z</time>
      </trkpt>
      <trkpt lat="43.75451" lon="7.02415">
        <ele>946.3</ele>
        <time>2025-01-25T10:16:58.000Z</time>
      </trkpt>
      <trkpt lat="43.75456" lon="7.0242">
        <ele>946.3</ele>
        <time>2025-01-25T10:17:01.000Z</time>
      </trkpt>
      <trkpt lat="43.75461" lon="7.02425">
        <ele>946.3</ele>
        <time>2025-01-25T10:17:04.000Z</time>
      </trkpt>
      <trkpt lat="43.75467" lon="7.02429">
        <ele>946.3</ele>
        <time>2025-01-25T10:17:07.000Z</time>
      </trkpt>
      <trkpt lat="43.75471" lon="7.02431">
        <ele>946.3</ele>
        <time>2025-01-25T10:17:09.000Z</time>
      </trkpt>
      <trkpt lat="43.75475" lon="7.02434">
        <ele>946.4</ele>
        <time>2025-01-25T10:17:11.000Z</time>
      </trkpt>
      <trkpt lat="43.75478" lon="7.02439">
        <ele>946.4</ele>
        <time>2025-01-25T10:17:13.000Z</time>
      </trkpt>
      <trkpt lat="43.75482" lon="7.02446">
        <ele>946.5</ele>
        <time>2025-01-25T10:17:16.000Z</time>
      </trkpt>
      <trkpt lat="43.75487" lon="7.02451">
        <ele>946.6</ele>
        <time>2025-01-25T10:17:19.000Z</time>
      </trkpt>
      <trkpt lat="43.75492" lon="7.02453">
        <ele>946.6</ele>
        <time>2025-01-25T10:17:21.000Z</time>
      </trkpt>
      <trkpt lat="43.75496" lon="7.02456">
        <ele>946.7</ele>
        <time>2025-01-25T10:17:23.000Z</time>
      </trkpt>
      <trkpt lat="43.75502" lon="7.02458">
        <ele>946.8</ele>
        <time>2025-01-25T10:17:25.000Z</time>
      </trkpt>
      <trkpt lat="43.75508" lon="7.02459">
        <ele>946.8</ele>
        <time>2025-01-25T10:17:27.000Z</time>
      </trkpt>
      <trkpt lat="43.75513" lon="7.02461">
        <ele>946.9</ele>
        <time>2025-01-25T10:17:29.000Z</time>
      </trkpt>
      <trkpt lat="43.75519" lon="7.02464">
        <ele>946.9</ele>
        <time>2025-01-25T10:17:31.000Z</time>
      </trkpt>
      <trkpt lat="43.75524" lon="7.02468">
        <ele>946.9</ele>
        <time>2025-01-25T10:17:33.000Z</time>
      </trkpt>
      <trkpt lat="43.7553" lon="7.02474">
        <ele>946.9</ele>
        <time>2025-01-25T10:17:35.000Z</time>
      </trkpt>
      <trkpt lat="43.75534" lon="7.0248">
        <ele>946.8</ele>
        <time>2025-01-25T10:17:37.000Z</time>
      </trkpt>
      <trkpt lat="43.75539" lon="7.02484">
        <ele>946.8</ele>
        <time>2025-01-25T10:17:39.000Z</time>
      </trkpt>
      <trkpt lat="43.75544" lon="7.02484">
        <ele>946.7</ele>
        <time>2025-01-25T10:17:41.000Z</time>
      </trkpt>
      <trkpt lat="43.75549" lon="7.02482">
        <ele>946.7</ele>
        <time>2025-01-25T10:17:43.000Z</time>
      </trkpt>
      <trkpt lat="43.75557" lon="7.02483">
        <ele>946.6</ele>
        <time>2025-01-25T10:17:45.000Z</time>
      </trkpt>
      <trkpt lat="43.75561" lon="7.02485">
        <ele>946.6</ele>
        <time>2025-01-25T10:17:46.000Z</time>
      </trkpt>
      <trkpt lat="43.75566" lon="7.02487">
        <ele>946.5</ele>
        <time>2025-01-25T10:17:47.000Z</time>
      </trkpt>
      <trkpt lat="43.75574" lon="7.02491">
        <ele>946.3</ele>
        <time>2025-01-25T10:17:49.000Z</time>
      </trkpt>
      <trkpt lat="43.75581" lon="7.02497">
        <ele>946</ele>
        <time>2025-01-25T10:17:51.000Z</time>
      </trkpt>
      <trkpt lat="43.75587" lon="7.02503">
        <ele>945.8</ele>
        <time>2025-01-25T10:17:53.000Z</time>
      </trkpt>
      <trkpt lat="43.75594" lon="7.02509">
        <ele>945.7</ele>
        <time>2025-01-25T10:17:55.000Z</time>
      </trkpt>
      <trkpt lat="43.75601" lon="7.02515">
        <ele>945.5</ele>
        <time>2025-01-25T10:17:57.000Z</time>
      </trkpt>
      <trkpt lat="43.75606" lon="7.02521">
        <ele>945.2</ele>
        <time>2025-01-25T10:17:59.000Z</time>
      </trkpt>
      <trkpt lat="43.75611" lon="7.02527">
        <ele>945</ele>
        <time>2025-01-25T10:18:01.000Z</time>
      </trkpt>
      <trkpt lat="43.75616" lon="7.02533">
        <ele>944.8</ele>
        <time>2025-01-25T10:18:03.000Z</time>
      </trkpt>
      <trkpt lat="43.75622" lon="7.02541">
        <ele>944.7</ele>
        <time>2025-01-25T10:18:05.000Z</time>
      </trkpt>
      <trkpt lat="43.75629" lon="7.02548">
        <ele>944.5</ele>
        <time>2025-01-25T10:18:07.000Z</time>
      </trkpt>
      <trkpt lat="43.75634" lon="7.02555">
        <ele>944.4</ele>
        <time>2025-01-25T10:18:09.000Z</time>
      </trkpt>
      <trkpt lat="43.7564" lon="7.02562">
        <ele>944.4</ele>
        <time>2025-01-25T10:18:11.000Z</time>
      </trkpt>
      <trkpt lat="43.75647" lon="7.0257">
        <ele>944.4</ele>
        <time>2025-01-25T10:18:13.000Z</time>
      </trkpt>
      <trkpt lat="43.75655" lon="7.02576">
        <ele>944.4</ele>
        <time>2025-01-25T10:18:15.000Z</time>
      </trkpt>
      <trkpt lat="43.75663" lon="7.02582">
        <ele>944.4</ele>
        <time>2025-01-25T10:18:17.000Z</time>
      </trkpt>
      <trkpt lat="43.75666" lon="7.02587">
        <ele>944.4</ele>
        <time>2025-01-25T10:18:18.000Z</time>
      </trkpt>
      <trkpt lat="43.75671" lon="7.02596">
        <ele>944.3</ele>
        <time>2025-01-25T10:18:20.000Z</time>
      </trkpt>
      <trkpt lat="43.75677" lon="7.02605">
        <ele>944.2</ele>
        <time>2025-01-25T10:18:22.000Z</time>
      </trkpt>
      <trkpt lat="43.75682" lon="7.02614">
        <ele>944</ele>
        <time>2025-01-25T10:18:24.000Z</time>
      </trkpt>
      <trkpt lat="43.75687" lon="7.02624">
        <ele>943.9</ele>
        <time>2025-01-25T10:18:26.000Z</time>
      </trkpt>
      <trkpt lat="43.75691" lon="7.02633">
        <ele>943.7</ele>
        <time>2025-01-25T10:18:28.000Z</time>
      </trkpt>
      <trkpt lat="43.75696" lon="7.02642">
        <ele>943.6</ele>
        <time>2025-01-25T10:18:30.000Z</time>
      </trkpt>
      <trkpt lat="43.75698" lon="7.02647">
        <ele>943.3</ele>
        <time>2025-01-25T10:18:31.000Z</time>
      </trkpt>
      <trkpt lat="43.757" lon="7.02659">
        <ele>943</ele>
        <time>2025-01-25T10:18:33.000Z</time>
      </trkpt>
      <trkpt lat="43.75703" lon="7.02669">
        <ele>943</ele>
        <time>2025-01-25T10:18:35.000Z</time>
      </trkpt>
      <trkpt lat="43.75708" lon="7.0268">
        <ele>942.8</ele>
        <time>2025-01-25T10:18:37.000Z</time>
      </trkpt>
      <trkpt lat="43.75712" lon="7.02691">
        <ele>942.6</ele>
        <time>2025-01-25T10:18:39.000Z</time>
      </trkpt>
      <trkpt lat="43.75714" lon="7.02697">
        <ele>942.5</ele>
        <time>2025-01-25T10:18:40.000Z</time>
      </trkpt>
      <trkpt lat="43.75716" lon="7.02703">
        <ele>942.2</ele>
        <time>2025-01-25T10:18:41.000Z</time>
      </trkpt>
      <trkpt lat="43.75718" lon="7.02709">
        <ele>941.7</ele>
        <time>2025-01-25T10:18:42.000Z</time>
      </trkpt>
      <trkpt lat="43.7572" lon="7.02715">
        <ele>941.2</ele>
        <time>2025-01-25T10:18:43.000Z</time>
      </trkpt>
      <trkpt lat="43.75722" lon="7.02722">
        <ele>940.7</ele>
        <time>2025-01-25T10:18:44.000Z</time>
      </trkpt>
      <trkpt lat="43.75723" lon="7.02729">
        <ele>940.3</ele>
        <time>2025-01-25T10:18:45.000Z</time>
      </trkpt>
      <trkpt lat="43.7572" lon="7.02739">
        <ele>939.8</ele>
        <time>2025-01-25T10:18:47.000Z</time>
      </trkpt>
      <trkpt lat="43.75718" lon="7.02744">
        <ele>939.3</ele>
        <time>2025-01-25T10:18:48.000Z</time>
      </trkpt>
      <trkpt lat="43.75716" lon="7.0275">
        <ele>938.8</ele>
        <time>2025-01-25T10:18:49.000Z</time>
      </trkpt>
      <trkpt lat="43.75714" lon="7.02757">
        <ele>938.2</ele>
        <time>2025-01-25T10:18:50.000Z</time>
      </trkpt>
      <trkpt lat="43.75712" lon="7.02764">
        <ele>937.8</ele>
        <time>2025-01-25T10:18:51.000Z</time>
      </trkpt>
      <trkpt lat="43.75712" lon="7.02772">
        <ele>937.6</ele>
        <time>2025-01-25T10:18:52.000Z</time>
      </trkpt>
      <trkpt lat="43.75712" lon="7.02779">
        <ele>937.3</ele>
        <time>2025-01-25T10:18:53.000Z</time>
      </trkpt>
      <trkpt lat="43.75713" lon="7.02786">
        <ele>937.1</ele>
        <time>2025-01-25T10:18:54.000Z</time>
      </trkpt>
      <trkpt lat="43.75714" lon="7.02793">
        <ele>936.8</ele>
        <time>2025-01-25T10:18:55.000Z</time>
      </trkpt>
      <trkpt lat="43.75716" lon="7.02805">
        <ele>936.5</ele>
        <time>2025-01-25T10:18:57.000Z</time>
      </trkpt>
      <trkpt lat="43.75714" lon="7.02817">
        <ele>936.2</ele>
        <time>2025-01-25T10:18:59.000Z</time>
      </trkpt>
      <trkpt lat="43.75712" lon="7.02829">
        <ele>935.9</ele>
        <time>2025-01-25T10:19:01.000Z</time>
      </trkpt>
      <trkpt lat="43.75711" lon="7.02836">
        <ele>935.9</ele>
        <time>2025-01-25T10:19:02.000Z</time>
      </trkpt>
      <trkpt lat="43.75709" lon="7.02842">
        <ele>935.8</ele>
        <time>2025-01-25T10:19:03.000Z</time>
      </trkpt>
      <trkpt lat="43.75708" lon="7.02848">
        <ele>935.7</ele>
        <time>2025-01-25T10:19:04.000Z</time>
      </trkpt>
      <trkpt lat="43.75707" lon="7.0286">
        <ele>935.5</ele>
        <time>2025-01-25T10:19:06.000Z</time>
      </trkpt>
      <trkpt lat="43.75707" lon="7.02871">
        <ele>935.5</ele>
        <time>2025-01-25T10:19:08.000Z</time>
      </trkpt>
      <trkpt lat="43.75709" lon="7.0288">
        <ele>935.5</ele>
        <time>2025-01-25T10:19:10.000Z</time>
      </trkpt>
      <trkpt lat="43.75709" lon="7.0289">
        <ele>935.5</ele>
        <time>2025-01-25T10:19:12.000Z</time>
      </trkpt>
      <trkpt lat="43.75708" lon="7.02899">
        <ele>935.6</ele>
        <time>2025-01-25T10:19:14.000Z</time>
      </trkpt>
      <trkpt lat="43.75706" lon="7.02907">
        <ele>935.7</ele>
        <time>2025-01-25T10:19:16.000Z</time>
      </trkpt>
      <trkpt lat="43.75705" lon="7.02914">
        <ele>935.8</ele>
        <time>2025-01-25T10:19:18.000Z</time>
      </trkpt>
      <trkpt lat="43.75704" lon="7.02921">
        <ele>936</ele>
        <time>2025-01-25T10:19:20.000Z</time>
      </trkpt>
      <trkpt lat="43.75702" lon="7.02928">
        <ele>936.3</ele>
        <time>2025-01-25T10:19:22.000Z</time>
      </trkpt>
      <trkpt lat="43.757" lon="7.02935">
        <ele>936.6</ele>
        <time>2025-01-25T10:19:24.000Z</time>
      </trkpt>
      <trkpt lat="43.75697" lon="7.02941">
        <ele>937.2</ele>
        <time>2025-01-25T10:19:27.000Z</time>
      </trkpt>
      <trkpt lat="43.75695" lon="7.02949">
        <ele>937.9</ele>
        <time>2025-01-25T10:19:30.000Z</time>
      </trkpt>
      <trkpt lat="43.75693" lon="7.02957">
        <ele>938.6</ele>
        <time>2025-01-25T10:19:33.000Z</time>
      </trkpt>
      <trkpt lat="43.75689" lon="7.02963">
        <ele>939.2</ele>
        <time>2025-01-25T10:19:36.000Z</time>
      </trkpt>
      <trkpt lat="43.75684" lon="7.02969">
        <ele>939.8</ele>
        <time>2025-01-25T10:19:39.000Z</time>
      </trkpt>
      <trkpt lat="43.75681" lon="7.02975">
        <ele>940.2</ele>
        <time>2025-01-25T10:19:41.000Z</time>
      </trkpt>
      <trkpt lat="43.75679" lon="7.02983">
        <ele>940.3</ele>
        <time>2025-01-25T10:19:43.000Z</time>
      </trkpt>
      <trkpt lat="43.75676" lon="7.02991">
        <ele>940.3</ele>
        <time>2025-01-25T10:19:45.000Z</time>
      </trkpt>
      <trkpt lat="43.75674" lon="7.02996">
        <ele>940.4</ele>
        <time>2025-01-25T10:19:47.000Z</time>
      </trkpt>
      <trkpt lat="43.75671" lon="7.03001">
        <ele>940.5</ele>
        <time>2025-01-25T10:19:49.000Z</time>
      </trkpt>
      <trkpt lat="43.75666" lon="7.03008">
        <ele>940.8</ele>
        <time>2025-01-25T10:19:52.000Z</time>
      </trkpt>
      <trkpt lat="43.75663" lon="7.03014">
        <ele>941.3</ele>
        <time>2025-01-25T10:19:55.000Z</time>
      </trkpt>
      <trkpt lat="43.75659" lon="7.0302">
        <ele>941.8</ele>
        <time>2025-01-25T10:19:58.000Z</time>
      </trkpt>
      <trkpt lat="43.75656" lon="7.03026">
        <ele>942.3</ele>
        <time>2025-01-25T10:20:01.000Z</time>
      </trkpt>
      <trkpt lat="43.75653" lon="7.03034">
        <ele>942.8</ele>
        <time>2025-01-25T10:20:04.000Z</time>
      </trkpt>
      <trkpt lat="43.75651" lon="7.03041">
        <ele>943.2</ele>
        <time>2025-01-25T10:20:07.000Z</time>
      </trkpt>
      <trkpt lat="43.75648" lon="7.03048">
        <ele>943.5</ele>
        <time>2025-01-25T10:20:10.000Z</time>
      </trkpt>
      <trkpt lat="43.75643" lon="7.03051">
        <ele>943.8</ele>
        <time>2025-01-25T10:20:13.000Z</time>
      </trkpt>
      <trkpt lat="43.75639" lon="7.03056">
        <ele>944.1</ele>
        <time>2025-01-25T10:20:16.000Z</time>
      </trkpt>
      <trkpt lat="43.75637" lon="7.03062">
        <ele>944.3</ele>
        <time>2025-01-25T10:20:19.000Z</time>
      </trkpt>
      <trkpt lat="43.75638" lon="7.03071">
        <ele>944.6</ele>
        <time>2025-01-25T10:20:22.000Z</time>
      </trkpt>
      <trkpt lat="43.75639" lon="7.03079">
        <ele>944.7</ele>
        <time>2025-01-25T10:20:25.000Z</time>
      </trkpt>
      <trkpt lat="43.75639" lon="7.03088">
        <ele>944.9</ele>
        <time>2025-01-25T10:20:28.000Z</time>
      </trkpt>
      <trkpt lat="43.7564" lon="7.03096">
        <ele>945.1</ele>
        <time>2025-01-25T10:20:31.000Z</time>
      </trkpt>
      <trkpt lat="43.7564" lon="7.03103">
        <ele>945.3</ele>
        <time>2025-01-25T10:20:33.000Z</time>
      </trkpt>
      <trkpt lat="43.75639" lon="7.03109">
        <ele>945.5</ele>
        <time>2025-01-25T10:20:35.000Z</time>
      </trkpt>
      <trkpt lat="43.75638" lon="7.03115">
        <ele>945.5</ele>
        <time>2025-01-25T10:20:37.000Z</time>
      </trkpt>
      <trkpt lat="43.75636" lon="7.03122">
        <ele>945.7</ele>
        <time>2025-01-25T10:20:39.000Z</time>
      </trkpt>
      <trkpt lat="43.75635" lon="7.03129">
        <ele>945.8</ele>
        <time>2025-01-25T10:20:41.000Z</time>
      </trkpt>
      <trkpt lat="43.75635" lon="7.03136">
        <ele>946</ele>
        <time>2025-01-25T10:20:43.000Z</time>
      </trkpt>
      <trkpt lat="43.75635" lon="7.03143">
        <ele>946.2</ele>
        <time>2025-01-25T10:20:45.000Z</time>
      </trkpt>
      <trkpt lat="43.75635" lon="7.0315">
        <ele>946.3</ele>
        <time>2025-01-25T10:20:47.000Z</time>
      </trkpt>
      <trkpt lat="43.75636" lon="7.03157">
        <ele>946.4</ele>
        <time>2025-01-25T10:20:49.000Z</time>
      </trkpt>
      <trkpt lat="43.75638" lon="7.03163">
        <ele>946.5</ele>
        <time>2025-01-25T10:20:51.000Z</time>
      </trkpt>
      <trkpt lat="43.7564" lon="7.03171">
        <ele>946.5</ele>
        <time>2025-01-25T10:20:53.000Z</time>
      </trkpt>
      <trkpt lat="43.75642" lon="7.03178">
        <ele>946.6</ele>
        <time>2025-01-25T10:20:55.000Z</time>
      </trkpt>
      <trkpt lat="43.75644" lon="7.03186">
        <ele>946.7</ele>
        <time>2025-01-25T10:20:57.000Z</time>
      </trkpt>
      <trkpt lat="43.75648" lon="7.03194">
        <ele>946.6</ele>
        <time>2025-01-25T10:20:59.000Z</time>
      </trkpt>
      <trkpt lat="43.7565" lon="7.03203">
        <ele>946.6</ele>
        <time>2025-01-25T10:21:01.000Z</time>
      </trkpt>
      <trkpt lat="43.75652" lon="7.03212">
        <ele>946.5</ele>
        <time>2025-01-25T10:21:03.000Z</time>
      </trkpt>
      <trkpt lat="43.75656" lon="7.03222">
        <ele>946.5</ele>
        <time>2025-01-25T10:21:05.000Z</time>
      </trkpt>
      <trkpt lat="43.75659" lon="7.03227">
        <ele>946.5</ele>
        <time>2025-01-25T10:21:06.000Z</time>
      </trkpt>
      <trkpt lat="43.75662" lon="7.03233">
        <ele>946.4</ele>
        <time>2025-01-25T10:21:07.000Z</time>
      </trkpt>
      <trkpt lat="43.75665" lon="7.03238">
        <ele>946.4</ele>
        <time>2025-01-25T10:21:08.000Z</time>
      </trkpt>
      <trkpt lat="43.75667" lon="7.03243">
        <ele>946.3</ele>
        <time>2025-01-25T10:21:09.000Z</time>
      </trkpt>
      <trkpt lat="43.75672" lon="7.03253">
        <ele>946.1</ele>
        <time>2025-01-25T10:21:11.000Z</time>
      </trkpt>
      <trkpt lat="43.75677" lon="7.03263">
        <ele>946.1</ele>
        <time>2025-01-25T10:21:13.000Z</time>
      </trkpt>
      <trkpt lat="43.75683" lon="7.03273">
        <ele>945.9</ele>
        <time>2025-01-25T10:21:15.000Z</time>
      </trkpt>
      <trkpt lat="43.75686" lon="7.03278">
        <ele>945.7</ele>
        <time>2025-01-25T10:21:16.000Z</time>
      </trkpt>
      <trkpt lat="43.75689" lon="7.03283">
        <ele>945.6</ele>
        <time>2025-01-25T10:21:17.000Z</time>
      </trkpt>
      <trkpt lat="43.75691" lon="7.0329">
        <ele>945.4</ele>
        <time>2025-01-25T10:21:18.000Z</time>
      </trkpt>
      <trkpt lat="43.75692" lon="7.03297">
        <ele>945.1</ele>
        <time>2025-01-25T10:21:19.000Z</time>
      </trkpt>
      <trkpt lat="43.75693" lon="7.03303">
        <ele>944.9</ele>
        <time>2025-01-25T10:21:20.000Z</time>
      </trkpt>
      <trkpt lat="43.75693" lon="7.0331">
        <ele>944.6</ele>
        <time>2025-01-25T10:21:21.000Z</time>
      </trkpt>
      <trkpt lat="43.75694" lon="7.03322">
        <ele>944.1</ele>
        <time>2025-01-25T10:21:23.000Z</time>
      </trkpt>
      <trkpt lat="43.75697" lon="7.03333">
        <ele>943.9</ele>
        <time>2025-01-25T10:21:25.000Z</time>
      </trkpt>
      <trkpt lat="43.75701" lon="7.03339">
        <ele>943.7</ele>
        <time>2025-01-25T10:21:26.000Z</time>
      </trkpt>
      <trkpt lat="43.75704" lon="7.03344">
        <ele>943.6</ele>
        <time>2025-01-25T10:21:27.000Z</time>
      </trkpt>
      <trkpt lat="43.75706" lon="7.0335">
        <ele>943.4</ele>
        <time>2025-01-25T10:21:28.000Z</time>
      </trkpt>
      <trkpt lat="43.75712" lon="7.03359">
        <ele>943.1</ele>
        <time>2025-01-25T10:21:30.000Z</time>
      </trkpt>
      <trkpt lat="43.75716" lon="7.03366">
        <ele>943</ele>
        <time>2025-01-25T10:21:32.000Z</time>
      </trkpt>
      <trkpt lat="43.7572" lon="7.03371">
        <ele>942.9</ele>
        <time>2025-01-25T10:21:34.000Z</time>
      </trkpt>
      <trkpt lat="43.75725" lon="7.03378">
        <ele>942.9</ele>
        <time>2025-01-25T10:21:36.000Z</time>
      </trkpt>
      <trkpt lat="43.7573" lon="7.03386">
        <ele>942.9</ele>
        <time>2025-01-25T10:21:38.000Z</time>
      </trkpt>
      <trkpt lat="43.75735" lon="7.03395">
        <ele>942.9</ele>
        <time>2025-01-25T10:21:40.000Z</time>
      </trkpt>
      <trkpt lat="43.7574" lon="7.03404">
        <ele>942.9</ele>
        <time>2025-01-25T10:21:42.000Z</time>
      </trkpt>
      <trkpt lat="43.75743" lon="7.0341">
        <ele>942.9</ele>
        <time>2025-01-25T10:21:43.000Z</time>
      </trkpt>
      <trkpt lat="43.75746" lon="7.03415">
        <ele>942.9</ele>
        <time>2025-01-25T10:21:44.000Z</time>
      </trkpt>
      <trkpt lat="43.75749" lon="7.0342">
        <ele>942.9</ele>
        <time>2025-01-25T10:21:45.000Z</time>
      </trkpt>
      <trkpt lat="43.75754" lon="7.03429">
        <ele>942.8</ele>
        <time>2025-01-25T10:21:47.000Z</time>
      </trkpt>
      <trkpt lat="43.75758" lon="7.03437">
        <ele>942.7</ele>
        <time>2025-01-25T10:21:49.000Z</time>
      </trkpt>
      <trkpt lat="43.75764" lon="7.03444">
        <ele>942.7</ele>
        <time>2025-01-25T10:21:51.000Z</time>
      </trkpt>
      <trkpt lat="43.75768" lon="7.03452">
        <ele>942.6</ele>
        <time>2025-01-25T10:21:53.000Z</time>
      </trkpt>
      <trkpt lat="43.75771" lon="7.03459">
        <ele>942.7</ele>
        <time>2025-01-25T10:21:55.000Z</time>
      </trkpt>
      <trkpt lat="43.75775" lon="7.03466">
        <ele>942.8</ele>
        <time>2025-01-25T10:21:57.000Z</time>
      </trkpt>
      <trkpt lat="43.75779" lon="7.03472">
        <ele>942.9</ele>
        <time>2025-01-25T10:21:59.000Z</time>
      </trkpt>
      <trkpt lat="43.75782" lon="7.03479">
        <ele>942.9</ele>
        <time>2025-01-25T10:22:01.000Z</time>
      </trkpt>
      <trkpt lat="43.75784" lon="7.03486">
        <ele>943</ele>
        <time>2025-01-25T10:22:03.000Z</time>
      </trkpt>
      <trkpt lat="43.75787" lon="7.03492">
        <ele>943.3</ele>
        <time>2025-01-25T10:22:05.000Z</time>
      </trkpt>
      <trkpt lat="43.75791" lon="7.03497">
        <ele>943.6</ele>
        <time>2025-01-25T10:22:07.000Z</time>
      </trkpt>
      <trkpt lat="43.75795" lon="7.03503">
        <ele>943.8</ele>
        <time>2025-01-25T10:22:09.000Z</time>
      </trkpt>
      <trkpt lat="43.75798" lon="7.03509">
        <ele>944.1</ele>
        <time>2025-01-25T10:22:11.000Z</time>
      </trkpt>
      <trkpt lat="43.758" lon="7.03515">
        <ele>944.4</ele>
        <time>2025-01-25T10:22:13.000Z</time>
      </trkpt>
      <trkpt lat="43.75802" lon="7.03522">
        <ele>944.6</ele>
        <time>2025-01-25T10:22:15.000Z</time>
      </trkpt>
      <trkpt lat="43.75802" lon="7.03529">
        <ele>944.9</ele>
        <time>2025-01-25T10:22:17.000Z</time>
      </trkpt>
      <trkpt lat="43.75804" lon="7.03537">
        <ele>945.1</ele>
        <time>2025-01-25T10:22:19.000Z</time>
      </trkpt>
      <trkpt lat="43.75804" lon="7.03544">
        <ele>945.3</ele>
        <time>2025-01-25T10:22:21.000Z</time>
      </trkpt>
      <trkpt lat="43.75805" lon="7.03552">
        <ele>945.3</ele>
        <time>2025-01-25T10:22:23.000Z</time>
      </trkpt>
      <trkpt lat="43.75805" lon="7.0356">
        <ele>945.4</ele>
        <time>2025-01-25T10:22:25.000Z</time>
      </trkpt>
      <trkpt lat="43.75805" lon="7.03567">
        <ele>945.5</ele>
        <time>2025-01-25T10:22:27.000Z</time>
      </trkpt>
      <trkpt lat="43.75805" lon="7.03574">
        <ele>945.7</ele>
        <time>2025-01-25T10:22:29.000Z</time>
      </trkpt>
      <trkpt lat="43.75804" lon="7.03583">
        <ele>945.9</ele>
        <time>2025-01-25T10:22:32.000Z</time>
      </trkpt>
      <trkpt lat="43.75804" lon="7.03592">
        <ele>946.2</ele>
        <time>2025-01-25T10:22:35.000Z</time>
      </trkpt>
      <trkpt lat="43.75802" lon="7.03601">
        <ele>946.7</ele>
        <time>2025-01-25T10:22:38.000Z</time>
      </trkpt>
      <trkpt lat="43.75801" lon="7.03608">
        <ele>946.9</ele>
        <time>2025-01-25T10:22:40.000Z</time>
      </trkpt>
      <trkpt lat="43.75801" lon="7.03615">
        <ele>947.1</ele>
        <time>2025-01-25T10:22:42.000Z</time>
      </trkpt>
      <trkpt lat="43.75801" lon="7.03622">
        <ele>947.3</ele>
        <time>2025-01-25T10:22:44.000Z</time>
      </trkpt>
      <trkpt lat="43.75801" lon="7.0363">
        <ele>947.3</ele>
        <time>2025-01-25T10:22:46.000Z</time>
      </trkpt>
      <trkpt lat="43.75801" lon="7.03636">
        <ele>947.4</ele>
        <time>2025-01-25T10:22:48.000Z</time>
      </trkpt>
      <trkpt lat="43.75801" lon="7.03644">
        <ele>947.7</ele>
        <time>2025-01-25T10:22:51.000Z</time>
      </trkpt>
      <trkpt lat="43.75801" lon="7.03651">
        <ele>948.1</ele>
        <time>2025-01-25T10:22:54.000Z</time>
      </trkpt>
      <trkpt lat="43.75801" lon="7.03659">
        <ele>948.9</ele>
        <time>2025-01-25T10:22:58.000Z</time>
      </trkpt>
      <trkpt lat="43.75803" lon="7.03665">
        <ele>949.5</ele>
        <time>2025-01-25T10:23:01.000Z</time>
      </trkpt>
      <trkpt lat="43.75805" lon="7.03673">
        <ele>950.2</ele>
        <time>2025-01-25T10:23:05.000Z</time>
      </trkpt>
      <trkpt lat="43.75807" lon="7.03679">
        <ele>950.8</ele>
        <time>2025-01-25T10:23:08.000Z</time>
      </trkpt>
      <trkpt lat="43.75808" lon="7.03685">
        <ele>951.2</ele>
        <time>2025-01-25T10:23:11.000Z</time>
      </trkpt>
      <trkpt lat="43.75809" lon="7.03692">
        <ele>951.8</ele>
        <time>2025-01-25T10:23:15.000Z</time>
      </trkpt>
      <trkpt lat="43.7581" lon="7.03699">
        <ele>952.1</ele>
        <time>2025-01-25T10:23:18.000Z</time>
      </trkpt>
      <trkpt lat="43.75812" lon="7.03706">
        <ele>952.5</ele>
        <time>2025-01-25T10:23:22.000Z</time>
      </trkpt>
      <trkpt lat="43.75815" lon="7.03713">
        <ele>952.9</ele>
        <time>2025-01-25T10:23:26.000Z</time>
      </trkpt>
      <trkpt lat="43.75817" lon="7.0372">
        <ele>953.3</ele>
        <time>2025-01-25T10:23:30.000Z</time>
      </trkpt>
      <trkpt lat="43.75819" lon="7.03727">
        <ele>953.9</ele>
        <time>2025-01-25T10:23:34.000Z</time>
      </trkpt>
      <trkpt lat="43.75822" lon="7.03734">
        <ele>954.6</ele>
        <time>2025-01-25T10:23:38.000Z</time>
      </trkpt>
      <trkpt lat="43.75824" lon="7.03741">
        <ele>955.3</ele>
        <time>2025-01-25T10:23:42.000Z</time>
      </trkpt>
      <trkpt lat="43.75825" lon="7.03749">
        <ele>956.2</ele>
        <time>2025-01-25T10:23:46.000Z</time>
      </trkpt>
      <trkpt lat="43.75826" lon="7.03755">
        <ele>956.9</ele>
        <time>2025-01-25T10:23:49.000Z</time>
      </trkpt>
      <trkpt lat="43.75827" lon="7.03763">
        <ele>957.9</ele>
        <time>2025-01-25T10:23:53.000Z</time>
      </trkpt>
      <trkpt lat="43.75828" lon="7.03769">
        <ele>958.7</ele>
        <time>2025-01-25T10:23:57.000Z</time>
      </trkpt>
      <trkpt lat="43.75829" lon="7.03776">
        <ele>959.2</ele>
        <time>2025-01-25T10:24:01.000Z</time>
      </trkpt>
      <trkpt lat="43.75828" lon="7.03782">
        <ele>959.8</ele>
        <time>2025-01-25T10:24:05.000Z</time>
      </trkpt>
      <trkpt lat="43.75827" lon="7.03788">
        <ele>960.2</ele>
        <time>2025-01-25T10:24:08.000Z</time>
      </trkpt>
      <trkpt lat="43.75827" lon="7.03795">
        <ele>960.5</ele>
        <time>2025-01-25T10:24:11.000Z</time>
      </trkpt>
      <trkpt lat="43.75827" lon="7.03802">
        <ele>960.8</ele>
        <time>2025-01-25T10:24:14.000Z</time>
      </trkpt>
      <trkpt lat="43.75825" lon="7.03809">
        <ele>961.1</ele>
        <time>2025-01-25T10:24:17.000Z</time>
      </trkpt>
      <trkpt lat="43.75826" lon="7.03817">
        <ele>961.1</ele>
        <time>2025-01-25T10:24:20.000Z</time>
      </trkpt>
      <trkpt lat="43.75827" lon="7.03824">
        <ele>961.1</ele>
        <time>2025-01-25T10:24:24.000Z</time>
      </trkpt>
      <trkpt lat="43.75826" lon="7.03831">
        <ele>961.2</ele>
        <time>2025-01-25T10:24:27.000Z</time>
      </trkpt>
      <trkpt lat="43.75825" lon="7.03838">
        <ele>961.1</ele>
        <time>2025-01-25T10:24:30.000Z</time>
      </trkpt>
      <trkpt lat="43.75823" lon="7.03844">
        <ele>961.1</ele>
        <time>2025-01-25T10:24:32.000Z</time>
      </trkpt>
      <trkpt lat="43.75821" lon="7.03851">
        <ele>961</ele>
        <time>2025-01-25T10:24:34.000Z</time>
      </trkpt>
      <trkpt lat="43.7582" lon="7.03858">
        <ele>961</ele>
        <time>2025-01-25T10:24:36.000Z</time>
      </trkpt>
      <trkpt lat="43.75817" lon="7.03865">
        <ele>961</ele>
        <time>2025-01-25T10:24:38.000Z</time>
      </trkpt>
      <trkpt lat="43.75815" lon="7.03874">
        <ele>960.9</ele>
        <time>2025-01-25T10:24:40.000Z</time>
      </trkpt>
      <trkpt lat="43.75815" lon="7.03884">
        <ele>960.8</ele>
        <time>2025-01-25T10:24:42.000Z</time>
      </trkpt>
      <trkpt lat="43.75817" lon="7.03892">
        <ele>960.6</ele>
        <time>2025-01-25T10:24:44.000Z</time>
      </trkpt>
      <trkpt lat="43.75819" lon="7.03899">
        <ele>960.3</ele>
        <time>2025-01-25T10:24:46.000Z</time>
      </trkpt>
      <trkpt lat="43.75821" lon="7.03907">
        <ele>960</ele>
        <time>2025-01-25T10:24:48.000Z</time>
      </trkpt>
      <trkpt lat="43.75823" lon="7.03917">
        <ele>959.7</ele>
        <time>2025-01-25T10:24:50.000Z</time>
      </trkpt>
      <trkpt lat="43.75826" lon="7.03928">
        <ele>959.3</ele>
        <time>2025-01-25T10:24:52.000Z</time>
      </trkpt>
      <trkpt lat="43.75829" lon="7.03937">
        <ele>959.1</ele>
        <time>2025-01-25T10:24:54.000Z</time>
      </trkpt>
      <trkpt lat="43.75832" lon="7.03943">
        <ele>959</ele>
        <time>2025-01-25T10:24:56.000Z</time>
      </trkpt>
      <trkpt lat="43.75834" lon="7.03949">
        <ele>958.9</ele>
        <time>2025-01-25T10:24:58.000Z</time>
      </trkpt>
      <trkpt lat="43.75834" lon="7.03957">
        <ele>958.8</ele>
        <time>2025-01-25T10:25:00.000Z</time>
      </trkpt>
      <trkpt lat="43.75834" lon="7.03964">
        <ele>958.7</ele>
        <time>2025-01-25T10:25:02.000Z</time>
      </trkpt>
      <trkpt lat="43.75833" lon="7.03973">
        <ele>958.7</ele>
        <time>2025-01-25T10:25:05.000Z</time>
      </trkpt>
      <trkpt lat="43.75833" lon="7.03982">
        <ele>958.8</ele>
        <time>2025-01-25T10:25:08.000Z</time>
      </trkpt>
      <trkpt lat="43.75834" lon="7.03989">
        <ele>958.9</ele>
        <time>2025-01-25T10:25:11.000Z</time>
      </trkpt>
      <trkpt lat="43.75835" lon="7.03996">
        <ele>959</ele>
        <time>2025-01-25T10:25:13.000Z</time>
      </trkpt>
      <trkpt lat="43.75838" lon="7.04003">
        <ele>959.1</ele>
        <time>2025-01-25T10:25:16.000Z</time>
      </trkpt>
      <trkpt lat="43.75841" lon="7.0401">
        <ele>959.2</ele>
        <time>2025-01-25T10:25:19.000Z</time>
      </trkpt>
      <trkpt lat="43.75846" lon="7.04014">
        <ele>959.5</ele>
        <time>2025-01-25T10:25:22.000Z</time>
      </trkpt>
      <trkpt lat="43.7585" lon="7.04021">
        <ele>960</ele>
        <time>2025-01-25T10:25:25.000Z</time>
      </trkpt>
      <trkpt lat="43.75851" lon="7.04028">
        <ele>960.6</ele>
        <time>2025-01-25T10:25:28.000Z</time>
      </trkpt>
      <trkpt lat="43.75853" lon="7.04035">
        <ele>961.1</ele>
        <time>2025-01-25T10:25:31.000Z</time>
      </trkpt>
      <trkpt lat="43.75855" lon="7.04041">
        <ele>961.5</ele>
        <time>2025-01-25T10:25:34.000Z</time>
      </trkpt>
      <trkpt lat="43.75857" lon="7.04049">
        <ele>961.8</ele>
        <time>2025-01-25T10:25:37.000Z</time>
      </trkpt>
      <trkpt lat="43.75858" lon="7.04057">
        <ele>962.1</ele>
        <time>2025-01-25T10:25:40.000Z</time>
      </trkpt>
      <trkpt lat="43.7586" lon="7.04065">
        <ele>962.2</ele>
        <time>2025-01-25T10:25:43.000Z</time>
      </trkpt>
      <trkpt lat="43.75861" lon="7.04074">
        <ele>962.3</ele>
        <time>2025-01-25T10:25:46.000Z</time>
      </trkpt>
      <trkpt lat="43.75862" lon="7.04082">
        <ele>962.5</ele>
        <time>2025-01-25T10:25:49.000Z</time>
      </trkpt>
      <trkpt lat="43.75863" lon="7.0409">
        <ele>962.6</ele>
        <time>2025-01-25T10:25:52.000Z</time>
      </trkpt>
      <trkpt lat="43.75859" lon="7.04096">
        <ele>962.7</ele>
        <time>2025-01-25T10:25:55.000Z</time>
      </trkpt>
      <trkpt lat="43.75855" lon="7.04101">
        <ele>962.8</ele>
        <time>2025-01-25T10:25:58.000Z</time>
      </trkpt>
      <trkpt lat="43.75852" lon="7.04107">
        <ele>963</ele>
        <time>2025-01-25T10:26:01.000Z</time>
      </trkpt>
      <trkpt lat="43.75849" lon="7.04112">
        <ele>963.2</ele>
        <time>2025-01-25T10:26:04.000Z</time>
      </trkpt>
      <trkpt lat="43.75848" lon="7.0412">
        <ele>963.8</ele>
        <time>2025-01-25T10:26:08.000Z</time>
      </trkpt>
      <trkpt lat="43.75847" lon="7.04128">
        <ele>964.5</ele>
        <time>2025-01-25T10:26:12.000Z</time>
      </trkpt>
      <trkpt lat="43.75846" lon="7.04134">
        <ele>965.2</ele>
        <time>2025-01-25T10:26:15.000Z</time>
      </trkpt>
      <trkpt lat="43.75845" lon="7.04141">
        <ele>965.9</ele>
        <time>2025-01-25T10:26:18.000Z</time>
      </trkpt>
      <trkpt lat="43.75846" lon="7.04149">
        <ele>966.4</ele>
        <time>2025-01-25T10:26:22.000Z</time>
      </trkpt>
      <trkpt lat="43.75844" lon="7.04156">
        <ele>966.9</ele>
        <time>2025-01-25T10:26:26.000Z</time>
      </trkpt>
      <trkpt lat="43.75842" lon="7.04162">
        <ele>967.3</ele>
        <time>2025-01-25T10:26:29.000Z</time>
      </trkpt>
      <trkpt lat="43.75843" lon="7.04171">
        <ele>967.7</ele>
        <time>2025-01-25T10:26:32.000Z</time>
      </trkpt>
      <trkpt lat="43.75843" lon="7.04178">
        <ele>968</ele>
        <time>2025-01-25T10:26:35.000Z</time>
      </trkpt>
      <trkpt lat="43.75841" lon="7.04185">
        <ele>968.2</ele>
        <time>2025-01-25T10:26:38.000Z</time>
      </trkpt>
      <trkpt lat="43.75836" lon="7.0419">
        <ele>968.4</ele>
        <time>2025-01-25T10:26:41.000Z</time>
      </trkpt>
      <trkpt lat="43.75833" lon="7.04195">
        <ele>968.5</ele>
        <time>2025-01-25T10:26:43.000Z</time>
      </trkpt>
      <trkpt lat="43.75829" lon="7.04199">
        <ele>968.5</ele>
        <time>2025-01-25T10:26:45.000Z</time>
      </trkpt>
      <trkpt lat="43.75825" lon="7.04204">
        <ele>968.5</ele>
        <time>2025-01-25T10:26:47.000Z</time>
      </trkpt>
      <trkpt lat="43.75822" lon="7.0421">
        <ele>968.6</ele>
        <time>2025-01-25T10:26:50.000Z</time>
      </trkpt>
      <trkpt lat="43.75819" lon="7.04216">
        <ele>968.6</ele>
        <time>2025-01-25T10:26:53.000Z</time>
      </trkpt>
      <trkpt lat="43.75815" lon="7.04224">
        <ele>968.7</ele>
        <time>2025-01-25T10:26:56.000Z</time>
      </trkpt>
      <trkpt lat="43.75813" lon="7.0423">
        <ele>968.7</ele>
        <time>2025-01-25T10:26:58.000Z</time>
      </trkpt>
      <trkpt lat="43.7581" lon="7.04236">
        <ele>968.7</ele>
        <time>2025-01-25T10:27:00.000Z</time>
      </trkpt>
      <trkpt lat="43.75807" lon="7.04243">
        <ele>968.6</ele>
        <time>2025-01-25T10:27:02.000Z</time>
      </trkpt>
      <trkpt lat="43.75805" lon="7.04249">
        <ele>968.6</ele>
        <time>2025-01-25T10:27:04.000Z</time>
      </trkpt>
      <trkpt lat="43.75804" lon="7.04256">
        <ele>968.5</ele>
        <time>2025-01-25T10:27:06.000Z</time>
      </trkpt>
      <trkpt lat="43.75804" lon="7.04262">
        <ele>968.5</ele>
        <time>2025-01-25T10:27:08.000Z</time>
      </trkpt>
      <trkpt lat="43.75804" lon="7.04271">
        <ele>968.4</ele>
        <time>2025-01-25T10:27:11.000Z</time>
      </trkpt>
      <trkpt lat="43.75804" lon="7.0428">
        <ele>968.4</ele>
        <time>2025-01-25T10:27:14.000Z</time>
      </trkpt>
      <trkpt lat="43.75805" lon="7.04288">
        <ele>968.4</ele>
        <time>2025-01-25T10:27:17.000Z</time>
      </trkpt>
      <trkpt lat="43.75804" lon="7.04296">
        <ele>968.4</ele>
        <time>2025-01-25T10:27:20.000Z</time>
      </trkpt>
      <trkpt lat="43.75804" lon="7.04303">
        <ele>968.5</ele>
        <time>2025-01-25T10:27:23.000Z</time>
      </trkpt>
      <trkpt lat="43.75803" lon="7.04312">
        <ele>968.6</ele>
        <time>2025-01-25T10:27:26.000Z</time>
      </trkpt>
      <trkpt lat="43.75799" lon="7.04318">
        <ele>968.7</ele>
        <time>2025-01-25T10:27:29.000Z</time>
      </trkpt>
      <trkpt lat="43.75794" lon="7.04323">
        <ele>968.8</ele>
        <time>2025-01-25T10:27:32.000Z</time>
      </trkpt>
      <trkpt lat="43.75789" lon="7.04326">
        <ele>968.9</ele>
        <time>2025-01-25T10:27:34.000Z</time>
      </trkpt>
      <trkpt lat="43.75784" lon="7.04329">
        <ele>968.9</ele>
        <time>2025-01-25T10:27:36.000Z</time>
      </trkpt>
      <trkpt lat="43.75778" lon="7.04333">
        <ele>969</ele>
        <time>2025-01-25T10:27:38.000Z</time>
      </trkpt>
      <trkpt lat="43.75773" lon="7.04337">
        <ele>969</ele>
        <time>2025-01-25T10:27:40.000Z</time>
      </trkpt>
      <trkpt lat="43.75769" lon="7.04341">
        <ele>969.1</ele>
        <time>2025-01-25T10:27:42.000Z</time>
      </trkpt>
      <trkpt lat="43.75764" lon="7.04347">
        <ele>969.2</ele>
        <time>2025-01-25T10:27:45.000Z</time>
      </trkpt>
      <trkpt lat="43.75761" lon="7.04352">
        <ele>969.2</ele>
        <time>2025-01-25T10:27:47.000Z</time>
      </trkpt>
      <trkpt lat="43.75758" lon="7.04357">
        <ele>969.3</ele>
        <time>2025-01-25T10:27:49.000Z</time>
      </trkpt>
      <trkpt lat="43.75755" lon="7.04365">
        <ele>969.4</ele>
        <time>2025-01-25T10:27:52.000Z</time>
      </trkpt>
      <trkpt lat="43.75753" lon="7.04371">
        <ele>969.5</ele>
        <time>2025-01-25T10:27:54.000Z</time>
      </trkpt>
      <trkpt lat="43.75752" lon="7.04378">
        <ele>969.5</ele>
        <time>2025-01-25T10:27:56.000Z</time>
      </trkpt>
      <trkpt lat="43.75751" lon="7.04385">
        <ele>969.6</ele>
        <time>2025-01-25T10:27:58.000Z</time>
      </trkpt>
      <trkpt lat="43.75749" lon="7.04391">
        <ele>969.7</ele>
        <time>2025-01-25T10:28:00.000Z</time>
      </trkpt>
      <trkpt lat="43.75747" lon="7.04396">
        <ele>969.9</ele>
        <time>2025-01-25T10:28:02.000Z</time>
      </trkpt>
      <trkpt lat="43.75744" lon="7.04401">
        <ele>970.1</ele>
        <time>2025-01-25T10:28:04.000Z</time>
      </trkpt>
      <trkpt lat="43.7574" lon="7.04406">
        <ele>970.3</ele>
        <time>2025-01-25T10:28:06.000Z</time>
      </trkpt>
      <trkpt lat="43.75737" lon="7.04411">
        <ele>970.5</ele>
        <time>2025-01-25T10:28:08.000Z</time>
      </trkpt>
      <trkpt lat="43.75733" lon="7.04416">
        <ele>970.7</ele>
        <time>2025-01-25T10:28:10.000Z</time>
      </trkpt>
      <trkpt lat="43.75731" lon="7.04421">
        <ele>970.7</ele>
        <time>2025-01-25T10:28:12.000Z</time>
      </trkpt>
      <trkpt lat="43.75727" lon="7.04426">
        <ele>970.8</ele>
        <time>2025-01-25T10:28:14.000Z</time>
      </trkpt>
      <trkpt lat="43.75723" lon="7.04432">
        <ele>971</ele>
        <time>2025-01-25T10:28:17.000Z</time>
      </trkpt>
      <trkpt lat="43.75717" lon="7.04433">
        <ele>971.2</ele>
        <time>2025-01-25T10:28:19.000Z</time>
      </trkpt>
      <trkpt lat="43.75711" lon="7.04432">
        <ele>971.2</ele>
        <time>2025-01-25T10:28:21.000Z</time>
      </trkpt>
      <trkpt lat="43.75704" lon="7.04433">
        <ele>971.2</ele>
        <time>2025-01-25T10:28:23.000Z</time>
      </trkpt>
      <trkpt lat="43.75699" lon="7.04436">
        <ele>971.3</ele>
        <time>2025-01-25T10:28:25.000Z</time>
      </trkpt>
      <trkpt lat="43.75694" lon="7.04441">
        <ele>971.4</ele>
        <time>2025-01-25T10:28:27.000Z</time>
      </trkpt>
      <trkpt lat="43.75689" lon="7.04446">
        <ele>971.5</ele>
        <time>2025-01-25T10:28:29.000Z</time>
      </trkpt>
      <trkpt lat="43.75686" lon="7.04452">
        <ele>971.7</ele>
        <time>2025-01-25T10:28:31.000Z</time>
      </trkpt>
      <trkpt lat="43.75683" lon="7.04457">
        <ele>971.8</ele>
        <time>2025-01-25T10:28:33.000Z</time>
      </trkpt>
      <trkpt lat="43.7568" lon="7.04462">
        <ele>971.9</ele>
        <time>2025-01-25T10:28:35.000Z</time>
      </trkpt>
      <trkpt lat="43.75677" lon="7.04468">
        <ele>972</ele>
        <time>2025-01-25T10:28:37.000Z</time>
      </trkpt>
      <trkpt lat="43.75673" lon="7.04474">
        <ele>972.1</ele>
        <time>2025-01-25T10:28:39.000Z</time>
      </trkpt>
      <trkpt lat="43.75668" lon="7.04481">
        <ele>972.1</ele>
        <time>2025-01-25T10:28:41.000Z</time>
      </trkpt>
      <trkpt lat="43.75663" lon="7.0449">
        <ele>972</ele>
        <time>2025-01-25T10:28:43.000Z</time>
      </trkpt>
      <trkpt lat="43.75657" lon="7.04496">
        <ele>971.8</ele>
        <time>2025-01-25T10:28:45.000Z</time>
      </trkpt>
      <trkpt lat="43.7565" lon="7.04501">
        <ele>971.5</ele>
        <time>2025-01-25T10:28:47.000Z</time>
      </trkpt>
      <trkpt lat="43.75642" lon="7.04507">
        <ele>971.3</ele>
        <time>2025-01-25T10:28:49.000Z</time>
      </trkpt>
      <trkpt lat="43.75636" lon="7.04512">
        <ele>971.2</ele>
        <time>2025-01-25T10:28:51.000Z</time>
      </trkpt>
      <trkpt lat="43.7563" lon="7.04515">
        <ele>970.9</ele>
        <time>2025-01-25T10:28:53.000Z</time>
      </trkpt>
      <trkpt lat="43.75624" lon="7.04519">
        <ele>970.4</ele>
        <time>2025-01-25T10:28:55.000Z</time>
      </trkpt>
      <trkpt lat="43.75617" lon="7.04525">
        <ele>970</ele>
        <time>2025-01-25T10:28:57.000Z</time>
      </trkpt>
      <trkpt lat="43.75613" lon="7.04533">
        <ele>969.6</ele>
        <time>2025-01-25T10:28:59.000Z</time>
      </trkpt>
      <trkpt lat="43.75608" lon="7.04541">
        <ele>969.2</ele>
        <time>2025-01-25T10:29:01.000Z</time>
      </trkpt>
      <trkpt lat="43.75602" lon="7.04548">
        <ele>968.7</ele>
        <time>2025-01-25T10:29:03.000Z</time>
      </trkpt>
      <trkpt lat="43.756" lon="7.04557">
        <ele>968.4</ele>
        <time>2025-01-25T10:29:05.000Z</time>
      </trkpt>
      <trkpt lat="43.756" lon="7.04567">
        <ele>968.1</ele>
        <time>2025-01-25T10:29:07.000Z</time>
      </trkpt>
      <trkpt lat="43.75602" lon="7.04577">
        <ele>967.8</ele>
        <time>2025-01-25T10:29:09.000Z</time>
      </trkpt>
      <trkpt lat="43.75606" lon="7.04587">
        <ele>967.3</ele>
        <time>2025-01-25T10:29:11.000Z</time>
      </trkpt>
      <trkpt lat="43.75605" lon="7.04599">
        <ele>967</ele>
        <time>2025-01-25T10:29:13.000Z</time>
      </trkpt>
      <trkpt lat="43.75604" lon="7.04605">
        <ele>966.9</ele>
        <time>2025-01-25T10:29:14.000Z</time>
      </trkpt>
      <trkpt lat="43.75605" lon="7.04617">
        <ele>966.8</ele>
        <time>2025-01-25T10:29:16.000Z</time>
      </trkpt>
      <trkpt lat="43.75606" lon="7.04624">
        <ele>966.6</ele>
        <time>2025-01-25T10:29:17.000Z</time>
      </trkpt>
      <trkpt lat="43.75607" lon="7.0463">
        <ele>966.5</ele>
        <time>2025-01-25T10:29:18.000Z</time>
      </trkpt>
      <trkpt lat="43.75609" lon="7.04636">
        <ele>966.4</ele>
        <time>2025-01-25T10:29:19.000Z</time>
      </trkpt>
      <trkpt lat="43.75611" lon="7.04642">
        <ele>966.3</ele>
        <time>2025-01-25T10:29:20.000Z</time>
      </trkpt>
      <trkpt lat="43.75615" lon="7.04651">
        <ele>966.2</ele>
        <time>2025-01-25T10:29:22.000Z</time>
      </trkpt>
      <trkpt lat="43.75619" lon="7.04656">
        <ele>966.2</ele>
        <time>2025-01-25T10:29:24.000Z</time>
      </trkpt>
      <trkpt lat="43.75623" lon="7.04661">
        <ele>966.2</ele>
        <time>2025-01-25T10:29:26.000Z</time>
      </trkpt>
      <trkpt lat="43.75625" lon="7.04668">
        <ele>966.3</ele>
        <time>2025-01-25T10:29:29.000Z</time>
      </trkpt>
      <trkpt lat="43.75622" lon="7.04674">
        <ele>966.3</ele>
        <time>2025-01-25T10:29:31.000Z</time>
      </trkpt>
      <trkpt lat="43.75619" lon="7.0468">
        <ele>966.4</ele>
        <time>2025-01-25T10:29:33.000Z</time>
      </trkpt>
      <trkpt lat="43.75617" lon="7.04686">
        <ele>966.5</ele>
        <time>2025-01-25T10:29:35.000Z</time>
      </trkpt>
      <trkpt lat="43.75613" lon="7.0469">
        <ele>966.6</ele>
        <time>2025-01-25T10:29:38.000Z</time>
      </trkpt>
      <trkpt lat="43.75608" lon="7.04691">
        <ele>966.6</ele>
        <time>2025-01-25T10:29:40.000Z</time>
      </trkpt>
      <trkpt lat="43.75601" lon="7.04692">
        <ele>966.6</ele>
        <time>2025-01-25T10:29:42.000Z</time>
      </trkpt>
      <trkpt lat="43.75595" lon="7.04698">
        <ele>966.6</ele>
        <time>2025-01-25T10:29:44.000Z</time>
      </trkpt>
      <trkpt lat="43.7559" lon="7.04705">
        <ele>966.5</ele>
        <time>2025-01-25T10:29:46.000Z</time>
      </trkpt>
      <trkpt lat="43.75586" lon="7.04711">
        <ele>966.3</ele>
        <time>2025-01-25T10:29:48.000Z</time>
      </trkpt>
      <trkpt lat="43.75581" lon="7.04718">
        <ele>966.1</ele>
        <time>2025-01-25T10:29:50.000Z</time>
      </trkpt>
      <trkpt lat="43.75577" lon="7.04726">
        <ele>965.9</ele>
        <time>2025-01-25T10:29:52.000Z</time>
      </trkpt>
      <trkpt lat="43.75571" lon="7.04733">
        <ele>965.6</ele>
        <time>2025-01-25T10:29:54.000Z</time>
      </trkpt>
      <trkpt lat="43.75565" lon="7.0474">
        <ele>965.2</ele>
        <time>2025-01-25T10:29:56.000Z</time>
      </trkpt>
      <trkpt lat="43.75561" lon="7.04744">
        <ele>965</ele>
        <time>2025-01-25T10:29:57.000Z</time>
      </trkpt>
      <trkpt lat="43.75556" lon="7.04748">
        <ele>964.8</ele>
        <time>2025-01-25T10:29:58.000Z</time>
      </trkpt>
      <trkpt lat="43.75553" lon="7.04752">
        <ele>964.7</ele>
        <time>2025-01-25T10:29:59.000Z</time>
      </trkpt>
      <trkpt lat="43.75549" lon="7.04756">
        <ele>964.6</ele>
        <time>2025-01-25T10:30:00.000Z</time>
      </trkpt>
      <trkpt lat="43.75544" lon="7.04763">
        <ele>964.6</ele>
        <time>2025-01-25T10:30:02.000Z</time>
      </trkpt>
      <trkpt lat="43.75541" lon="7.04771">
        <ele>964.5</ele>
        <time>2025-01-25T10:30:04.000Z</time>
      </trkpt>
      <trkpt lat="43.75537" lon="7.04779">
        <ele>964.3</ele>
        <time>2025-01-25T10:30:06.000Z</time>
      </trkpt>
      <trkpt lat="43.75534" lon="7.04787">
        <ele>964.2</ele>
        <time>2025-01-25T10:30:08.000Z</time>
      </trkpt>
      <trkpt lat="43.75532" lon="7.04794">
        <ele>964.2</ele>
        <time>2025-01-25T10:30:10.000Z</time>
      </trkpt>
      <trkpt lat="43.7553" lon="7.048">
        <ele>964.3</ele>
        <time>2025-01-25T10:30:12.000Z</time>
      </trkpt>
      <trkpt lat="43.75527" lon="7.04808">
        <ele>964.3</ele>
        <time>2025-01-25T10:30:15.000Z</time>
      </trkpt>
      <trkpt lat="43.75525" lon="7.04818">
        <ele>964.5</ele>
        <time>2025-01-25T10:30:18.000Z</time>
      </trkpt>
      <trkpt lat="43.75522" lon="7.04824">
        <ele>964.7</ele>
        <time>2025-01-25T10:30:20.000Z</time>
      </trkpt>
      <trkpt lat="43.7552" lon="7.0483">
        <ele>964.9</ele>
        <time>2025-01-25T10:30:22.000Z</time>
      </trkpt>
      <trkpt lat="43.75518" lon="7.04837">
        <ele>965.1</ele>
        <time>2025-01-25T10:30:24.000Z</time>
      </trkpt>
      <trkpt lat="43.75515" lon="7.04843">
        <ele>965.5</ele>
        <time>2025-01-25T10:30:27.000Z</time>
      </trkpt>
      <trkpt lat="43.75513" lon="7.0485">
        <ele>965.9</ele>
        <time>2025-01-25T10:30:31.000Z</time>
      </trkpt>
      <trkpt lat="43.75511" lon="7.04857">
        <ele>966.2</ele>
        <time>2025-01-25T10:30:34.000Z</time>
      </trkpt>
      <trkpt lat="43.7551" lon="7.04864">
        <ele>966.7</ele>
        <time>2025-01-25T10:30:38.000Z</time>
      </trkpt>
      <trkpt lat="43.75509" lon="7.04872">
        <ele>967.2</ele>
        <time>2025-01-25T10:30:42.000Z</time>
      </trkpt>
      <trkpt lat="43.75508" lon="7.04879">
        <ele>967.5</ele>
        <time>2025-01-25T10:30:44.000Z</time>
      </trkpt>
      <trkpt lat="43.75506" lon="7.04887">
        <ele>968.1</ele>
        <time>2025-01-25T10:30:47.000Z</time>
      </trkpt>
      <trkpt lat="43.75506" lon="7.04894">
        <ele>968.6</ele>
        <time>2025-01-25T10:30:50.000Z</time>
      </trkpt>
      <trkpt lat="43.75505" lon="7.04901">
        <ele>969.4</ele>
        <time>2025-01-25T10:30:54.000Z</time>
      </trkpt>
      <trkpt lat="43.75505" lon="7.04909">
        <ele>969.9</ele>
        <time>2025-01-25T10:30:58.000Z</time>
      </trkpt>
      <trkpt lat="43.75503" lon="7.04916">
        <ele>970.4</ele>
        <time>2025-01-25T10:31:01.000Z</time>
      </trkpt>
      <trkpt lat="43.75502" lon="7.04922">
        <ele>971</ele>
        <time>2025-01-25T10:31:04.000Z</time>
      </trkpt>
      <trkpt lat="43.75501" lon="7.0493">
        <ele>971.5</ele>
        <time>2025-01-25T10:31:07.000Z</time>
      </trkpt>
      <trkpt lat="43.75499" lon="7.04936">
        <ele>971.8</ele>
        <time>2025-01-25T10:31:09.000Z</time>
      </trkpt>
      <trkpt lat="43.75497" lon="7.04942">
        <ele>972.1</ele>
        <time>2025-01-25T10:31:11.000Z</time>
      </trkpt>
      <trkpt lat="43.75494" lon="7.04948">
        <ele>972.4</ele>
        <time>2025-01-25T10:31:13.000Z</time>
      </trkpt>
      <trkpt lat="43.75491" lon="7.04955">
        <ele>972.6</ele>
        <time>2025-01-25T10:31:15.000Z</time>
      </trkpt>
      <trkpt lat="43.75487" lon="7.04959">
        <ele>972.8</ele>
        <time>2025-01-25T10:31:17.000Z</time>
      </trkpt>
      <trkpt lat="43.75483" lon="7.04963">
        <ele>972.8</ele>
        <time>2025-01-25T10:31:19.000Z</time>
      </trkpt>
      <trkpt lat="43.75478" lon="7.04967">
        <ele>972.8</ele>
        <time>2025-01-25T10:31:21.000Z</time>
      </trkpt>
      <trkpt lat="43.75473" lon="7.04972">
        <ele>972.8</ele>
        <time>2025-01-25T10:31:23.000Z</time>
      </trkpt>
      <trkpt lat="43.75466" lon="7.0498">
        <ele>972.6</ele>
        <time>2025-01-25T10:31:25.000Z</time>
      </trkpt>
      <trkpt lat="43.75463" lon="7.04985">
        <ele>972.5</ele>
        <time>2025-01-25T10:31:26.000Z</time>
      </trkpt>
      <trkpt lat="43.75459" lon="7.04991">
        <ele>972.3</ele>
        <time>2025-01-25T10:31:27.000Z</time>
      </trkpt>
      <trkpt lat="43.75458" lon="7.04998">
        <ele>972.2</ele>
        <time>2025-01-25T10:31:28.000Z</time>
      </trkpt>
      <trkpt lat="43.75457" lon="7.05006">
        <ele>972</ele>
        <time>2025-01-25T10:31:29.000Z</time>
      </trkpt>
      <trkpt lat="43.75455" lon="7.05014">
        <ele>971.8</ele>
        <time>2025-01-25T10:31:30.000Z</time>
      </trkpt>
      <trkpt lat="43.75454" lon="7.05021">
        <ele>971.7</ele>
        <time>2025-01-25T10:31:31.000Z</time>
      </trkpt>
      <trkpt lat="43.75452" lon="7.05032">
        <ele>971.4</ele>
        <time>2025-01-25T10:31:33.000Z</time>
      </trkpt>
      <trkpt lat="43.7545" lon="7.05042">
        <ele>971.2</ele>
        <time>2025-01-25T10:31:35.000Z</time>
      </trkpt>
      <trkpt lat="43.7545" lon="7.05052">
        <ele>970.9</ele>
        <time>2025-01-25T10:31:37.000Z</time>
      </trkpt>
      <trkpt lat="43.7545" lon="7.0506">
        <ele>970.7</ele>
        <time>2025-01-25T10:31:39.000Z</time>
      </trkpt>
      <trkpt lat="43.7545" lon="7.05068">
        <ele>970.6</ele>
        <time>2025-01-25T10:31:41.000Z</time>
      </trkpt>
      <trkpt lat="43.75451" lon="7.05075">
        <ele>970.6</ele>
        <time>2025-01-25T10:31:43.000Z</time>
      </trkpt>
      <trkpt lat="43.7545" lon="7.05084">
        <ele>970.5</ele>
        <time>2025-01-25T10:31:46.000Z</time>
      </trkpt>
      <trkpt lat="43.75448" lon="7.05091">
        <ele>970.5</ele>
        <time>2025-01-25T10:31:49.000Z</time>
      </trkpt>
      <trkpt lat="43.75445" lon="7.05095">
        <ele>970.8</ele>
        <time>2025-01-25T10:31:58.000Z</time>
      </trkpt>
      <trkpt lat="43.75445" lon="7.05095">
        <ele>970.8</ele>
        <time>2025-01-25T10:31:59.000Z</time>
      </trkpt>
      <trkpt lat="43.75445" lon="7.05095">
        <ele>970.8</ele>
        <time>2025-01-25T10:32:00.000Z</time>
      </trkpt>
      <trkpt lat="43.75444" lon="7.05096">
        <ele>970.9</ele>
        <time>2025-01-25T10:32:01.000Z</time>
      </trkpt>
      <trkpt lat="43.75444" lon="7.05096">
        <ele>970.9</ele>
        <time>2025-01-25T10:32:02.000Z</time>
      </trkpt>
      <trkpt lat="43.7544" lon="7.05103">
        <ele>971</ele>
        <time>2025-01-25T10:32:06.000Z</time>
      </trkpt>
      <trkpt lat="43.75437" lon="7.0511">
        <ele>971.3</ele>
        <time>2025-01-25T10:32:08.000Z</time>
      </trkpt>
      <trkpt lat="43.75433" lon="7.05115">
        <ele>971.1</ele>
        <time>2025-01-25T10:32:10.000Z</time>
      </trkpt>
      <trkpt lat="43.75429" lon="7.0512">
        <ele>970.9</ele>
        <time>2025-01-25T10:32:12.000Z</time>
      </trkpt>
      <trkpt lat="43.75425" lon="7.05125">
        <ele>970.8</ele>
        <time>2025-01-25T10:32:14.000Z</time>
      </trkpt>
      <trkpt lat="43.7542" lon="7.0513">
        <ele>970.5</ele>
        <time>2025-01-25T10:32:17.000Z</time>
      </trkpt>
      <trkpt lat="43.75414" lon="7.05133">
        <ele>970.3</ele>
        <time>2025-01-25T10:32:19.000Z</time>
      </trkpt>
      <trkpt lat="43.75408" lon="7.05138">
        <ele>970.1</ele>
        <time>2025-01-25T10:32:21.000Z</time>
      </trkpt>
      <trkpt lat="43.75402" lon="7.05142">
        <ele>970</ele>
        <time>2025-01-25T10:32:23.000Z</time>
      </trkpt>
      <trkpt lat="43.75396" lon="7.05149">
        <ele>969.9</ele>
        <time>2025-01-25T10:32:25.000Z</time>
      </trkpt>
      <trkpt lat="43.7539" lon="7.05157">
        <ele>969.9</ele>
        <time>2025-01-25T10:32:27.000Z</time>
      </trkpt>
      <trkpt lat="43.75386" lon="7.05165">
        <ele>970</ele>
        <time>2025-01-25T10:32:29.000Z</time>
      </trkpt>
      <trkpt lat="43.75382" lon="7.05172">
        <ele>970.1</ele>
        <time>2025-01-25T10:32:31.000Z</time>
      </trkpt>
      <trkpt lat="43.75378" lon="7.05178">
        <ele>970.2</ele>
        <time>2025-01-25T10:32:33.000Z</time>
      </trkpt>
      <trkpt lat="43.75374" lon="7.05184">
        <ele>970.4</ele>
        <time>2025-01-25T10:32:35.000Z</time>
      </trkpt>
      <trkpt lat="43.75371" lon="7.05191">
        <ele>970.8</ele>
        <time>2025-01-25T10:32:37.000Z</time>
      </trkpt>
      <trkpt lat="43.75367" lon="7.05199">
        <ele>971</ele>
        <time>2025-01-25T10:32:39.000Z</time>
      </trkpt>
      <trkpt lat="43.75361" lon="7.05207">
        <ele>971.1</ele>
        <time>2025-01-25T10:32:41.000Z</time>
      </trkpt>
      <trkpt lat="43.75357" lon="7.05211">
        <ele>971.1</ele>
        <time>2025-01-25T10:32:42.000Z</time>
      </trkpt>
      <trkpt lat="43.75354" lon="7.05216">
        <ele>971.1</ele>
        <time>2025-01-25T10:32:43.000Z</time>
      </trkpt>
      <trkpt lat="43.75349" lon="7.05224">
        <ele>971.1</ele>
        <time>2025-01-25T10:32:45.000Z</time>
      </trkpt>
      <trkpt lat="43.75343" lon="7.05232">
        <ele>971</ele>
        <time>2025-01-25T10:32:47.000Z</time>
      </trkpt>
      <trkpt lat="43.75338" lon="7.05239">
        <ele>970.8</ele>
        <time>2025-01-25T10:32:49.000Z</time>
      </trkpt>
      <trkpt lat="43.75332" lon="7.05247">
        <ele>970.7</ele>
        <time>2025-01-25T10:32:51.000Z</time>
      </trkpt>
      <trkpt lat="43.75326" lon="7.05254">
        <ele>970.6</ele>
        <time>2025-01-25T10:32:53.000Z</time>
      </trkpt>
      <trkpt lat="43.7532" lon="7.05261">
        <ele>970.4</ele>
        <time>2025-01-25T10:32:55.000Z</time>
      </trkpt>
      <trkpt lat="43.75316" lon="7.05268">
        <ele>970.4</ele>
        <time>2025-01-25T10:32:57.000Z</time>
      </trkpt>
      <trkpt lat="43.75313" lon="7.05273">
        <ele>970.2</ele>
        <time>2025-01-25T10:32:59.000Z</time>
      </trkpt>
      <trkpt lat="43.75309" lon="7.05277">
        <ele>970</ele>
        <time>2025-01-25T10:33:02.000Z</time>
      </trkpt>
      <trkpt lat="43.75305" lon="7.05283">
        <ele>969.8</ele>
        <time>2025-01-25T10:33:08.000Z</time>
      </trkpt>
      <trkpt lat="43.75302" lon="7.05289">
        <ele>969.7</ele>
        <time>2025-01-25T10:33:11.000Z</time>
      </trkpt>
      <trkpt lat="43.75298" lon="7.05292">
        <ele>969.6</ele>
        <time>2025-01-25T10:33:13.000Z</time>
      </trkpt>
      <trkpt lat="43.75294" lon="7.05297">
        <ele>969.6</ele>
        <time>2025-01-25T10:33:15.000Z</time>
      </trkpt>
      <trkpt lat="43.75291" lon="7.05304">
        <ele>969.6</ele>
        <time>2025-01-25T10:33:17.000Z</time>
      </trkpt>
      <trkpt lat="43.75289" lon="7.05313">
        <ele>969.6</ele>
        <time>2025-01-25T10:33:19.000Z</time>
      </trkpt>
      <trkpt lat="43.75288" lon="7.05322">
        <ele>969.5</ele>
        <time>2025-01-25T10:33:21.000Z</time>
      </trkpt>
      <trkpt lat="43.75287" lon="7.05331">
        <ele>969.5</ele>
        <time>2025-01-25T10:33:23.000Z</time>
      </trkpt>
      <trkpt lat="43.75284" lon="7.05339">
        <ele>969.5</ele>
        <time>2025-01-25T10:33:25.000Z</time>
      </trkpt>
      <trkpt lat="43.75282" lon="7.05347">
        <ele>969.5</ele>
        <time>2025-01-25T10:33:27.000Z</time>
      </trkpt>
      <trkpt lat="43.75279" lon="7.05355">
        <ele>969.6</ele>
        <time>2025-01-25T10:33:29.000Z</time>
      </trkpt>
      <trkpt lat="43.75275" lon="7.05363">
        <ele>969.6</ele>
        <time>2025-01-25T10:33:31.000Z</time>
      </trkpt>
      <trkpt lat="43.75272" lon="7.05372">
        <ele>969.5</ele>
        <time>2025-01-25T10:33:33.000Z</time>
      </trkpt>
      <trkpt lat="43.75269" lon="7.05384">
        <ele>969.3</ele>
        <time>2025-01-25T10:33:35.000Z</time>
      </trkpt>
      <trkpt lat="43.75268" lon="7.0539">
        <ele>969.2</ele>
        <time>2025-01-25T10:33:36.000Z</time>
      </trkpt>
      <trkpt lat="43.75268" lon="7.05396">
        <ele>969.1</ele>
        <time>2025-01-25T10:33:37.000Z</time>
      </trkpt>
      <trkpt lat="43.75265" lon="7.05407">
        <ele>968.8</ele>
        <time>2025-01-25T10:33:39.000Z</time>
      </trkpt>
      <trkpt lat="43.75262" lon="7.05412">
        <ele>968.7</ele>
        <time>2025-01-25T10:33:40.000Z</time>
      </trkpt>
      <trkpt lat="43.75256" lon="7.05421">
        <ele>968.4</ele>
        <time>2025-01-25T10:33:42.000Z</time>
      </trkpt>
      <trkpt lat="43.7525" lon="7.05429">
        <ele>968.1</ele>
        <time>2025-01-25T10:33:44.000Z</time>
      </trkpt>
      <trkpt lat="43.75246" lon="7.05433">
        <ele>967.8</ele>
        <time>2025-01-25T10:33:45.000Z</time>
      </trkpt>
      <trkpt lat="43.75243" lon="7.05437">
        <ele>967.4</ele>
        <time>2025-01-25T10:33:46.000Z</time>
      </trkpt>
      <trkpt lat="43.7524" lon="7.05441">
        <ele>967</ele>
        <time>2025-01-25T10:33:47.000Z</time>
      </trkpt>
      <trkpt lat="43.75233" lon="7.05449">
        <ele>966.6</ele>
        <time>2025-01-25T10:33:49.000Z</time>
      </trkpt>
      <trkpt lat="43.75229" lon="7.05453">
        <ele>966.5</ele>
        <time>2025-01-25T10:33:50.000Z</time>
      </trkpt>
      <trkpt lat="43.75222" lon="7.05459">
        <ele>966.3</ele>
        <time>2025-01-25T10:33:52.000Z</time>
      </trkpt>
      <trkpt lat="43.75214" lon="7.05465">
        <ele>965.7</ele>
        <time>2025-01-25T10:33:54.000Z</time>
      </trkpt>
      <trkpt lat="43.75207" lon="7.0547">
        <ele>965.2</ele>
        <time>2025-01-25T10:33:56.000Z</time>
      </trkpt>
      <trkpt lat="43.75202" lon="7.05475">
        <ele>964.8</ele>
        <time>2025-01-25T10:33:58.000Z</time>
      </trkpt>
      <trkpt lat="43.75197" lon="7.05479">
        <ele>964.6</ele>
        <time>2025-01-25T10:34:00.000Z</time>
      </trkpt>
      <trkpt lat="43.75192" lon="7.05482">
        <ele>964.4</ele>
        <time>2025-01-25T10:34:02.000Z</time>
      </trkpt>
      <trkpt lat="43.75187" lon="7.05486">
        <ele>964.3</ele>
        <time>2025-01-25T10:34:04.000Z</time>
      </trkpt>
      <trkpt lat="43.75182" lon="7.05491">
        <ele>964.2</ele>
        <time>2025-01-25T10:34:06.000Z</time>
      </trkpt>
      <trkpt lat="43.75178" lon="7.05495">
        <ele>964.2</ele>
        <time>2025-01-25T10:34:08.000Z</time>
      </trkpt>
      <trkpt lat="43.75174" lon="7.05499">
        <ele>964.2</ele>
        <time>2025-01-25T10:34:10.000Z</time>
      </trkpt>
      <trkpt lat="43.75169" lon="7.05504">
        <ele>964.2</ele>
        <time>2025-01-25T10:34:12.000Z</time>
      </trkpt>
      <trkpt lat="43.75165" lon="7.05509">
        <ele>964.3</ele>
        <time>2025-01-25T10:34:14.000Z</time>
      </trkpt>
      <trkpt lat="43.75161" lon="7.05515">
        <ele>964.5</ele>
        <time>2025-01-25T10:34:16.000Z</time>
      </trkpt>
      <trkpt lat="43.75156" lon="7.05522">
        <ele>964.6</ele>
        <time>2025-01-25T10:34:18.000Z</time>
      </trkpt>
      <trkpt lat="43.75153" lon="7.05527">
        <ele>964.7</ele>
        <time>2025-01-25T10:34:20.000Z</time>
      </trkpt>
      <trkpt lat="43.75149" lon="7.05534">
        <ele>964.9</ele>
        <time>2025-01-25T10:34:22.000Z</time>
      </trkpt>
      <trkpt lat="43.75145" lon="7.05541">
        <ele>965.2</ele>
        <time>2025-01-25T10:34:24.000Z</time>
      </trkpt>
      <trkpt lat="43.75141" lon="7.05546">
        <ele>965.4</ele>
        <time>2025-01-25T10:34:26.000Z</time>
      </trkpt>
      <trkpt lat="43.75136" lon="7.0555">
        <ele>965.8</ele>
        <time>2025-01-25T10:34:29.000Z</time>
      </trkpt>
      <trkpt lat="43.75131" lon="7.05554">
        <ele>966.3</ele>
        <time>2025-01-25T10:34:32.000Z</time>
      </trkpt>
      <trkpt lat="43.75127" lon="7.05556">
        <ele>966.5</ele>
        <time>2025-01-25T10:34:34.000Z</time>
      </trkpt>
      <trkpt lat="43.75122" lon="7.05558">
        <ele>966.9</ele>
        <time>2025-01-25T10:34:37.000Z</time>
      </trkpt>
      <trkpt lat="43.75118" lon="7.05561">
        <ele>967.1</ele>
        <time>2025-01-25T10:34:39.000Z</time>
      </trkpt>
      <trkpt lat="43.75114" lon="7.05564">
        <ele>967.3</ele>
        <time>2025-01-25T10:34:41.000Z</time>
      </trkpt>
      <trkpt lat="43.75108" lon="7.05567">
        <ele>967.5</ele>
        <time>2025-01-25T10:34:44.000Z</time>
      </trkpt>
      <trkpt lat="43.75103" lon="7.05566">
        <ele>967.9</ele>
        <time>2025-01-25T10:34:48.000Z</time>
      </trkpt>
      <trkpt lat="43.75097" lon="7.05562">
        <ele>968.1</ele>
        <time>2025-01-25T10:34:51.000Z</time>
      </trkpt>
      <trkpt lat="43.75091" lon="7.05558">
        <ele>968.3</ele>
        <time>2025-01-25T10:34:54.000Z</time>
      </trkpt>
      <trkpt lat="43.75087" lon="7.05554">
        <ele>968.3</ele>
        <time>2025-01-25T10:34:56.000Z</time>
      </trkpt>
      <trkpt lat="43.75084" lon="7.05549">
        <ele>968.4</ele>
        <time>2025-01-25T10:34:58.000Z</time>
      </trkpt>
      <trkpt lat="43.75079" lon="7.05547">
        <ele>968.6</ele>
        <time>2025-01-25T10:35:01.000Z</time>
      </trkpt>
      <trkpt lat="43.75074" lon="7.05549">
        <ele>968.6</ele>
        <time>2025-01-25T10:35:03.000Z</time>
      </trkpt>
      <trkpt lat="43.75068" lon="7.05549">
        <ele>968.9</ele>
        <time>2025-01-25T10:35:06.000Z</time>
      </trkpt>
      <trkpt lat="43.75062" lon="7.05549">
        <ele>969.3</ele>
        <time>2025-01-25T10:35:09.000Z</time>
      </trkpt>
      <trkpt lat="43.75057" lon="7.05547">
        <ele>969.7</ele>
        <time>2025-01-25T10:35:12.000Z</time>
      </trkpt>
      <trkpt lat="43.75052" lon="7.05549">
        <ele>970.1</ele>
        <time>2025-01-25T10:35:15.000Z</time>
      </trkpt>
      <trkpt lat="43.75047" lon="7.05548">
        <ele>970.3</ele>
        <time>2025-01-25T10:35:18.000Z</time>
      </trkpt>
      <trkpt lat="43.75041" lon="7.05545">
        <ele>970.4</ele>
        <time>2025-01-25T10:35:20.000Z</time>
      </trkpt>
      <trkpt lat="43.75036" lon="7.05543">
        <ele>970.5</ele>
        <time>2025-01-25T10:35:23.000Z</time>
      </trkpt>
      <trkpt lat="43.75032" lon="7.05542">
        <ele>970.4</ele>
        <time>2025-01-25T10:35:26.000Z</time>
      </trkpt>
      <trkpt lat="43.75026" lon="7.05542">
        <ele>970.4</ele>
        <time>2025-01-25T10:35:29.000Z</time>
      </trkpt>
      <trkpt lat="43.7502" lon="7.05539">
        <ele>970.4</ele>
        <time>2025-01-25T10:35:32.000Z</time>
      </trkpt>
      <trkpt lat="43.75014" lon="7.05536">
        <ele>970.4</ele>
        <time>2025-01-25T10:35:35.000Z</time>
      </trkpt>
      <trkpt lat="43.75009" lon="7.05533">
        <ele>970.4</ele>
        <time>2025-01-25T10:35:37.000Z</time>
      </trkpt>
      <trkpt lat="43.75005" lon="7.05529">
        <ele>970.4</ele>
        <time>2025-01-25T10:35:39.000Z</time>
      </trkpt>
      <trkpt lat="43.75001" lon="7.05526">
        <ele>970.4</ele>
        <time>2025-01-25T10:35:41.000Z</time>
      </trkpt>
      <trkpt lat="43.74996" lon="7.05523">
        <ele>970.4</ele>
        <time>2025-01-25T10:35:43.000Z</time>
      </trkpt>
      <trkpt lat="43.74992" lon="7.0552">
        <ele>970.4</ele>
        <time>2025-01-25T10:35:45.000Z</time>
      </trkpt>
      <trkpt lat="43.74987" lon="7.05514">
        <ele>970.5</ele>
        <time>2025-01-25T10:35:48.000Z</time>
      </trkpt>
      <trkpt lat="43.74983" lon="7.05509">
        <ele>970.5</ele>
        <time>2025-01-25T10:35:50.000Z</time>
      </trkpt>
      <trkpt lat="43.74979" lon="7.05506">
        <ele>970.5</ele>
        <time>2025-01-25T10:35:52.000Z</time>
      </trkpt>
      <trkpt lat="43.74972" lon="7.05505">
        <ele>970.6</ele>
        <time>2025-01-25T10:35:55.000Z</time>
      </trkpt>
      <trkpt lat="43.74967" lon="7.05505">
        <ele>970.8</ele>
        <time>2025-01-25T10:35:57.000Z</time>
      </trkpt>
      <trkpt lat="43.74962" lon="7.05505">
        <ele>971</ele>
        <time>2025-01-25T10:36:00.000Z</time>
      </trkpt>
      <trkpt lat="43.74958" lon="7.055">
        <ele>971.4</ele>
        <time>2025-01-25T10:36:03.000Z</time>
      </trkpt>
      <trkpt lat="43.74956" lon="7.05493">
        <ele>971.8</ele>
        <time>2025-01-25T10:36:06.000Z</time>
      </trkpt>
      <trkpt lat="43.7495" lon="7.0549">
        <ele>972.2</ele>
        <time>2025-01-25T10:36:09.000Z</time>
      </trkpt>
      <trkpt lat="43.74945" lon="7.05488">
        <ele>972.5</ele>
        <time>2025-01-25T10:36:12.000Z</time>
      </trkpt>
      <trkpt lat="43.74939" lon="7.0549">
        <ele>972.9</ele>
        <time>2025-01-25T10:36:15.000Z</time>
      </trkpt>
      <trkpt lat="43.74934" lon="7.05489">
        <ele>973.4</ele>
        <time>2025-01-25T10:36:18.000Z</time>
      </trkpt>
      <trkpt lat="43.74929" lon="7.05483">
        <ele>973.7</ele>
        <time>2025-01-25T10:36:21.000Z</time>
      </trkpt>
      <trkpt lat="43.74924" lon="7.05477">
        <ele>974</ele>
        <time>2025-01-25T10:36:24.000Z</time>
      </trkpt>
      <trkpt lat="43.74921" lon="7.05471">
        <ele>974.1</ele>
        <time>2025-01-25T10:36:27.000Z</time>
      </trkpt>
      <trkpt lat="43.74918" lon="7.05465">
        <ele>974.2</ele>
        <time>2025-01-25T10:36:30.000Z</time>
      </trkpt>
      <trkpt lat="43.74915" lon="7.0546">
        <ele>974.4</ele>
        <time>2025-01-25T10:36:33.000Z</time>
      </trkpt>
      <trkpt lat="43.74912" lon="7.05455">
        <ele>974.5</ele>
        <time>2025-01-25T10:36:36.000Z</time>
      </trkpt>
      <trkpt lat="43.74908" lon="7.0545">
        <ele>974.7</ele>
        <time>2025-01-25T10:36:39.000Z</time>
      </trkpt>
      <trkpt lat="43.74904" lon="7.05446">
        <ele>974.9</ele>
        <time>2025-01-25T10:36:42.000Z</time>
      </trkpt>
      <trkpt lat="43.749" lon="7.05443">
        <ele>975.2</ele>
        <time>2025-01-25T10:36:45.000Z</time>
      </trkpt>
      <trkpt lat="43.74896" lon="7.05436">
        <ele>975.5</ele>
        <time>2025-01-25T10:36:49.000Z</time>
      </trkpt>
      <trkpt lat="43.74894" lon="7.05431">
        <ele>975.8</ele>
        <time>2025-01-25T10:36:52.000Z</time>
      </trkpt>
      <trkpt lat="43.74889" lon="7.05428">
        <ele>976</ele>
        <time>2025-01-25T10:36:55.000Z</time>
      </trkpt>
      <trkpt lat="43.74885" lon="7.05424">
        <ele>976.3</ele>
        <time>2025-01-25T10:36:59.000Z</time>
      </trkpt>
      <trkpt lat="43.74878" lon="7.05422">
        <ele>976.5</ele>
        <time>2025-01-25T10:37:03.000Z</time>
      </trkpt>
      <trkpt lat="43.74872" lon="7.05421">
        <ele>976.8</ele>
        <time>2025-01-25T10:37:06.000Z</time>
      </trkpt>
      <trkpt lat="43.74868" lon="7.05419">
        <ele>977</ele>
        <time>2025-01-25T10:37:09.000Z</time>
      </trkpt>
      <trkpt lat="43.74862" lon="7.05418">
        <ele>977.3</ele>
        <time>2025-01-25T10:37:13.000Z</time>
      </trkpt>
      <trkpt lat="43.74856" lon="7.05415">
        <ele>977.7</ele>
        <time>2025-01-25T10:37:17.000Z</time>
      </trkpt>
      <trkpt lat="43.74851" lon="7.05414">
        <ele>978.2</ele>
        <time>2025-01-25T10:37:21.000Z</time>
      </trkpt>
      <trkpt lat="43.74845" lon="7.05414">
        <ele>978.9</ele>
        <time>2025-01-25T10:37:25.000Z</time>
      </trkpt>
      <trkpt lat="43.7484" lon="7.05415">
        <ele>979.6</ele>
        <time>2025-01-25T10:37:28.000Z</time>
      </trkpt>
      <trkpt lat="43.74835" lon="7.05414">
        <ele>980.3</ele>
        <time>2025-01-25T10:37:31.000Z</time>
      </trkpt>
      <trkpt lat="43.7483" lon="7.05411">
        <ele>981.2</ele>
        <time>2025-01-25T10:37:35.000Z</time>
      </trkpt>
      <trkpt lat="43.74825" lon="7.05408">
        <ele>982.2</ele>
        <time>2025-01-25T10:37:39.000Z</time>
      </trkpt>
      <trkpt lat="43.74819" lon="7.05409">
        <ele>982.6</ele>
        <time>2025-01-25T10:37:42.000Z</time>
      </trkpt>
      <trkpt lat="43.74814" lon="7.05409">
        <ele>982.8</ele>
        <time>2025-01-25T10:37:45.000Z</time>
      </trkpt>
      <trkpt lat="43.7481" lon="7.05406">
        <ele>983</ele>
        <time>2025-01-25T10:37:48.000Z</time>
      </trkpt>
      <trkpt lat="43.74806" lon="7.05404">
        <ele>983.1</ele>
        <time>2025-01-25T10:37:51.000Z</time>
      </trkpt>
      <trkpt lat="43.74802" lon="7.054">
        <ele>983.3</ele>
        <time>2025-01-25T10:37:54.000Z</time>
      </trkpt>
      <trkpt lat="43.74797" lon="7.05397">
        <ele>983.6</ele>
        <time>2025-01-25T10:37:57.000Z</time>
      </trkpt>
      <trkpt lat="43.74792" lon="7.05395">
        <ele>983.8</ele>
        <time>2025-01-25T10:38:00.000Z</time>
      </trkpt>
      <trkpt lat="43.74788" lon="7.05392">
        <ele>984.1</ele>
        <time>2025-01-25T10:38:03.000Z</time>
      </trkpt>
      <trkpt lat="43.74785" lon="7.05388">
        <ele>984.4</ele>
        <time>2025-01-25T10:38:06.000Z</time>
      </trkpt>
      <trkpt lat="43.74781" lon="7.05382">
        <ele>984.8</ele>
        <time>2025-01-25T10:38:10.000Z</time>
      </trkpt>
      <trkpt lat="43.7478" lon="7.05375">
        <ele>985.1</ele>
        <time>2025-01-25T10:38:14.000Z</time>
      </trkpt>
      <trkpt lat="43.74779" lon="7.05368">
        <ele>985.5</ele>
        <time>2025-01-25T10:38:18.000Z</time>
      </trkpt>
      <trkpt lat="43.74778" lon="7.05361">
        <ele>986.4</ele>
        <time>2025-01-25T10:38:23.000Z</time>
      </trkpt>
      <trkpt lat="43.74777" lon="7.05354">
        <ele>987.2</ele>
        <time>2025-01-25T10:38:28.000Z</time>
      </trkpt>
      <trkpt lat="43.74775" lon="7.05348">
        <ele>988.1</ele>
        <time>2025-01-25T10:38:33.000Z</time>
      </trkpt>
      <trkpt lat="43.74776" lon="7.05342">
        <ele>989.1</ele>
        <time>2025-01-25T10:38:40.000Z</time>
      </trkpt>
      <trkpt lat="43.74777" lon="7.05336">
        <ele>989.9</ele>
        <time>2025-01-25T10:38:46.000Z</time>
      </trkpt>
      <trkpt lat="43.74777" lon="7.05329">
        <ele>990.8</ele>
        <time>2025-01-25T10:38:52.000Z</time>
      </trkpt>
      <trkpt lat="43.74776" lon="7.05322">
        <ele>991.6</ele>
        <time>2025-01-25T10:38:57.000Z</time>
      </trkpt>
      <trkpt lat="43.74774" lon="7.05315">
        <ele>992.7</ele>
        <time>2025-01-25T10:39:03.000Z</time>
      </trkpt>
      <trkpt lat="43.74771" lon="7.0531">
        <ele>993.9</ele>
        <time>2025-01-25T10:39:08.000Z</time>
      </trkpt>
      <trkpt lat="43.74769" lon="7.05304">
        <ele>995</ele>
        <time>2025-01-25T10:39:13.000Z</time>
      </trkpt>
      <trkpt lat="43.74767" lon="7.05298">
        <ele>996.4</ele>
        <time>2025-01-25T10:39:23.000Z</time>
      </trkpt>
      <trkpt lat="43.74767" lon="7.05292">
        <ele>996.6</ele>
        <time>2025-01-25T10:39:27.000Z</time>
      </trkpt>
      <trkpt lat="43.74768" lon="7.05285">
        <ele>996.8</ele>
        <time>2025-01-25T10:39:29.000Z</time>
      </trkpt>
      <trkpt lat="43.74769" lon="7.05278">
        <ele>996.9</ele>
        <time>2025-01-25T10:39:31.000Z</time>
      </trkpt>
      <trkpt lat="43.74769" lon="7.05272">
        <ele>996.9</ele>
        <time>2025-01-25T10:39:33.000Z</time>
      </trkpt>
      <trkpt lat="43.74769" lon="7.05263">
        <ele>997</ele>
        <time>2025-01-25T10:39:36.000Z</time>
      </trkpt>
      <trkpt lat="43.74767" lon="7.05256">
        <ele>997.2</ele>
        <time>2025-01-25T10:39:39.000Z</time>
      </trkpt>
      <trkpt lat="43.74766" lon="7.05249">
        <ele>997.3</ele>
        <time>2025-01-25T10:39:42.000Z</time>
      </trkpt>
      <trkpt lat="43.74764" lon="7.05243">
        <ele>997.5</ele>
        <time>2025-01-25T10:39:45.000Z</time>
      </trkpt>
      <trkpt lat="43.74761" lon="7.05236">
        <ele>998</ele>
        <time>2025-01-25T10:39:49.000Z</time>
      </trkpt>
      <trkpt lat="43.74757" lon="7.05229">
        <ele>998.6</ele>
        <time>2025-01-25T10:39:53.000Z</time>
      </trkpt>
      <trkpt lat="43.74755" lon="7.05222">
        <ele>999.4</ele>
        <time>2025-01-25T10:39:57.000Z</time>
      </trkpt>
      <trkpt lat="43.74754" lon="7.05215">
        <ele>1000.1</ele>
        <time>2025-01-25T10:40:01.000Z</time>
      </trkpt>
      <trkpt lat="43.74752" lon="7.05207">
        <ele>1000.7</ele>
        <time>2025-01-25T10:40:05.000Z</time>
      </trkpt>
      <trkpt lat="43.74751" lon="7.052">
        <ele>1001.2</ele>
        <time>2025-01-25T10:40:08.000Z</time>
      </trkpt>
      <trkpt lat="43.74751" lon="7.05191">
        <ele>1001.8</ele>
        <time>2025-01-25T10:40:12.000Z</time>
      </trkpt>
      <trkpt lat="43.74751" lon="7.05184">
        <ele>1002.3</ele>
        <time>2025-01-25T10:40:16.000Z</time>
      </trkpt>
      <trkpt lat="43.74749" lon="7.05176">
        <ele>1002.8</ele>
        <time>2025-01-25T10:40:20.000Z</time>
      </trkpt>
      <trkpt lat="43.74747" lon="7.05169">
        <ele>1003.4</ele>
        <time>2025-01-25T10:40:25.000Z</time>
      </trkpt>
      <trkpt lat="43.74747" lon="7.05163">
        <ele>1004.2</ele>
        <time>2025-01-25T10:40:29.000Z</time>
      </trkpt>
      <trkpt lat="43.74743" lon="7.05159">
        <ele>1005.6</ele>
        <time>2025-01-25T10:40:36.000Z</time>
      </trkpt>
      <trkpt lat="43.74739" lon="7.05157">
        <ele>1006.9</ele>
        <time>2025-01-25T10:40:44.000Z</time>
      </trkpt>
      <trkpt lat="43.74734" lon="7.05158">
        <ele>1007.8</ele>
        <time>2025-01-25T10:40:49.000Z</time>
      </trkpt>
      <trkpt lat="43.74729" lon="7.05155">
        <ele>1008.6</ele>
        <time>2025-01-25T10:40:53.000Z</time>
      </trkpt>
      <trkpt lat="43.74725" lon="7.05151">
        <ele>1010.7</ele>
        <time>2025-01-25T10:41:06.000Z</time>
      </trkpt>
      <trkpt lat="43.74721" lon="7.05148">
        <ele>1011.6</ele>
        <time>2025-01-25T10:41:11.000Z</time>
      </trkpt>
      <trkpt lat="43.74721" lon="7.05148">
        <ele>1012</ele>
        <time>2025-01-25T10:41:15.000Z</time>
      </trkpt>
      <trkpt lat="43.74721" lon="7.05148">
        <ele>1012.1</ele>
        <time>2025-01-25T10:41:16.000Z</time>
      </trkpt>
      <trkpt lat="43.74722" lon="7.05148">
        <ele>1012.2</ele>
        <time>2025-01-25T10:41:17.000Z</time>
      </trkpt>
      <trkpt lat="43.74721" lon="7.05148">
        <ele>1012.2</ele>
        <time>2025-01-25T10:41:18.000Z</time>
      </trkpt>
      <trkpt lat="43.74721" lon="7.05148">
        <ele>1012.3</ele>
        <time>2025-01-25T10:41:19.000Z</time>
      </trkpt>
      <trkpt lat="43.7472" lon="7.05148">
        <ele>1012.4</ele>
        <time>2025-01-25T10:41:23.000Z</time>
      </trkpt>
      <trkpt lat="43.7472" lon="7.05147">
        <ele>1012.4</ele>
        <time>2025-01-25T10:41:24.000Z</time>
      </trkpt>
      <trkpt lat="43.74719" lon="7.05146">
        <ele>1012.4</ele>
        <time>2025-01-25T10:41:25.000Z</time>
      </trkpt>
      <trkpt lat="43.74718" lon="7.05144">
        <ele>1012.4</ele>
        <time>2025-01-25T10:41:26.000Z</time>
      </trkpt>
      <trkpt lat="43.74718" lon="7.05142">
        <ele>1012.4</ele>
        <time>2025-01-25T10:41:27.000Z</time>
      </trkpt>
      <trkpt lat="43.74716" lon="7.05135">
        <ele>1012.6</ele>
        <time>2025-01-25T10:41:30.000Z</time>
      </trkpt>
      <trkpt lat="43.74712" lon="7.0513">
        <ele>1012.8</ele>
        <time>2025-01-25T10:41:33.000Z</time>
      </trkpt>
      <trkpt lat="43.74709" lon="7.05123">
        <ele>1013.1</ele>
        <time>2025-01-25T10:41:36.000Z</time>
      </trkpt>
      <trkpt lat="43.74705" lon="7.05118">
        <ele>1013.5</ele>
        <time>2025-01-25T10:41:39.000Z</time>
      </trkpt>
      <trkpt lat="43.74702" lon="7.05114">
        <ele>1013.9</ele>
        <time>2025-01-25T10:41:42.000Z</time>
      </trkpt>
      <trkpt lat="43.74699" lon="7.05107">
        <ele>1014.5</ele>
        <time>2025-01-25T10:41:46.000Z</time>
      </trkpt>
      <trkpt lat="43.74696" lon="7.051">
        <ele>1014.8</ele>
        <time>2025-01-25T10:41:49.000Z</time>
      </trkpt>
      <trkpt lat="43.74693" lon="7.05094">
        <ele>1015.1</ele>
        <time>2025-01-25T10:41:52.000Z</time>
      </trkpt>
      <trkpt lat="43.74691" lon="7.05086">
        <ele>1015.5</ele>
        <time>2025-01-25T10:41:55.000Z</time>
      </trkpt>
      <trkpt lat="43.74687" lon="7.0508">
        <ele>1015.9</ele>
        <time>2025-01-25T10:41:58.000Z</time>
      </trkpt>
      <trkpt lat="43.74684" lon="7.05074">
        <ele>1016.2</ele>
        <time>2025-01-25T10:42:01.000Z</time>
      </trkpt>
      <trkpt lat="43.7468" lon="7.05069">
        <ele>1016.7</ele>
        <time>2025-01-25T10:42:05.000Z</time>
      </trkpt>
      <trkpt lat="43.74676" lon="7.05066">
        <ele>1017</ele>
        <time>2025-01-25T10:42:08.000Z</time>
      </trkpt>
      <trkpt lat="43.74673" lon="7.0506">
        <ele>1017.4</ele>
        <time>2025-01-25T10:42:11.000Z</time>
      </trkpt>
      <trkpt lat="43.7467" lon="7.05055">
        <ele>1017.6</ele>
        <time>2025-01-25T10:42:14.000Z</time>
      </trkpt>
      <trkpt lat="43.74667" lon="7.05049">
        <ele>1017.9</ele>
        <time>2025-01-25T10:42:17.000Z</time>
      </trkpt>
      <trkpt lat="43.74661" lon="7.05045">
        <ele>1018.1</ele>
        <time>2025-01-25T10:42:20.000Z</time>
      </trkpt>
      <trkpt lat="43.74657" lon="7.05041">
        <ele>1018.4</ele>
        <time>2025-01-25T10:42:23.000Z</time>
      </trkpt>
      <trkpt lat="43.74652" lon="7.05037">
        <ele>1018.9</ele>
        <time>2025-01-25T10:42:27.000Z</time>
      </trkpt>
      <trkpt lat="43.74648" lon="7.05032">
        <ele>1019.3</ele>
        <time>2025-01-25T10:42:30.000Z</time>
      </trkpt>
      <trkpt lat="43.74644" lon="7.05028">
        <ele>1019.8</ele>
        <time>2025-01-25T10:42:33.000Z</time>
      </trkpt>
      <trkpt lat="43.7464" lon="7.05025">
        <ele>1020.3</ele>
        <time>2025-01-25T10:42:36.000Z</time>
      </trkpt>
      <trkpt lat="43.74636" lon="7.0502">
        <ele>1021.3</ele>
        <time>2025-01-25T10:42:41.000Z</time>
      </trkpt>
      <trkpt lat="43.74631" lon="7.05017">
        <ele>1021.8</ele>
        <time>2025-01-25T10:42:44.000Z</time>
      </trkpt>
      <trkpt lat="43.74627" lon="7.05014">
        <ele>1022.5</ele>
        <time>2025-01-25T10:42:48.000Z</time>
      </trkpt>
      <trkpt lat="43.74623" lon="7.05012">
        <ele>1023.2</ele>
        <time>2025-01-25T10:42:52.000Z</time>
      </trkpt>
      <trkpt lat="43.74617" lon="7.0501">
        <ele>1024</ele>
        <time>2025-01-25T10:42:57.000Z</time>
      </trkpt>
      <trkpt lat="43.74612" lon="7.05007">
        <ele>1024.8</ele>
        <time>2025-01-25T10:43:02.000Z</time>
      </trkpt>
      <trkpt lat="43.74606" lon="7.05006">
        <ele>1025.5</ele>
        <time>2025-01-25T10:43:06.000Z</time>
      </trkpt>
      <trkpt lat="43.74602" lon="7.05004">
        <ele>1026.2</ele>
        <time>2025-01-25T10:43:11.000Z</time>
      </trkpt>
      <trkpt lat="43.74597" lon="7.05003">
        <ele>1026.7</ele>
        <time>2025-01-25T10:43:15.000Z</time>
      </trkpt>
      <trkpt lat="43.74591" lon="7.05003">
        <ele>1027.1</ele>
        <time>2025-01-25T10:43:19.000Z</time>
      </trkpt>
      <trkpt lat="43.74586" lon="7.05003">
        <ele>1027.5</ele>
        <time>2025-01-25T10:43:22.000Z</time>
      </trkpt>
      <trkpt lat="43.74581" lon="7.05002">
        <ele>1027.7</ele>
        <time>2025-01-25T10:43:25.000Z</time>
      </trkpt>
      <trkpt lat="43.74576" lon="7.05003">
        <ele>1027.9</ele>
        <time>2025-01-25T10:43:28.000Z</time>
      </trkpt>
      <trkpt lat="43.74571" lon="7.05003">
        <ele>1028</ele>
        <time>2025-01-25T10:43:31.000Z</time>
      </trkpt>
      <trkpt lat="43.74565" lon="7.05004">
        <ele>1028.2</ele>
        <time>2025-01-25T10:43:34.000Z</time>
      </trkpt>
      <trkpt lat="43.74559" lon="7.05003">
        <ele>1028.3</ele>
        <time>2025-01-25T10:43:37.000Z</time>
      </trkpt>
      <trkpt lat="43.74554" lon="7.05003">
        <ele>1028.4</ele>
        <time>2025-01-25T10:43:39.000Z</time>
      </trkpt>
      <trkpt lat="43.74548" lon="7.05004">
        <ele>1028.5</ele>
        <time>2025-01-25T10:43:42.000Z</time>
      </trkpt>
      <trkpt lat="43.74542" lon="7.05002">
        <ele>1028.5</ele>
        <time>2025-01-25T10:43:45.000Z</time>
      </trkpt>
      <trkpt lat="43.74538" lon="7.05">
        <ele>1028.6</ele>
        <time>2025-01-25T10:43:53.000Z</time>
      </trkpt>
      <trkpt lat="43.74538" lon="7.05">
        <ele>1028.6</ele>
        <time>2025-01-25T10:43:54.000Z</time>
      </trkpt>
      <trkpt lat="43.74539" lon="7.04999">
        <ele>1028.7</ele>
        <time>2025-01-25T10:44:04.000Z</time>
      </trkpt>
      <trkpt lat="43.74539" lon="7.04999">
        <ele>1028.7</ele>
        <time>2025-01-25T10:44:05.000Z</time>
      </trkpt>
      <trkpt lat="43.74539" lon="7.05">
        <ele>1028.7</ele>
        <time>2025-01-25T10:44:09.000Z</time>
      </trkpt>
      <trkpt lat="43.74539" lon="7.05">
        <ele>1028.7</ele>
        <time>2025-01-25T10:44:10.000Z</time>
      </trkpt>
      <trkpt lat="43.74538" lon="7.05">
        <ele>1028.8</ele>
        <time>2025-01-25T10:44:21.000Z</time>
      </trkpt>
      <trkpt lat="43.74537" lon="7.04999">
        <ele>1028.8</ele>
        <time>2025-01-25T10:44:22.000Z</time>
      </trkpt>
      <trkpt lat="43.74536" lon="7.04999">
        <ele>1028.8</ele>
        <time>2025-01-25T10:44:23.000Z</time>
      </trkpt>
      <trkpt lat="43.74534" lon="7.04998">
        <ele>1028.8</ele>
        <time>2025-01-25T10:44:24.000Z</time>
      </trkpt>
      <trkpt lat="43.74532" lon="7.04998">
        <ele>1028.8</ele>
        <time>2025-01-25T10:44:25.000Z</time>
      </trkpt>
      <trkpt lat="43.74529" lon="7.04998">
        <ele>1028.8</ele>
        <time>2025-01-25T10:44:26.000Z</time>
      </trkpt>
      <trkpt lat="43.74527" lon="7.04998">
        <ele>1028.8</ele>
        <time>2025-01-25T10:44:27.000Z</time>
      </trkpt>
      <trkpt lat="43.74521" lon="7.04997">
        <ele>1028.8</ele>
        <time>2025-01-25T10:44:29.000Z</time>
      </trkpt>
      <trkpt lat="43.74517" lon="7.04998">
        <ele>1028.8</ele>
        <time>2025-01-25T10:44:31.000Z</time>
      </trkpt>
      <trkpt lat="43.74511" lon="7.04999">
        <ele>1028.8</ele>
        <time>2025-01-25T10:44:33.000Z</time>
      </trkpt>
      <trkpt lat="43.74506" lon="7.05">
        <ele>1028.8</ele>
        <time>2025-01-25T10:44:35.000Z</time>
      </trkpt>
      <trkpt lat="43.745" lon="7.05002">
        <ele>1028.7</ele>
        <time>2025-01-25T10:44:37.000Z</time>
      </trkpt>
      <trkpt lat="43.74494" lon="7.05006">
        <ele>1028.6</ele>
        <time>2025-01-25T10:44:39.000Z</time>
      </trkpt>
      <trkpt lat="43.74488" lon="7.05009">
        <ele>1028.6</ele>
        <time>2025-01-25T10:44:41.000Z</time>
      </trkpt>
      <trkpt lat="43.74481" lon="7.05011">
        <ele>1028.4</ele>
        <time>2025-01-25T10:44:44.000Z</time>
      </trkpt>
      <trkpt lat="43.74476" lon="7.05011">
        <ele>1028.4</ele>
        <time>2025-01-25T10:44:46.000Z</time>
      </trkpt>
      <trkpt lat="43.74472" lon="7.05008">
        <ele>1028.4</ele>
        <time>2025-01-25T10:44:48.000Z</time>
      </trkpt>
      <trkpt lat="43.74468" lon="7.05003">
        <ele>1028.3</ele>
        <time>2025-01-25T10:44:51.000Z</time>
      </trkpt>
      <trkpt lat="43.74464" lon="7.04998">
        <ele>1028.3</ele>
        <time>2025-01-25T10:44:54.000Z</time>
      </trkpt>
      <trkpt lat="43.74461" lon="7.04993">
        <ele>1028.4</ele>
        <time>2025-01-25T10:44:59.000Z</time>
      </trkpt>
      <trkpt lat="43.74461" lon="7.04993">
        <ele>1028.4</ele>
        <time>2025-01-25T10:45:03.000Z</time>
      </trkpt>
      <trkpt lat="43.74461" lon="7.04993">
        <ele>1028.4</ele>
        <time>2025-01-25T10:45:04.000Z</time>
      </trkpt>
      <trkpt lat="43.74461" lon="7.04993">
        <ele>1028.4</ele>
        <time>2025-01-25T10:45:05.000Z</time>
      </trkpt>
      <trkpt lat="43.74461" lon="7.04993">
        <ele>1028.5</ele>
        <time>2025-01-25T10:45:14.000Z</time>
      </trkpt>
      <trkpt lat="43.7446" lon="7.04992">
        <ele>1028.5</ele>
        <time>2025-01-25T10:45:15.000Z</time>
      </trkpt>
      <trkpt lat="43.74457" lon="7.04988">
        <ele>1028.6</ele>
        <time>2025-01-25T10:45:20.000Z</time>
      </trkpt>
      <trkpt lat="43.74454" lon="7.04983">
        <ele>1028.8</ele>
        <time>2025-01-25T10:45:27.000Z</time>
      </trkpt>
      <trkpt lat="43.74451" lon="7.04977">
        <ele>1029</ele>
        <time>2025-01-25T10:45:32.000Z</time>
      </trkpt>
      <trkpt lat="43.74447" lon="7.04973">
        <ele>1029.2</ele>
        <time>2025-01-25T10:45:37.000Z</time>
      </trkpt>
      <trkpt lat="43.74448" lon="7.04971">
        <ele>1029.3</ele>
        <time>2025-01-25T10:45:48.000Z</time>
      </trkpt>
      <trkpt lat="43.74448" lon="7.0497">
        <ele>1029.3</ele>
        <time>2025-01-25T10:45:49.000Z</time>
      </trkpt>
      <trkpt lat="43.74448" lon="7.04969">
        <ele>1029.4</ele>
        <time>2025-01-25T10:45:50.000Z</time>
      </trkpt>
      <trkpt lat="43.74448" lon="7.04968">
        <ele>1029.4</ele>
        <time>2025-01-25T10:45:51.000Z</time>
      </trkpt>
      <trkpt lat="43.74447" lon="7.04967">
        <ele>1029.4</ele>
        <time>2025-01-25T10:45:52.000Z</time>
      </trkpt>
      <trkpt lat="43.74441" lon="7.04966">
        <ele>1029.3</ele>
        <time>2025-01-25T10:45:58.000Z</time>
      </trkpt>
      <trkpt lat="43.74436" lon="7.04967">
        <ele>1029.2</ele>
        <time>2025-01-25T10:46:03.000Z</time>
      </trkpt>
      <trkpt lat="43.74431" lon="7.04969">
        <ele>1029</ele>
        <time>2025-01-25T10:46:06.000Z</time>
      </trkpt>
      <trkpt lat="43.74425" lon="7.04971">
        <ele>1028.7</ele>
        <time>2025-01-25T10:46:08.000Z</time>
      </trkpt>
      <trkpt lat="43.74418" lon="7.04975">
        <ele>1028</ele>
        <time>2025-01-25T10:46:10.000Z</time>
      </trkpt>
      <trkpt lat="43.74412" lon="7.04976">
        <ele>1027</ele>
        <time>2025-01-25T10:46:12.000Z</time>
      </trkpt>
      <trkpt lat="43.74407" lon="7.0498">
        <ele>1025.7</ele>
        <time>2025-01-25T10:46:14.000Z</time>
      </trkpt>
      <trkpt lat="43.74401" lon="7.04983">
        <ele>1024.3</ele>
        <time>2025-01-25T10:46:16.000Z</time>
      </trkpt>
      <trkpt lat="43.74392" lon="7.04987">
        <ele>1022.3</ele>
        <time>2025-01-25T10:46:18.000Z</time>
      </trkpt>
      <trkpt lat="43.74387" lon="7.04988">
        <ele>1021.6</ele>
        <time>2025-01-25T10:46:19.000Z</time>
      </trkpt>
      <trkpt lat="43.74382" lon="7.04993">
        <ele>1020.6</ele>
        <time>2025-01-25T10:46:21.000Z</time>
      </trkpt>
      <trkpt lat="43.74377" lon="7.04994">
        <ele>1020</ele>
        <time>2025-01-25T10:46:23.000Z</time>
      </trkpt>
      <trkpt lat="43.74372" lon="7.04995">
        <ele>1019.4</ele>
        <time>2025-01-25T10:46:25.000Z</time>
      </trkpt>
      <trkpt lat="43.74366" lon="7.04999">
        <ele>1018.8</ele>
        <time>2025-01-25T10:46:27.000Z</time>
      </trkpt>
      <trkpt lat="43.74361" lon="7.05003">
        <ele>1018.5</ele>
        <time>2025-01-25T10:46:29.000Z</time>
      </trkpt>
      <trkpt lat="43.74356" lon="7.05007">
        <ele>1018.4</ele>
        <time>2025-01-25T10:46:31.000Z</time>
      </trkpt>
      <trkpt lat="43.74351" lon="7.0501">
        <ele>1018.4</ele>
        <time>2025-01-25T10:46:34.000Z</time>
      </trkpt>
      <trkpt lat="43.74347" lon="7.05009">
        <ele>1018.6</ele>
        <time>2025-01-25T10:46:37.000Z</time>
      </trkpt>
      <trkpt lat="43.7434" lon="7.05009">
        <ele>1018.9</ele>
        <time>2025-01-25T10:46:44.000Z</time>
      </trkpt>
      <trkpt lat="43.74336" lon="7.0501">
        <ele>1019</ele>
        <time>2025-01-25T10:46:46.000Z</time>
      </trkpt>
      <trkpt lat="43.7433" lon="7.05011">
        <ele>1019.1</ele>
        <time>2025-01-25T10:46:49.000Z</time>
      </trkpt>
      <trkpt lat="43.74323" lon="7.05011">
        <ele>1019.1</ele>
        <time>2025-01-25T10:46:52.000Z</time>
      </trkpt>
      <trkpt lat="43.74317" lon="7.05008">
        <ele>1019</ele>
        <time>2025-01-25T10:46:55.000Z</time>
      </trkpt>
      <trkpt lat="43.74311" lon="7.05004">
        <ele>1019</ele>
        <time>2025-01-25T10:46:58.000Z</time>
      </trkpt>
      <trkpt lat="43.74307" lon="7.05003">
        <ele>1018.9</ele>
        <time>2025-01-25T10:47:01.000Z</time>
      </trkpt>
      <trkpt lat="43.74302" lon="7.05004">
        <ele>1018.9</ele>
        <time>2025-01-25T10:47:10.000Z</time>
      </trkpt>
      <trkpt lat="43.74296" lon="7.05004">
        <ele>1018.9</ele>
        <time>2025-01-25T10:47:13.000Z</time>
      </trkpt>
      <trkpt lat="43.74292" lon="7.05009">
        <ele>1018.9</ele>
        <time>2025-01-25T10:47:16.000Z</time>
      </trkpt>
      <trkpt lat="43.74291" lon="7.05012">
        <ele>1019</ele>
        <time>2025-01-25T10:47:20.000Z</time>
      </trkpt>
      <trkpt lat="43.74291" lon="7.05011">
        <ele>1019</ele>
        <time>2025-01-25T10:47:21.000Z</time>
      </trkpt>
      <trkpt lat="43.74291" lon="7.05012">
        <ele>1019</ele>
        <time>2025-01-25T10:47:22.000Z</time>
      </trkpt>
      <trkpt lat="43.74291" lon="7.05012">
        <ele>1019</ele>
        <time>2025-01-25T10:47:23.000Z</time>
      </trkpt>
      <trkpt lat="43.74291" lon="7.05012">
        <ele>1019.1</ele>
        <time>2025-01-25T10:47:24.000Z</time>
      </trkpt>
      <trkpt lat="43.74292" lon="7.05012">
        <ele>1019.2</ele>
        <time>2025-01-25T10:47:25.000Z</time>
      </trkpt>
      <trkpt lat="43.74291" lon="7.05012">
        <ele>1019.2</ele>
        <time>2025-01-25T10:47:26.000Z</time>
      </trkpt>
      <trkpt lat="43.74291" lon="7.05012">
        <ele>1019.3</ele>
        <time>2025-01-25T10:47:27.000Z</time>
      </trkpt>
      <trkpt lat="43.7429" lon="7.05013">
        <ele>1019.3</ele>
        <time>2025-01-25T10:47:28.000Z</time>
      </trkpt>
      <trkpt lat="43.74289" lon="7.05015">
        <ele>1019.4</ele>
        <time>2025-01-25T10:47:29.000Z</time>
      </trkpt>
      <trkpt lat="43.74289" lon="7.05016">
        <ele>1019.4</ele>
        <time>2025-01-25T10:47:30.000Z</time>
      </trkpt>
      <trkpt lat="43.74288" lon="7.05023">
        <ele>1019.7</ele>
        <time>2025-01-25T10:47:35.000Z</time>
      </trkpt>
      <trkpt lat="43.74285" lon="7.05031">
        <ele>1019.9</ele>
        <time>2025-01-25T10:47:39.000Z</time>
      </trkpt>
      <trkpt lat="43.74282" lon="7.05036">
        <ele>1020.1</ele>
        <time>2025-01-25T10:47:42.000Z</time>
      </trkpt>
      <trkpt lat="43.74278" lon="7.05042">
        <ele>1020.4</ele>
        <time>2025-01-25T10:47:45.000Z</time>
      </trkpt>
      <trkpt lat="43.74273" lon="7.05045">
        <ele>1020.8</ele>
        <time>2025-01-25T10:47:48.000Z</time>
      </trkpt>
      <trkpt lat="43.74269" lon="7.05049">
        <ele>1021.2</ele>
        <time>2025-01-25T10:47:51.000Z</time>
      </trkpt>
      <trkpt lat="43.74265" lon="7.05052">
        <ele>1021.6</ele>
        <time>2025-01-25T10:47:54.000Z</time>
      </trkpt>
      <trkpt lat="43.7426" lon="7.05054">
        <ele>1022.3</ele>
        <time>2025-01-25T10:47:58.000Z</time>
      </trkpt>
      <trkpt lat="43.74255" lon="7.05057">
        <ele>1023</ele>
        <time>2025-01-25T10:48:01.000Z</time>
      </trkpt>
      <trkpt lat="43.74251" lon="7.05061">
        <ele>1023.6</ele>
        <time>2025-01-25T10:48:04.000Z</time>
      </trkpt>
      <trkpt lat="43.74247" lon="7.05068">
        <ele>1024.2</ele>
        <time>2025-01-25T10:48:07.000Z</time>
      </trkpt>
      <trkpt lat="43.74243" lon="7.05071">
        <ele>1024.6</ele>
        <time>2025-01-25T10:48:10.000Z</time>
      </trkpt>
      <trkpt lat="43.74239" lon="7.05074">
        <ele>1025.1</ele>
        <time>2025-01-25T10:48:13.000Z</time>
      </trkpt>
      <trkpt lat="43.74233" lon="7.05077">
        <ele>1025.5</ele>
        <time>2025-01-25T10:48:17.000Z</time>
      </trkpt>
      <trkpt lat="43.74229" lon="7.0508">
        <ele>1025.8</ele>
        <time>2025-01-25T10:48:20.000Z</time>
      </trkpt>
      <trkpt lat="43.74224" lon="7.05083">
        <ele>1026.4</ele>
        <time>2025-01-25T10:48:24.000Z</time>
      </trkpt>
      <trkpt lat="43.74219" lon="7.05085">
        <ele>1027</ele>
        <time>2025-01-25T10:48:28.000Z</time>
      </trkpt>
      <trkpt lat="43.74215" lon="7.05088">
        <ele>1027.6</ele>
        <time>2025-01-25T10:48:32.000Z</time>
      </trkpt>
      <trkpt lat="43.74209" lon="7.0509">
        <ele>1028.1</ele>
        <time>2025-01-25T10:48:36.000Z</time>
      </trkpt>
      <trkpt lat="43.74204" lon="7.0509">
        <ele>1028.5</ele>
        <time>2025-01-25T10:48:40.000Z</time>
      </trkpt>
      <trkpt lat="43.74199" lon="7.05092">
        <ele>1029</ele>
        <time>2025-01-25T10:48:44.000Z</time>
      </trkpt>
      <trkpt lat="43.74195" lon="7.05092">
        <ele>1030.3</ele>
        <time>2025-01-25T10:49:01.000Z</time>
      </trkpt>
      <trkpt lat="43.7419" lon="7.05094">
        <ele>1030.5</ele>
        <time>2025-01-25T10:49:05.000Z</time>
      </trkpt>
      <trkpt lat="43.74185" lon="7.05094">
        <ele>1030.7</ele>
        <time>2025-01-25T10:49:10.000Z</time>
      </trkpt>
      <trkpt lat="43.7418" lon="7.05096">
        <ele>1031</ele>
        <time>2025-01-25T10:49:13.000Z</time>
      </trkpt>
      <trkpt lat="43.74175" lon="7.05102">
        <ele>1031.1</ele>
        <time>2025-01-25T10:49:16.000Z</time>
      </trkpt>
      <trkpt lat="43.74171" lon="7.05107">
        <ele>1031.2</ele>
        <time>2025-01-25T10:49:19.000Z</time>
      </trkpt>
      <trkpt lat="43.74165" lon="7.05105">
        <ele>1031.2</ele>
        <time>2025-01-25T10:49:23.000Z</time>
      </trkpt>
      <trkpt lat="43.7416" lon="7.05104">
        <ele>1031.3</ele>
        <time>2025-01-25T10:49:26.000Z</time>
      </trkpt>
      <trkpt lat="43.74154" lon="7.05102">
        <ele>1031.4</ele>
        <time>2025-01-25T10:49:29.000Z</time>
      </trkpt>
      <trkpt lat="43.74149" lon="7.05101">
        <ele>1031.6</ele>
        <time>2025-01-25T10:49:32.000Z</time>
      </trkpt>
      <trkpt lat="43.74144" lon="7.05099">
        <ele>1031.7</ele>
        <time>2025-01-25T10:49:36.000Z</time>
      </trkpt>
      <trkpt lat="43.7414" lon="7.05101">
        <ele>1032.2</ele>
        <time>2025-01-25T10:49:41.000Z</time>
      </trkpt>
      <trkpt lat="43.74135" lon="7.05102">
        <ele>1032.7</ele>
        <time>2025-01-25T10:49:50.000Z</time>
      </trkpt>
      <trkpt lat="43.74131" lon="7.05101">
        <ele>1032.9</ele>
        <time>2025-01-25T10:49:55.000Z</time>
      </trkpt>
      <trkpt lat="43.74127" lon="7.05106">
        <ele>1033</ele>
        <time>2025-01-25T10:49:58.000Z</time>
      </trkpt>
      <trkpt lat="43.74123" lon="7.05111">
        <ele>1033</ele>
        <time>2025-01-25T10:50:01.000Z</time>
      </trkpt>
      <trkpt lat="43.74118" lon="7.05114">
        <ele>1033</ele>
        <time>2025-01-25T10:50:04.000Z</time>
      </trkpt>
      <trkpt lat="43.74112" lon="7.05116">
        <ele>1032.8</ele>
        <time>2025-01-25T10:50:09.000Z</time>
      </trkpt>
      <trkpt lat="43.74109" lon="7.05121">
        <ele>1032.7</ele>
        <time>2025-01-25T10:50:13.000Z</time>
      </trkpt>
      <trkpt lat="43.74106" lon="7.05126">
        <ele>1032.6</ele>
        <time>2025-01-25T10:50:17.000Z</time>
      </trkpt>
      <trkpt lat="43.74101" lon="7.05127">
        <ele>1032.7</ele>
        <time>2025-01-25T10:50:23.000Z</time>
      </trkpt>
      <trkpt lat="43.74096" lon="7.05127">
        <ele>1032.9</ele>
        <time>2025-01-25T10:50:34.000Z</time>
      </trkpt>
      <trkpt lat="43.74092" lon="7.05125">
        <ele>1033.2</ele>
        <time>2025-01-25T10:50:44.000Z</time>
      </trkpt>
      <trkpt lat="43.74087" lon="7.05125">
        <ele>1033.2</ele>
        <time>2025-01-25T10:50:51.000Z</time>
      </trkpt>
      <trkpt lat="43.74082" lon="7.05128">
        <ele>1033.3</ele>
        <time>2025-01-25T10:50:58.000Z</time>
      </trkpt>
      <trkpt lat="43.74077" lon="7.05129">
        <ele>1033.3</ele>
        <time>2025-01-25T10:51:02.000Z</time>
      </trkpt>
      <trkpt lat="43.74072" lon="7.05129">
        <ele>1033.3</ele>
        <time>2025-01-25T10:51:06.000Z</time>
      </trkpt>
      <trkpt lat="43.74066" lon="7.05128">
        <ele>1033.3</ele>
        <time>2025-01-25T10:51:10.000Z</time>
      </trkpt>
      <trkpt lat="43.74062" lon="7.05127">
        <ele>1033.4</ele>
        <time>2025-01-25T10:51:12.000Z</time>
      </trkpt>
      <trkpt lat="43.74058" lon="7.05124">
        <ele>1033.4</ele>
        <time>2025-01-25T10:51:16.000Z</time>
      </trkpt>
      <trkpt lat="43.74054" lon="7.05118">
        <ele>1033.5</ele>
        <time>2025-01-25T10:51:23.000Z</time>
      </trkpt>
      <trkpt lat="43.74049" lon="7.05117">
        <ele>1033.5</ele>
        <time>2025-01-25T10:51:26.000Z</time>
      </trkpt>
      <trkpt lat="43.74043" lon="7.05119">
        <ele>1033.5</ele>
        <time>2025-01-25T10:51:29.000Z</time>
      </trkpt>
      <trkpt lat="43.74038" lon="7.05118">
        <ele>1033.5</ele>
        <time>2025-01-25T10:51:31.000Z</time>
      </trkpt>
      <trkpt lat="43.74034" lon="7.05117">
        <ele>1033.5</ele>
        <time>2025-01-25T10:51:33.000Z</time>
      </trkpt>
      <trkpt lat="43.74028" lon="7.05115">
        <ele>1033.5</ele>
        <time>2025-01-25T10:51:35.000Z</time>
      </trkpt>
      <trkpt lat="43.74024" lon="7.05116">
        <ele>1033.4</ele>
        <time>2025-01-25T10:51:41.000Z</time>
      </trkpt>
      <trkpt lat="43.74024" lon="7.05115">
        <ele>1033.1</ele>
        <time>2025-01-25T10:51:46.000Z</time>
      </trkpt>
      <trkpt lat="43.74024" lon="7.05115">
        <ele>1033.1</ele>
        <time>2025-01-25T10:51:47.000Z</time>
      </trkpt>
      <trkpt lat="43.74024" lon="7.05115">
        <ele>1033.1</ele>
        <time>2025-01-25T10:51:48.000Z</time>
      </trkpt>
      <trkpt lat="43.74027" lon="7.05113">
        <ele>1032.7</ele>
        <time>2025-01-25T10:57:59.000Z</time>
      </trkpt>
      <trkpt lat="43.74027" lon="7.05113">
        <ele>1032.7</ele>
        <time>2025-01-25T10:58:00.000Z</time>
      </trkpt>
      <trkpt lat="43.74027" lon="7.05114">
        <ele>1033</ele>
        <time>2025-01-25T10:58:15.000Z</time>
      </trkpt>
      <trkpt lat="43.74027" lon="7.05114">
        <ele>1033</ele>
        <time>2025-01-25T10:58:16.000Z</time>
      </trkpt>
      <trkpt lat="43.74027" lon="7.05114">
        <ele>1033</ele>
        <time>2025-01-25T10:58:17.000Z</time>
      </trkpt>
      <trkpt lat="43.74026" lon="7.05114">
        <ele>1033.4</ele>
        <time>2025-01-25T10:59:03.000Z</time>
      </trkpt>
      <trkpt lat="43.74026" lon="7.05114">
        <ele>1033.4</ele>
        <time>2025-01-25T10:59:04.000Z</time>
      </trkpt>
      <trkpt lat="43.74025" lon="7.05114">
        <ele>1033.4</ele>
        <time>2025-01-25T10:59:08.000Z</time>
      </trkpt>
      <trkpt lat="43.74025" lon="7.05114">
        <ele>1033.4</ele>
        <time>2025-01-25T10:59:09.000Z</time>
      </trkpt>
      <trkpt lat="43.74025" lon="7.05114">
        <ele>1033.4</ele>
        <time>2025-01-25T10:59:10.000Z</time>
      </trkpt>
      <trkpt lat="43.74025" lon="7.05114">
        <ele>1033.5</ele>
        <time>2025-01-25T10:59:16.000Z</time>
      </trkpt>
      <trkpt lat="43.74025" lon="7.05114">
        <ele>1033.5</ele>
        <time>2025-01-25T10:59:17.000Z</time>
      </trkpt>
      <trkpt lat="43.74025" lon="7.05114">
        <ele>1033.5</ele>
        <time>2025-01-25T10:59:20.000Z</time>
      </trkpt>
      <trkpt lat="43.74025" lon="7.05114">
        <ele>1033.5</ele>
        <time>2025-01-25T10:59:21.000Z</time>
      </trkpt>
      <trkpt lat="43.74025" lon="7.05114">
        <ele>1033.5</ele>
        <time>2025-01-25T10:59:22.000Z</time>
      </trkpt>
      <trkpt lat="43.74025" lon="7.05114">
        <ele>1033.5</ele>
        <time>2025-01-25T10:59:23.000Z</time>
      </trkpt>
      <trkpt lat="43.74025" lon="7.05114">
        <ele>1033.5</ele>
        <time>2025-01-25T10:59:24.000Z</time>
      </trkpt>
      <trkpt lat="43.74025" lon="7.05114">
        <ele>1033.5</ele>
        <time>2025-01-25T10:59:25.000Z</time>
      </trkpt>
      <trkpt lat="43.74025" lon="7.05114">
        <ele>1033.5</ele>
        <time>2025-01-25T10:59:26.000Z</time>
      </trkpt>
      <trkpt lat="43.74026" lon="7.05114">
        <ele>1033.5</ele>
        <time>2025-01-25T10:59:27.000Z</time>
      </trkpt>
      <trkpt lat="43.74025" lon="7.05113">
        <ele>1033.5</ele>
        <time>2025-01-25T10:59:30.000Z</time>
      </trkpt>
      <trkpt lat="43.74024" lon="7.05113">
        <ele>1033.5</ele>
        <time>2025-01-25T10:59:31.000Z</time>
      </trkpt>
      <trkpt lat="43.74024" lon="7.05113">
        <ele>1033.6</ele>
        <time>2025-01-25T10:59:32.000Z</time>
      </trkpt>
      <trkpt lat="43.74025" lon="7.05114">
        <ele>1033.6</ele>
        <time>2025-01-25T10:59:36.000Z</time>
      </trkpt>
      <trkpt lat="43.74025" lon="7.05114">
        <ele>1033.6</ele>
        <time>2025-01-25T10:59:37.000Z</time>
      </trkpt>
      <trkpt lat="43.74025" lon="7.05114">
        <ele>1033.6</ele>
        <time>2025-01-25T10:59:38.000Z</time>
      </trkpt>
      <trkpt lat="43.74025" lon="7.05115">
        <ele>1033.6</ele>
        <time>2025-01-25T10:59:54.000Z</time>
      </trkpt>
      <trkpt lat="43.74024" lon="7.05116">
        <ele>1033.6</ele>
        <time>2025-01-25T10:59:55.000Z</time>
      </trkpt>
      <trkpt lat="43.74017" lon="7.05117">
        <ele>1033.6</ele>
        <time>2025-01-25T10:59:58.000Z</time>
      </trkpt>
      <trkpt lat="43.74011" lon="7.05119">
        <ele>1033.5</ele>
        <time>2025-01-25T11:00:00.000Z</time>
      </trkpt>
      <trkpt lat="43.74004" lon="7.05122">
        <ele>1033.4</ele>
        <time>2025-01-25T11:00:02.000Z</time>
      </trkpt>
      <trkpt lat="43.73998" lon="7.05125">
        <ele>1033.2</ele>
        <time>2025-01-25T11:00:04.000Z</time>
      </trkpt>
      <trkpt lat="43.73993" lon="7.05132">
        <ele>1032.8</ele>
        <time>2025-01-25T11:00:06.000Z</time>
      </trkpt>
      <trkpt lat="43.73989" lon="7.05138">
        <ele>1032.4</ele>
        <time>2025-01-25T11:00:08.000Z</time>
      </trkpt>
      <trkpt lat="43.73984" lon="7.05144">
        <ele>1032</ele>
        <time>2025-01-25T11:00:10.000Z</time>
      </trkpt>
      <trkpt lat="43.73979" lon="7.05151">
        <ele>1031.5</ele>
        <time>2025-01-25T11:00:12.000Z</time>
      </trkpt>
      <trkpt lat="43.73974" lon="7.05159">
        <ele>1031.2</ele>
        <time>2025-01-25T11:00:14.000Z</time>
      </trkpt>
      <trkpt lat="43.7397" lon="7.05167">
        <ele>1031.1</ele>
        <time>2025-01-25T11:00:16.000Z</time>
      </trkpt>
      <trkpt lat="43.73967" lon="7.05172">
        <ele>1031</ele>
        <time>2025-01-25T11:00:18.000Z</time>
      </trkpt>
      <trkpt lat="43.73965" lon="7.05178">
        <ele>1031.2</ele>
        <time>2025-01-25T11:00:20.000Z</time>
      </trkpt>
      <trkpt lat="43.73962" lon="7.05184">
        <ele>1031.2</ele>
        <time>2025-01-25T11:00:22.000Z</time>
      </trkpt>
      <trkpt lat="43.73959" lon="7.05189">
        <ele>1031.3</ele>
        <time>2025-01-25T11:00:24.000Z</time>
      </trkpt>
      <trkpt lat="43.73957" lon="7.05196">
        <ele>1031.5</ele>
        <time>2025-01-25T11:00:26.000Z</time>
      </trkpt>
      <trkpt lat="43.73955" lon="7.05205">
        <ele>1031.8</ele>
        <time>2025-01-25T11:00:29.000Z</time>
      </trkpt>
      <trkpt lat="43.73953" lon="7.05212">
        <ele>1032</ele>
        <time>2025-01-25T11:00:32.000Z</time>
      </trkpt>
      <trkpt lat="43.73951" lon="7.0522">
        <ele>1032.2</ele>
        <time>2025-01-25T11:00:35.000Z</time>
      </trkpt>
      <trkpt lat="43.73949" lon="7.05226">
        <ele>1032.3</ele>
        <time>2025-01-25T11:00:37.000Z</time>
      </trkpt>
      <trkpt lat="43.73948" lon="7.05233">
        <ele>1032.5</ele>
        <time>2025-01-25T11:00:39.000Z</time>
      </trkpt>
      <trkpt lat="43.73947" lon="7.05241">
        <ele>1032.6</ele>
        <time>2025-01-25T11:00:41.000Z</time>
      </trkpt>
      <trkpt lat="43.73948" lon="7.05248">
        <ele>1032.8</ele>
        <time>2025-01-25T11:00:43.000Z</time>
      </trkpt>
      <trkpt lat="43.73948" lon="7.05255">
        <ele>1032.9</ele>
        <time>2025-01-25T11:00:45.000Z</time>
      </trkpt>
      <trkpt lat="43.73947" lon="7.05263">
        <ele>1032.9</ele>
        <time>2025-01-25T11:00:47.000Z</time>
      </trkpt>
      <trkpt lat="43.73946" lon="7.05273">
        <ele>1032.9</ele>
        <time>2025-01-25T11:00:49.000Z</time>
      </trkpt>
      <trkpt lat="43.73945" lon="7.05283">
        <ele>1032.8</ele>
        <time>2025-01-25T11:00:51.000Z</time>
      </trkpt>
      <trkpt lat="43.73945" lon="7.05289">
        <ele>1032.6</ele>
        <time>2025-01-25T11:00:53.000Z</time>
      </trkpt>
      <trkpt lat="43.73945" lon="7.05289">
        <ele>1031.3</ele>
        <time>2025-01-25T11:01:01.000Z</time>
      </trkpt>
      <trkpt lat="43.73945" lon="7.05289">
        <ele>1031.2</ele>
        <time>2025-01-25T11:01:02.000Z</time>
      </trkpt>
      <trkpt lat="43.73945" lon="7.0529">
        <ele>1030.6</ele>
        <time>2025-01-25T11:01:13.000Z</time>
      </trkpt>
      <trkpt lat="43.73944" lon="7.0529">
        <ele>1030.6</ele>
        <time>2025-01-25T11:01:14.000Z</time>
      </trkpt>
      <trkpt lat="43.73944" lon="7.05291">
        <ele>1030.5</ele>
        <time>2025-01-25T11:01:15.000Z</time>
      </trkpt>
      <trkpt lat="43.7394" lon="7.05295">
        <ele>1029.3</ele>
        <time>2025-01-25T11:01:23.000Z</time>
      </trkpt>
      <trkpt lat="43.73936" lon="7.05302">
        <ele>1028.1</ele>
        <time>2025-01-25T11:01:26.000Z</time>
      </trkpt>
      <trkpt lat="43.73932" lon="7.05308">
        <ele>1027.2</ele>
        <time>2025-01-25T11:01:28.000Z</time>
      </trkpt>
      <trkpt lat="43.73929" lon="7.05314">
        <ele>1025.2</ele>
        <time>2025-01-25T11:01:30.000Z</time>
      </trkpt>
      <trkpt lat="43.73924" lon="7.05321">
        <ele>1023</ele>
        <time>2025-01-25T11:01:32.000Z</time>
      </trkpt>
      <trkpt lat="43.73919" lon="7.05329">
        <ele>1021.2</ele>
        <time>2025-01-25T11:01:34.000Z</time>
      </trkpt>
      <trkpt lat="43.73915" lon="7.05337">
        <ele>1019.7</ele>
        <time>2025-01-25T11:01:36.000Z</time>
      </trkpt>
      <trkpt lat="43.73911" lon="7.05347">
        <ele>1017.5</ele>
        <time>2025-01-25T11:01:38.000Z</time>
      </trkpt>
      <trkpt lat="43.73906" lon="7.05357">
        <ele>1015</ele>
        <time>2025-01-25T11:01:40.000Z</time>
      </trkpt>
      <trkpt lat="43.73902" lon="7.05365">
        <ele>1013.9</ele>
        <time>2025-01-25T11:01:42.000Z</time>
      </trkpt>
      <trkpt lat="43.73897" lon="7.05373">
        <ele>1012.8</ele>
        <time>2025-01-25T11:01:44.000Z</time>
      </trkpt>
      <trkpt lat="43.73892" lon="7.05383">
        <ele>1011.1</ele>
        <time>2025-01-25T11:01:46.000Z</time>
      </trkpt>
      <trkpt lat="43.7389" lon="7.05389">
        <ele>1010.1</ele>
        <time>2025-01-25T11:01:47.000Z</time>
      </trkpt>
      <trkpt lat="43.73886" lon="7.05399">
        <ele>1008.7</ele>
        <time>2025-01-25T11:01:49.000Z</time>
      </trkpt>
      <trkpt lat="43.73882" lon="7.05408">
        <ele>1007.4</ele>
        <time>2025-01-25T11:01:51.000Z</time>
      </trkpt>
      <trkpt lat="43.73878" lon="7.05418">
        <ele>1005.8</ele>
        <time>2025-01-25T11:01:53.000Z</time>
      </trkpt>
      <trkpt lat="43.73873" lon="7.05427">
        <ele>1003.7</ele>
        <time>2025-01-25T11:01:55.000Z</time>
      </trkpt>
      <trkpt lat="43.73868" lon="7.05436">
        <ele>1002.1</ele>
        <time>2025-01-25T11:01:57.000Z</time>
      </trkpt>
      <trkpt lat="43.73866" lon="7.05446">
        <ele>1001.1</ele>
        <time>2025-01-25T11:01:59.000Z</time>
      </trkpt>
      <trkpt lat="43.73864" lon="7.05455">
        <ele>999.9</ele>
        <time>2025-01-25T11:02:01.000Z</time>
      </trkpt>
      <trkpt lat="43.73864" lon="7.05461">
        <ele>998.2</ele>
        <time>2025-01-25T11:02:05.000Z</time>
      </trkpt>
      <trkpt lat="43.73864" lon="7.05467">
        <ele>997.4</ele>
        <time>2025-01-25T11:02:09.000Z</time>
      </trkpt>
      <trkpt lat="43.73862" lon="7.05474">
        <ele>997.2</ele>
        <time>2025-01-25T11:02:11.000Z</time>
      </trkpt>
      <trkpt lat="43.73857" lon="7.05483">
        <ele>996.7</ele>
        <time>2025-01-25T11:02:13.000Z</time>
      </trkpt>
      <trkpt lat="43.73854" lon="7.05488">
        <ele>996.1</ele>
        <time>2025-01-25T11:02:14.000Z</time>
      </trkpt>
      <trkpt lat="43.73851" lon="7.05493">
        <ele>995.5</ele>
        <time>2025-01-25T11:02:15.000Z</time>
      </trkpt>
      <trkpt lat="43.73848" lon="7.05499">
        <ele>995</ele>
        <time>2025-01-25T11:02:16.000Z</time>
      </trkpt>
      <trkpt lat="43.73847" lon="7.0551">
        <ele>994.4</ele>
        <time>2025-01-25T11:02:18.000Z</time>
      </trkpt>
      <trkpt lat="43.73849" lon="7.0552">
        <ele>993.6</ele>
        <time>2025-01-25T11:02:20.000Z</time>
      </trkpt>
      <trkpt lat="43.73849" lon="7.05526">
        <ele>993</ele>
        <time>2025-01-25T11:02:22.000Z</time>
      </trkpt>
      <trkpt lat="43.73846" lon="7.05534">
        <ele>992.1</ele>
        <time>2025-01-25T11:02:25.000Z</time>
      </trkpt>
      <trkpt lat="43.73842" lon="7.05541">
        <ele>991.9</ele>
        <time>2025-01-25T11:02:28.000Z</time>
      </trkpt>
      <trkpt lat="43.73839" lon="7.05549">
        <ele>991.4</ele>
        <time>2025-01-25T11:02:30.000Z</time>
      </trkpt>
      <trkpt lat="43.73835" lon="7.05559">
        <ele>990.7</ele>
        <time>2025-01-25T11:02:32.000Z</time>
      </trkpt>
      <trkpt lat="43.73834" lon="7.05566">
        <ele>990.2</ele>
        <time>2025-01-25T11:02:33.000Z</time>
      </trkpt>
      <trkpt lat="43.73835" lon="7.05577">
        <ele>989.4</ele>
        <time>2025-01-25T11:02:35.000Z</time>
      </trkpt>
      <trkpt lat="43.73835" lon="7.05585">
        <ele>989.2</ele>
        <time>2025-01-25T11:02:37.000Z</time>
      </trkpt>
      <trkpt lat="43.73833" lon="7.05593">
        <ele>989.1</ele>
        <time>2025-01-25T11:02:39.000Z</time>
      </trkpt>
      <trkpt lat="43.7383" lon="7.056">
        <ele>989.2</ele>
        <time>2025-01-25T11:02:42.000Z</time>
      </trkpt>
      <trkpt lat="43.73827" lon="7.05606">
        <ele>989.3</ele>
        <time>2025-01-25T11:02:46.000Z</time>
      </trkpt>
      <trkpt lat="43.73824" lon="7.05613">
        <ele>989.6</ele>
        <time>2025-01-25T11:02:55.000Z</time>
      </trkpt>
      <trkpt lat="43.73827" lon="7.05618">
        <ele>989.9</ele>
        <time>2025-01-25T11:03:01.000Z</time>
      </trkpt>
      <trkpt lat="43.73829" lon="7.05625">
        <ele>990.3</ele>
        <time>2025-01-25T11:03:06.000Z</time>
      </trkpt>
      <trkpt lat="43.73827" lon="7.05632">
        <ele>990.7</ele>
        <time>2025-01-25T11:03:11.000Z</time>
      </trkpt>
      <trkpt lat="43.73823" lon="7.05635">
        <ele>991</ele>
        <time>2025-01-25T11:03:17.000Z</time>
      </trkpt>
      <trkpt lat="43.73823" lon="7.05644">
        <ele>991.1</ele>
        <time>2025-01-25T11:03:20.000Z</time>
      </trkpt>
      <trkpt lat="43.73824" lon="7.05651">
        <ele>991.1</ele>
        <time>2025-01-25T11:03:22.000Z</time>
      </trkpt>
      <trkpt lat="43.73824" lon="7.05657">
        <ele>991.2</ele>
        <time>2025-01-25T11:03:24.000Z</time>
      </trkpt>
      <trkpt lat="43.73825" lon="7.05664">
        <ele>991.3</ele>
        <time>2025-01-25T11:03:26.000Z</time>
      </trkpt>
      <trkpt lat="43.73825" lon="7.0567">
        <ele>991.2</ele>
        <time>2025-01-25T11:03:28.000Z</time>
      </trkpt>
      <trkpt lat="43.73824" lon="7.05677">
        <ele>991.2</ele>
        <time>2025-01-25T11:03:30.000Z</time>
      </trkpt>
      <trkpt lat="43.73822" lon="7.05685">
        <ele>991.2</ele>
        <time>2025-01-25T11:03:32.000Z</time>
      </trkpt>
      <trkpt lat="43.73821" lon="7.05692">
        <ele>991.3</ele>
        <time>2025-01-25T11:03:34.000Z</time>
      </trkpt>
      <trkpt lat="43.73819" lon="7.05701">
        <ele>991.2</ele>
        <time>2025-01-25T11:03:37.000Z</time>
      </trkpt>
      <trkpt lat="43.73818" lon="7.05708">
        <ele>991.2</ele>
        <time>2025-01-25T11:03:39.000Z</time>
      </trkpt>
      <trkpt lat="43.73816" lon="7.05714">
        <ele>991.2</ele>
        <time>2025-01-25T11:03:41.000Z</time>
      </trkpt>
      <trkpt lat="43.73814" lon="7.05723">
        <ele>991.2</ele>
        <time>2025-01-25T11:03:43.000Z</time>
      </trkpt>
      <trkpt lat="43.73812" lon="7.0573">
        <ele>991.2</ele>
        <time>2025-01-25T11:03:45.000Z</time>
      </trkpt>
      <trkpt lat="43.7381" lon="7.05737">
        <ele>991.2</ele>
        <time>2025-01-25T11:03:47.000Z</time>
      </trkpt>
      <trkpt lat="43.73808" lon="7.05744">
        <ele>991.1</ele>
        <time>2025-01-25T11:03:49.000Z</time>
      </trkpt>
      <trkpt lat="43.73806" lon="7.05752">
        <ele>991.1</ele>
        <time>2025-01-25T11:03:52.000Z</time>
      </trkpt>
      <trkpt lat="43.73804" lon="7.05759">
        <ele>991.1</ele>
        <time>2025-01-25T11:03:54.000Z</time>
      </trkpt>
      <trkpt lat="43.73802" lon="7.05765">
        <ele>991</ele>
        <time>2025-01-25T11:03:56.000Z</time>
      </trkpt>
      <trkpt lat="43.738" lon="7.05772">
        <ele>990.9</ele>
        <time>2025-01-25T11:03:58.000Z</time>
      </trkpt>
      <trkpt lat="43.73797" lon="7.05778">
        <ele>990.9</ele>
        <time>2025-01-25T11:04:00.000Z</time>
      </trkpt>
      <trkpt lat="43.73794" lon="7.05784">
        <ele>990.8</ele>
        <time>2025-01-25T11:04:02.000Z</time>
      </trkpt>
      <trkpt lat="43.73791" lon="7.05792">
        <ele>990.7</ele>
        <time>2025-01-25T11:04:05.000Z</time>
      </trkpt>
      <trkpt lat="43.73789" lon="7.05799">
        <ele>990.6</ele>
        <time>2025-01-25T11:04:07.000Z</time>
      </trkpt>
      <trkpt lat="43.73789" lon="7.05806">
        <ele>990.4</ele>
        <time>2025-01-25T11:04:10.000Z</time>
      </trkpt>
      <trkpt lat="43.73788" lon="7.05804">
        <ele>990.2</ele>
        <time>2025-01-25T11:04:16.000Z</time>
      </trkpt>
      <trkpt lat="43.73788" lon="7.05804">
        <ele>990.1</ele>
        <time>2025-01-25T11:04:17.000Z</time>
      </trkpt>
      <trkpt lat="43.73788" lon="7.05803">
        <ele>990.1</ele>
        <time>2025-01-25T11:04:18.000Z</time>
      </trkpt>
      <trkpt lat="43.7379" lon="7.05802">
        <ele>989.8</ele>
        <time>2025-01-25T11:04:53.000Z</time>
      </trkpt>
      <trkpt lat="43.73794" lon="7.05806">
        <ele>989.7</ele>
        <time>2025-01-25T11:04:57.000Z</time>
      </trkpt>
      <trkpt lat="43.73797" lon="7.05812">
        <ele>989.7</ele>
        <time>2025-01-25T11:04:59.000Z</time>
      </trkpt>
      <trkpt lat="43.73803" lon="7.05819">
        <ele>989.5</ele>
        <time>2025-01-25T11:05:01.000Z</time>
      </trkpt>
      <trkpt lat="43.7381" lon="7.05826">
        <ele>989.2</ele>
        <time>2025-01-25T11:05:03.000Z</time>
      </trkpt>
      <trkpt lat="43.73814" lon="7.0583">
        <ele>988.8</ele>
        <time>2025-01-25T11:05:04.000Z</time>
      </trkpt>
      <trkpt lat="43.73818" lon="7.05834">
        <ele>988.3</ele>
        <time>2025-01-25T11:05:05.000Z</time>
      </trkpt>
      <trkpt lat="43.73821" lon="7.05839">
        <ele>987.6</ele>
        <time>2025-01-25T11:05:06.000Z</time>
      </trkpt>
      <trkpt lat="43.73824" lon="7.05844">
        <ele>986.8</ele>
        <time>2025-01-25T11:05:07.000Z</time>
      </trkpt>
      <trkpt lat="43.7383" lon="7.05853">
        <ele>985.2</ele>
        <time>2025-01-25T11:05:09.000Z</time>
      </trkpt>
      <trkpt lat="43.73837" lon="7.05859">
        <ele>983.7</ele>
        <time>2025-01-25T11:05:11.000Z</time>
      </trkpt>
      <trkpt lat="43.73845" lon="7.05858">
        <ele>981.9</ele>
        <time>2025-01-25T11:05:13.000Z</time>
      </trkpt>
      <trkpt lat="43.73854" lon="7.05858">
        <ele>979.7</ele>
        <time>2025-01-25T11:05:15.000Z</time>
      </trkpt>
      <trkpt lat="43.73863" lon="7.05855">
        <ele>977.7</ele>
        <time>2025-01-25T11:05:17.000Z</time>
      </trkpt>
      <trkpt lat="43.73867" lon="7.05853">
        <ele>976.7</ele>
        <time>2025-01-25T11:05:18.000Z</time>
      </trkpt>
      <trkpt lat="43.73869" lon="7.05843">
        <ele>974.9</ele>
        <time>2025-01-25T11:05:20.000Z</time>
      </trkpt>
      <trkpt lat="43.73872" lon="7.05837">
        <ele>973.9</ele>
        <time>2025-01-25T11:05:21.000Z</time>
      </trkpt>
      <trkpt lat="43.73874" lon="7.05831">
        <ele>972.9</ele>
        <time>2025-01-25T11:05:22.000Z</time>
      </trkpt>
      <trkpt lat="43.73876" lon="7.05819">
        <ele>970.4</ele>
        <time>2025-01-25T11:05:24.000Z</time>
      </trkpt>
      <trkpt lat="43.73876" lon="7.05813">
        <ele>969.2</ele>
        <time>2025-01-25T11:05:25.000Z</time>
      </trkpt>
      <trkpt lat="43.73879" lon="7.05803">
        <ele>966.9</ele>
        <time>2025-01-25T11:05:27.000Z</time>
      </trkpt>
      <trkpt lat="43.73885" lon="7.05798">
        <ele>964.4</ele>
        <time>2025-01-25T11:05:29.000Z</time>
      </trkpt>
      <trkpt lat="43.73891" lon="7.05798">
        <ele>962.5</ele>
        <time>2025-01-25T11:05:31.000Z</time>
      </trkpt>
      <trkpt lat="43.73897" lon="7.05798">
        <ele>960.8</ele>
        <time>2025-01-25T11:05:33.000Z</time>
      </trkpt>
      <trkpt lat="43.73905" lon="7.05796">
        <ele>958.8</ele>
        <time>2025-01-25T11:05:35.000Z</time>
      </trkpt>
      <trkpt lat="43.73913" lon="7.05796">
        <ele>956.8</ele>
        <time>2025-01-25T11:05:37.000Z</time>
      </trkpt>
      <trkpt lat="43.73919" lon="7.05797">
        <ele>954.9</ele>
        <time>2025-01-25T11:05:39.000Z</time>
      </trkpt>
      <trkpt lat="43.73924" lon="7.05796">
        <ele>953.4</ele>
        <time>2025-01-25T11:05:41.000Z</time>
      </trkpt>
      <trkpt lat="43.73928" lon="7.05793">
        <ele>951.9</ele>
        <time>2025-01-25T11:05:43.000Z</time>
      </trkpt>
      <trkpt lat="43.7393" lon="7.05784">
        <ele>948.9</ele>
        <time>2025-01-25T11:05:46.000Z</time>
      </trkpt>
      <trkpt lat="43.73932" lon="7.05777">
        <ele>946.8</ele>
        <time>2025-01-25T11:05:48.000Z</time>
      </trkpt>
      <trkpt lat="43.73939" lon="7.05775">
        <ele>944.2</ele>
        <time>2025-01-25T11:05:51.000Z</time>
      </trkpt>
      <trkpt lat="43.73944" lon="7.05774">
        <ele>942.7</ele>
        <time>2025-01-25T11:05:53.000Z</time>
      </trkpt>
      <trkpt lat="43.7395" lon="7.05773">
        <ele>940.8</ele>
        <time>2025-01-25T11:05:55.000Z</time>
      </trkpt>
      <trkpt lat="43.73956" lon="7.0577">
        <ele>938.7</ele>
        <time>2025-01-25T11:05:57.000Z</time>
      </trkpt>
      <trkpt lat="43.73965" lon="7.05767">
        <ele>936.2</ele>
        <time>2025-01-25T11:05:59.000Z</time>
      </trkpt>
      <trkpt lat="43.73973" lon="7.05763">
        <ele>933.8</ele>
        <time>2025-01-25T11:06:01.000Z</time>
      </trkpt>
      <trkpt lat="43.73979" lon="7.05761">
        <ele>932</ele>
        <time>2025-01-25T11:06:03.000Z</time>
      </trkpt>
      <trkpt lat="43.73985" lon="7.05762">
        <ele>931</ele>
        <time>2025-01-25T11:06:05.000Z</time>
      </trkpt>
      <trkpt lat="43.7399" lon="7.05766">
        <ele>930.4</ele>
        <time>2025-01-25T11:06:07.000Z</time>
      </trkpt>
      <trkpt lat="43.73994" lon="7.05771">
        <ele>929.3</ele>
        <time>2025-01-25T11:06:09.000Z</time>
      </trkpt>
      <trkpt lat="43.73998" lon="7.05776">
        <ele>928</ele>
        <time>2025-01-25T11:06:11.000Z</time>
      </trkpt>
      <trkpt lat="43.74004" lon="7.0578">
        <ele>926.4</ele>
        <time>2025-01-25T11:06:13.000Z</time>
      </trkpt>
      <trkpt lat="43.7401" lon="7.05782">
        <ele>924.8</ele>
        <time>2025-01-25T11:06:15.000Z</time>
      </trkpt>
      <trkpt lat="43.74017" lon="7.05785">
        <ele>923.3</ele>
        <time>2025-01-25T11:06:17.000Z</time>
      </trkpt>
      <trkpt lat="43.74022" lon="7.05785">
        <ele>922.6</ele>
        <time>2025-01-25T11:06:18.000Z</time>
      </trkpt>
      <trkpt lat="43.74028" lon="7.05784">
        <ele>921.1</ele>
        <time>2025-01-25T11:06:20.000Z</time>
      </trkpt>
      <trkpt lat="43.74034" lon="7.05784">
        <ele>920</ele>
        <time>2025-01-25T11:06:22.000Z</time>
      </trkpt>
      <trkpt lat="43.74039" lon="7.05784">
        <ele>918.9</ele>
        <time>2025-01-25T11:06:24.000Z</time>
      </trkpt>
      <trkpt lat="43.74045" lon="7.05785">
        <ele>917.7</ele>
        <time>2025-01-25T11:06:26.000Z</time>
      </trkpt>
      <trkpt lat="43.74051" lon="7.05785">
        <ele>916.1</ele>
        <time>2025-01-25T11:06:28.000Z</time>
      </trkpt>
      <trkpt lat="43.74057" lon="7.05787">
        <ele>914.7</ele>
        <time>2025-01-25T11:06:30.000Z</time>
      </trkpt>
      <trkpt lat="43.74066" lon="7.05787">
        <ele>913.3</ele>
        <time>2025-01-25T11:06:32.000Z</time>
      </trkpt>
      <trkpt lat="43.74075" lon="7.05788">
        <ele>912</ele>
        <time>2025-01-25T11:06:34.000Z</time>
      </trkpt>
      <trkpt lat="43.74079" lon="7.05789">
        <ele>911.3</ele>
        <time>2025-01-25T11:06:35.000Z</time>
      </trkpt>
      <trkpt lat="43.74087" lon="7.05792">
        <ele>910</ele>
        <time>2025-01-25T11:06:37.000Z</time>
      </trkpt>
      <trkpt lat="43.74092" lon="7.05794">
        <ele>908.8</ele>
        <time>2025-01-25T11:06:39.000Z</time>
      </trkpt>
      <trkpt lat="43.74098" lon="7.058">
        <ele>906.7</ele>
        <time>2025-01-25T11:06:42.000Z</time>
      </trkpt>
      <trkpt lat="43.74105" lon="7.05803">
        <ele>905.3</ele>
        <time>2025-01-25T11:06:44.000Z</time>
      </trkpt>
      <trkpt lat="43.7411" lon="7.05806">
        <ele>903.7</ele>
        <time>2025-01-25T11:06:46.000Z</time>
      </trkpt>
      <trkpt lat="43.74115" lon="7.05811">
        <ele>902.5</ele>
        <time>2025-01-25T11:06:48.000Z</time>
      </trkpt>
      <trkpt lat="43.74119" lon="7.05815">
        <ele>900.6</ele>
        <time>2025-01-25T11:06:50.000Z</time>
      </trkpt>
      <trkpt lat="43.74125" lon="7.0582">
        <ele>898.5</ele>
        <time>2025-01-25T11:06:52.000Z</time>
      </trkpt>
      <trkpt lat="43.74131" lon="7.05823">
        <ele>897.2</ele>
        <time>2025-01-25T11:06:54.000Z</time>
      </trkpt>
      <trkpt lat="43.74138" lon="7.05825">
        <ele>895.5</ele>
        <time>2025-01-25T11:06:56.000Z</time>
      </trkpt>
      <trkpt lat="43.74144" lon="7.05825">
        <ele>894</ele>
        <time>2025-01-25T11:06:58.000Z</time>
      </trkpt>
      <trkpt lat="43.7415" lon="7.05823">
        <ele>893.3</ele>
        <time>2025-01-25T11:07:00.000Z</time>
      </trkpt>
      <trkpt lat="43.74156" lon="7.05825">
        <ele>892.6</ele>
        <time>2025-01-25T11:07:02.000Z</time>
      </trkpt>
      <trkpt lat="43.74163" lon="7.05828">
        <ele>891.7</ele>
        <time>2025-01-25T11:07:04.000Z</time>
      </trkpt>
      <trkpt lat="43.74172" lon="7.05832">
        <ele>890.6</ele>
        <time>2025-01-25T11:07:06.000Z</time>
      </trkpt>
      <trkpt lat="43.74177" lon="7.05832">
        <ele>889.9</ele>
        <time>2025-01-25T11:07:07.000Z</time>
      </trkpt>
      <trkpt lat="43.74183" lon="7.05833">
        <ele>888.8</ele>
        <time>2025-01-25T11:07:09.000Z</time>
      </trkpt>
      <trkpt lat="43.74188" lon="7.05839">
        <ele>887.2</ele>
        <time>2025-01-25T11:07:12.000Z</time>
      </trkpt>
      <trkpt lat="43.74189" lon="7.05846">
        <ele>884.9</ele>
        <time>2025-01-25T11:07:17.000Z</time>
      </trkpt>
      <trkpt lat="43.74188" lon="7.05846">
        <ele>884.2</ele>
        <time>2025-01-25T11:07:21.000Z</time>
      </trkpt>
      <trkpt lat="43.74188" lon="7.05846">
        <ele>884.1</ele>
        <time>2025-01-25T11:07:22.000Z</time>
      </trkpt>
      <trkpt lat="43.74187" lon="7.05847">
        <ele>883.7</ele>
        <time>2025-01-25T11:07:31.000Z</time>
      </trkpt>
      <trkpt lat="43.74186" lon="7.05848">
        <ele>883.7</ele>
        <time>2025-01-25T11:07:32.000Z</time>
      </trkpt>
      <trkpt lat="43.74186" lon="7.05848">
        <ele>883.7</ele>
        <time>2025-01-25T11:07:33.000Z</time>
      </trkpt>
      <trkpt lat="43.74186" lon="7.05848">
        <ele>883.7</ele>
        <time>2025-01-25T11:07:34.000Z</time>
      </trkpt>
      <trkpt lat="43.74186" lon="7.05848">
        <ele>883.7</ele>
        <time>2025-01-25T11:07:35.000Z</time>
      </trkpt>
      <trkpt lat="43.74186" lon="7.05849">
        <ele>883.8</ele>
        <time>2025-01-25T11:07:51.000Z</time>
      </trkpt>
      <trkpt lat="43.74186" lon="7.05849">
        <ele>883.9</ele>
        <time>2025-01-25T11:07:52.000Z</time>
      </trkpt>
      <trkpt lat="43.74186" lon="7.05849">
        <ele>883.9</ele>
        <time>2025-01-25T11:07:55.000Z</time>
      </trkpt>
      <trkpt lat="43.74186" lon="7.05849">
        <ele>883.9</ele>
        <time>2025-01-25T11:07:56.000Z</time>
      </trkpt>
      <trkpt lat="43.74187" lon="7.0585">
        <ele>883.9</ele>
        <time>2025-01-25T11:07:57.000Z</time>
      </trkpt>
      <trkpt lat="43.74188" lon="7.05845">
        <ele>883.7</ele>
        <time>2025-01-25T11:08:33.000Z</time>
      </trkpt>
      <trkpt lat="43.74189" lon="7.05845">
        <ele>883.7</ele>
        <time>2025-01-25T11:08:34.000Z</time>
      </trkpt>
      <trkpt lat="43.7419" lon="7.05845">
        <ele>883.7</ele>
        <time>2025-01-25T11:08:35.000Z</time>
      </trkpt>
      <trkpt lat="43.7419" lon="7.05844">
        <ele>883.7</ele>
        <time>2025-01-25T11:08:36.000Z</time>
      </trkpt>
      <trkpt lat="43.74191" lon="7.05844">
        <ele>883.7</ele>
        <time>2025-01-25T11:08:37.000Z</time>
      </trkpt>
      <trkpt lat="43.74186" lon="7.05843">
        <ele>883.6</ele>
        <time>2025-01-25T11:09:09.000Z</time>
      </trkpt>
      <trkpt lat="43.74181" lon="7.05841">
        <ele>883.6</ele>
        <time>2025-01-25T11:09:17.000Z</time>
      </trkpt>
      <trkpt lat="43.74181" lon="7.05841">
        <ele>883.6</ele>
        <time>2025-01-25T11:09:20.000Z</time>
      </trkpt>
      <trkpt lat="43.74181" lon="7.05841">
        <ele>883.6</ele>
        <time>2025-01-25T11:09:21.000Z</time>
      </trkpt>
      <trkpt lat="43.74182" lon="7.05842">
        <ele>883.6</ele>
        <time>2025-01-25T11:09:22.000Z</time>
      </trkpt>
      <trkpt lat="43.74183" lon="7.05843">
        <ele>883.5</ele>
        <time>2025-01-25T11:09:31.000Z</time>
      </trkpt>
      <trkpt lat="43.74183" lon="7.05844">
        <ele>883.5</ele>
        <time>2025-01-25T11:09:32.000Z</time>
      </trkpt>
      <trkpt lat="43.74184" lon="7.05843">
        <ele>883.5</ele>
        <time>2025-01-25T11:09:36.000Z</time>
      </trkpt>
      <trkpt lat="43.74184" lon="7.05843">
        <ele>883.5</ele>
        <time>2025-01-25T11:09:37.000Z</time>
      </trkpt>
      <trkpt lat="43.74184" lon="7.05843">
        <ele>883.5</ele>
        <time>2025-01-25T11:09:38.000Z</time>
      </trkpt>
      <trkpt lat="43.74184" lon="7.05843">
        <ele>883.5</ele>
        <time>2025-01-25T11:09:39.000Z</time>
      </trkpt>
      <trkpt lat="43.74184" lon="7.05844">
        <ele>883.5</ele>
        <time>2025-01-25T11:09:40.000Z</time>
      </trkpt>
      <trkpt lat="43.74185" lon="7.05844">
        <ele>883.5</ele>
        <time>2025-01-25T11:09:41.000Z</time>
      </trkpt>
      <trkpt lat="43.74185" lon="7.05845">
        <ele>883.5</ele>
        <time>2025-01-25T11:09:42.000Z</time>
      </trkpt>
      <trkpt lat="43.74187" lon="7.05845">
        <ele>883.5</ele>
        <time>2025-01-25T11:09:48.000Z</time>
      </trkpt>
      <trkpt lat="43.74187" lon="7.05845">
        <ele>883.5</ele>
        <time>2025-01-25T11:09:49.000Z</time>
      </trkpt>
      <trkpt lat="43.74187" lon="7.05845">
        <ele>883.5</ele>
        <time>2025-01-25T11:09:50.000Z</time>
      </trkpt>
      <trkpt lat="43.74189" lon="7.05844">
        <ele>883.4</ele>
        <time>2025-01-25T11:10:10.000Z</time>
      </trkpt>
      <trkpt lat="43.74189" lon="7.05844">
        <ele>883.4</ele>
        <time>2025-01-25T11:10:11.000Z</time>
      </trkpt>
      <trkpt lat="43.7419" lon="7.05844">
        <ele>883.4</ele>
        <time>2025-01-25T11:10:12.000Z</time>
      </trkpt>
      <trkpt lat="43.74188" lon="7.05844">
        <ele>883.4</ele>
        <time>2025-01-25T11:10:18.000Z</time>
      </trkpt>
      <trkpt lat="43.74188" lon="7.05844">
        <ele>883.4</ele>
        <time>2025-01-25T11:10:19.000Z</time>
      </trkpt>
      <trkpt lat="43.74188" lon="7.05844">
        <ele>883.4</ele>
        <time>2025-01-25T11:10:20.000Z</time>
      </trkpt>
      <trkpt lat="43.74188" lon="7.05844">
        <ele>883.4</ele>
        <time>2025-01-25T11:11:08.000Z</time>
      </trkpt>
      <trkpt lat="43.74188" lon="7.05844">
        <ele>883.4</ele>
        <time>2025-01-25T11:11:09.000Z</time>
      </trkpt>
      <trkpt lat="43.74188" lon="7.05844">
        <ele>883.4</ele>
        <time>2025-01-25T11:11:10.000Z</time>
      </trkpt>
      <trkpt lat="43.74188" lon="7.05844">
        <ele>883.4</ele>
        <time>2025-01-25T11:11:11.000Z</time>
      </trkpt>
      <trkpt lat="43.74188" lon="7.05844">
        <ele>883.4</ele>
        <time>2025-01-25T11:11:12.000Z</time>
      </trkpt>
      <trkpt lat="43.74188" lon="7.05844">
        <ele>883.3</ele>
        <time>2025-01-25T11:11:13.000Z</time>
      </trkpt>
      <trkpt lat="43.74188" lon="7.05845">
        <ele>883.3</ele>
        <time>2025-01-25T11:11:14.000Z</time>
      </trkpt>
      <trkpt lat="43.74188" lon="7.05845">
        <ele>883.3</ele>
        <time>2025-01-25T11:11:15.000Z</time>
      </trkpt>
      <trkpt lat="43.74189" lon="7.05852">
        <ele>883.3</ele>
        <time>2025-01-25T11:11:20.000Z</time>
      </trkpt>
      <trkpt lat="43.74188" lon="7.05862">
        <ele>883.2</ele>
        <time>2025-01-25T11:11:22.000Z</time>
      </trkpt>
      <trkpt lat="43.74188" lon="7.05871">
        <ele>882.9</ele>
        <time>2025-01-25T11:11:24.000Z</time>
      </trkpt>
      <trkpt lat="43.74189" lon="7.0588">
        <ele>882.6</ele>
        <time>2025-01-25T11:11:26.000Z</time>
      </trkpt>
      <trkpt lat="43.74192" lon="7.05886">
        <ele>882.1</ele>
        <time>2025-01-25T11:11:28.000Z</time>
      </trkpt>
      <trkpt lat="43.74196" lon="7.05894">
        <ele>881.1</ele>
        <time>2025-01-25T11:11:30.000Z</time>
      </trkpt>
      <trkpt lat="43.74199" lon="7.05903">
        <ele>879.2</ele>
        <time>2025-01-25T11:11:32.000Z</time>
      </trkpt>
      <trkpt lat="43.74199" lon="7.05914">
        <ele>877.4</ele>
        <time>2025-01-25T11:11:34.000Z</time>
      </trkpt>
      <trkpt lat="43.74198" lon="7.05926">
        <ele>875.9</ele>
        <time>2025-01-25T11:11:36.000Z</time>
      </trkpt>
      <trkpt lat="43.74197" lon="7.05937">
        <ele>875</ele>
        <time>2025-01-25T11:11:38.000Z</time>
      </trkpt>
      <trkpt lat="43.74195" lon="7.05946">
        <ele>874.6</ele>
        <time>2025-01-25T11:11:40.000Z</time>
      </trkpt>
      <trkpt lat="43.74193" lon="7.05956">
        <ele>874.2</ele>
        <time>2025-01-25T11:11:42.000Z</time>
      </trkpt>
      <trkpt lat="43.74193" lon="7.05965">
        <ele>873.4</ele>
        <time>2025-01-25T11:11:44.000Z</time>
      </trkpt>
      <trkpt lat="43.74192" lon="7.05975">
        <ele>872.7</ele>
        <time>2025-01-25T11:11:46.000Z</time>
      </trkpt>
      <trkpt lat="43.74192" lon="7.05982">
        <ele>872.1</ele>
        <time>2025-01-25T11:11:48.000Z</time>
      </trkpt>
      <trkpt lat="43.74194" lon="7.05989">
        <ele>871</ele>
        <time>2025-01-25T11:11:50.000Z</time>
      </trkpt>
      <trkpt lat="43.74195" lon="7.05996">
        <ele>870.1</ele>
        <time>2025-01-25T11:11:52.000Z</time>
      </trkpt>
      <trkpt lat="43.74196" lon="7.06002">
        <ele>869.2</ele>
        <time>2025-01-25T11:11:54.000Z</time>
      </trkpt>
      <trkpt lat="43.74198" lon="7.0601">
        <ele>868.4</ele>
        <time>2025-01-25T11:11:56.000Z</time>
      </trkpt>
      <trkpt lat="43.74197" lon="7.0602">
        <ele>867.4</ele>
        <time>2025-01-25T11:11:58.000Z</time>
      </trkpt>
      <trkpt lat="43.74196" lon="7.06032">
        <ele>865.9</ele>
        <time>2025-01-25T11:12:00.000Z</time>
      </trkpt>
      <trkpt lat="43.74196" lon="7.06041">
        <ele>864.9</ele>
        <time>2025-01-25T11:12:02.000Z</time>
      </trkpt>
      <trkpt lat="43.74197" lon="7.06048">
        <ele>863.6</ele>
        <time>2025-01-25T11:12:04.000Z</time>
      </trkpt>
      <trkpt lat="43.74197" lon="7.06055">
        <ele>861.9</ele>
        <time>2025-01-25T11:12:10.000Z</time>
      </trkpt>
      <trkpt lat="43.74197" lon="7.06063">
        <ele>860.8</ele>
        <time>2025-01-25T11:12:16.000Z</time>
      </trkpt>
      <trkpt lat="43.74199" lon="7.0607">
        <ele>859.9</ele>
        <time>2025-01-25T11:12:20.000Z</time>
      </trkpt>
      <trkpt lat="43.74198" lon="7.06078">
        <ele>858.7</ele>
        <time>2025-01-25T11:12:23.000Z</time>
      </trkpt>
      <trkpt lat="43.74197" lon="7.06086">
        <ele>858</ele>
        <time>2025-01-25T11:12:25.000Z</time>
      </trkpt>
      <trkpt lat="43.74197" lon="7.06094">
        <ele>857.1</ele>
        <time>2025-01-25T11:12:27.000Z</time>
      </trkpt>
      <trkpt lat="43.74196" lon="7.06101">
        <ele>856.2</ele>
        <time>2025-01-25T11:12:29.000Z</time>
      </trkpt>
      <trkpt lat="43.74194" lon="7.06107">
        <ele>855.6</ele>
        <time>2025-01-25T11:12:31.000Z</time>
      </trkpt>
      <trkpt lat="43.74191" lon="7.06114">
        <ele>855</ele>
        <time>2025-01-25T11:12:33.000Z</time>
      </trkpt>
      <trkpt lat="43.74188" lon="7.06123">
        <ele>854.1</ele>
        <time>2025-01-25T11:12:35.000Z</time>
      </trkpt>
      <trkpt lat="43.74187" lon="7.06134">
        <ele>853.5</ele>
        <time>2025-01-25T11:12:37.000Z</time>
      </trkpt>
      <trkpt lat="43.74187" lon="7.06145">
        <ele>852.9</ele>
        <time>2025-01-25T11:12:39.000Z</time>
      </trkpt>
      <trkpt lat="43.74187" lon="7.06156">
        <ele>852.1</ele>
        <time>2025-01-25T11:12:41.000Z</time>
      </trkpt>
      <trkpt lat="43.74187" lon="7.06167">
        <ele>851.2</ele>
        <time>2025-01-25T11:12:43.000Z</time>
      </trkpt>
      <trkpt lat="43.74187" lon="7.06176">
        <ele>850.4</ele>
        <time>2025-01-25T11:12:45.000Z</time>
      </trkpt>
      <trkpt lat="43.74186" lon="7.06187">
        <ele>849.4</ele>
        <time>2025-01-25T11:12:47.000Z</time>
      </trkpt>
      <trkpt lat="43.74186" lon="7.06197">
        <ele>848.3</ele>
        <time>2025-01-25T11:12:49.000Z</time>
      </trkpt>
      <trkpt lat="43.74187" lon="7.06207">
        <ele>847.2</ele>
        <time>2025-01-25T11:12:51.000Z</time>
      </trkpt>
      <trkpt lat="43.74189" lon="7.06217">
        <ele>846.4</ele>
        <time>2025-01-25T11:12:53.000Z</time>
      </trkpt>
      <trkpt lat="43.7419" lon="7.06224">
        <ele>845.9</ele>
        <time>2025-01-25T11:12:54.000Z</time>
      </trkpt>
      <trkpt lat="43.74192" lon="7.06236">
        <ele>845.2</ele>
        <time>2025-01-25T11:12:56.000Z</time>
      </trkpt>
      <trkpt lat="43.74193" lon="7.06247">
        <ele>844.2</ele>
        <time>2025-01-25T11:12:58.000Z</time>
      </trkpt>
      <trkpt lat="43.74196" lon="7.06257">
        <ele>843.2</ele>
        <time>2025-01-25T11:13:00.000Z</time>
      </trkpt>
      <trkpt lat="43.74197" lon="7.06268">
        <ele>842.6</ele>
        <time>2025-01-25T11:13:02.000Z</time>
      </trkpt>
      <trkpt lat="43.74195" lon="7.06277">
        <ele>842.1</ele>
        <time>2025-01-25T11:13:04.000Z</time>
      </trkpt>
      <trkpt lat="43.74195" lon="7.06286">
        <ele>841.3</ele>
        <time>2025-01-25T11:13:06.000Z</time>
      </trkpt>
      <trkpt lat="43.74194" lon="7.06293">
        <ele>840.1</ele>
        <time>2025-01-25T11:13:08.000Z</time>
      </trkpt>
      <trkpt lat="43.74195" lon="7.06301">
        <ele>838.7</ele>
        <time>2025-01-25T11:13:10.000Z</time>
      </trkpt>
      <trkpt lat="43.74194" lon="7.06313">
        <ele>837.8</ele>
        <time>2025-01-25T11:13:12.000Z</time>
      </trkpt>
      <trkpt lat="43.74195" lon="7.06322">
        <ele>837.4</ele>
        <time>2025-01-25T11:13:14.000Z</time>
      </trkpt>
      <trkpt lat="43.74196" lon="7.06329">
        <ele>837</ele>
        <time>2025-01-25T11:13:16.000Z</time>
      </trkpt>
      <trkpt lat="43.74195" lon="7.06336">
        <ele>836.4</ele>
        <time>2025-01-25T11:13:18.000Z</time>
      </trkpt>
      <trkpt lat="43.74196" lon="7.06344">
        <ele>835.5</ele>
        <time>2025-01-25T11:13:21.000Z</time>
      </trkpt>
      <trkpt lat="43.74195" lon="7.06352">
        <ele>834.8</ele>
        <time>2025-01-25T11:13:24.000Z</time>
      </trkpt>
      <trkpt lat="43.74193" lon="7.06358">
        <ele>834.2</ele>
        <time>2025-01-25T11:13:28.000Z</time>
      </trkpt>
      <trkpt lat="43.74193" lon="7.06357">
        <ele>833.9</ele>
        <time>2025-01-25T11:13:30.000Z</time>
      </trkpt>
      <trkpt lat="43.74193" lon="7.06357">
        <ele>833.9</ele>
        <time>2025-01-25T11:13:31.000Z</time>
      </trkpt>
      <trkpt lat="43.74193" lon="7.06357">
        <ele>833.8</ele>
        <time>2025-01-25T11:13:32.000Z</time>
      </trkpt>
      <trkpt lat="43.74195" lon="7.06359">
        <ele>833.6</ele>
        <time>2025-01-25T11:13:38.000Z</time>
      </trkpt>
      <trkpt lat="43.74195" lon="7.0636">
        <ele>833.6</ele>
        <time>2025-01-25T11:13:39.000Z</time>
      </trkpt>
      <trkpt lat="43.74196" lon="7.06362">
        <ele>833.6</ele>
        <time>2025-01-25T11:13:40.000Z</time>
      </trkpt>
      <trkpt lat="43.742" lon="7.06364">
        <ele>833.4</ele>
        <time>2025-01-25T11:13:47.000Z</time>
      </trkpt>
      <trkpt lat="43.74203" lon="7.06366">
        <ele>832.8</ele>
        <time>2025-01-25T11:13:56.000Z</time>
      </trkpt>
      <trkpt lat="43.74203" lon="7.06366">
        <ele>832.8</ele>
        <time>2025-01-25T11:13:57.000Z</time>
      </trkpt>
      <trkpt lat="43.74203" lon="7.06366">
        <ele>832.7</ele>
        <time>2025-01-25T11:13:58.000Z</time>
      </trkpt>
      <trkpt lat="43.742" lon="7.06364">
        <ele>832</ele>
        <time>2025-01-25T11:14:34.000Z</time>
      </trkpt>
      <trkpt lat="43.742" lon="7.06364">
        <ele>832</ele>
        <time>2025-01-25T11:14:35.000Z</time>
      </trkpt>
      <trkpt lat="43.74199" lon="7.06364">
        <ele>832</ele>
        <time>2025-01-25T11:14:36.000Z</time>
      </trkpt>
      <trkpt lat="43.742" lon="7.06364">
        <ele>832</ele>
        <time>2025-01-25T11:14:37.000Z</time>
      </trkpt>
      <trkpt lat="43.74199" lon="7.06363">
        <ele>831.8</ele>
        <time>2025-01-25T11:14:48.000Z</time>
      </trkpt>
      <trkpt lat="43.74199" lon="7.06364">
        <ele>831.8</ele>
        <time>2025-01-25T11:14:49.000Z</time>
      </trkpt>
      <trkpt lat="43.74198" lon="7.06364">
        <ele>831.8</ele>
        <time>2025-01-25T11:14:50.000Z</time>
      </trkpt>
      <trkpt lat="43.74202" lon="7.0637">
        <ele>831.4</ele>
        <time>2025-01-25T11:14:57.000Z</time>
      </trkpt>
      <trkpt lat="43.74204" lon="7.06377">
        <ele>831.1</ele>
        <time>2025-01-25T11:14:59.000Z</time>
      </trkpt>
      <trkpt lat="43.74205" lon="7.06385">
        <ele>830.3</ele>
        <time>2025-01-25T11:15:01.000Z</time>
      </trkpt>
      <trkpt lat="43.74207" lon="7.06393">
        <ele>829.2</ele>
        <time>2025-01-25T11:15:03.000Z</time>
      </trkpt>
      <trkpt lat="43.74209" lon="7.06403">
        <ele>827.7</ele>
        <time>2025-01-25T11:15:05.000Z</time>
      </trkpt>
      <trkpt lat="43.74211" lon="7.06411">
        <ele>825.7</ele>
        <time>2025-01-25T11:15:07.000Z</time>
      </trkpt>
      <trkpt lat="43.74213" lon="7.06419">
        <ele>823.7</ele>
        <time>2025-01-25T11:15:09.000Z</time>
      </trkpt>
      <trkpt lat="43.74214" lon="7.06428">
        <ele>822.1</ele>
        <time>2025-01-25T11:15:11.000Z</time>
      </trkpt>
      <trkpt lat="43.74216" lon="7.06436">
        <ele>820.2</ele>
        <time>2025-01-25T11:15:13.000Z</time>
      </trkpt>
      <trkpt lat="43.74218" lon="7.06444">
        <ele>818.5</ele>
        <time>2025-01-25T11:15:15.000Z</time>
      </trkpt>
      <trkpt lat="43.74219" lon="7.06453">
        <ele>817.2</ele>
        <time>2025-01-25T11:15:17.000Z</time>
      </trkpt>
      <trkpt lat="43.7422" lon="7.06462">
        <ele>815.7</ele>
        <time>2025-01-25T11:15:19.000Z</time>
      </trkpt>
      <trkpt lat="43.7422" lon="7.06471">
        <ele>814.8</ele>
        <time>2025-01-25T11:15:21.000Z</time>
      </trkpt>
      <trkpt lat="43.74221" lon="7.06479">
        <ele>813.7</ele>
        <time>2025-01-25T11:15:23.000Z</time>
      </trkpt>
      <trkpt lat="43.74222" lon="7.06488">
        <ele>812.5</ele>
        <time>2025-01-25T11:15:25.000Z</time>
      </trkpt>
      <trkpt lat="43.74223" lon="7.06496">
        <ele>810.8</ele>
        <time>2025-01-25T11:15:27.000Z</time>
      </trkpt>
      <trkpt lat="43.74224" lon="7.06504">
        <ele>808.6</ele>
        <time>2025-01-25T11:15:29.000Z</time>
      </trkpt>
      <trkpt lat="43.74223" lon="7.06512">
        <ele>807.2</ele>
        <time>2025-01-25T11:15:31.000Z</time>
      </trkpt>
      <trkpt lat="43.74223" lon="7.0652">
        <ele>805.5</ele>
        <time>2025-01-25T11:15:34.000Z</time>
      </trkpt>
      <trkpt lat="43.74227" lon="7.06526">
        <ele>803</ele>
        <time>2025-01-25T11:15:41.000Z</time>
      </trkpt>
      <trkpt lat="43.74229" lon="7.06531">
        <ele>802.2</ele>
        <time>2025-01-25T11:15:43.000Z</time>
      </trkpt>
      <trkpt lat="43.74233" lon="7.06537">
        <ele>801</ele>
        <time>2025-01-25T11:15:45.000Z</time>
      </trkpt>
      <trkpt lat="43.74235" lon="7.06542">
        <ele>799.4</ele>
        <time>2025-01-25T11:15:47.000Z</time>
      </trkpt>
      <trkpt lat="43.74238" lon="7.0655">
        <ele>797.2</ele>
        <time>2025-01-25T11:15:49.000Z</time>
      </trkpt>
      <trkpt lat="43.7424" lon="7.06558">
        <ele>795.2</ele>
        <time>2025-01-25T11:15:51.000Z</time>
      </trkpt>
      <trkpt lat="43.74245" lon="7.06566">
        <ele>793.8</ele>
        <time>2025-01-25T11:15:53.000Z</time>
      </trkpt>
      <trkpt lat="43.7425" lon="7.06573">
        <ele>792.2</ele>
        <time>2025-01-25T11:15:55.000Z</time>
      </trkpt>
      <trkpt lat="43.74254" lon="7.06579">
        <ele>790.8</ele>
        <time>2025-01-25T11:15:57.000Z</time>
      </trkpt>
      <trkpt lat="43.74256" lon="7.06586">
        <ele>789.2</ele>
        <time>2025-01-25T11:15:59.000Z</time>
      </trkpt>
      <trkpt lat="43.74259" lon="7.06593">
        <ele>788.2</ele>
        <time>2025-01-25T11:16:01.000Z</time>
      </trkpt>
      <trkpt lat="43.74263" lon="7.06604">
        <ele>787.2</ele>
        <time>2025-01-25T11:16:03.000Z</time>
      </trkpt>
      <trkpt lat="43.74265" lon="7.0661">
        <ele>786.3</ele>
        <time>2025-01-25T11:16:04.000Z</time>
      </trkpt>
      <trkpt lat="43.74267" lon="7.06618">
        <ele>785.5</ele>
        <time>2025-01-25T11:16:05.000Z</time>
      </trkpt>
      <trkpt lat="43.74269" lon="7.06626">
        <ele>784.4</ele>
        <time>2025-01-25T11:16:06.000Z</time>
      </trkpt>
      <trkpt lat="43.74272" lon="7.06635">
        <ele>783.3</ele>
        <time>2025-01-25T11:16:07.000Z</time>
      </trkpt>
      <trkpt lat="43.74275" lon="7.06642">
        <ele>782.1</ele>
        <time>2025-01-25T11:16:08.000Z</time>
      </trkpt>
      <trkpt lat="43.74279" lon="7.06649">
        <ele>781.1</ele>
        <time>2025-01-25T11:16:09.000Z</time>
      </trkpt>
      <trkpt lat="43.74282" lon="7.06655">
        <ele>780.4</ele>
        <time>2025-01-25T11:16:10.000Z</time>
      </trkpt>
      <trkpt lat="43.74286" lon="7.0666">
        <ele>779.9</ele>
        <time>2025-01-25T11:16:11.000Z</time>
      </trkpt>
      <trkpt lat="43.7429" lon="7.06666">
        <ele>779.4</ele>
        <time>2025-01-25T11:16:12.000Z</time>
      </trkpt>
      <trkpt lat="43.74295" lon="7.06675">
        <ele>778.3</ele>
        <time>2025-01-25T11:16:14.000Z</time>
      </trkpt>
      <trkpt lat="43.74298" lon="7.0668">
        <ele>777.8</ele>
        <time>2025-01-25T11:16:15.000Z</time>
      </trkpt>
      <trkpt lat="43.74302" lon="7.06685">
        <ele>777.1</ele>
        <time>2025-01-25T11:16:16.000Z</time>
      </trkpt>
      <trkpt lat="43.74305" lon="7.06691">
        <ele>776.4</ele>
        <time>2025-01-25T11:16:17.000Z</time>
      </trkpt>
      <trkpt lat="43.7431" lon="7.06699">
        <ele>774.6</ele>
        <time>2025-01-25T11:16:19.000Z</time>
      </trkpt>
      <trkpt lat="43.74316" lon="7.06705">
        <ele>772.7</ele>
        <time>2025-01-25T11:16:21.000Z</time>
      </trkpt>
      <trkpt lat="43.74319" lon="7.06711">
        <ele>771.2</ele>
        <time>2025-01-25T11:16:23.000Z</time>
      </trkpt>
      <trkpt lat="43.74322" lon="7.06715">
        <ele>769.4</ele>
        <time>2025-01-25T11:16:25.000Z</time>
      </trkpt>
      <trkpt lat="43.74324" lon="7.06719">
        <ele>767.8</ele>
        <time>2025-01-25T11:16:29.000Z</time>
      </trkpt>
      <trkpt lat="43.74323" lon="7.06719">
        <ele>767.7</ele>
        <time>2025-01-25T11:16:30.000Z</time>
      </trkpt>
      <trkpt lat="43.74322" lon="7.06719">
        <ele>767.3</ele>
        <time>2025-01-25T11:16:33.000Z</time>
      </trkpt>
      <trkpt lat="43.74322" lon="7.06719">
        <ele>767.2</ele>
        <time>2025-01-25T11:16:34.000Z</time>
      </trkpt>
      <trkpt lat="43.74323" lon="7.06719">
        <ele>767.2</ele>
        <time>2025-01-25T11:16:35.000Z</time>
      </trkpt>
      <trkpt lat="43.74324" lon="7.06721">
        <ele>766.9</ele>
        <time>2025-01-25T11:16:39.000Z</time>
      </trkpt>
      <trkpt lat="43.74325" lon="7.06721">
        <ele>766.9</ele>
        <time>2025-01-25T11:16:40.000Z</time>
      </trkpt>
      <trkpt lat="43.74326" lon="7.06724">
        <ele>766.8</ele>
        <time>2025-01-25T11:16:44.000Z</time>
      </trkpt>
      <trkpt lat="43.74327" lon="7.06725">
        <ele>766.7</ele>
        <time>2025-01-25T11:16:45.000Z</time>
      </trkpt>
      <trkpt lat="43.74325" lon="7.06733">
        <ele>766.5</ele>
        <time>2025-01-25T11:16:50.000Z</time>
      </trkpt>
      <trkpt lat="43.74325" lon="7.0674">
        <ele>766.1</ele>
        <time>2025-01-25T11:16:53.000Z</time>
      </trkpt>
      <trkpt lat="43.74329" lon="7.06748">
        <ele>765.3</ele>
        <time>2025-01-25T11:16:57.000Z</time>
      </trkpt>
      <trkpt lat="43.74334" lon="7.06751">
        <ele>764.9</ele>
        <time>2025-01-25T11:16:59.000Z</time>
      </trkpt>
      <trkpt lat="43.74339" lon="7.06754">
        <ele>764.5</ele>
        <time>2025-01-25T11:17:01.000Z</time>
      </trkpt>
      <trkpt lat="43.74344" lon="7.0676">
        <ele>764</ele>
        <time>2025-01-25T11:17:03.000Z</time>
      </trkpt>
      <trkpt lat="43.74349" lon="7.06767">
        <ele>763.5</ele>
        <time>2025-01-25T11:17:05.000Z</time>
      </trkpt>
      <trkpt lat="43.74354" lon="7.06772">
        <ele>762.9</ele>
        <time>2025-01-25T11:17:07.000Z</time>
      </trkpt>
      <trkpt lat="43.74359" lon="7.06777">
        <ele>762.1</ele>
        <time>2025-01-25T11:17:09.000Z</time>
      </trkpt>
      <trkpt lat="43.74365" lon="7.0678">
        <ele>761.3</ele>
        <time>2025-01-25T11:17:11.000Z</time>
      </trkpt>
      <trkpt lat="43.7437" lon="7.0678">
        <ele>760.4</ele>
        <time>2025-01-25T11:17:15.000Z</time>
      </trkpt>
      <trkpt lat="43.74376" lon="7.06783">
        <ele>759</ele>
        <time>2025-01-25T11:17:25.000Z</time>
      </trkpt>
      <trkpt lat="43.74378" lon="7.06789">
        <ele>758.5</ele>
        <time>2025-01-25T11:17:30.000Z</time>
      </trkpt>
      <trkpt lat="43.74378" lon="7.06797">
        <ele>758.2</ele>
        <time>2025-01-25T11:17:35.000Z</time>
      </trkpt>
      <trkpt lat="43.74379" lon="7.06804">
        <ele>758.1</ele>
        <time>2025-01-25T11:17:38.000Z</time>
      </trkpt>
      <trkpt lat="43.74379" lon="7.06811">
        <ele>758.3</ele>
        <time>2025-01-25T11:17:41.000Z</time>
      </trkpt>
      <trkpt lat="43.74382" lon="7.06817">
        <ele>758.6</ele>
        <time>2025-01-25T11:17:44.000Z</time>
      </trkpt>
      <trkpt lat="43.7438" lon="7.06824">
        <ele>759.1</ele>
        <time>2025-01-25T11:17:48.000Z</time>
      </trkpt>
      <trkpt lat="43.74378" lon="7.06831">
        <ele>759.2</ele>
        <time>2025-01-25T11:17:50.000Z</time>
      </trkpt>
      <trkpt lat="43.74377" lon="7.06838">
        <ele>759.1</ele>
        <time>2025-01-25T11:17:52.000Z</time>
      </trkpt>
      <trkpt lat="43.74375" lon="7.06848">
        <ele>759</ele>
        <time>2025-01-25T11:17:54.000Z</time>
      </trkpt>
      <trkpt lat="43.74374" lon="7.06859">
        <ele>758.8</ele>
        <time>2025-01-25T11:17:56.000Z</time>
      </trkpt>
      <trkpt lat="43.74374" lon="7.06869">
        <ele>758.4</ele>
        <time>2025-01-25T11:17:58.000Z</time>
      </trkpt>
      <trkpt lat="43.74375" lon="7.06879">
        <ele>757.8</ele>
        <time>2025-01-25T11:18:00.000Z</time>
      </trkpt>
      <trkpt lat="43.74374" lon="7.06888">
        <ele>757.4</ele>
        <time>2025-01-25T11:18:02.000Z</time>
      </trkpt>
      <trkpt lat="43.74372" lon="7.06898">
        <ele>756.9</ele>
        <time>2025-01-25T11:18:04.000Z</time>
      </trkpt>
      <trkpt lat="43.74371" lon="7.06909">
        <ele>756</ele>
        <time>2025-01-25T11:18:06.000Z</time>
      </trkpt>
      <trkpt lat="43.74372" lon="7.06919">
        <ele>754.7</ele>
        <time>2025-01-25T11:18:08.000Z</time>
      </trkpt>
      <trkpt lat="43.74372" lon="7.06929">
        <ele>753.7</ele>
        <time>2025-01-25T11:18:10.000Z</time>
      </trkpt>
      <trkpt lat="43.74373" lon="7.06938">
        <ele>753.1</ele>
        <time>2025-01-25T11:18:12.000Z</time>
      </trkpt>
      <trkpt lat="43.74374" lon="7.06946">
        <ele>752.7</ele>
        <time>2025-01-25T11:18:14.000Z</time>
      </trkpt>
      <trkpt lat="43.74376" lon="7.06955">
        <ele>752.3</ele>
        <time>2025-01-25T11:18:16.000Z</time>
      </trkpt>
      <trkpt lat="43.74377" lon="7.06961">
        <ele>751.7</ele>
        <time>2025-01-25T11:18:18.000Z</time>
      </trkpt>
      <trkpt lat="43.74377" lon="7.06968">
        <ele>751</ele>
        <time>2025-01-25T11:18:20.000Z</time>
      </trkpt>
      <trkpt lat="43.74377" lon="7.06977">
        <ele>750</ele>
        <time>2025-01-25T11:18:22.000Z</time>
      </trkpt>
      <trkpt lat="43.74377" lon="7.06985">
        <ele>748.9</ele>
        <time>2025-01-25T11:18:24.000Z</time>
      </trkpt>
      <trkpt lat="43.74376" lon="7.06992">
        <ele>747.5</ele>
        <time>2025-01-25T11:18:26.000Z</time>
      </trkpt>
      <trkpt lat="43.74376" lon="7.06998">
        <ele>746.2</ele>
        <time>2025-01-25T11:18:28.000Z</time>
      </trkpt>
      <trkpt lat="43.74377" lon="7.07007">
        <ele>744.6</ele>
        <time>2025-01-25T11:18:31.000Z</time>
      </trkpt>
      <trkpt lat="43.74379" lon="7.07014">
        <ele>743.8</ele>
        <time>2025-01-25T11:18:33.000Z</time>
      </trkpt>
      <trkpt lat="43.74381" lon="7.07022">
        <ele>743.1</ele>
        <time>2025-01-25T11:18:35.000Z</time>
      </trkpt>
      <trkpt lat="43.74381" lon="7.0703">
        <ele>742.4</ele>
        <time>2025-01-25T11:18:37.000Z</time>
      </trkpt>
      <trkpt lat="43.74381" lon="7.07039">
        <ele>741.4</ele>
        <time>2025-01-25T11:18:40.000Z</time>
      </trkpt>
      <trkpt lat="43.74381" lon="7.07047">
        <ele>740.7</ele>
        <time>2025-01-25T11:18:42.000Z</time>
      </trkpt>
      <trkpt lat="43.74381" lon="7.07054">
        <ele>739.8</ele>
        <time>2025-01-25T11:18:44.000Z</time>
      </trkpt>
      <trkpt lat="43.74382" lon="7.07062">
        <ele>738.7</ele>
        <time>2025-01-25T11:18:47.000Z</time>
      </trkpt>
      <trkpt lat="43.74385" lon="7.07069">
        <ele>737.9</ele>
        <time>2025-01-25T11:18:49.000Z</time>
      </trkpt>
      <trkpt lat="43.74389" lon="7.07078">
        <ele>737</ele>
        <time>2025-01-25T11:18:51.000Z</time>
      </trkpt>
      <trkpt lat="43.74393" lon="7.07085">
        <ele>736.3</ele>
        <time>2025-01-25T11:18:53.000Z</time>
      </trkpt>
      <trkpt lat="43.74394" lon="7.07091">
        <ele>735.6</ele>
        <time>2025-01-25T11:18:55.000Z</time>
      </trkpt>
      <trkpt lat="43.74395" lon="7.071">
        <ele>734.5</ele>
        <time>2025-01-25T11:18:58.000Z</time>
      </trkpt>
      <trkpt lat="43.74396" lon="7.07107">
        <ele>733.6</ele>
        <time>2025-01-25T11:19:00.000Z</time>
      </trkpt>
      <trkpt lat="43.74395" lon="7.07114">
        <ele>732.4</ele>
        <time>2025-01-25T11:19:02.000Z</time>
      </trkpt>
      <trkpt lat="43.74393" lon="7.07122">
        <ele>731.1</ele>
        <time>2025-01-25T11:19:04.000Z</time>
      </trkpt>
      <trkpt lat="43.74392" lon="7.0713">
        <ele>730.3</ele>
        <time>2025-01-25T11:19:06.000Z</time>
      </trkpt>
      <trkpt lat="43.74391" lon="7.07137">
        <ele>729.6</ele>
        <time>2025-01-25T11:19:08.000Z</time>
      </trkpt>
      <trkpt lat="43.74393" lon="7.07145">
        <ele>728.8</ele>
        <time>2025-01-25T11:19:10.000Z</time>
      </trkpt>
      <trkpt lat="43.74395" lon="7.07154">
        <ele>727.9</ele>
        <time>2025-01-25T11:19:12.000Z</time>
      </trkpt>
      <trkpt lat="43.74395" lon="7.07161">
        <ele>726.9</ele>
        <time>2025-01-25T11:19:14.000Z</time>
      </trkpt>
      <trkpt lat="43.74397" lon="7.07168">
        <ele>726.2</ele>
        <time>2025-01-25T11:19:16.000Z</time>
      </trkpt>
      <trkpt lat="43.744" lon="7.07174">
        <ele>725.4</ele>
        <time>2025-01-25T11:19:18.000Z</time>
      </trkpt>
      <trkpt lat="43.74404" lon="7.07181">
        <ele>724</ele>
        <time>2025-01-25T11:19:21.000Z</time>
      </trkpt>
      <trkpt lat="43.74405" lon="7.07187">
        <ele>723.1</ele>
        <time>2025-01-25T11:19:23.000Z</time>
      </trkpt>
      <trkpt lat="43.74405" lon="7.07196">
        <ele>722.3</ele>
        <time>2025-01-25T11:19:25.000Z</time>
      </trkpt>
      <trkpt lat="43.74403" lon="7.07207">
        <ele>721.8</ele>
        <time>2025-01-25T11:19:27.000Z</time>
      </trkpt>
      <trkpt lat="43.74402" lon="7.07216">
        <ele>721.4</ele>
        <time>2025-01-25T11:19:29.000Z</time>
      </trkpt>
      <trkpt lat="43.74401" lon="7.07223">
        <ele>721.1</ele>
        <time>2025-01-25T11:19:31.000Z</time>
      </trkpt>
      <trkpt lat="43.74396" lon="7.07233">
        <ele>720.6</ele>
        <time>2025-01-25T11:19:33.000Z</time>
      </trkpt>
      <trkpt lat="43.74393" lon="7.0724">
        <ele>720.2</ele>
        <time>2025-01-25T11:19:34.000Z</time>
      </trkpt>
      <trkpt lat="43.74392" lon="7.07247">
        <ele>719.7</ele>
        <time>2025-01-25T11:19:35.000Z</time>
      </trkpt>
      <trkpt lat="43.7439" lon="7.07257">
        <ele>719.2</ele>
        <time>2025-01-25T11:19:37.000Z</time>
      </trkpt>
      <trkpt lat="43.74389" lon="7.07265">
        <ele>718.5</ele>
        <time>2025-01-25T11:19:39.000Z</time>
      </trkpt>
      <trkpt lat="43.74386" lon="7.07272">
        <ele>717.8</ele>
        <time>2025-01-25T11:19:41.000Z</time>
      </trkpt>
      <trkpt lat="43.74383" lon="7.07278">
        <ele>716.8</ele>
        <time>2025-01-25T11:19:43.000Z</time>
      </trkpt>
      <trkpt lat="43.7438" lon="7.07284">
        <ele>715.7</ele>
        <time>2025-01-25T11:19:46.000Z</time>
      </trkpt>
      <trkpt lat="43.74378" lon="7.0729">
        <ele>715</ele>
        <time>2025-01-25T11:19:48.000Z</time>
      </trkpt>
      <trkpt lat="43.74377" lon="7.07296">
        <ele>714.2</ele>
        <time>2025-01-25T11:19:50.000Z</time>
      </trkpt>
      <trkpt lat="43.74376" lon="7.07303">
        <ele>712.7</ele>
        <time>2025-01-25T11:19:53.000Z</time>
      </trkpt>
      <trkpt lat="43.74373" lon="7.07309">
        <ele>711.5</ele>
        <time>2025-01-25T11:19:55.000Z</time>
      </trkpt>
      <trkpt lat="43.74373" lon="7.07318">
        <ele>710.7</ele>
        <time>2025-01-25T11:19:57.000Z</time>
      </trkpt>
      <trkpt lat="43.74375" lon="7.07324">
        <ele>710.5</ele>
        <time>2025-01-25T11:19:58.000Z</time>
      </trkpt>
      <trkpt lat="43.74375" lon="7.07333">
        <ele>710</ele>
        <time>2025-01-25T11:20:01.000Z</time>
      </trkpt>
      <trkpt lat="43.74372" lon="7.07341">
        <ele>709.6</ele>
        <time>2025-01-25T11:20:03.000Z</time>
      </trkpt>
      <trkpt lat="43.7437" lon="7.07348">
        <ele>709.4</ele>
        <time>2025-01-25T11:20:05.000Z</time>
      </trkpt>
      <trkpt lat="43.74368" lon="7.07356">
        <ele>709.2</ele>
        <time>2025-01-25T11:20:07.000Z</time>
      </trkpt>
      <trkpt lat="43.74368" lon="7.07366">
        <ele>709.1</ele>
        <time>2025-01-25T11:20:09.000Z</time>
      </trkpt>
      <trkpt lat="43.74366" lon="7.07378">
        <ele>709.2</ele>
        <time>2025-01-25T11:20:11.000Z</time>
      </trkpt>
      <trkpt lat="43.74365" lon="7.07388">
        <ele>709.1</ele>
        <time>2025-01-25T11:20:13.000Z</time>
      </trkpt>
      <trkpt lat="43.74364" lon="7.07398">
        <ele>709.2</ele>
        <time>2025-01-25T11:20:15.000Z</time>
      </trkpt>
      <trkpt lat="43.74363" lon="7.07407">
        <ele>709.3</ele>
        <time>2025-01-25T11:20:17.000Z</time>
      </trkpt>
      <trkpt lat="43.74366" lon="7.07415">
        <ele>709.2</ele>
        <time>2025-01-25T11:20:20.000Z</time>
      </trkpt>
      <trkpt lat="43.74366" lon="7.07416">
        <ele>709.1</ele>
        <time>2025-01-25T11:20:25.000Z</time>
      </trkpt>
      <trkpt lat="43.74365" lon="7.07416">
        <ele>709.1</ele>
        <time>2025-01-25T11:20:26.000Z</time>
      </trkpt>
      <trkpt lat="43.74365" lon="7.07416">
        <ele>709.1</ele>
        <time>2025-01-25T11:20:27.000Z</time>
      </trkpt>
      <trkpt lat="43.74366" lon="7.07416">
        <ele>708.9</ele>
        <time>2025-01-25T11:20:51.000Z</time>
      </trkpt>
      <trkpt lat="43.74366" lon="7.07417">
        <ele>708.9</ele>
        <time>2025-01-25T11:20:52.000Z</time>
      </trkpt>
      <trkpt lat="43.74366" lon="7.07417">
        <ele>708.9</ele>
        <time>2025-01-25T11:20:55.000Z</time>
      </trkpt>
      <trkpt lat="43.74366" lon="7.07417">
        <ele>708.9</ele>
        <time>2025-01-25T11:20:56.000Z</time>
      </trkpt>
      <trkpt lat="43.74366" lon="7.07417">
        <ele>708.9</ele>
        <time>2025-01-25T11:20:57.000Z</time>
      </trkpt>
      <trkpt lat="43.74364" lon="7.07416">
        <ele>708.9</ele>
        <time>2025-01-25T11:21:00.000Z</time>
      </trkpt>
      <trkpt lat="43.74363" lon="7.07417">
        <ele>708.8</ele>
        <time>2025-01-25T11:21:01.000Z</time>
      </trkpt>
      <trkpt lat="43.74362" lon="7.0742">
        <ele>708.9</ele>
        <time>2025-01-25T11:21:02.000Z</time>
      </trkpt>
      <trkpt lat="43.7436" lon="7.07427">
        <ele>708.8</ele>
        <time>2025-01-25T11:21:04.000Z</time>
      </trkpt>
      <trkpt lat="43.74358" lon="7.07433">
        <ele>708.7</ele>
        <time>2025-01-25T11:21:06.000Z</time>
      </trkpt>
      <trkpt lat="43.74356" lon="7.07438">
        <ele>708.5</ele>
        <time>2025-01-25T11:21:08.000Z</time>
      </trkpt>
      <trkpt lat="43.74356" lon="7.07445">
        <ele>707.7</ele>
        <time>2025-01-25T11:21:13.000Z</time>
      </trkpt>
      <trkpt lat="43.74355" lon="7.07451">
        <ele>706.3</ele>
        <time>2025-01-25T11:21:20.000Z</time>
      </trkpt>
      <trkpt lat="43.74355" lon="7.07458">
        <ele>705.3</ele>
        <time>2025-01-25T11:21:29.000Z</time>
      </trkpt>
      <trkpt lat="43.74359" lon="7.07462">
        <ele>704</ele>
        <time>2025-01-25T11:21:38.000Z</time>
      </trkpt>
      <trkpt lat="43.74358" lon="7.07469">
        <ele>703.6</ele>
        <time>2025-01-25T11:21:41.000Z</time>
      </trkpt>
      <trkpt lat="43.74356" lon="7.07476">
        <ele>703</ele>
        <time>2025-01-25T11:21:43.000Z</time>
      </trkpt>
      <trkpt lat="43.74355" lon="7.07482">
        <ele>702.3</ele>
        <time>2025-01-25T11:21:45.000Z</time>
      </trkpt>
      <trkpt lat="43.74354" lon="7.07489">
        <ele>701.3</ele>
        <time>2025-01-25T11:21:47.000Z</time>
      </trkpt>
      <trkpt lat="43.74351" lon="7.07495">
        <ele>700.4</ele>
        <time>2025-01-25T11:21:49.000Z</time>
      </trkpt>
      <trkpt lat="43.74348" lon="7.07502">
        <ele>699.4</ele>
        <time>2025-01-25T11:21:51.000Z</time>
      </trkpt>
      <trkpt lat="43.74346" lon="7.0751">
        <ele>698.2</ele>
        <time>2025-01-25T11:21:53.000Z</time>
      </trkpt>
      <trkpt lat="43.74342" lon="7.07517">
        <ele>697.3</ele>
        <time>2025-01-25T11:21:55.000Z</time>
      </trkpt>
      <trkpt lat="43.7434" lon="7.07525">
        <ele>695.9</ele>
        <time>2025-01-25T11:21:57.000Z</time>
      </trkpt>
      <trkpt lat="43.74337" lon="7.07533">
        <ele>694.6</ele>
        <time>2025-01-25T11:21:59.000Z</time>
      </trkpt>
      <trkpt lat="43.74335" lon="7.07541">
        <ele>694</ele>
        <time>2025-01-25T11:22:01.000Z</time>
      </trkpt>
      <trkpt lat="43.74333" lon="7.07549">
        <ele>693</ele>
        <time>2025-01-25T11:22:03.000Z</time>
      </trkpt>
      <trkpt lat="43.74334" lon="7.07558">
        <ele>692.1</ele>
        <time>2025-01-25T11:22:05.000Z</time>
      </trkpt>
      <trkpt lat="43.74336" lon="7.07566">
        <ele>691.2</ele>
        <time>2025-01-25T11:22:07.000Z</time>
      </trkpt>
      <trkpt lat="43.74337" lon="7.07573">
        <ele>690.4</ele>
        <time>2025-01-25T11:22:09.000Z</time>
      </trkpt>
      <trkpt lat="43.7434" lon="7.07578">
        <ele>689.6</ele>
        <time>2025-01-25T11:22:11.000Z</time>
      </trkpt>
      <trkpt lat="43.74342" lon="7.07586">
        <ele>688.9</ele>
        <time>2025-01-25T11:22:14.000Z</time>
      </trkpt>
      <trkpt lat="43.74343" lon="7.07593">
        <ele>688.5</ele>
        <time>2025-01-25T11:22:16.000Z</time>
      </trkpt>
      <trkpt lat="43.74346" lon="7.07601">
        <ele>688.2</ele>
        <time>2025-01-25T11:22:18.000Z</time>
      </trkpt>
      <trkpt lat="43.74347" lon="7.07609">
        <ele>687.6</ele>
        <time>2025-01-25T11:22:20.000Z</time>
      </trkpt>
      <trkpt lat="43.74348" lon="7.07618">
        <ele>687</ele>
        <time>2025-01-25T11:22:22.000Z</time>
      </trkpt>
      <trkpt lat="43.74349" lon="7.07627">
        <ele>686.4</ele>
        <time>2025-01-25T11:22:24.000Z</time>
      </trkpt>
      <trkpt lat="43.74349" lon="7.07638">
        <ele>685.7</ele>
        <time>2025-01-25T11:22:26.000Z</time>
      </trkpt>
      <trkpt lat="43.7435" lon="7.07649">
        <ele>685.1</ele>
        <time>2025-01-25T11:22:28.000Z</time>
      </trkpt>
      <trkpt lat="43.7435" lon="7.07658">
        <ele>684.3</ele>
        <time>2025-01-25T11:22:30.000Z</time>
      </trkpt>
      <trkpt lat="43.7435" lon="7.07666">
        <ele>683.7</ele>
        <time>2025-01-25T11:22:32.000Z</time>
      </trkpt>
      <trkpt lat="43.74351" lon="7.07677">
        <ele>682.8</ele>
        <time>2025-01-25T11:22:34.000Z</time>
      </trkpt>
      <trkpt lat="43.74355" lon="7.07687">
        <ele>682.1</ele>
        <time>2025-01-25T11:22:36.000Z</time>
      </trkpt>
      <trkpt lat="43.74359" lon="7.07695">
        <ele>681.4</ele>
        <time>2025-01-25T11:22:38.000Z</time>
      </trkpt>
      <trkpt lat="43.74363" lon="7.07699">
        <ele>680.9</ele>
        <time>2025-01-25T11:22:40.000Z</time>
      </trkpt>
      <trkpt lat="43.74367" lon="7.07702">
        <ele>680.7</ele>
        <time>2025-01-25T11:22:43.000Z</time>
      </trkpt>
      <trkpt lat="43.74371" lon="7.07707">
        <ele>680.5</ele>
        <time>2025-01-25T11:22:46.000Z</time>
      </trkpt>
      <trkpt lat="43.74374" lon="7.07713">
        <ele>680.3</ele>
        <time>2025-01-25T11:22:48.000Z</time>
      </trkpt>
      <trkpt lat="43.74378" lon="7.07722">
        <ele>680.2</ele>
        <time>2025-01-25T11:22:50.000Z</time>
      </trkpt>
      <trkpt lat="43.74381" lon="7.07731">
        <ele>680</ele>
        <time>2025-01-25T11:22:52.000Z</time>
      </trkpt>
      <trkpt lat="43.74383" lon="7.07739">
        <ele>679.8</ele>
        <time>2025-01-25T11:22:54.000Z</time>
      </trkpt>
      <trkpt lat="43.74385" lon="7.07746">
        <ele>679.5</ele>
        <time>2025-01-25T11:22:56.000Z</time>
      </trkpt>
      <trkpt lat="43.74387" lon="7.07753">
        <ele>679</ele>
        <time>2025-01-25T11:22:58.000Z</time>
      </trkpt>
      <trkpt lat="43.74389" lon="7.07759">
        <ele>678.4</ele>
        <time>2025-01-25T11:23:00.000Z</time>
      </trkpt>
      <trkpt lat="43.74391" lon="7.07766">
        <ele>677.8</ele>
        <time>2025-01-25T11:23:02.000Z</time>
      </trkpt>
      <trkpt lat="43.74393" lon="7.07775">
        <ele>676.7</ele>
        <time>2025-01-25T11:23:04.000Z</time>
      </trkpt>
      <trkpt lat="43.74394" lon="7.07782">
        <ele>675.7</ele>
        <time>2025-01-25T11:23:06.000Z</time>
      </trkpt>
      <trkpt lat="43.74396" lon="7.07789">
        <ele>674.7</ele>
        <time>2025-01-25T11:23:08.000Z</time>
      </trkpt>
      <trkpt lat="43.74398" lon="7.07796">
        <ele>673.9</ele>
        <time>2025-01-25T11:23:10.000Z</time>
      </trkpt>
      <trkpt lat="43.744" lon="7.07802">
        <ele>673.1</ele>
        <time>2025-01-25T11:23:12.000Z</time>
      </trkpt>
      <trkpt lat="43.74401" lon="7.07809">
        <ele>671.9</ele>
        <time>2025-01-25T11:23:15.000Z</time>
      </trkpt>
      <trkpt lat="43.74396" lon="7.07809">
        <ele>670.7</ele>
        <time>2025-01-25T11:23:18.000Z</time>
      </trkpt>
      <trkpt lat="43.74391" lon="7.07807">
        <ele>669.8</ele>
        <time>2025-01-25T11:23:21.000Z</time>
      </trkpt>
      <trkpt lat="43.74386" lon="7.07808">
        <ele>668.7</ele>
        <time>2025-01-25T11:23:25.000Z</time>
      </trkpt>
      <trkpt lat="43.74381" lon="7.07809">
        <ele>667.7</ele>
        <time>2025-01-25T11:23:29.000Z</time>
      </trkpt>
      <trkpt lat="43.74377" lon="7.07807">
        <ele>665.6</ele>
        <time>2025-01-25T11:23:35.000Z</time>
      </trkpt>
      <trkpt lat="43.74371" lon="7.07806">
        <ele>664</ele>
        <time>2025-01-25T11:23:40.000Z</time>
      </trkpt>
      <trkpt lat="43.74369" lon="7.07805">
        <ele>662.5</ele>
        <time>2025-01-25T11:23:51.000Z</time>
      </trkpt>
      <trkpt lat="43.7437" lon="7.07804">
        <ele>662.4</ele>
        <time>2025-01-25T11:23:52.000Z</time>
      </trkpt>
      <trkpt lat="43.7437" lon="7.07804">
        <ele>662.4</ele>
        <time>2025-01-25T11:23:53.000Z</time>
      </trkpt>
      <trkpt lat="43.7437" lon="7.07802">
        <ele>662.2</ele>
        <time>2025-01-25T11:23:58.000Z</time>
      </trkpt>
      <trkpt lat="43.7437" lon="7.07801">
        <ele>662.2</ele>
        <time>2025-01-25T11:23:59.000Z</time>
      </trkpt>
      <trkpt lat="43.7437" lon="7.07801">
        <ele>662.2</ele>
        <time>2025-01-25T11:24:00.000Z</time>
      </trkpt>
      <trkpt lat="43.74371" lon="7.07801">
        <ele>662.2</ele>
        <time>2025-01-25T11:24:01.000Z</time>
      </trkpt>
      <trkpt lat="43.74372" lon="7.078">
        <ele>662.2</ele>
        <time>2025-01-25T11:24:02.000Z</time>
      </trkpt>
      <trkpt lat="43.74373" lon="7.07798">
        <ele>662.2</ele>
        <time>2025-01-25T11:24:09.000Z</time>
      </trkpt>
      <trkpt lat="43.74373" lon="7.07798">
        <ele>662.2</ele>
        <time>2025-01-25T11:24:10.000Z</time>
      </trkpt>
      <trkpt lat="43.74373" lon="7.07797">
        <ele>662.2</ele>
        <time>2025-01-25T11:24:11.000Z</time>
      </trkpt>
      <trkpt lat="43.74372" lon="7.07797">
        <ele>662.3</ele>
        <time>2025-01-25T11:24:12.000Z</time>
      </trkpt>
      <trkpt lat="43.74371" lon="7.07802">
        <ele>662.3</ele>
        <time>2025-01-25T11:24:40.000Z</time>
      </trkpt>
      <trkpt lat="43.74371" lon="7.07802">
        <ele>662.3</ele>
        <time>2025-01-25T11:24:41.000Z</time>
      </trkpt>
      <trkpt lat="43.74371" lon="7.07801">
        <ele>662.3</ele>
        <time>2025-01-25T11:24:42.000Z</time>
      </trkpt>
      <trkpt lat="43.74372" lon="7.07802">
        <ele>662.3</ele>
        <time>2025-01-25T11:24:46.000Z</time>
      </trkpt>
      <trkpt lat="43.74372" lon="7.07801">
        <ele>662.3</ele>
        <time>2025-01-25T11:24:47.000Z</time>
      </trkpt>
      <trkpt lat="43.74371" lon="7.07799">
        <ele>662.3</ele>
        <time>2025-01-25T11:24:50.000Z</time>
      </trkpt>
      <trkpt lat="43.7437" lon="7.07799">
        <ele>662.3</ele>
        <time>2025-01-25T11:24:51.000Z</time>
      </trkpt>
      <trkpt lat="43.74369" lon="7.078">
        <ele>662.3</ele>
        <time>2025-01-25T11:24:52.000Z</time>
      </trkpt>
      <trkpt lat="43.74364" lon="7.07799">
        <ele>662.2</ele>
        <time>2025-01-25T11:24:55.000Z</time>
      </trkpt>
      <trkpt lat="43.74358" lon="7.07801">
        <ele>662.1</ele>
        <time>2025-01-25T11:24:57.000Z</time>
      </trkpt>
      <trkpt lat="43.74353" lon="7.078">
        <ele>661.7</ele>
        <time>2025-01-25T11:24:59.000Z</time>
      </trkpt>
      <trkpt lat="43.74348" lon="7.07797">
        <ele>661</ele>
        <time>2025-01-25T11:25:01.000Z</time>
      </trkpt>
      <trkpt lat="43.74345" lon="7.07793">
        <ele>659.7</ele>
        <time>2025-01-25T11:25:03.000Z</time>
      </trkpt>
      <trkpt lat="43.74341" lon="7.0779">
        <ele>657.6</ele>
        <time>2025-01-25T11:25:05.000Z</time>
      </trkpt>
      <trkpt lat="43.74337" lon="7.07785">
        <ele>655.7</ele>
        <time>2025-01-25T11:25:07.000Z</time>
      </trkpt>
      <trkpt lat="43.74332" lon="7.07781">
        <ele>654.2</ele>
        <time>2025-01-25T11:25:09.000Z</time>
      </trkpt>
      <trkpt lat="43.74328" lon="7.07777">
        <ele>652.7</ele>
        <time>2025-01-25T11:25:11.000Z</time>
      </trkpt>
      <trkpt lat="43.74323" lon="7.07773">
        <ele>651.2</ele>
        <time>2025-01-25T11:25:13.000Z</time>
      </trkpt>
      <trkpt lat="43.74319" lon="7.07769">
        <ele>650.3</ele>
        <time>2025-01-25T11:25:15.000Z</time>
      </trkpt>
      <trkpt lat="43.74314" lon="7.07767">
        <ele>649.5</ele>
        <time>2025-01-25T11:25:17.000Z</time>
      </trkpt>
      <trkpt lat="43.7431" lon="7.07766">
        <ele>648.5</ele>
        <time>2025-01-25T11:25:19.000Z</time>
      </trkpt>
      <trkpt lat="43.74305" lon="7.07766">
        <ele>647.5</ele>
        <time>2025-01-25T11:25:21.000Z</time>
      </trkpt>
      <trkpt lat="43.743" lon="7.07767">
        <ele>646.8</ele>
        <time>2025-01-25T11:25:23.000Z</time>
      </trkpt>
      <trkpt lat="43.74295" lon="7.07768">
        <ele>645.4</ele>
        <time>2025-01-25T11:25:26.000Z</time>
      </trkpt>
      <trkpt lat="43.74292" lon="7.07768">
        <ele>644.1</ele>
        <time>2025-01-25T11:25:30.000Z</time>
      </trkpt>
      <trkpt lat="43.74292" lon="7.07768">
        <ele>643.9</ele>
        <time>2025-01-25T11:25:31.000Z</time>
      </trkpt>
      <trkpt lat="43.74291" lon="7.07767">
        <ele>643.8</ele>
        <time>2025-01-25T11:25:32.000Z</time>
      </trkpt>
      <trkpt lat="43.74287" lon="7.07767">
        <ele>643.5</ele>
        <time>2025-01-25T11:25:43.000Z</time>
      </trkpt>
      <trkpt lat="43.74286" lon="7.07766">
        <ele>643.4</ele>
        <time>2025-01-25T11:25:51.000Z</time>
      </trkpt>
      <trkpt lat="43.74285" lon="7.07765">
        <ele>643.4</ele>
        <time>2025-01-25T11:25:52.000Z</time>
      </trkpt>
      <trkpt lat="43.74287" lon="7.07771">
        <ele>642.8</ele>
        <time>2025-01-25T11:26:01.000Z</time>
      </trkpt>
      <trkpt lat="43.74286" lon="7.07778">
        <ele>642.2</ele>
        <time>2025-01-25T11:26:04.000Z</time>
      </trkpt>
      <trkpt lat="43.74283" lon="7.07786">
        <ele>641.5</ele>
        <time>2025-01-25T11:26:07.000Z</time>
      </trkpt>
      <trkpt lat="43.74281" lon="7.07793">
        <ele>639.9</ele>
        <time>2025-01-25T11:26:10.000Z</time>
      </trkpt>
      <trkpt lat="43.74277" lon="7.07791">
        <ele>637</ele>
        <time>2025-01-25T11:26:15.000Z</time>
      </trkpt>
      <trkpt lat="43.74277" lon="7.07798">
        <ele>635.2</ele>
        <time>2025-01-25T11:26:21.000Z</time>
      </trkpt>
      <trkpt lat="43.74278" lon="7.07805">
        <ele>634.2</ele>
        <time>2025-01-25T11:26:27.000Z</time>
      </trkpt>
      <trkpt lat="43.74274" lon="7.07807">
        <ele>633.4</ele>
        <time>2025-01-25T11:26:34.000Z</time>
      </trkpt>
      <trkpt lat="43.74274" lon="7.078">
        <ele>632.7</ele>
        <time>2025-01-25T11:26:44.000Z</time>
      </trkpt>
      <trkpt lat="43.74274" lon="7.07799">
        <ele>632.5</ele>
        <time>2025-01-25T11:26:46.000Z</time>
      </trkpt>
      <trkpt lat="43.74274" lon="7.07798">
        <ele>632.4</ele>
        <time>2025-01-25T11:26:47.000Z</time>
      </trkpt>
      <trkpt lat="43.74274" lon="7.07798">
        <ele>632.3</ele>
        <time>2025-01-25T11:26:48.000Z</time>
      </trkpt>
      <trkpt lat="43.74275" lon="7.07797">
        <ele>632.2</ele>
        <time>2025-01-25T11:26:49.000Z</time>
      </trkpt>
      <trkpt lat="43.74272" lon="7.07792">
        <ele>631.6</ele>
        <time>2025-01-25T11:26:56.000Z</time>
      </trkpt>
      <trkpt lat="43.74272" lon="7.07785">
        <ele>630.4</ele>
        <time>2025-01-25T11:27:09.000Z</time>
      </trkpt>
      <trkpt lat="43.74272" lon="7.0779">
        <ele>629.7</ele>
        <time>2025-01-25T11:27:18.000Z</time>
      </trkpt>
      <trkpt lat="43.7427" lon="7.0779">
        <ele>629.7</ele>
        <time>2025-01-25T11:27:19.000Z</time>
      </trkpt>
      <trkpt lat="43.74268" lon="7.07791">
        <ele>629.6</ele>
        <time>2025-01-25T11:27:20.000Z</time>
      </trkpt>
      <trkpt lat="43.74268" lon="7.07791">
        <ele>629.6</ele>
        <time>2025-01-25T11:27:21.000Z</time>
      </trkpt>
      <trkpt lat="43.74269" lon="7.07792">
        <ele>629.6</ele>
        <time>2025-01-25T11:27:22.000Z</time>
      </trkpt>
      <trkpt lat="43.74265" lon="7.07795">
        <ele>629.5</ele>
        <time>2025-01-25T11:27:29.000Z</time>
      </trkpt>
      <trkpt lat="43.7426" lon="7.07794">
        <ele>629.2</ele>
        <time>2025-01-25T11:27:39.000Z</time>
      </trkpt>
      <trkpt lat="43.74256" lon="7.07797">
        <ele>628.8</ele>
        <time>2025-01-25T11:27:42.000Z</time>
      </trkpt>
      <trkpt lat="43.74251" lon="7.07799">
        <ele>628.3</ele>
        <time>2025-01-25T11:27:47.000Z</time>
      </trkpt>
      <trkpt lat="43.74248" lon="7.07804">
        <ele>628</ele>
        <time>2025-01-25T11:27:54.000Z</time>
      </trkpt>
      <trkpt lat="43.74243" lon="7.0781">
        <ele>628</ele>
        <time>2025-01-25T11:27:57.000Z</time>
      </trkpt>
      <trkpt lat="43.74239" lon="7.07815">
        <ele>627.9</ele>
        <time>2025-01-25T11:28:00.000Z</time>
      </trkpt>
      <trkpt lat="43.74235" lon="7.07822">
        <ele>628</ele>
        <time>2025-01-25T11:28:03.000Z</time>
      </trkpt>
      <trkpt lat="43.74232" lon="7.07827">
        <ele>628</ele>
        <time>2025-01-25T11:28:05.000Z</time>
      </trkpt>
      <trkpt lat="43.74228" lon="7.07831">
        <ele>628</ele>
        <time>2025-01-25T11:28:07.000Z</time>
      </trkpt>
      <trkpt lat="43.74226" lon="7.07837">
        <ele>628</ele>
        <time>2025-01-25T11:28:09.000Z</time>
      </trkpt>
      <trkpt lat="43.74225" lon="7.07846">
        <ele>628.1</ele>
        <time>2025-01-25T11:28:12.000Z</time>
      </trkpt>
      <trkpt lat="43.74225" lon="7.07853">
        <ele>628.1</ele>
        <time>2025-01-25T11:28:14.000Z</time>
      </trkpt>
      <trkpt lat="43.74224" lon="7.07862">
        <ele>628.3</ele>
        <time>2025-01-25T11:28:17.000Z</time>
      </trkpt>
      <trkpt lat="43.74224" lon="7.07869">
        <ele>628.7</ele>
        <time>2025-01-25T11:28:20.000Z</time>
      </trkpt>
      <trkpt lat="43.74223" lon="7.07876">
        <ele>629</ele>
        <time>2025-01-25T11:28:23.000Z</time>
      </trkpt>
      <trkpt lat="43.74222" lon="7.07884">
        <ele>628.7</ele>
        <time>2025-01-25T11:28:26.000Z</time>
      </trkpt>
      <trkpt lat="43.74223" lon="7.07892">
        <ele>628.3</ele>
        <time>2025-01-25T11:28:28.000Z</time>
      </trkpt>
      <trkpt lat="43.74223" lon="7.07902">
        <ele>627.6</ele>
        <time>2025-01-25T11:28:30.000Z</time>
      </trkpt>
      <trkpt lat="43.74225" lon="7.0791">
        <ele>626.8</ele>
        <time>2025-01-25T11:28:32.000Z</time>
      </trkpt>
      <trkpt lat="43.74227" lon="7.07919">
        <ele>625.8</ele>
        <time>2025-01-25T11:28:34.000Z</time>
      </trkpt>
      <trkpt lat="43.74227" lon="7.07932">
        <ele>624.8</ele>
        <time>2025-01-25T11:28:36.000Z</time>
      </trkpt>
      <trkpt lat="43.74226" lon="7.0794">
        <ele>624.5</ele>
        <time>2025-01-25T11:28:38.000Z</time>
      </trkpt>
      <trkpt lat="43.74227" lon="7.07948">
        <ele>624.7</ele>
        <time>2025-01-25T11:28:42.000Z</time>
      </trkpt>
      <trkpt lat="43.74228" lon="7.07955">
        <ele>625.5</ele>
        <time>2025-01-25T11:28:50.000Z</time>
      </trkpt>
      <trkpt lat="43.74233" lon="7.0796">
        <ele>627.1</ele>
        <time>2025-01-25T11:28:59.000Z</time>
      </trkpt>
      <trkpt lat="43.74236" lon="7.07966">
        <ele>628.1</ele>
        <time>2025-01-25T11:29:05.000Z</time>
      </trkpt>
      <trkpt lat="43.74236" lon="7.07972">
        <ele>628.9</ele>
        <time>2025-01-25T11:29:13.000Z</time>
      </trkpt>
      <trkpt lat="43.74236" lon="7.0798">
        <ele>629.3</ele>
        <time>2025-01-25T11:29:18.000Z</time>
      </trkpt>
      <trkpt lat="43.74233" lon="7.07985">
        <ele>629.4</ele>
        <time>2025-01-25T11:29:20.000Z</time>
      </trkpt>
      <trkpt lat="43.74229" lon="7.0799">
        <ele>630</ele>
        <time>2025-01-25T11:29:24.000Z</time>
      </trkpt>
      <trkpt lat="43.74226" lon="7.07996">
        <ele>630.7</ele>
        <time>2025-01-25T11:29:28.000Z</time>
      </trkpt>
      <trkpt lat="43.74222" lon="7.08001">
        <ele>631.3</ele>
        <time>2025-01-25T11:29:32.000Z</time>
      </trkpt>
      <trkpt lat="43.74219" lon="7.08008">
        <ele>631.7</ele>
        <time>2025-01-25T11:29:36.000Z</time>
      </trkpt>
      <trkpt lat="43.74216" lon="7.08013">
        <ele>631.8</ele>
        <time>2025-01-25T11:29:38.000Z</time>
      </trkpt>
      <trkpt lat="43.74214" lon="7.08021">
        <ele>632.1</ele>
        <time>2025-01-25T11:29:41.000Z</time>
      </trkpt>
      <trkpt lat="43.74213" lon="7.08028">
        <ele>632.6</ele>
        <time>2025-01-25T11:29:45.000Z</time>
      </trkpt>
      <trkpt lat="43.74211" lon="7.08034">
        <ele>633</ele>
        <time>2025-01-25T11:29:48.000Z</time>
      </trkpt>
      <trkpt lat="43.74209" lon="7.0804">
        <ele>633.4</ele>
        <time>2025-01-25T11:29:51.000Z</time>
      </trkpt>
      <trkpt lat="43.74206" lon="7.08048">
        <ele>633.7</ele>
        <time>2025-01-25T11:29:54.000Z</time>
      </trkpt>
      <trkpt lat="43.74204" lon="7.08055">
        <ele>633.9</ele>
        <time>2025-01-25T11:29:56.000Z</time>
      </trkpt>
      <trkpt lat="43.74201" lon="7.08063">
        <ele>634</ele>
        <time>2025-01-25T11:29:58.000Z</time>
      </trkpt>
      <trkpt lat="43.74197" lon="7.08072">
        <ele>633.8</ele>
        <time>2025-01-25T11:30:00.000Z</time>
      </trkpt>
      <trkpt lat="43.74195" lon="7.08078">
        <ele>633.8</ele>
        <time>2025-01-25T11:30:02.000Z</time>
      </trkpt>
      <trkpt lat="43.74192" lon="7.08084">
        <ele>633.9</ele>
        <time>2025-01-25T11:30:05.000Z</time>
      </trkpt>
      <trkpt lat="43.7419" lon="7.0809">
        <ele>634.1</ele>
        <time>2025-01-25T11:30:09.000Z</time>
      </trkpt>
      <trkpt lat="43.74189" lon="7.08094">
        <ele>634.3</ele>
        <time>2025-01-25T11:30:17.000Z</time>
      </trkpt>
      <trkpt lat="43.74189" lon="7.08095">
        <ele>634.3</ele>
        <time>2025-01-25T11:30:18.000Z</time>
      </trkpt>
      <trkpt lat="43.74188" lon="7.08094">
        <ele>634.3</ele>
        <time>2025-01-25T11:30:21.000Z</time>
      </trkpt>
      <trkpt lat="43.74188" lon="7.08095">
        <ele>634.3</ele>
        <time>2025-01-25T11:30:22.000Z</time>
      </trkpt>
      <trkpt lat="43.74187" lon="7.08096">
        <ele>634.4</ele>
        <time>2025-01-25T11:30:26.000Z</time>
      </trkpt>
      <trkpt lat="43.7419" lon="7.081">
        <ele>634.5</ele>
        <time>2025-01-25T11:30:51.000Z</time>
      </trkpt>
      <trkpt lat="43.74189" lon="7.081">
        <ele>634.5</ele>
        <time>2025-01-25T11:30:52.000Z</time>
      </trkpt>
      <trkpt lat="43.74188" lon="7.08099">
        <ele>634.5</ele>
        <time>2025-01-25T11:31:03.000Z</time>
      </trkpt>
      <trkpt lat="43.74188" lon="7.08098">
        <ele>634.5</ele>
        <time>2025-01-25T11:31:04.000Z</time>
      </trkpt>
      <trkpt lat="43.74188" lon="7.08098">
        <ele>634.5</ele>
        <time>2025-01-25T11:31:05.000Z</time>
      </trkpt>
      <trkpt lat="43.74187" lon="7.08097">
        <ele>634.5</ele>
        <time>2025-01-25T11:31:13.000Z</time>
      </trkpt>
      <trkpt lat="43.74187" lon="7.08097">
        <ele>634.5</ele>
        <time>2025-01-25T11:31:14.000Z</time>
      </trkpt>
      <trkpt lat="43.74187" lon="7.08097">
        <ele>634.5</ele>
        <time>2025-01-25T11:31:15.000Z</time>
      </trkpt>
      <trkpt lat="43.74187" lon="7.08098">
        <ele>634.5</ele>
        <time>2025-01-25T11:31:16.000Z</time>
      </trkpt>
      <trkpt lat="43.74187" lon="7.08098">
        <ele>634.5</ele>
        <time>2025-01-25T11:31:17.000Z</time>
      </trkpt>
      <trkpt lat="43.74186" lon="7.08101">
        <ele>634.4</ele>
        <time>2025-01-25T11:31:29.000Z</time>
      </trkpt>
      <trkpt lat="43.74185" lon="7.081">
        <ele>634.3</ele>
        <time>2025-01-25T11:31:30.000Z</time>
      </trkpt>
      <trkpt lat="43.7419" lon="7.08099">
        <ele>633.6</ele>
        <time>2025-01-25T11:32:21.000Z</time>
      </trkpt>
      <trkpt lat="43.74189" lon="7.081">
        <ele>633.7</ele>
        <time>2025-01-25T11:33:04.000Z</time>
      </trkpt>
      <trkpt lat="43.74189" lon="7.081">
        <ele>633.7</ele>
        <time>2025-01-25T11:33:05.000Z</time>
      </trkpt>
      <trkpt lat="43.74193" lon="7.08095">
        <ele>633.9</ele>
        <time>2025-01-25T11:33:14.000Z</time>
      </trkpt>
      <trkpt lat="43.74197" lon="7.08092">
        <ele>634.2</ele>
        <time>2025-01-25T11:33:18.000Z</time>
      </trkpt>
      <trkpt lat="43.74201" lon="7.08088">
        <ele>635.3</ele>
        <time>2025-01-25T11:33:25.000Z</time>
      </trkpt>
      <trkpt lat="43.74205" lon="7.08085">
        <ele>636.2</ele>
        <time>2025-01-25T11:33:29.000Z</time>
      </trkpt>
      <trkpt lat="43.74209" lon="7.08083">
        <ele>638.1</ele>
        <time>2025-01-25T11:33:36.000Z</time>
      </trkpt>
      <trkpt lat="43.74214" lon="7.08079">
        <ele>640.9</ele>
        <time>2025-01-25T11:33:54.000Z</time>
      </trkpt>
      <trkpt lat="43.74218" lon="7.08077">
        <ele>641.5</ele>
        <time>2025-01-25T11:33:58.000Z</time>
      </trkpt>
      <trkpt lat="43.74223" lon="7.08078">
        <ele>642</ele>
        <time>2025-01-25T11:34:02.000Z</time>
      </trkpt>
      <trkpt lat="43.74228" lon="7.08078">
        <ele>642.7</ele>
        <time>2025-01-25T11:34:06.000Z</time>
      </trkpt>
      <trkpt lat="43.74232" lon="7.08074">
        <ele>643.2</ele>
        <time>2025-01-25T11:34:10.000Z</time>
      </trkpt>
      <trkpt lat="43.74231" lon="7.08074">
        <ele>643.3</ele>
        <time>2025-01-25T11:34:11.000Z</time>
      </trkpt>
      <trkpt lat="43.74231" lon="7.08074">
        <ele>643.4</ele>
        <time>2025-01-25T11:34:12.000Z</time>
      </trkpt>
      <trkpt lat="43.74235" lon="7.08073">
        <ele>644.1</ele>
        <time>2025-01-25T11:34:26.000Z</time>
      </trkpt>
      <trkpt lat="43.74236" lon="7.08073">
        <ele>644.1</ele>
        <time>2025-01-25T11:34:27.000Z</time>
      </trkpt>
      <trkpt lat="43.74241" lon="7.08071">
        <ele>644.3</ele>
        <time>2025-01-25T11:34:31.000Z</time>
      </trkpt>
      <trkpt lat="43.74246" lon="7.08069">
        <ele>644.5</ele>
        <time>2025-01-25T11:34:34.000Z</time>
      </trkpt>
      <trkpt lat="43.7425" lon="7.08067">
        <ele>644.9</ele>
        <time>2025-01-25T11:34:39.000Z</time>
      </trkpt>
      <trkpt lat="43.74256" lon="7.08067">
        <ele>645.5</ele>
        <time>2025-01-25T11:34:46.000Z</time>
      </trkpt>
      <trkpt lat="43.7426" lon="7.08062">
        <ele>646.6</ele>
        <time>2025-01-25T11:34:53.000Z</time>
      </trkpt>
      <trkpt lat="43.74264" lon="7.08061">
        <ele>647.7</ele>
        <time>2025-01-25T11:34:58.000Z</time>
      </trkpt>
      <trkpt lat="43.74268" lon="7.08056">
        <ele>649</ele>
        <time>2025-01-25T11:35:05.000Z</time>
      </trkpt>
      <trkpt lat="43.74272" lon="7.08052">
        <ele>649.9</ele>
        <time>2025-01-25T11:35:10.000Z</time>
      </trkpt>
      <trkpt lat="43.74276" lon="7.08049">
        <ele>650.7</ele>
        <time>2025-01-25T11:35:18.000Z</time>
      </trkpt>
      <trkpt lat="43.74281" lon="7.08047">
        <ele>650.8</ele>
        <time>2025-01-25T11:35:22.000Z</time>
      </trkpt>
      <trkpt lat="43.74286" lon="7.08045">
        <ele>651</ele>
        <time>2025-01-25T11:35:25.000Z</time>
      </trkpt>
      <trkpt lat="43.7429" lon="7.08042">
        <ele>651.3</ele>
        <time>2025-01-25T11:35:28.000Z</time>
      </trkpt>
      <trkpt lat="43.74293" lon="7.08039">
        <ele>651.9</ele>
        <time>2025-01-25T11:35:31.000Z</time>
      </trkpt>
      <trkpt lat="43.74298" lon="7.08035">
        <ele>652.9</ele>
        <time>2025-01-25T11:35:37.000Z</time>
      </trkpt>
      <trkpt lat="43.74301" lon="7.0803">
        <ele>653.5</ele>
        <time>2025-01-25T11:35:42.000Z</time>
      </trkpt>
      <trkpt lat="43.74305" lon="7.08028">
        <ele>654.2</ele>
        <time>2025-01-25T11:35:47.000Z</time>
      </trkpt>
      <trkpt lat="43.74309" lon="7.08024">
        <ele>655.3</ele>
        <time>2025-01-25T11:35:54.000Z</time>
      </trkpt>
      <trkpt lat="43.74312" lon="7.08018">
        <ele>656</ele>
        <time>2025-01-25T11:36:00.000Z</time>
      </trkpt>
      <trkpt lat="43.74316" lon="7.08014">
        <ele>656.7</ele>
        <time>2025-01-25T11:36:06.000Z</time>
      </trkpt>
      <trkpt lat="43.74319" lon="7.08008">
        <ele>657.9</ele>
        <time>2025-01-25T11:36:15.000Z</time>
      </trkpt>
      <trkpt lat="43.74322" lon="7.08003">
        <ele>659.1</ele>
        <time>2025-01-25T11:36:22.000Z</time>
      </trkpt>
      <trkpt lat="43.74327" lon="7.08002">
        <ele>660.6</ele>
        <time>2025-01-25T11:36:31.000Z</time>
      </trkpt>
      <trkpt lat="43.74332" lon="7.08002">
        <ele>662.1</ele>
        <time>2025-01-25T11:36:40.000Z</time>
      </trkpt>
      <trkpt lat="43.74335" lon="7.08001">
        <ele>662.8</ele>
        <time>2025-01-25T11:36:46.000Z</time>
      </trkpt>
      <trkpt lat="43.74335" lon="7.08002">
        <ele>662.9</ele>
        <time>2025-01-25T11:36:47.000Z</time>
      </trkpt>
      <trkpt lat="43.74335" lon="7.08002">
        <ele>662.9</ele>
        <time>2025-01-25T11:36:48.000Z</time>
      </trkpt>
      <trkpt lat="43.74335" lon="7.08002">
        <ele>663</ele>
        <time>2025-01-25T11:36:49.000Z</time>
      </trkpt>
      <trkpt lat="43.74334" lon="7.08002">
        <ele>663</ele>
        <time>2025-01-25T11:36:50.000Z</time>
      </trkpt>
      <trkpt lat="43.74334" lon="7.08002">
        <ele>663.1</ele>
        <time>2025-01-25T11:36:51.000Z</time>
      </trkpt>
      <trkpt lat="43.74334" lon="7.08003">
        <ele>663.1</ele>
        <time>2025-01-25T11:36:52.000Z</time>
      </trkpt>
      <trkpt lat="43.74334" lon="7.08003">
        <ele>663.2</ele>
        <time>2025-01-25T11:36:53.000Z</time>
      </trkpt>
      <trkpt lat="43.74338" lon="7.08003">
        <ele>663.5</ele>
        <time>2025-01-25T11:37:03.000Z</time>
      </trkpt>
      <trkpt lat="43.74338" lon="7.08004">
        <ele>663.5</ele>
        <time>2025-01-25T11:37:04.000Z</time>
      </trkpt>
      <trkpt lat="43.74343" lon="7.08002">
        <ele>664.1</ele>
        <time>2025-01-25T11:37:11.000Z</time>
      </trkpt>
      <trkpt lat="43.74347" lon="7.08003">
        <ele>667</ele>
        <time>2025-01-25T11:37:26.000Z</time>
      </trkpt>
      <trkpt lat="43.74347" lon="7.08003">
        <ele>667.4</ele>
        <time>2025-01-25T11:37:29.000Z</time>
      </trkpt>
      <trkpt lat="43.74347" lon="7.08003">
        <ele>667.5</ele>
        <time>2025-01-25T11:37:30.000Z</time>
      </trkpt>
      <trkpt lat="43.74352" lon="7.08002">
        <ele>669.5</ele>
        <time>2025-01-25T11:37:43.000Z</time>
      </trkpt>
      <trkpt lat="43.74356" lon="7.07999">
        <ele>670.3</ele>
        <time>2025-01-25T11:37:48.000Z</time>
      </trkpt>
      <trkpt lat="43.74359" lon="7.07993">
        <ele>671.3</ele>
        <time>2025-01-25T11:37:54.000Z</time>
      </trkpt>
      <trkpt lat="43.74364" lon="7.07992">
        <ele>671.8</ele>
        <time>2025-01-25T11:37:58.000Z</time>
      </trkpt>
      <trkpt lat="43.74368" lon="7.07991">
        <ele>672.8</ele>
        <time>2025-01-25T11:38:05.000Z</time>
      </trkpt>
      <trkpt lat="43.74373" lon="7.07992">
        <ele>673.8</ele>
        <time>2025-01-25T11:38:12.000Z</time>
      </trkpt>
      <trkpt lat="43.74378" lon="7.07994">
        <ele>675.1</ele>
        <time>2025-01-25T11:38:20.000Z</time>
      </trkpt>
      <trkpt lat="43.74382" lon="7.07991">
        <ele>677.2</ele>
        <time>2025-01-25T11:38:35.000Z</time>
      </trkpt>
      <trkpt lat="43.74387" lon="7.07989">
        <ele>678.2</ele>
        <time>2025-01-25T11:38:42.000Z</time>
      </trkpt>
      <trkpt lat="43.74391" lon="7.07991">
        <ele>679</ele>
        <time>2025-01-25T11:38:48.000Z</time>
      </trkpt>
      <trkpt lat="43.74396" lon="7.07996">
        <ele>680.6</ele>
        <time>2025-01-25T11:39:01.000Z</time>
      </trkpt>
      <trkpt lat="43.74395" lon="7.07997">
        <ele>682.8</ele>
        <time>2025-01-25T11:39:14.000Z</time>
      </trkpt>
      <trkpt lat="43.74395" lon="7.07996">
        <ele>682.7</ele>
        <time>2025-01-25T11:39:15.000Z</time>
      </trkpt>
      <trkpt lat="43.74395" lon="7.07996">
        <ele>682.6</ele>
        <time>2025-01-25T11:39:19.000Z</time>
      </trkpt>
      <trkpt lat="43.74396" lon="7.08002">
        <ele>684.6</ele>
        <time>2025-01-25T11:39:42.000Z</time>
      </trkpt>
      <trkpt lat="43.744" lon="7.08006">
        <ele>686.3</ele>
        <time>2025-01-25T11:39:52.000Z</time>
      </trkpt>
      <trkpt lat="43.74402" lon="7.08012">
        <ele>687.6</ele>
        <time>2025-01-25T11:40:00.000Z</time>
      </trkpt>
      <trkpt lat="43.74407" lon="7.08015">
        <ele>689.2</ele>
        <time>2025-01-25T11:40:11.000Z</time>
      </trkpt>
      <trkpt lat="43.74412" lon="7.08015">
        <ele>690.3</ele>
        <time>2025-01-25T11:40:16.000Z</time>
      </trkpt>
      <trkpt lat="43.74416" lon="7.08011">
        <ele>692.2</ele>
        <time>2025-01-25T11:40:27.000Z</time>
      </trkpt>
      <trkpt lat="43.74419" lon="7.08004">
        <ele>693.3</ele>
        <time>2025-01-25T11:40:34.000Z</time>
      </trkpt>
      <trkpt lat="43.74422" lon="7.07998">
        <ele>693.8</ele>
        <time>2025-01-25T11:40:39.000Z</time>
      </trkpt>
      <trkpt lat="43.74427" lon="7.07998">
        <ele>694.4</ele>
        <time>2025-01-25T11:40:45.000Z</time>
      </trkpt>
      <trkpt lat="43.74431" lon="7.07997">
        <ele>694.7</ele>
        <time>2025-01-25T11:40:48.000Z</time>
      </trkpt>
      <trkpt lat="43.74436" lon="7.07998">
        <ele>695.3</ele>
        <time>2025-01-25T11:40:52.000Z</time>
      </trkpt>
      <trkpt lat="43.7444" lon="7.07996">
        <ele>696.1</ele>
        <time>2025-01-25T11:40:57.000Z</time>
      </trkpt>
      <trkpt lat="43.74445" lon="7.07995">
        <ele>697.8</ele>
        <time>2025-01-25T11:41:11.000Z</time>
      </trkpt>
      <trkpt lat="43.7445" lon="7.07993">
        <ele>698.6</ele>
        <time>2025-01-25T11:41:17.000Z</time>
      </trkpt>
      <trkpt lat="43.74454" lon="7.07989">
        <ele>699.4</ele>
        <time>2025-01-25T11:41:22.000Z</time>
      </trkpt>
      <trkpt lat="43.74453" lon="7.07987">
        <ele>700.1</ele>
        <time>2025-01-25T11:41:31.000Z</time>
      </trkpt>
      <trkpt lat="43.74453" lon="7.07987">
        <ele>700.2</ele>
        <time>2025-01-25T11:41:32.000Z</time>
      </trkpt>
      <trkpt lat="43.74454" lon="7.07985">
        <ele>700.4</ele>
        <time>2025-01-25T11:41:36.000Z</time>
      </trkpt>
      <trkpt lat="43.74455" lon="7.07985">
        <ele>700.4</ele>
        <time>2025-01-25T11:41:37.000Z</time>
      </trkpt>
      <trkpt lat="43.7446" lon="7.07982">
        <ele>700.7</ele>
        <time>2025-01-25T11:41:42.000Z</time>
      </trkpt>
      <trkpt lat="43.74464" lon="7.07977">
        <ele>701.1</ele>
        <time>2025-01-25T11:41:47.000Z</time>
      </trkpt>
      <trkpt lat="43.74469" lon="7.07973">
        <ele>701.4</ele>
        <time>2025-01-25T11:41:50.000Z</time>
      </trkpt>
      <trkpt lat="43.74473" lon="7.07969">
        <ele>701.8</ele>
        <time>2025-01-25T11:41:53.000Z</time>
      </trkpt>
      <trkpt lat="43.74478" lon="7.07967">
        <ele>702.1</ele>
        <time>2025-01-25T11:41:56.000Z</time>
      </trkpt>
      <trkpt lat="43.74483" lon="7.07964">
        <ele>702.4</ele>
        <time>2025-01-25T11:41:59.000Z</time>
      </trkpt>
      <trkpt lat="43.74488" lon="7.0796">
        <ele>702.8</ele>
        <time>2025-01-25T11:42:02.000Z</time>
      </trkpt>
      <trkpt lat="43.74492" lon="7.07955">
        <ele>703.1</ele>
        <time>2025-01-25T11:42:05.000Z</time>
      </trkpt>
      <trkpt lat="43.74496" lon="7.07951">
        <ele>703.4</ele>
        <time>2025-01-25T11:42:08.000Z</time>
      </trkpt>
      <trkpt lat="43.745" lon="7.07947">
        <ele>703.6</ele>
        <time>2025-01-25T11:42:11.000Z</time>
      </trkpt>
      <trkpt lat="43.74505" lon="7.07943">
        <ele>703.8</ele>
        <time>2025-01-25T11:42:14.000Z</time>
      </trkpt>
      <trkpt lat="43.74509" lon="7.0794">
        <ele>704.1</ele>
        <time>2025-01-25T11:42:20.000Z</time>
      </trkpt>
      <trkpt lat="43.74509" lon="7.07939">
        <ele>704.2</ele>
        <time>2025-01-25T11:42:21.000Z</time>
      </trkpt>
      <trkpt lat="43.74508" lon="7.0794">
        <ele>704.2</ele>
        <time>2025-01-25T11:42:22.000Z</time>
      </trkpt>
      <trkpt lat="43.74513" lon="7.07939">
        <ele>704.3</ele>
        <time>2025-01-25T11:42:35.000Z</time>
      </trkpt>
      <trkpt lat="43.74509" lon="7.07935">
        <ele>704.4</ele>
        <time>2025-01-25T11:43:27.000Z</time>
      </trkpt>
      <trkpt lat="43.74509" lon="7.07935">
        <ele>704.4</ele>
        <time>2025-01-25T11:43:28.000Z</time>
      </trkpt>
      <trkpt lat="43.74509" lon="7.07934">
        <ele>704.4</ele>
        <time>2025-01-25T11:43:29.000Z</time>
      </trkpt>
      <trkpt lat="43.74509" lon="7.07934">
        <ele>704.4</ele>
        <time>2025-01-25T11:43:30.000Z</time>
      </trkpt>
      <trkpt lat="43.7451" lon="7.07934">
        <ele>704.5</ele>
        <time>2025-01-25T11:43:33.000Z</time>
      </trkpt>
      <trkpt lat="43.74511" lon="7.07934">
        <ele>704.5</ele>
        <time>2025-01-25T11:43:34.000Z</time>
      </trkpt>
      <trkpt lat="43.74511" lon="7.07934">
        <ele>704.5</ele>
        <time>2025-01-25T11:43:35.000Z</time>
      </trkpt>
      <trkpt lat="43.74512" lon="7.07935">
        <ele>704.5</ele>
        <time>2025-01-25T11:43:36.000Z</time>
      </trkpt>
      <trkpt lat="43.74512" lon="7.07935">
        <ele>704.5</ele>
        <time>2025-01-25T11:43:37.000Z</time>
      </trkpt>
      <trkpt lat="43.74511" lon="7.07935">
        <ele>704.5</ele>
        <time>2025-01-25T11:43:38.000Z</time>
      </trkpt>
      <trkpt lat="43.74512" lon="7.07936">
        <ele>704.5</ele>
        <time>2025-01-25T11:43:39.000Z</time>
      </trkpt>
      <trkpt lat="43.74512" lon="7.07936">
        <ele>704.5</ele>
        <time>2025-01-25T11:43:40.000Z</time>
      </trkpt>
      <trkpt lat="43.74513" lon="7.07937">
        <ele>704.5</ele>
        <time>2025-01-25T11:44:30.000Z</time>
      </trkpt>
      <trkpt lat="43.74514" lon="7.07936">
        <ele>704.5</ele>
        <time>2025-01-25T11:44:31.000Z</time>
      </trkpt>
      <trkpt lat="43.74515" lon="7.07934">
        <ele>704.5</ele>
        <time>2025-01-25T11:44:32.000Z</time>
      </trkpt>
      <trkpt lat="43.74519" lon="7.0793">
        <ele>704.5</ele>
        <time>2025-01-25T11:44:34.000Z</time>
      </trkpt>
      <trkpt lat="43.74522" lon="7.07926">
        <ele>704.5</ele>
        <time>2025-01-25T11:44:36.000Z</time>
      </trkpt>
      <trkpt lat="43.74526" lon="7.07919">
        <ele>704.5</ele>
        <time>2025-01-25T11:44:39.000Z</time>
      </trkpt>
      <trkpt lat="43.7453" lon="7.07911">
        <ele>704.5</ele>
        <time>2025-01-25T11:44:42.000Z</time>
      </trkpt>
      <trkpt lat="43.74534" lon="7.07908">
        <ele>704.5</ele>
        <time>2025-01-25T11:44:44.000Z</time>
      </trkpt>
      <trkpt lat="43.74539" lon="7.07905">
        <ele>704.5</ele>
        <time>2025-01-25T11:44:46.000Z</time>
      </trkpt>
      <trkpt lat="43.74543" lon="7.07902">
        <ele>704.5</ele>
        <time>2025-01-25T11:44:48.000Z</time>
      </trkpt>
      <trkpt lat="43.74547" lon="7.07898">
        <ele>704.5</ele>
        <time>2025-01-25T11:44:50.000Z</time>
      </trkpt>
      <trkpt lat="43.74552" lon="7.07897">
        <ele>704.5</ele>
        <time>2025-01-25T11:44:53.000Z</time>
      </trkpt>
      <trkpt lat="43.74557" lon="7.07892">
        <ele>704.5</ele>
        <time>2025-01-25T11:44:56.000Z</time>
      </trkpt>
      <trkpt lat="43.74561" lon="7.07887">
        <ele>704.5</ele>
        <time>2025-01-25T11:44:59.000Z</time>
      </trkpt>
      <trkpt lat="43.74567" lon="7.07884">
        <ele>704.6</ele>
        <time>2025-01-25T11:45:02.000Z</time>
      </trkpt>
      <trkpt lat="43.74572" lon="7.07882">
        <ele>704.7</ele>
        <time>2025-01-25T11:45:06.000Z</time>
      </trkpt>
      <trkpt lat="43.74576" lon="7.07878">
        <ele>704.8</ele>
        <time>2025-01-25T11:45:09.000Z</time>
      </trkpt>
      <trkpt lat="43.74582" lon="7.07873">
        <ele>705</ele>
        <time>2025-01-25T11:45:12.000Z</time>
      </trkpt>
      <trkpt lat="43.74587" lon="7.07872">
        <ele>705.3</ele>
        <time>2025-01-25T11:45:15.000Z</time>
      </trkpt>
      <trkpt lat="43.74593" lon="7.07874">
        <ele>705.8</ele>
        <time>2025-01-25T11:45:19.000Z</time>
      </trkpt>
      <trkpt lat="43.74598" lon="7.07876">
        <ele>706.5</ele>
        <time>2025-01-25T11:45:23.000Z</time>
      </trkpt>
      <trkpt lat="43.74604" lon="7.07875">
        <ele>707.4</ele>
        <time>2025-01-25T11:45:28.000Z</time>
      </trkpt>
      <trkpt lat="43.74608" lon="7.07872">
        <ele>708</ele>
        <time>2025-01-25T11:45:31.000Z</time>
      </trkpt>
      <trkpt lat="43.74613" lon="7.0787">
        <ele>708.7</ele>
        <time>2025-01-25T11:45:35.000Z</time>
      </trkpt>
      <trkpt lat="43.74618" lon="7.07868">
        <ele>709.3</ele>
        <time>2025-01-25T11:45:39.000Z</time>
      </trkpt>
      <trkpt lat="43.74623" lon="7.07865">
        <ele>710.1</ele>
        <time>2025-01-25T11:45:45.000Z</time>
      </trkpt>
      <trkpt lat="43.74627" lon="7.07862">
        <ele>710.8</ele>
        <time>2025-01-25T11:45:50.000Z</time>
      </trkpt>
      <trkpt lat="43.74633" lon="7.07857">
        <ele>711.1</ele>
        <time>2025-01-25T11:45:54.000Z</time>
      </trkpt>
      <trkpt lat="43.74638" lon="7.07855">
        <ele>711.4</ele>
        <time>2025-01-25T11:45:57.000Z</time>
      </trkpt>
      <trkpt lat="43.74643" lon="7.07853">
        <ele>711.7</ele>
        <time>2025-01-25T11:46:00.000Z</time>
      </trkpt>
      <trkpt lat="43.74647" lon="7.0785">
        <ele>712</ele>
        <time>2025-01-25T11:46:03.000Z</time>
      </trkpt>
      <trkpt lat="43.74652" lon="7.07847">
        <ele>712.5</ele>
        <time>2025-01-25T11:46:07.000Z</time>
      </trkpt>
      <trkpt lat="43.74657" lon="7.07846">
        <ele>713.2</ele>
        <time>2025-01-25T11:46:12.000Z</time>
      </trkpt>
      <trkpt lat="43.74663" lon="7.07846">
        <ele>713.7</ele>
        <time>2025-01-25T11:46:15.000Z</time>
      </trkpt>
      <trkpt lat="43.74668" lon="7.07847">
        <ele>714.1</ele>
        <time>2025-01-25T11:46:19.000Z</time>
      </trkpt>
      <trkpt lat="43.74672" lon="7.07845">
        <ele>714.7</ele>
        <time>2025-01-25T11:46:27.000Z</time>
      </trkpt>
      <trkpt lat="43.74677" lon="7.07843">
        <ele>715.1</ele>
        <time>2025-01-25T11:46:33.000Z</time>
      </trkpt>
      <trkpt lat="43.74682" lon="7.0784">
        <ele>715.6</ele>
        <time>2025-01-25T11:46:39.000Z</time>
      </trkpt>
      <trkpt lat="43.74687" lon="7.07842">
        <ele>716.1</ele>
        <time>2025-01-25T11:46:45.000Z</time>
      </trkpt>
      <trkpt lat="43.74691" lon="7.07841">
        <ele>716.8</ele>
        <time>2025-01-25T11:46:52.000Z</time>
      </trkpt>
      <trkpt lat="43.74697" lon="7.0784">
        <ele>717.5</ele>
        <time>2025-01-25T11:46:58.000Z</time>
      </trkpt>
      <trkpt lat="43.74701" lon="7.07839">
        <ele>718.2</ele>
        <time>2025-01-25T11:47:02.000Z</time>
      </trkpt>
      <trkpt lat="43.74707" lon="7.07839">
        <ele>718.9</ele>
        <time>2025-01-25T11:47:07.000Z</time>
      </trkpt>
      <trkpt lat="43.74712" lon="7.07839">
        <ele>719.7</ele>
        <time>2025-01-25T11:47:12.000Z</time>
      </trkpt>
      <trkpt lat="43.74713" lon="7.07839">
        <ele>720.2</ele>
        <time>2025-01-25T11:47:19.000Z</time>
      </trkpt>
      <trkpt lat="43.74712" lon="7.07839">
        <ele>720.2</ele>
        <time>2025-01-25T11:47:20.000Z</time>
      </trkpt>
      <trkpt lat="43.74714" lon="7.07839">
        <ele>720.4</ele>
        <time>2025-01-25T11:47:30.000Z</time>
      </trkpt>
      <trkpt lat="43.74713" lon="7.07839">
        <ele>720.4</ele>
        <time>2025-01-25T11:47:31.000Z</time>
      </trkpt>
      <trkpt lat="43.74713" lon="7.07839">
        <ele>720.4</ele>
        <time>2025-01-25T11:47:32.000Z</time>
      </trkpt>
      <trkpt lat="43.74718" lon="7.0784">
        <ele>720.5</ele>
        <time>2025-01-25T11:47:37.000Z</time>
      </trkpt>
      <trkpt lat="43.74724" lon="7.07843">
        <ele>720.6</ele>
        <time>2025-01-25T11:47:40.000Z</time>
      </trkpt>
      <trkpt lat="43.7473" lon="7.07845">
        <ele>720.7</ele>
        <time>2025-01-25T11:47:43.000Z</time>
      </trkpt>
      <trkpt lat="43.74735" lon="7.07845">
        <ele>720.8</ele>
        <time>2025-01-25T11:47:46.000Z</time>
      </trkpt>
      <trkpt lat="43.7474" lon="7.07844">
        <ele>721.1</ele>
        <time>2025-01-25T11:47:49.000Z</time>
      </trkpt>
      <trkpt lat="43.74745" lon="7.07846">
        <ele>721.3</ele>
        <time>2025-01-25T11:47:52.000Z</time>
      </trkpt>
      <trkpt lat="43.7475" lon="7.07846">
        <ele>721.6</ele>
        <time>2025-01-25T11:47:55.000Z</time>
      </trkpt>
      <trkpt lat="43.74755" lon="7.07847">
        <ele>722.2</ele>
        <time>2025-01-25T11:47:59.000Z</time>
      </trkpt>
      <trkpt lat="43.7476" lon="7.07848">
        <ele>722.6</ele>
        <time>2025-01-25T11:48:02.000Z</time>
      </trkpt>
      <trkpt lat="43.74766" lon="7.07847">
        <ele>723.2</ele>
        <time>2025-01-25T11:48:06.000Z</time>
      </trkpt>
      <trkpt lat="43.74772" lon="7.07849">
        <ele>723.7</ele>
        <time>2025-01-25T11:48:10.000Z</time>
      </trkpt>
      <trkpt lat="43.74777" lon="7.07849">
        <ele>724.1</ele>
        <time>2025-01-25T11:48:13.000Z</time>
      </trkpt>
      <trkpt lat="43.74782" lon="7.07849">
        <ele>724.3</ele>
        <time>2025-01-25T11:48:16.000Z</time>
      </trkpt>
      <trkpt lat="43.74787" lon="7.0785">
        <ele>724.4</ele>
        <time>2025-01-25T11:48:18.000Z</time>
      </trkpt>
      <trkpt lat="43.74793" lon="7.07849">
        <ele>724.7</ele>
        <time>2025-01-25T11:48:21.000Z</time>
      </trkpt>
      <trkpt lat="43.74798" lon="7.07849">
        <ele>725</ele>
        <time>2025-01-25T11:48:24.000Z</time>
      </trkpt>
      <trkpt lat="43.74803" lon="7.0785">
        <ele>725.3</ele>
        <time>2025-01-25T11:48:28.000Z</time>
      </trkpt>
      <trkpt lat="43.74808" lon="7.07853">
        <ele>725.9</ele>
        <time>2025-01-25T11:48:33.000Z</time>
      </trkpt>
      <trkpt lat="43.74813" lon="7.07856">
        <ele>726.6</ele>
        <time>2025-01-25T11:48:37.000Z</time>
      </trkpt>
      <trkpt lat="43.74818" lon="7.07856">
        <ele>727.3</ele>
        <time>2025-01-25T11:48:41.000Z</time>
      </trkpt>
      <trkpt lat="43.74822" lon="7.07854">
        <ele>727.9</ele>
        <time>2025-01-25T11:48:45.000Z</time>
      </trkpt>
      <trkpt lat="43.74828" lon="7.07852">
        <ele>728.5</ele>
        <time>2025-01-25T11:48:49.000Z</time>
      </trkpt>
      <trkpt lat="43.74833" lon="7.07851">
        <ele>728.9</ele>
        <time>2025-01-25T11:48:53.000Z</time>
      </trkpt>
      <trkpt lat="43.74837" lon="7.07847">
        <ele>729.3</ele>
        <time>2025-01-25T11:48:57.000Z</time>
      </trkpt>
      <trkpt lat="43.74841" lon="7.07842">
        <ele>729.8</ele>
        <time>2025-01-25T11:49:01.000Z</time>
      </trkpt>
      <trkpt lat="43.74846" lon="7.07839">
        <ele>730.3</ele>
        <time>2025-01-25T11:49:05.000Z</time>
      </trkpt>
      <trkpt lat="43.7485" lon="7.07836">
        <ele>730.8</ele>
        <time>2025-01-25T11:49:09.000Z</time>
      </trkpt>
      <trkpt lat="43.74855" lon="7.07832">
        <ele>731.3</ele>
        <time>2025-01-25T11:49:14.000Z</time>
      </trkpt>
      <trkpt lat="43.7486" lon="7.0783">
        <ele>731.7</ele>
        <time>2025-01-25T11:49:18.000Z</time>
      </trkpt>
      <trkpt lat="43.74864" lon="7.07827">
        <ele>732.2</ele>
        <time>2025-01-25T11:49:22.000Z</time>
      </trkpt>
      <trkpt lat="43.74869" lon="7.07824">
        <ele>732.5</ele>
        <time>2025-01-25T11:49:25.000Z</time>
      </trkpt>
      <trkpt lat="43.74873" lon="7.07822">
        <ele>732.8</ele>
        <time>2025-01-25T11:49:28.000Z</time>
      </trkpt>
      <trkpt lat="43.74879" lon="7.07819">
        <ele>733.1</ele>
        <time>2025-01-25T11:49:32.000Z</time>
      </trkpt>
      <trkpt lat="43.74884" lon="7.07815">
        <ele>733.5</ele>
        <time>2025-01-25T11:49:36.000Z</time>
      </trkpt>
      <trkpt lat="43.74889" lon="7.07811">
        <ele>733.6</ele>
        <time>2025-01-25T11:49:39.000Z</time>
      </trkpt>
      <trkpt lat="43.74894" lon="7.07808">
        <ele>733.7</ele>
        <time>2025-01-25T11:49:42.000Z</time>
      </trkpt>
      <trkpt lat="43.749" lon="7.07806">
        <ele>733.8</ele>
        <time>2025-01-25T11:49:46.000Z</time>
      </trkpt>
      <trkpt lat="43.74905" lon="7.07804">
        <ele>733.9</ele>
        <time>2025-01-25T11:49:48.000Z</time>
      </trkpt>
      <trkpt lat="43.74909" lon="7.07801">
        <ele>734.1</ele>
        <time>2025-01-25T11:49:51.000Z</time>
      </trkpt>
      <trkpt lat="43.74915" lon="7.078">
        <ele>734.3</ele>
        <time>2025-01-25T11:49:54.000Z</time>
      </trkpt>
      <trkpt lat="43.74919" lon="7.07798">
        <ele>734.4</ele>
        <time>2025-01-25T11:49:56.000Z</time>
      </trkpt>
      <trkpt lat="43.74923" lon="7.07795">
        <ele>734.6</ele>
        <time>2025-01-25T11:49:59.000Z</time>
      </trkpt>
      <trkpt lat="43.74928" lon="7.07792">
        <ele>734.9</ele>
        <time>2025-01-25T11:50:03.000Z</time>
      </trkpt>
      <trkpt lat="43.74933" lon="7.07791">
        <ele>735.1</ele>
        <time>2025-01-25T11:50:07.000Z</time>
      </trkpt>
      <trkpt lat="43.74938" lon="7.07789">
        <ele>735.5</ele>
        <time>2025-01-25T11:50:10.000Z</time>
      </trkpt>
      <trkpt lat="43.74942" lon="7.07787">
        <ele>735.9</ele>
        <time>2025-01-25T11:50:14.000Z</time>
      </trkpt>
      <trkpt lat="43.74947" lon="7.07783">
        <ele>736.7</ele>
        <time>2025-01-25T11:50:19.000Z</time>
      </trkpt>
      <trkpt lat="43.74952" lon="7.07781">
        <ele>737.1</ele>
        <time>2025-01-25T11:50:23.000Z</time>
      </trkpt>
      <trkpt lat="43.74957" lon="7.07779">
        <ele>737.7</ele>
        <time>2025-01-25T11:50:27.000Z</time>
      </trkpt>
      <trkpt lat="43.74963" lon="7.07777">
        <ele>738.2</ele>
        <time>2025-01-25T11:50:31.000Z</time>
      </trkpt>
      <trkpt lat="43.74967" lon="7.07777">
        <ele>738.7</ele>
        <time>2025-01-25T11:50:34.000Z</time>
      </trkpt>
      <trkpt lat="43.74973" lon="7.07778">
        <ele>739.2</ele>
        <time>2025-01-25T11:50:38.000Z</time>
      </trkpt>
      <trkpt lat="43.74979" lon="7.0778">
        <ele>739.9</ele>
        <time>2025-01-25T11:50:44.000Z</time>
      </trkpt>
      <trkpt lat="43.74983" lon="7.0778">
        <ele>740.9</ele>
        <time>2025-01-25T11:50:51.000Z</time>
      </trkpt>
      <trkpt lat="43.74988" lon="7.07781">
        <ele>741.9</ele>
        <time>2025-01-25T11:50:59.000Z</time>
      </trkpt>
      <trkpt lat="43.74993" lon="7.0778">
        <ele>742.9</ele>
        <time>2025-01-25T11:51:06.000Z</time>
      </trkpt>
      <trkpt lat="43.74998" lon="7.07782">
        <ele>743.9</ele>
        <time>2025-01-25T11:51:12.000Z</time>
      </trkpt>
      <trkpt lat="43.75003" lon="7.07784">
        <ele>744.7</ele>
        <time>2025-01-25T11:51:18.000Z</time>
      </trkpt>
      <trkpt lat="43.75008" lon="7.07784">
        <ele>745.2</ele>
        <time>2025-01-25T11:51:23.000Z</time>
      </trkpt>
      <trkpt lat="43.75013" lon="7.07784">
        <ele>746.2</ele>
        <time>2025-01-25T11:51:34.000Z</time>
      </trkpt>
      <trkpt lat="43.75014" lon="7.07785">
        <ele>746.3</ele>
        <time>2025-01-25T11:51:35.000Z</time>
      </trkpt>
      <trkpt lat="43.75015" lon="7.07786">
        <ele>746.4</ele>
        <time>2025-01-25T11:51:36.000Z</time>
      </trkpt>
      <trkpt lat="43.75015" lon="7.07787">
        <ele>746.5</ele>
        <time>2025-01-25T11:51:37.000Z</time>
      </trkpt>
      <trkpt lat="43.75017" lon="7.07788">
        <ele>746.5</ele>
        <time>2025-01-25T11:51:38.000Z</time>
      </trkpt>
      <trkpt lat="43.75022" lon="7.07789">
        <ele>746.8</ele>
        <time>2025-01-25T11:51:41.000Z</time>
      </trkpt>
      <trkpt lat="43.75027" lon="7.07791">
        <ele>747.1</ele>
        <time>2025-01-25T11:51:45.000Z</time>
      </trkpt>
      <trkpt lat="43.75032" lon="7.07793">
        <ele>747.5</ele>
        <time>2025-01-25T11:51:49.000Z</time>
      </trkpt>
      <trkpt lat="43.75037" lon="7.07795">
        <ele>747.7</ele>
        <time>2025-01-25T11:51:52.000Z</time>
      </trkpt>
      <trkpt lat="43.75043" lon="7.07796">
        <ele>748.2</ele>
        <time>2025-01-25T11:51:56.000Z</time>
      </trkpt>
      <trkpt lat="43.75047" lon="7.07797">
        <ele>748.5</ele>
        <time>2025-01-25T11:51:59.000Z</time>
      </trkpt>
      <trkpt lat="43.75052" lon="7.07797">
        <ele>748.9</ele>
        <time>2025-01-25T11:52:03.000Z</time>
      </trkpt>
      <trkpt lat="43.75058" lon="7.07795">
        <ele>749.3</ele>
        <time>2025-01-25T11:52:07.000Z</time>
      </trkpt>
      <trkpt lat="43.75063" lon="7.07793">
        <ele>749.6</ele>
        <time>2025-01-25T11:52:11.000Z</time>
      </trkpt>
      <trkpt lat="43.75068" lon="7.07791">
        <ele>749.9</ele>
        <time>2025-01-25T11:52:15.000Z</time>
      </trkpt>
      <trkpt lat="43.75074" lon="7.07788">
        <ele>750.3</ele>
        <time>2025-01-25T11:52:20.000Z</time>
      </trkpt>
      <trkpt lat="43.75078" lon="7.07788">
        <ele>750.6</ele>
        <time>2025-01-25T11:52:23.000Z</time>
      </trkpt>
      <trkpt lat="43.75083" lon="7.07786">
        <ele>751.1</ele>
        <time>2025-01-25T11:52:27.000Z</time>
      </trkpt>
      <trkpt lat="43.75088" lon="7.07786">
        <ele>751.5</ele>
        <time>2025-01-25T11:52:30.000Z</time>
      </trkpt>
      <trkpt lat="43.75092" lon="7.07787">
        <ele>752.3</ele>
        <time>2025-01-25T11:52:34.000Z</time>
      </trkpt>
      <trkpt lat="43.75097" lon="7.07788">
        <ele>753.2</ele>
        <time>2025-01-25T11:52:39.000Z</time>
      </trkpt>
      <trkpt lat="43.75101" lon="7.07787">
        <ele>754.9</ele>
        <time>2025-01-25T11:52:51.000Z</time>
      </trkpt>
      <trkpt lat="43.75101" lon="7.07788">
        <ele>755</ele>
        <time>2025-01-25T11:52:52.000Z</time>
      </trkpt>
      <trkpt lat="43.75105" lon="7.07791">
        <ele>755.3</ele>
        <time>2025-01-25T11:53:05.000Z</time>
      </trkpt>
      <trkpt lat="43.75107" lon="7.07793">
        <ele>755.4</ele>
        <time>2025-01-25T11:53:18.000Z</time>
      </trkpt>
      <trkpt lat="43.75107" lon="7.07794">
        <ele>755.4</ele>
        <time>2025-01-25T11:53:19.000Z</time>
      </trkpt>
      <trkpt lat="43.75108" lon="7.07795">
        <ele>755.4</ele>
        <time>2025-01-25T11:53:20.000Z</time>
      </trkpt>
      <trkpt lat="43.7511" lon="7.07796">
        <ele>755.9</ele>
        <time>2025-01-25T11:53:28.000Z</time>
      </trkpt>
      <trkpt lat="43.7511" lon="7.07797">
        <ele>755.9</ele>
        <time>2025-01-25T11:53:29.000Z</time>
      </trkpt>
      <trkpt lat="43.7511" lon="7.07797">
        <ele>756</ele>
        <time>2025-01-25T11:53:30.000Z</time>
      </trkpt>
      <trkpt lat="43.75109" lon="7.07797">
        <ele>756</ele>
        <time>2025-01-25T11:53:31.000Z</time>
      </trkpt>
      <trkpt lat="43.75109" lon="7.07798">
        <ele>756.1</ele>
        <time>2025-01-25T11:53:32.000Z</time>
      </trkpt>
      <trkpt lat="43.75109" lon="7.07798">
        <ele>756.2</ele>
        <time>2025-01-25T11:53:33.000Z</time>
      </trkpt>
      <trkpt lat="43.75108" lon="7.07797">
        <ele>756.2</ele>
        <time>2025-01-25T11:53:34.000Z</time>
      </trkpt>
      <trkpt lat="43.75107" lon="7.07795">
        <ele>756.2</ele>
        <time>2025-01-25T11:53:35.000Z</time>
      </trkpt>
      <trkpt lat="43.75106" lon="7.07796">
        <ele>756.5</ele>
        <time>2025-01-25T11:53:46.000Z</time>
      </trkpt>
      <trkpt lat="43.75107" lon="7.07797">
        <ele>756.6</ele>
        <time>2025-01-25T11:53:47.000Z</time>
      </trkpt>
      <trkpt lat="43.7511" lon="7.07802">
        <ele>756.9</ele>
        <time>2025-01-25T11:53:51.000Z</time>
      </trkpt>
      <trkpt lat="43.75115" lon="7.07803">
        <ele>757.5</ele>
        <time>2025-01-25T11:53:56.000Z</time>
      </trkpt>
      <trkpt lat="43.7512" lon="7.07807">
        <ele>758.2</ele>
        <time>2025-01-25T11:54:00.000Z</time>
      </trkpt>
      <trkpt lat="43.75124" lon="7.07806">
        <ele>759.3</ele>
        <time>2025-01-25T11:54:05.000Z</time>
      </trkpt>
      <trkpt lat="43.75129" lon="7.07808">
        <ele>760.4</ele>
        <time>2025-01-25T11:54:11.000Z</time>
      </trkpt>
      <trkpt lat="43.75134" lon="7.07809">
        <ele>761.5</ele>
        <time>2025-01-25T11:54:17.000Z</time>
      </trkpt>
      <trkpt lat="43.75138" lon="7.0781">
        <ele>762.8</ele>
        <time>2025-01-25T11:54:24.000Z</time>
      </trkpt>
      <trkpt lat="43.75143" lon="7.07812">
        <ele>763.4</ele>
        <time>2025-01-25T11:54:28.000Z</time>
      </trkpt>
      <trkpt lat="43.75147" lon="7.07814">
        <ele>764.1</ele>
        <time>2025-01-25T11:54:33.000Z</time>
      </trkpt>
      <trkpt lat="43.75152" lon="7.07815">
        <ele>764.8</ele>
        <time>2025-01-25T11:54:38.000Z</time>
      </trkpt>
      <trkpt lat="43.75157" lon="7.07816">
        <ele>765.3</ele>
        <time>2025-01-25T11:54:43.000Z</time>
      </trkpt>
      <trkpt lat="43.75162" lon="7.07817">
        <ele>766</ele>
        <time>2025-01-25T11:54:49.000Z</time>
      </trkpt>
      <trkpt lat="43.75167" lon="7.07817">
        <ele>766.5</ele>
        <time>2025-01-25T11:54:53.000Z</time>
      </trkpt>
      <trkpt lat="43.75172" lon="7.07818">
        <ele>767.1</ele>
        <time>2025-01-25T11:54:58.000Z</time>
      </trkpt>
      <trkpt lat="43.75177" lon="7.07819">
        <ele>768.2</ele>
        <time>2025-01-25T11:55:06.000Z</time>
      </trkpt>
      <trkpt lat="43.75182" lon="7.0782">
        <ele>769.4</ele>
        <time>2025-01-25T11:55:14.000Z</time>
      </trkpt>
      <trkpt lat="43.75187" lon="7.07822">
        <ele>770.1</ele>
        <time>2025-01-25T11:55:19.000Z</time>
      </trkpt>
      <trkpt lat="43.75192" lon="7.07823">
        <ele>771.2</ele>
        <time>2025-01-25T11:55:27.000Z</time>
      </trkpt>
      <trkpt lat="43.75196" lon="7.07823">
        <ele>771.9</ele>
        <time>2025-01-25T11:55:32.000Z</time>
      </trkpt>
      <trkpt lat="43.75201" lon="7.07824">
        <ele>772.8</ele>
        <time>2025-01-25T11:55:38.000Z</time>
      </trkpt>
      <trkpt lat="43.75205" lon="7.07828">
        <ele>773.7</ele>
        <time>2025-01-25T11:55:44.000Z</time>
      </trkpt>
      <trkpt lat="43.75209" lon="7.07832">
        <ele>774.8</ele>
        <time>2025-01-25T11:55:53.000Z</time>
      </trkpt>
      <trkpt lat="43.75213" lon="7.07836">
        <ele>776</ele>
        <time>2025-01-25T11:56:02.000Z</time>
      </trkpt>
      <trkpt lat="43.75218" lon="7.07838">
        <ele>777</ele>
        <time>2025-01-25T11:56:10.000Z</time>
      </trkpt>
      <trkpt lat="43.75223" lon="7.07841">
        <ele>778.3</ele>
        <time>2025-01-25T11:56:19.000Z</time>
      </trkpt>
      <trkpt lat="43.75227" lon="7.07843">
        <ele>779.5</ele>
        <time>2025-01-25T11:56:28.000Z</time>
      </trkpt>
      <trkpt lat="43.75232" lon="7.07846">
        <ele>780.2</ele>
        <time>2025-01-25T11:56:34.000Z</time>
      </trkpt>
      <trkpt lat="43.75236" lon="7.07849">
        <ele>780.8</ele>
        <time>2025-01-25T11:56:39.000Z</time>
      </trkpt>
      <trkpt lat="43.7524" lon="7.07853">
        <ele>781.6</ele>
        <time>2025-01-25T11:56:45.000Z</time>
      </trkpt>
      <trkpt lat="43.75238" lon="7.07859">
        <ele>783.3</ele>
        <time>2025-01-25T11:56:58.000Z</time>
      </trkpt>
      <trkpt lat="43.75234" lon="7.0786">
        <ele>784.5</ele>
        <time>2025-01-25T11:57:06.000Z</time>
      </trkpt>
      <trkpt lat="43.75231" lon="7.07867">
        <ele>785.9</ele>
        <time>2025-01-25T11:57:17.000Z</time>
      </trkpt>
      <trkpt lat="43.75229" lon="7.07873">
        <ele>786.3</ele>
        <time>2025-01-25T11:57:22.000Z</time>
      </trkpt>
      <trkpt lat="43.75224" lon="7.07878">
        <ele>787.2</ele>
        <time>2025-01-25T11:57:27.000Z</time>
      </trkpt>
      <trkpt lat="43.75222" lon="7.07884">
        <ele>787.9</ele>
        <time>2025-01-25T11:57:32.000Z</time>
      </trkpt>
      <trkpt lat="43.75219" lon="7.0789">
        <ele>788.5</ele>
        <time>2025-01-25T11:57:38.000Z</time>
      </trkpt>
      <trkpt lat="43.75218" lon="7.07897">
        <ele>789.2</ele>
        <time>2025-01-25T11:57:44.000Z</time>
      </trkpt>
      <trkpt lat="43.75216" lon="7.07903">
        <ele>789.6</ele>
        <time>2025-01-25T11:57:48.000Z</time>
      </trkpt>
      <trkpt lat="43.75213" lon="7.07909">
        <ele>789.9</ele>
        <time>2025-01-25T11:57:52.000Z</time>
      </trkpt>
      <trkpt lat="43.75211" lon="7.07915">
        <ele>790.2</ele>
        <time>2025-01-25T11:57:56.000Z</time>
      </trkpt>
      <trkpt lat="43.75208" lon="7.07921">
        <ele>790.7</ele>
        <time>2025-01-25T11:58:02.000Z</time>
      </trkpt>
      <trkpt lat="43.75205" lon="7.07926">
        <ele>791.2</ele>
        <time>2025-01-25T11:58:08.000Z</time>
      </trkpt>
      <trkpt lat="43.752" lon="7.0793">
        <ele>791.8</ele>
        <time>2025-01-25T11:58:13.000Z</time>
      </trkpt>
      <trkpt lat="43.75196" lon="7.07933">
        <ele>792.3</ele>
        <time>2025-01-25T11:58:17.000Z</time>
      </trkpt>
      <trkpt lat="43.75192" lon="7.07937">
        <ele>792.6</ele>
        <time>2025-01-25T11:58:21.000Z</time>
      </trkpt>
      <trkpt lat="43.75189" lon="7.07943">
        <ele>793</ele>
        <time>2025-01-25T11:58:26.000Z</time>
      </trkpt>
      <trkpt lat="43.75188" lon="7.0795">
        <ele>793.4</ele>
        <time>2025-01-25T11:58:31.000Z</time>
      </trkpt>
      <trkpt lat="43.75188" lon="7.07957">
        <ele>794.1</ele>
        <time>2025-01-25T11:58:36.000Z</time>
      </trkpt>
      <trkpt lat="43.75192" lon="7.07961">
        <ele>795.7</ele>
        <time>2025-01-25T11:58:51.000Z</time>
      </trkpt>
      <trkpt lat="43.75197" lon="7.07962">
        <ele>796.5</ele>
        <time>2025-01-25T11:58:57.000Z</time>
      </trkpt>
      <trkpt lat="43.75202" lon="7.07961">
        <ele>797.7</ele>
        <time>2025-01-25T11:59:04.000Z</time>
      </trkpt>
      <trkpt lat="43.75206" lon="7.07962">
        <ele>798.5</ele>
        <time>2025-01-25T11:59:09.000Z</time>
      </trkpt>
      <trkpt lat="43.75211" lon="7.07961">
        <ele>800</ele>
        <time>2025-01-25T11:59:17.000Z</time>
      </trkpt>
      <trkpt lat="43.75216" lon="7.07961">
        <ele>800.7</ele>
        <time>2025-01-25T11:59:22.000Z</time>
      </trkpt>
      <trkpt lat="43.75221" lon="7.0796">
        <ele>801.3</ele>
        <time>2025-01-25T11:59:30.000Z</time>
      </trkpt>
      <trkpt lat="43.75226" lon="7.07961">
        <ele>801.8</ele>
        <time>2025-01-25T11:59:36.000Z</time>
      </trkpt>
      <trkpt lat="43.7523" lon="7.07963">
        <ele>802.4</ele>
        <time>2025-01-25T11:59:41.000Z</time>
      </trkpt>
      <trkpt lat="43.75234" lon="7.07968">
        <ele>803.6</ele>
        <time>2025-01-25T11:59:47.000Z</time>
      </trkpt>
      <trkpt lat="43.75239" lon="7.07972">
        <ele>804.4</ele>
        <time>2025-01-25T11:59:52.000Z</time>
      </trkpt>
      <trkpt lat="43.75243" lon="7.07976">
        <ele>805.7</ele>
        <time>2025-01-25T12:00:00.000Z</time>
      </trkpt>
      <trkpt lat="43.75244" lon="7.07975">
        <ele>807.1</ele>
        <time>2025-01-25T12:00:14.000Z</time>
      </trkpt>
      <trkpt lat="43.75244" lon="7.07975">
        <ele>807.2</ele>
        <time>2025-01-25T12:00:15.000Z</time>
      </trkpt>
      <trkpt lat="43.75244" lon="7.07976">
        <ele>807.2</ele>
        <time>2025-01-25T12:00:17.000Z</time>
      </trkpt>
      <trkpt lat="43.75248" lon="7.07981">
        <ele>807.5</ele>
        <time>2025-01-25T12:00:22.000Z</time>
      </trkpt>
      <trkpt lat="43.75251" lon="7.07986">
        <ele>807.7</ele>
        <time>2025-01-25T12:00:26.000Z</time>
      </trkpt>
      <trkpt lat="43.75254" lon="7.07991">
        <ele>808.3</ele>
        <time>2025-01-25T12:00:30.000Z</time>
      </trkpt>
      <trkpt lat="43.75258" lon="7.07995">
        <ele>808.8</ele>
        <time>2025-01-25T12:00:34.000Z</time>
      </trkpt>
      <trkpt lat="43.75263" lon="7.07998">
        <ele>809.5</ele>
        <time>2025-01-25T12:00:39.000Z</time>
      </trkpt>
      <trkpt lat="43.75268" lon="7.08002">
        <ele>810.1</ele>
        <time>2025-01-25T12:00:43.000Z</time>
      </trkpt>
      <trkpt lat="43.75271" lon="7.08007">
        <ele>810.6</ele>
        <time>2025-01-25T12:00:47.000Z</time>
      </trkpt>
      <trkpt lat="43.75274" lon="7.08012">
        <ele>811.2</ele>
        <time>2025-01-25T12:00:51.000Z</time>
      </trkpt>
      <trkpt lat="43.75276" lon="7.08019">
        <ele>812</ele>
        <time>2025-01-25T12:00:56.000Z</time>
      </trkpt>
      <trkpt lat="43.75278" lon="7.08025">
        <ele>812.9</ele>
        <time>2025-01-25T12:01:01.000Z</time>
      </trkpt>
      <trkpt lat="43.75276" lon="7.08033">
        <ele>813.8</ele>
        <time>2025-01-25T12:01:06.000Z</time>
      </trkpt>
      <trkpt lat="43.75274" lon="7.08038">
        <ele>814.5</ele>
        <time>2025-01-25T12:01:11.000Z</time>
      </trkpt>
      <trkpt lat="43.75274" lon="7.08046">
        <ele>815.1</ele>
        <time>2025-01-25T12:01:15.000Z</time>
      </trkpt>
      <trkpt lat="43.75272" lon="7.08053">
        <ele>815.5</ele>
        <time>2025-01-25T12:01:19.000Z</time>
      </trkpt>
      <trkpt lat="43.75272" lon="7.0806">
        <ele>815.9</ele>
        <time>2025-01-25T12:01:23.000Z</time>
      </trkpt>
      <trkpt lat="43.75271" lon="7.08067">
        <ele>816.3</ele>
        <time>2025-01-25T12:01:27.000Z</time>
      </trkpt>
      <trkpt lat="43.75275" lon="7.08072">
        <ele>816.7</ele>
        <time>2025-01-25T12:01:31.000Z</time>
      </trkpt>
      <trkpt lat="43.7528" lon="7.08072">
        <ele>817</ele>
        <time>2025-01-25T12:01:34.000Z</time>
      </trkpt>
      <trkpt lat="43.75285" lon="7.08073">
        <ele>817.2</ele>
        <time>2025-01-25T12:01:38.000Z</time>
      </trkpt>
      <trkpt lat="43.7529" lon="7.08074">
        <ele>817.5</ele>
        <time>2025-01-25T12:01:41.000Z</time>
      </trkpt>
      <trkpt lat="43.75294" lon="7.08076">
        <ele>817.8</ele>
        <time>2025-01-25T12:01:44.000Z</time>
      </trkpt>
      <trkpt lat="43.75299" lon="7.08077">
        <ele>818.2</ele>
        <time>2025-01-25T12:01:48.000Z</time>
      </trkpt>
      <trkpt lat="43.75304" lon="7.08077">
        <ele>818.9</ele>
        <time>2025-01-25T12:01:53.000Z</time>
      </trkpt>
      <trkpt lat="43.75309" lon="7.08079">
        <ele>819.5</ele>
        <time>2025-01-25T12:01:57.000Z</time>
      </trkpt>
      <trkpt lat="43.75314" lon="7.08082">
        <ele>820.6</ele>
        <time>2025-01-25T12:02:04.000Z</time>
      </trkpt>
      <trkpt lat="43.75318" lon="7.08086">
        <ele>821.5</ele>
        <time>2025-01-25T12:02:10.000Z</time>
      </trkpt>
      <trkpt lat="43.75323" lon="7.08087">
        <ele>822.3</ele>
        <time>2025-01-25T12:02:15.000Z</time>
      </trkpt>
      <trkpt lat="43.75328" lon="7.08088">
        <ele>823.3</ele>
        <time>2025-01-25T12:02:22.000Z</time>
      </trkpt>
      <trkpt lat="43.75333" lon="7.08089">
        <ele>823.8</ele>
        <time>2025-01-25T12:02:26.000Z</time>
      </trkpt>
      <trkpt lat="43.75337" lon="7.08091">
        <ele>824.5</ele>
        <time>2025-01-25T12:02:31.000Z</time>
      </trkpt>
      <trkpt lat="43.75341" lon="7.08096">
        <ele>825.3</ele>
        <time>2025-01-25T12:02:37.000Z</time>
      </trkpt>
      <trkpt lat="43.75344" lon="7.08097">
        <ele>826.5</ele>
        <time>2025-01-25T12:02:49.000Z</time>
      </trkpt>
      <trkpt lat="43.75345" lon="7.08096">
        <ele>826.6</ele>
        <time>2025-01-25T12:02:50.000Z</time>
      </trkpt>
      <trkpt lat="43.75344" lon="7.08097">
        <ele>826.8</ele>
        <time>2025-01-25T12:02:55.000Z</time>
      </trkpt>
      <trkpt lat="43.75345" lon="7.08098">
        <ele>826.9</ele>
        <time>2025-01-25T12:02:56.000Z</time>
      </trkpt>
      <trkpt lat="43.75345" lon="7.08099">
        <ele>826.9</ele>
        <time>2025-01-25T12:02:57.000Z</time>
      </trkpt>
      <trkpt lat="43.75349" lon="7.08104">
        <ele>827.2</ele>
        <time>2025-01-25T12:03:02.000Z</time>
      </trkpt>
      <trkpt lat="43.75353" lon="7.08108">
        <ele>827.5</ele>
        <time>2025-01-25T12:03:06.000Z</time>
      </trkpt>
      <trkpt lat="43.75356" lon="7.08113">
        <ele>828</ele>
        <time>2025-01-25T12:03:11.000Z</time>
      </trkpt>
      <trkpt lat="43.75361" lon="7.08115">
        <ele>829</ele>
        <time>2025-01-25T12:03:18.000Z</time>
      </trkpt>
      <trkpt lat="43.75366" lon="7.08114">
        <ele>829.8</ele>
        <time>2025-01-25T12:03:24.000Z</time>
      </trkpt>
      <trkpt lat="43.7537" lon="7.08115">
        <ele>831.1</ele>
        <time>2025-01-25T12:03:34.000Z</time>
      </trkpt>
      <trkpt lat="43.75369" lon="7.08115">
        <ele>831.2</ele>
        <time>2025-01-25T12:03:35.000Z</time>
      </trkpt>
      <trkpt lat="43.75369" lon="7.08115">
        <ele>831.4</ele>
        <time>2025-01-25T12:03:40.000Z</time>
      </trkpt>
      <trkpt lat="43.75369" lon="7.08122">
        <ele>831.8</ele>
        <time>2025-01-25T12:03:47.000Z</time>
      </trkpt>
      <trkpt lat="43.75372" lon="7.08127">
        <ele>832.3</ele>
        <time>2025-01-25T12:03:53.000Z</time>
      </trkpt>
      <trkpt lat="43.75376" lon="7.08132">
        <ele>833</ele>
        <time>2025-01-25T12:04:02.000Z</time>
      </trkpt>
      <trkpt lat="43.7538" lon="7.08137">
        <ele>833.2</ele>
        <time>2025-01-25T12:04:06.000Z</time>
      </trkpt>
      <trkpt lat="43.75385" lon="7.0814">
        <ele>833.5</ele>
        <time>2025-01-25T12:04:11.000Z</time>
      </trkpt>
      <trkpt lat="43.7539" lon="7.08143">
        <ele>834</ele>
        <time>2025-01-25T12:04:16.000Z</time>
      </trkpt>
      <trkpt lat="43.75394" lon="7.08145">
        <ele>834.5</ele>
        <time>2025-01-25T12:04:19.000Z</time>
      </trkpt>
      <trkpt lat="43.75399" lon="7.08146">
        <ele>835.1</ele>
        <time>2025-01-25T12:04:22.000Z</time>
      </trkpt>
      <trkpt lat="43.75403" lon="7.08148">
        <ele>836</ele>
        <time>2025-01-25T12:04:26.000Z</time>
      </trkpt>
      <trkpt lat="43.75407" lon="7.08152">
        <ele>836.6</ele>
        <time>2025-01-25T12:04:30.000Z</time>
      </trkpt>
      <trkpt lat="43.75412" lon="7.08155">
        <ele>837.2</ele>
        <time>2025-01-25T12:04:35.000Z</time>
      </trkpt>
      <trkpt lat="43.75416" lon="7.08159">
        <ele>837.8</ele>
        <time>2025-01-25T12:04:39.000Z</time>
      </trkpt>
      <trkpt lat="43.75421" lon="7.08162">
        <ele>838.4</ele>
        <time>2025-01-25T12:04:43.000Z</time>
      </trkpt>
      <trkpt lat="43.75426" lon="7.08166">
        <ele>839.1</ele>
        <time>2025-01-25T12:04:48.000Z</time>
      </trkpt>
      <trkpt lat="43.7543" lon="7.0817">
        <ele>839.5</ele>
        <time>2025-01-25T12:04:52.000Z</time>
      </trkpt>
      <trkpt lat="43.75435" lon="7.08172">
        <ele>839.9</ele>
        <time>2025-01-25T12:04:56.000Z</time>
      </trkpt>
      <trkpt lat="43.75439" lon="7.08174">
        <ele>840.5</ele>
        <time>2025-01-25T12:05:01.000Z</time>
      </trkpt>
      <trkpt lat="43.75444" lon="7.08178">
        <ele>841.3</ele>
        <time>2025-01-25T12:05:07.000Z</time>
      </trkpt>
      <trkpt lat="43.75448" lon="7.08181">
        <ele>842.3</ele>
        <time>2025-01-25T12:05:13.000Z</time>
      </trkpt>
      <trkpt lat="43.75453" lon="7.08181">
        <ele>842.7</ele>
        <time>2025-01-25T12:05:17.000Z</time>
      </trkpt>
      <trkpt lat="43.75458" lon="7.08184">
        <ele>843.3</ele>
        <time>2025-01-25T12:05:22.000Z</time>
      </trkpt>
      <trkpt lat="43.75463" lon="7.08186">
        <ele>843.8</ele>
        <time>2025-01-25T12:05:27.000Z</time>
      </trkpt>
      <trkpt lat="43.75468" lon="7.08186">
        <ele>844.2</ele>
        <time>2025-01-25T12:05:31.000Z</time>
      </trkpt>
      <trkpt lat="43.75473" lon="7.08184">
        <ele>844.7</ele>
        <time>2025-01-25T12:05:35.000Z</time>
      </trkpt>
      <trkpt lat="43.75479" lon="7.08181">
        <ele>845.3</ele>
        <time>2025-01-25T12:05:40.000Z</time>
      </trkpt>
      <trkpt lat="43.75483" lon="7.08179">
        <ele>846</ele>
        <time>2025-01-25T12:05:45.000Z</time>
      </trkpt>
      <trkpt lat="43.75489" lon="7.08176">
        <ele>846.7</ele>
        <time>2025-01-25T12:05:51.000Z</time>
      </trkpt>
      <trkpt lat="43.75494" lon="7.08175">
        <ele>847.5</ele>
        <time>2025-01-25T12:05:56.000Z</time>
      </trkpt>
      <trkpt lat="43.75498" lon="7.08173">
        <ele>848.3</ele>
        <time>2025-01-25T12:06:02.000Z</time>
      </trkpt>
      <trkpt lat="43.75503" lon="7.08173">
        <ele>849.1</ele>
        <time>2025-01-25T12:06:08.000Z</time>
      </trkpt>
      <trkpt lat="43.75502" lon="7.08173">
        <ele>849.8</ele>
        <time>2025-01-25T12:06:16.000Z</time>
      </trkpt>
      <trkpt lat="43.75503" lon="7.08172">
        <ele>849.8</ele>
        <time>2025-01-25T12:06:17.000Z</time>
      </trkpt>
      <trkpt lat="43.75499" lon="7.08175">
        <ele>850.1</ele>
        <time>2025-01-25T12:06:32.000Z</time>
      </trkpt>
      <trkpt lat="43.75497" lon="7.08174">
        <ele>850.1</ele>
        <time>2025-01-25T12:06:43.000Z</time>
      </trkpt>
      <trkpt lat="43.75498" lon="7.08173">
        <ele>850.1</ele>
        <time>2025-01-25T12:06:44.000Z</time>
      </trkpt>
      <trkpt lat="43.75498" lon="7.08173">
        <ele>850.1</ele>
        <time>2025-01-25T12:06:45.000Z</time>
      </trkpt>
      <trkpt lat="43.75504" lon="7.08173">
        <ele>850.2</ele>
        <time>2025-01-25T12:06:54.000Z</time>
      </trkpt>
      <trkpt lat="43.75508" lon="7.08172">
        <ele>850.2</ele>
        <time>2025-01-25T12:06:57.000Z</time>
      </trkpt>
      <trkpt lat="43.75513" lon="7.08173">
        <ele>850.3</ele>
        <time>2025-01-25T12:07:00.000Z</time>
      </trkpt>
      <trkpt lat="43.75518" lon="7.08175">
        <ele>850.6</ele>
        <time>2025-01-25T12:07:04.000Z</time>
      </trkpt>
      <trkpt lat="43.75524" lon="7.08177">
        <ele>851.3</ele>
        <time>2025-01-25T12:07:09.000Z</time>
      </trkpt>
      <trkpt lat="43.75529" lon="7.08177">
        <ele>851.9</ele>
        <time>2025-01-25T12:07:12.000Z</time>
      </trkpt>
      <trkpt lat="43.75534" lon="7.08177">
        <ele>852.6</ele>
        <time>2025-01-25T12:07:16.000Z</time>
      </trkpt>
      <trkpt lat="43.75538" lon="7.08174">
        <ele>853.2</ele>
        <time>2025-01-25T12:07:20.000Z</time>
      </trkpt>
      <trkpt lat="43.75543" lon="7.08173">
        <ele>853.9</ele>
        <time>2025-01-25T12:07:24.000Z</time>
      </trkpt>
      <trkpt lat="43.75547" lon="7.08175">
        <ele>854.3</ele>
        <time>2025-01-25T12:07:26.000Z</time>
      </trkpt>
      <trkpt lat="43.75552" lon="7.08174">
        <ele>854.9</ele>
        <time>2025-01-25T12:07:30.000Z</time>
      </trkpt>
      <trkpt lat="43.75558" lon="7.08174">
        <ele>855.6</ele>
        <time>2025-01-25T12:07:35.000Z</time>
      </trkpt>
      <trkpt lat="43.75563" lon="7.08174">
        <ele>856.1</ele>
        <time>2025-01-25T12:07:39.000Z</time>
      </trkpt>
      <trkpt lat="43.75568" lon="7.08173">
        <ele>856.5</ele>
        <time>2025-01-25T12:07:43.000Z</time>
      </trkpt>
      <trkpt lat="43.75572" lon="7.08174">
        <ele>857.3</ele>
        <time>2025-01-25T12:07:50.000Z</time>
      </trkpt>
      <trkpt lat="43.75574" lon="7.08173">
        <ele>857.5</ele>
        <time>2025-01-25T12:07:54.000Z</time>
      </trkpt>
      <trkpt lat="43.75574" lon="7.08173">
        <ele>857.6</ele>
        <time>2025-01-25T12:07:55.000Z</time>
      </trkpt>
      <trkpt lat="43.75573" lon="7.08173">
        <ele>857.6</ele>
        <time>2025-01-25T12:07:59.000Z</time>
      </trkpt>
      <trkpt lat="43.75573" lon="7.08172">
        <ele>857.7</ele>
        <time>2025-01-25T12:08:00.000Z</time>
      </trkpt>
      <trkpt lat="43.75573" lon="7.08172">
        <ele>857.7</ele>
        <time>2025-01-25T12:08:01.000Z</time>
      </trkpt>
      <trkpt lat="43.75573" lon="7.08172">
        <ele>857.7</ele>
        <time>2025-01-25T12:08:02.000Z</time>
      </trkpt>
      <trkpt lat="43.75574" lon="7.08172">
        <ele>857.7</ele>
        <time>2025-01-25T12:08:03.000Z</time>
      </trkpt>
      <trkpt lat="43.75575" lon="7.08172">
        <ele>857.8</ele>
        <time>2025-01-25T12:08:04.000Z</time>
      </trkpt>
      <trkpt lat="43.75576" lon="7.08172">
        <ele>857.8</ele>
        <time>2025-01-25T12:08:05.000Z</time>
      </trkpt>
      <trkpt lat="43.75581" lon="7.08171">
        <ele>858</ele>
        <time>2025-01-25T12:08:10.000Z</time>
      </trkpt>
      <trkpt lat="43.75585" lon="7.08168">
        <ele>858.5</ele>
        <time>2025-01-25T12:08:16.000Z</time>
      </trkpt>
      <trkpt lat="43.7559" lon="7.08167">
        <ele>859.4</ele>
        <time>2025-01-25T12:08:23.000Z</time>
      </trkpt>
      <trkpt lat="43.75594" lon="7.08168">
        <ele>860</ele>
        <time>2025-01-25T12:08:27.000Z</time>
      </trkpt>
      <trkpt lat="43.75599" lon="7.08169">
        <ele>860.4</ele>
        <time>2025-01-25T12:08:31.000Z</time>
      </trkpt>
      <trkpt lat="43.75604" lon="7.08171">
        <ele>861.2</ele>
        <time>2025-01-25T12:08:35.000Z</time>
      </trkpt>
      <trkpt lat="43.75609" lon="7.0817">
        <ele>861.8</ele>
        <time>2025-01-25T12:08:39.000Z</time>
      </trkpt>
      <trkpt lat="43.75614" lon="7.0817">
        <ele>862.1</ele>
        <time>2025-01-25T12:08:43.000Z</time>
      </trkpt>
      <trkpt lat="43.75619" lon="7.08171">
        <ele>862.6</ele>
        <time>2025-01-25T12:08:47.000Z</time>
      </trkpt>
      <trkpt lat="43.75623" lon="7.08169">
        <ele>863.1</ele>
        <time>2025-01-25T12:08:52.000Z</time>
      </trkpt>
      <trkpt lat="43.75628" lon="7.08169">
        <ele>863.8</ele>
        <time>2025-01-25T12:08:57.000Z</time>
      </trkpt>
      <trkpt lat="43.75633" lon="7.08171">
        <ele>864.5</ele>
        <time>2025-01-25T12:09:02.000Z</time>
      </trkpt>
      <trkpt lat="43.75638" lon="7.08171">
        <ele>864.9</ele>
        <time>2025-01-25T12:09:05.000Z</time>
      </trkpt>
      <trkpt lat="43.75643" lon="7.08171">
        <ele>865.7</ele>
        <time>2025-01-25T12:09:11.000Z</time>
      </trkpt>
      <trkpt lat="43.75648" lon="7.08172">
        <ele>866.2</ele>
        <time>2025-01-25T12:09:16.000Z</time>
      </trkpt>
      <trkpt lat="43.75653" lon="7.08172">
        <ele>866.5</ele>
        <time>2025-01-25T12:09:20.000Z</time>
      </trkpt>
      <trkpt lat="43.75659" lon="7.08173">
        <ele>867.2</ele>
        <time>2025-01-25T12:09:25.000Z</time>
      </trkpt>
      <trkpt lat="43.75664" lon="7.08173">
        <ele>867.6</ele>
        <time>2025-01-25T12:09:29.000Z</time>
      </trkpt>
      <trkpt lat="43.75669" lon="7.08174">
        <ele>868.4</ele>
        <time>2025-01-25T12:09:41.000Z</time>
      </trkpt>
      <trkpt lat="43.75673" lon="7.08176">
        <ele>868.6</ele>
        <time>2025-01-25T12:09:45.000Z</time>
      </trkpt>
      <trkpt lat="43.75678" lon="7.08175">
        <ele>869</ele>
        <time>2025-01-25T12:09:49.000Z</time>
      </trkpt>
      <trkpt lat="43.75683" lon="7.08174">
        <ele>869.6</ele>
        <time>2025-01-25T12:09:54.000Z</time>
      </trkpt>
      <trkpt lat="43.75688" lon="7.08173">
        <ele>870.2</ele>
        <time>2025-01-25T12:09:59.000Z</time>
      </trkpt>
      <trkpt lat="43.75692" lon="7.0817">
        <ele>870.6</ele>
        <time>2025-01-25T12:10:02.000Z</time>
      </trkpt>
      <trkpt lat="43.75697" lon="7.08168">
        <ele>871.3</ele>
        <time>2025-01-25T12:10:07.000Z</time>
      </trkpt>
      <trkpt lat="43.75701" lon="7.08168">
        <ele>871.9</ele>
        <time>2025-01-25T12:10:11.000Z</time>
      </trkpt>
      <trkpt lat="43.75707" lon="7.08169">
        <ele>872.6</ele>
        <time>2025-01-25T12:10:16.000Z</time>
      </trkpt>
      <trkpt lat="43.75711" lon="7.08165">
        <ele>873.3</ele>
        <time>2025-01-25T12:10:21.000Z</time>
      </trkpt>
      <trkpt lat="43.75716" lon="7.08164">
        <ele>873.9</ele>
        <time>2025-01-25T12:10:25.000Z</time>
      </trkpt>
      <trkpt lat="43.75721" lon="7.08164">
        <ele>874.7</ele>
        <time>2025-01-25T12:10:31.000Z</time>
      </trkpt>
      <trkpt lat="43.75726" lon="7.08162">
        <ele>875.7</ele>
        <time>2025-01-25T12:10:37.000Z</time>
      </trkpt>
      <trkpt lat="43.75728" lon="7.08163">
        <ele>876.2</ele>
        <time>2025-01-25T12:10:43.000Z</time>
      </trkpt>
      <trkpt lat="43.75728" lon="7.08163">
        <ele>876.3</ele>
        <time>2025-01-25T12:10:44.000Z</time>
      </trkpt>
      <trkpt lat="43.75729" lon="7.08163">
        <ele>876.5</ele>
        <time>2025-01-25T12:10:51.000Z</time>
      </trkpt>
      <trkpt lat="43.75729" lon="7.08163">
        <ele>876.6</ele>
        <time>2025-01-25T12:10:52.000Z</time>
      </trkpt>
      <trkpt lat="43.75733" lon="7.08158">
        <ele>877.3</ele>
        <time>2025-01-25T12:10:59.000Z</time>
      </trkpt>
      <trkpt lat="43.75729" lon="7.08153">
        <ele>877.7</ele>
        <time>2025-01-25T12:11:03.000Z</time>
      </trkpt>
      <trkpt lat="43.75726" lon="7.08147">
        <ele>878.2</ele>
        <time>2025-01-25T12:11:08.000Z</time>
      </trkpt>
      <trkpt lat="43.75722" lon="7.08142">
        <ele>879</ele>
        <time>2025-01-25T12:11:12.000Z</time>
      </trkpt>
      <trkpt lat="43.75718" lon="7.08137">
        <ele>879.9</ele>
        <time>2025-01-25T12:11:18.000Z</time>
      </trkpt>
      <trkpt lat="43.75715" lon="7.08132">
        <ele>880.5</ele>
        <time>2025-01-25T12:11:22.000Z</time>
      </trkpt>
      <trkpt lat="43.75711" lon="7.08127">
        <ele>880.9</ele>
        <time>2025-01-25T12:11:26.000Z</time>
      </trkpt>
      <trkpt lat="43.75708" lon="7.08122">
        <ele>881.5</ele>
        <time>2025-01-25T12:11:31.000Z</time>
      </trkpt>
      <trkpt lat="43.75707" lon="7.08115">
        <ele>882.3</ele>
        <time>2025-01-25T12:11:36.000Z</time>
      </trkpt>
      <trkpt lat="43.75707" lon="7.08109">
        <ele>883.4</ele>
        <time>2025-01-25T12:11:43.000Z</time>
      </trkpt>
      <trkpt lat="43.75713" lon="7.08109">
        <ele>883.9</ele>
        <time>2025-01-25T12:11:47.000Z</time>
      </trkpt>
      <trkpt lat="43.75718" lon="7.0811">
        <ele>884.5</ele>
        <time>2025-01-25T12:11:52.000Z</time>
      </trkpt>
      <trkpt lat="43.75723" lon="7.0811">
        <ele>884.8</ele>
        <time>2025-01-25T12:11:55.000Z</time>
      </trkpt>
      <trkpt lat="43.75728" lon="7.08111">
        <ele>885.4</ele>
        <time>2025-01-25T12:11:59.000Z</time>
      </trkpt>
      <trkpt lat="43.75733" lon="7.0811">
        <ele>886.4</ele>
        <time>2025-01-25T12:12:06.000Z</time>
      </trkpt>
      <trkpt lat="43.75737" lon="7.08107">
        <ele>886.8</ele>
        <time>2025-01-25T12:12:10.000Z</time>
      </trkpt>
      <trkpt lat="43.75741" lon="7.08105">
        <ele>887.3</ele>
        <time>2025-01-25T12:12:16.000Z</time>
      </trkpt>
      <trkpt lat="43.75746" lon="7.08103">
        <ele>888</ele>
        <time>2025-01-25T12:12:22.000Z</time>
      </trkpt>
      <trkpt lat="43.75748" lon="7.08097">
        <ele>890.1</ele>
        <time>2025-01-25T12:12:37.000Z</time>
      </trkpt>
      <trkpt lat="43.75747" lon="7.08096">
        <ele>890.3</ele>
        <time>2025-01-25T12:12:43.000Z</time>
      </trkpt>
      <trkpt lat="43.75747" lon="7.08096">
        <ele>890.3</ele>
        <time>2025-01-25T12:12:44.000Z</time>
      </trkpt>
      <trkpt lat="43.75748" lon="7.08095">
        <ele>890.6</ele>
        <time>2025-01-25T12:36:06.000Z</time>
      </trkpt>
      <trkpt lat="43.75748" lon="7.08095">
        <ele>890.6</ele>
        <time>2025-01-25T12:36:07.000Z</time>
      </trkpt>
      <trkpt lat="43.75748" lon="7.08095">
        <ele>890.6</ele>
        <time>2025-01-25T12:36:08.000Z</time>
      </trkpt>
      <trkpt lat="43.75748" lon="7.08095">
        <ele>890.6</ele>
        <time>2025-01-25T12:36:09.000Z</time>
      </trkpt>
      <trkpt lat="43.75748" lon="7.08095">
        <ele>890.6</ele>
        <time>2025-01-25T12:36:10.000Z</time>
      </trkpt>
      <trkpt lat="43.75749" lon="7.08094">
        <ele>890.9</ele>
        <time>2025-01-25T12:36:32.000Z</time>
      </trkpt>
      <trkpt lat="43.75749" lon="7.08093">
        <ele>890.9</ele>
        <time>2025-01-25T12:36:33.000Z</time>
      </trkpt>
      <trkpt lat="43.75748" lon="7.08094">
        <ele>891.4</ele>
        <time>2025-01-25T12:36:45.000Z</time>
      </trkpt>
      <trkpt lat="43.75748" lon="7.08094">
        <ele>891.4</ele>
        <time>2025-01-25T12:36:46.000Z</time>
      </trkpt>
      <trkpt lat="43.75748" lon="7.08093">
        <ele>891.5</ele>
        <time>2025-01-25T12:36:47.000Z</time>
      </trkpt>
      <trkpt lat="43.75752" lon="7.0809">
        <ele>892.4</ele>
        <time>2025-01-25T12:36:58.000Z</time>
      </trkpt>
      <trkpt lat="43.75755" lon="7.08085">
        <ele>893.2</ele>
        <time>2025-01-25T12:37:03.000Z</time>
      </trkpt>
      <trkpt lat="43.75756" lon="7.08077">
        <ele>893.6</ele>
        <time>2025-01-25T12:37:06.000Z</time>
      </trkpt>
      <trkpt lat="43.75753" lon="7.08073">
        <ele>894.2</ele>
        <time>2025-01-25T12:37:12.000Z</time>
      </trkpt>
      <trkpt lat="43.75748" lon="7.08068">
        <ele>894.6</ele>
        <time>2025-01-25T12:37:17.000Z</time>
      </trkpt>
      <trkpt lat="43.75743" lon="7.08063">
        <ele>894.8</ele>
        <time>2025-01-25T12:37:20.000Z</time>
      </trkpt>
      <trkpt lat="43.75739" lon="7.08059">
        <ele>895.1</ele>
        <time>2025-01-25T12:37:23.000Z</time>
      </trkpt>
      <trkpt lat="43.75734" lon="7.08055">
        <ele>895.5</ele>
        <time>2025-01-25T12:37:26.000Z</time>
      </trkpt>
      <trkpt lat="43.75729" lon="7.08053">
        <ele>896</ele>
        <time>2025-01-25T12:37:29.000Z</time>
      </trkpt>
      <trkpt lat="43.75724" lon="7.0805">
        <ele>896.4</ele>
        <time>2025-01-25T12:37:32.000Z</time>
      </trkpt>
      <trkpt lat="43.75719" lon="7.08047">
        <ele>896.8</ele>
        <time>2025-01-25T12:37:35.000Z</time>
      </trkpt>
      <trkpt lat="43.75714" lon="7.08043">
        <ele>897.2</ele>
        <time>2025-01-25T12:37:38.000Z</time>
      </trkpt>
      <trkpt lat="43.7571" lon="7.08039">
        <ele>897.5</ele>
        <time>2025-01-25T12:37:41.000Z</time>
      </trkpt>
      <trkpt lat="43.75706" lon="7.08036">
        <ele>897.9</ele>
        <time>2025-01-25T12:37:44.000Z</time>
      </trkpt>
      <trkpt lat="43.75702" lon="7.08029">
        <ele>898.4</ele>
        <time>2025-01-25T12:37:48.000Z</time>
      </trkpt>
      <trkpt lat="43.75696" lon="7.08025">
        <ele>898.8</ele>
        <time>2025-01-25T12:37:51.000Z</time>
      </trkpt>
      <trkpt lat="43.75693" lon="7.08022">
        <ele>899.1</ele>
        <time>2025-01-25T12:37:54.000Z</time>
      </trkpt>
      <trkpt lat="43.75689" lon="7.08016">
        <ele>899.4</ele>
        <time>2025-01-25T12:37:57.000Z</time>
      </trkpt>
      <trkpt lat="43.75686" lon="7.08011">
        <ele>899.9</ele>
        <time>2025-01-25T12:38:00.000Z</time>
      </trkpt>
      <trkpt lat="43.75685" lon="7.08004">
        <ele>900.3</ele>
        <time>2025-01-25T12:38:03.000Z</time>
      </trkpt>
      <trkpt lat="43.75683" lon="7.07998">
        <ele>900.8</ele>
        <time>2025-01-25T12:38:06.000Z</time>
      </trkpt>
      <trkpt lat="43.75682" lon="7.0799">
        <ele>901.2</ele>
        <time>2025-01-25T12:38:09.000Z</time>
      </trkpt>
      <trkpt lat="43.75682" lon="7.07984">
        <ele>901.6</ele>
        <time>2025-01-25T12:38:12.000Z</time>
      </trkpt>
      <trkpt lat="43.75682" lon="7.07977">
        <ele>902</ele>
        <time>2025-01-25T12:38:15.000Z</time>
      </trkpt>
      <trkpt lat="43.75681" lon="7.0797">
        <ele>902.4</ele>
        <time>2025-01-25T12:38:18.000Z</time>
      </trkpt>
      <trkpt lat="43.75681" lon="7.07963">
        <ele>902.8</ele>
        <time>2025-01-25T12:38:21.000Z</time>
      </trkpt>
      <trkpt lat="43.75681" lon="7.07956">
        <ele>903.1</ele>
        <time>2025-01-25T12:38:24.000Z</time>
      </trkpt>
      <trkpt lat="43.75681" lon="7.07949">
        <ele>903.6</ele>
        <time>2025-01-25T12:38:27.000Z</time>
      </trkpt>
      <trkpt lat="43.7568" lon="7.07942">
        <ele>904.1</ele>
        <time>2025-01-25T12:38:30.000Z</time>
      </trkpt>
      <trkpt lat="43.7568" lon="7.07935">
        <ele>904.5</ele>
        <time>2025-01-25T12:38:33.000Z</time>
      </trkpt>
      <trkpt lat="43.7568" lon="7.07928">
        <ele>904.9</ele>
        <time>2025-01-25T12:38:36.000Z</time>
      </trkpt>
      <trkpt lat="43.75678" lon="7.07923">
        <ele>905.3</ele>
        <time>2025-01-25T12:38:39.000Z</time>
      </trkpt>
      <trkpt lat="43.75678" lon="7.07916">
        <ele>905.7</ele>
        <time>2025-01-25T12:38:42.000Z</time>
      </trkpt>
      <trkpt lat="43.75678" lon="7.07908">
        <ele>906.1</ele>
        <time>2025-01-25T12:38:45.000Z</time>
      </trkpt>
      <trkpt lat="43.75678" lon="7.07901">
        <ele>906.5</ele>
        <time>2025-01-25T12:38:48.000Z</time>
      </trkpt>
      <trkpt lat="43.75677" lon="7.07894">
        <ele>907</ele>
        <time>2025-01-25T12:38:51.000Z</time>
      </trkpt>
      <trkpt lat="43.75676" lon="7.07887">
        <ele>907.5</ele>
        <time>2025-01-25T12:38:55.000Z</time>
      </trkpt>
      <trkpt lat="43.75674" lon="7.0788">
        <ele>907.9</ele>
        <time>2025-01-25T12:38:59.000Z</time>
      </trkpt>
      <trkpt lat="43.75674" lon="7.07872">
        <ele>908.4</ele>
        <time>2025-01-25T12:39:03.000Z</time>
      </trkpt>
      <trkpt lat="43.75674" lon="7.07866">
        <ele>908.7</ele>
        <time>2025-01-25T12:39:06.000Z</time>
      </trkpt>
      <trkpt lat="43.75675" lon="7.07858">
        <ele>909</ele>
        <time>2025-01-25T12:39:10.000Z</time>
      </trkpt>
      <trkpt lat="43.75675" lon="7.07851">
        <ele>909.4</ele>
        <time>2025-01-25T12:39:13.000Z</time>
      </trkpt>
      <trkpt lat="43.75674" lon="7.07844">
        <ele>909.8</ele>
        <time>2025-01-25T12:39:16.000Z</time>
      </trkpt>
      <trkpt lat="43.75674" lon="7.07837">
        <ele>910.1</ele>
        <time>2025-01-25T12:39:19.000Z</time>
      </trkpt>
      <trkpt lat="43.75673" lon="7.07829">
        <ele>910.6</ele>
        <time>2025-01-25T12:39:23.000Z</time>
      </trkpt>
      <trkpt lat="43.75672" lon="7.07823">
        <ele>910.9</ele>
        <time>2025-01-25T12:39:26.000Z</time>
      </trkpt>
      <trkpt lat="43.75672" lon="7.07816">
        <ele>911.2</ele>
        <time>2025-01-25T12:39:29.000Z</time>
      </trkpt>
      <trkpt lat="43.75672" lon="7.07809">
        <ele>911.7</ele>
        <time>2025-01-25T12:39:33.000Z</time>
      </trkpt>
      <trkpt lat="43.75672" lon="7.07802">
        <ele>912</ele>
        <time>2025-01-25T12:39:36.000Z</time>
      </trkpt>
      <trkpt lat="43.75671" lon="7.07796">
        <ele>912.3</ele>
        <time>2025-01-25T12:39:39.000Z</time>
      </trkpt>
      <trkpt lat="43.75671" lon="7.07789">
        <ele>912.7</ele>
        <time>2025-01-25T12:39:42.000Z</time>
      </trkpt>
      <trkpt lat="43.75673" lon="7.07782">
        <ele>913</ele>
        <time>2025-01-25T12:39:45.000Z</time>
      </trkpt>
      <trkpt lat="43.75673" lon="7.07774">
        <ele>913.4</ele>
        <time>2025-01-25T12:39:48.000Z</time>
      </trkpt>
      <trkpt lat="43.75673" lon="7.07768">
        <ele>913.8</ele>
        <time>2025-01-25T12:39:51.000Z</time>
      </trkpt>
      <trkpt lat="43.75675" lon="7.0776">
        <ele>914.4</ele>
        <time>2025-01-25T12:39:55.000Z</time>
      </trkpt>
      <trkpt lat="43.75677" lon="7.07753">
        <ele>914.7</ele>
        <time>2025-01-25T12:39:58.000Z</time>
      </trkpt>
      <trkpt lat="43.75677" lon="7.07746">
        <ele>915.1</ele>
        <time>2025-01-25T12:40:01.000Z</time>
      </trkpt>
      <trkpt lat="43.75678" lon="7.07738">
        <ele>915.5</ele>
        <time>2025-01-25T12:40:04.000Z</time>
      </trkpt>
      <trkpt lat="43.7568" lon="7.0773">
        <ele>915.9</ele>
        <time>2025-01-25T12:40:07.000Z</time>
      </trkpt>
      <trkpt lat="43.75682" lon="7.07724">
        <ele>916.3</ele>
        <time>2025-01-25T12:40:10.000Z</time>
      </trkpt>
      <trkpt lat="43.75683" lon="7.07718">
        <ele>916.6</ele>
        <time>2025-01-25T12:40:13.000Z</time>
      </trkpt>
      <trkpt lat="43.75684" lon="7.07711">
        <ele>917.1</ele>
        <time>2025-01-25T12:40:17.000Z</time>
      </trkpt>
      <trkpt lat="43.75688" lon="7.07705">
        <ele>917.6</ele>
        <time>2025-01-25T12:40:21.000Z</time>
      </trkpt>
      <trkpt lat="43.75691" lon="7.07699">
        <ele>918</ele>
        <time>2025-01-25T12:40:25.000Z</time>
      </trkpt>
      <trkpt lat="43.75693" lon="7.07693">
        <ele>918.3</ele>
        <time>2025-01-25T12:40:28.000Z</time>
      </trkpt>
      <trkpt lat="43.75696" lon="7.07685">
        <ele>918.9</ele>
        <time>2025-01-25T12:40:32.000Z</time>
      </trkpt>
      <trkpt lat="43.75698" lon="7.07678">
        <ele>919.4</ele>
        <time>2025-01-25T12:40:36.000Z</time>
      </trkpt>
      <trkpt lat="43.75699" lon="7.07671">
        <ele>919.8</ele>
        <time>2025-01-25T12:40:39.000Z</time>
      </trkpt>
      <trkpt lat="43.75702" lon="7.07665">
        <ele>920.1</ele>
        <time>2025-01-25T12:40:42.000Z</time>
      </trkpt>
      <trkpt lat="43.75703" lon="7.07658">
        <ele>920.4</ele>
        <time>2025-01-25T12:40:45.000Z</time>
      </trkpt>
      <trkpt lat="43.75705" lon="7.07652">
        <ele>920.8</ele>
        <time>2025-01-25T12:40:48.000Z</time>
      </trkpt>
      <trkpt lat="43.75707" lon="7.07645">
        <ele>921.2</ele>
        <time>2025-01-25T12:40:51.000Z</time>
      </trkpt>
      <trkpt lat="43.75709" lon="7.07639">
        <ele>921.6</ele>
        <time>2025-01-25T12:40:54.000Z</time>
      </trkpt>
      <trkpt lat="43.75711" lon="7.07632">
        <ele>922</ele>
        <time>2025-01-25T12:40:57.000Z</time>
      </trkpt>
      <trkpt lat="43.75712" lon="7.07626">
        <ele>922.4</ele>
        <time>2025-01-25T12:41:00.000Z</time>
      </trkpt>
      <trkpt lat="43.75714" lon="7.0762">
        <ele>922.7</ele>
        <time>2025-01-25T12:41:03.000Z</time>
      </trkpt>
      <trkpt lat="43.75715" lon="7.07614">
        <ele>923.1</ele>
        <time>2025-01-25T12:41:06.000Z</time>
      </trkpt>
      <trkpt lat="43.75716" lon="7.07608">
        <ele>923.4</ele>
        <time>2025-01-25T12:41:09.000Z</time>
      </trkpt>
      <trkpt lat="43.75717" lon="7.07601">
        <ele>923.9</ele>
        <time>2025-01-25T12:41:12.000Z</time>
      </trkpt>
      <trkpt lat="43.75717" lon="7.07594">
        <ele>924.3</ele>
        <time>2025-01-25T12:41:15.000Z</time>
      </trkpt>
      <trkpt lat="43.75718" lon="7.07587">
        <ele>924.6</ele>
        <time>2025-01-25T12:41:18.000Z</time>
      </trkpt>
      <trkpt lat="43.75719" lon="7.07579">
        <ele>925</ele>
        <time>2025-01-25T12:41:21.000Z</time>
      </trkpt>
      <trkpt lat="43.7572" lon="7.07571">
        <ele>925.3</ele>
        <time>2025-01-25T12:41:24.000Z</time>
      </trkpt>
      <trkpt lat="43.75721" lon="7.07564">
        <ele>925.7</ele>
        <time>2025-01-25T12:41:27.000Z</time>
      </trkpt>
      <trkpt lat="43.75721" lon="7.07556">
        <ele>926.2</ele>
        <time>2025-01-25T12:41:30.000Z</time>
      </trkpt>
      <trkpt lat="43.75722" lon="7.07549">
        <ele>926.6</ele>
        <time>2025-01-25T12:41:33.000Z</time>
      </trkpt>
      <trkpt lat="43.75723" lon="7.07541">
        <ele>927.1</ele>
        <time>2025-01-25T12:41:36.000Z</time>
      </trkpt>
      <trkpt lat="43.75723" lon="7.07533">
        <ele>927.6</ele>
        <time>2025-01-25T12:41:39.000Z</time>
      </trkpt>
      <trkpt lat="43.75723" lon="7.07525">
        <ele>927.9</ele>
        <time>2025-01-25T12:41:42.000Z</time>
      </trkpt>
      <trkpt lat="43.75722" lon="7.07517">
        <ele>928.3</ele>
        <time>2025-01-25T12:41:45.000Z</time>
      </trkpt>
      <trkpt lat="43.75721" lon="7.07509">
        <ele>928.6</ele>
        <time>2025-01-25T12:41:49.000Z</time>
      </trkpt>
      <trkpt lat="43.75719" lon="7.07502">
        <ele>929</ele>
        <time>2025-01-25T12:41:52.000Z</time>
      </trkpt>
      <trkpt lat="43.75718" lon="7.07495">
        <ele>929.4</ele>
        <time>2025-01-25T12:41:55.000Z</time>
      </trkpt>
      <trkpt lat="43.75716" lon="7.07489">
        <ele>929.7</ele>
        <time>2025-01-25T12:41:58.000Z</time>
      </trkpt>
      <trkpt lat="43.75715" lon="7.07482">
        <ele>930.1</ele>
        <time>2025-01-25T12:42:01.000Z</time>
      </trkpt>
      <trkpt lat="43.75715" lon="7.07473">
        <ele>930.4</ele>
        <time>2025-01-25T12:42:04.000Z</time>
      </trkpt>
      <trkpt lat="43.75715" lon="7.07466">
        <ele>930.7</ele>
        <time>2025-01-25T12:42:07.000Z</time>
      </trkpt>
      <trkpt lat="43.75717" lon="7.0746">
        <ele>931</ele>
        <time>2025-01-25T12:42:10.000Z</time>
      </trkpt>
      <trkpt lat="43.75721" lon="7.07455">
        <ele>931.4</ele>
        <time>2025-01-25T12:42:13.000Z</time>
      </trkpt>
      <trkpt lat="43.75726" lon="7.07456">
        <ele>932</ele>
        <time>2025-01-25T12:42:17.000Z</time>
      </trkpt>
      <trkpt lat="43.75731" lon="7.07459">
        <ele>932.3</ele>
        <time>2025-01-25T12:42:20.000Z</time>
      </trkpt>
      <trkpt lat="43.75737" lon="7.07463">
        <ele>932.7</ele>
        <time>2025-01-25T12:42:23.000Z</time>
      </trkpt>
      <trkpt lat="43.75741" lon="7.07468">
        <ele>933</ele>
        <time>2025-01-25T12:42:26.000Z</time>
      </trkpt>
      <trkpt lat="43.75745" lon="7.07474">
        <ele>933.3</ele>
        <time>2025-01-25T12:42:29.000Z</time>
      </trkpt>
      <trkpt lat="43.75748" lon="7.07479">
        <ele>933.7</ele>
        <time>2025-01-25T12:42:32.000Z</time>
      </trkpt>
      <trkpt lat="43.75752" lon="7.07485">
        <ele>934</ele>
        <time>2025-01-25T12:42:35.000Z</time>
      </trkpt>
      <trkpt lat="43.75754" lon="7.07492">
        <ele>934.4</ele>
        <time>2025-01-25T12:42:38.000Z</time>
      </trkpt>
      <trkpt lat="43.75756" lon="7.07499">
        <ele>934.7</ele>
        <time>2025-01-25T12:42:41.000Z</time>
      </trkpt>
      <trkpt lat="43.75758" lon="7.07507">
        <ele>935.1</ele>
        <time>2025-01-25T12:42:44.000Z</time>
      </trkpt>
      <trkpt lat="43.75761" lon="7.07515">
        <ele>935.6</ele>
        <time>2025-01-25T12:42:48.000Z</time>
      </trkpt>
      <trkpt lat="43.75762" lon="7.07523">
        <ele>935.9</ele>
        <time>2025-01-25T12:42:51.000Z</time>
      </trkpt>
      <trkpt lat="43.75762" lon="7.0753">
        <ele>936.3</ele>
        <time>2025-01-25T12:42:54.000Z</time>
      </trkpt>
      <trkpt lat="43.75763" lon="7.07536">
        <ele>936.8</ele>
        <time>2025-01-25T12:42:57.000Z</time>
      </trkpt>
      <trkpt lat="43.75763" lon="7.07545">
        <ele>937.3</ele>
        <time>2025-01-25T12:43:01.000Z</time>
      </trkpt>
      <trkpt lat="43.75764" lon="7.07552">
        <ele>937.7</ele>
        <time>2025-01-25T12:43:04.000Z</time>
      </trkpt>
      <trkpt lat="43.75766" lon="7.07559">
        <ele>938.2</ele>
        <time>2025-01-25T12:43:08.000Z</time>
      </trkpt>
      <trkpt lat="43.75768" lon="7.07565">
        <ele>938.5</ele>
        <time>2025-01-25T12:43:11.000Z</time>
      </trkpt>
      <trkpt lat="43.75769" lon="7.07572">
        <ele>938.8</ele>
        <time>2025-01-25T12:43:14.000Z</time>
      </trkpt>
      <trkpt lat="43.7577" lon="7.07579">
        <ele>939.2</ele>
        <time>2025-01-25T12:43:17.000Z</time>
      </trkpt>
      <trkpt lat="43.75772" lon="7.07585">
        <ele>939.6</ele>
        <time>2025-01-25T12:43:20.000Z</time>
      </trkpt>
      <trkpt lat="43.75774" lon="7.07592">
        <ele>940.2</ele>
        <time>2025-01-25T12:43:24.000Z</time>
      </trkpt>
      <trkpt lat="43.75776" lon="7.07597">
        <ele>940.6</ele>
        <time>2025-01-25T12:43:27.000Z</time>
      </trkpt>
      <trkpt lat="43.75777" lon="7.07604">
        <ele>941</ele>
        <time>2025-01-25T12:43:30.000Z</time>
      </trkpt>
      <trkpt lat="43.75779" lon="7.0761">
        <ele>941.4</ele>
        <time>2025-01-25T12:43:33.000Z</time>
      </trkpt>
      <trkpt lat="43.7578" lon="7.07618">
        <ele>941.8</ele>
        <time>2025-01-25T12:43:36.000Z</time>
      </trkpt>
      <trkpt lat="43.7578" lon="7.07625">
        <ele>942.1</ele>
        <time>2025-01-25T12:43:39.000Z</time>
      </trkpt>
      <trkpt lat="43.75782" lon="7.07633">
        <ele>942.5</ele>
        <time>2025-01-25T12:43:42.000Z</time>
      </trkpt>
      <trkpt lat="43.75784" lon="7.07639">
        <ele>942.9</ele>
        <time>2025-01-25T12:43:45.000Z</time>
      </trkpt>
      <trkpt lat="43.75786" lon="7.07645">
        <ele>943.2</ele>
        <time>2025-01-25T12:43:48.000Z</time>
      </trkpt>
      <trkpt lat="43.75788" lon="7.07651">
        <ele>943.7</ele>
        <time>2025-01-25T12:43:51.000Z</time>
      </trkpt>
      <trkpt lat="43.75792" lon="7.07657">
        <ele>944.1</ele>
        <time>2025-01-25T12:43:54.000Z</time>
      </trkpt>
      <trkpt lat="43.75795" lon="7.07664">
        <ele>944.6</ele>
        <time>2025-01-25T12:43:58.000Z</time>
      </trkpt>
      <trkpt lat="43.75797" lon="7.0767">
        <ele>944.9</ele>
        <time>2025-01-25T12:44:01.000Z</time>
      </trkpt>
      <trkpt lat="43.758" lon="7.07675">
        <ele>945.5</ele>
        <time>2025-01-25T12:44:05.000Z</time>
      </trkpt>
      <trkpt lat="43.75804" lon="7.07681">
        <ele>946</ele>
        <time>2025-01-25T12:44:09.000Z</time>
      </trkpt>
      <trkpt lat="43.75809" lon="7.07686">
        <ele>946.3</ele>
        <time>2025-01-25T12:44:12.000Z</time>
      </trkpt>
      <trkpt lat="43.75814" lon="7.07688">
        <ele>946.6</ele>
        <time>2025-01-25T12:44:15.000Z</time>
      </trkpt>
      <trkpt lat="43.75818" lon="7.0769">
        <ele>947</ele>
        <time>2025-01-25T12:44:18.000Z</time>
      </trkpt>
      <trkpt lat="43.75823" lon="7.07691">
        <ele>947.6</ele>
        <time>2025-01-25T12:44:22.000Z</time>
      </trkpt>
      <trkpt lat="43.75827" lon="7.07695">
        <ele>948</ele>
        <time>2025-01-25T12:44:26.000Z</time>
      </trkpt>
      <trkpt lat="43.75832" lon="7.07697">
        <ele>948.4</ele>
        <time>2025-01-25T12:44:30.000Z</time>
      </trkpt>
      <trkpt lat="43.75837" lon="7.07698">
        <ele>948.8</ele>
        <time>2025-01-25T12:44:33.000Z</time>
      </trkpt>
      <trkpt lat="43.75842" lon="7.07698">
        <ele>949.2</ele>
        <time>2025-01-25T12:44:36.000Z</time>
      </trkpt>
      <trkpt lat="43.75848" lon="7.077">
        <ele>949.6</ele>
        <time>2025-01-25T12:44:39.000Z</time>
      </trkpt>
      <trkpt lat="43.75853" lon="7.07702">
        <ele>950</ele>
        <time>2025-01-25T12:44:42.000Z</time>
      </trkpt>
      <trkpt lat="43.75859" lon="7.07702">
        <ele>950.6</ele>
        <time>2025-01-25T12:44:46.000Z</time>
      </trkpt>
      <trkpt lat="43.75865" lon="7.07702">
        <ele>951</ele>
        <time>2025-01-25T12:44:49.000Z</time>
      </trkpt>
      <trkpt lat="43.7587" lon="7.07702">
        <ele>951.3</ele>
        <time>2025-01-25T12:44:53.000Z</time>
      </trkpt>
      <trkpt lat="43.75875" lon="7.07699">
        <ele>951.7</ele>
        <time>2025-01-25T12:44:57.000Z</time>
      </trkpt>
      <trkpt lat="43.7588" lon="7.07694">
        <ele>951.9</ele>
        <time>2025-01-25T12:45:00.000Z</time>
      </trkpt>
      <trkpt lat="43.75884" lon="7.07692">
        <ele>952.2</ele>
        <time>2025-01-25T12:45:03.000Z</time>
      </trkpt>
      <trkpt lat="43.75888" lon="7.07687">
        <ele>952.5</ele>
        <time>2025-01-25T12:45:06.000Z</time>
      </trkpt>
      <trkpt lat="43.75892" lon="7.07683">
        <ele>952.8</ele>
        <time>2025-01-25T12:45:09.000Z</time>
      </trkpt>
      <trkpt lat="43.75895" lon="7.07676">
        <ele>953.2</ele>
        <time>2025-01-25T12:45:12.000Z</time>
      </trkpt>
      <trkpt lat="43.75899" lon="7.07671">
        <ele>953.7</ele>
        <time>2025-01-25T12:45:15.000Z</time>
      </trkpt>
      <trkpt lat="43.75902" lon="7.07666">
        <ele>954</ele>
        <time>2025-01-25T12:45:18.000Z</time>
      </trkpt>
      <trkpt lat="43.75906" lon="7.07662">
        <ele>954.4</ele>
        <time>2025-01-25T12:45:21.000Z</time>
      </trkpt>
      <trkpt lat="43.75909" lon="7.07656">
        <ele>954.7</ele>
        <time>2025-01-25T12:45:25.000Z</time>
      </trkpt>
      <trkpt lat="43.75912" lon="7.07651">
        <ele>955.3</ele>
        <time>2025-01-25T12:45:29.000Z</time>
      </trkpt>
      <trkpt lat="43.75916" lon="7.07647">
        <ele>955.6</ele>
        <time>2025-01-25T12:45:32.000Z</time>
      </trkpt>
      <trkpt lat="43.75919" lon="7.0764">
        <ele>956</ele>
        <time>2025-01-25T12:45:36.000Z</time>
      </trkpt>
      <trkpt lat="43.75922" lon="7.07635">
        <ele>956.5</ele>
        <time>2025-01-25T12:45:39.000Z</time>
      </trkpt>
      <trkpt lat="43.75926" lon="7.07629">
        <ele>956.9</ele>
        <time>2025-01-25T12:45:43.000Z</time>
      </trkpt>
      <trkpt lat="43.75929" lon="7.07623">
        <ele>957.2</ele>
        <time>2025-01-25T12:45:46.000Z</time>
      </trkpt>
      <trkpt lat="43.75933" lon="7.07619">
        <ele>957.5</ele>
        <time>2025-01-25T12:45:49.000Z</time>
      </trkpt>
      <trkpt lat="43.75937" lon="7.07613">
        <ele>957.8</ele>
        <time>2025-01-25T12:45:52.000Z</time>
      </trkpt>
      <trkpt lat="43.75941" lon="7.07608">
        <ele>958.2</ele>
        <time>2025-01-25T12:45:55.000Z</time>
      </trkpt>
      <trkpt lat="43.75944" lon="7.07603">
        <ele>958.5</ele>
        <time>2025-01-25T12:45:58.000Z</time>
      </trkpt>
      <trkpt lat="43.75948" lon="7.07597">
        <ele>958.8</ele>
        <time>2025-01-25T12:46:01.000Z</time>
      </trkpt>
      <trkpt lat="43.75953" lon="7.07593">
        <ele>959.1</ele>
        <time>2025-01-25T12:46:04.000Z</time>
      </trkpt>
      <trkpt lat="43.75957" lon="7.07587">
        <ele>959.4</ele>
        <time>2025-01-25T12:46:08.000Z</time>
      </trkpt>
      <trkpt lat="43.7596" lon="7.07582">
        <ele>959.8</ele>
        <time>2025-01-25T12:46:12.000Z</time>
      </trkpt>
      <trkpt lat="43.75964" lon="7.07577">
        <ele>960.4</ele>
        <time>2025-01-25T12:46:17.000Z</time>
      </trkpt>
      <trkpt lat="43.75969" lon="7.07572">
        <ele>960.8</ele>
        <time>2025-01-25T12:46:21.000Z</time>
      </trkpt>
      <trkpt lat="43.75974" lon="7.07568">
        <ele>961.2</ele>
        <time>2025-01-25T12:46:24.000Z</time>
      </trkpt>
      <trkpt lat="43.75979" lon="7.07566">
        <ele>961.8</ele>
        <time>2025-01-25T12:46:28.000Z</time>
      </trkpt>
      <trkpt lat="43.75984" lon="7.07563">
        <ele>962.2</ele>
        <time>2025-01-25T12:46:31.000Z</time>
      </trkpt>
      <trkpt lat="43.7599" lon="7.07563">
        <ele>962.7</ele>
        <time>2025-01-25T12:46:35.000Z</time>
      </trkpt>
      <trkpt lat="43.75996" lon="7.0756">
        <ele>963</ele>
        <time>2025-01-25T12:46:38.000Z</time>
      </trkpt>
      <trkpt lat="43.76001" lon="7.07558">
        <ele>963.3</ele>
        <time>2025-01-25T12:46:41.000Z</time>
      </trkpt>
      <trkpt lat="43.76007" lon="7.07554">
        <ele>963.7</ele>
        <time>2025-01-25T12:46:45.000Z</time>
      </trkpt>
      <trkpt lat="43.76012" lon="7.07552">
        <ele>964</ele>
        <time>2025-01-25T12:46:48.000Z</time>
      </trkpt>
      <trkpt lat="43.76017" lon="7.07549">
        <ele>964.5</ele>
        <time>2025-01-25T12:46:52.000Z</time>
      </trkpt>
      <trkpt lat="43.76021" lon="7.07544">
        <ele>964.9</ele>
        <time>2025-01-25T12:46:55.000Z</time>
      </trkpt>
      <trkpt lat="43.76026" lon="7.07541">
        <ele>965.3</ele>
        <time>2025-01-25T12:46:58.000Z</time>
      </trkpt>
      <trkpt lat="43.76031" lon="7.07539">
        <ele>965.8</ele>
        <time>2025-01-25T12:47:01.000Z</time>
      </trkpt>
      <trkpt lat="43.76036" lon="7.07535">
        <ele>966.2</ele>
        <time>2025-01-25T12:47:04.000Z</time>
      </trkpt>
      <trkpt lat="43.76041" lon="7.07531">
        <ele>966.6</ele>
        <time>2025-01-25T12:47:07.000Z</time>
      </trkpt>
      <trkpt lat="43.76046" lon="7.07529">
        <ele>966.8</ele>
        <time>2025-01-25T12:47:09.000Z</time>
      </trkpt>
      <trkpt lat="43.7605" lon="7.07525">
        <ele>967.2</ele>
        <time>2025-01-25T12:47:12.000Z</time>
      </trkpt>
      <trkpt lat="43.76055" lon="7.07521">
        <ele>967.5</ele>
        <time>2025-01-25T12:47:15.000Z</time>
      </trkpt>
      <trkpt lat="43.76061" lon="7.07518">
        <ele>967.8</ele>
        <time>2025-01-25T12:47:18.000Z</time>
      </trkpt>
      <trkpt lat="43.76065" lon="7.07514">
        <ele>968.1</ele>
        <time>2025-01-25T12:47:21.000Z</time>
      </trkpt>
      <trkpt lat="43.76069" lon="7.0751">
        <ele>968.4</ele>
        <time>2025-01-25T12:47:24.000Z</time>
      </trkpt>
      <trkpt lat="43.76071" lon="7.07502">
        <ele>968.7</ele>
        <time>2025-01-25T12:47:27.000Z</time>
      </trkpt>
      <trkpt lat="43.76069" lon="7.07496">
        <ele>968.9</ele>
        <time>2025-01-25T12:47:30.000Z</time>
      </trkpt>
      <trkpt lat="43.76065" lon="7.07491">
        <ele>969.1</ele>
        <time>2025-01-25T12:47:33.000Z</time>
      </trkpt>
      <trkpt lat="43.76062" lon="7.07489">
        <ele>969.3</ele>
        <time>2025-01-25T12:47:38.000Z</time>
      </trkpt>
      <trkpt lat="43.76062" lon="7.07489">
        <ele>969.4</ele>
        <time>2025-01-25T12:47:39.000Z</time>
      </trkpt>
      <trkpt lat="43.76061" lon="7.07487">
        <ele>969.6</ele>
        <time>2025-01-25T12:48:17.000Z</time>
      </trkpt>
      <trkpt lat="43.76066" lon="7.07486">
        <ele>969.6</ele>
        <time>2025-01-25T12:48:21.000Z</time>
      </trkpt>
      <trkpt lat="43.76062" lon="7.07482">
        <ele>969.5</ele>
        <time>2025-01-25T12:48:33.000Z</time>
      </trkpt>
      <trkpt lat="43.7606" lon="7.07474">
        <ele>969.5</ele>
        <time>2025-01-25T12:48:35.000Z</time>
      </trkpt>
      <trkpt lat="43.76058" lon="7.07468">
        <ele>969.6</ele>
        <time>2025-01-25T12:48:37.000Z</time>
      </trkpt>
      <trkpt lat="43.76057" lon="7.07461">
        <ele>969.6</ele>
        <time>2025-01-25T12:48:39.000Z</time>
      </trkpt>
      <trkpt lat="43.76055" lon="7.07454">
        <ele>969.6</ele>
        <time>2025-01-25T12:48:42.000Z</time>
      </trkpt>
      <trkpt lat="43.76052" lon="7.07448">
        <ele>969.7</ele>
        <time>2025-01-25T12:48:45.000Z</time>
      </trkpt>
      <trkpt lat="43.76049" lon="7.07442">
        <ele>969.9</ele>
        <time>2025-01-25T12:48:48.000Z</time>
      </trkpt>
      <trkpt lat="43.76046" lon="7.07436">
        <ele>970</ele>
        <time>2025-01-25T12:48:50.000Z</time>
      </trkpt>
      <trkpt lat="43.76045" lon="7.07428">
        <ele>970.2</ele>
        <time>2025-01-25T12:48:52.000Z</time>
      </trkpt>
      <trkpt lat="43.76046" lon="7.07421">
        <ele>970.3</ele>
        <time>2025-01-25T12:48:54.000Z</time>
      </trkpt>
      <trkpt lat="43.76047" lon="7.07414">
        <ele>970.4</ele>
        <time>2025-01-25T12:48:56.000Z</time>
      </trkpt>
      <trkpt lat="43.76051" lon="7.07411">
        <ele>970.4</ele>
        <time>2025-01-25T12:48:58.000Z</time>
      </trkpt>
      <trkpt lat="43.76056" lon="7.07411">
        <ele>970.5</ele>
        <time>2025-01-25T12:49:00.000Z</time>
      </trkpt>
      <trkpt lat="43.76061" lon="7.07411">
        <ele>970.5</ele>
        <time>2025-01-25T12:49:02.000Z</time>
      </trkpt>
      <trkpt lat="43.76067" lon="7.07409">
        <ele>970.6</ele>
        <time>2025-01-25T12:49:04.000Z</time>
      </trkpt>
      <trkpt lat="43.76074" lon="7.07409">
        <ele>970.5</ele>
        <time>2025-01-25T12:49:06.000Z</time>
      </trkpt>
      <trkpt lat="43.76081" lon="7.07409">
        <ele>970.6</ele>
        <time>2025-01-25T12:49:08.000Z</time>
      </trkpt>
      <trkpt lat="43.76088" lon="7.0741">
        <ele>970.5</ele>
        <time>2025-01-25T12:49:10.000Z</time>
      </trkpt>
      <trkpt lat="43.76094" lon="7.07411">
        <ele>970.4</ele>
        <time>2025-01-25T12:49:12.000Z</time>
      </trkpt>
      <trkpt lat="43.76099" lon="7.07414">
        <ele>970.4</ele>
        <time>2025-01-25T12:49:14.000Z</time>
      </trkpt>
      <trkpt lat="43.76105" lon="7.07412">
        <ele>970.3</ele>
        <time>2025-01-25T12:49:17.000Z</time>
      </trkpt>
      <trkpt lat="43.76109" lon="7.07408">
        <ele>970.2</ele>
        <time>2025-01-25T12:49:19.000Z</time>
      </trkpt>
      <trkpt lat="43.76113" lon="7.07399">
        <ele>970.2</ele>
        <time>2025-01-25T12:49:21.000Z</time>
      </trkpt>
      <trkpt lat="43.76117" lon="7.07389">
        <ele>970</ele>
        <time>2025-01-25T12:49:23.000Z</time>
      </trkpt>
      <trkpt lat="43.76121" lon="7.07385">
        <ele>969.9</ele>
        <time>2025-01-25T12:49:24.000Z</time>
      </trkpt>
      <trkpt lat="43.76126" lon="7.07381">
        <ele>969.7</ele>
        <time>2025-01-25T12:49:25.000Z</time>
      </trkpt>
      <trkpt lat="43.76128" lon="7.07376">
        <ele>969.6</ele>
        <time>2025-01-25T12:49:26.000Z</time>
      </trkpt>
      <trkpt lat="43.7613" lon="7.0737">
        <ele>969.4</ele>
        <time>2025-01-25T12:49:27.000Z</time>
      </trkpt>
      <trkpt lat="43.7613" lon="7.07357">
        <ele>968.9</ele>
        <time>2025-01-25T12:49:29.000Z</time>
      </trkpt>
      <trkpt lat="43.76128" lon="7.07345">
        <ele>968</ele>
        <time>2025-01-25T12:49:31.000Z</time>
      </trkpt>
      <trkpt lat="43.76128" lon="7.07333">
        <ele>967.3</ele>
        <time>2025-01-25T12:49:33.000Z</time>
      </trkpt>
      <trkpt lat="43.76128" lon="7.07326">
        <ele>966.9</ele>
        <time>2025-01-25T12:49:34.000Z</time>
      </trkpt>
      <trkpt lat="43.76127" lon="7.0732">
        <ele>966.5</ele>
        <time>2025-01-25T12:49:35.000Z</time>
      </trkpt>
      <trkpt lat="43.76127" lon="7.07313">
        <ele>966</ele>
        <time>2025-01-25T12:49:36.000Z</time>
      </trkpt>
      <trkpt lat="43.76128" lon="7.07304">
        <ele>965.6</ele>
        <time>2025-01-25T12:49:37.000Z</time>
      </trkpt>
      <trkpt lat="43.76128" lon="7.07296">
        <ele>965.1</ele>
        <time>2025-01-25T12:49:38.000Z</time>
      </trkpt>
      <trkpt lat="43.76128" lon="7.07287">
        <ele>964.7</ele>
        <time>2025-01-25T12:49:39.000Z</time>
      </trkpt>
      <trkpt lat="43.76128" lon="7.07279">
        <ele>964.1</ele>
        <time>2025-01-25T12:49:40.000Z</time>
      </trkpt>
      <trkpt lat="43.76129" lon="7.07272">
        <ele>963.6</ele>
        <time>2025-01-25T12:49:41.000Z</time>
      </trkpt>
      <trkpt lat="43.76126" lon="7.07264">
        <ele>962.9</ele>
        <time>2025-01-25T12:49:43.000Z</time>
      </trkpt>
      <trkpt lat="43.76122" lon="7.0726">
        <ele>962.5</ele>
        <time>2025-01-25T12:49:45.000Z</time>
      </trkpt>
      <trkpt lat="43.76117" lon="7.07255">
        <ele>962.3</ele>
        <time>2025-01-25T12:49:48.000Z</time>
      </trkpt>
      <trkpt lat="43.76113" lon="7.0725">
        <ele>962.6</ele>
        <time>2025-01-25T12:49:51.000Z</time>
      </trkpt>
      <trkpt lat="43.76108" lon="7.07248">
        <ele>962.9</ele>
        <time>2025-01-25T12:49:54.000Z</time>
      </trkpt>
      <trkpt lat="43.76103" lon="7.07246">
        <ele>963.3</ele>
        <time>2025-01-25T12:49:57.000Z</time>
      </trkpt>
      <trkpt lat="43.76097" lon="7.07245">
        <ele>963.8</ele>
        <time>2025-01-25T12:50:00.000Z</time>
      </trkpt>
      <trkpt lat="43.76093" lon="7.07242">
        <ele>964.3</ele>
        <time>2025-01-25T12:50:03.000Z</time>
      </trkpt>
      <trkpt lat="43.76088" lon="7.07238">
        <ele>964.6</ele>
        <time>2025-01-25T12:50:06.000Z</time>
      </trkpt>
      <trkpt lat="43.76083" lon="7.07236">
        <ele>965</ele>
        <time>2025-01-25T12:50:09.000Z</time>
      </trkpt>
      <trkpt lat="43.76078" lon="7.07235">
        <ele>965.4</ele>
        <time>2025-01-25T12:50:12.000Z</time>
      </trkpt>
      <trkpt lat="43.76073" lon="7.07235">
        <ele>965.7</ele>
        <time>2025-01-25T12:50:14.000Z</time>
      </trkpt>
      <trkpt lat="43.76067" lon="7.07235">
        <ele>965.9</ele>
        <time>2025-01-25T12:50:17.000Z</time>
      </trkpt>
      <trkpt lat="43.76061" lon="7.07233">
        <ele>966.3</ele>
        <time>2025-01-25T12:50:20.000Z</time>
      </trkpt>
      <trkpt lat="43.76056" lon="7.07233">
        <ele>966.5</ele>
        <time>2025-01-25T12:50:22.000Z</time>
      </trkpt>
      <trkpt lat="43.7605" lon="7.07237">
        <ele>967.2</ele>
        <time>2025-01-25T12:50:25.000Z</time>
      </trkpt>
      <trkpt lat="43.76046" lon="7.0724">
        <ele>967.7</ele>
        <time>2025-01-25T12:50:28.000Z</time>
      </trkpt>
      <trkpt lat="43.7604" lon="7.07241">
        <ele>968.1</ele>
        <time>2025-01-25T12:50:31.000Z</time>
      </trkpt>
      <trkpt lat="43.76033" lon="7.07241">
        <ele>968.6</ele>
        <time>2025-01-25T12:50:34.000Z</time>
      </trkpt>
      <trkpt lat="43.76028" lon="7.07241">
        <ele>969.1</ele>
        <time>2025-01-25T12:50:37.000Z</time>
      </trkpt>
      <trkpt lat="43.76022" lon="7.07242">
        <ele>969.6</ele>
        <time>2025-01-25T12:50:40.000Z</time>
      </trkpt>
      <trkpt lat="43.76016" lon="7.07241">
        <ele>970.2</ele>
        <time>2025-01-25T12:50:44.000Z</time>
      </trkpt>
      <trkpt lat="43.76012" lon="7.07238">
        <ele>970.5</ele>
        <time>2025-01-25T12:50:47.000Z</time>
      </trkpt>
      <trkpt lat="43.76009" lon="7.07233">
        <ele>970.9</ele>
        <time>2025-01-25T12:50:50.000Z</time>
      </trkpt>
      <trkpt lat="43.76008" lon="7.07226">
        <ele>971</ele>
        <time>2025-01-25T12:50:52.000Z</time>
      </trkpt>
      <trkpt lat="43.76009" lon="7.07218">
        <ele>971.1</ele>
        <time>2025-01-25T12:50:54.000Z</time>
      </trkpt>
      <trkpt lat="43.76009" lon="7.0721">
        <ele>971.3</ele>
        <time>2025-01-25T12:50:57.000Z</time>
      </trkpt>
      <trkpt lat="43.76009" lon="7.07204">
        <ele>971.3</ele>
        <time>2025-01-25T12:50:59.000Z</time>
      </trkpt>
      <trkpt lat="43.76008" lon="7.07198">
        <ele>971.4</ele>
        <time>2025-01-25T12:51:01.000Z</time>
      </trkpt>
      <trkpt lat="43.76005" lon="7.07191">
        <ele>971.5</ele>
        <time>2025-01-25T12:51:04.000Z</time>
      </trkpt>
      <trkpt lat="43.76001" lon="7.07186">
        <ele>971.7</ele>
        <time>2025-01-25T12:51:07.000Z</time>
      </trkpt>
      <trkpt lat="43.75997" lon="7.0718">
        <ele>972</ele>
        <time>2025-01-25T12:51:10.000Z</time>
      </trkpt>
      <trkpt lat="43.75992" lon="7.07178">
        <ele>972.2</ele>
        <time>2025-01-25T12:51:13.000Z</time>
      </trkpt>
      <trkpt lat="43.75987" lon="7.07175">
        <ele>972.5</ele>
        <time>2025-01-25T12:51:16.000Z</time>
      </trkpt>
      <trkpt lat="43.75981" lon="7.07172">
        <ele>972.7</ele>
        <time>2025-01-25T12:51:19.000Z</time>
      </trkpt>
      <trkpt lat="43.75976" lon="7.07169">
        <ele>973</ele>
        <time>2025-01-25T12:51:22.000Z</time>
      </trkpt>
      <trkpt lat="43.75971" lon="7.07167">
        <ele>973.2</ele>
        <time>2025-01-25T12:51:25.000Z</time>
      </trkpt>
      <trkpt lat="43.75965" lon="7.07166">
        <ele>973.5</ele>
        <time>2025-01-25T12:51:28.000Z</time>
      </trkpt>
      <trkpt lat="43.75961" lon="7.07158">
        <ele>973.9</ele>
        <time>2025-01-25T12:51:31.000Z</time>
      </trkpt>
      <trkpt lat="43.75957" lon="7.07151">
        <ele>974</ele>
        <time>2025-01-25T12:51:33.000Z</time>
      </trkpt>
      <trkpt lat="43.75953" lon="7.07146">
        <ele>974</ele>
        <time>2025-01-25T12:51:34.000Z</time>
      </trkpt>
      <trkpt lat="43.75948" lon="7.07137">
        <ele>974</ele>
        <time>2025-01-25T12:51:36.000Z</time>
      </trkpt>
      <trkpt lat="43.75944" lon="7.07127">
        <ele>974.1</ele>
        <time>2025-01-25T12:51:38.000Z</time>
      </trkpt>
      <trkpt lat="43.75942" lon="7.07117">
        <ele>974</ele>
        <time>2025-01-25T12:51:40.000Z</time>
      </trkpt>
      <trkpt lat="43.75938" lon="7.07107">
        <ele>974</ele>
        <time>2025-01-25T12:51:42.000Z</time>
      </trkpt>
      <trkpt lat="43.75935" lon="7.07097">
        <ele>974.1</ele>
        <time>2025-01-25T12:51:44.000Z</time>
      </trkpt>
      <trkpt lat="43.75931" lon="7.07089">
        <ele>974.1</ele>
        <time>2025-01-25T12:51:46.000Z</time>
      </trkpt>
      <trkpt lat="43.75928" lon="7.07081">
        <ele>974.1</ele>
        <time>2025-01-25T12:51:48.000Z</time>
      </trkpt>
      <trkpt lat="43.75925" lon="7.07074">
        <ele>974.1</ele>
        <time>2025-01-25T12:51:50.000Z</time>
      </trkpt>
      <trkpt lat="43.75923" lon="7.07066">
        <ele>974.1</ele>
        <time>2025-01-25T12:51:52.000Z</time>
      </trkpt>
      <trkpt lat="43.75923" lon="7.07056">
        <ele>973.8</ele>
        <time>2025-01-25T12:51:54.000Z</time>
      </trkpt>
      <trkpt lat="43.75925" lon="7.07045">
        <ele>973.6</ele>
        <time>2025-01-25T12:51:56.000Z</time>
      </trkpt>
      <trkpt lat="43.75931" lon="7.07039">
        <ele>973.4</ele>
        <time>2025-01-25T12:51:58.000Z</time>
      </trkpt>
      <trkpt lat="43.75938" lon="7.07035">
        <ele>973.3</ele>
        <time>2025-01-25T12:52:00.000Z</time>
      </trkpt>
      <trkpt lat="43.7594" lon="7.07028">
        <ele>973.2</ele>
        <time>2025-01-25T12:52:03.000Z</time>
      </trkpt>
      <trkpt lat="43.75935" lon="7.07025">
        <ele>973.4</ele>
        <time>2025-01-25T12:52:21.000Z</time>
      </trkpt>
      <trkpt lat="43.75932" lon="7.07021">
        <ele>974</ele>
        <time>2025-01-25T12:52:29.000Z</time>
      </trkpt>
      <trkpt lat="43.75927" lon="7.0702">
        <ele>974.8</ele>
        <time>2025-01-25T12:52:35.000Z</time>
      </trkpt>
      <trkpt lat="43.75922" lon="7.07019">
        <ele>976.1</ele>
        <time>2025-01-25T12:52:43.000Z</time>
      </trkpt>
      <trkpt lat="43.75917" lon="7.07016">
        <ele>976.4</ele>
        <time>2025-01-25T12:52:46.000Z</time>
      </trkpt>
      <trkpt lat="43.75915" lon="7.0701">
        <ele>976.9</ele>
        <time>2025-01-25T12:52:50.000Z</time>
      </trkpt>
      <trkpt lat="43.75919" lon="7.07003">
        <ele>977.1</ele>
        <time>2025-01-25T12:52:53.000Z</time>
      </trkpt>
      <trkpt lat="43.75922" lon="7.06998">
        <ele>976.9</ele>
        <time>2025-01-25T12:52:55.000Z</time>
      </trkpt>
      <trkpt lat="43.75925" lon="7.06992">
        <ele>976.9</ele>
        <time>2025-01-25T12:52:57.000Z</time>
      </trkpt>
      <trkpt lat="43.75925" lon="7.06984">
        <ele>976.8</ele>
        <time>2025-01-25T12:52:59.000Z</time>
      </trkpt>
      <trkpt lat="43.75925" lon="7.06977">
        <ele>976.6</ele>
        <time>2025-01-25T12:53:01.000Z</time>
      </trkpt>
      <trkpt lat="43.75923" lon="7.0697">
        <ele>976.4</ele>
        <time>2025-01-25T12:53:03.000Z</time>
      </trkpt>
      <trkpt lat="43.75922" lon="7.06963">
        <ele>976.1</ele>
        <time>2025-01-25T12:53:05.000Z</time>
      </trkpt>
      <trkpt lat="43.75921" lon="7.06955">
        <ele>975.8</ele>
        <time>2025-01-25T12:53:07.000Z</time>
      </trkpt>
      <trkpt lat="43.75918" lon="7.06946">
        <ele>975.5</ele>
        <time>2025-01-25T12:53:09.000Z</time>
      </trkpt>
      <trkpt lat="43.75916" lon="7.0694">
        <ele>975.3</ele>
        <time>2025-01-25T12:53:11.000Z</time>
      </trkpt>
      <trkpt lat="43.75912" lon="7.06936">
        <ele>975.2</ele>
        <time>2025-01-25T12:53:13.000Z</time>
      </trkpt>
      <trkpt lat="43.75907" lon="7.06937">
        <ele>975.2</ele>
        <time>2025-01-25T12:53:15.000Z</time>
      </trkpt>
      <trkpt lat="43.75902" lon="7.06937">
        <ele>975.1</ele>
        <time>2025-01-25T12:53:17.000Z</time>
      </trkpt>
      <trkpt lat="43.75898" lon="7.06935">
        <ele>975.1</ele>
        <time>2025-01-25T12:53:19.000Z</time>
      </trkpt>
      <trkpt lat="43.75893" lon="7.06931">
        <ele>975.1</ele>
        <time>2025-01-25T12:53:21.000Z</time>
      </trkpt>
      <trkpt lat="43.75889" lon="7.06927">
        <ele>975.1</ele>
        <time>2025-01-25T12:53:23.000Z</time>
      </trkpt>
      <trkpt lat="43.75883" lon="7.06925">
        <ele>975.1</ele>
        <time>2025-01-25T12:53:25.000Z</time>
      </trkpt>
      <trkpt lat="43.75879" lon="7.06925">
        <ele>975.1</ele>
        <time>2025-01-25T12:53:27.000Z</time>
      </trkpt>
      <trkpt lat="43.75874" lon="7.06926">
        <ele>975.2</ele>
        <time>2025-01-25T12:53:29.000Z</time>
      </trkpt>
      <trkpt lat="43.75869" lon="7.06925">
        <ele>975.2</ele>
        <time>2025-01-25T12:53:31.000Z</time>
      </trkpt>
      <trkpt lat="43.75864" lon="7.06921">
        <ele>975.2</ele>
        <time>2025-01-25T12:53:33.000Z</time>
      </trkpt>
      <trkpt lat="43.75859" lon="7.06923">
        <ele>975.2</ele>
        <time>2025-01-25T12:53:35.000Z</time>
      </trkpt>
      <trkpt lat="43.75853" lon="7.06927">
        <ele>975.2</ele>
        <time>2025-01-25T12:53:37.000Z</time>
      </trkpt>
      <trkpt lat="43.75847" lon="7.06926">
        <ele>975.2</ele>
        <time>2025-01-25T12:53:39.000Z</time>
      </trkpt>
      <trkpt lat="43.75842" lon="7.06922">
        <ele>975.3</ele>
        <time>2025-01-25T12:53:41.000Z</time>
      </trkpt>
      <trkpt lat="43.75838" lon="7.06916">
        <ele>975.3</ele>
        <time>2025-01-25T12:53:43.000Z</time>
      </trkpt>
      <trkpt lat="43.75834" lon="7.06909">
        <ele>975.4</ele>
        <time>2025-01-25T12:53:45.000Z</time>
      </trkpt>
      <trkpt lat="43.7583" lon="7.06903">
        <ele>975.4</ele>
        <time>2025-01-25T12:53:47.000Z</time>
      </trkpt>
      <trkpt lat="43.75824" lon="7.06896">
        <ele>975.4</ele>
        <time>2025-01-25T12:53:49.000Z</time>
      </trkpt>
      <trkpt lat="43.75818" lon="7.06889">
        <ele>975.3</ele>
        <time>2025-01-25T12:53:51.000Z</time>
      </trkpt>
      <trkpt lat="43.75814" lon="7.06886">
        <ele>975.3</ele>
        <time>2025-01-25T12:53:52.000Z</time>
      </trkpt>
      <trkpt lat="43.75811" lon="7.06882">
        <ele>975.2</ele>
        <time>2025-01-25T12:53:53.000Z</time>
      </trkpt>
      <trkpt lat="43.75806" lon="7.06879">
        <ele>975.1</ele>
        <time>2025-01-25T12:53:54.000Z</time>
      </trkpt>
      <trkpt lat="43.75801" lon="7.06875">
        <ele>975.1</ele>
        <time>2025-01-25T12:53:56.000Z</time>
      </trkpt>
      <trkpt lat="43.75795" lon="7.06873">
        <ele>975</ele>
        <time>2025-01-25T12:53:58.000Z</time>
      </trkpt>
      <trkpt lat="43.75788" lon="7.06871">
        <ele>975</ele>
        <time>2025-01-25T12:54:01.000Z</time>
      </trkpt>
      <trkpt lat="43.75783" lon="7.0687">
        <ele>975</ele>
        <time>2025-01-25T12:54:03.000Z</time>
      </trkpt>
      <trkpt lat="43.75778" lon="7.06869">
        <ele>975.1</ele>
        <time>2025-01-25T12:54:05.000Z</time>
      </trkpt>
      <trkpt lat="43.75772" lon="7.06867">
        <ele>975.1</ele>
        <time>2025-01-25T12:54:07.000Z</time>
      </trkpt>
      <trkpt lat="43.75766" lon="7.06865">
        <ele>975.2</ele>
        <time>2025-01-25T12:54:09.000Z</time>
      </trkpt>
      <trkpt lat="43.75762" lon="7.06862">
        <ele>975.3</ele>
        <time>2025-01-25T12:54:11.000Z</time>
      </trkpt>
      <trkpt lat="43.75757" lon="7.06858">
        <ele>975.3</ele>
        <time>2025-01-25T12:54:13.000Z</time>
      </trkpt>
      <trkpt lat="43.75751" lon="7.06855">
        <ele>975.4</ele>
        <time>2025-01-25T12:54:15.000Z</time>
      </trkpt>
      <trkpt lat="43.75745" lon="7.06852">
        <ele>975.4</ele>
        <time>2025-01-25T12:54:17.000Z</time>
      </trkpt>
      <trkpt lat="43.75739" lon="7.06849">
        <ele>975.5</ele>
        <time>2025-01-25T12:54:19.000Z</time>
      </trkpt>
      <trkpt lat="43.75734" lon="7.06845">
        <ele>975.4</ele>
        <time>2025-01-25T12:54:21.000Z</time>
      </trkpt>
      <trkpt lat="43.7573" lon="7.06839">
        <ele>975.3</ele>
        <time>2025-01-25T12:54:23.000Z</time>
      </trkpt>
      <trkpt lat="43.75725" lon="7.0683">
        <ele>975.1</ele>
        <time>2025-01-25T12:54:25.000Z</time>
      </trkpt>
      <trkpt lat="43.75719" lon="7.06821">
        <ele>974.9</ele>
        <time>2025-01-25T12:54:27.000Z</time>
      </trkpt>
      <trkpt lat="43.75716" lon="7.06816">
        <ele>974.6</ele>
        <time>2025-01-25T12:54:28.000Z</time>
      </trkpt>
      <trkpt lat="43.75712" lon="7.06811">
        <ele>974</ele>
        <time>2025-01-25T12:54:29.000Z</time>
      </trkpt>
      <trkpt lat="43.75708" lon="7.06806">
        <ele>973.4</ele>
        <time>2025-01-25T12:54:30.000Z</time>
      </trkpt>
      <trkpt lat="43.75704" lon="7.068">
        <ele>973</ele>
        <time>2025-01-25T12:54:31.000Z</time>
      </trkpt>
      <trkpt lat="43.757" lon="7.06794">
        <ele>972.6</ele>
        <time>2025-01-25T12:54:32.000Z</time>
      </trkpt>
      <trkpt lat="43.75695" lon="7.06789">
        <ele>972</ele>
        <time>2025-01-25T12:54:33.000Z</time>
      </trkpt>
      <trkpt lat="43.75692" lon="7.06784">
        <ele>971.3</ele>
        <time>2025-01-25T12:54:34.000Z</time>
      </trkpt>
      <trkpt lat="43.75689" lon="7.06778">
        <ele>970.8</ele>
        <time>2025-01-25T12:54:35.000Z</time>
      </trkpt>
      <trkpt lat="43.75686" lon="7.06772">
        <ele>970.5</ele>
        <time>2025-01-25T12:54:36.000Z</time>
      </trkpt>
      <trkpt lat="43.75683" lon="7.06766">
        <ele>970.2</ele>
        <time>2025-01-25T12:54:37.000Z</time>
      </trkpt>
      <trkpt lat="43.7568" lon="7.06761">
        <ele>969.9</ele>
        <time>2025-01-25T12:54:38.000Z</time>
      </trkpt>
      <trkpt lat="43.75676" lon="7.06756">
        <ele>969.7</ele>
        <time>2025-01-25T12:54:39.000Z</time>
      </trkpt>
      <trkpt lat="43.75673" lon="7.06749">
        <ele>969.5</ele>
        <time>2025-01-25T12:54:40.000Z</time>
      </trkpt>
      <trkpt lat="43.7567" lon="7.06744">
        <ele>969.2</ele>
        <time>2025-01-25T12:54:41.000Z</time>
      </trkpt>
      <trkpt lat="43.75666" lon="7.06738">
        <ele>968.8</ele>
        <time>2025-01-25T12:54:42.000Z</time>
      </trkpt>
      <trkpt lat="43.75664" lon="7.06733">
        <ele>968.3</ele>
        <time>2025-01-25T12:54:43.000Z</time>
      </trkpt>
      <trkpt lat="43.7566" lon="7.06721">
        <ele>967.6</ele>
        <time>2025-01-25T12:54:45.000Z</time>
      </trkpt>
      <trkpt lat="43.75658" lon="7.06716">
        <ele>967.3</ele>
        <time>2025-01-25T12:54:46.000Z</time>
      </trkpt>
      <trkpt lat="43.75656" lon="7.0671">
        <ele>967.1</ele>
        <time>2025-01-25T12:54:47.000Z</time>
      </trkpt>
      <trkpt lat="43.7565" lon="7.06702">
        <ele>966.9</ele>
        <time>2025-01-25T12:54:49.000Z</time>
      </trkpt>
      <trkpt lat="43.75645" lon="7.06695">
        <ele>966.6</ele>
        <time>2025-01-25T12:54:51.000Z</time>
      </trkpt>
      <trkpt lat="43.75641" lon="7.06687">
        <ele>966.4</ele>
        <time>2025-01-25T12:54:53.000Z</time>
      </trkpt>
      <trkpt lat="43.75639" lon="7.06679">
        <ele>966.3</ele>
        <time>2025-01-25T12:54:55.000Z</time>
      </trkpt>
      <trkpt lat="43.75636" lon="7.06671">
        <ele>966.2</ele>
        <time>2025-01-25T12:54:57.000Z</time>
      </trkpt>
      <trkpt lat="43.75634" lon="7.06664">
        <ele>966.2</ele>
        <time>2025-01-25T12:54:59.000Z</time>
      </trkpt>
      <trkpt lat="43.7563" lon="7.06658">
        <ele>966.3</ele>
        <time>2025-01-25T12:55:01.000Z</time>
      </trkpt>
      <trkpt lat="43.75626" lon="7.06652">
        <ele>966.4</ele>
        <time>2025-01-25T12:55:03.000Z</time>
      </trkpt>
      <trkpt lat="43.75622" lon="7.06647">
        <ele>966.5</ele>
        <time>2025-01-25T12:55:05.000Z</time>
      </trkpt>
      <trkpt lat="43.75617" lon="7.06641">
        <ele>966.6</ele>
        <time>2025-01-25T12:55:07.000Z</time>
      </trkpt>
      <trkpt lat="43.75612" lon="7.06636">
        <ele>966.6</ele>
        <time>2025-01-25T12:55:09.000Z</time>
      </trkpt>
      <trkpt lat="43.75608" lon="7.06631">
        <ele>966.8</ele>
        <time>2025-01-25T12:55:11.000Z</time>
      </trkpt>
      <trkpt lat="43.75605" lon="7.06627">
        <ele>967.1</ele>
        <time>2025-01-25T12:55:13.000Z</time>
      </trkpt>
      <trkpt lat="43.75601" lon="7.06623">
        <ele>967.4</ele>
        <time>2025-01-25T12:55:15.000Z</time>
      </trkpt>
      <trkpt lat="43.75596" lon="7.06617">
        <ele>967.9</ele>
        <time>2025-01-25T12:55:18.000Z</time>
      </trkpt>
      <trkpt lat="43.75592" lon="7.0661">
        <ele>968.8</ele>
        <time>2025-01-25T12:55:21.000Z</time>
      </trkpt>
      <trkpt lat="43.75589" lon="7.06604">
        <ele>969.5</ele>
        <time>2025-01-25T12:55:24.000Z</time>
      </trkpt>
      <trkpt lat="43.75585" lon="7.066">
        <ele>970.2</ele>
        <time>2025-01-25T12:55:27.000Z</time>
      </trkpt>
      <trkpt lat="43.75581" lon="7.06595">
        <ele>970.7</ele>
        <time>2025-01-25T12:55:30.000Z</time>
      </trkpt>
      <trkpt lat="43.75576" lon="7.0659">
        <ele>971.1</ele>
        <time>2025-01-25T12:55:33.000Z</time>
      </trkpt>
      <trkpt lat="43.75573" lon="7.06585">
        <ele>971.6</ele>
        <time>2025-01-25T12:55:36.000Z</time>
      </trkpt>
      <trkpt lat="43.75569" lon="7.0658">
        <ele>972</ele>
        <time>2025-01-25T12:55:39.000Z</time>
      </trkpt>
      <trkpt lat="43.75565" lon="7.06574">
        <ele>972.3</ele>
        <time>2025-01-25T12:55:42.000Z</time>
      </trkpt>
      <trkpt lat="43.75561" lon="7.06567">
        <ele>972.6</ele>
        <time>2025-01-25T12:55:45.000Z</time>
      </trkpt>
      <trkpt lat="43.7556" lon="7.06567">
        <ele>973.3</ele>
        <time>2025-01-25T12:55:54.000Z</time>
      </trkpt>
      <trkpt lat="43.7556" lon="7.06568">
        <ele>973.3</ele>
        <time>2025-01-25T12:55:55.000Z</time>
      </trkpt>
      <trkpt lat="43.75561" lon="7.06567">
        <ele>973.6</ele>
        <time>2025-01-25T12:56:08.000Z</time>
      </trkpt>
      <trkpt lat="43.75562" lon="7.06567">
        <ele>973.6</ele>
        <time>2025-01-25T12:56:09.000Z</time>
      </trkpt>
      <trkpt lat="43.75562" lon="7.06566">
        <ele>973.6</ele>
        <time>2025-01-25T12:56:10.000Z</time>
      </trkpt>
      <trkpt lat="43.75562" lon="7.06566">
        <ele>973.6</ele>
        <time>2025-01-25T12:56:11.000Z</time>
      </trkpt>
      <trkpt lat="43.75562" lon="7.06566">
        <ele>973.6</ele>
        <time>2025-01-25T12:56:12.000Z</time>
      </trkpt>
      <trkpt lat="43.75558" lon="7.06559">
        <ele>973.6</ele>
        <time>2025-01-25T12:56:26.000Z</time>
      </trkpt>
      <trkpt lat="43.75557" lon="7.06557">
        <ele>973.7</ele>
        <time>2025-01-25T12:56:27.000Z</time>
      </trkpt>
      <trkpt lat="43.75556" lon="7.06555">
        <ele>973.7</ele>
        <time>2025-01-25T12:56:28.000Z</time>
      </trkpt>
      <trkpt lat="43.75551" lon="7.0655">
        <ele>973.8</ele>
        <time>2025-01-25T12:56:32.000Z</time>
      </trkpt>
      <trkpt lat="43.75548" lon="7.06546">
        <ele>973.9</ele>
        <time>2025-01-25T12:56:34.000Z</time>
      </trkpt>
      <trkpt lat="43.75545" lon="7.06541">
        <ele>973.9</ele>
        <time>2025-01-25T12:56:36.000Z</time>
      </trkpt>
      <trkpt lat="43.75543" lon="7.06534">
        <ele>973.9</ele>
        <time>2025-01-25T12:56:38.000Z</time>
      </trkpt>
      <trkpt lat="43.75538" lon="7.06523">
        <ele>973.7</ele>
        <time>2025-01-25T12:56:40.000Z</time>
      </trkpt>
      <trkpt lat="43.75535" lon="7.06517">
        <ele>973.6</ele>
        <time>2025-01-25T12:56:41.000Z</time>
      </trkpt>
      <trkpt lat="43.75532" lon="7.0651">
        <ele>973.5</ele>
        <time>2025-01-25T12:56:42.000Z</time>
      </trkpt>
      <trkpt lat="43.75529" lon="7.06505">
        <ele>973.4</ele>
        <time>2025-01-25T12:56:43.000Z</time>
      </trkpt>
      <trkpt lat="43.75525" lon="7.06498">
        <ele>973.2</ele>
        <time>2025-01-25T12:56:45.000Z</time>
      </trkpt>
      <trkpt lat="43.7552" lon="7.06493">
        <ele>973</ele>
        <time>2025-01-25T12:56:47.000Z</time>
      </trkpt>
      <trkpt lat="43.75516" lon="7.06488">
        <ele>973</ele>
        <time>2025-01-25T12:56:50.000Z</time>
      </trkpt>
      <trkpt lat="43.75513" lon="7.06484">
        <ele>973</ele>
        <time>2025-01-25T12:56:52.000Z</time>
      </trkpt>
      <trkpt lat="43.75509" lon="7.06478">
        <ele>972.8</ele>
        <time>2025-01-25T12:56:54.000Z</time>
      </trkpt>
      <trkpt lat="43.75503" lon="7.06473">
        <ele>972.7</ele>
        <time>2025-01-25T12:56:56.000Z</time>
      </trkpt>
      <trkpt lat="43.75498" lon="7.06467">
        <ele>972.7</ele>
        <time>2025-01-25T12:56:58.000Z</time>
      </trkpt>
      <trkpt lat="43.75495" lon="7.06462">
        <ele>972.7</ele>
        <time>2025-01-25T12:57:00.000Z</time>
      </trkpt>
      <trkpt lat="43.75492" lon="7.06458">
        <ele>972.7</ele>
        <time>2025-01-25T12:57:02.000Z</time>
      </trkpt>
      <trkpt lat="43.75486" lon="7.06454">
        <ele>972.8</ele>
        <time>2025-01-25T12:57:05.000Z</time>
      </trkpt>
      <trkpt lat="43.7548" lon="7.06449">
        <ele>973</ele>
        <time>2025-01-25T12:57:08.000Z</time>
      </trkpt>
      <trkpt lat="43.75476" lon="7.06447">
        <ele>973.3</ele>
        <time>2025-01-25T12:57:10.000Z</time>
      </trkpt>
      <trkpt lat="43.75472" lon="7.06444">
        <ele>973.5</ele>
        <time>2025-01-25T12:57:12.000Z</time>
      </trkpt>
      <trkpt lat="43.75467" lon="7.06441">
        <ele>973.7</ele>
        <time>2025-01-25T12:57:14.000Z</time>
      </trkpt>
      <trkpt lat="43.7546" lon="7.06439">
        <ele>974.1</ele>
        <time>2025-01-25T12:57:17.000Z</time>
      </trkpt>
      <trkpt lat="43.75456" lon="7.06439">
        <ele>974.3</ele>
        <time>2025-01-25T12:57:19.000Z</time>
      </trkpt>
      <trkpt lat="43.75451" lon="7.06439">
        <ele>974.6</ele>
        <time>2025-01-25T12:57:21.000Z</time>
      </trkpt>
      <trkpt lat="43.75446" lon="7.06438">
        <ele>974.8</ele>
        <time>2025-01-25T12:57:23.000Z</time>
      </trkpt>
      <trkpt lat="43.75441" lon="7.06437">
        <ele>975.1</ele>
        <time>2025-01-25T12:57:25.000Z</time>
      </trkpt>
      <trkpt lat="43.75437" lon="7.06437">
        <ele>975.4</ele>
        <time>2025-01-25T12:57:27.000Z</time>
      </trkpt>
      <trkpt lat="43.75431" lon="7.06437">
        <ele>975.7</ele>
        <time>2025-01-25T12:57:30.000Z</time>
      </trkpt>
      <trkpt lat="43.75426" lon="7.06438">
        <ele>975.8</ele>
        <time>2025-01-25T12:57:32.000Z</time>
      </trkpt>
      <trkpt lat="43.75421" lon="7.06442">
        <ele>975.8</ele>
        <time>2025-01-25T12:57:34.000Z</time>
      </trkpt>
      <trkpt lat="43.75417" lon="7.06446">
        <ele>975.7</ele>
        <time>2025-01-25T12:57:36.000Z</time>
      </trkpt>
      <trkpt lat="43.75412" lon="7.06447">
        <ele>975.5</ele>
        <time>2025-01-25T12:57:38.000Z</time>
      </trkpt>
      <trkpt lat="43.75407" lon="7.06446">
        <ele>975.5</ele>
        <time>2025-01-25T12:57:41.000Z</time>
      </trkpt>
      <trkpt lat="43.75403" lon="7.06441">
        <ele>975.5</ele>
        <time>2025-01-25T12:57:44.000Z</time>
      </trkpt>
      <trkpt lat="43.75397" lon="7.06437">
        <ele>975.5</ele>
        <time>2025-01-25T12:57:47.000Z</time>
      </trkpt>
      <trkpt lat="43.75391" lon="7.06435">
        <ele>975.5</ele>
        <time>2025-01-25T12:57:50.000Z</time>
      </trkpt>
      <trkpt lat="43.75385" lon="7.06436">
        <ele>975.5</ele>
        <time>2025-01-25T12:57:53.000Z</time>
      </trkpt>
      <trkpt lat="43.7538" lon="7.06436">
        <ele>975.6</ele>
        <time>2025-01-25T12:57:55.000Z</time>
      </trkpt>
      <trkpt lat="43.75374" lon="7.06435">
        <ele>975.7</ele>
        <time>2025-01-25T12:57:58.000Z</time>
      </trkpt>
      <trkpt lat="43.7537" lon="7.06432">
        <ele>976.1</ele>
        <time>2025-01-25T12:58:01.000Z</time>
      </trkpt>
      <trkpt lat="43.75366" lon="7.06425">
        <ele>976.7</ele>
        <time>2025-01-25T12:58:05.000Z</time>
      </trkpt>
      <trkpt lat="43.75364" lon="7.06418">
        <ele>977.6</ele>
        <time>2025-01-25T12:58:09.000Z</time>
      </trkpt>
      <trkpt lat="43.75361" lon="7.06413">
        <ele>978.2</ele>
        <time>2025-01-25T12:58:12.000Z</time>
      </trkpt>
      <trkpt lat="43.75357" lon="7.06407">
        <ele>979</ele>
        <time>2025-01-25T12:58:16.000Z</time>
      </trkpt>
      <trkpt lat="43.75355" lon="7.06402">
        <ele>979.4</ele>
        <time>2025-01-25T12:58:19.000Z</time>
      </trkpt>
      <trkpt lat="43.75351" lon="7.06399">
        <ele>979.8</ele>
        <time>2025-01-25T12:58:22.000Z</time>
      </trkpt>
      <trkpt lat="43.75346" lon="7.06399">
        <ele>980.2</ele>
        <time>2025-01-25T12:58:25.000Z</time>
      </trkpt>
      <trkpt lat="43.7534" lon="7.06399">
        <ele>980.4</ele>
        <time>2025-01-25T12:58:28.000Z</time>
      </trkpt>
      <trkpt lat="43.75334" lon="7.06399">
        <ele>980.8</ele>
        <time>2025-01-25T12:58:31.000Z</time>
      </trkpt>
      <trkpt lat="43.75329" lon="7.064">
        <ele>981.1</ele>
        <time>2025-01-25T12:58:33.000Z</time>
      </trkpt>
      <trkpt lat="43.75324" lon="7.06401">
        <ele>981.2</ele>
        <time>2025-01-25T12:58:35.000Z</time>
      </trkpt>
      <trkpt lat="43.75318" lon="7.06399">
        <ele>981.4</ele>
        <time>2025-01-25T12:58:38.000Z</time>
      </trkpt>
      <trkpt lat="43.75312" lon="7.06398">
        <ele>981.5</ele>
        <time>2025-01-25T12:58:41.000Z</time>
      </trkpt>
      <trkpt lat="43.75307" lon="7.06395">
        <ele>981.7</ele>
        <time>2025-01-25T12:58:44.000Z</time>
      </trkpt>
      <trkpt lat="43.75302" lon="7.06394">
        <ele>981.9</ele>
        <time>2025-01-25T12:58:47.000Z</time>
      </trkpt>
      <trkpt lat="43.75296" lon="7.06393">
        <ele>982.1</ele>
        <time>2025-01-25T12:58:50.000Z</time>
      </trkpt>
      <trkpt lat="43.75292" lon="7.06391">
        <ele>982.4</ele>
        <time>2025-01-25T12:58:53.000Z</time>
      </trkpt>
      <trkpt lat="43.75288" lon="7.06389">
        <ele>982.8</ele>
        <time>2025-01-25T12:58:56.000Z</time>
      </trkpt>
      <trkpt lat="43.75284" lon="7.06384">
        <ele>983.2</ele>
        <time>2025-01-25T12:58:59.000Z</time>
      </trkpt>
      <trkpt lat="43.75279" lon="7.06381">
        <ele>983.5</ele>
        <time>2025-01-25T12:59:02.000Z</time>
      </trkpt>
      <trkpt lat="43.75275" lon="7.06378">
        <ele>983.8</ele>
        <time>2025-01-25T12:59:04.000Z</time>
      </trkpt>
      <trkpt lat="43.75269" lon="7.06372">
        <ele>983.9</ele>
        <time>2025-01-25T12:59:06.000Z</time>
      </trkpt>
      <trkpt lat="43.75262" lon="7.06366">
        <ele>983.7</ele>
        <time>2025-01-25T12:59:08.000Z</time>
      </trkpt>
      <trkpt lat="43.75258" lon="7.06362">
        <ele>983.6</ele>
        <time>2025-01-25T12:59:09.000Z</time>
      </trkpt>
      <trkpt lat="43.75254" lon="7.0636">
        <ele>983.6</ele>
        <time>2025-01-25T12:59:10.000Z</time>
      </trkpt>
      <trkpt lat="43.7525" lon="7.06356">
        <ele>983.6</ele>
        <time>2025-01-25T12:59:11.000Z</time>
      </trkpt>
      <trkpt lat="43.75247" lon="7.06351">
        <ele>983.5</ele>
        <time>2025-01-25T12:59:12.000Z</time>
      </trkpt>
      <trkpt lat="43.75245" lon="7.06345">
        <ele>983.6</ele>
        <time>2025-01-25T12:59:13.000Z</time>
      </trkpt>
      <trkpt lat="43.75242" lon="7.06339">
        <ele>983.5</ele>
        <time>2025-01-25T12:59:14.000Z</time>
      </trkpt>
      <trkpt lat="43.7524" lon="7.06333">
        <ele>983.4</ele>
        <time>2025-01-25T12:59:15.000Z</time>
      </trkpt>
      <trkpt lat="43.75236" lon="7.06323">
        <ele>983.2</ele>
        <time>2025-01-25T12:59:17.000Z</time>
      </trkpt>
      <trkpt lat="43.75234" lon="7.06317">
        <ele>983</ele>
        <time>2025-01-25T12:59:18.000Z</time>
      </trkpt>
      <trkpt lat="43.75231" lon="7.06312">
        <ele>982.8</ele>
        <time>2025-01-25T12:59:19.000Z</time>
      </trkpt>
      <trkpt lat="43.75228" lon="7.06302">
        <ele>982.3</ele>
        <time>2025-01-25T12:59:21.000Z</time>
      </trkpt>
      <trkpt lat="43.75226" lon="7.06295">
        <ele>981.9</ele>
        <time>2025-01-25T12:59:23.000Z</time>
      </trkpt>
      <trkpt lat="43.75226" lon="7.06286">
        <ele>981.7</ele>
        <time>2025-01-25T12:59:26.000Z</time>
      </trkpt>
      <trkpt lat="43.7523" lon="7.06279">
        <ele>981.8</ele>
        <time>2025-01-25T12:59:29.000Z</time>
      </trkpt>
      <trkpt lat="43.75231" lon="7.06271">
        <ele>982</ele>
        <time>2025-01-25T12:59:32.000Z</time>
      </trkpt>
      <trkpt lat="43.75231" lon="7.06263">
        <ele>982.1</ele>
        <time>2025-01-25T12:59:35.000Z</time>
      </trkpt>
      <trkpt lat="43.7523" lon="7.06257">
        <ele>982.1</ele>
        <time>2025-01-25T12:59:37.000Z</time>
      </trkpt>
      <trkpt lat="43.75229" lon="7.06249">
        <ele>982.2</ele>
        <time>2025-01-25T12:59:40.000Z</time>
      </trkpt>
      <trkpt lat="43.75227" lon="7.06241">
        <ele>982.3</ele>
        <time>2025-01-25T12:59:43.000Z</time>
      </trkpt>
      <trkpt lat="43.75226" lon="7.06234">
        <ele>982.4</ele>
        <time>2025-01-25T12:59:45.000Z</time>
      </trkpt>
      <trkpt lat="43.75225" lon="7.06228">
        <ele>982.5</ele>
        <time>2025-01-25T12:59:47.000Z</time>
      </trkpt>
      <trkpt lat="43.75223" lon="7.06222">
        <ele>982.6</ele>
        <time>2025-01-25T12:59:49.000Z</time>
      </trkpt>
      <trkpt lat="43.75218" lon="7.06216">
        <ele>982.4</ele>
        <time>2025-01-25T12:59:51.000Z</time>
      </trkpt>
      <trkpt lat="43.75213" lon="7.06208">
        <ele>982.1</ele>
        <time>2025-01-25T12:59:53.000Z</time>
      </trkpt>
      <trkpt lat="43.7521" lon="7.06203">
        <ele>982</ele>
        <time>2025-01-25T12:59:54.000Z</time>
      </trkpt>
      <trkpt lat="43.75206" lon="7.06197">
        <ele>981.8</ele>
        <time>2025-01-25T12:59:55.000Z</time>
      </trkpt>
      <trkpt lat="43.75202" lon="7.06189">
        <ele>981.7</ele>
        <time>2025-01-25T12:59:56.000Z</time>
      </trkpt>
      <trkpt lat="43.75198" lon="7.06181">
        <ele>981.5</ele>
        <time>2025-01-25T12:59:57.000Z</time>
      </trkpt>
      <trkpt lat="43.75194" lon="7.06176">
        <ele>981.3</ele>
        <time>2025-01-25T12:59:58.000Z</time>
      </trkpt>
      <trkpt lat="43.75189" lon="7.06171">
        <ele>980.9</ele>
        <time>2025-01-25T12:59:59.000Z</time>
      </trkpt>
      <trkpt lat="43.75185" lon="7.06165">
        <ele>980.4</ele>
        <time>2025-01-25T13:00:00.000Z</time>
      </trkpt>
      <trkpt lat="43.75182" lon="7.06159">
        <ele>979.7</ele>
        <time>2025-01-25T13:00:01.000Z</time>
      </trkpt>
      <trkpt lat="43.75179" lon="7.06154">
        <ele>978.9</ele>
        <time>2025-01-25T13:00:02.000Z</time>
      </trkpt>
      <trkpt lat="43.75173" lon="7.06145">
        <ele>977.4</ele>
        <time>2025-01-25T13:00:04.000Z</time>
      </trkpt>
      <trkpt lat="43.75169" lon="7.06141">
        <ele>976.9</ele>
        <time>2025-01-25T13:00:05.000Z</time>
      </trkpt>
      <trkpt lat="43.75163" lon="7.06133">
        <ele>976.3</ele>
        <time>2025-01-25T13:00:07.000Z</time>
      </trkpt>
      <trkpt lat="43.75158" lon="7.06124">
        <ele>975.8</ele>
        <time>2025-01-25T13:00:09.000Z</time>
      </trkpt>
      <trkpt lat="43.75153" lon="7.06117">
        <ele>975.6</ele>
        <time>2025-01-25T13:00:11.000Z</time>
      </trkpt>
      <trkpt lat="43.75147" lon="7.06111">
        <ele>975.4</ele>
        <time>2025-01-25T13:00:13.000Z</time>
      </trkpt>
      <trkpt lat="43.75141" lon="7.06105">
        <ele>975.3</ele>
        <time>2025-01-25T13:00:15.000Z</time>
      </trkpt>
      <trkpt lat="43.75135" lon="7.06101">
        <ele>975.3</ele>
        <time>2025-01-25T13:00:17.000Z</time>
      </trkpt>
      <trkpt lat="43.7513" lon="7.06095">
        <ele>975.4</ele>
        <time>2025-01-25T13:00:19.000Z</time>
      </trkpt>
      <trkpt lat="43.75125" lon="7.06088">
        <ele>975.4</ele>
        <time>2025-01-25T13:00:21.000Z</time>
      </trkpt>
      <trkpt lat="43.75119" lon="7.06082">
        <ele>975.4</ele>
        <time>2025-01-25T13:00:23.000Z</time>
      </trkpt>
      <trkpt lat="43.75114" lon="7.06077">
        <ele>975.4</ele>
        <time>2025-01-25T13:00:25.000Z</time>
      </trkpt>
      <trkpt lat="43.75108" lon="7.06073">
        <ele>975.1</ele>
        <time>2025-01-25T13:00:27.000Z</time>
      </trkpt>
      <trkpt lat="43.75103" lon="7.06072">
        <ele>974.8</ele>
        <time>2025-01-25T13:00:29.000Z</time>
      </trkpt>
      <trkpt lat="43.75098" lon="7.06068">
        <ele>974.5</ele>
        <time>2025-01-25T13:00:31.000Z</time>
      </trkpt>
      <trkpt lat="43.75092" lon="7.06063">
        <ele>974</ele>
        <time>2025-01-25T13:00:33.000Z</time>
      </trkpt>
      <trkpt lat="43.75086" lon="7.06065">
        <ele>972.9</ele>
        <time>2025-01-25T13:00:35.000Z</time>
      </trkpt>
      <trkpt lat="43.75078" lon="7.06061">
        <ele>971.7</ele>
        <time>2025-01-25T13:00:37.000Z</time>
      </trkpt>
      <trkpt lat="43.75073" lon="7.06053">
        <ele>971</ele>
        <time>2025-01-25T13:00:39.000Z</time>
      </trkpt>
      <trkpt lat="43.75069" lon="7.06047">
        <ele>971</ele>
        <time>2025-01-25T13:00:42.000Z</time>
      </trkpt>
      <trkpt lat="43.75063" lon="7.06042">
        <ele>971.2</ele>
        <time>2025-01-25T13:00:45.000Z</time>
      </trkpt>
      <trkpt lat="43.75059" lon="7.06039">
        <ele>971.3</ele>
        <time>2025-01-25T13:00:47.000Z</time>
      </trkpt>
      <trkpt lat="43.75056" lon="7.06034">
        <ele>971.5</ele>
        <time>2025-01-25T13:00:49.000Z</time>
      </trkpt>
      <trkpt lat="43.75051" lon="7.06029">
        <ele>971.5</ele>
        <time>2025-01-25T13:00:51.000Z</time>
      </trkpt>
      <trkpt lat="43.75045" lon="7.06026">
        <ele>971.6</ele>
        <time>2025-01-25T13:00:53.000Z</time>
      </trkpt>
      <trkpt lat="43.75039" lon="7.06023">
        <ele>971.5</ele>
        <time>2025-01-25T13:00:55.000Z</time>
      </trkpt>
      <trkpt lat="43.75034" lon="7.06017">
        <ele>971.5</ele>
        <time>2025-01-25T13:00:57.000Z</time>
      </trkpt>
      <trkpt lat="43.75032" lon="7.06009">
        <ele>971.5</ele>
        <time>2025-01-25T13:00:59.000Z</time>
      </trkpt>
      <trkpt lat="43.75031" lon="7.06001">
        <ele>971.5</ele>
        <time>2025-01-25T13:01:01.000Z</time>
      </trkpt>
      <trkpt lat="43.7503" lon="7.05992">
        <ele>971.6</ele>
        <time>2025-01-25T13:01:03.000Z</time>
      </trkpt>
      <trkpt lat="43.75031" lon="7.05984">
        <ele>971.7</ele>
        <time>2025-01-25T13:01:05.000Z</time>
      </trkpt>
      <trkpt lat="43.7503" lon="7.05976">
        <ele>971.7</ele>
        <time>2025-01-25T13:01:07.000Z</time>
      </trkpt>
      <trkpt lat="43.75029" lon="7.05968">
        <ele>971.8</ele>
        <time>2025-01-25T13:01:09.000Z</time>
      </trkpt>
      <trkpt lat="43.75028" lon="7.05958">
        <ele>971.8</ele>
        <time>2025-01-25T13:01:11.000Z</time>
      </trkpt>
      <trkpt lat="43.75026" lon="7.05947">
        <ele>971.8</ele>
        <time>2025-01-25T13:01:13.000Z</time>
      </trkpt>
      <trkpt lat="43.75023" lon="7.05938">
        <ele>971.7</ele>
        <time>2025-01-25T13:01:15.000Z</time>
      </trkpt>
      <trkpt lat="43.75019" lon="7.05932">
        <ele>971.6</ele>
        <time>2025-01-25T13:01:17.000Z</time>
      </trkpt>
      <trkpt lat="43.75015" lon="7.05925">
        <ele>971.6</ele>
        <time>2025-01-25T13:01:20.000Z</time>
      </trkpt>
      <trkpt lat="43.75013" lon="7.0592">
        <ele>971.7</ele>
        <time>2025-01-25T13:01:24.000Z</time>
      </trkpt>
      <trkpt lat="43.7501" lon="7.05913">
        <ele>971.8</ele>
        <time>2025-01-25T13:01:27.000Z</time>
      </trkpt>
      <trkpt lat="43.75009" lon="7.05907">
        <ele>972.1</ele>
        <time>2025-01-25T13:01:30.000Z</time>
      </trkpt>
      <trkpt lat="43.75007" lon="7.05899">
        <ele>972.9</ele>
        <time>2025-01-25T13:01:34.000Z</time>
      </trkpt>
      <trkpt lat="43.75005" lon="7.05892">
        <ele>973.8</ele>
        <time>2025-01-25T13:01:38.000Z</time>
      </trkpt>
      <trkpt lat="43.75004" lon="7.05884">
        <ele>974.8</ele>
        <time>2025-01-25T13:01:42.000Z</time>
      </trkpt>
      <trkpt lat="43.75004" lon="7.05877">
        <ele>975.4</ele>
        <time>2025-01-25T13:01:46.000Z</time>
      </trkpt>
      <trkpt lat="43.75005" lon="7.0587">
        <ele>975.8</ele>
        <time>2025-01-25T13:01:49.000Z</time>
      </trkpt>
      <trkpt lat="43.75003" lon="7.05864">
        <ele>976.1</ele>
        <time>2025-01-25T13:01:52.000Z</time>
      </trkpt>
      <trkpt lat="43.75001" lon="7.05856">
        <ele>976.3</ele>
        <time>2025-01-25T13:01:55.000Z</time>
      </trkpt>
      <trkpt lat="43.74998" lon="7.0585">
        <ele>976.4</ele>
        <time>2025-01-25T13:01:57.000Z</time>
      </trkpt>
      <trkpt lat="43.74994" lon="7.05843">
        <ele>976.5</ele>
        <time>2025-01-25T13:01:59.000Z</time>
      </trkpt>
      <trkpt lat="43.74992" lon="7.05836">
        <ele>976.5</ele>
        <time>2025-01-25T13:02:01.000Z</time>
      </trkpt>
      <trkpt lat="43.74991" lon="7.05829">
        <ele>976.5</ele>
        <time>2025-01-25T13:02:03.000Z</time>
      </trkpt>
      <trkpt lat="43.7499" lon="7.05821">
        <ele>976.6</ele>
        <time>2025-01-25T13:02:05.000Z</time>
      </trkpt>
      <trkpt lat="43.74989" lon="7.05815">
        <ele>976.7</ele>
        <time>2025-01-25T13:02:07.000Z</time>
      </trkpt>
      <trkpt lat="43.74986" lon="7.05809">
        <ele>976.7</ele>
        <time>2025-01-25T13:02:09.000Z</time>
      </trkpt>
      <trkpt lat="43.74981" lon="7.05804">
        <ele>976.6</ele>
        <time>2025-01-25T13:02:11.000Z</time>
      </trkpt>
      <trkpt lat="43.74977" lon="7.05799">
        <ele>976.7</ele>
        <time>2025-01-25T13:02:13.000Z</time>
      </trkpt>
      <trkpt lat="43.74973" lon="7.05796">
        <ele>976.8</ele>
        <time>2025-01-25T13:02:15.000Z</time>
      </trkpt>
      <trkpt lat="43.7497" lon="7.05791">
        <ele>976.8</ele>
        <time>2025-01-25T13:02:17.000Z</time>
      </trkpt>
      <trkpt lat="43.74966" lon="7.05783">
        <ele>976.7</ele>
        <time>2025-01-25T13:02:19.000Z</time>
      </trkpt>
      <trkpt lat="43.74963" lon="7.05775">
        <ele>976.7</ele>
        <time>2025-01-25T13:02:21.000Z</time>
      </trkpt>
      <trkpt lat="43.7496" lon="7.05768">
        <ele>976.5</ele>
        <time>2025-01-25T13:02:23.000Z</time>
      </trkpt>
      <trkpt lat="43.74958" lon="7.05762">
        <ele>976.5</ele>
        <time>2025-01-25T13:02:25.000Z</time>
      </trkpt>
      <trkpt lat="43.74958" lon="7.05755">
        <ele>976.4</ele>
        <time>2025-01-25T13:02:27.000Z</time>
      </trkpt>
      <trkpt lat="43.74958" lon="7.05747">
        <ele>976.2</ele>
        <time>2025-01-25T13:02:30.000Z</time>
      </trkpt>
      <trkpt lat="43.7496" lon="7.05748">
        <ele>976.1</ele>
        <time>2025-01-25T13:02:34.000Z</time>
      </trkpt>
      <trkpt lat="43.7496" lon="7.05749">
        <ele>976.1</ele>
        <time>2025-01-25T13:02:35.000Z</time>
      </trkpt>
      <trkpt lat="43.74958" lon="7.0575">
        <ele>975.7</ele>
        <time>2025-01-25T13:04:15.000Z</time>
      </trkpt>
      <trkpt lat="43.74958" lon="7.05749">
        <ele>975.7</ele>
        <time>2025-01-25T13:04:16.000Z</time>
      </trkpt>
      <trkpt lat="43.74958" lon="7.05749">
        <ele>975.7</ele>
        <time>2025-01-25T13:04:17.000Z</time>
      </trkpt>
      <trkpt lat="43.74958" lon="7.05748">
        <ele>975.7</ele>
        <time>2025-01-25T13:04:23.000Z</time>
      </trkpt>
      <trkpt lat="43.74958" lon="7.05748">
        <ele>975.7</ele>
        <time>2025-01-25T13:05:06.000Z</time>
      </trkpt>
      <trkpt lat="43.74958" lon="7.05748">
        <ele>975.7</ele>
        <time>2025-01-25T13:05:07.000Z</time>
      </trkpt>
      <trkpt lat="43.74958" lon="7.05748">
        <ele>975.7</ele>
        <time>2025-01-25T13:05:08.000Z</time>
      </trkpt>
      <trkpt lat="43.74958" lon="7.05748">
        <ele>975.7</ele>
        <time>2025-01-25T13:05:09.000Z</time>
      </trkpt>
      <trkpt lat="43.74958" lon="7.05748">
        <ele>975.7</ele>
        <time>2025-01-25T13:05:10.000Z</time>
      </trkpt>
      <trkpt lat="43.74958" lon="7.05749">
        <ele>975.7</ele>
        <time>2025-01-25T13:05:21.000Z</time>
      </trkpt>
      <trkpt lat="43.74957" lon="7.05749">
        <ele>975.7</ele>
        <time>2025-01-25T13:05:22.000Z</time>
      </trkpt>
      <trkpt lat="43.74957" lon="7.05748">
        <ele>975.7</ele>
        <time>2025-01-25T13:05:23.000Z</time>
      </trkpt>
      <trkpt lat="43.74957" lon="7.05749">
        <ele>975.7</ele>
        <time>2025-01-25T13:05:24.000Z</time>
      </trkpt>
      <trkpt lat="43.74958" lon="7.05748">
        <ele>975.7</ele>
        <time>2025-01-25T13:05:25.000Z</time>
      </trkpt>
      <trkpt lat="43.74959" lon="7.05749">
        <ele>975.7</ele>
        <time>2025-01-25T13:05:26.000Z</time>
      </trkpt>
      <trkpt lat="43.7496" lon="7.05749">
        <ele>975.8</ele>
        <time>2025-01-25T13:05:27.000Z</time>
      </trkpt>
      <trkpt lat="43.74964" lon="7.05743">
        <ele>975.9</ele>
        <time>2025-01-25T13:05:34.000Z</time>
      </trkpt>
      <trkpt lat="43.74966" lon="7.05737">
        <ele>975.9</ele>
        <time>2025-01-25T13:05:36.000Z</time>
      </trkpt>
      <trkpt lat="43.74969" lon="7.0573">
        <ele>976.1</ele>
        <time>2025-01-25T13:05:39.000Z</time>
      </trkpt>
      <trkpt lat="43.74972" lon="7.05722">
        <ele>976.5</ele>
        <time>2025-01-25T13:05:42.000Z</time>
      </trkpt>
      <trkpt lat="43.74975" lon="7.05715">
        <ele>977</ele>
        <time>2025-01-25T13:05:45.000Z</time>
      </trkpt>
      <trkpt lat="43.74978" lon="7.05709">
        <ele>977.3</ele>
        <time>2025-01-25T13:05:47.000Z</time>
      </trkpt>
      <trkpt lat="43.7498" lon="7.05704">
        <ele>977.7</ele>
        <time>2025-01-25T13:05:49.000Z</time>
      </trkpt>
      <trkpt lat="43.74984" lon="7.05698">
        <ele>978.2</ele>
        <time>2025-01-25T13:05:51.000Z</time>
      </trkpt>
      <trkpt lat="43.74986" lon="7.05693">
        <ele>978.5</ele>
        <time>2025-01-25T13:05:53.000Z</time>
      </trkpt>
      <trkpt lat="43.74989" lon="7.05687">
        <ele>978.8</ele>
        <time>2025-01-25T13:05:56.000Z</time>
      </trkpt>
      <trkpt lat="43.74994" lon="7.05684">
        <ele>979.3</ele>
        <time>2025-01-25T13:06:00.000Z</time>
      </trkpt>
      <trkpt lat="43.75" lon="7.05685">
        <ele>979.8</ele>
        <time>2025-01-25T13:06:04.000Z</time>
      </trkpt>
      <trkpt lat="43.75005" lon="7.05685">
        <ele>980</ele>
        <time>2025-01-25T13:06:06.000Z</time>
      </trkpt>
      <trkpt lat="43.75011" lon="7.05685">
        <ele>980.2</ele>
        <time>2025-01-25T13:06:08.000Z</time>
      </trkpt>
      <trkpt lat="43.75016" lon="7.05681">
        <ele>980.4</ele>
        <time>2025-01-25T13:06:10.000Z</time>
      </trkpt>
      <trkpt lat="43.75021" lon="7.05678">
        <ele>980.7</ele>
        <time>2025-01-25T13:06:13.000Z</time>
      </trkpt>
      <trkpt lat="43.75025" lon="7.05675">
        <ele>981.1</ele>
        <time>2025-01-25T13:06:16.000Z</time>
      </trkpt>
      <trkpt lat="43.7503" lon="7.0567">
        <ele>981.6</ele>
        <time>2025-01-25T13:06:19.000Z</time>
      </trkpt>
      <trkpt lat="43.75034" lon="7.05665">
        <ele>982.3</ele>
        <time>2025-01-25T13:06:22.000Z</time>
      </trkpt>
      <trkpt lat="43.75038" lon="7.0566">
        <ele>982.9</ele>
        <time>2025-01-25T13:06:25.000Z</time>
      </trkpt>
      <trkpt lat="43.75042" lon="7.05655">
        <ele>983.2</ele>
        <time>2025-01-25T13:06:28.000Z</time>
      </trkpt>
      <trkpt lat="43.75044" lon="7.0565">
        <ele>983.5</ele>
        <time>2025-01-25T13:06:31.000Z</time>
      </trkpt>
      <trkpt lat="43.75045" lon="7.05642">
        <ele>983.8</ele>
        <time>2025-01-25T13:06:34.000Z</time>
      </trkpt>
      <trkpt lat="43.75048" lon="7.05633">
        <ele>983.9</ele>
        <time>2025-01-25T13:06:37.000Z</time>
      </trkpt>
      <trkpt lat="43.75052" lon="7.05626">
        <ele>983.9</ele>
        <time>2025-01-25T13:06:40.000Z</time>
      </trkpt>
      <trkpt lat="43.75057" lon="7.05621">
        <ele>984</ele>
        <time>2025-01-25T13:06:43.000Z</time>
      </trkpt>
      <trkpt lat="43.75063" lon="7.05614">
        <ele>983.9</ele>
        <time>2025-01-25T13:06:46.000Z</time>
      </trkpt>
      <trkpt lat="43.75066" lon="7.05608">
        <ele>983.7</ele>
        <time>2025-01-25T13:06:48.000Z</time>
      </trkpt>
      <trkpt lat="43.7507" lon="7.05603">
        <ele>983.7</ele>
        <time>2025-01-25T13:06:50.000Z</time>
      </trkpt>
      <trkpt lat="43.75076" lon="7.05599">
        <ele>983.5</ele>
        <time>2025-01-25T13:06:52.000Z</time>
      </trkpt>
      <trkpt lat="43.75081" lon="7.05594">
        <ele>983.3</ele>
        <time>2025-01-25T13:06:54.000Z</time>
      </trkpt>
      <trkpt lat="43.75088" lon="7.05589">
        <ele>983.1</ele>
        <time>2025-01-25T13:06:56.000Z</time>
      </trkpt>
      <trkpt lat="43.75092" lon="7.05586">
        <ele>982.9</ele>
        <time>2025-01-25T13:06:57.000Z</time>
      </trkpt>
      <trkpt lat="43.75098" lon="7.05583">
        <ele>982.6</ele>
        <time>2025-01-25T13:06:58.000Z</time>
      </trkpt>
      <trkpt lat="43.75102" lon="7.05579">
        <ele>982.3</ele>
        <time>2025-01-25T13:06:59.000Z</time>
      </trkpt>
      <trkpt lat="43.75107" lon="7.05576">
        <ele>982</ele>
        <time>2025-01-25T13:07:00.000Z</time>
      </trkpt>
      <trkpt lat="43.75111" lon="7.05572">
        <ele>981.8</ele>
        <time>2025-01-25T13:07:01.000Z</time>
      </trkpt>
      <trkpt lat="43.75115" lon="7.05568">
        <ele>981.5</ele>
        <time>2025-01-25T13:07:02.000Z</time>
      </trkpt>
      <trkpt lat="43.75119" lon="7.05565">
        <ele>981.2</ele>
        <time>2025-01-25T13:07:03.000Z</time>
      </trkpt>
      <trkpt lat="43.75127" lon="7.05561">
        <ele>980.4</ele>
        <time>2025-01-25T13:07:05.000Z</time>
      </trkpt>
      <trkpt lat="43.75134" lon="7.05558">
        <ele>979.7</ele>
        <time>2025-01-25T13:07:07.000Z</time>
      </trkpt>
      <trkpt lat="43.75142" lon="7.05553">
        <ele>979.3</ele>
        <time>2025-01-25T13:07:09.000Z</time>
      </trkpt>
      <trkpt lat="43.75149" lon="7.05548">
        <ele>978.9</ele>
        <time>2025-01-25T13:07:11.000Z</time>
      </trkpt>
      <trkpt lat="43.75155" lon="7.05542">
        <ele>978.7</ele>
        <time>2025-01-25T13:07:13.000Z</time>
      </trkpt>
      <trkpt lat="43.7516" lon="7.05535">
        <ele>978.1</ele>
        <time>2025-01-25T13:07:15.000Z</time>
      </trkpt>
      <trkpt lat="43.75165" lon="7.05528">
        <ele>977.3</ele>
        <time>2025-01-25T13:07:17.000Z</time>
      </trkpt>
      <trkpt lat="43.75171" lon="7.05521">
        <ele>976.7</ele>
        <time>2025-01-25T13:07:19.000Z</time>
      </trkpt>
      <trkpt lat="43.75175" lon="7.05512">
        <ele>976.2</ele>
        <time>2025-01-25T13:07:21.000Z</time>
      </trkpt>
      <trkpt lat="43.75179" lon="7.05505">
        <ele>975.8</ele>
        <time>2025-01-25T13:07:23.000Z</time>
      </trkpt>
      <trkpt lat="43.75184" lon="7.055">
        <ele>975.6</ele>
        <time>2025-01-25T13:07:26.000Z</time>
      </trkpt>
      <trkpt lat="43.75188" lon="7.05495">
        <ele>975.5</ele>
        <time>2025-01-25T13:07:29.000Z</time>
      </trkpt>
      <trkpt lat="43.75192" lon="7.0549">
        <ele>975.5</ele>
        <time>2025-01-25T13:07:31.000Z</time>
      </trkpt>
      <trkpt lat="43.75197" lon="7.05486">
        <ele>975.5</ele>
        <time>2025-01-25T13:07:33.000Z</time>
      </trkpt>
      <trkpt lat="43.75201" lon="7.05482">
        <ele>975.4</ele>
        <time>2025-01-25T13:07:35.000Z</time>
      </trkpt>
      <trkpt lat="43.75207" lon="7.05477">
        <ele>975.5</ele>
        <time>2025-01-25T13:07:37.000Z</time>
      </trkpt>
      <trkpt lat="43.75212" lon="7.05471">
        <ele>975.5</ele>
        <time>2025-01-25T13:07:39.000Z</time>
      </trkpt>
      <trkpt lat="43.75216" lon="7.05466">
        <ele>975.6</ele>
        <time>2025-01-25T13:07:41.000Z</time>
      </trkpt>
      <trkpt lat="43.75221" lon="7.0546">
        <ele>975.7</ele>
        <time>2025-01-25T13:07:44.000Z</time>
      </trkpt>
      <trkpt lat="43.75225" lon="7.05455">
        <ele>975.8</ele>
        <time>2025-01-25T13:07:46.000Z</time>
      </trkpt>
      <trkpt lat="43.7523" lon="7.0545">
        <ele>976</ele>
        <time>2025-01-25T13:07:48.000Z</time>
      </trkpt>
      <trkpt lat="43.75233" lon="7.05444">
        <ele>976.1</ele>
        <time>2025-01-25T13:07:50.000Z</time>
      </trkpt>
      <trkpt lat="43.75238" lon="7.05439">
        <ele>976.3</ele>
        <time>2025-01-25T13:07:52.000Z</time>
      </trkpt>
      <trkpt lat="43.75242" lon="7.05435">
        <ele>976.5</ele>
        <time>2025-01-25T13:07:54.000Z</time>
      </trkpt>
      <trkpt lat="43.75246" lon="7.0543">
        <ele>976.7</ele>
        <time>2025-01-25T13:07:56.000Z</time>
      </trkpt>
      <trkpt lat="43.7525" lon="7.05425">
        <ele>977</ele>
        <time>2025-01-25T13:07:58.000Z</time>
      </trkpt>
      <trkpt lat="43.75255" lon="7.0542">
        <ele>977.4</ele>
        <time>2025-01-25T13:08:01.000Z</time>
      </trkpt>
      <trkpt lat="43.75259" lon="7.05417">
        <ele>977.6</ele>
        <time>2025-01-25T13:08:03.000Z</time>
      </trkpt>
      <trkpt lat="43.75262" lon="7.05409">
        <ele>978</ele>
        <time>2025-01-25T13:08:06.000Z</time>
      </trkpt>
      <trkpt lat="43.75264" lon="7.05402">
        <ele>978.1</ele>
        <time>2025-01-25T13:08:08.000Z</time>
      </trkpt>
      <trkpt lat="43.75266" lon="7.05396">
        <ele>978.4</ele>
        <time>2025-01-25T13:08:10.000Z</time>
      </trkpt>
      <trkpt lat="43.75269" lon="7.05388">
        <ele>978.6</ele>
        <time>2025-01-25T13:08:12.000Z</time>
      </trkpt>
      <trkpt lat="43.75271" lon="7.05381">
        <ele>978.8</ele>
        <time>2025-01-25T13:08:14.000Z</time>
      </trkpt>
      <trkpt lat="43.75275" lon="7.05375">
        <ele>979.1</ele>
        <time>2025-01-25T13:08:16.000Z</time>
      </trkpt>
      <trkpt lat="43.75279" lon="7.05369">
        <ele>979.5</ele>
        <time>2025-01-25T13:08:18.000Z</time>
      </trkpt>
      <trkpt lat="43.75283" lon="7.05364">
        <ele>979.8</ele>
        <time>2025-01-25T13:08:20.000Z</time>
      </trkpt>
      <trkpt lat="43.75286" lon="7.05357">
        <ele>980.2</ele>
        <time>2025-01-25T13:08:22.000Z</time>
      </trkpt>
      <trkpt lat="43.75289" lon="7.05351">
        <ele>980.6</ele>
        <time>2025-01-25T13:08:24.000Z</time>
      </trkpt>
      <trkpt lat="43.75291" lon="7.05345">
        <ele>980.8</ele>
        <time>2025-01-25T13:08:26.000Z</time>
      </trkpt>
      <trkpt lat="43.75293" lon="7.05338">
        <ele>981.1</ele>
        <time>2025-01-25T13:08:28.000Z</time>
      </trkpt>
      <trkpt lat="43.75294" lon="7.05331">
        <ele>981.3</ele>
        <time>2025-01-25T13:08:30.000Z</time>
      </trkpt>
      <trkpt lat="43.75294" lon="7.05324">
        <ele>981.4</ele>
        <time>2025-01-25T13:08:32.000Z</time>
      </trkpt>
      <trkpt lat="43.75296" lon="7.05318">
        <ele>981.5</ele>
        <time>2025-01-25T13:08:34.000Z</time>
      </trkpt>
      <trkpt lat="43.75299" lon="7.0531">
        <ele>981.4</ele>
        <time>2025-01-25T13:08:37.000Z</time>
      </trkpt>
      <trkpt lat="43.75304" lon="7.05306">
        <ele>981.3</ele>
        <time>2025-01-25T13:08:40.000Z</time>
      </trkpt>
      <trkpt lat="43.75307" lon="7.05302">
        <ele>981.3</ele>
        <time>2025-01-25T13:08:42.000Z</time>
      </trkpt>
      <trkpt lat="43.75311" lon="7.05295">
        <ele>981.3</ele>
        <time>2025-01-25T13:08:45.000Z</time>
      </trkpt>
      <trkpt lat="43.75314" lon="7.0529">
        <ele>981.2</ele>
        <time>2025-01-25T13:08:47.000Z</time>
      </trkpt>
      <trkpt lat="43.75317" lon="7.05284">
        <ele>981.2</ele>
        <time>2025-01-25T13:08:49.000Z</time>
      </trkpt>
      <trkpt lat="43.75321" lon="7.05278">
        <ele>981.2</ele>
        <time>2025-01-25T13:08:51.000Z</time>
      </trkpt>
      <trkpt lat="43.75326" lon="7.05271">
        <ele>981.2</ele>
        <time>2025-01-25T13:08:53.000Z</time>
      </trkpt>
      <trkpt lat="43.7533" lon="7.05265">
        <ele>981.3</ele>
        <time>2025-01-25T13:08:55.000Z</time>
      </trkpt>
      <trkpt lat="43.75334" lon="7.05259">
        <ele>981.3</ele>
        <time>2025-01-25T13:08:57.000Z</time>
      </trkpt>
      <trkpt lat="43.75337" lon="7.05253">
        <ele>981.4</ele>
        <time>2025-01-25T13:08:59.000Z</time>
      </trkpt>
      <trkpt lat="43.7534" lon="7.05248">
        <ele>981.4</ele>
        <time>2025-01-25T13:09:01.000Z</time>
      </trkpt>
      <trkpt lat="43.75344" lon="7.05244">
        <ele>981.4</ele>
        <time>2025-01-25T13:09:03.000Z</time>
      </trkpt>
      <trkpt lat="43.75349" lon="7.05238">
        <ele>981.6</ele>
        <time>2025-01-25T13:09:06.000Z</time>
      </trkpt>
      <trkpt lat="43.75353" lon="7.05231">
        <ele>981.7</ele>
        <time>2025-01-25T13:09:08.000Z</time>
      </trkpt>
      <trkpt lat="43.75357" lon="7.05226">
        <ele>981.8</ele>
        <time>2025-01-25T13:09:10.000Z</time>
      </trkpt>
      <trkpt lat="43.75362" lon="7.05219">
        <ele>982.1</ele>
        <time>2025-01-25T13:09:13.000Z</time>
      </trkpt>
      <trkpt lat="43.75365" lon="7.05214">
        <ele>982.3</ele>
        <time>2025-01-25T13:09:15.000Z</time>
      </trkpt>
      <trkpt lat="43.75368" lon="7.05209">
        <ele>982.6</ele>
        <time>2025-01-25T13:09:17.000Z</time>
      </trkpt>
      <trkpt lat="43.75371" lon="7.05202">
        <ele>983</ele>
        <time>2025-01-25T13:09:20.000Z</time>
      </trkpt>
      <trkpt lat="43.75374" lon="7.05194">
        <ele>983.4</ele>
        <time>2025-01-25T13:09:23.000Z</time>
      </trkpt>
      <trkpt lat="43.75376" lon="7.05186">
        <ele>983.7</ele>
        <time>2025-01-25T13:09:26.000Z</time>
      </trkpt>
      <trkpt lat="43.75379" lon="7.05179">
        <ele>983.6</ele>
        <time>2025-01-25T13:09:28.000Z</time>
      </trkpt>
      <trkpt lat="43.75384" lon="7.05168">
        <ele>983.3</ele>
        <time>2025-01-25T13:09:30.000Z</time>
      </trkpt>
      <trkpt lat="43.75389" lon="7.05161">
        <ele>982.9</ele>
        <time>2025-01-25T13:09:32.000Z</time>
      </trkpt>
      <trkpt lat="43.75394" lon="7.05155">
        <ele>982.6</ele>
        <time>2025-01-25T13:09:34.000Z</time>
      </trkpt>
      <trkpt lat="43.75399" lon="7.05151">
        <ele>982.6</ele>
        <time>2025-01-25T13:09:36.000Z</time>
      </trkpt>
      <trkpt lat="43.75405" lon="7.05148">
        <ele>982.5</ele>
        <time>2025-01-25T13:09:39.000Z</time>
      </trkpt>
      <trkpt lat="43.75409" lon="7.05145">
        <ele>982.6</ele>
        <time>2025-01-25T13:09:41.000Z</time>
      </trkpt>
      <trkpt lat="43.75414" lon="7.05141">
        <ele>982.8</ele>
        <time>2025-01-25T13:09:44.000Z</time>
      </trkpt>
      <trkpt lat="43.75421" lon="7.05136">
        <ele>982.8</ele>
        <time>2025-01-25T13:09:46.000Z</time>
      </trkpt>
      <trkpt lat="43.75425" lon="7.05128">
        <ele>982.9</ele>
        <time>2025-01-25T13:09:48.000Z</time>
      </trkpt>
      <trkpt lat="43.75428" lon="7.05122">
        <ele>983</ele>
        <time>2025-01-25T13:09:50.000Z</time>
      </trkpt>
      <trkpt lat="43.75433" lon="7.05116">
        <ele>983.1</ele>
        <time>2025-01-25T13:09:52.000Z</time>
      </trkpt>
      <trkpt lat="43.75439" lon="7.05109">
        <ele>983.3</ele>
        <time>2025-01-25T13:09:54.000Z</time>
      </trkpt>
      <trkpt lat="43.75444" lon="7.05101">
        <ele>983.4</ele>
        <time>2025-01-25T13:09:56.000Z</time>
      </trkpt>
      <trkpt lat="43.75447" lon="7.05092">
        <ele>983.4</ele>
        <time>2025-01-25T13:09:58.000Z</time>
      </trkpt>
      <trkpt lat="43.7545" lon="7.05082">
        <ele>983.4</ele>
        <time>2025-01-25T13:10:00.000Z</time>
      </trkpt>
      <trkpt lat="43.75451" lon="7.0507">
        <ele>983.3</ele>
        <time>2025-01-25T13:10:02.000Z</time>
      </trkpt>
      <trkpt lat="43.75454" lon="7.05059">
        <ele>983.3</ele>
        <time>2025-01-25T13:10:04.000Z</time>
      </trkpt>
      <trkpt lat="43.75456" lon="7.05048">
        <ele>983.3</ele>
        <time>2025-01-25T13:10:06.000Z</time>
      </trkpt>
      <trkpt lat="43.75457" lon="7.05038">
        <ele>983.2</ele>
        <time>2025-01-25T13:10:08.000Z</time>
      </trkpt>
      <trkpt lat="43.75459" lon="7.05028">
        <ele>983.1</ele>
        <time>2025-01-25T13:10:10.000Z</time>
      </trkpt>
      <trkpt lat="43.75459" lon="7.05019">
        <ele>983.1</ele>
        <time>2025-01-25T13:10:12.000Z</time>
      </trkpt>
      <trkpt lat="43.7546" lon="7.05011">
        <ele>983.1</ele>
        <time>2025-01-25T13:10:14.000Z</time>
      </trkpt>
      <trkpt lat="43.75461" lon="7.05004">
        <ele>983.1</ele>
        <time>2025-01-25T13:10:16.000Z</time>
      </trkpt>
      <trkpt lat="43.75463" lon="7.04998">
        <ele>983.1</ele>
        <time>2025-01-25T13:10:18.000Z</time>
      </trkpt>
      <trkpt lat="43.7547" lon="7.04992">
        <ele>983.1</ele>
        <time>2025-01-25T13:10:20.000Z</time>
      </trkpt>
      <trkpt lat="43.75476" lon="7.04987">
        <ele>983.2</ele>
        <time>2025-01-25T13:10:22.000Z</time>
      </trkpt>
      <trkpt lat="43.75481" lon="7.04983">
        <ele>983.6</ele>
        <time>2025-01-25T13:10:25.000Z</time>
      </trkpt>
      <trkpt lat="43.75485" lon="7.04979">
        <ele>983.9</ele>
        <time>2025-01-25T13:10:27.000Z</time>
      </trkpt>
      <trkpt lat="43.75489" lon="7.04975">
        <ele>984.4</ele>
        <time>2025-01-25T13:10:29.000Z</time>
      </trkpt>
      <trkpt lat="43.75494" lon="7.04969">
        <ele>984.9</ele>
        <time>2025-01-25T13:10:31.000Z</time>
      </trkpt>
      <trkpt lat="43.75497" lon="7.04962">
        <ele>985.3</ele>
        <time>2025-01-25T13:10:33.000Z</time>
      </trkpt>
      <trkpt lat="43.755" lon="7.04954">
        <ele>985.5</ele>
        <time>2025-01-25T13:10:35.000Z</time>
      </trkpt>
      <trkpt lat="43.75502" lon="7.04945">
        <ele>985.4</ele>
        <time>2025-01-25T13:10:37.000Z</time>
      </trkpt>
      <trkpt lat="43.75504" lon="7.04934">
        <ele>985.2</ele>
        <time>2025-01-25T13:10:39.000Z</time>
      </trkpt>
      <trkpt lat="43.75505" lon="7.04927">
        <ele>985</ele>
        <time>2025-01-25T13:10:40.000Z</time>
      </trkpt>
      <trkpt lat="43.75505" lon="7.04919">
        <ele>984.7</ele>
        <time>2025-01-25T13:10:41.000Z</time>
      </trkpt>
      <trkpt lat="43.75506" lon="7.04912">
        <ele>984.3</ele>
        <time>2025-01-25T13:10:42.000Z</time>
      </trkpt>
      <trkpt lat="43.75505" lon="7.04905">
        <ele>983.9</ele>
        <time>2025-01-25T13:10:43.000Z</time>
      </trkpt>
      <trkpt lat="43.75506" lon="7.04898">
        <ele>983.3</ele>
        <time>2025-01-25T13:10:44.000Z</time>
      </trkpt>
      <trkpt lat="43.75508" lon="7.04889">
        <ele>982.7</ele>
        <time>2025-01-25T13:10:45.000Z</time>
      </trkpt>
      <trkpt lat="43.75511" lon="7.0488">
        <ele>982.1</ele>
        <time>2025-01-25T13:10:46.000Z</time>
      </trkpt>
      <trkpt lat="43.75514" lon="7.04871">
        <ele>981.7</ele>
        <time>2025-01-25T13:10:47.000Z</time>
      </trkpt>
      <trkpt lat="43.75517" lon="7.04863">
        <ele>981.3</ele>
        <time>2025-01-25T13:10:48.000Z</time>
      </trkpt>
      <trkpt lat="43.7552" lon="7.04854">
        <ele>980.9</ele>
        <time>2025-01-25T13:10:49.000Z</time>
      </trkpt>
      <trkpt lat="43.75523" lon="7.04845">
        <ele>980.5</ele>
        <time>2025-01-25T13:10:50.000Z</time>
      </trkpt>
      <trkpt lat="43.75525" lon="7.04837">
        <ele>980.2</ele>
        <time>2025-01-25T13:10:51.000Z</time>
      </trkpt>
      <trkpt lat="43.75528" lon="7.04829">
        <ele>979.9</ele>
        <time>2025-01-25T13:10:52.000Z</time>
      </trkpt>
      <trkpt lat="43.7553" lon="7.04821">
        <ele>979.6</ele>
        <time>2025-01-25T13:10:53.000Z</time>
      </trkpt>
      <trkpt lat="43.75533" lon="7.04813">
        <ele>979.5</ele>
        <time>2025-01-25T13:10:54.000Z</time>
      </trkpt>
      <trkpt lat="43.75536" lon="7.04805">
        <ele>979.4</ele>
        <time>2025-01-25T13:10:55.000Z</time>
      </trkpt>
      <trkpt lat="43.75539" lon="7.04798">
        <ele>979.2</ele>
        <time>2025-01-25T13:10:56.000Z</time>
      </trkpt>
      <trkpt lat="43.75541" lon="7.04791">
        <ele>979</ele>
        <time>2025-01-25T13:10:57.000Z</time>
      </trkpt>
      <trkpt lat="43.75544" lon="7.04785">
        <ele>978.7</ele>
        <time>2025-01-25T13:10:58.000Z</time>
      </trkpt>
      <trkpt lat="43.75548" lon="7.04778">
        <ele>978.4</ele>
        <time>2025-01-25T13:10:59.000Z</time>
      </trkpt>
      <trkpt lat="43.75551" lon="7.04772">
        <ele>978.1</ele>
        <time>2025-01-25T13:11:00.000Z</time>
      </trkpt>
      <trkpt lat="43.75554" lon="7.04764">
        <ele>977.8</ele>
        <time>2025-01-25T13:11:01.000Z</time>
      </trkpt>
      <trkpt lat="43.75557" lon="7.04758">
        <ele>977.5</ele>
        <time>2025-01-25T13:11:02.000Z</time>
      </trkpt>
      <trkpt lat="43.75561" lon="7.04754">
        <ele>977.3</ele>
        <time>2025-01-25T13:11:03.000Z</time>
      </trkpt>
      <trkpt lat="43.75564" lon="7.04749">
        <ele>977.2</ele>
        <time>2025-01-25T13:11:04.000Z</time>
      </trkpt>
      <trkpt lat="43.75567" lon="7.04745">
        <ele>977.2</ele>
        <time>2025-01-25T13:11:05.000Z</time>
      </trkpt>
      <trkpt lat="43.75571" lon="7.04742">
        <ele>977.2</ele>
        <time>2025-01-25T13:11:06.000Z</time>
      </trkpt>
      <trkpt lat="43.75578" lon="7.04733">
        <ele>977</ele>
        <time>2025-01-25T13:11:08.000Z</time>
      </trkpt>
      <trkpt lat="43.75584" lon="7.04725">
        <ele>977.1</ele>
        <time>2025-01-25T13:11:10.000Z</time>
      </trkpt>
      <trkpt lat="43.7559" lon="7.04719">
        <ele>977.1</ele>
        <time>2025-01-25T13:11:12.000Z</time>
      </trkpt>
      <trkpt lat="43.75595" lon="7.04713">
        <ele>977.3</ele>
        <time>2025-01-25T13:11:14.000Z</time>
      </trkpt>
      <trkpt lat="43.75599" lon="7.04707">
        <ele>977.5</ele>
        <time>2025-01-25T13:11:16.000Z</time>
      </trkpt>
      <trkpt lat="43.75603" lon="7.047">
        <ele>977.8</ele>
        <time>2025-01-25T13:11:18.000Z</time>
      </trkpt>
      <trkpt lat="43.75607" lon="7.04693">
        <ele>978</ele>
        <time>2025-01-25T13:11:20.000Z</time>
      </trkpt>
      <trkpt lat="43.75612" lon="7.04687">
        <ele>978.2</ele>
        <time>2025-01-25T13:11:22.000Z</time>
      </trkpt>
      <trkpt lat="43.75616" lon="7.04681">
        <ele>978.5</ele>
        <time>2025-01-25T13:11:24.000Z</time>
      </trkpt>
      <trkpt lat="43.75621" lon="7.04676">
        <ele>978.7</ele>
        <time>2025-01-25T13:11:26.000Z</time>
      </trkpt>
      <trkpt lat="43.75627" lon="7.0467">
        <ele>978.8</ele>
        <time>2025-01-25T13:11:28.000Z</time>
      </trkpt>
      <trkpt lat="43.75632" lon="7.04663">
        <ele>978.9</ele>
        <time>2025-01-25T13:11:30.000Z</time>
      </trkpt>
      <trkpt lat="43.75638" lon="7.04658">
        <ele>979</ele>
        <time>2025-01-25T13:11:32.000Z</time>
      </trkpt>
      <trkpt lat="43.75643" lon="7.04653">
        <ele>979</ele>
        <time>2025-01-25T13:11:34.000Z</time>
      </trkpt>
      <trkpt lat="43.75647" lon="7.04648">
        <ele>979.2</ele>
        <time>2025-01-25T13:11:36.000Z</time>
      </trkpt>
      <trkpt lat="43.7565" lon="7.04643">
        <ele>979.4</ele>
        <time>2025-01-25T13:11:38.000Z</time>
      </trkpt>
      <trkpt lat="43.75654" lon="7.04638">
        <ele>979.6</ele>
        <time>2025-01-25T13:11:40.000Z</time>
      </trkpt>
      <trkpt lat="43.75659" lon="7.04633">
        <ele>980</ele>
        <time>2025-01-25T13:11:43.000Z</time>
      </trkpt>
      <trkpt lat="43.75665" lon="7.04628">
        <ele>980.3</ele>
        <time>2025-01-25T13:11:46.000Z</time>
      </trkpt>
      <trkpt lat="43.75668" lon="7.04623">
        <ele>980.6</ele>
        <time>2025-01-25T13:11:48.000Z</time>
      </trkpt>
      <trkpt lat="43.75672" lon="7.04618">
        <ele>981.1</ele>
        <time>2025-01-25T13:11:51.000Z</time>
      </trkpt>
      <trkpt lat="43.75675" lon="7.04613">
        <ele>981.4</ele>
        <time>2025-01-25T13:11:53.000Z</time>
      </trkpt>
      <trkpt lat="43.7568" lon="7.0461">
        <ele>981.8</ele>
        <time>2025-01-25T13:11:55.000Z</time>
      </trkpt>
      <trkpt lat="43.75684" lon="7.04606">
        <ele>982.1</ele>
        <time>2025-01-25T13:11:57.000Z</time>
      </trkpt>
      <trkpt lat="43.75688" lon="7.04602">
        <ele>982.4</ele>
        <time>2025-01-25T13:11:59.000Z</time>
      </trkpt>
      <trkpt lat="43.75692" lon="7.04597">
        <ele>982.8</ele>
        <time>2025-01-25T13:12:01.000Z</time>
      </trkpt>
      <trkpt lat="43.75695" lon="7.04592">
        <ele>982.9</ele>
        <time>2025-01-25T13:12:03.000Z</time>
      </trkpt>
      <trkpt lat="43.757" lon="7.04586">
        <ele>983.2</ele>
        <time>2025-01-25T13:12:06.000Z</time>
      </trkpt>
      <trkpt lat="43.75703" lon="7.0458">
        <ele>983.2</ele>
        <time>2025-01-25T13:12:09.000Z</time>
      </trkpt>
      <trkpt lat="43.75706" lon="7.04575">
        <ele>983.3</ele>
        <time>2025-01-25T13:12:12.000Z</time>
      </trkpt>
      <trkpt lat="43.7571" lon="7.0457">
        <ele>983.3</ele>
        <time>2025-01-25T13:12:15.000Z</time>
      </trkpt>
      <trkpt lat="43.75715" lon="7.04567">
        <ele>983.3</ele>
        <time>2025-01-25T13:12:19.000Z</time>
      </trkpt>
      <trkpt lat="43.7572" lon="7.04561">
        <ele>983.3</ele>
        <time>2025-01-25T13:12:21.000Z</time>
      </trkpt>
      <trkpt lat="43.75723" lon="7.04558">
        <ele>983.3</ele>
        <time>2025-01-25T13:12:23.000Z</time>
      </trkpt>
      <trkpt lat="43.75727" lon="7.04553">
        <ele>983.4</ele>
        <time>2025-01-25T13:12:25.000Z</time>
      </trkpt>
      <trkpt lat="43.75731" lon="7.04548">
        <ele>983.4</ele>
        <time>2025-01-25T13:12:28.000Z</time>
      </trkpt>
      <trkpt lat="43.75736" lon="7.04544">
        <ele>983.5</ele>
        <time>2025-01-25T13:12:31.000Z</time>
      </trkpt>
      <trkpt lat="43.7574" lon="7.0454">
        <ele>983.6</ele>
        <time>2025-01-25T13:12:34.000Z</time>
      </trkpt>
      <trkpt lat="43.75744" lon="7.04536">
        <ele>983.8</ele>
        <time>2025-01-25T13:12:37.000Z</time>
      </trkpt>
      <trkpt lat="43.75747" lon="7.04531">
        <ele>984.1</ele>
        <time>2025-01-25T13:12:43.000Z</time>
      </trkpt>
      <trkpt lat="43.7575" lon="7.04527">
        <ele>984.3</ele>
        <time>2025-01-25T13:12:46.000Z</time>
      </trkpt>
      <trkpt lat="43.75755" lon="7.04523">
        <ele>984.5</ele>
        <time>2025-01-25T13:12:49.000Z</time>
      </trkpt>
      <trkpt lat="43.75759" lon="7.04518">
        <ele>984.6</ele>
        <time>2025-01-25T13:12:53.000Z</time>
      </trkpt>
      <trkpt lat="43.75762" lon="7.04513">
        <ele>984.7</ele>
        <time>2025-01-25T13:12:57.000Z</time>
      </trkpt>
      <trkpt lat="43.75766" lon="7.04508">
        <ele>984.7</ele>
        <time>2025-01-25T13:13:00.000Z</time>
      </trkpt>
      <trkpt lat="43.7577" lon="7.04504">
        <ele>984.7</ele>
        <time>2025-01-25T13:13:03.000Z</time>
      </trkpt>
      <trkpt lat="43.75774" lon="7.04499">
        <ele>984.7</ele>
        <time>2025-01-25T13:13:06.000Z</time>
      </trkpt>
      <trkpt lat="43.75777" lon="7.04495">
        <ele>984.7</ele>
        <time>2025-01-25T13:13:08.000Z</time>
      </trkpt>
      <trkpt lat="43.75781" lon="7.0449">
        <ele>984.7</ele>
        <time>2025-01-25T13:13:10.000Z</time>
      </trkpt>
      <trkpt lat="43.75786" lon="7.04485">
        <ele>984.7</ele>
        <time>2025-01-25T13:13:12.000Z</time>
      </trkpt>
      <trkpt lat="43.7579" lon="7.04479">
        <ele>984.7</ele>
        <time>2025-01-25T13:13:14.000Z</time>
      </trkpt>
      <trkpt lat="43.75794" lon="7.04472">
        <ele>984.6</ele>
        <time>2025-01-25T13:13:16.000Z</time>
      </trkpt>
      <trkpt lat="43.75799" lon="7.04464">
        <ele>984.6</ele>
        <time>2025-01-25T13:13:18.000Z</time>
      </trkpt>
      <trkpt lat="43.75802" lon="7.04456">
        <ele>984.6</ele>
        <time>2025-01-25T13:13:20.000Z</time>
      </trkpt>
      <trkpt lat="43.75805" lon="7.04451">
        <ele>984.6</ele>
        <time>2025-01-25T13:13:22.000Z</time>
      </trkpt>
      <trkpt lat="43.75809" lon="7.04444">
        <ele>984.5</ele>
        <time>2025-01-25T13:13:24.000Z</time>
      </trkpt>
      <trkpt lat="43.75814" lon="7.04437">
        <ele>984.5</ele>
        <time>2025-01-25T13:13:26.000Z</time>
      </trkpt>
      <trkpt lat="43.75819" lon="7.04429">
        <ele>984.4</ele>
        <time>2025-01-25T13:13:28.000Z</time>
      </trkpt>
      <trkpt lat="43.75824" lon="7.04423">
        <ele>984.4</ele>
        <time>2025-01-25T13:13:30.000Z</time>
      </trkpt>
      <trkpt lat="43.75831" lon="7.04415">
        <ele>984.4</ele>
        <time>2025-01-25T13:13:32.000Z</time>
      </trkpt>
      <trkpt lat="43.75835" lon="7.04412">
        <ele>984.4</ele>
        <time>2025-01-25T13:13:33.000Z</time>
      </trkpt>
      <trkpt lat="43.75841" lon="7.04406">
        <ele>984.4</ele>
        <time>2025-01-25T13:13:35.000Z</time>
      </trkpt>
      <trkpt lat="43.75848" lon="7.04399">
        <ele>984.4</ele>
        <time>2025-01-25T13:13:37.000Z</time>
      </trkpt>
      <trkpt lat="43.75855" lon="7.04395">
        <ele>984.4</ele>
        <time>2025-01-25T13:13:39.000Z</time>
      </trkpt>
      <trkpt lat="43.75863" lon="7.04389">
        <ele>984.4</ele>
        <time>2025-01-25T13:13:41.000Z</time>
      </trkpt>
      <trkpt lat="43.75869" lon="7.04385">
        <ele>984.4</ele>
        <time>2025-01-25T13:13:43.000Z</time>
      </trkpt>
      <trkpt lat="43.75876" lon="7.0438">
        <ele>984.4</ele>
        <time>2025-01-25T13:13:45.000Z</time>
      </trkpt>
      <trkpt lat="43.75884" lon="7.04377">
        <ele>984.5</ele>
        <time>2025-01-25T13:13:47.000Z</time>
      </trkpt>
      <trkpt lat="43.75891" lon="7.04375">
        <ele>984.5</ele>
        <time>2025-01-25T13:13:49.000Z</time>
      </trkpt>
      <trkpt lat="43.75898" lon="7.04372">
        <ele>984.5</ele>
        <time>2025-01-25T13:13:51.000Z</time>
      </trkpt>
      <trkpt lat="43.75906" lon="7.04367">
        <ele>984.5</ele>
        <time>2025-01-25T13:13:53.000Z</time>
      </trkpt>
      <trkpt lat="43.75914" lon="7.04363">
        <ele>984.6</ele>
        <time>2025-01-25T13:13:55.000Z</time>
      </trkpt>
      <trkpt lat="43.75922" lon="7.0436">
        <ele>984.6</ele>
        <time>2025-01-25T13:13:57.000Z</time>
      </trkpt>
      <trkpt lat="43.7593" lon="7.04358">
        <ele>984.6</ele>
        <time>2025-01-25T13:13:59.000Z</time>
      </trkpt>
      <trkpt lat="43.75938" lon="7.04356">
        <ele>984.6</ele>
        <time>2025-01-25T13:14:01.000Z</time>
      </trkpt>
      <trkpt lat="43.75946" lon="7.04354">
        <ele>984.6</ele>
        <time>2025-01-25T13:14:03.000Z</time>
      </trkpt>
      <trkpt lat="43.75954" lon="7.04352">
        <ele>984.6</ele>
        <time>2025-01-25T13:14:05.000Z</time>
      </trkpt>
      <trkpt lat="43.75962" lon="7.04348">
        <ele>984.6</ele>
        <time>2025-01-25T13:14:07.000Z</time>
      </trkpt>
      <trkpt lat="43.75971" lon="7.04344">
        <ele>984.5</ele>
        <time>2025-01-25T13:14:09.000Z</time>
      </trkpt>
      <trkpt lat="43.75979" lon="7.04337">
        <ele>984.5</ele>
        <time>2025-01-25T13:14:11.000Z</time>
      </trkpt>
      <trkpt lat="43.75983" lon="7.04333">
        <ele>984.5</ele>
        <time>2025-01-25T13:14:12.000Z</time>
      </trkpt>
      <trkpt lat="43.75988" lon="7.04329">
        <ele>984.5</ele>
        <time>2025-01-25T13:14:13.000Z</time>
      </trkpt>
      <trkpt lat="43.75991" lon="7.04324">
        <ele>984.5</ele>
        <time>2025-01-25T13:14:14.000Z</time>
      </trkpt>
      <trkpt lat="43.75995" lon="7.0432">
        <ele>984.5</ele>
        <time>2025-01-25T13:14:15.000Z</time>
      </trkpt>
      <trkpt lat="43.7599" lon="7.04326">
        <ele>984.4</ele>
        <time>2025-01-25T13:14:16.000Z</time>
      </trkpt>
      <trkpt lat="43.75995" lon="7.0432">
        <ele>984.2</ele>
        <time>2025-01-25T13:14:21.000Z</time>
      </trkpt>
      <trkpt lat="43.76001" lon="7.04312">
        <ele>984.1</ele>
        <time>2025-01-25T13:14:23.000Z</time>
      </trkpt>
      <trkpt lat="43.76005" lon="7.04306">
        <ele>984</ele>
        <time>2025-01-25T13:14:24.000Z</time>
      </trkpt>
      <trkpt lat="43.76009" lon="7.04301">
        <ele>983.8</ele>
        <time>2025-01-25T13:14:25.000Z</time>
      </trkpt>
      <trkpt lat="43.76014" lon="7.04295">
        <ele>983.6</ele>
        <time>2025-01-25T13:14:26.000Z</time>
      </trkpt>
      <trkpt lat="43.7602" lon="7.04288">
        <ele>983.4</ele>
        <time>2025-01-25T13:14:27.000Z</time>
      </trkpt>
      <trkpt lat="43.76025" lon="7.04281">
        <ele>983.2</ele>
        <time>2025-01-25T13:14:28.000Z</time>
      </trkpt>
      <trkpt lat="43.7603" lon="7.04274">
        <ele>982.9</ele>
        <time>2025-01-25T13:14:29.000Z</time>
      </trkpt>
      <trkpt lat="43.76036" lon="7.04267">
        <ele>982.7</ele>
        <time>2025-01-25T13:14:30.000Z</time>
      </trkpt>
      <trkpt lat="43.76041" lon="7.0426">
        <ele>982.4</ele>
        <time>2025-01-25T13:14:31.000Z</time>
      </trkpt>
      <trkpt lat="43.76046" lon="7.04254">
        <ele>982.2</ele>
        <time>2025-01-25T13:14:32.000Z</time>
      </trkpt>
      <trkpt lat="43.76051" lon="7.04247">
        <ele>982</ele>
        <time>2025-01-25T13:14:33.000Z</time>
      </trkpt>
      <trkpt lat="43.76057" lon="7.0424">
        <ele>981.9</ele>
        <time>2025-01-25T13:14:34.000Z</time>
      </trkpt>
      <trkpt lat="43.76063" lon="7.04233">
        <ele>981.7</ele>
        <time>2025-01-25T13:14:35.000Z</time>
      </trkpt>
      <trkpt lat="43.76069" lon="7.04226">
        <ele>981.6</ele>
        <time>2025-01-25T13:14:36.000Z</time>
      </trkpt>
      <trkpt lat="43.76076" lon="7.04219">
        <ele>981.4</ele>
        <time>2025-01-25T13:14:37.000Z</time>
      </trkpt>
      <trkpt lat="43.76082" lon="7.04214">
        <ele>981.2</ele>
        <time>2025-01-25T13:14:38.000Z</time>
      </trkpt>
      <trkpt lat="43.76088" lon="7.04207">
        <ele>981.1</ele>
        <time>2025-01-25T13:14:39.000Z</time>
      </trkpt>
      <trkpt lat="43.76094" lon="7.04201">
        <ele>981.1</ele>
        <time>2025-01-25T13:14:40.000Z</time>
      </trkpt>
      <trkpt lat="43.76099" lon="7.04196">
        <ele>981.1</ele>
        <time>2025-01-25T13:14:41.000Z</time>
      </trkpt>
      <trkpt lat="43.76104" lon="7.04191">
        <ele>981</ele>
        <time>2025-01-25T13:14:42.000Z</time>
      </trkpt>
      <trkpt lat="43.76108" lon="7.04187">
        <ele>981</ele>
        <time>2025-01-25T13:14:43.000Z</time>
      </trkpt>
      <trkpt lat="43.76112" lon="7.04183">
        <ele>981</ele>
        <time>2025-01-25T13:14:44.000Z</time>
      </trkpt>
      <trkpt lat="43.76116" lon="7.04179">
        <ele>980.9</ele>
        <time>2025-01-25T13:14:45.000Z</time>
      </trkpt>
      <trkpt lat="43.76121" lon="7.04175">
        <ele>980.9</ele>
        <time>2025-01-25T13:14:46.000Z</time>
      </trkpt>
      <trkpt lat="43.76124" lon="7.0417">
        <ele>980.9</ele>
        <time>2025-01-25T13:14:47.000Z</time>
      </trkpt>
      <trkpt lat="43.7613" lon="7.04162">
        <ele>981</ele>
        <time>2025-01-25T13:14:49.000Z</time>
      </trkpt>
      <trkpt lat="43.76135" lon="7.04158">
        <ele>981</ele>
        <time>2025-01-25T13:14:50.000Z</time>
      </trkpt>
      <trkpt lat="43.76142" lon="7.0415">
        <ele>981</ele>
        <time>2025-01-25T13:14:52.000Z</time>
      </trkpt>
      <trkpt lat="43.76148" lon="7.04143">
        <ele>981.1</ele>
        <time>2025-01-25T13:14:54.000Z</time>
      </trkpt>
      <trkpt lat="43.76152" lon="7.04139">
        <ele>981.1</ele>
        <time>2025-01-25T13:14:55.000Z</time>
      </trkpt>
      <trkpt lat="43.76156" lon="7.04135">
        <ele>981.1</ele>
        <time>2025-01-25T13:14:56.000Z</time>
      </trkpt>
      <trkpt lat="43.76161" lon="7.04131">
        <ele>981.1</ele>
        <time>2025-01-25T13:14:57.000Z</time>
      </trkpt>
      <trkpt lat="43.76165" lon="7.04127">
        <ele>981.2</ele>
        <time>2025-01-25T13:14:58.000Z</time>
      </trkpt>
      <trkpt lat="43.76173" lon="7.04119">
        <ele>981.2</ele>
        <time>2025-01-25T13:15:00.000Z</time>
      </trkpt>
      <trkpt lat="43.76179" lon="7.04111">
        <ele>981.2</ele>
        <time>2025-01-25T13:15:02.000Z</time>
      </trkpt>
      <trkpt lat="43.76185" lon="7.04102">
        <ele>981.2</ele>
        <time>2025-01-25T13:15:04.000Z</time>
      </trkpt>
      <trkpt lat="43.7619" lon="7.04093">
        <ele>981.3</ele>
        <time>2025-01-25T13:15:06.000Z</time>
      </trkpt>
      <trkpt lat="43.76195" lon="7.04084">
        <ele>981.3</ele>
        <time>2025-01-25T13:15:08.000Z</time>
      </trkpt>
      <trkpt lat="43.76198" lon="7.04079">
        <ele>981.3</ele>
        <time>2025-01-25T13:15:09.000Z</time>
      </trkpt>
      <trkpt lat="43.76201" lon="7.04074">
        <ele>981.3</ele>
        <time>2025-01-25T13:15:10.000Z</time>
      </trkpt>
      <trkpt lat="43.76204" lon="7.04069">
        <ele>981.3</ele>
        <time>2025-01-25T13:15:11.000Z</time>
      </trkpt>
      <trkpt lat="43.76207" lon="7.04064">
        <ele>981.3</ele>
        <time>2025-01-25T13:15:12.000Z</time>
      </trkpt>
      <trkpt lat="43.76212" lon="7.04056">
        <ele>981.3</ele>
        <time>2025-01-25T13:15:14.000Z</time>
      </trkpt>
      <trkpt lat="43.76218" lon="7.04048">
        <ele>981.3</ele>
        <time>2025-01-25T13:15:16.000Z</time>
      </trkpt>
      <trkpt lat="43.76224" lon="7.0404">
        <ele>981.3</ele>
        <time>2025-01-25T13:15:18.000Z</time>
      </trkpt>
      <trkpt lat="43.76228" lon="7.04037">
        <ele>981.3</ele>
        <time>2025-01-25T13:15:19.000Z</time>
      </trkpt>
      <trkpt lat="43.76236" lon="7.04032">
        <ele>981.3</ele>
        <time>2025-01-25T13:15:21.000Z</time>
      </trkpt>
      <trkpt lat="43.76245" lon="7.0403">
        <ele>981.3</ele>
        <time>2025-01-25T13:15:23.000Z</time>
      </trkpt>
      <trkpt lat="43.76251" lon="7.04026">
        <ele>981.3</ele>
        <time>2025-01-25T13:15:25.000Z</time>
      </trkpt>
      <trkpt lat="43.76259" lon="7.04022">
        <ele>981.2</ele>
        <time>2025-01-25T13:15:27.000Z</time>
      </trkpt>
      <trkpt lat="43.76268" lon="7.04018">
        <ele>981.1</ele>
        <time>2025-01-25T13:15:29.000Z</time>
      </trkpt>
      <trkpt lat="43.76273" lon="7.04015">
        <ele>981.1</ele>
        <time>2025-01-25T13:15:30.000Z</time>
      </trkpt>
      <trkpt lat="43.76278" lon="7.04012">
        <ele>981</ele>
        <time>2025-01-25T13:15:31.000Z</time>
      </trkpt>
      <trkpt lat="43.76284" lon="7.04007">
        <ele>980.9</ele>
        <time>2025-01-25T13:15:32.000Z</time>
      </trkpt>
      <trkpt lat="43.76289" lon="7.04002">
        <ele>980.8</ele>
        <time>2025-01-25T13:15:33.000Z</time>
      </trkpt>
      <trkpt lat="43.76294" lon="7.03996">
        <ele>980.6</ele>
        <time>2025-01-25T13:15:34.000Z</time>
      </trkpt>
      <trkpt lat="43.76299" lon="7.0399">
        <ele>980.5</ele>
        <time>2025-01-25T13:15:35.000Z</time>
      </trkpt>
      <trkpt lat="43.76304" lon="7.03985">
        <ele>980.4</ele>
        <time>2025-01-25T13:15:36.000Z</time>
      </trkpt>
      <trkpt lat="43.76309" lon="7.03979">
        <ele>980.2</ele>
        <time>2025-01-25T13:15:37.000Z</time>
      </trkpt>
      <trkpt lat="43.76315" lon="7.03974">
        <ele>980.1</ele>
        <time>2025-01-25T13:15:38.000Z</time>
      </trkpt>
      <trkpt lat="43.7632" lon="7.03967">
        <ele>979.9</ele>
        <time>2025-01-25T13:15:39.000Z</time>
      </trkpt>
      <trkpt lat="43.76325" lon="7.03962">
        <ele>979.7</ele>
        <time>2025-01-25T13:15:40.000Z</time>
      </trkpt>
      <trkpt lat="43.76329" lon="7.03958">
        <ele>979.6</ele>
        <time>2025-01-25T13:15:41.000Z</time>
      </trkpt>
      <trkpt lat="43.76333" lon="7.03953">
        <ele>979.5</ele>
        <time>2025-01-25T13:15:42.000Z</time>
      </trkpt>
      <trkpt lat="43.76337" lon="7.03949">
        <ele>979.3</ele>
        <time>2025-01-25T13:15:43.000Z</time>
      </trkpt>
      <trkpt lat="43.76342" lon="7.03944">
        <ele>979.2</ele>
        <time>2025-01-25T13:15:44.000Z</time>
      </trkpt>
      <trkpt lat="43.76346" lon="7.0394">
        <ele>979.1</ele>
        <time>2025-01-25T13:15:45.000Z</time>
      </trkpt>
      <trkpt lat="43.7635" lon="7.03936">
        <ele>979</ele>
        <time>2025-01-25T13:15:46.000Z</time>
      </trkpt>
      <trkpt lat="43.76355" lon="7.0393">
        <ele>979</ele>
        <time>2025-01-25T13:15:47.000Z</time>
      </trkpt>
      <trkpt lat="43.76359" lon="7.03924">
        <ele>979</ele>
        <time>2025-01-25T13:15:48.000Z</time>
      </trkpt>
      <trkpt lat="43.76362" lon="7.03919">
        <ele>978.9</ele>
        <time>2025-01-25T13:15:49.000Z</time>
      </trkpt>
      <trkpt lat="43.76366" lon="7.03909">
        <ele>978.9</ele>
        <time>2025-01-25T13:15:51.000Z</time>
      </trkpt>
      <trkpt lat="43.76368" lon="7.03897">
        <ele>978.9</ele>
        <time>2025-01-25T13:15:53.000Z</time>
      </trkpt>
      <trkpt lat="43.7637" lon="7.03891">
        <ele>978.9</ele>
        <time>2025-01-25T13:15:54.000Z</time>
      </trkpt>
      <trkpt lat="43.76374" lon="7.03882">
        <ele>979</ele>
        <time>2025-01-25T13:15:56.000Z</time>
      </trkpt>
      <trkpt lat="43.7638" lon="7.03876">
        <ele>979</ele>
        <time>2025-01-25T13:15:58.000Z</time>
      </trkpt>
      <trkpt lat="43.76386" lon="7.0387">
        <ele>979</ele>
        <time>2025-01-25T13:16:00.000Z</time>
      </trkpt>
      <trkpt lat="43.76393" lon="7.03865">
        <ele>979</ele>
        <time>2025-01-25T13:16:02.000Z</time>
      </trkpt>
      <trkpt lat="43.764" lon="7.03861">
        <ele>979</ele>
        <time>2025-01-25T13:16:04.000Z</time>
      </trkpt>
      <trkpt lat="43.76407" lon="7.03859">
        <ele>979.1</ele>
        <time>2025-01-25T13:16:06.000Z</time>
      </trkpt>
      <trkpt lat="43.76415" lon="7.03858">
        <ele>979.1</ele>
        <time>2025-01-25T13:16:08.000Z</time>
      </trkpt>
      <trkpt lat="43.76422" lon="7.03856">
        <ele>979.1</ele>
        <time>2025-01-25T13:16:10.000Z</time>
      </trkpt>
      <trkpt lat="43.76428" lon="7.03851">
        <ele>979.2</ele>
        <time>2025-01-25T13:16:12.000Z</time>
      </trkpt>
      <trkpt lat="43.76433" lon="7.03846">
        <ele>979.2</ele>
        <time>2025-01-25T13:16:14.000Z</time>
      </trkpt>
      <trkpt lat="43.76435" lon="7.03839">
        <ele>979.3</ele>
        <time>2025-01-25T13:16:16.000Z</time>
      </trkpt>
      <trkpt lat="43.76435" lon="7.03834">
        <ele>979.3</ele>
        <time>2025-01-25T13:16:23.000Z</time>
      </trkpt>
      <trkpt lat="43.76434" lon="7.03833">
        <ele>979.3</ele>
        <time>2025-01-25T13:16:24.000Z</time>
      </trkpt>
      <trkpt lat="43.76433" lon="7.03834">
        <ele>979.3</ele>
        <time>2025-01-25T13:16:25.000Z</time>
      </trkpt>
      <trkpt lat="43.76428" lon="7.03834">
        <ele>979.3</ele>
        <time>2025-01-25T13:16:31.000Z</time>
      </trkpt>
      <trkpt lat="43.76432" lon="7.03831">
        <ele>979.3</ele>
        <time>2025-01-25T13:16:54.000Z</time>
      </trkpt>
      <trkpt lat="43.76436" lon="7.0383">
        <ele>979.6</ele>
        <time>2025-01-25T13:19:54.000Z</time>
      </trkpt>
      <trkpt lat="43.76437" lon="7.03835">
        <ele>979.6</ele>
        <time>2025-01-25T13:20:59.000Z</time>
      </trkpt>
      <trkpt lat="43.76435" lon="7.03833">
        <ele>979.7</ele>
        <time>2025-01-25T13:21:03.000Z</time>
      </trkpt>
      <trkpt lat="43.76435" lon="7.03833">
        <ele>979.7</ele>
        <time>2025-01-25T13:21:04.000Z</time>
      </trkpt>
      <trkpt lat="43.76437" lon="7.0383">
        <ele>979.7</ele>
        <time>2025-01-25T13:21:21.000Z</time>
      </trkpt>
      <trkpt lat="43.76436" lon="7.03831">
        <ele>979.7</ele>
        <time>2025-01-25T13:21:22.000Z</time>
      </trkpt>
      <trkpt lat="43.76437" lon="7.03831">
        <ele>979.7</ele>
        <time>2025-01-25T13:21:23.000Z</time>
      </trkpt>
      <trkpt lat="43.76437" lon="7.03831">
        <ele>979.7</ele>
        <time>2025-01-25T13:21:24.000Z</time>
      </trkpt>
      <trkpt lat="43.76436" lon="7.03832">
        <ele>979.7</ele>
        <time>2025-01-25T13:21:25.000Z</time>
      </trkpt>
      <trkpt lat="43.76436" lon="7.03832">
        <ele>979.8</ele>
        <time>2025-01-25T13:21:58.000Z</time>
      </trkpt>
      <trkpt lat="43.76436" lon="7.03832">
        <ele>979.8</ele>
        <time>2025-01-25T13:21:59.000Z</time>
      </trkpt>
      <trkpt lat="43.76436" lon="7.03832">
        <ele>979.8</ele>
        <time>2025-01-25T13:22:00.000Z</time>
      </trkpt>
      <trkpt lat="43.76436" lon="7.03832">
        <ele>979.8</ele>
        <time>2025-01-25T13:22:01.000Z</time>
      </trkpt>
      <trkpt lat="43.76436" lon="7.03832">
        <ele>979.8</ele>
        <time>2025-01-25T13:22:02.000Z</time>
      </trkpt>
      <trkpt lat="43.76435" lon="7.03832">
        <ele>979.8</ele>
        <time>2025-01-25T13:22:07.000Z</time>
      </trkpt>
      <trkpt lat="43.76434" lon="7.03832">
        <ele>979.8</ele>
        <time>2025-01-25T13:22:11.000Z</time>
      </trkpt>
      <trkpt lat="43.76434" lon="7.03832">
        <ele>979.8</ele>
        <time>2025-01-25T13:22:12.000Z</time>
      </trkpt>
      <trkpt lat="43.76435" lon="7.03831">
        <ele>979.8</ele>
        <time>2025-01-25T13:22:28.000Z</time>
      </trkpt>
      <trkpt lat="43.76435" lon="7.0383">
        <ele>979.8</ele>
        <time>2025-01-25T13:22:29.000Z</time>
      </trkpt>
      <trkpt lat="43.76435" lon="7.03822">
        <ele>979.8</ele>
        <time>2025-01-25T13:22:33.000Z</time>
      </trkpt>
      <trkpt lat="43.76434" lon="7.03816">
        <ele>979.7</ele>
        <time>2025-01-25T13:22:35.000Z</time>
      </trkpt>
      <trkpt lat="43.76433" lon="7.03808">
        <ele>979.7</ele>
        <time>2025-01-25T13:22:37.000Z</time>
      </trkpt>
      <trkpt lat="43.76431" lon="7.03798">
        <ele>979.7</ele>
        <time>2025-01-25T13:22:39.000Z</time>
      </trkpt>
      <trkpt lat="43.76429" lon="7.03789">
        <ele>979.7</ele>
        <time>2025-01-25T13:22:41.000Z</time>
      </trkpt>
      <trkpt lat="43.76428" lon="7.03781">
        <ele>979.6</ele>
        <time>2025-01-25T13:22:43.000Z</time>
      </trkpt>
      <trkpt lat="43.76428" lon="7.03772">
        <ele>979.6</ele>
        <time>2025-01-25T13:22:45.000Z</time>
      </trkpt>
      <trkpt lat="43.76424" lon="7.03767">
        <ele>978.7</ele>
        <time>2025-01-25T13:22:59.000Z</time>
      </trkpt>
      <trkpt lat="43.7642" lon="7.03762">
        <ele>978.3</ele>
        <time>2025-01-25T13:23:03.000Z</time>
      </trkpt>
      <trkpt lat="43.76416" lon="7.03755">
        <ele>977.8</ele>
        <time>2025-01-25T13:23:06.000Z</time>
      </trkpt>
      <trkpt lat="43.76413" lon="7.0375">
        <ele>977.2</ele>
        <time>2025-01-25T13:23:09.000Z</time>
      </trkpt>
      <trkpt lat="43.76411" lon="7.03743">
        <ele>976.7</ele>
        <time>2025-01-25T13:23:11.000Z</time>
      </trkpt>
      <trkpt lat="43.76408" lon="7.03734">
        <ele>976.1</ele>
        <time>2025-01-25T13:23:13.000Z</time>
      </trkpt>
      <trkpt lat="43.76406" lon="7.03723">
        <ele>975</ele>
        <time>2025-01-25T13:23:15.000Z</time>
      </trkpt>
      <trkpt lat="43.76404" lon="7.03717">
        <ele>974.5</ele>
        <time>2025-01-25T13:23:16.000Z</time>
      </trkpt>
      <trkpt lat="43.76401" lon="7.03709">
        <ele>974</ele>
        <time>2025-01-25T13:23:17.000Z</time>
      </trkpt>
      <trkpt lat="43.76398" lon="7.03702">
        <ele>973.4</ele>
        <time>2025-01-25T13:23:18.000Z</time>
      </trkpt>
      <trkpt lat="43.76392" lon="7.03696">
        <ele>973.1</ele>
        <time>2025-01-25T13:23:19.000Z</time>
      </trkpt>
      <trkpt lat="43.76388" lon="7.03691">
        <ele>972.8</ele>
        <time>2025-01-25T13:23:20.000Z</time>
      </trkpt>
      <trkpt lat="43.76381" lon="7.03682">
        <ele>972.2</ele>
        <time>2025-01-25T13:23:22.000Z</time>
      </trkpt>
      <trkpt lat="43.76378" lon="7.03676">
        <ele>971.8</ele>
        <time>2025-01-25T13:23:23.000Z</time>
      </trkpt>
      <trkpt lat="43.76374" lon="7.0367">
        <ele>971.5</ele>
        <time>2025-01-25T13:23:24.000Z</time>
      </trkpt>
      <trkpt lat="43.76368" lon="7.03662">
        <ele>971.2</ele>
        <time>2025-01-25T13:23:25.000Z</time>
      </trkpt>
      <trkpt lat="43.76363" lon="7.03654">
        <ele>970.9</ele>
        <time>2025-01-25T13:23:26.000Z</time>
      </trkpt>
      <trkpt lat="43.76357" lon="7.03648">
        <ele>970.5</ele>
        <time>2025-01-25T13:23:27.000Z</time>
      </trkpt>
      <trkpt lat="43.76352" lon="7.03642">
        <ele>970.3</ele>
        <time>2025-01-25T13:23:28.000Z</time>
      </trkpt>
      <trkpt lat="43.76348" lon="7.03636">
        <ele>970</ele>
        <time>2025-01-25T13:23:29.000Z</time>
      </trkpt>
      <trkpt lat="43.76344" lon="7.03631">
        <ele>969.8</ele>
        <time>2025-01-25T13:23:30.000Z</time>
      </trkpt>
      <trkpt lat="43.76337" lon="7.03625">
        <ele>969.6</ele>
        <time>2025-01-25T13:23:32.000Z</time>
      </trkpt>
      <trkpt lat="43.76329" lon="7.03621">
        <ele>969.6</ele>
        <time>2025-01-25T13:23:34.000Z</time>
      </trkpt>
      <trkpt lat="43.76324" lon="7.03617">
        <ele>969.6</ele>
        <time>2025-01-25T13:23:35.000Z</time>
      </trkpt>
      <trkpt lat="43.76317" lon="7.03614">
        <ele>969.7</ele>
        <time>2025-01-25T13:23:37.000Z</time>
      </trkpt>
      <trkpt lat="43.76309" lon="7.03609">
        <ele>969.8</ele>
        <time>2025-01-25T13:23:39.000Z</time>
      </trkpt>
      <trkpt lat="43.76305" lon="7.03606">
        <ele>969.9</ele>
        <time>2025-01-25T13:23:40.000Z</time>
      </trkpt>
      <trkpt lat="43.76297" lon="7.036">
        <ele>969.9</ele>
        <time>2025-01-25T13:23:42.000Z</time>
      </trkpt>
      <trkpt lat="43.76293" lon="7.03595">
        <ele>969.9</ele>
        <time>2025-01-25T13:23:43.000Z</time>
      </trkpt>
      <trkpt lat="43.76288" lon="7.0359">
        <ele>969.8</ele>
        <time>2025-01-25T13:23:44.000Z</time>
      </trkpt>
      <trkpt lat="43.76284" lon="7.03586">
        <ele>969.7</ele>
        <time>2025-01-25T13:23:45.000Z</time>
      </trkpt>
      <trkpt lat="43.7628" lon="7.03581">
        <ele>969.5</ele>
        <time>2025-01-25T13:23:46.000Z</time>
      </trkpt>
      <trkpt lat="43.76277" lon="7.03577">
        <ele>969.4</ele>
        <time>2025-01-25T13:23:47.000Z</time>
      </trkpt>
      <trkpt lat="43.76272" lon="7.03568">
        <ele>969.3</ele>
        <time>2025-01-25T13:23:49.000Z</time>
      </trkpt>
      <trkpt lat="43.76266" lon="7.03563">
        <ele>969.2</ele>
        <time>2025-01-25T13:23:51.000Z</time>
      </trkpt>
      <trkpt lat="43.7626" lon="7.03557">
        <ele>969.2</ele>
        <time>2025-01-25T13:23:53.000Z</time>
      </trkpt>
      <trkpt lat="43.76253" lon="7.0355">
        <ele>969</ele>
        <time>2025-01-25T13:23:55.000Z</time>
      </trkpt>
      <trkpt lat="43.76246" lon="7.03544">
        <ele>968.8</ele>
        <time>2025-01-25T13:23:57.000Z</time>
      </trkpt>
      <trkpt lat="43.7624" lon="7.0354">
        <ele>968.5</ele>
        <time>2025-01-25T13:23:59.000Z</time>
      </trkpt>
      <trkpt lat="43.76232" lon="7.03534">
        <ele>968</ele>
        <time>2025-01-25T13:24:01.000Z</time>
      </trkpt>
      <trkpt lat="43.76228" lon="7.0353">
        <ele>967.6</ele>
        <time>2025-01-25T13:24:02.000Z</time>
      </trkpt>
      <trkpt lat="43.76224" lon="7.03525">
        <ele>967.1</ele>
        <time>2025-01-25T13:24:03.000Z</time>
      </trkpt>
      <trkpt lat="43.76219" lon="7.03519">
        <ele>966.3</ele>
        <time>2025-01-25T13:24:04.000Z</time>
      </trkpt>
      <trkpt lat="43.76215" lon="7.03513">
        <ele>965.7</ele>
        <time>2025-01-25T13:24:05.000Z</time>
      </trkpt>
      <trkpt lat="43.76211" lon="7.03507">
        <ele>965.1</ele>
        <time>2025-01-25T13:24:06.000Z</time>
      </trkpt>
      <trkpt lat="43.76207" lon="7.035">
        <ele>964.4</ele>
        <time>2025-01-25T13:24:07.000Z</time>
      </trkpt>
      <trkpt lat="43.76202" lon="7.03493">
        <ele>963.5</ele>
        <time>2025-01-25T13:24:08.000Z</time>
      </trkpt>
      <trkpt lat="43.76197" lon="7.03487">
        <ele>962.4</ele>
        <time>2025-01-25T13:24:09.000Z</time>
      </trkpt>
      <trkpt lat="43.76191" lon="7.03482">
        <ele>961</ele>
        <time>2025-01-25T13:24:10.000Z</time>
      </trkpt>
      <trkpt lat="43.76185" lon="7.03476">
        <ele>960.1</ele>
        <time>2025-01-25T13:24:11.000Z</time>
      </trkpt>
      <trkpt lat="43.76179" lon="7.0347">
        <ele>959.6</ele>
        <time>2025-01-25T13:24:12.000Z</time>
      </trkpt>
      <trkpt lat="43.76174" lon="7.03465">
        <ele>959.2</ele>
        <time>2025-01-25T13:24:13.000Z</time>
      </trkpt>
      <trkpt lat="43.76169" lon="7.03459">
        <ele>958.7</ele>
        <time>2025-01-25T13:24:14.000Z</time>
      </trkpt>
      <trkpt lat="43.76165" lon="7.03454">
        <ele>958.3</ele>
        <time>2025-01-25T13:24:15.000Z</time>
      </trkpt>
      <trkpt lat="43.76162" lon="7.0345">
        <ele>957.9</ele>
        <time>2025-01-25T13:24:16.000Z</time>
      </trkpt>
      <trkpt lat="43.76158" lon="7.03445">
        <ele>957.6</ele>
        <time>2025-01-25T13:24:17.000Z</time>
      </trkpt>
      <trkpt lat="43.76154" lon="7.03436">
        <ele>957.2</ele>
        <time>2025-01-25T13:24:19.000Z</time>
      </trkpt>
      <trkpt lat="43.7615" lon="7.03428">
        <ele>956.9</ele>
        <time>2025-01-25T13:24:21.000Z</time>
      </trkpt>
      <trkpt lat="43.76146" lon="7.03421">
        <ele>956.6</ele>
        <time>2025-01-25T13:24:23.000Z</time>
      </trkpt>
      <trkpt lat="43.76142" lon="7.03412">
        <ele>956.3</ele>
        <time>2025-01-25T13:24:25.000Z</time>
      </trkpt>
      <trkpt lat="43.76138" lon="7.03404">
        <ele>956.1</ele>
        <time>2025-01-25T13:24:27.000Z</time>
      </trkpt>
      <trkpt lat="43.76134" lon="7.03395">
        <ele>956</ele>
        <time>2025-01-25T13:24:29.000Z</time>
      </trkpt>
      <trkpt lat="43.76129" lon="7.03384">
        <ele>955.8</ele>
        <time>2025-01-25T13:24:31.000Z</time>
      </trkpt>
      <trkpt lat="43.76126" lon="7.03373">
        <ele>955.7</ele>
        <time>2025-01-25T13:24:33.000Z</time>
      </trkpt>
      <trkpt lat="43.76122" lon="7.03363">
        <ele>955.6</ele>
        <time>2025-01-25T13:24:35.000Z</time>
      </trkpt>
      <trkpt lat="43.76118" lon="7.03353">
        <ele>955.6</ele>
        <time>2025-01-25T13:24:37.000Z</time>
      </trkpt>
      <trkpt lat="43.76114" lon="7.03345">
        <ele>955.5</ele>
        <time>2025-01-25T13:24:39.000Z</time>
      </trkpt>
      <trkpt lat="43.76108" lon="7.03338">
        <ele>955.5</ele>
        <time>2025-01-25T13:24:41.000Z</time>
      </trkpt>
      <trkpt lat="43.76105" lon="7.03333">
        <ele>955.5</ele>
        <time>2025-01-25T13:24:42.000Z</time>
      </trkpt>
      <trkpt lat="43.76101" lon="7.03326">
        <ele>955.5</ele>
        <time>2025-01-25T13:24:44.000Z</time>
      </trkpt>
      <trkpt lat="43.76098" lon="7.0332">
        <ele>955.6</ele>
        <time>2025-01-25T13:24:46.000Z</time>
      </trkpt>
      <trkpt lat="43.76094" lon="7.03314">
        <ele>955.8</ele>
        <time>2025-01-25T13:24:48.000Z</time>
      </trkpt>
      <trkpt lat="43.7609" lon="7.03309">
        <ele>956</ele>
        <time>2025-01-25T13:24:50.000Z</time>
      </trkpt>
      <trkpt lat="43.76086" lon="7.03303">
        <ele>956.1</ele>
        <time>2025-01-25T13:24:52.000Z</time>
      </trkpt>
      <trkpt lat="43.76083" lon="7.03299">
        <ele>956.3</ele>
        <time>2025-01-25T13:24:54.000Z</time>
      </trkpt>
      <trkpt lat="43.76079" lon="7.03294">
        <ele>956.5</ele>
        <time>2025-01-25T13:24:56.000Z</time>
      </trkpt>
      <trkpt lat="43.76074" lon="7.03288">
        <ele>956.6</ele>
        <time>2025-01-25T13:24:58.000Z</time>
      </trkpt>
      <trkpt lat="43.76068" lon="7.03284">
        <ele>956.6</ele>
        <time>2025-01-25T13:25:00.000Z</time>
      </trkpt>
      <trkpt lat="43.76061" lon="7.03279">
        <ele>956.5</ele>
        <time>2025-01-25T13:25:02.000Z</time>
      </trkpt>
      <trkpt lat="43.76057" lon="7.03276">
        <ele>956.5</ele>
        <time>2025-01-25T13:25:03.000Z</time>
      </trkpt>
      <trkpt lat="43.76051" lon="7.03268">
        <ele>956.4</ele>
        <time>2025-01-25T13:25:05.000Z</time>
      </trkpt>
      <trkpt lat="43.76046" lon="7.0326">
        <ele>956.3</ele>
        <time>2025-01-25T13:25:07.000Z</time>
      </trkpt>
      <trkpt lat="43.7604" lon="7.03253">
        <ele>956.1</ele>
        <time>2025-01-25T13:25:09.000Z</time>
      </trkpt>
      <trkpt lat="43.76035" lon="7.03245">
        <ele>955.9</ele>
        <time>2025-01-25T13:25:11.000Z</time>
      </trkpt>
      <trkpt lat="43.7603" lon="7.03237">
        <ele>955.8</ele>
        <time>2025-01-25T13:25:13.000Z</time>
      </trkpt>
      <trkpt lat="43.76024" lon="7.0323">
        <ele>955.6</ele>
        <time>2025-01-25T13:25:15.000Z</time>
      </trkpt>
      <trkpt lat="43.76021" lon="7.03226">
        <ele>955.6</ele>
        <time>2025-01-25T13:25:16.000Z</time>
      </trkpt>
      <trkpt lat="43.76015" lon="7.03216">
        <ele>955.3</ele>
        <time>2025-01-25T13:25:18.000Z</time>
      </trkpt>
      <trkpt lat="43.76012" lon="7.03207">
        <ele>955</ele>
        <time>2025-01-25T13:25:20.000Z</time>
      </trkpt>
      <trkpt lat="43.76009" lon="7.03198">
        <ele>954.6</ele>
        <time>2025-01-25T13:25:22.000Z</time>
      </trkpt>
      <trkpt lat="43.76006" lon="7.03188">
        <ele>954.4</ele>
        <time>2025-01-25T13:25:24.000Z</time>
      </trkpt>
      <trkpt lat="43.76005" lon="7.03178">
        <ele>954.2</ele>
        <time>2025-01-25T13:25:26.000Z</time>
      </trkpt>
      <trkpt lat="43.76005" lon="7.03168">
        <ele>954.1</ele>
        <time>2025-01-25T13:25:28.000Z</time>
      </trkpt>
      <trkpt lat="43.76004" lon="7.03159">
        <ele>954</ele>
        <time>2025-01-25T13:25:30.000Z</time>
      </trkpt>
      <trkpt lat="43.76" lon="7.0315">
        <ele>953.9</ele>
        <time>2025-01-25T13:25:32.000Z</time>
      </trkpt>
      <trkpt lat="43.75997" lon="7.03142">
        <ele>953.9</ele>
        <time>2025-01-25T13:25:34.000Z</time>
      </trkpt>
      <trkpt lat="43.75993" lon="7.03135">
        <ele>953.9</ele>
        <time>2025-01-25T13:25:36.000Z</time>
      </trkpt>
      <trkpt lat="43.75989" lon="7.03129">
        <ele>954</ele>
        <time>2025-01-25T13:25:38.000Z</time>
      </trkpt>
      <trkpt lat="43.75984" lon="7.03123">
        <ele>954</ele>
        <time>2025-01-25T13:25:40.000Z</time>
      </trkpt>
      <trkpt lat="43.75978" lon="7.03117">
        <ele>954</ele>
        <time>2025-01-25T13:25:42.000Z</time>
      </trkpt>
      <trkpt lat="43.75973" lon="7.03109">
        <ele>954.1</ele>
        <time>2025-01-25T13:25:44.000Z</time>
      </trkpt>
      <trkpt lat="43.75967" lon="7.03101">
        <ele>954.1</ele>
        <time>2025-01-25T13:25:46.000Z</time>
      </trkpt>
      <trkpt lat="43.75963" lon="7.03092">
        <ele>954</ele>
        <time>2025-01-25T13:25:48.000Z</time>
      </trkpt>
      <trkpt lat="43.75959" lon="7.03083">
        <ele>953.9</ele>
        <time>2025-01-25T13:25:50.000Z</time>
      </trkpt>
      <trkpt lat="43.75957" lon="7.03073">
        <ele>953.9</ele>
        <time>2025-01-25T13:25:52.000Z</time>
      </trkpt>
      <trkpt lat="43.75954" lon="7.03067">
        <ele>953.8</ele>
        <time>2025-01-25T13:25:53.000Z</time>
      </trkpt>
      <trkpt lat="43.75953" lon="7.03061">
        <ele>953.7</ele>
        <time>2025-01-25T13:25:54.000Z</time>
      </trkpt>
      <trkpt lat="43.7595" lon="7.03056">
        <ele>953.6</ele>
        <time>2025-01-25T13:25:55.000Z</time>
      </trkpt>
      <trkpt lat="43.75946" lon="7.03051">
        <ele>953.6</ele>
        <time>2025-01-25T13:25:56.000Z</time>
      </trkpt>
      <trkpt lat="43.75942" lon="7.03047">
        <ele>953.5</ele>
        <time>2025-01-25T13:25:57.000Z</time>
      </trkpt>
      <trkpt lat="43.75935" lon="7.03041">
        <ele>953.2</ele>
        <time>2025-01-25T13:25:59.000Z</time>
      </trkpt>
      <trkpt lat="43.75931" lon="7.03036">
        <ele>953.1</ele>
        <time>2025-01-25T13:26:00.000Z</time>
      </trkpt>
      <trkpt lat="43.75928" lon="7.03032">
        <ele>952.9</ele>
        <time>2025-01-25T13:26:01.000Z</time>
      </trkpt>
      <trkpt lat="43.75923" lon="7.03022">
        <ele>952.5</ele>
        <time>2025-01-25T13:26:03.000Z</time>
      </trkpt>
      <trkpt lat="43.75918" lon="7.03013">
        <ele>952.2</ele>
        <time>2025-01-25T13:26:05.000Z</time>
      </trkpt>
      <trkpt lat="43.75914" lon="7.03002">
        <ele>951.8</ele>
        <time>2025-01-25T13:26:07.000Z</time>
      </trkpt>
      <trkpt lat="43.75909" lon="7.02994">
        <ele>951.5</ele>
        <time>2025-01-25T13:26:09.000Z</time>
      </trkpt>
      <trkpt lat="43.75904" lon="7.02987">
        <ele>951.2</ele>
        <time>2025-01-25T13:26:11.000Z</time>
      </trkpt>
      <trkpt lat="43.75901" lon="7.02979">
        <ele>951.1</ele>
        <time>2025-01-25T13:26:13.000Z</time>
      </trkpt>
      <trkpt lat="43.75898" lon="7.0297">
        <ele>951</ele>
        <time>2025-01-25T13:26:15.000Z</time>
      </trkpt>
      <trkpt lat="43.75896" lon="7.0296">
        <ele>950.7</ele>
        <time>2025-01-25T13:26:17.000Z</time>
      </trkpt>
      <trkpt lat="43.75894" lon="7.0295">
        <ele>950.6</ele>
        <time>2025-01-25T13:26:19.000Z</time>
      </trkpt>
      <trkpt lat="43.7589" lon="7.02939">
        <ele>950.4</ele>
        <time>2025-01-25T13:26:21.000Z</time>
      </trkpt>
      <trkpt lat="43.75885" lon="7.02929">
        <ele>950.2</ele>
        <time>2025-01-25T13:26:23.000Z</time>
      </trkpt>
      <trkpt lat="43.75881" lon="7.02924">
        <ele>950.3</ele>
        <time>2025-01-25T13:26:24.000Z</time>
      </trkpt>
      <trkpt lat="43.75878" lon="7.0292">
        <ele>950.3</ele>
        <time>2025-01-25T13:26:25.000Z</time>
      </trkpt>
      <trkpt lat="43.75872" lon="7.02913">
        <ele>950.1</ele>
        <time>2025-01-25T13:26:27.000Z</time>
      </trkpt>
      <trkpt lat="43.75867" lon="7.02907">
        <ele>950.3</ele>
        <time>2025-01-25T13:26:29.000Z</time>
      </trkpt>
      <trkpt lat="43.75863" lon="7.02902">
        <ele>950.4</ele>
        <time>2025-01-25T13:26:31.000Z</time>
      </trkpt>
      <trkpt lat="43.75858" lon="7.02897">
        <ele>950.4</ele>
        <time>2025-01-25T13:26:33.000Z</time>
      </trkpt>
      <trkpt lat="43.75855" lon="7.02893">
        <ele>950.6</ele>
        <time>2025-01-25T13:26:35.000Z</time>
      </trkpt>
      <trkpt lat="43.7585" lon="7.02888">
        <ele>950.7</ele>
        <time>2025-01-25T13:26:37.000Z</time>
      </trkpt>
      <trkpt lat="43.75846" lon="7.02883">
        <ele>950.9</ele>
        <time>2025-01-25T13:26:39.000Z</time>
      </trkpt>
      <trkpt lat="43.75842" lon="7.02876">
        <ele>951.2</ele>
        <time>2025-01-25T13:26:41.000Z</time>
      </trkpt>
      <trkpt lat="43.75839" lon="7.02871">
        <ele>951.5</ele>
        <time>2025-01-25T13:26:43.000Z</time>
      </trkpt>
      <trkpt lat="43.75835" lon="7.02862">
        <ele>951.5</ele>
        <time>2025-01-25T13:26:45.000Z</time>
      </trkpt>
      <trkpt lat="43.75832" lon="7.02853">
        <ele>951.6</ele>
        <time>2025-01-25T13:26:47.000Z</time>
      </trkpt>
      <trkpt lat="43.75827" lon="7.02846">
        <ele>951.6</ele>
        <time>2025-01-25T13:26:49.000Z</time>
      </trkpt>
      <trkpt lat="43.75822" lon="7.02839">
        <ele>951.7</ele>
        <time>2025-01-25T13:26:51.000Z</time>
      </trkpt>
      <trkpt lat="43.75819" lon="7.02833">
        <ele>951.7</ele>
        <time>2025-01-25T13:26:53.000Z</time>
      </trkpt>
      <trkpt lat="43.75816" lon="7.02825">
        <ele>951.7</ele>
        <time>2025-01-25T13:26:55.000Z</time>
      </trkpt>
      <trkpt lat="43.75812" lon="7.02818">
        <ele>951.8</ele>
        <time>2025-01-25T13:26:57.000Z</time>
      </trkpt>
      <trkpt lat="43.75812" lon="7.02808">
        <ele>951.9</ele>
        <time>2025-01-25T13:26:59.000Z</time>
      </trkpt>
      <trkpt lat="43.7581" lon="7.028">
        <ele>951.9</ele>
        <time>2025-01-25T13:27:01.000Z</time>
      </trkpt>
      <trkpt lat="43.75808" lon="7.02792">
        <ele>952</ele>
        <time>2025-01-25T13:27:03.000Z</time>
      </trkpt>
      <trkpt lat="43.75805" lon="7.02785">
        <ele>952</ele>
        <time>2025-01-25T13:27:05.000Z</time>
      </trkpt>
      <trkpt lat="43.75802" lon="7.02778">
        <ele>952</ele>
        <time>2025-01-25T13:27:07.000Z</time>
      </trkpt>
      <trkpt lat="43.75799" lon="7.02771">
        <ele>952.1</ele>
        <time>2025-01-25T13:27:09.000Z</time>
      </trkpt>
      <trkpt lat="43.75794" lon="7.02764">
        <ele>952.2</ele>
        <time>2025-01-25T13:27:11.000Z</time>
      </trkpt>
      <trkpt lat="43.75793" lon="7.02757">
        <ele>952.2</ele>
        <time>2025-01-25T13:27:13.000Z</time>
      </trkpt>
      <trkpt lat="43.75795" lon="7.0275">
        <ele>952.3</ele>
        <time>2025-01-25T13:27:15.000Z</time>
      </trkpt>
      <trkpt lat="43.75792" lon="7.02742">
        <ele>952.5</ele>
        <time>2025-01-25T13:27:18.000Z</time>
      </trkpt>
      <trkpt lat="43.75788" lon="7.02736">
        <ele>952.6</ele>
        <time>2025-01-25T13:27:20.000Z</time>
      </trkpt>
      <trkpt lat="43.75787" lon="7.02729">
        <ele>952.7</ele>
        <time>2025-01-25T13:27:22.000Z</time>
      </trkpt>
      <trkpt lat="43.75785" lon="7.0272">
        <ele>952.8</ele>
        <time>2025-01-25T13:27:24.000Z</time>
      </trkpt>
      <trkpt lat="43.75783" lon="7.02712">
        <ele>953</ele>
        <time>2025-01-25T13:27:26.000Z</time>
      </trkpt>
      <trkpt lat="43.75781" lon="7.02703">
        <ele>953.1</ele>
        <time>2025-01-25T13:27:28.000Z</time>
      </trkpt>
      <trkpt lat="43.75779" lon="7.02696">
        <ele>953.1</ele>
        <time>2025-01-25T13:27:30.000Z</time>
      </trkpt>
      <trkpt lat="43.75777" lon="7.02688">
        <ele>953.2</ele>
        <time>2025-01-25T13:27:32.000Z</time>
      </trkpt>
      <trkpt lat="43.75776" lon="7.02681">
        <ele>953.3</ele>
        <time>2025-01-25T13:27:34.000Z</time>
      </trkpt>
      <trkpt lat="43.75775" lon="7.02674">
        <ele>953.4</ele>
        <time>2025-01-25T13:27:36.000Z</time>
      </trkpt>
      <trkpt lat="43.75775" lon="7.02665">
        <ele>953.5</ele>
        <time>2025-01-25T13:27:38.000Z</time>
      </trkpt>
      <trkpt lat="43.75775" lon="7.02656">
        <ele>953.6</ele>
        <time>2025-01-25T13:27:40.000Z</time>
      </trkpt>
      <trkpt lat="43.75776" lon="7.02647">
        <ele>953.5</ele>
        <time>2025-01-25T13:27:42.000Z</time>
      </trkpt>
      <trkpt lat="43.75776" lon="7.02635">
        <ele>953.4</ele>
        <time>2025-01-25T13:27:44.000Z</time>
      </trkpt>
      <trkpt lat="43.75777" lon="7.02625">
        <ele>953.3</ele>
        <time>2025-01-25T13:27:46.000Z</time>
      </trkpt>
      <trkpt lat="43.75778" lon="7.02614">
        <ele>953.1</ele>
        <time>2025-01-25T13:27:48.000Z</time>
      </trkpt>
      <trkpt lat="43.75779" lon="7.02603">
        <ele>952.8</ele>
        <time>2025-01-25T13:27:50.000Z</time>
      </trkpt>
      <trkpt lat="43.7578" lon="7.02593">
        <ele>952.7</ele>
        <time>2025-01-25T13:27:52.000Z</time>
      </trkpt>
      <trkpt lat="43.7578" lon="7.02584">
        <ele>952.5</ele>
        <time>2025-01-25T13:27:54.000Z</time>
      </trkpt>
      <trkpt lat="43.75781" lon="7.02574">
        <ele>952.2</ele>
        <time>2025-01-25T13:27:56.000Z</time>
      </trkpt>
      <trkpt lat="43.75781" lon="7.02563">
        <ele>952</ele>
        <time>2025-01-25T13:27:58.000Z</time>
      </trkpt>
      <trkpt lat="43.75781" lon="7.02553">
        <ele>951.7</ele>
        <time>2025-01-25T13:28:00.000Z</time>
      </trkpt>
      <trkpt lat="43.75781" lon="7.0254">
        <ele>951.4</ele>
        <time>2025-01-25T13:28:02.000Z</time>
      </trkpt>
      <trkpt lat="43.7578" lon="7.02534">
        <ele>951.3</ele>
        <time>2025-01-25T13:28:03.000Z</time>
      </trkpt>
      <trkpt lat="43.75779" lon="7.02527">
        <ele>951.1</ele>
        <time>2025-01-25T13:28:04.000Z</time>
      </trkpt>
      <trkpt lat="43.75779" lon="7.02521">
        <ele>950.9</ele>
        <time>2025-01-25T13:28:05.000Z</time>
      </trkpt>
      <trkpt lat="43.75778" lon="7.02514">
        <ele>950.7</ele>
        <time>2025-01-25T13:28:06.000Z</time>
      </trkpt>
      <trkpt lat="43.75778" lon="7.02507">
        <ele>950.5</ele>
        <time>2025-01-25T13:28:07.000Z</time>
      </trkpt>
      <trkpt lat="43.75777" lon="7.02501">
        <ele>950.3</ele>
        <time>2025-01-25T13:28:08.000Z</time>
      </trkpt>
      <trkpt lat="43.75779" lon="7.02489">
        <ele>950.1</ele>
        <time>2025-01-25T13:28:10.000Z</time>
      </trkpt>
      <trkpt lat="43.75779" lon="7.02479">
        <ele>950</ele>
        <time>2025-01-25T13:28:12.000Z</time>
      </trkpt>
      <trkpt lat="43.75779" lon="7.02468">
        <ele>949.8</ele>
        <time>2025-01-25T13:28:14.000Z</time>
      </trkpt>
      <trkpt lat="43.75778" lon="7.02458">
        <ele>949.6</ele>
        <time>2025-01-25T13:28:16.000Z</time>
      </trkpt>
      <trkpt lat="43.75777" lon="7.02448">
        <ele>949.6</ele>
        <time>2025-01-25T13:28:18.000Z</time>
      </trkpt>
      <trkpt lat="43.75775" lon="7.0244">
        <ele>949.6</ele>
        <time>2025-01-25T13:28:20.000Z</time>
      </trkpt>
      <trkpt lat="43.75772" lon="7.02433">
        <ele>949.6</ele>
        <time>2025-01-25T13:28:22.000Z</time>
      </trkpt>
      <trkpt lat="43.75769" lon="7.02425">
        <ele>949.7</ele>
        <time>2025-01-25T13:28:24.000Z</time>
      </trkpt>
      <trkpt lat="43.75769" lon="7.02418">
        <ele>949.8</ele>
        <time>2025-01-25T13:28:26.000Z</time>
      </trkpt>
      <trkpt lat="43.75771" lon="7.02409">
        <ele>949.8</ele>
        <time>2025-01-25T13:28:28.000Z</time>
      </trkpt>
      <trkpt lat="43.75774" lon="7.02401">
        <ele>949.9</ele>
        <time>2025-01-25T13:28:30.000Z</time>
      </trkpt>
      <trkpt lat="43.75775" lon="7.02392">
        <ele>950</ele>
        <time>2025-01-25T13:28:32.000Z</time>
      </trkpt>
      <trkpt lat="43.75775" lon="7.02384">
        <ele>950</ele>
        <time>2025-01-25T13:28:34.000Z</time>
      </trkpt>
      <trkpt lat="43.75776" lon="7.02376">
        <ele>950.1</ele>
        <time>2025-01-25T13:28:36.000Z</time>
      </trkpt>
      <trkpt lat="43.75778" lon="7.02369">
        <ele>950.1</ele>
        <time>2025-01-25T13:28:38.000Z</time>
      </trkpt>
      <trkpt lat="43.75781" lon="7.0236">
        <ele>950.2</ele>
        <time>2025-01-25T13:28:40.000Z</time>
      </trkpt>
      <trkpt lat="43.75785" lon="7.02354">
        <ele>950.3</ele>
        <time>2025-01-25T13:28:42.000Z</time>
      </trkpt>
      <trkpt lat="43.75787" lon="7.02346">
        <ele>950.3</ele>
        <time>2025-01-25T13:28:44.000Z</time>
      </trkpt>
      <trkpt lat="43.75788" lon="7.02337">
        <ele>950.4</ele>
        <time>2025-01-25T13:28:46.000Z</time>
      </trkpt>
      <trkpt lat="43.75789" lon="7.0233">
        <ele>950.5</ele>
        <time>2025-01-25T13:28:48.000Z</time>
      </trkpt>
      <trkpt lat="43.7579" lon="7.02322">
        <ele>950.6</ele>
        <time>2025-01-25T13:28:51.000Z</time>
      </trkpt>
      <trkpt lat="43.75789" lon="7.02313">
        <ele>950.8</ele>
        <time>2025-01-25T13:28:54.000Z</time>
      </trkpt>
      <trkpt lat="43.75787" lon="7.02305">
        <ele>950.9</ele>
        <time>2025-01-25T13:28:57.000Z</time>
      </trkpt>
      <trkpt lat="43.75788" lon="7.02298">
        <ele>951.1</ele>
        <time>2025-01-25T13:29:00.000Z</time>
      </trkpt>
      <trkpt lat="43.75786" lon="7.0229">
        <ele>951.1</ele>
        <time>2025-01-25T13:29:03.000Z</time>
      </trkpt>
      <trkpt lat="43.75784" lon="7.02285">
        <ele>951.3</ele>
        <time>2025-01-25T13:29:06.000Z</time>
      </trkpt>
      <trkpt lat="43.75782" lon="7.02279">
        <ele>951.6</ele>
        <time>2025-01-25T13:29:09.000Z</time>
      </trkpt>
      <trkpt lat="43.75786" lon="7.02272">
        <ele>951.8</ele>
        <time>2025-01-25T13:29:11.000Z</time>
      </trkpt>
      <trkpt lat="43.75783" lon="7.02268">
        <ele>952.3</ele>
        <time>2025-01-25T13:29:17.000Z</time>
      </trkpt>
      <trkpt lat="43.75778" lon="7.02265">
        <ele>952.7</ele>
        <time>2025-01-25T13:29:25.000Z</time>
      </trkpt>
      <trkpt lat="43.75775" lon="7.0226">
        <ele>952.8</ele>
        <time>2025-01-25T13:29:28.000Z</time>
      </trkpt>
      <trkpt lat="43.75772" lon="7.02254">
        <ele>953</ele>
        <time>2025-01-25T13:29:31.000Z</time>
      </trkpt>
      <trkpt lat="43.75773" lon="7.02247">
        <ele>953.2</ele>
        <time>2025-01-25T13:29:33.000Z</time>
      </trkpt>
      <trkpt lat="43.75774" lon="7.0224">
        <ele>952.9</ele>
        <time>2025-01-25T13:29:36.000Z</time>
      </trkpt>
      <trkpt lat="43.75775" lon="7.02233">
        <ele>953.7</ele>
        <time>2025-01-25T13:29:39.000Z</time>
      </trkpt>
      <trkpt lat="43.75776" lon="7.02227">
        <ele>954.1</ele>
        <time>2025-01-25T13:29:41.000Z</time>
      </trkpt>
      <trkpt lat="43.75777" lon="7.02221">
        <ele>954.3</ele>
        <time>2025-01-25T13:29:43.000Z</time>
      </trkpt>
      <trkpt lat="43.75778" lon="7.02214">
        <ele>954.7</ele>
        <time>2025-01-25T13:29:45.000Z</time>
      </trkpt>
      <trkpt lat="43.75778" lon="7.02208">
        <ele>954.9</ele>
        <time>2025-01-25T13:29:47.000Z</time>
      </trkpt>
      <trkpt lat="43.75777" lon="7.02202">
        <ele>955</ele>
        <time>2025-01-25T13:29:49.000Z</time>
      </trkpt>
      <trkpt lat="43.75774" lon="7.02193">
        <ele>955.1</ele>
        <time>2025-01-25T13:29:52.000Z</time>
      </trkpt>
      <trkpt lat="43.75771" lon="7.02186">
        <ele>955.2</ele>
        <time>2025-01-25T13:29:55.000Z</time>
      </trkpt>
      <trkpt lat="43.75771" lon="7.02179">
        <ele>955.4</ele>
        <time>2025-01-25T13:29:58.000Z</time>
      </trkpt>
      <trkpt lat="43.75775" lon="7.02173">
        <ele>955.6</ele>
        <time>2025-01-25T13:30:01.000Z</time>
      </trkpt>
      <trkpt lat="43.75779" lon="7.02166">
        <ele>955.9</ele>
        <time>2025-01-25T13:30:04.000Z</time>
      </trkpt>
      <trkpt lat="43.75781" lon="7.02157">
        <ele>956.1</ele>
        <time>2025-01-25T13:30:07.000Z</time>
      </trkpt>
      <trkpt lat="43.75782" lon="7.02148">
        <ele>956.2</ele>
        <time>2025-01-25T13:30:09.000Z</time>
      </trkpt>
      <trkpt lat="43.75782" lon="7.02138">
        <ele>956.1</ele>
        <time>2025-01-25T13:30:11.000Z</time>
      </trkpt>
      <trkpt lat="43.75785" lon="7.02132">
        <ele>956</ele>
        <time>2025-01-25T13:30:12.000Z</time>
      </trkpt>
      <trkpt lat="43.75787" lon="7.02123">
        <ele>955.9</ele>
        <time>2025-01-25T13:30:14.000Z</time>
      </trkpt>
      <trkpt lat="43.75789" lon="7.02115">
        <ele>955.9</ele>
        <time>2025-01-25T13:30:16.000Z</time>
      </trkpt>
      <trkpt lat="43.75792" lon="7.02109">
        <ele>955.9</ele>
        <time>2025-01-25T13:30:18.000Z</time>
      </trkpt>
      <trkpt lat="43.75794" lon="7.02101">
        <ele>955.8</ele>
        <time>2025-01-25T13:30:20.000Z</time>
      </trkpt>
      <trkpt lat="43.75796" lon="7.02093">
        <ele>955.9</ele>
        <time>2025-01-25T13:30:22.000Z</time>
      </trkpt>
      <trkpt lat="43.75797" lon="7.02087">
        <ele>955.9</ele>
        <time>2025-01-25T13:30:24.000Z</time>
      </trkpt>
      <trkpt lat="43.75799" lon="7.02081">
        <ele>955.9</ele>
        <time>2025-01-25T13:30:26.000Z</time>
      </trkpt>
      <trkpt lat="43.75799" lon="7.02074">
        <ele>955.9</ele>
        <time>2025-01-25T13:30:28.000Z</time>
      </trkpt>
      <trkpt lat="43.75801" lon="7.02065">
        <ele>956</ele>
        <time>2025-01-25T13:30:31.000Z</time>
      </trkpt>
      <trkpt lat="43.75805" lon="7.02058">
        <ele>956.2</ele>
        <time>2025-01-25T13:30:34.000Z</time>
      </trkpt>
      <trkpt lat="43.75806" lon="7.02052">
        <ele>956.5</ele>
        <time>2025-01-25T13:30:37.000Z</time>
      </trkpt>
      <trkpt lat="43.75807" lon="7.02043">
        <ele>956.9</ele>
        <time>2025-01-25T13:30:41.000Z</time>
      </trkpt>
      <trkpt lat="43.75808" lon="7.02036">
        <ele>957.5</ele>
        <time>2025-01-25T13:30:44.000Z</time>
      </trkpt>
      <trkpt lat="43.75811" lon="7.0203">
        <ele>958.1</ele>
        <time>2025-01-25T13:30:47.000Z</time>
      </trkpt>
      <trkpt lat="43.75813" lon="7.02023">
        <ele>959.3</ele>
        <time>2025-01-25T13:30:52.000Z</time>
      </trkpt>
      <trkpt lat="43.75813" lon="7.02017">
        <ele>960.2</ele>
        <time>2025-01-25T13:30:56.000Z</time>
      </trkpt>
      <trkpt lat="43.75812" lon="7.0201">
        <ele>961</ele>
        <time>2025-01-25T13:31:00.000Z</time>
      </trkpt>
      <trkpt lat="43.75809" lon="7.02003">
        <ele>961.8</ele>
        <time>2025-01-25T13:31:05.000Z</time>
      </trkpt>
      <trkpt lat="43.75807" lon="7.01996">
        <ele>962.4</ele>
        <time>2025-01-25T13:31:09.000Z</time>
      </trkpt>
      <trkpt lat="43.75805" lon="7.01989">
        <ele>963.1</ele>
        <time>2025-01-25T13:31:13.000Z</time>
      </trkpt>
      <trkpt lat="43.75805" lon="7.01982">
        <ele>963.6</ele>
        <time>2025-01-25T13:31:16.000Z</time>
      </trkpt>
      <trkpt lat="43.75806" lon="7.01976">
        <ele>963.9</ele>
        <time>2025-01-25T13:31:19.000Z</time>
      </trkpt>
      <trkpt lat="43.75806" lon="7.01969">
        <ele>964.2</ele>
        <time>2025-01-25T13:31:22.000Z</time>
      </trkpt>
      <trkpt lat="43.75808" lon="7.01961">
        <ele>964.5</ele>
        <time>2025-01-25T13:31:25.000Z</time>
      </trkpt>
      <trkpt lat="43.75809" lon="7.01954">
        <ele>964.8</ele>
        <time>2025-01-25T13:31:28.000Z</time>
      </trkpt>
      <trkpt lat="43.75809" lon="7.01948">
        <ele>965</ele>
        <time>2025-01-25T13:31:31.000Z</time>
      </trkpt>
      <trkpt lat="43.75809" lon="7.0194">
        <ele>965.3</ele>
        <time>2025-01-25T13:31:34.000Z</time>
      </trkpt>
      <trkpt lat="43.75809" lon="7.01933">
        <ele>965.4</ele>
        <time>2025-01-25T13:31:37.000Z</time>
      </trkpt>
      <trkpt lat="43.7581" lon="7.01925">
        <ele>965.6</ele>
        <time>2025-01-25T13:31:40.000Z</time>
      </trkpt>
      <trkpt lat="43.75809" lon="7.01918">
        <ele>965.8</ele>
        <time>2025-01-25T13:31:43.000Z</time>
      </trkpt>
      <trkpt lat="43.75808" lon="7.0191">
        <ele>966</ele>
        <time>2025-01-25T13:31:46.000Z</time>
      </trkpt>
      <trkpt lat="43.75804" lon="7.01904">
        <ele>966.1</ele>
        <time>2025-01-25T13:31:49.000Z</time>
      </trkpt>
      <trkpt lat="43.75803" lon="7.01898">
        <ele>966.2</ele>
        <time>2025-01-25T13:31:52.000Z</time>
      </trkpt>
      <trkpt lat="43.75804" lon="7.0189">
        <ele>966.7</ele>
        <time>2025-01-25T13:31:56.000Z</time>
      </trkpt>
      <trkpt lat="43.75805" lon="7.01883">
        <ele>967.2</ele>
        <time>2025-01-25T13:32:00.000Z</time>
      </trkpt>
      <trkpt lat="43.75805" lon="7.01874">
        <ele>967.8</ele>
        <time>2025-01-25T13:32:04.000Z</time>
      </trkpt>
      <trkpt lat="43.75806" lon="7.01866">
        <ele>968.2</ele>
        <time>2025-01-25T13:32:07.000Z</time>
      </trkpt>
      <trkpt lat="43.75806" lon="7.01857">
        <ele>968.4</ele>
        <time>2025-01-25T13:32:10.000Z</time>
      </trkpt>
      <trkpt lat="43.75807" lon="7.0185">
        <ele>968.6</ele>
        <time>2025-01-25T13:32:13.000Z</time>
      </trkpt>
      <trkpt lat="43.75807" lon="7.01842">
        <ele>968.8</ele>
        <time>2025-01-25T13:32:16.000Z</time>
      </trkpt>
      <trkpt lat="43.75808" lon="7.01835">
        <ele>969</ele>
        <time>2025-01-25T13:32:19.000Z</time>
      </trkpt>
      <trkpt lat="43.75807" lon="7.01828">
        <ele>969.2</ele>
        <time>2025-01-25T13:32:22.000Z</time>
      </trkpt>
      <trkpt lat="43.75805" lon="7.01821">
        <ele>969.3</ele>
        <time>2025-01-25T13:32:25.000Z</time>
      </trkpt>
      <trkpt lat="43.75804" lon="7.01814">
        <ele>969.6</ele>
        <time>2025-01-25T13:32:28.000Z</time>
      </trkpt>
      <trkpt lat="43.75803" lon="7.01806">
        <ele>969.9</ele>
        <time>2025-01-25T13:32:31.000Z</time>
      </trkpt>
      <trkpt lat="43.75804" lon="7.01797">
        <ele>970.2</ele>
        <time>2025-01-25T13:32:34.000Z</time>
      </trkpt>
      <trkpt lat="43.75805" lon="7.0179">
        <ele>970.3</ele>
        <time>2025-01-25T13:32:36.000Z</time>
      </trkpt>
      <trkpt lat="43.75805" lon="7.01781">
        <ele>970.5</ele>
        <time>2025-01-25T13:32:39.000Z</time>
      </trkpt>
      <trkpt lat="43.75805" lon="7.01774">
        <ele>970.6</ele>
        <time>2025-01-25T13:32:41.000Z</time>
      </trkpt>
      <trkpt lat="43.75804" lon="7.01768">
        <ele>970.6</ele>
        <time>2025-01-25T13:32:43.000Z</time>
      </trkpt>
      <trkpt lat="43.75804" lon="7.01761">
        <ele>970.7</ele>
        <time>2025-01-25T13:32:45.000Z</time>
      </trkpt>
      <trkpt lat="43.75805" lon="7.01753">
        <ele>970.8</ele>
        <time>2025-01-25T13:32:48.000Z</time>
      </trkpt>
      <trkpt lat="43.75806" lon="7.01745">
        <ele>970.8</ele>
        <time>2025-01-25T13:32:51.000Z</time>
      </trkpt>
      <trkpt lat="43.75809" lon="7.01738">
        <ele>970.9</ele>
        <time>2025-01-25T13:32:53.000Z</time>
      </trkpt>
      <trkpt lat="43.75811" lon="7.01732">
        <ele>970.9</ele>
        <time>2025-01-25T13:32:55.000Z</time>
      </trkpt>
      <trkpt lat="43.75814" lon="7.01727">
        <ele>971</ele>
        <time>2025-01-25T13:32:57.000Z</time>
      </trkpt>
      <trkpt lat="43.75817" lon="7.0172">
        <ele>971.2</ele>
        <time>2025-01-25T13:33:01.000Z</time>
      </trkpt>
      <trkpt lat="43.75816" lon="7.01713">
        <ele>971.5</ele>
        <time>2025-01-25T13:33:04.000Z</time>
      </trkpt>
      <trkpt lat="43.75815" lon="7.01707">
        <ele>971.8</ele>
        <time>2025-01-25T13:33:06.000Z</time>
      </trkpt>
      <trkpt lat="43.75814" lon="7.017">
        <ele>972.4</ele>
        <time>2025-01-25T13:33:09.000Z</time>
      </trkpt>
      <trkpt lat="43.75813" lon="7.01692">
        <ele>972.9</ele>
        <time>2025-01-25T13:33:12.000Z</time>
      </trkpt>
      <trkpt lat="43.75812" lon="7.01686">
        <ele>973.2</ele>
        <time>2025-01-25T13:33:14.000Z</time>
      </trkpt>
      <trkpt lat="43.7581" lon="7.01678">
        <ele>973.6</ele>
        <time>2025-01-25T13:33:17.000Z</time>
      </trkpt>
      <trkpt lat="43.75808" lon="7.0167">
        <ele>973.8</ele>
        <time>2025-01-25T13:33:20.000Z</time>
      </trkpt>
      <trkpt lat="43.75804" lon="7.01662">
        <ele>974</ele>
        <time>2025-01-25T13:33:23.000Z</time>
      </trkpt>
      <trkpt lat="43.75801" lon="7.01656">
        <ele>974.4</ele>
        <time>2025-01-25T13:33:26.000Z</time>
      </trkpt>
      <trkpt lat="43.75798" lon="7.01648">
        <ele>974.6</ele>
        <time>2025-01-25T13:33:29.000Z</time>
      </trkpt>
      <trkpt lat="43.75797" lon="7.01639">
        <ele>974.7</ele>
        <time>2025-01-25T13:33:32.000Z</time>
      </trkpt>
      <trkpt lat="43.75798" lon="7.01632">
        <ele>974.8</ele>
        <time>2025-01-25T13:33:34.000Z</time>
      </trkpt>
      <trkpt lat="43.75797" lon="7.01625">
        <ele>975</ele>
        <time>2025-01-25T13:33:36.000Z</time>
      </trkpt>
      <trkpt lat="43.75797" lon="7.01618">
        <ele>975</ele>
        <time>2025-01-25T13:33:38.000Z</time>
      </trkpt>
      <trkpt lat="43.75796" lon="7.01612">
        <ele>975.1</ele>
        <time>2025-01-25T13:33:40.000Z</time>
      </trkpt>
      <trkpt lat="43.75796" lon="7.01605">
        <ele>975.1</ele>
        <time>2025-01-25T13:33:42.000Z</time>
      </trkpt>
      <trkpt lat="43.75796" lon="7.01596">
        <ele>975.2</ele>
        <time>2025-01-25T13:33:45.000Z</time>
      </trkpt>
      <trkpt lat="43.75796" lon="7.01589">
        <ele>975.3</ele>
        <time>2025-01-25T13:33:48.000Z</time>
      </trkpt>
      <trkpt lat="43.75794" lon="7.01581">
        <ele>975.3</ele>
        <time>2025-01-25T13:33:51.000Z</time>
      </trkpt>
      <trkpt lat="43.75793" lon="7.01574">
        <ele>975.3</ele>
        <time>2025-01-25T13:33:53.000Z</time>
      </trkpt>
      <trkpt lat="43.7579" lon="7.01569">
        <ele>975.3</ele>
        <time>2025-01-25T13:33:55.000Z</time>
      </trkpt>
      <trkpt lat="43.75787" lon="7.01564">
        <ele>975.2</ele>
        <time>2025-01-25T13:33:58.000Z</time>
      </trkpt>
      <trkpt lat="43.75787" lon="7.01565">
        <ele>975.1</ele>
        <time>2025-01-25T13:34:02.000Z</time>
      </trkpt>
      <trkpt lat="43.75787" lon="7.01565">
        <ele>975</ele>
        <time>2025-01-25T13:34:03.000Z</time>
      </trkpt>
      <trkpt lat="43.75787" lon="7.01565">
        <ele>974.9</ele>
        <time>2025-01-25T13:34:04.000Z</time>
      </trkpt>
      <trkpt lat="43.75788" lon="7.01563">
        <ele>969.5</ele>
        <time>2025-01-25T13:41:04.000Z</time>
      </trkpt>
      <trkpt lat="43.75788" lon="7.01563">
        <ele>969.5</ele>
        <time>2025-01-25T13:41:13.000Z</time>
      </trkpt>
      <trkpt lat="43.75788" lon="7.01563">
        <ele>969.5</ele>
        <time>2025-01-25T13:41:14.000Z</time>
      </trkpt>
      <trkpt lat="43.75789" lon="7.01563">
        <ele>969.5</ele>
        <time>2025-01-25T13:41:15.000Z</time>
      </trkpt>
      <trkpt lat="43.75789" lon="7.01563">
        <ele>969.5</ele>
        <time>2025-01-25T13:41:16.000Z</time>
      </trkpt>
      <trkpt lat="43.75789" lon="7.01563">
        <ele>969.5</ele>
        <time>2025-01-25T13:41:17.000Z</time>
      </trkpt>
      <trkpt lat="43.75789" lon="7.01563">
        <ele>969.5</ele>
        <time>2025-01-25T13:41:18.000Z</time>
      </trkpt>
      <trkpt lat="43.75789" lon="7.01563">
        <ele>969.5</ele>
        <time>2025-01-25T13:41:19.000Z</time>
      </trkpt>
      <trkpt lat="43.75788" lon="7.01563">
        <ele>969.5</ele>
        <time>2025-01-25T13:41:20.000Z</time>
      </trkpt>
      <trkpt lat="43.75788" lon="7.01564">
        <ele>969.4</ele>
        <time>2025-01-25T13:41:25.000Z</time>
      </trkpt>
      <trkpt lat="43.75788" lon="7.01564">
        <ele>969.4</ele>
        <time>2025-01-25T13:41:26.000Z</time>
      </trkpt>
      <trkpt lat="43.75788" lon="7.01564">
        <ele>969.4</ele>
        <time>2025-01-25T13:41:27.000Z</time>
      </trkpt>
      <trkpt lat="43.75794" lon="7.01561">
        <ele>969.4</ele>
        <time>2025-01-25T13:41:40.000Z</time>
      </trkpt>
      <trkpt lat="43.75798" lon="7.01556">
        <ele>969.4</ele>
        <time>2025-01-25T13:41:42.000Z</time>
      </trkpt>
      <trkpt lat="43.75801" lon="7.01548">
        <ele>969.3</ele>
        <time>2025-01-25T13:41:44.000Z</time>
      </trkpt>
      <trkpt lat="43.75803" lon="7.01541">
        <ele>969.2</ele>
        <time>2025-01-25T13:41:46.000Z</time>
      </trkpt>
      <trkpt lat="43.75808" lon="7.01539">
        <ele>968.8</ele>
        <time>2025-01-25T13:41:49.000Z</time>
      </trkpt>
      <trkpt lat="43.75814" lon="7.01536">
        <ele>968.3</ele>
        <time>2025-01-25T13:41:51.000Z</time>
      </trkpt>
      <trkpt lat="43.7582" lon="7.01532">
        <ele>967.7</ele>
        <time>2025-01-25T13:41:53.000Z</time>
      </trkpt>
      <trkpt lat="43.75828" lon="7.01527">
        <ele>966.3</ele>
        <time>2025-01-25T13:41:55.000Z</time>
      </trkpt>
      <trkpt lat="43.75832" lon="7.01524">
        <ele>965.6</ele>
        <time>2025-01-25T13:41:56.000Z</time>
      </trkpt>
      <trkpt lat="43.75837" lon="7.01521">
        <ele>964.6</ele>
        <time>2025-01-25T13:41:57.000Z</time>
      </trkpt>
      <trkpt lat="43.75841" lon="7.01517">
        <ele>963.6</ele>
        <time>2025-01-25T13:41:58.000Z</time>
      </trkpt>
      <trkpt lat="43.75849" lon="7.01511">
        <ele>962.5</ele>
        <time>2025-01-25T13:42:00.000Z</time>
      </trkpt>
      <trkpt lat="43.75853" lon="7.01508">
        <ele>961.9</ele>
        <time>2025-01-25T13:42:01.000Z</time>
      </trkpt>
      <trkpt lat="43.75858" lon="7.01505">
        <ele>961.1</ele>
        <time>2025-01-25T13:42:02.000Z</time>
      </trkpt>
      <trkpt lat="43.75865" lon="7.01499">
        <ele>959.4</ele>
        <time>2025-01-25T13:42:04.000Z</time>
      </trkpt>
      <trkpt lat="43.75869" lon="7.01495">
        <ele>958.5</ele>
        <time>2025-01-25T13:42:05.000Z</time>
      </trkpt>
      <trkpt lat="43.75873" lon="7.01492">
        <ele>957.5</ele>
        <time>2025-01-25T13:42:06.000Z</time>
      </trkpt>
      <trkpt lat="43.75877" lon="7.01488">
        <ele>956.3</ele>
        <time>2025-01-25T13:42:07.000Z</time>
      </trkpt>
      <trkpt lat="43.75881" lon="7.01484">
        <ele>955.5</ele>
        <time>2025-01-25T13:42:08.000Z</time>
      </trkpt>
      <trkpt lat="43.75885" lon="7.01479">
        <ele>954.6</ele>
        <time>2025-01-25T13:42:09.000Z</time>
      </trkpt>
      <trkpt lat="43.75889" lon="7.01476">
        <ele>953.6</ele>
        <time>2025-01-25T13:42:10.000Z</time>
      </trkpt>
      <trkpt lat="43.75893" lon="7.01472">
        <ele>952.6</ele>
        <time>2025-01-25T13:42:11.000Z</time>
      </trkpt>
      <trkpt lat="43.75902" lon="7.01468">
        <ele>950.8</ele>
        <time>2025-01-25T13:42:13.000Z</time>
      </trkpt>
      <trkpt lat="43.75907" lon="7.01466">
        <ele>949.8</ele>
        <time>2025-01-25T13:42:14.000Z</time>
      </trkpt>
      <trkpt lat="43.75914" lon="7.01464">
        <ele>947.7</ele>
        <time>2025-01-25T13:42:16.000Z</time>
      </trkpt>
      <trkpt lat="43.75919" lon="7.01461">
        <ele>945.8</ele>
        <time>2025-01-25T13:42:18.000Z</time>
      </trkpt>
      <trkpt lat="43.75922" lon="7.01456">
        <ele>944.2</ele>
        <time>2025-01-25T13:42:21.000Z</time>
      </trkpt>
      <trkpt lat="43.75927" lon="7.01451">
        <ele>943.3</ele>
        <time>2025-01-25T13:42:24.000Z</time>
      </trkpt>
      <trkpt lat="43.75932" lon="7.01447">
        <ele>942.9</ele>
        <time>2025-01-25T13:42:26.000Z</time>
      </trkpt>
      <trkpt lat="43.7594" lon="7.01442">
        <ele>941.9</ele>
        <time>2025-01-25T13:42:28.000Z</time>
      </trkpt>
      <trkpt lat="43.75947" lon="7.01436">
        <ele>940.6</ele>
        <time>2025-01-25T13:42:30.000Z</time>
      </trkpt>
      <trkpt lat="43.75955" lon="7.01431">
        <ele>939.7</ele>
        <time>2025-01-25T13:42:32.000Z</time>
      </trkpt>
      <trkpt lat="43.7596" lon="7.01428">
        <ele>939.3</ele>
        <time>2025-01-25T13:42:33.000Z</time>
      </trkpt>
      <trkpt lat="43.75966" lon="7.01424">
        <ele>938.7</ele>
        <time>2025-01-25T13:42:34.000Z</time>
      </trkpt>
      <trkpt lat="43.75971" lon="7.01421">
        <ele>938.1</ele>
        <time>2025-01-25T13:42:35.000Z</time>
      </trkpt>
      <trkpt lat="43.75976" lon="7.01417">
        <ele>937.4</ele>
        <time>2025-01-25T13:42:36.000Z</time>
      </trkpt>
      <trkpt lat="43.75982" lon="7.01412">
        <ele>936.1</ele>
        <time>2025-01-25T13:42:38.000Z</time>
      </trkpt>
      <trkpt lat="43.75987" lon="7.01408">
        <ele>935.3</ele>
        <time>2025-01-25T13:42:40.000Z</time>
      </trkpt>
      <trkpt lat="43.75993" lon="7.01402">
        <ele>934.5</ele>
        <time>2025-01-25T13:42:42.000Z</time>
      </trkpt>
      <trkpt lat="43.76001" lon="7.01394">
        <ele>933.3</ele>
        <time>2025-01-25T13:42:44.000Z</time>
      </trkpt>
      <trkpt lat="43.76004" lon="7.01389">
        <ele>932.6</ele>
        <time>2025-01-25T13:42:45.000Z</time>
      </trkpt>
      <trkpt lat="43.76007" lon="7.01383">
        <ele>931.9</ele>
        <time>2025-01-25T13:42:46.000Z</time>
      </trkpt>
      <trkpt lat="43.76009" lon="7.01378">
        <ele>931.3</ele>
        <time>2025-01-25T13:42:47.000Z</time>
      </trkpt>
      <trkpt lat="43.76013" lon="7.01374">
        <ele>930.6</ele>
        <time>2025-01-25T13:42:48.000Z</time>
      </trkpt>
      <trkpt lat="43.76019" lon="7.01366">
        <ele>928.6</ele>
        <time>2025-01-25T13:42:50.000Z</time>
      </trkpt>
      <trkpt lat="43.76025" lon="7.01359">
        <ele>927</ele>
        <time>2025-01-25T13:42:52.000Z</time>
      </trkpt>
      <trkpt lat="43.7603" lon="7.01354">
        <ele>925.4</ele>
        <time>2025-01-25T13:42:54.000Z</time>
      </trkpt>
      <trkpt lat="43.76034" lon="7.01351">
        <ele>924.3</ele>
        <time>2025-01-25T13:42:56.000Z</time>
      </trkpt>
      <trkpt lat="43.76039" lon="7.01343">
        <ele>923.6</ele>
        <time>2025-01-25T13:42:58.000Z</time>
      </trkpt>
      <trkpt lat="43.76045" lon="7.01335">
        <ele>922.4</ele>
        <time>2025-01-25T13:43:00.000Z</time>
      </trkpt>
      <trkpt lat="43.7605" lon="7.01329">
        <ele>921.4</ele>
        <time>2025-01-25T13:43:02.000Z</time>
      </trkpt>
      <trkpt lat="43.76051" lon="7.0132">
        <ele>920.5</ele>
        <time>2025-01-25T13:43:04.000Z</time>
      </trkpt>
      <trkpt lat="43.76051" lon="7.01312">
        <ele>918.9</ele>
        <time>2025-01-25T13:43:07.000Z</time>
      </trkpt>
      <trkpt lat="43.76051" lon="7.01304">
        <ele>917.9</ele>
        <time>2025-01-25T13:43:09.000Z</time>
      </trkpt>
      <trkpt lat="43.76054" lon="7.01293">
        <ele>916.8</ele>
        <time>2025-01-25T13:43:11.000Z</time>
      </trkpt>
      <trkpt lat="43.76057" lon="7.01282">
        <ele>915.6</ele>
        <time>2025-01-25T13:43:13.000Z</time>
      </trkpt>
      <trkpt lat="43.7606" lon="7.01274">
        <ele>914.7</ele>
        <time>2025-01-25T13:43:15.000Z</time>
      </trkpt>
      <trkpt lat="43.76063" lon="7.01266">
        <ele>914.1</ele>
        <time>2025-01-25T13:43:17.000Z</time>
      </trkpt>
      <trkpt lat="43.76064" lon="7.01258">
        <ele>913.7</ele>
        <time>2025-01-25T13:43:19.000Z</time>
      </trkpt>
      <trkpt lat="43.76063" lon="7.0125">
        <ele>913.2</ele>
        <time>2025-01-25T13:43:21.000Z</time>
      </trkpt>
      <trkpt lat="43.76059" lon="7.0124">
        <ele>912.3</ele>
        <time>2025-01-25T13:43:23.000Z</time>
      </trkpt>
      <trkpt lat="43.76057" lon="7.01234">
        <ele>911.6</ele>
        <time>2025-01-25T13:43:24.000Z</time>
      </trkpt>
      <trkpt lat="43.76056" lon="7.01227">
        <ele>910.8</ele>
        <time>2025-01-25T13:43:25.000Z</time>
      </trkpt>
      <trkpt lat="43.76054" lon="7.0122">
        <ele>910.1</ele>
        <time>2025-01-25T13:43:26.000Z</time>
      </trkpt>
      <trkpt lat="43.76054" lon="7.01213">
        <ele>909.2</ele>
        <time>2025-01-25T13:43:27.000Z</time>
      </trkpt>
      <trkpt lat="43.76054" lon="7.01206">
        <ele>908.4</ele>
        <time>2025-01-25T13:43:28.000Z</time>
      </trkpt>
      <trkpt lat="43.76054" lon="7.01199">
        <ele>907.4</ele>
        <time>2025-01-25T13:43:29.000Z</time>
      </trkpt>
      <trkpt lat="43.76055" lon="7.0119">
        <ele>905.7</ele>
        <time>2025-01-25T13:43:31.000Z</time>
      </trkpt>
      <trkpt lat="43.76056" lon="7.01187">
        <ele>904.1</ele>
        <time>2025-01-25T13:43:35.000Z</time>
      </trkpt>
      <trkpt lat="43.76055" lon="7.01186">
        <ele>903.9</ele>
        <time>2025-01-25T13:43:36.000Z</time>
      </trkpt>
      <trkpt lat="43.76055" lon="7.01186">
        <ele>903.7</ele>
        <time>2025-01-25T13:43:37.000Z</time>
      </trkpt>
      <trkpt lat="43.76053" lon="7.01184">
        <ele>903.1</ele>
        <time>2025-01-25T13:43:44.000Z</time>
      </trkpt>
      <trkpt lat="43.76055" lon="7.01182">
        <ele>903.1</ele>
        <time>2025-01-25T13:43:45.000Z</time>
      </trkpt>
      <trkpt lat="43.76058" lon="7.01176">
        <ele>903</ele>
        <time>2025-01-25T13:43:48.000Z</time>
      </trkpt>
      <trkpt lat="43.76062" lon="7.0117">
        <ele>902.9</ele>
        <time>2025-01-25T13:43:50.000Z</time>
      </trkpt>
      <trkpt lat="43.76066" lon="7.01164">
        <ele>902.9</ele>
        <time>2025-01-25T13:43:52.000Z</time>
      </trkpt>
      <trkpt lat="43.7607" lon="7.01157">
        <ele>902.9</ele>
        <time>2025-01-25T13:43:54.000Z</time>
      </trkpt>
      <trkpt lat="43.76075" lon="7.01151">
        <ele>903</ele>
        <time>2025-01-25T13:43:56.000Z</time>
      </trkpt>
      <trkpt lat="43.76078" lon="7.01145">
        <ele>903</ele>
        <time>2025-01-25T13:43:58.000Z</time>
      </trkpt>
      <trkpt lat="43.76081" lon="7.01136">
        <ele>903.1</ele>
        <time>2025-01-25T13:44:00.000Z</time>
      </trkpt>
      <trkpt lat="43.76082" lon="7.01129">
        <ele>903</ele>
        <time>2025-01-25T13:44:01.000Z</time>
      </trkpt>
      <trkpt lat="43.76086" lon="7.01122">
        <ele>903</ele>
        <time>2025-01-25T13:44:03.000Z</time>
      </trkpt>
      <trkpt lat="43.7609" lon="7.01117">
        <ele>903.1</ele>
        <time>2025-01-25T13:44:06.000Z</time>
      </trkpt>
      <trkpt lat="43.76089" lon="7.01109">
        <ele>903.4</ele>
        <time>2025-01-25T13:44:10.000Z</time>
      </trkpt>
      <trkpt lat="43.76089" lon="7.01102">
        <ele>903.4</ele>
        <time>2025-01-25T13:44:12.000Z</time>
      </trkpt>
      <trkpt lat="43.76089" lon="7.01093">
        <ele>903.3</ele>
        <time>2025-01-25T13:44:14.000Z</time>
      </trkpt>
      <trkpt lat="43.7609" lon="7.01082">
        <ele>903.2</ele>
        <time>2025-01-25T13:44:16.000Z</time>
      </trkpt>
      <trkpt lat="43.76091" lon="7.01071">
        <ele>903.1</ele>
        <time>2025-01-25T13:44:18.000Z</time>
      </trkpt>
      <trkpt lat="43.76092" lon="7.0106">
        <ele>902.9</ele>
        <time>2025-01-25T13:44:20.000Z</time>
      </trkpt>
      <trkpt lat="43.76094" lon="7.01052">
        <ele>902.7</ele>
        <time>2025-01-25T13:44:22.000Z</time>
      </trkpt>
      <trkpt lat="43.76095" lon="7.01042">
        <ele>902.3</ele>
        <time>2025-01-25T13:44:24.000Z</time>
      </trkpt>
      <trkpt lat="43.76095" lon="7.01035">
        <ele>902</ele>
        <time>2025-01-25T13:44:25.000Z</time>
      </trkpt>
      <trkpt lat="43.76095" lon="7.01028">
        <ele>901.7</ele>
        <time>2025-01-25T13:44:26.000Z</time>
      </trkpt>
      <trkpt lat="43.76099" lon="7.01017">
        <ele>901</ele>
        <time>2025-01-25T13:44:28.000Z</time>
      </trkpt>
      <trkpt lat="43.76102" lon="7.01009">
        <ele>900.2</ele>
        <time>2025-01-25T13:44:30.000Z</time>
      </trkpt>
      <trkpt lat="43.76104" lon="7.00997">
        <ele>899.6</ele>
        <time>2025-01-25T13:44:32.000Z</time>
      </trkpt>
      <trkpt lat="43.76104" lon="7.00989">
        <ele>899.1</ele>
        <time>2025-01-25T13:44:33.000Z</time>
      </trkpt>
      <trkpt lat="43.76104" lon="7.00981">
        <ele>898.7</ele>
        <time>2025-01-25T13:44:34.000Z</time>
      </trkpt>
      <trkpt lat="43.76106" lon="7.00971">
        <ele>897.9</ele>
        <time>2025-01-25T13:44:36.000Z</time>
      </trkpt>
      <trkpt lat="43.76107" lon="7.00964">
        <ele>897.5</ele>
        <time>2025-01-25T13:44:38.000Z</time>
      </trkpt>
      <trkpt lat="43.76109" lon="7.00955">
        <ele>897.3</ele>
        <time>2025-01-25T13:44:41.000Z</time>
      </trkpt>
      <trkpt lat="43.7611" lon="7.00949">
        <ele>897.4</ele>
        <time>2025-01-25T13:44:44.000Z</time>
      </trkpt>
      <trkpt lat="43.76113" lon="7.00942">
        <ele>897.5</ele>
        <time>2025-01-25T13:44:47.000Z</time>
      </trkpt>
      <trkpt lat="43.76116" lon="7.00937">
        <ele>897.5</ele>
        <time>2025-01-25T13:44:49.000Z</time>
      </trkpt>
      <trkpt lat="43.7612" lon="7.00933">
        <ele>897.5</ele>
        <time>2025-01-25T13:44:51.000Z</time>
      </trkpt>
      <trkpt lat="43.76121" lon="7.00929">
        <ele>897.4</ele>
        <time>2025-01-25T13:44:58.000Z</time>
      </trkpt>
      <trkpt lat="43.76121" lon="7.00929">
        <ele>897.4</ele>
        <time>2025-01-25T13:44:59.000Z</time>
      </trkpt>
      <trkpt lat="43.76121" lon="7.00929">
        <ele>897.4</ele>
        <time>2025-01-25T13:45:00.000Z</time>
      </trkpt>
      <trkpt lat="43.76121" lon="7.00931">
        <ele>897.3</ele>
        <time>2025-01-25T13:45:08.000Z</time>
      </trkpt>
      <trkpt lat="43.76121" lon="7.00931">
        <ele>897.3</ele>
        <time>2025-01-25T13:45:09.000Z</time>
      </trkpt>
      <trkpt lat="43.76121" lon="7.00932">
        <ele>897.3</ele>
        <time>2025-01-25T13:45:10.000Z</time>
      </trkpt>
      <trkpt lat="43.76121" lon="7.00932">
        <ele>897.3</ele>
        <time>2025-01-25T13:45:11.000Z</time>
      </trkpt>
      <trkpt lat="43.76122" lon="7.00932">
        <ele>897.2</ele>
        <time>2025-01-25T13:45:12.000Z</time>
      </trkpt>
      <trkpt lat="43.76122" lon="7.00932">
        <ele>897.2</ele>
        <time>2025-01-25T13:45:13.000Z</time>
      </trkpt>
      <trkpt lat="43.76121" lon="7.00932">
        <ele>897.2</ele>
        <time>2025-01-25T13:45:14.000Z</time>
      </trkpt>
      <trkpt lat="43.76121" lon="7.00932">
        <ele>897.2</ele>
        <time>2025-01-25T13:45:15.000Z</time>
      </trkpt>
      <trkpt lat="43.76121" lon="7.00932">
        <ele>897.2</ele>
        <time>2025-01-25T13:45:16.000Z</time>
      </trkpt>
      <trkpt lat="43.76121" lon="7.00932">
        <ele>897.2</ele>
        <time>2025-01-25T13:45:17.000Z</time>
      </trkpt>
      <trkpt lat="43.76121" lon="7.00932">
        <ele>897.2</ele>
        <time>2025-01-25T13:45:18.000Z</time>
      </trkpt>
      <trkpt lat="43.76122" lon="7.00932">
        <ele>897.2</ele>
        <time>2025-01-25T13:45:24.000Z</time>
      </trkpt>
      <trkpt lat="43.76121" lon="7.00932">
        <ele>897.1</ele>
        <time>2025-01-25T13:45:25.000Z</time>
      </trkpt>
      <trkpt lat="43.76126" lon="7.00929">
        <ele>897.1</ele>
        <time>2025-01-25T13:45:32.000Z</time>
      </trkpt>
      <trkpt lat="43.76125" lon="7.00922">
        <ele>896.7</ele>
        <time>2025-01-25T13:45:43.000Z</time>
      </trkpt>
      <trkpt lat="43.76121" lon="7.00917">
        <ele>896.4</ele>
        <time>2025-01-25T13:45:46.000Z</time>
      </trkpt>
      <trkpt lat="43.76117" lon="7.00909">
        <ele>895.7</ele>
        <time>2025-01-25T13:45:49.000Z</time>
      </trkpt>
      <trkpt lat="43.76115" lon="7.00901">
        <ele>895</ele>
        <time>2025-01-25T13:45:51.000Z</time>
      </trkpt>
      <trkpt lat="43.76112" lon="7.00891">
        <ele>894.4</ele>
        <time>2025-01-25T13:45:53.000Z</time>
      </trkpt>
      <trkpt lat="43.76109" lon="7.00884">
        <ele>893.5</ele>
        <time>2025-01-25T13:45:55.000Z</time>
      </trkpt>
      <trkpt lat="43.76105" lon="7.00876">
        <ele>892.3</ele>
        <time>2025-01-25T13:45:57.000Z</time>
      </trkpt>
      <trkpt lat="43.76099" lon="7.00866">
        <ele>891.2</ele>
        <time>2025-01-25T13:45:59.000Z</time>
      </trkpt>
      <trkpt lat="43.76096" lon="7.0086">
        <ele>890.7</ele>
        <time>2025-01-25T13:46:00.000Z</time>
      </trkpt>
      <trkpt lat="43.76093" lon="7.00853">
        <ele>890.2</ele>
        <time>2025-01-25T13:46:01.000Z</time>
      </trkpt>
      <trkpt lat="43.7609" lon="7.00843">
        <ele>889.3</ele>
        <time>2025-01-25T13:46:03.000Z</time>
      </trkpt>
      <trkpt lat="43.7609" lon="7.00835">
        <ele>889</ele>
        <time>2025-01-25T13:46:05.000Z</time>
      </trkpt>
      <trkpt lat="43.7609" lon="7.00828">
        <ele>889.1</ele>
        <time>2025-01-25T13:46:07.000Z</time>
      </trkpt>
      <trkpt lat="43.76087" lon="7.0082">
        <ele>889.1</ele>
        <time>2025-01-25T13:46:10.000Z</time>
      </trkpt>
      <trkpt lat="43.76085" lon="7.00813">
        <ele>889.1</ele>
        <time>2025-01-25T13:46:12.000Z</time>
      </trkpt>
      <trkpt lat="43.76084" lon="7.00804">
        <ele>889.3</ele>
        <time>2025-01-25T13:46:15.000Z</time>
      </trkpt>
      <trkpt lat="43.76083" lon="7.00795">
        <ele>889.4</ele>
        <time>2025-01-25T13:46:18.000Z</time>
      </trkpt>
      <trkpt lat="43.76082" lon="7.00789">
        <ele>889.6</ele>
        <time>2025-01-25T13:46:20.000Z</time>
      </trkpt>
      <trkpt lat="43.7608" lon="7.00782">
        <ele>889.7</ele>
        <time>2025-01-25T13:46:22.000Z</time>
      </trkpt>
      <trkpt lat="43.76079" lon="7.00775">
        <ele>890</ele>
        <time>2025-01-25T13:46:24.000Z</time>
      </trkpt>
      <trkpt lat="43.76077" lon="7.00767">
        <ele>890.2</ele>
        <time>2025-01-25T13:46:26.000Z</time>
      </trkpt>
      <trkpt lat="43.76074" lon="7.00756">
        <ele>890.3</ele>
        <time>2025-01-25T13:46:28.000Z</time>
      </trkpt>
      <trkpt lat="43.76073" lon="7.00749">
        <ele>890.4</ele>
        <time>2025-01-25T13:46:29.000Z</time>
      </trkpt>
      <trkpt lat="43.76072" lon="7.00738">
        <ele>890.5</ele>
        <time>2025-01-25T13:46:31.000Z</time>
      </trkpt>
      <trkpt lat="43.7607" lon="7.00731">
        <ele>890.6</ele>
        <time>2025-01-25T13:46:33.000Z</time>
      </trkpt>
      <trkpt lat="43.76068" lon="7.00724">
        <ele>890.7</ele>
        <time>2025-01-25T13:46:35.000Z</time>
      </trkpt>
      <trkpt lat="43.76065" lon="7.00716">
        <ele>890.7</ele>
        <time>2025-01-25T13:46:37.000Z</time>
      </trkpt>
      <trkpt lat="43.76064" lon="7.00708">
        <ele>890.7</ele>
        <time>2025-01-25T13:46:39.000Z</time>
      </trkpt>
      <trkpt lat="43.76062" lon="7.007">
        <ele>890.7</ele>
        <time>2025-01-25T13:46:41.000Z</time>
      </trkpt>
      <trkpt lat="43.76059" lon="7.00692">
        <ele>890.7</ele>
        <time>2025-01-25T13:46:44.000Z</time>
      </trkpt>
      <trkpt lat="43.76057" lon="7.00686">
        <ele>890.6</ele>
        <time>2025-01-25T13:46:46.000Z</time>
      </trkpt>
      <trkpt lat="43.76056" lon="7.00679">
        <ele>890.5</ele>
        <time>2025-01-25T13:46:48.000Z</time>
      </trkpt>
      <trkpt lat="43.76055" lon="7.00672">
        <ele>890.3</ele>
        <time>2025-01-25T13:46:50.000Z</time>
      </trkpt>
      <trkpt lat="43.76054" lon="7.00665">
        <ele>890.2</ele>
        <time>2025-01-25T13:46:52.000Z</time>
      </trkpt>
      <trkpt lat="43.76053" lon="7.00656">
        <ele>889.9</ele>
        <time>2025-01-25T13:46:54.000Z</time>
      </trkpt>
      <trkpt lat="43.76054" lon="7.00646">
        <ele>889.7</ele>
        <time>2025-01-25T13:46:56.000Z</time>
      </trkpt>
      <trkpt lat="43.76054" lon="7.00636">
        <ele>889.4</ele>
        <time>2025-01-25T13:46:58.000Z</time>
      </trkpt>
      <trkpt lat="43.76054" lon="7.00626">
        <ele>889</ele>
        <time>2025-01-25T13:47:00.000Z</time>
      </trkpt>
      <trkpt lat="43.76055" lon="7.00616">
        <ele>889.2</ele>
        <time>2025-01-25T13:47:02.000Z</time>
      </trkpt>
      <trkpt lat="43.76058" lon="7.00607">
        <ele>888.9</ele>
        <time>2025-01-25T13:47:04.000Z</time>
      </trkpt>
      <trkpt lat="43.76061" lon="7.00599">
        <ele>888.5</ele>
        <time>2025-01-25T13:47:06.000Z</time>
      </trkpt>
      <trkpt lat="43.76063" lon="7.00593">
        <ele>887.8</ele>
        <time>2025-01-25T13:47:08.000Z</time>
      </trkpt>
      <trkpt lat="43.76066" lon="7.00587">
        <ele>887</ele>
        <time>2025-01-25T13:47:10.000Z</time>
      </trkpt>
      <trkpt lat="43.7607" lon="7.00579">
        <ele>886.6</ele>
        <time>2025-01-25T13:47:12.000Z</time>
      </trkpt>
      <trkpt lat="43.76073" lon="7.00574">
        <ele>886.4</ele>
        <time>2025-01-25T13:47:13.000Z</time>
      </trkpt>
      <trkpt lat="43.76076" lon="7.00569">
        <ele>886</ele>
        <time>2025-01-25T13:47:14.000Z</time>
      </trkpt>
      <trkpt lat="43.76078" lon="7.00563">
        <ele>885.6</ele>
        <time>2025-01-25T13:47:15.000Z</time>
      </trkpt>
      <trkpt lat="43.76081" lon="7.00557">
        <ele>885.1</ele>
        <time>2025-01-25T13:47:16.000Z</time>
      </trkpt>
      <trkpt lat="43.76084" lon="7.00552">
        <ele>884.6</ele>
        <time>2025-01-25T13:47:17.000Z</time>
      </trkpt>
      <trkpt lat="43.76091" lon="7.00543">
        <ele>883.6</ele>
        <time>2025-01-25T13:47:19.000Z</time>
      </trkpt>
      <trkpt lat="43.76095" lon="7.00538">
        <ele>883.2</ele>
        <time>2025-01-25T13:47:20.000Z</time>
      </trkpt>
      <trkpt lat="43.76099" lon="7.00532">
        <ele>882.8</ele>
        <time>2025-01-25T13:47:21.000Z</time>
      </trkpt>
      <trkpt lat="43.76104" lon="7.00527">
        <ele>882.4</ele>
        <time>2025-01-25T13:47:22.000Z</time>
      </trkpt>
      <trkpt lat="43.76108" lon="7.00521">
        <ele>882.1</ele>
        <time>2025-01-25T13:47:23.000Z</time>
      </trkpt>
      <trkpt lat="43.76112" lon="7.00516">
        <ele>882</ele>
        <time>2025-01-25T13:47:24.000Z</time>
      </trkpt>
      <trkpt lat="43.76116" lon="7.0051">
        <ele>881.9</ele>
        <time>2025-01-25T13:47:25.000Z</time>
      </trkpt>
      <trkpt lat="43.76119" lon="7.00504">
        <ele>881.8</ele>
        <time>2025-01-25T13:47:26.000Z</time>
      </trkpt>
      <trkpt lat="43.76123" lon="7.00499">
        <ele>881.6</ele>
        <time>2025-01-25T13:47:27.000Z</time>
      </trkpt>
      <trkpt lat="43.76127" lon="7.00491">
        <ele>880.7</ele>
        <time>2025-01-25T13:47:29.000Z</time>
      </trkpt>
      <trkpt lat="43.76129" lon="7.00485">
        <ele>879.1</ele>
        <time>2025-01-25T13:47:31.000Z</time>
      </trkpt>
      <trkpt lat="43.76131" lon="7.00477">
        <ele>877.5</ele>
        <time>2025-01-25T13:47:33.000Z</time>
      </trkpt>
      <trkpt lat="43.76133" lon="7.00469">
        <ele>875</ele>
        <time>2025-01-25T13:47:35.000Z</time>
      </trkpt>
      <trkpt lat="43.76137" lon="7.00459">
        <ele>872.7</ele>
        <time>2025-01-25T13:47:37.000Z</time>
      </trkpt>
      <trkpt lat="43.76141" lon="7.00454">
        <ele>872</ele>
        <time>2025-01-25T13:47:38.000Z</time>
      </trkpt>
      <trkpt lat="43.76144" lon="7.0045">
        <ele>871.3</ele>
        <time>2025-01-25T13:47:39.000Z</time>
      </trkpt>
      <trkpt lat="43.7615" lon="7.00444">
        <ele>870.3</ele>
        <time>2025-01-25T13:47:41.000Z</time>
      </trkpt>
      <trkpt lat="43.76151" lon="7.00438">
        <ele>869</ele>
        <time>2025-01-25T13:47:44.000Z</time>
      </trkpt>
      <trkpt lat="43.76145" lon="7.00436">
        <ele>868.2</ele>
        <time>2025-01-25T13:47:46.000Z</time>
      </trkpt>
      <trkpt lat="43.76137" lon="7.00433">
        <ele>866.8</ele>
        <time>2025-01-25T13:47:48.000Z</time>
      </trkpt>
      <trkpt lat="43.76132" lon="7.00432">
        <ele>864.7</ele>
        <time>2025-01-25T13:47:50.000Z</time>
      </trkpt>
      <trkpt lat="43.76127" lon="7.00429">
        <ele>861.4</ele>
        <time>2025-01-25T13:47:53.000Z</time>
      </trkpt>
      <trkpt lat="43.76126" lon="7.00423">
        <ele>858.7</ele>
        <time>2025-01-25T13:47:58.000Z</time>
      </trkpt>
      <trkpt lat="43.76128" lon="7.00418">
        <ele>858.6</ele>
        <time>2025-01-25T13:48:00.000Z</time>
      </trkpt>
      <trkpt lat="43.76129" lon="7.00411">
        <ele>858.4</ele>
        <time>2025-01-25T13:48:02.000Z</time>
      </trkpt>
      <trkpt lat="43.76129" lon="7.00408">
        <ele>858.1</ele>
        <time>2025-01-25T13:48:08.000Z</time>
      </trkpt>
      <trkpt lat="43.76129" lon="7.00408">
        <ele>858</ele>
        <time>2025-01-25T13:48:09.000Z</time>
      </trkpt>
      <trkpt lat="43.76131" lon="7.00406">
        <ele>857.9</ele>
        <time>2025-01-25T13:48:18.000Z</time>
      </trkpt>
      <trkpt lat="43.76131" lon="7.00405">
        <ele>857.8</ele>
        <time>2025-01-25T13:48:19.000Z</time>
      </trkpt>
      <trkpt lat="43.7613" lon="7.00393">
        <ele>857.6</ele>
        <time>2025-01-25T13:48:22.000Z</time>
      </trkpt>
      <trkpt lat="43.7613" lon="7.00381">
        <ele>857.4</ele>
        <time>2025-01-25T13:48:24.000Z</time>
      </trkpt>
      <trkpt lat="43.7613" lon="7.00372">
        <ele>857.1</ele>
        <time>2025-01-25T13:48:26.000Z</time>
      </trkpt>
      <trkpt lat="43.7613" lon="7.00365">
        <ele>857</ele>
        <time>2025-01-25T13:48:28.000Z</time>
      </trkpt>
      <trkpt lat="43.76129" lon="7.00359">
        <ele>857</ele>
        <time>2025-01-25T13:48:31.000Z</time>
      </trkpt>
      <trkpt lat="43.76131" lon="7.00352">
        <ele>857</ele>
        <time>2025-01-25T13:48:33.000Z</time>
      </trkpt>
      <trkpt lat="43.76133" lon="7.00344">
        <ele>856.9</ele>
        <time>2025-01-25T13:48:36.000Z</time>
      </trkpt>
      <trkpt lat="43.76135" lon="7.00336">
        <ele>857.1</ele>
        <time>2025-01-25T13:48:39.000Z</time>
      </trkpt>
      <trkpt lat="43.76138" lon="7.00331">
        <ele>857.3</ele>
        <time>2025-01-25T13:48:42.000Z</time>
      </trkpt>
      <trkpt lat="43.76143" lon="7.00326">
        <ele>857.5</ele>
        <time>2025-01-25T13:48:45.000Z</time>
      </trkpt>
      <trkpt lat="43.76147" lon="7.00322">
        <ele>857.6</ele>
        <time>2025-01-25T13:48:47.000Z</time>
      </trkpt>
      <trkpt lat="43.76151" lon="7.00318">
        <ele>857.7</ele>
        <time>2025-01-25T13:48:49.000Z</time>
      </trkpt>
      <trkpt lat="43.76156" lon="7.00315">
        <ele>857.7</ele>
        <time>2025-01-25T13:48:51.000Z</time>
      </trkpt>
      <trkpt lat="43.76162" lon="7.00312">
        <ele>857.8</ele>
        <time>2025-01-25T13:48:53.000Z</time>
      </trkpt>
      <trkpt lat="43.76168" lon="7.00307">
        <ele>857.6</ele>
        <time>2025-01-25T13:48:55.000Z</time>
      </trkpt>
      <trkpt lat="43.76173" lon="7.00303">
        <ele>857.6</ele>
        <time>2025-01-25T13:48:57.000Z</time>
      </trkpt>
      <trkpt lat="43.76178" lon="7.00297">
        <ele>857.5</ele>
        <time>2025-01-25T13:48:59.000Z</time>
      </trkpt>
      <trkpt lat="43.76182" lon="7.00292">
        <ele>857.5</ele>
        <time>2025-01-25T13:49:01.000Z</time>
      </trkpt>
      <trkpt lat="43.76187" lon="7.00287">
        <ele>857.4</ele>
        <time>2025-01-25T13:49:03.000Z</time>
      </trkpt>
      <trkpt lat="43.76191" lon="7.0028">
        <ele>857.5</ele>
        <time>2025-01-25T13:49:05.000Z</time>
      </trkpt>
      <trkpt lat="43.76195" lon="7.00275">
        <ele>857.5</ele>
        <time>2025-01-25T13:49:07.000Z</time>
      </trkpt>
      <trkpt lat="43.76201" lon="7.00271">
        <ele>857.5</ele>
        <time>2025-01-25T13:49:09.000Z</time>
      </trkpt>
      <trkpt lat="43.76206" lon="7.00267">
        <ele>857.5</ele>
        <time>2025-01-25T13:49:11.000Z</time>
      </trkpt>
      <trkpt lat="43.76212" lon="7.00263">
        <ele>857.5</ele>
        <time>2025-01-25T13:49:13.000Z</time>
      </trkpt>
      <trkpt lat="43.76219" lon="7.00259">
        <ele>857.6</ele>
        <time>2025-01-25T13:49:15.000Z</time>
      </trkpt>
      <trkpt lat="43.76225" lon="7.00256">
        <ele>857.7</ele>
        <time>2025-01-25T13:49:17.000Z</time>
      </trkpt>
      <trkpt lat="43.7623" lon="7.00254">
        <ele>857.7</ele>
        <time>2025-01-25T13:49:19.000Z</time>
      </trkpt>
      <trkpt lat="43.76235" lon="7.0025">
        <ele>857.6</ele>
        <time>2025-01-25T13:49:21.000Z</time>
      </trkpt>
      <trkpt lat="43.7624" lon="7.00246">
        <ele>857.6</ele>
        <time>2025-01-25T13:49:23.000Z</time>
      </trkpt>
      <trkpt lat="43.76244" lon="7.00241">
        <ele>857.7</ele>
        <time>2025-01-25T13:49:25.000Z</time>
      </trkpt>
      <trkpt lat="43.76245" lon="7.00235">
        <ele>857.8</ele>
        <time>2025-01-25T13:49:28.000Z</time>
      </trkpt>
      <trkpt lat="43.7625" lon="7.00232">
        <ele>857.9</ele>
        <time>2025-01-25T13:49:33.000Z</time>
      </trkpt>
      <trkpt lat="43.76253" lon="7.00228">
        <ele>858.1</ele>
        <time>2025-01-25T13:49:36.000Z</time>
      </trkpt>
      <trkpt lat="43.76257" lon="7.00224">
        <ele>858.4</ele>
        <time>2025-01-25T13:49:41.000Z</time>
      </trkpt>
      <trkpt lat="43.76262" lon="7.00219">
        <ele>858.5</ele>
        <time>2025-01-25T13:49:45.000Z</time>
      </trkpt>
      <trkpt lat="43.76266" lon="7.00213">
        <ele>858.5</ele>
        <time>2025-01-25T13:49:48.000Z</time>
      </trkpt>
      <trkpt lat="43.76271" lon="7.0021">
        <ele>858.6</ele>
        <time>2025-01-25T13:49:51.000Z</time>
      </trkpt>
      <trkpt lat="43.76277" lon="7.00208">
        <ele>858.7</ele>
        <time>2025-01-25T13:49:55.000Z</time>
      </trkpt>
      <trkpt lat="43.76282" lon="7.00204">
        <ele>858.7</ele>
        <time>2025-01-25T13:49:59.000Z</time>
      </trkpt>
      <trkpt lat="43.76285" lon="7.00199">
        <ele>858.8</ele>
        <time>2025-01-25T13:50:02.000Z</time>
      </trkpt>
      <trkpt lat="43.76291" lon="7.00197">
        <ele>858.8</ele>
        <time>2025-01-25T13:50:05.000Z</time>
      </trkpt>
      <trkpt lat="43.76298" lon="7.00194">
        <ele>858.8</ele>
        <time>2025-01-25T13:50:08.000Z</time>
      </trkpt>
      <trkpt lat="43.76304" lon="7.00191">
        <ele>858.8</ele>
        <time>2025-01-25T13:50:10.000Z</time>
      </trkpt>
      <trkpt lat="43.76309" lon="7.00188">
        <ele>858.8</ele>
        <time>2025-01-25T13:50:12.000Z</time>
      </trkpt>
      <trkpt lat="43.76314" lon="7.00185">
        <ele>858.7</ele>
        <time>2025-01-25T13:50:14.000Z</time>
      </trkpt>
      <trkpt lat="43.76319" lon="7.00182">
        <ele>858.6</ele>
        <time>2025-01-25T13:50:16.000Z</time>
      </trkpt>
      <trkpt lat="43.76324" lon="7.00179">
        <ele>858.6</ele>
        <time>2025-01-25T13:50:18.000Z</time>
      </trkpt>
      <trkpt lat="43.76329" lon="7.00172">
        <ele>858.4</ele>
        <time>2025-01-25T13:50:21.000Z</time>
      </trkpt>
      <trkpt lat="43.76335" lon="7.00169">
        <ele>858.3</ele>
        <time>2025-01-25T13:50:24.000Z</time>
      </trkpt>
      <trkpt lat="43.7634" lon="7.00167">
        <ele>858.3</ele>
        <time>2025-01-25T13:50:26.000Z</time>
      </trkpt>
      <trkpt lat="43.76344" lon="7.00165">
        <ele>858.3</ele>
        <time>2025-01-25T13:50:29.000Z</time>
      </trkpt>
      <trkpt lat="43.76348" lon="7.0016">
        <ele>858.5</ele>
        <time>2025-01-25T13:50:34.000Z</time>
      </trkpt>
      <trkpt lat="43.76352" lon="7.00158">
        <ele>858.6</ele>
        <time>2025-01-25T13:50:37.000Z</time>
      </trkpt>
      <trkpt lat="43.76356" lon="7.00155">
        <ele>858.8</ele>
        <time>2025-01-25T13:50:40.000Z</time>
      </trkpt>
      <trkpt lat="43.76362" lon="7.0015">
        <ele>858.9</ele>
        <time>2025-01-25T13:50:43.000Z</time>
      </trkpt>
      <trkpt lat="43.76365" lon="7.00146">
        <ele>859.3</ele>
        <time>2025-01-25T13:50:47.000Z</time>
      </trkpt>
      <trkpt lat="43.7637" lon="7.00143">
        <ele>859.9</ele>
        <time>2025-01-25T13:50:56.000Z</time>
      </trkpt>
      <trkpt lat="43.76375" lon="7.0014">
        <ele>860.2</ele>
        <time>2025-01-25T13:51:00.000Z</time>
      </trkpt>
      <trkpt lat="43.7638" lon="7.00137">
        <ele>860.5</ele>
        <time>2025-01-25T13:51:04.000Z</time>
      </trkpt>
      <trkpt lat="43.76383" lon="7.00132">
        <ele>861</ele>
        <time>2025-01-25T13:51:09.000Z</time>
      </trkpt>
      <trkpt lat="43.76387" lon="7.00127">
        <ele>861.6</ele>
        <time>2025-01-25T13:51:15.000Z</time>
      </trkpt>
      <trkpt lat="43.76389" lon="7.00121">
        <ele>862.6</ele>
        <time>2025-01-25T13:51:24.000Z</time>
      </trkpt>
      <trkpt lat="43.7639" lon="7.00115">
        <ele>862.9</ele>
        <time>2025-01-25T13:51:28.000Z</time>
      </trkpt>
      <trkpt lat="43.76394" lon="7.00109">
        <ele>863.1</ele>
        <time>2025-01-25T13:51:32.000Z</time>
      </trkpt>
      <trkpt lat="43.76398" lon="7.00102">
        <ele>863.4</ele>
        <time>2025-01-25T13:51:35.000Z</time>
      </trkpt>
      <trkpt lat="43.76401" lon="7.00097">
        <ele>863.6</ele>
        <time>2025-01-25T13:51:37.000Z</time>
      </trkpt>
      <trkpt lat="43.76404" lon="7.0009">
        <ele>864</ele>
        <time>2025-01-25T13:51:40.000Z</time>
      </trkpt>
      <trkpt lat="43.76407" lon="7.00083">
        <ele>864.9</ele>
        <time>2025-01-25T13:51:45.000Z</time>
      </trkpt>
      <trkpt lat="43.76407" lon="7.00077">
        <ele>865.7</ele>
        <time>2025-01-25T13:51:51.000Z</time>
      </trkpt>
      <trkpt lat="43.76408" lon="7.00075">
        <ele>866.6</ele>
        <time>2025-01-25T13:51:58.000Z</time>
      </trkpt>
      <trkpt lat="43.76408" lon="7.00075">
        <ele>866.6</ele>
        <time>2025-01-25T13:51:59.000Z</time>
      </trkpt>
      <trkpt lat="43.76407" lon="7.00076">
        <ele>866.7</ele>
        <time>2025-01-25T13:52:00.000Z</time>
      </trkpt>
      <trkpt lat="43.76408" lon="7.00075">
        <ele>866.7</ele>
        <time>2025-01-25T13:52:01.000Z</time>
      </trkpt>
      <trkpt lat="43.76408" lon="7.00073">
        <ele>866.8</ele>
        <time>2025-01-25T13:52:02.000Z</time>
      </trkpt>
      <trkpt lat="43.76408" lon="7.00066">
        <ele>867.3</ele>
        <time>2025-01-25T13:52:07.000Z</time>
      </trkpt>
      <trkpt lat="43.76409" lon="7.0006">
        <ele>868.1</ele>
        <time>2025-01-25T13:52:13.000Z</time>
      </trkpt>
      <trkpt lat="43.76411" lon="7.00054">
        <ele>869</ele>
        <time>2025-01-25T13:52:19.000Z</time>
      </trkpt>
      <trkpt lat="43.76411" lon="7.00046">
        <ele>869.5</ele>
        <time>2025-01-25T13:52:22.000Z</time>
      </trkpt>
      <trkpt lat="43.76413" lon="7.00041">
        <ele>870.3</ele>
        <time>2025-01-25T13:52:30.000Z</time>
      </trkpt>
      <trkpt lat="43.76415" lon="7.00033">
        <ele>870.5</ele>
        <time>2025-01-25T13:52:33.000Z</time>
      </trkpt>
      <trkpt lat="43.76415" lon="7.00025">
        <ele>870.8</ele>
        <time>2025-01-25T13:52:36.000Z</time>
      </trkpt>
      <trkpt lat="43.76413" lon="7.00018">
        <ele>871</ele>
        <time>2025-01-25T13:52:39.000Z</time>
      </trkpt>
      <trkpt lat="43.76415" lon="7.00011">
        <ele>871.4</ele>
        <time>2025-01-25T13:52:42.000Z</time>
      </trkpt>
      <trkpt lat="43.76416" lon="7.00004">
        <ele>872</ele>
        <time>2025-01-25T13:52:46.000Z</time>
      </trkpt>
      <trkpt lat="43.76416" lon="6.99997">
        <ele>872.4</ele>
        <time>2025-01-25T13:52:49.000Z</time>
      </trkpt>
      <trkpt lat="43.76418" lon="6.99991">
        <ele>872.5</ele>
        <time>2025-01-25T13:52:51.000Z</time>
      </trkpt>
      <trkpt lat="43.7642" lon="6.99985">
        <ele>872.8</ele>
        <time>2025-01-25T13:52:54.000Z</time>
      </trkpt>
      <trkpt lat="43.76421" lon="6.99977">
        <ele>872.9</ele>
        <time>2025-01-25T13:52:57.000Z</time>
      </trkpt>
      <trkpt lat="43.76421" lon="6.99969">
        <ele>873</ele>
        <time>2025-01-25T13:53:00.000Z</time>
      </trkpt>
      <trkpt lat="43.76418" lon="6.99964">
        <ele>873.2</ele>
        <time>2025-01-25T13:53:03.000Z</time>
      </trkpt>
      <trkpt lat="43.7642" lon="6.99958">
        <ele>874.2</ele>
        <time>2025-01-25T13:53:12.000Z</time>
      </trkpt>
      <trkpt lat="43.76423" lon="6.99953">
        <ele>874.5</ele>
        <time>2025-01-25T13:53:15.000Z</time>
      </trkpt>
      <trkpt lat="43.76428" lon="6.9995">
        <ele>874.8</ele>
        <time>2025-01-25T13:53:19.000Z</time>
      </trkpt>
      <trkpt lat="43.76432" lon="6.99945">
        <ele>875.3</ele>
        <time>2025-01-25T13:53:26.000Z</time>
      </trkpt>
      <trkpt lat="43.76437" lon="6.99941">
        <ele>875.9</ele>
        <time>2025-01-25T13:53:36.000Z</time>
      </trkpt>
      <trkpt lat="43.76441" lon="6.99935">
        <ele>876.4</ele>
        <time>2025-01-25T13:53:40.000Z</time>
      </trkpt>
      <trkpt lat="43.76444" lon="6.9993">
        <ele>877</ele>
        <time>2025-01-25T13:53:44.000Z</time>
      </trkpt>
      <trkpt lat="43.76448" lon="6.99927">
        <ele>878.1</ele>
        <time>2025-01-25T13:53:51.000Z</time>
      </trkpt>
      <trkpt lat="43.76453" lon="6.99926">
        <ele>878.7</ele>
        <time>2025-01-25T13:53:57.000Z</time>
      </trkpt>
      <trkpt lat="43.76458" lon="6.99925">
        <ele>879.1</ele>
        <time>2025-01-25T13:54:01.000Z</time>
      </trkpt>
      <trkpt lat="43.76461" lon="6.99921">
        <ele>879.5</ele>
        <time>2025-01-25T13:54:09.000Z</time>
      </trkpt>
      <trkpt lat="43.76465" lon="6.99918">
        <ele>880</ele>
        <time>2025-01-25T13:54:19.000Z</time>
      </trkpt>
      <trkpt lat="43.7647" lon="6.99913">
        <ele>880.4</ele>
        <time>2025-01-25T13:54:25.000Z</time>
      </trkpt>
      <trkpt lat="43.76475" lon="6.99913">
        <ele>880.4</ele>
        <time>2025-01-25T13:54:30.000Z</time>
      </trkpt>
      <trkpt lat="43.7648" lon="6.99918">
        <ele>880.5</ele>
        <time>2025-01-25T13:54:34.000Z</time>
      </trkpt>
      <trkpt lat="43.76485" lon="6.99921">
        <ele>880.6</ele>
        <time>2025-01-25T13:54:37.000Z</time>
      </trkpt>
      <trkpt lat="43.76489" lon="6.99927">
        <ele>880.7</ele>
        <time>2025-01-25T13:54:40.000Z</time>
      </trkpt>
      <trkpt lat="43.76493" lon="6.99931">
        <ele>880.9</ele>
        <time>2025-01-25T13:54:43.000Z</time>
      </trkpt>
      <trkpt lat="43.76498" lon="6.99935">
        <ele>881.2</ele>
        <time>2025-01-25T13:54:46.000Z</time>
      </trkpt>
      <trkpt lat="43.76501" lon="6.9994">
        <ele>881.3</ele>
        <time>2025-01-25T13:54:49.000Z</time>
      </trkpt>
      <trkpt lat="43.76506" lon="6.99945">
        <ele>881.5</ele>
        <time>2025-01-25T13:54:52.000Z</time>
      </trkpt>
      <trkpt lat="43.76512" lon="6.99947">
        <ele>881.6</ele>
        <time>2025-01-25T13:54:55.000Z</time>
      </trkpt>
      <trkpt lat="43.76516" lon="6.99943">
        <ele>881.8</ele>
        <time>2025-01-25T13:54:58.000Z</time>
      </trkpt>
      <trkpt lat="43.7652" lon="6.99939">
        <ele>882.1</ele>
        <time>2025-01-25T13:55:02.000Z</time>
      </trkpt>
      <trkpt lat="43.76522" lon="6.99937">
        <ele>882.2</ele>
        <time>2025-01-25T13:55:05.000Z</time>
      </trkpt>
      <trkpt lat="43.76522" lon="6.99936">
        <ele>882.3</ele>
        <time>2025-01-25T13:55:06.000Z</time>
      </trkpt>
      <trkpt lat="43.76522" lon="6.99936">
        <ele>882.3</ele>
        <time>2025-01-25T13:55:07.000Z</time>
      </trkpt>
      <trkpt lat="43.76518" lon="6.99936">
        <ele>882.5</ele>
        <time>2025-01-25T13:55:33.000Z</time>
      </trkpt>
      <trkpt lat="43.76518" lon="6.99936">
        <ele>882.5</ele>
        <time>2025-01-25T13:55:34.000Z</time>
      </trkpt>
      <trkpt lat="43.76519" lon="6.99937">
        <ele>882.5</ele>
        <time>2025-01-25T13:55:35.000Z</time>
      </trkpt>
      <trkpt lat="43.7652" lon="6.99938">
        <ele>882.5</ele>
        <time>2025-01-25T13:55:48.000Z</time>
      </trkpt>
      <trkpt lat="43.76521" lon="6.99938">
        <ele>882.5</ele>
        <time>2025-01-25T13:55:49.000Z</time>
      </trkpt>
      <trkpt lat="43.76522" lon="6.99938">
        <ele>882.5</ele>
        <time>2025-01-25T13:55:50.000Z</time>
      </trkpt>
      <trkpt lat="43.76523" lon="6.99938">
        <ele>882.5</ele>
        <time>2025-01-25T13:55:51.000Z</time>
      </trkpt>
      <trkpt lat="43.76524" lon="6.99937">
        <ele>882.5</ele>
        <time>2025-01-25T13:55:52.000Z</time>
      </trkpt>
      <trkpt lat="43.76526" lon="6.99938">
        <ele>882.5</ele>
        <time>2025-01-25T13:55:53.000Z</time>
      </trkpt>
      <trkpt lat="43.76527" lon="6.99938">
        <ele>882.5</ele>
        <time>2025-01-25T13:55:54.000Z</time>
      </trkpt>
      <trkpt lat="43.76532" lon="6.9994">
        <ele>882.5</ele>
        <time>2025-01-25T13:55:59.000Z</time>
      </trkpt>
      <trkpt lat="43.76537" lon="6.99939">
        <ele>882.5</ele>
        <time>2025-01-25T13:56:02.000Z</time>
      </trkpt>
      <trkpt lat="43.76543" lon="6.99939">
        <ele>882.6</ele>
        <time>2025-01-25T13:56:05.000Z</time>
      </trkpt>
      <trkpt lat="43.76547" lon="6.99937">
        <ele>882.7</ele>
        <time>2025-01-25T13:56:08.000Z</time>
      </trkpt>
      <trkpt lat="43.76553" lon="6.99935">
        <ele>882.8</ele>
        <time>2025-01-25T13:56:11.000Z</time>
      </trkpt>
      <trkpt lat="43.76559" lon="6.99934">
        <ele>882.8</ele>
        <time>2025-01-25T13:56:14.000Z</time>
      </trkpt>
      <trkpt lat="43.76564" lon="6.99934">
        <ele>882.9</ele>
        <time>2025-01-25T13:56:16.000Z</time>
      </trkpt>
      <trkpt lat="43.7657" lon="6.99935">
        <ele>883</ele>
        <time>2025-01-25T13:56:18.000Z</time>
      </trkpt>
      <trkpt lat="43.76576" lon="6.99935">
        <ele>883</ele>
        <time>2025-01-25T13:56:20.000Z</time>
      </trkpt>
      <trkpt lat="43.76582" lon="6.99935">
        <ele>883</ele>
        <time>2025-01-25T13:56:22.000Z</time>
      </trkpt>
      <trkpt lat="43.76587" lon="6.99934">
        <ele>883.1</ele>
        <time>2025-01-25T13:56:24.000Z</time>
      </trkpt>
      <trkpt lat="43.76593" lon="6.99933">
        <ele>883.1</ele>
        <time>2025-01-25T13:56:26.000Z</time>
      </trkpt>
      <trkpt lat="43.766" lon="6.99932">
        <ele>883.2</ele>
        <time>2025-01-25T13:56:28.000Z</time>
      </trkpt>
      <trkpt lat="43.76607" lon="6.99933">
        <ele>883.2</ele>
        <time>2025-01-25T13:56:30.000Z</time>
      </trkpt>
      <trkpt lat="43.76613" lon="6.99933">
        <ele>883.3</ele>
        <time>2025-01-25T13:56:32.000Z</time>
      </trkpt>
      <trkpt lat="43.76619" lon="6.99932">
        <ele>883.2</ele>
        <time>2025-01-25T13:56:34.000Z</time>
      </trkpt>
      <trkpt lat="43.76624" lon="6.99932">
        <ele>883.2</ele>
        <time>2025-01-25T13:56:36.000Z</time>
      </trkpt>
      <trkpt lat="43.7663" lon="6.99931">
        <ele>883.2</ele>
        <time>2025-01-25T13:56:38.000Z</time>
      </trkpt>
      <trkpt lat="43.76635" lon="6.99931">
        <ele>883.3</ele>
        <time>2025-01-25T13:56:40.000Z</time>
      </trkpt>
      <trkpt lat="43.76641" lon="6.99931">
        <ele>883.2</ele>
        <time>2025-01-25T13:56:42.000Z</time>
      </trkpt>
      <trkpt lat="43.76647" lon="6.99932">
        <ele>883.2</ele>
        <time>2025-01-25T13:56:44.000Z</time>
      </trkpt>
      <trkpt lat="43.76653" lon="6.99934">
        <ele>883.2</ele>
        <time>2025-01-25T13:56:46.000Z</time>
      </trkpt>
      <trkpt lat="43.76658" lon="6.99934">
        <ele>883.2</ele>
        <time>2025-01-25T13:56:48.000Z</time>
      </trkpt>
      <trkpt lat="43.76664" lon="6.99933">
        <ele>883.2</ele>
        <time>2025-01-25T13:56:50.000Z</time>
      </trkpt>
      <trkpt lat="43.76671" lon="6.99933">
        <ele>883.1</ele>
        <time>2025-01-25T13:56:52.000Z</time>
      </trkpt>
      <trkpt lat="43.76677" lon="6.99933">
        <ele>883.1</ele>
        <time>2025-01-25T13:56:54.000Z</time>
      </trkpt>
      <trkpt lat="43.76683" lon="6.99932">
        <ele>883</ele>
        <time>2025-01-25T13:56:56.000Z</time>
      </trkpt>
      <trkpt lat="43.7669" lon="6.99929">
        <ele>882.9</ele>
        <time>2025-01-25T13:56:58.000Z</time>
      </trkpt>
      <trkpt lat="43.76696" lon="6.99926">
        <ele>882.8</ele>
        <time>2025-01-25T13:57:00.000Z</time>
      </trkpt>
      <trkpt lat="43.76702" lon="6.99924">
        <ele>882.7</ele>
        <time>2025-01-25T13:57:02.000Z</time>
      </trkpt>
      <trkpt lat="43.76707" lon="6.99922">
        <ele>882.6</ele>
        <time>2025-01-25T13:57:04.000Z</time>
      </trkpt>
      <trkpt lat="43.76713" lon="6.9992">
        <ele>882.5</ele>
        <time>2025-01-25T13:57:06.000Z</time>
      </trkpt>
      <trkpt lat="43.76718" lon="6.99918">
        <ele>882.4</ele>
        <time>2025-01-25T13:57:08.000Z</time>
      </trkpt>
      <trkpt lat="43.76724" lon="6.99917">
        <ele>882.5</ele>
        <time>2025-01-25T13:57:10.000Z</time>
      </trkpt>
      <trkpt lat="43.7673" lon="6.99916">
        <ele>882.4</ele>
        <time>2025-01-25T13:57:12.000Z</time>
      </trkpt>
      <trkpt lat="43.76736" lon="6.99917">
        <ele>882.4</ele>
        <time>2025-01-25T13:57:14.000Z</time>
      </trkpt>
      <trkpt lat="43.76743" lon="6.99917">
        <ele>882.3</ele>
        <time>2025-01-25T13:57:16.000Z</time>
      </trkpt>
      <trkpt lat="43.76749" lon="6.99917">
        <ele>882.3</ele>
        <time>2025-01-25T13:57:18.000Z</time>
      </trkpt>
      <trkpt lat="43.76753" lon="6.99914">
        <ele>882.2</ele>
        <time>2025-01-25T13:57:21.000Z</time>
      </trkpt>
      <trkpt lat="43.76755" lon="6.99907">
        <ele>882</ele>
        <time>2025-01-25T13:57:23.000Z</time>
      </trkpt>
      <trkpt lat="43.7676" lon="6.99899">
        <ele>881.8</ele>
        <time>2025-01-25T13:57:25.000Z</time>
      </trkpt>
      <trkpt lat="43.76766" lon="6.99891">
        <ele>881.5</ele>
        <time>2025-01-25T13:57:27.000Z</time>
      </trkpt>
      <trkpt lat="43.76772" lon="6.99887">
        <ele>881</ele>
        <time>2025-01-25T13:57:29.000Z</time>
      </trkpt>
      <trkpt lat="43.76776" lon="6.99884">
        <ele>880.9</ele>
        <time>2025-01-25T13:57:31.000Z</time>
      </trkpt>
      <trkpt lat="43.76781" lon="6.99883">
        <ele>880.9</ele>
        <time>2025-01-25T13:57:34.000Z</time>
      </trkpt>
      <trkpt lat="43.76787" lon="6.99884">
        <ele>881</ele>
        <time>2025-01-25T13:57:37.000Z</time>
      </trkpt>
      <trkpt lat="43.76792" lon="6.99884">
        <ele>881</ele>
        <time>2025-01-25T13:57:39.000Z</time>
      </trkpt>
      <trkpt lat="43.76797" lon="6.99884">
        <ele>881</ele>
        <time>2025-01-25T13:57:41.000Z</time>
      </trkpt>
      <trkpt lat="43.76803" lon="6.99884">
        <ele>881</ele>
        <time>2025-01-25T13:57:43.000Z</time>
      </trkpt>
      <trkpt lat="43.76808" lon="6.99883">
        <ele>881</ele>
        <time>2025-01-25T13:57:45.000Z</time>
      </trkpt>
      <trkpt lat="43.76814" lon="6.99882">
        <ele>881.1</ele>
        <time>2025-01-25T13:57:47.000Z</time>
      </trkpt>
      <trkpt lat="43.76818" lon="6.9988">
        <ele>881.1</ele>
        <time>2025-01-25T13:57:49.000Z</time>
      </trkpt>
      <trkpt lat="43.76823" lon="6.99879">
        <ele>881.1</ele>
        <time>2025-01-25T13:57:51.000Z</time>
      </trkpt>
      <trkpt lat="43.76828" lon="6.99875">
        <ele>880.9</ele>
        <time>2025-01-25T13:57:53.000Z</time>
      </trkpt>
      <trkpt lat="43.76834" lon="6.99872">
        <ele>881</ele>
        <time>2025-01-25T13:57:55.000Z</time>
      </trkpt>
      <trkpt lat="43.76841" lon="6.9987">
        <ele>880.9</ele>
        <time>2025-01-25T13:57:57.000Z</time>
      </trkpt>
      <trkpt lat="43.76848" lon="6.99868">
        <ele>880.8</ele>
        <time>2025-01-25T13:57:59.000Z</time>
      </trkpt>
      <trkpt lat="43.76854" lon="6.99866">
        <ele>880.7</ele>
        <time>2025-01-25T13:58:01.000Z</time>
      </trkpt>
      <trkpt lat="43.7686" lon="6.99864">
        <ele>880.6</ele>
        <time>2025-01-25T13:58:03.000Z</time>
      </trkpt>
      <trkpt lat="43.76865" lon="6.99861">
        <ele>880.4</ele>
        <time>2025-01-25T13:58:05.000Z</time>
      </trkpt>
      <trkpt lat="43.76871" lon="6.99857">
        <ele>880.1</ele>
        <time>2025-01-25T13:58:07.000Z</time>
      </trkpt>
      <trkpt lat="43.76878" lon="6.99854">
        <ele>879.8</ele>
        <time>2025-01-25T13:58:09.000Z</time>
      </trkpt>
      <trkpt lat="43.76885" lon="6.99849">
        <ele>879.2</ele>
        <time>2025-01-25T13:58:11.000Z</time>
      </trkpt>
      <trkpt lat="43.76893" lon="6.99845">
        <ele>878.6</ele>
        <time>2025-01-25T13:58:13.000Z</time>
      </trkpt>
      <trkpt lat="43.76899" lon="6.99843">
        <ele>878.2</ele>
        <time>2025-01-25T13:58:15.000Z</time>
      </trkpt>
      <trkpt lat="43.76904" lon="6.99842">
        <ele>877.8</ele>
        <time>2025-01-25T13:58:17.000Z</time>
      </trkpt>
      <trkpt lat="43.76907" lon="6.99836">
        <ele>877.4</ele>
        <time>2025-01-25T13:58:21.000Z</time>
      </trkpt>
      <trkpt lat="43.76907" lon="6.99836">
        <ele>877.2</ele>
        <time>2025-01-25T13:58:23.000Z</time>
      </trkpt>
      <trkpt lat="43.76907" lon="6.99835">
        <ele>877.1</ele>
        <time>2025-01-25T13:58:24.000Z</time>
      </trkpt>
      <trkpt lat="43.76904" lon="6.99831">
        <ele>876.6</ele>
        <time>2025-01-25T13:58:50.000Z</time>
      </trkpt>
      <trkpt lat="43.76903" lon="6.99832">
        <ele>876.4</ele>
        <time>2025-01-25T13:59:10.000Z</time>
      </trkpt>
      <trkpt lat="43.76903" lon="6.99832">
        <ele>876.4</ele>
        <time>2025-01-25T13:59:11.000Z</time>
      </trkpt>
      <trkpt lat="43.76902" lon="6.99832">
        <ele>876.4</ele>
        <time>2025-01-25T13:59:12.000Z</time>
      </trkpt>
      <trkpt lat="43.76903" lon="6.99832">
        <ele>876.4</ele>
        <time>2025-01-25T13:59:15.000Z</time>
      </trkpt>
      <trkpt lat="43.76903" lon="6.99832">
        <ele>876.4</ele>
        <time>2025-01-25T13:59:16.000Z</time>
      </trkpt>
      <trkpt lat="43.76903" lon="6.99832">
        <ele>876.4</ele>
        <time>2025-01-25T13:59:17.000Z</time>
      </trkpt>
      <trkpt lat="43.76905" lon="6.99833">
        <ele>876.4</ele>
        <time>2025-01-25T13:59:24.000Z</time>
      </trkpt>
      <trkpt lat="43.76905" lon="6.99834">
        <ele>876.4</ele>
        <time>2025-01-25T13:59:25.000Z</time>
      </trkpt>
      <trkpt lat="43.76906" lon="6.99835">
        <ele>876.3</ele>
        <time>2025-01-25T13:59:31.000Z</time>
      </trkpt>
      <trkpt lat="43.76906" lon="6.99835">
        <ele>876.3</ele>
        <time>2025-01-25T13:59:32.000Z</time>
      </trkpt>
      <trkpt lat="43.76907" lon="6.99834">
        <ele>876.2</ele>
        <time>2025-01-25T13:59:54.000Z</time>
      </trkpt>
      <trkpt lat="43.76907" lon="6.99834">
        <ele>876.2</ele>
        <time>2025-01-25T13:59:55.000Z</time>
      </trkpt>
      <trkpt lat="43.76903" lon="6.99829">
        <ele>876.1</ele>
        <time>2025-01-25T14:00:01.000Z</time>
      </trkpt>
      <trkpt lat="43.76899" lon="6.99825">
        <ele>876.1</ele>
        <time>2025-01-25T14:00:03.000Z</time>
      </trkpt>
      <trkpt lat="43.76894" lon="6.9982">
        <ele>876</ele>
        <time>2025-01-25T14:00:05.000Z</time>
      </trkpt>
      <trkpt lat="43.76887" lon="6.99815">
        <ele>875.7</ele>
        <time>2025-01-25T14:00:07.000Z</time>
      </trkpt>
      <trkpt lat="43.76879" lon="6.99807">
        <ele>875.3</ele>
        <time>2025-01-25T14:00:09.000Z</time>
      </trkpt>
      <trkpt lat="43.76875" lon="6.99804">
        <ele>875</ele>
        <time>2025-01-25T14:00:10.000Z</time>
      </trkpt>
      <trkpt lat="43.76868" lon="6.99802">
        <ele>873.7</ele>
        <time>2025-01-25T14:00:12.000Z</time>
      </trkpt>
      <trkpt lat="43.76862" lon="6.998">
        <ele>872</ele>
        <time>2025-01-25T14:00:14.000Z</time>
      </trkpt>
      <trkpt lat="43.76855" lon="6.99796">
        <ele>870</ele>
        <time>2025-01-25T14:00:16.000Z</time>
      </trkpt>
      <trkpt lat="43.7685" lon="6.99794">
        <ele>869.3</ele>
        <time>2025-01-25T14:00:17.000Z</time>
      </trkpt>
      <trkpt lat="43.76844" lon="6.9979">
        <ele>868.7</ele>
        <time>2025-01-25T14:00:18.000Z</time>
      </trkpt>
      <trkpt lat="43.76838" lon="6.99788">
        <ele>868.1</ele>
        <time>2025-01-25T14:00:19.000Z</time>
      </trkpt>
      <trkpt lat="43.76833" lon="6.99785">
        <ele>867.6</ele>
        <time>2025-01-25T14:00:20.000Z</time>
      </trkpt>
      <trkpt lat="43.76828" lon="6.99782">
        <ele>866.8</ele>
        <time>2025-01-25T14:00:21.000Z</time>
      </trkpt>
      <trkpt lat="43.76822" lon="6.99779">
        <ele>866.2</ele>
        <time>2025-01-25T14:00:22.000Z</time>
      </trkpt>
      <trkpt lat="43.76817" lon="6.99775">
        <ele>865.3</ele>
        <time>2025-01-25T14:00:23.000Z</time>
      </trkpt>
      <trkpt lat="43.76812" lon="6.99773">
        <ele>864.4</ele>
        <time>2025-01-25T14:00:24.000Z</time>
      </trkpt>
      <trkpt lat="43.76808" lon="6.9977">
        <ele>863.5</ele>
        <time>2025-01-25T14:00:25.000Z</time>
      </trkpt>
      <trkpt lat="43.76803" lon="6.99767">
        <ele>862.7</ele>
        <time>2025-01-25T14:00:26.000Z</time>
      </trkpt>
      <trkpt lat="43.76799" lon="6.99766">
        <ele>861.9</ele>
        <time>2025-01-25T14:00:27.000Z</time>
      </trkpt>
      <trkpt lat="43.76794" lon="6.99764">
        <ele>860.7</ele>
        <time>2025-01-25T14:00:28.000Z</time>
      </trkpt>
      <trkpt lat="43.76786" lon="6.9976">
        <ele>858.7</ele>
        <time>2025-01-25T14:00:30.000Z</time>
      </trkpt>
      <trkpt lat="43.76779" lon="6.99756">
        <ele>856.6</ele>
        <time>2025-01-25T14:00:32.000Z</time>
      </trkpt>
      <trkpt lat="43.76772" lon="6.99751">
        <ele>854.4</ele>
        <time>2025-01-25T14:00:34.000Z</time>
      </trkpt>
      <trkpt lat="43.76766" lon="6.99743">
        <ele>852.9</ele>
        <time>2025-01-25T14:00:36.000Z</time>
      </trkpt>
      <trkpt lat="43.76759" lon="6.9974">
        <ele>850.9</ele>
        <time>2025-01-25T14:00:38.000Z</time>
      </trkpt>
      <trkpt lat="43.7675" lon="6.99741">
        <ele>848.7</ele>
        <time>2025-01-25T14:00:40.000Z</time>
      </trkpt>
      <trkpt lat="43.76742" lon="6.99741">
        <ele>846.7</ele>
        <time>2025-01-25T14:00:42.000Z</time>
      </trkpt>
      <trkpt lat="43.76735" lon="6.9974">
        <ele>845.3</ele>
        <time>2025-01-25T14:00:44.000Z</time>
      </trkpt>
      <trkpt lat="43.76728" lon="6.99736">
        <ele>843.7</ele>
        <time>2025-01-25T14:00:46.000Z</time>
      </trkpt>
      <trkpt lat="43.76722" lon="6.99732">
        <ele>842.5</ele>
        <time>2025-01-25T14:00:48.000Z</time>
      </trkpt>
      <trkpt lat="43.76713" lon="6.99729">
        <ele>841.1</ele>
        <time>2025-01-25T14:00:50.000Z</time>
      </trkpt>
      <trkpt lat="43.76709" lon="6.99726">
        <ele>840.4</ele>
        <time>2025-01-25T14:00:51.000Z</time>
      </trkpt>
      <trkpt lat="43.76705" lon="6.99723">
        <ele>839.6</ele>
        <time>2025-01-25T14:00:52.000Z</time>
      </trkpt>
      <trkpt lat="43.767" lon="6.9972">
        <ele>838.9</ele>
        <time>2025-01-25T14:00:53.000Z</time>
      </trkpt>
      <trkpt lat="43.76696" lon="6.99717">
        <ele>837.8</ele>
        <time>2025-01-25T14:00:54.000Z</time>
      </trkpt>
      <trkpt lat="43.76692" lon="6.99714">
        <ele>836.5</ele>
        <time>2025-01-25T14:00:55.000Z</time>
      </trkpt>
      <trkpt lat="43.76687" lon="6.99713">
        <ele>835.6</ele>
        <time>2025-01-25T14:00:56.000Z</time>
      </trkpt>
      <trkpt lat="43.76683" lon="6.99711">
        <ele>835</ele>
        <time>2025-01-25T14:00:57.000Z</time>
      </trkpt>
      <trkpt lat="43.76678" lon="6.99708">
        <ele>834.5</ele>
        <time>2025-01-25T14:00:58.000Z</time>
      </trkpt>
      <trkpt lat="43.76673" lon="6.99705">
        <ele>833.7</ele>
        <time>2025-01-25T14:00:59.000Z</time>
      </trkpt>
      <trkpt lat="43.76668" lon="6.99704">
        <ele>833.2</ele>
        <time>2025-01-25T14:01:00.000Z</time>
      </trkpt>
      <trkpt lat="43.76663" lon="6.99702">
        <ele>832.6</ele>
        <time>2025-01-25T14:01:01.000Z</time>
      </trkpt>
      <trkpt lat="43.76655" lon="6.99698">
        <ele>831.6</ele>
        <time>2025-01-25T14:01:03.000Z</time>
      </trkpt>
      <trkpt lat="43.76647" lon="6.99693">
        <ele>830</ele>
        <time>2025-01-25T14:01:05.000Z</time>
      </trkpt>
      <trkpt lat="43.76641" lon="6.99688">
        <ele>828.3</ele>
        <time>2025-01-25T14:01:07.000Z</time>
      </trkpt>
      <trkpt lat="43.76636" lon="6.99684">
        <ele>826.3</ele>
        <time>2025-01-25T14:01:09.000Z</time>
      </trkpt>
      <trkpt lat="43.7663" lon="6.9968">
        <ele>824.4</ele>
        <time>2025-01-25T14:01:11.000Z</time>
      </trkpt>
      <trkpt lat="43.76622" lon="6.99675">
        <ele>822.9</ele>
        <time>2025-01-25T14:01:13.000Z</time>
      </trkpt>
      <trkpt lat="43.76615" lon="6.9967">
        <ele>821.2</ele>
        <time>2025-01-25T14:01:15.000Z</time>
      </trkpt>
      <trkpt lat="43.76608" lon="6.99665">
        <ele>819.4</ele>
        <time>2025-01-25T14:01:17.000Z</time>
      </trkpt>
      <trkpt lat="43.76601" lon="6.9966">
        <ele>817.6</ele>
        <time>2025-01-25T14:01:19.000Z</time>
      </trkpt>
      <trkpt lat="43.76595" lon="6.99655">
        <ele>816.2</ele>
        <time>2025-01-25T14:01:21.000Z</time>
      </trkpt>
      <trkpt lat="43.76588" lon="6.99649">
        <ele>814.7</ele>
        <time>2025-01-25T14:01:23.000Z</time>
      </trkpt>
      <trkpt lat="43.76583" lon="6.99643">
        <ele>812.2</ele>
        <time>2025-01-25T14:01:25.000Z</time>
      </trkpt>
      <trkpt lat="43.76578" lon="6.99638">
        <ele>809.8</ele>
        <time>2025-01-25T14:01:27.000Z</time>
      </trkpt>
      <trkpt lat="43.76573" lon="6.99635">
        <ele>808.9</ele>
        <time>2025-01-25T14:01:28.000Z</time>
      </trkpt>
      <trkpt lat="43.76569" lon="6.99632">
        <ele>807.9</ele>
        <time>2025-01-25T14:01:29.000Z</time>
      </trkpt>
      <trkpt lat="43.76562" lon="6.99627">
        <ele>806.4</ele>
        <time>2025-01-25T14:01:31.000Z</time>
      </trkpt>
      <trkpt lat="43.76555" lon="6.9962">
        <ele>805</ele>
        <time>2025-01-25T14:01:33.000Z</time>
      </trkpt>
      <trkpt lat="43.76549" lon="6.99611">
        <ele>803.2</ele>
        <time>2025-01-25T14:01:35.000Z</time>
      </trkpt>
      <trkpt lat="43.76544" lon="6.99606">
        <ele>802.1</ele>
        <time>2025-01-25T14:01:37.000Z</time>
      </trkpt>
      <trkpt lat="43.76538" lon="6.99599">
        <ele>801</ele>
        <time>2025-01-25T14:01:39.000Z</time>
      </trkpt>
      <trkpt lat="43.76533" lon="6.99594">
        <ele>799.6</ele>
        <time>2025-01-25T14:01:41.000Z</time>
      </trkpt>
      <trkpt lat="43.76527" lon="6.99588">
        <ele>798.4</ele>
        <time>2025-01-25T14:01:43.000Z</time>
      </trkpt>
      <trkpt lat="43.76521" lon="6.99582">
        <ele>797.2</ele>
        <time>2025-01-25T14:01:45.000Z</time>
      </trkpt>
      <trkpt lat="43.76516" lon="6.99578">
        <ele>796.1</ele>
        <time>2025-01-25T14:01:47.000Z</time>
      </trkpt>
      <trkpt lat="43.76511" lon="6.99574">
        <ele>794.9</ele>
        <time>2025-01-25T14:01:49.000Z</time>
      </trkpt>
      <trkpt lat="43.76515" lon="6.99569">
        <ele>792.2</ele>
        <time>2025-01-25T14:01:54.000Z</time>
      </trkpt>
      <trkpt lat="43.7652" lon="6.99565">
        <ele>790.9</ele>
        <time>2025-01-25T14:01:57.000Z</time>
      </trkpt>
      <trkpt lat="43.76523" lon="6.99559">
        <ele>789.2</ele>
        <time>2025-01-25T14:02:00.000Z</time>
      </trkpt>
      <trkpt lat="43.76527" lon="6.99552">
        <ele>786.6</ele>
        <time>2025-01-25T14:02:04.000Z</time>
      </trkpt>
      <trkpt lat="43.76531" lon="6.99547">
        <ele>785.2</ele>
        <time>2025-01-25T14:02:06.000Z</time>
      </trkpt>
      <trkpt lat="43.76535" lon="6.9954">
        <ele>782.8</ele>
        <time>2025-01-25T14:02:09.000Z</time>
      </trkpt>
      <trkpt lat="43.76539" lon="6.99536">
        <ele>781.3</ele>
        <time>2025-01-25T14:02:11.000Z</time>
      </trkpt>
      <trkpt lat="43.76544" lon="6.99532">
        <ele>779.8</ele>
        <time>2025-01-25T14:02:14.000Z</time>
      </trkpt>
      <trkpt lat="43.7655" lon="6.99529">
        <ele>778.2</ele>
        <time>2025-01-25T14:02:17.000Z</time>
      </trkpt>
      <trkpt lat="43.76552" lon="6.99523">
        <ele>776.8</ele>
        <time>2025-01-25T14:02:20.000Z</time>
      </trkpt>
      <trkpt lat="43.76547" lon="6.99517">
        <ele>776.1</ele>
        <time>2025-01-25T14:02:23.000Z</time>
      </trkpt>
      <trkpt lat="43.76543" lon="6.99511">
        <ele>774.6</ele>
        <time>2025-01-25T14:02:26.000Z</time>
      </trkpt>
      <trkpt lat="43.76538" lon="6.99507">
        <ele>771.8</ele>
        <time>2025-01-25T14:02:30.000Z</time>
      </trkpt>
      <trkpt lat="43.76536" lon="6.995">
        <ele>767.8</ele>
        <time>2025-01-25T14:02:35.000Z</time>
      </trkpt>
      <trkpt lat="43.76534" lon="6.99492">
        <ele>765.3</ele>
        <time>2025-01-25T14:02:38.000Z</time>
      </trkpt>
      <trkpt lat="43.76529" lon="6.99488">
        <ele>763.6</ele>
        <time>2025-01-25T14:02:40.000Z</time>
      </trkpt>
      <trkpt lat="43.76525" lon="6.99483">
        <ele>762.3</ele>
        <time>2025-01-25T14:02:42.000Z</time>
      </trkpt>
      <trkpt lat="43.76522" lon="6.99478">
        <ele>760.1</ele>
        <time>2025-01-25T14:02:45.000Z</time>
      </trkpt>
      <trkpt lat="43.76519" lon="6.99472">
        <ele>758.4</ele>
        <time>2025-01-25T14:02:48.000Z</time>
      </trkpt>
      <trkpt lat="43.76516" lon="6.99467">
        <ele>756.6</ele>
        <time>2025-01-25T14:02:50.000Z</time>
      </trkpt>
      <trkpt lat="43.76514" lon="6.9946">
        <ele>753.8</ele>
        <time>2025-01-25T14:02:54.000Z</time>
      </trkpt>
      <trkpt lat="43.76521" lon="6.99457">
        <ele>752.2</ele>
        <time>2025-01-25T14:02:58.000Z</time>
      </trkpt>
      <trkpt lat="43.76527" lon="6.99455">
        <ele>750.2</ele>
        <time>2025-01-25T14:03:01.000Z</time>
      </trkpt>
      <trkpt lat="43.7653" lon="6.99451">
        <ele>748</ele>
        <time>2025-01-25T14:03:05.000Z</time>
      </trkpt>
      <trkpt lat="43.76535" lon="6.9945">
        <ele>746</ele>
        <time>2025-01-25T14:03:09.000Z</time>
      </trkpt>
      <trkpt lat="43.7654" lon="6.99449">
        <ele>744.6</ele>
        <time>2025-01-25T14:03:11.000Z</time>
      </trkpt>
      <trkpt lat="43.76547" lon="6.99442">
        <ele>742.4</ele>
        <time>2025-01-25T14:03:13.000Z</time>
      </trkpt>
      <trkpt lat="43.76551" lon="6.99436">
        <ele>740.9</ele>
        <time>2025-01-25T14:03:15.000Z</time>
      </trkpt>
      <trkpt lat="43.76556" lon="6.99434">
        <ele>740.3</ele>
        <time>2025-01-25T14:03:17.000Z</time>
      </trkpt>
      <trkpt lat="43.76561" lon="6.99434">
        <ele>739.6</ele>
        <time>2025-01-25T14:03:19.000Z</time>
      </trkpt>
      <trkpt lat="43.76567" lon="6.99434">
        <ele>738.7</ele>
        <time>2025-01-25T14:03:21.000Z</time>
      </trkpt>
      <trkpt lat="43.76574" lon="6.99428">
        <ele>737</ele>
        <time>2025-01-25T14:03:24.000Z</time>
      </trkpt>
      <trkpt lat="43.76576" lon="6.99421">
        <ele>735.3</ele>
        <time>2025-01-25T14:03:27.000Z</time>
      </trkpt>
      <trkpt lat="43.76571" lon="6.99416">
        <ele>734.1</ele>
        <time>2025-01-25T14:03:30.000Z</time>
      </trkpt>
      <trkpt lat="43.76565" lon="6.99413">
        <ele>733.4</ele>
        <time>2025-01-25T14:03:32.000Z</time>
      </trkpt>
      <trkpt lat="43.76559" lon="6.99411">
        <ele>733.1</ele>
        <time>2025-01-25T14:03:34.000Z</time>
      </trkpt>
      <trkpt lat="43.76553" lon="6.99409">
        <ele>732.8</ele>
        <time>2025-01-25T14:03:36.000Z</time>
      </trkpt>
      <trkpt lat="43.76548" lon="6.99409">
        <ele>732.3</ele>
        <time>2025-01-25T14:03:38.000Z</time>
      </trkpt>
      <trkpt lat="43.76542" lon="6.99407">
        <ele>731.7</ele>
        <time>2025-01-25T14:03:40.000Z</time>
      </trkpt>
      <trkpt lat="43.76535" lon="6.99406">
        <ele>729.9</ele>
        <time>2025-01-25T14:03:43.000Z</time>
      </trkpt>
      <trkpt lat="43.7653" lon="6.99404">
        <ele>729.2</ele>
        <time>2025-01-25T14:03:44.000Z</time>
      </trkpt>
      <trkpt lat="43.76524" lon="6.99402">
        <ele>727.7</ele>
        <time>2025-01-25T14:03:46.000Z</time>
      </trkpt>
      <trkpt lat="43.76519" lon="6.99396">
        <ele>725.2</ele>
        <time>2025-01-25T14:03:49.000Z</time>
      </trkpt>
      <trkpt lat="43.76524" lon="6.99392">
        <ele>720.9</ele>
        <time>2025-01-25T14:03:56.000Z</time>
      </trkpt>
      <trkpt lat="43.76529" lon="6.99388">
        <ele>719</ele>
        <time>2025-01-25T14:03:59.000Z</time>
      </trkpt>
      <trkpt lat="43.76531" lon="6.99382">
        <ele>717.7</ele>
        <time>2025-01-25T14:04:01.000Z</time>
      </trkpt>
      <trkpt lat="43.76536" lon="6.99377">
        <ele>715.7</ele>
        <time>2025-01-25T14:04:03.000Z</time>
      </trkpt>
      <trkpt lat="43.76541" lon="6.99373">
        <ele>713.7</ele>
        <time>2025-01-25T14:04:05.000Z</time>
      </trkpt>
      <trkpt lat="43.76546" lon="6.99369">
        <ele>712.1</ele>
        <time>2025-01-25T14:04:07.000Z</time>
      </trkpt>
      <trkpt lat="43.76552" lon="6.99365">
        <ele>711.1</ele>
        <time>2025-01-25T14:04:10.000Z</time>
      </trkpt>
      <trkpt lat="43.76551" lon="6.99358">
        <ele>709.7</ele>
        <time>2025-01-25T14:04:14.000Z</time>
      </trkpt>
      <trkpt lat="43.76547" lon="6.99354">
        <ele>708.8</ele>
        <time>2025-01-25T14:04:17.000Z</time>
      </trkpt>
      <trkpt lat="43.76546" lon="6.99353">
        <ele>708.4</ele>
        <time>2025-01-25T14:04:19.000Z</time>
      </trkpt>
      <trkpt lat="43.76546" lon="6.99352">
        <ele>708.3</ele>
        <time>2025-01-25T14:04:20.000Z</time>
      </trkpt>
      <trkpt lat="43.76549" lon="6.99348">
        <ele>707.9</ele>
        <time>2025-01-25T14:04:25.000Z</time>
      </trkpt>
      <trkpt lat="43.76551" lon="6.99342">
        <ele>707.6</ele>
        <time>2025-01-25T14:04:32.000Z</time>
      </trkpt>
      <trkpt lat="43.76552" lon="6.99342">
        <ele>707.6</ele>
        <time>2025-01-25T14:04:36.000Z</time>
      </trkpt>
      <trkpt lat="43.7655" lon="6.99341">
        <ele>707.5</ele>
        <time>2025-01-25T14:04:37.000Z</time>
      </trkpt>
      <trkpt lat="43.7655" lon="6.99342">
        <ele>707.5</ele>
        <time>2025-01-25T14:04:41.000Z</time>
      </trkpt>
      <trkpt lat="43.7655" lon="6.99344">
        <ele>707.4</ele>
        <time>2025-01-25T14:04:42.000Z</time>
      </trkpt>
      <trkpt lat="43.76553" lon="6.99348">
        <ele>707.4</ele>
        <time>2025-01-25T14:04:46.000Z</time>
      </trkpt>
      <trkpt lat="43.76548" lon="6.99344">
        <ele>707.2</ele>
        <time>2025-01-25T14:05:16.000Z</time>
      </trkpt>
      <trkpt lat="43.76551" lon="6.9935">
        <ele>707.1</ele>
        <time>2025-01-25T14:05:31.000Z</time>
      </trkpt>
      <trkpt lat="43.76546" lon="6.99348">
        <ele>707</ele>
        <time>2025-01-25T14:05:58.000Z</time>
      </trkpt>
      <trkpt lat="43.76545" lon="6.99348">
        <ele>707</ele>
        <time>2025-01-25T14:05:59.000Z</time>
      </trkpt>
      <trkpt lat="43.76543" lon="6.99347">
        <ele>707</ele>
        <time>2025-01-25T14:06:00.000Z</time>
      </trkpt>
      <trkpt lat="43.76547" lon="6.99343">
        <ele>706.5</ele>
        <time>2025-01-25T14:06:06.000Z</time>
      </trkpt>
      <trkpt lat="43.76552" lon="6.99341">
        <ele>706.1</ele>
        <time>2025-01-25T14:06:08.000Z</time>
      </trkpt>
      <trkpt lat="43.76557" lon="6.99341">
        <ele>705.3</ele>
        <time>2025-01-25T14:06:10.000Z</time>
      </trkpt>
      <trkpt lat="43.76561" lon="6.99341">
        <ele>703.7</ele>
        <time>2025-01-25T14:06:13.000Z</time>
      </trkpt>
      <trkpt lat="43.76561" lon="6.99338">
        <ele>701.7</ele>
        <time>2025-01-25T14:06:17.000Z</time>
      </trkpt>
      <trkpt lat="43.76561" lon="6.99338">
        <ele>701.4</ele>
        <time>2025-01-25T14:06:18.000Z</time>
      </trkpt>
      <trkpt lat="43.76561" lon="6.99337">
        <ele>701.1</ele>
        <time>2025-01-25T14:06:19.000Z</time>
      </trkpt>
      <trkpt lat="43.76563" lon="6.99338">
        <ele>700.8</ele>
        <time>2025-01-25T14:06:20.000Z</time>
      </trkpt>
      <trkpt lat="43.76564" lon="6.99338">
        <ele>700.4</ele>
        <time>2025-01-25T14:06:21.000Z</time>
      </trkpt>
      <trkpt lat="43.76565" lon="6.99339">
        <ele>700.1</ele>
        <time>2025-01-25T14:06:22.000Z</time>
      </trkpt>
      <trkpt lat="43.76561" lon="6.99334">
        <ele>698.9</ele>
        <time>2025-01-25T14:06:29.000Z</time>
      </trkpt>
      <trkpt lat="43.7656" lon="6.99334">
        <ele>698</ele>
        <time>2025-01-25T14:06:36.000Z</time>
      </trkpt>
      <trkpt lat="43.76561" lon="6.99334">
        <ele>698</ele>
        <time>2025-01-25T14:06:37.000Z</time>
      </trkpt>
      <trkpt lat="43.7656" lon="6.99333">
        <ele>697.9</ele>
        <time>2025-01-25T14:06:38.000Z</time>
      </trkpt>
      <trkpt lat="43.76559" lon="6.99331">
        <ele>697.9</ele>
        <time>2025-01-25T14:06:39.000Z</time>
      </trkpt>
      <trkpt lat="43.76558" lon="6.9933">
        <ele>697.8</ele>
        <time>2025-01-25T14:06:40.000Z</time>
      </trkpt>
      <trkpt lat="43.76554" lon="6.99326">
        <ele>697.7</ele>
        <time>2025-01-25T14:06:42.000Z</time>
      </trkpt>
      <trkpt lat="43.76551" lon="6.99321">
        <ele>697.4</ele>
        <time>2025-01-25T14:06:44.000Z</time>
      </trkpt>
      <trkpt lat="43.76546" lon="6.99315">
        <ele>696.8</ele>
        <time>2025-01-25T14:06:47.000Z</time>
      </trkpt>
      <trkpt lat="43.76541" lon="6.99314">
        <ele>695.4</ele>
        <time>2025-01-25T14:06:50.000Z</time>
      </trkpt>
      <trkpt lat="43.76536" lon="6.99314">
        <ele>694.1</ele>
        <time>2025-01-25T14:06:52.000Z</time>
      </trkpt>
      <trkpt lat="43.7653" lon="6.99313">
        <ele>692.5</ele>
        <time>2025-01-25T14:06:54.000Z</time>
      </trkpt>
      <trkpt lat="43.76524" lon="6.99313">
        <ele>690.9</ele>
        <time>2025-01-25T14:06:56.000Z</time>
      </trkpt>
      <trkpt lat="43.76518" lon="6.99312">
        <ele>689.6</ele>
        <time>2025-01-25T14:06:58.000Z</time>
      </trkpt>
      <trkpt lat="43.76513" lon="6.99308">
        <ele>688.1</ele>
        <time>2025-01-25T14:07:00.000Z</time>
      </trkpt>
      <trkpt lat="43.76509" lon="6.99304">
        <ele>686.5</ele>
        <time>2025-01-25T14:07:02.000Z</time>
      </trkpt>
      <trkpt lat="43.76505" lon="6.99299">
        <ele>684.7</ele>
        <time>2025-01-25T14:07:04.000Z</time>
      </trkpt>
      <trkpt lat="43.76501" lon="6.99295">
        <ele>683.7</ele>
        <time>2025-01-25T14:07:06.000Z</time>
      </trkpt>
      <trkpt lat="43.76494" lon="6.99291">
        <ele>682.3</ele>
        <time>2025-01-25T14:07:08.000Z</time>
      </trkpt>
      <trkpt lat="43.7649" lon="6.99287">
        <ele>680.5</ele>
        <time>2025-01-25T14:07:10.000Z</time>
      </trkpt>
      <trkpt lat="43.76485" lon="6.99285">
        <ele>678.7</ele>
        <time>2025-01-25T14:07:12.000Z</time>
      </trkpt>
      <trkpt lat="43.7648" lon="6.99281">
        <ele>676.5</ele>
        <time>2025-01-25T14:07:14.000Z</time>
      </trkpt>
      <trkpt lat="43.76475" lon="6.99279">
        <ele>674.6</ele>
        <time>2025-01-25T14:07:16.000Z</time>
      </trkpt>
      <trkpt lat="43.76471" lon="6.99276">
        <ele>673.5</ele>
        <time>2025-01-25T14:07:18.000Z</time>
      </trkpt>
      <trkpt lat="43.76469" lon="6.9927">
        <ele>671.9</ele>
        <time>2025-01-25T14:07:21.000Z</time>
      </trkpt>
      <trkpt lat="43.76473" lon="6.99265">
        <ele>670.2</ele>
        <time>2025-01-25T14:07:24.000Z</time>
      </trkpt>
      <trkpt lat="43.76476" lon="6.99258">
        <ele>666.9</ele>
        <time>2025-01-25T14:07:28.000Z</time>
      </trkpt>
      <trkpt lat="43.76472" lon="6.99251">
        <ele>664.3</ele>
        <time>2025-01-25T14:07:30.000Z</time>
      </trkpt>
      <trkpt lat="43.76468" lon="6.99244">
        <ele>659.7</ele>
        <time>2025-01-25T14:07:34.000Z</time>
      </trkpt>
      <trkpt lat="43.76464" lon="6.9924">
        <ele>658.1</ele>
        <time>2025-01-25T14:07:36.000Z</time>
      </trkpt>
      <trkpt lat="43.7646" lon="6.99237">
        <ele>656.5</ele>
        <time>2025-01-25T14:07:38.000Z</time>
      </trkpt>
      <trkpt lat="43.76462" lon="6.9923">
        <ele>652</ele>
        <time>2025-01-25T14:07:44.000Z</time>
      </trkpt>
      <trkpt lat="43.76468" lon="6.99226">
        <ele>650.8</ele>
        <time>2025-01-25T14:07:47.000Z</time>
      </trkpt>
      <trkpt lat="43.76469" lon="6.99219">
        <ele>648.5</ele>
        <time>2025-01-25T14:07:52.000Z</time>
      </trkpt>
      <trkpt lat="43.76469" lon="6.99211">
        <ele>646.9</ele>
        <time>2025-01-25T14:07:55.000Z</time>
      </trkpt>
      <trkpt lat="43.76472" lon="6.99204">
        <ele>644.7</ele>
        <time>2025-01-25T14:07:58.000Z</time>
      </trkpt>
      <trkpt lat="43.76473" lon="6.99198">
        <ele>642.9</ele>
        <time>2025-01-25T14:08:02.000Z</time>
      </trkpt>
      <trkpt lat="43.76475" lon="6.99193">
        <ele>642</ele>
        <time>2025-01-25T14:08:10.000Z</time>
      </trkpt>
      <trkpt lat="43.76475" lon="6.99193">
        <ele>641.9</ele>
        <time>2025-01-25T14:08:11.000Z</time>
      </trkpt>
      <trkpt lat="43.76475" lon="6.99193">
        <ele>641.9</ele>
        <time>2025-01-25T14:08:12.000Z</time>
      </trkpt>
      <trkpt lat="43.76475" lon="6.99191">
        <ele>641.7</ele>
        <time>2025-01-25T14:08:18.000Z</time>
      </trkpt>
      <trkpt lat="43.76476" lon="6.9919">
        <ele>641.7</ele>
        <time>2025-01-25T14:08:19.000Z</time>
      </trkpt>
      <trkpt lat="43.76476" lon="6.9919">
        <ele>641.6</ele>
        <time>2025-01-25T14:08:20.000Z</time>
      </trkpt>
      <trkpt lat="43.76475" lon="6.9919">
        <ele>641.6</ele>
        <time>2025-01-25T14:08:24.000Z</time>
      </trkpt>
      <trkpt lat="43.76476" lon="6.9919">
        <ele>641.6</ele>
        <time>2025-01-25T14:08:25.000Z</time>
      </trkpt>
      <trkpt lat="43.76476" lon="6.9919">
        <ele>641.5</ele>
        <time>2025-01-25T14:08:31.000Z</time>
      </trkpt>
      <trkpt lat="43.76476" lon="6.99189">
        <ele>641.5</ele>
        <time>2025-01-25T14:08:32.000Z</time>
      </trkpt>
      <trkpt lat="43.76475" lon="6.99189">
        <ele>641.4</ele>
        <time>2025-01-25T14:08:33.000Z</time>
      </trkpt>
      <trkpt lat="43.76475" lon="6.99182">
        <ele>640</ele>
        <time>2025-01-25T14:08:38.000Z</time>
      </trkpt>
      <trkpt lat="43.76478" lon="6.99176">
        <ele>637.3</ele>
        <time>2025-01-25T14:08:42.000Z</time>
      </trkpt>
      <trkpt lat="43.76474" lon="6.99171">
        <ele>635.2</ele>
        <time>2025-01-25T14:08:45.000Z</time>
      </trkpt>
      <trkpt lat="43.76469" lon="6.99168">
        <ele>632.5</ele>
        <time>2025-01-25T14:08:48.000Z</time>
      </trkpt>
      <trkpt lat="43.76468" lon="6.99158">
        <ele>630.4</ele>
        <time>2025-01-25T14:08:51.000Z</time>
      </trkpt>
      <trkpt lat="43.76468" lon="6.99148">
        <ele>629.3</ele>
        <time>2025-01-25T14:08:53.000Z</time>
      </trkpt>
      <trkpt lat="43.76469" lon="6.9914">
        <ele>628.1</ele>
        <time>2025-01-25T14:08:55.000Z</time>
      </trkpt>
      <trkpt lat="43.76472" lon="6.99134">
        <ele>626.8</ele>
        <time>2025-01-25T14:08:57.000Z</time>
      </trkpt>
      <trkpt lat="43.76477" lon="6.99132">
        <ele>625.1</ele>
        <time>2025-01-25T14:09:00.000Z</time>
      </trkpt>
      <trkpt lat="43.7648" lon="6.99126">
        <ele>623.3</ele>
        <time>2025-01-25T14:09:04.000Z</time>
      </trkpt>
      <trkpt lat="43.76479" lon="6.99119">
        <ele>622.5</ele>
        <time>2025-01-25T14:09:06.000Z</time>
      </trkpt>
      <trkpt lat="43.76476" lon="6.99114">
        <ele>621.3</ele>
        <time>2025-01-25T14:09:08.000Z</time>
      </trkpt>
      <trkpt lat="43.76471" lon="6.99115">
        <ele>619.8</ele>
        <time>2025-01-25T14:09:10.000Z</time>
      </trkpt>
      <trkpt lat="43.76466" lon="6.99118">
        <ele>618.2</ele>
        <time>2025-01-25T14:09:13.000Z</time>
      </trkpt>
      <trkpt lat="43.76462" lon="6.99117">
        <ele>617</ele>
        <time>2025-01-25T14:09:16.000Z</time>
      </trkpt>
      <trkpt lat="43.76457" lon="6.99118">
        <ele>615.8</ele>
        <time>2025-01-25T14:09:18.000Z</time>
      </trkpt>
      <trkpt lat="43.76453" lon="6.9912">
        <ele>614.1</ele>
        <time>2025-01-25T14:09:20.000Z</time>
      </trkpt>
      <trkpt lat="43.76448" lon="6.99122">
        <ele>611.7</ele>
        <time>2025-01-25T14:09:23.000Z</time>
      </trkpt>
      <trkpt lat="43.76442" lon="6.99121">
        <ele>610.6</ele>
        <time>2025-01-25T14:09:25.000Z</time>
      </trkpt>
      <trkpt lat="43.76438" lon="6.99122">
        <ele>609.6</ele>
        <time>2025-01-25T14:09:27.000Z</time>
      </trkpt>
      <trkpt lat="43.76433" lon="6.99123">
        <ele>608.3</ele>
        <time>2025-01-25T14:09:29.000Z</time>
      </trkpt>
      <trkpt lat="43.7643" lon="6.99118">
        <ele>604.8</ele>
        <time>2025-01-25T14:09:33.000Z</time>
      </trkpt>
      <trkpt lat="43.76427" lon="6.99111">
        <ele>601.9</ele>
        <time>2025-01-25T14:09:37.000Z</time>
      </trkpt>
      <trkpt lat="43.76425" lon="6.99103">
        <ele>600.1</ele>
        <time>2025-01-25T14:09:40.000Z</time>
      </trkpt>
      <trkpt lat="43.76425" lon="6.99094">
        <ele>598.7</ele>
        <time>2025-01-25T14:09:42.000Z</time>
      </trkpt>
      <trkpt lat="43.76427" lon="6.99086">
        <ele>597.4</ele>
        <time>2025-01-25T14:09:44.000Z</time>
      </trkpt>
      <trkpt lat="43.76428" lon="6.9908">
        <ele>596.1</ele>
        <time>2025-01-25T14:09:46.000Z</time>
      </trkpt>
      <trkpt lat="43.76424" lon="6.99077">
        <ele>593.8</ele>
        <time>2025-01-25T14:09:49.000Z</time>
      </trkpt>
      <trkpt lat="43.76423" lon="6.99069">
        <ele>592.1</ele>
        <time>2025-01-25T14:09:51.000Z</time>
      </trkpt>
      <trkpt lat="43.76422" lon="6.99062">
        <ele>590.2</ele>
        <time>2025-01-25T14:09:53.000Z</time>
      </trkpt>
      <trkpt lat="43.76421" lon="6.99055">
        <ele>587.9</ele>
        <time>2025-01-25T14:09:56.000Z</time>
      </trkpt>
      <trkpt lat="43.7642" lon="6.99049">
        <ele>586.3</ele>
        <time>2025-01-25T14:10:00.000Z</time>
      </trkpt>
      <trkpt lat="43.76415" lon="6.99046">
        <ele>583.4</ele>
        <time>2025-01-25T14:10:06.000Z</time>
      </trkpt>
      <trkpt lat="43.76413" lon="6.9904">
        <ele>581.8</ele>
        <time>2025-01-25T14:10:10.000Z</time>
      </trkpt>
      <trkpt lat="43.76406" lon="6.99037">
        <ele>579</ele>
        <time>2025-01-25T14:10:14.000Z</time>
      </trkpt>
      <trkpt lat="43.76401" lon="6.99041">
        <ele>576.1</ele>
        <time>2025-01-25T14:10:18.000Z</time>
      </trkpt>
      <trkpt lat="43.76396" lon="6.99043">
        <ele>573.8</ele>
        <time>2025-01-25T14:10:21.000Z</time>
      </trkpt>
      <trkpt lat="43.76391" lon="6.99045">
        <ele>571.9</ele>
        <time>2025-01-25T14:10:24.000Z</time>
      </trkpt>
      <trkpt lat="43.76386" lon="6.99047">
        <ele>570.7</ele>
        <time>2025-01-25T14:10:26.000Z</time>
      </trkpt>
      <trkpt lat="43.76382" lon="6.99042">
        <ele>569.1</ele>
        <time>2025-01-25T14:10:29.000Z</time>
      </trkpt>
      <trkpt lat="43.76378" lon="6.99037">
        <ele>567.7</ele>
        <time>2025-01-25T14:10:31.000Z</time>
      </trkpt>
      <trkpt lat="43.76375" lon="6.99028">
        <ele>565.4</ele>
        <time>2025-01-25T14:10:34.000Z</time>
      </trkpt>
      <trkpt lat="43.76375" lon="6.99021">
        <ele>562.9</ele>
        <time>2025-01-25T14:10:37.000Z</time>
      </trkpt>
      <trkpt lat="43.76376" lon="6.99013">
        <ele>561.1</ele>
        <time>2025-01-25T14:10:40.000Z</time>
      </trkpt>
      <trkpt lat="43.76378" lon="6.99006">
        <ele>560.1</ele>
        <time>2025-01-25T14:10:42.000Z</time>
      </trkpt>
      <trkpt lat="43.76382" lon="6.99">
        <ele>558.5</ele>
        <time>2025-01-25T14:10:45.000Z</time>
      </trkpt>
      <trkpt lat="43.76385" lon="6.99">
        <ele>556.2</ele>
        <time>2025-01-25T14:10:51.000Z</time>
      </trkpt>
      <trkpt lat="43.76386" lon="6.99">
        <ele>555.9</ele>
        <time>2025-01-25T14:10:53.000Z</time>
      </trkpt>
      <trkpt lat="43.76386" lon="6.99001">
        <ele>555.8</ele>
        <time>2025-01-25T14:10:54.000Z</time>
      </trkpt>
      <trkpt lat="43.76387" lon="6.99001">
        <ele>555.7</ele>
        <time>2025-01-25T14:10:55.000Z</time>
      </trkpt>
      <trkpt lat="43.76384" lon="6.98994">
        <ele>554.8</ele>
        <time>2025-01-25T14:11:01.000Z</time>
      </trkpt>
      <trkpt lat="43.76377" lon="6.98992">
        <ele>553.9</ele>
        <time>2025-01-25T14:11:04.000Z</time>
      </trkpt>
      <trkpt lat="43.76369" lon="6.98995">
        <ele>551.9</ele>
        <time>2025-01-25T14:11:09.000Z</time>
      </trkpt>
      <trkpt lat="43.76365" lon="6.98996">
        <ele>551.4</ele>
        <time>2025-01-25T14:11:11.000Z</time>
      </trkpt>
      <trkpt lat="43.76364" lon="6.98996">
        <ele>551.3</ele>
        <time>2025-01-25T14:11:12.000Z</time>
      </trkpt>
      <trkpt lat="43.7636" lon="6.98994">
        <ele>550.9</ele>
        <time>2025-01-25T14:11:17.000Z</time>
      </trkpt>
      <trkpt lat="43.76359" lon="6.98993">
        <ele>550.7</ele>
        <time>2025-01-25T14:11:29.000Z</time>
      </trkpt>
      <trkpt lat="43.76357" lon="6.98993">
        <ele>550.7</ele>
        <time>2025-01-25T14:11:30.000Z</time>
      </trkpt>
      <trkpt lat="43.76358" lon="6.98986">
        <ele>550.5</ele>
        <time>2025-01-25T14:11:34.000Z</time>
      </trkpt>
      <trkpt lat="43.76355" lon="6.98981">
        <ele>548.9</ele>
        <time>2025-01-25T14:11:42.000Z</time>
      </trkpt>
      <trkpt lat="43.76351" lon="6.98985">
        <ele>544.9</ele>
        <time>2025-01-25T14:11:52.000Z</time>
      </trkpt>
      <trkpt lat="43.76346" lon="6.98989">
        <ele>542.6</ele>
        <time>2025-01-25T14:11:55.000Z</time>
      </trkpt>
      <trkpt lat="43.76341" lon="6.98993">
        <ele>541.2</ele>
        <time>2025-01-25T14:11:57.000Z</time>
      </trkpt>
      <trkpt lat="43.76337" lon="6.98997">
        <ele>540</ele>
        <time>2025-01-25T14:11:59.000Z</time>
      </trkpt>
      <trkpt lat="43.76333" lon="6.98999">
        <ele>538.1</ele>
        <time>2025-01-25T14:12:03.000Z</time>
      </trkpt>
      <trkpt lat="43.76329" lon="6.98995">
        <ele>534.6</ele>
        <time>2025-01-25T14:12:11.000Z</time>
      </trkpt>
      <trkpt lat="43.76328" lon="6.98998">
        <ele>533.7</ele>
        <time>2025-01-25T14:12:17.000Z</time>
      </trkpt>
      <trkpt lat="43.76328" lon="6.98999">
        <ele>533.6</ele>
        <time>2025-01-25T14:12:18.000Z</time>
      </trkpt>
      <trkpt lat="43.76328" lon="6.99">
        <ele>533.6</ele>
        <time>2025-01-25T14:12:19.000Z</time>
      </trkpt>
      <trkpt lat="43.76324" lon="6.98994">
        <ele>533.3</ele>
        <time>2025-01-25T14:12:27.000Z</time>
      </trkpt>
      <trkpt lat="43.76321" lon="6.98987">
        <ele>533.3</ele>
        <time>2025-01-25T14:12:30.000Z</time>
      </trkpt>
      <trkpt lat="43.76316" lon="6.98981">
        <ele>533.1</ele>
        <time>2025-01-25T14:12:36.000Z</time>
      </trkpt>
      <trkpt lat="43.76317" lon="6.98974">
        <ele>533</ele>
        <time>2025-01-25T14:12:46.000Z</time>
      </trkpt>
      <trkpt lat="43.76316" lon="6.9898">
        <ele>533</ele>
        <time>2025-01-25T14:12:55.000Z</time>
      </trkpt>
      <trkpt lat="43.76318" lon="6.98986">
        <ele>533</ele>
        <time>2025-01-25T14:12:57.000Z</time>
      </trkpt>
      <trkpt lat="43.7632" lon="6.98993">
        <ele>533.1</ele>
        <time>2025-01-25T14:13:06.000Z</time>
      </trkpt>
      <trkpt lat="43.76322" lon="6.98995">
        <ele>533.1</ele>
        <time>2025-01-25T14:13:08.000Z</time>
      </trkpt>
      <trkpt lat="43.76322" lon="6.98995">
        <ele>533.1</ele>
        <time>2025-01-25T14:13:09.000Z</time>
      </trkpt>
      <trkpt lat="43.76322" lon="6.98994">
        <ele>533.1</ele>
        <time>2025-01-25T14:13:10.000Z</time>
      </trkpt>
      <trkpt lat="43.76322" lon="6.98993">
        <ele>533.1</ele>
        <time>2025-01-25T14:13:11.000Z</time>
      </trkpt>
      <trkpt lat="43.76322" lon="6.98993">
        <ele>533.1</ele>
        <time>2025-01-25T14:13:12.000Z</time>
      </trkpt>
      <trkpt lat="43.7632" lon="6.98994">
        <ele>533.1</ele>
        <time>2025-01-25T14:13:17.000Z</time>
      </trkpt>
      <trkpt lat="43.7632" lon="6.99001">
        <ele>533.1</ele>
        <time>2025-01-25T14:13:21.000Z</time>
      </trkpt>
      <trkpt lat="43.76319" lon="6.9901">
        <ele>533</ele>
        <time>2025-01-25T14:13:24.000Z</time>
      </trkpt>
      <trkpt lat="43.76317" lon="6.99019">
        <ele>532.9</ele>
        <time>2025-01-25T14:13:27.000Z</time>
      </trkpt>
      <trkpt lat="43.76314" lon="6.99027">
        <ele>532.6</ele>
        <time>2025-01-25T14:13:29.000Z</time>
      </trkpt>
      <trkpt lat="43.76312" lon="6.99036">
        <ele>532.1</ele>
        <time>2025-01-25T14:13:31.000Z</time>
      </trkpt>
      <trkpt lat="43.7631" lon="6.99045">
        <ele>531.1</ele>
        <time>2025-01-25T14:13:33.000Z</time>
      </trkpt>
      <trkpt lat="43.76305" lon="6.99054">
        <ele>529.4</ele>
        <time>2025-01-25T14:13:35.000Z</time>
      </trkpt>
      <trkpt lat="43.76301" lon="6.99058">
        <ele>528.4</ele>
        <time>2025-01-25T14:13:36.000Z</time>
      </trkpt>
      <trkpt lat="43.76295" lon="6.99062">
        <ele>526.3</ele>
        <time>2025-01-25T14:13:38.000Z</time>
      </trkpt>
      <trkpt lat="43.76292" lon="6.99068">
        <ele>524.2</ele>
        <time>2025-01-25T14:13:42.000Z</time>
      </trkpt>
      <trkpt lat="43.7629" lon="6.99061">
        <ele>522.6</ele>
        <time>2025-01-25T14:14:01.000Z</time>
      </trkpt>
      <trkpt lat="43.76285" lon="6.99057">
        <ele>521.1</ele>
        <time>2025-01-25T14:14:03.000Z</time>
      </trkpt>
      <trkpt lat="43.76282" lon="6.99052">
        <ele>517.7</ele>
        <time>2025-01-25T14:14:06.000Z</time>
      </trkpt>
      <trkpt lat="43.7628" lon="6.99046">
        <ele>514.3</ele>
        <time>2025-01-25T14:14:11.000Z</time>
      </trkpt>
      <trkpt lat="43.76274" lon="6.99044">
        <ele>511.7</ele>
        <time>2025-01-25T14:14:15.000Z</time>
      </trkpt>
      <trkpt lat="43.76269" lon="6.99043">
        <ele>509.7</ele>
        <time>2025-01-25T14:14:18.000Z</time>
      </trkpt>
      <trkpt lat="43.76262" lon="6.99042">
        <ele>508.1</ele>
        <time>2025-01-25T14:14:20.000Z</time>
      </trkpt>
      <trkpt lat="43.76256" lon="6.99041">
        <ele>506.6</ele>
        <time>2025-01-25T14:14:22.000Z</time>
      </trkpt>
      <trkpt lat="43.7625" lon="6.99041">
        <ele>505.1</ele>
        <time>2025-01-25T14:14:24.000Z</time>
      </trkpt>
      <trkpt lat="43.76244" lon="6.99037">
        <ele>503.4</ele>
        <time>2025-01-25T14:14:27.000Z</time>
      </trkpt>
      <trkpt lat="43.7624" lon="6.99031">
        <ele>502.5</ele>
        <time>2025-01-25T14:14:29.000Z</time>
      </trkpt>
      <trkpt lat="43.76238" lon="6.99019">
        <ele>501.8</ele>
        <time>2025-01-25T14:14:31.000Z</time>
      </trkpt>
      <trkpt lat="43.76237" lon="6.99012">
        <ele>501.3</ele>
        <time>2025-01-25T14:14:32.000Z</time>
      </trkpt>
      <trkpt lat="43.76236" lon="6.99004">
        <ele>500.8</ele>
        <time>2025-01-25T14:14:33.000Z</time>
      </trkpt>
      <trkpt lat="43.76234" lon="6.98997">
        <ele>500.3</ele>
        <time>2025-01-25T14:14:34.000Z</time>
      </trkpt>
      <trkpt lat="43.76232" lon="6.9899">
        <ele>499.8</ele>
        <time>2025-01-25T14:14:35.000Z</time>
      </trkpt>
      <trkpt lat="43.7623" lon="6.98983">
        <ele>499.2</ele>
        <time>2025-01-25T14:14:36.000Z</time>
      </trkpt>
      <trkpt lat="43.76226" lon="6.98975">
        <ele>498.5</ele>
        <time>2025-01-25T14:14:37.000Z</time>
      </trkpt>
      <trkpt lat="43.76223" lon="6.98967">
        <ele>497.7</ele>
        <time>2025-01-25T14:14:38.000Z</time>
      </trkpt>
      <trkpt lat="43.76219" lon="6.98959">
        <ele>496.7</ele>
        <time>2025-01-25T14:14:39.000Z</time>
      </trkpt>
      <trkpt lat="43.76212" lon="6.9895">
        <ele>495.6</ele>
        <time>2025-01-25T14:14:40.000Z</time>
      </trkpt>
      <trkpt lat="43.76205" lon="6.9894">
        <ele>494.4</ele>
        <time>2025-01-25T14:14:41.000Z</time>
      </trkpt>
      <trkpt lat="43.76199" lon="6.9893">
        <ele>493.1</ele>
        <time>2025-01-25T14:14:42.000Z</time>
      </trkpt>
      <trkpt lat="43.76195" lon="6.98921">
        <ele>491.9</ele>
        <time>2025-01-25T14:14:43.000Z</time>
      </trkpt>
      <trkpt lat="43.7619" lon="6.9891">
        <ele>490.8</ele>
        <time>2025-01-25T14:14:44.000Z</time>
      </trkpt>
      <trkpt lat="43.76186" lon="6.98898">
        <ele>489.9</ele>
        <time>2025-01-25T14:14:45.000Z</time>
      </trkpt>
      <trkpt lat="43.76184" lon="6.98888">
        <ele>489</ele>
        <time>2025-01-25T14:14:46.000Z</time>
      </trkpt>
      <trkpt lat="43.76183" lon="6.98874">
        <ele>488.1</ele>
        <time>2025-01-25T14:14:47.000Z</time>
      </trkpt>
      <trkpt lat="43.76185" lon="6.9886">
        <ele>487.2</ele>
        <time>2025-01-25T14:14:48.000Z</time>
      </trkpt>
      <trkpt lat="43.76187" lon="6.98846">
        <ele>486.2</ele>
        <time>2025-01-25T14:14:49.000Z</time>
      </trkpt>
      <trkpt lat="43.7619" lon="6.98831">
        <ele>485.2</ele>
        <time>2025-01-25T14:14:50.000Z</time>
      </trkpt>
      <trkpt lat="43.76193" lon="6.98818">
        <ele>484</ele>
        <time>2025-01-25T14:14:51.000Z</time>
      </trkpt>
      <trkpt lat="43.76198" lon="6.98806">
        <ele>482.8</ele>
        <time>2025-01-25T14:14:52.000Z</time>
      </trkpt>
      <trkpt lat="43.76205" lon="6.98798">
        <ele>481.7</ele>
        <time>2025-01-25T14:14:53.000Z</time>
      </trkpt>
      <trkpt lat="43.76212" lon="6.98794">
        <ele>480.5</ele>
        <time>2025-01-25T14:14:54.000Z</time>
      </trkpt>
      <trkpt lat="43.76223" lon="6.98792">
        <ele>479.4</ele>
        <time>2025-01-25T14:14:55.000Z</time>
      </trkpt>
      <trkpt lat="43.76231" lon="6.98786">
        <ele>478.5</ele>
        <time>2025-01-25T14:14:56.000Z</time>
      </trkpt>
      <trkpt lat="43.76239" lon="6.98782">
        <ele>477.8</ele>
        <time>2025-01-25T14:14:57.000Z</time>
      </trkpt>
      <trkpt lat="43.76246" lon="6.98777">
        <ele>476.9</ele>
        <time>2025-01-25T14:14:58.000Z</time>
      </trkpt>
      <trkpt lat="43.76251" lon="6.98772">
        <ele>476.1</ele>
        <time>2025-01-25T14:14:59.000Z</time>
      </trkpt>
      <trkpt lat="43.76256" lon="6.98767">
        <ele>475.4</ele>
        <time>2025-01-25T14:15:00.000Z</time>
      </trkpt>
      <trkpt lat="43.76259" lon="6.98762">
        <ele>474.9</ele>
        <time>2025-01-25T14:15:01.000Z</time>
      </trkpt>
      <trkpt lat="43.76261" lon="6.98756">
        <ele>474.3</ele>
        <time>2025-01-25T14:15:03.000Z</time>
      </trkpt>
      <trkpt lat="43.76268" lon="6.98751">
        <ele>474.1</ele>
        <time>2025-01-25T14:15:05.000Z</time>
      </trkpt>
      <trkpt lat="43.76272" lon="6.98749">
        <ele>474.1</ele>
        <time>2025-01-25T14:15:06.000Z</time>
      </trkpt>
      <trkpt lat="43.76277" lon="6.98748">
        <ele>474.1</ele>
        <time>2025-01-25T14:15:07.000Z</time>
      </trkpt>
      <trkpt lat="43.76282" lon="6.98748">
        <ele>474.1</ele>
        <time>2025-01-25T14:15:08.000Z</time>
      </trkpt>
      <trkpt lat="43.76291" lon="6.98745">
        <ele>474.2</ele>
        <time>2025-01-25T14:15:10.000Z</time>
      </trkpt>
      <trkpt lat="43.76298" lon="6.98745">
        <ele>474.2</ele>
        <time>2025-01-25T14:15:12.000Z</time>
      </trkpt>
      <trkpt lat="43.76304" lon="6.98746">
        <ele>474.3</ele>
        <time>2025-01-25T14:15:14.000Z</time>
      </trkpt>
      <trkpt lat="43.76307" lon="6.98748">
        <ele>474.9</ele>
        <time>2025-01-25T14:15:23.000Z</time>
      </trkpt>
      <trkpt lat="43.76306" lon="6.98747">
        <ele>475</ele>
        <time>2025-01-25T14:15:24.000Z</time>
      </trkpt>
      <trkpt lat="43.76306" lon="6.98747">
        <ele>475</ele>
        <time>2025-01-25T14:15:25.000Z</time>
      </trkpt>
      <trkpt lat="43.76308" lon="6.98754">
        <ele>475.3</ele>
        <time>2025-01-25T14:15:35.000Z</time>
      </trkpt>
      <trkpt lat="43.76308" lon="6.98755">
        <ele>475.3</ele>
        <time>2025-01-25T14:15:36.100Z</time>
      </trkpt>
      <trkpt lat="43.76308" lon="6.98755">
        <ele>475.3</ele>
        <time>2025-01-25T14:15:37.000Z</time>
      </trkpt>
      <trkpt lat="43.76308" lon="6.98755">
        <ele>475.3</ele>
        <time>2025-01-25T14:15:37.000Z</time>
      </trkpt>
    </trkseg>
  </trk>
</gpx>